<?xml version="1.0" encoding="UTF-8" standalone="no" ?>
<gpx xmlns="http://www.topografix.com/GPX/1/1" xmlns:xsi="http://www.w3.org/2001/XMLSchema-instance" xsi:schemaLocation="http://www.topografix.com/GPX/1/1 http://www.topografix.com/GPX/1/1/gpx.xsd" version="1.1" creator="VisuGPX - https://www.visugpx.com">
  <metadata>
    <name>J3 Voie Bleue : St Jean de Losnes - Gray</name>
    <desc><![CDATA[Voie Bleue réalisée dans le sens Sud (Lyon) Nord (Apach)

Pour l'itinéraire complet, suivre le [url=https://www.visugpx.com/membres/33867/voie-bleue/]dossier suivant[/url].]]></desc>
  </metadata>
  <trk>
    <name><![CDATA[Vélo sur route, 2026-05-15]]></name>
    <trkseg>
      <trkpt lat="47.10236" lon="5.27571">
        <ele>178.2002</ele>
        <time>2026-05-15T08:54:59+02:00</time>
      </trkpt>
      <trkpt lat="47.10236" lon="5.27571">
        <ele>178.2002</ele>
        <time>2026-05-15T08:55:00+02:00</time>
      </trkpt>
      <trkpt lat="47.10226" lon="5.27573">
        <ele>178.10059</ele>
        <time>2026-05-15T08:55:06+02:00</time>
      </trkpt>
      <trkpt lat="47.10224" lon="5.27572">
        <ele>178.10059</ele>
        <time>2026-05-15T08:55:07+02:00</time>
      </trkpt>
      <trkpt lat="47.10223" lon="5.27571">
        <ele>178.10059</ele>
        <time>2026-05-15T08:55:08+02:00</time>
      </trkpt>
      <trkpt lat="47.10221" lon="5.2757">
        <ele>178.10059</ele>
        <time>2026-05-15T08:55:09+02:00</time>
      </trkpt>
      <trkpt lat="47.1022" lon="5.27568">
        <ele>178.10059</ele>
        <time>2026-05-15T08:55:10+02:00</time>
      </trkpt>
      <trkpt lat="47.10219" lon="5.27566">
        <ele>178.10059</ele>
        <time>2026-05-15T08:55:11+02:00</time>
      </trkpt>
      <trkpt lat="47.10219" lon="5.27563">
        <ele>178.10059</ele>
        <time>2026-05-15T08:55:12+02:00</time>
      </trkpt>
      <trkpt lat="47.10218" lon="5.2756">
        <ele>178.10059</ele>
        <time>2026-05-15T08:55:13+02:00</time>
      </trkpt>
      <trkpt lat="47.10218" lon="5.27556">
        <ele>178.10059</ele>
        <time>2026-05-15T08:55:14+02:00</time>
      </trkpt>
      <trkpt lat="47.10217" lon="5.27553">
        <ele>178.10059</ele>
        <time>2026-05-15T08:55:15+02:00</time>
      </trkpt>
      <trkpt lat="47.10217" lon="5.27549">
        <ele>178.10059</ele>
        <time>2026-05-15T08:55:16+02:00</time>
      </trkpt>
      <trkpt lat="47.10216" lon="5.27545">
        <ele>178.10059</ele>
        <time>2026-05-15T08:55:17+02:00</time>
      </trkpt>
      <trkpt lat="47.10215" lon="5.27542">
        <ele>178.10059</ele>
        <time>2026-05-15T08:55:18+02:00</time>
      </trkpt>
      <trkpt lat="47.10214" lon="5.27538">
        <ele>178.10059</ele>
        <time>2026-05-15T08:55:19+02:00</time>
      </trkpt>
      <trkpt lat="47.10213" lon="5.27534">
        <ele>178.10059</ele>
        <time>2026-05-15T08:55:20+02:00</time>
      </trkpt>
      <trkpt lat="47.10212" lon="5.27529">
        <ele>178.10059</ele>
        <time>2026-05-15T08:55:21+02:00</time>
      </trkpt>
      <trkpt lat="47.10212" lon="5.27524">
        <ele>178.10059</ele>
        <time>2026-05-15T08:55:22+02:00</time>
      </trkpt>
      <trkpt lat="47.10212" lon="5.27519">
        <ele>178.10059</ele>
        <time>2026-05-15T08:55:23+02:00</time>
      </trkpt>
      <trkpt lat="47.10211" lon="5.27515">
        <ele>178.10059</ele>
        <time>2026-05-15T08:55:24+02:00</time>
      </trkpt>
      <trkpt lat="47.10211" lon="5.2751">
        <ele>178.10059</ele>
        <time>2026-05-15T08:55:25+02:00</time>
      </trkpt>
      <trkpt lat="47.1021" lon="5.27505">
        <ele>178.10059</ele>
        <time>2026-05-15T08:55:26+02:00</time>
      </trkpt>
      <trkpt lat="47.10209" lon="5.275">
        <ele>178.10059</ele>
        <time>2026-05-15T08:55:27+02:00</time>
      </trkpt>
      <trkpt lat="47.10209" lon="5.27495">
        <ele>178.10059</ele>
        <time>2026-05-15T08:55:28+02:00</time>
      </trkpt>
      <trkpt lat="47.10208" lon="5.27491">
        <ele>178.10059</ele>
        <time>2026-05-15T08:55:29+02:00</time>
      </trkpt>
      <trkpt lat="47.10207" lon="5.27486">
        <ele>178.10059</ele>
        <time>2026-05-15T08:55:30+02:00</time>
      </trkpt>
      <trkpt lat="47.10207" lon="5.27481">
        <ele>178.10059</ele>
        <time>2026-05-15T08:55:31+02:00</time>
      </trkpt>
      <trkpt lat="47.10206" lon="5.27476">
        <ele>178.10059</ele>
        <time>2026-05-15T08:55:32+02:00</time>
      </trkpt>
      <trkpt lat="47.10206" lon="5.27471">
        <ele>178.10059</ele>
        <time>2026-05-15T08:55:33+02:00</time>
      </trkpt>
      <trkpt lat="47.10204" lon="5.27467">
        <ele>178.10059</ele>
        <time>2026-05-15T08:55:34+02:00</time>
      </trkpt>
      <trkpt lat="47.10204" lon="5.27462">
        <ele>178.10059</ele>
        <time>2026-05-15T08:55:35+02:00</time>
      </trkpt>
      <trkpt lat="47.10203" lon="5.27458">
        <ele>178.10059</ele>
        <time>2026-05-15T08:55:36+02:00</time>
      </trkpt>
      <trkpt lat="47.10203" lon="5.27453">
        <ele>178.10059</ele>
        <time>2026-05-15T08:55:37+02:00</time>
      </trkpt>
      <trkpt lat="47.10203" lon="5.27449">
        <ele>178.10059</ele>
        <time>2026-05-15T08:55:38+02:00</time>
      </trkpt>
      <trkpt lat="47.10203" lon="5.27445">
        <ele>178.10059</ele>
        <time>2026-05-15T08:55:39+02:00</time>
      </trkpt>
      <trkpt lat="47.10202" lon="5.27441">
        <ele>178.10059</ele>
        <time>2026-05-15T08:55:40+02:00</time>
      </trkpt>
      <trkpt lat="47.10201" lon="5.27437">
        <ele>178.10059</ele>
        <time>2026-05-15T08:55:41+02:00</time>
      </trkpt>
      <trkpt lat="47.10201" lon="5.27434">
        <ele>178.10059</ele>
        <time>2026-05-15T08:55:42+02:00</time>
      </trkpt>
      <trkpt lat="47.102" lon="5.27432">
        <ele>178.10059</ele>
        <time>2026-05-15T08:55:43+02:00</time>
      </trkpt>
      <trkpt lat="47.102" lon="5.2743">
        <ele>178.10059</ele>
        <time>2026-05-15T08:55:44+02:00</time>
      </trkpt>
      <trkpt lat="47.10199" lon="5.27429">
        <ele>178.10059</ele>
        <time>2026-05-15T08:55:45+02:00</time>
      </trkpt>
      <trkpt lat="47.10199" lon="5.27428">
        <ele>178.10059</ele>
        <time>2026-05-15T08:55:46+02:00</time>
      </trkpt>
      <trkpt lat="47.10199" lon="5.27428">
        <ele>178.10059</ele>
        <time>2026-05-15T08:55:47+02:00</time>
      </trkpt>
      <trkpt lat="47.10198" lon="5.27427">
        <ele>178.10059</ele>
        <time>2026-05-15T08:55:48+02:00</time>
      </trkpt>
      <trkpt lat="47.10198" lon="5.2741">
        <ele>178.10059</ele>
        <time>2026-05-15T08:55:53+02:00</time>
      </trkpt>
      <trkpt lat="47.10197" lon="5.27406">
        <ele>178.10059</ele>
        <time>2026-05-15T08:55:54+02:00</time>
      </trkpt>
      <trkpt lat="47.10197" lon="5.27401">
        <ele>178.10059</ele>
        <time>2026-05-15T08:55:55+02:00</time>
      </trkpt>
      <trkpt lat="47.10196" lon="5.27397">
        <ele>178.10059</ele>
        <time>2026-05-15T08:55:56+02:00</time>
      </trkpt>
      <trkpt lat="47.10195" lon="5.27392">
        <ele>178.10059</ele>
        <time>2026-05-15T08:55:57+02:00</time>
      </trkpt>
      <trkpt lat="47.10194" lon="5.27387">
        <ele>178.10059</ele>
        <time>2026-05-15T08:55:58+02:00</time>
      </trkpt>
      <trkpt lat="47.10193" lon="5.27382">
        <ele>178.10059</ele>
        <time>2026-05-15T08:55:59+02:00</time>
      </trkpt>
      <trkpt lat="47.10191" lon="5.27377">
        <ele>178.10059</ele>
        <time>2026-05-15T08:56:00+02:00</time>
      </trkpt>
      <trkpt lat="47.10191" lon="5.27371">
        <ele>178.10059</ele>
        <time>2026-05-15T08:56:01+02:00</time>
      </trkpt>
      <trkpt lat="47.1019" lon="5.27366">
        <ele>178.10059</ele>
        <time>2026-05-15T08:56:02+02:00</time>
      </trkpt>
      <trkpt lat="47.10189" lon="5.2736">
        <ele>178.10059</ele>
        <time>2026-05-15T08:56:03+02:00</time>
      </trkpt>
      <trkpt lat="47.10188" lon="5.27355">
        <ele>178.10059</ele>
        <time>2026-05-15T08:56:04+02:00</time>
      </trkpt>
      <trkpt lat="47.10187" lon="5.2735">
        <ele>178.10059</ele>
        <time>2026-05-15T08:56:05+02:00</time>
      </trkpt>
      <trkpt lat="47.10187" lon="5.27344">
        <ele>178.10059</ele>
        <time>2026-05-15T08:56:06+02:00</time>
      </trkpt>
      <trkpt lat="47.10186" lon="5.27339">
        <ele>178.10059</ele>
        <time>2026-05-15T08:56:07+02:00</time>
      </trkpt>
      <trkpt lat="47.10185" lon="5.27337">
        <ele>178.10059</ele>
        <time>2026-05-15T08:56:08+02:00</time>
      </trkpt>
      <trkpt lat="47.10184" lon="5.27329">
        <ele>178.10059</ele>
        <time>2026-05-15T08:56:09+02:00</time>
      </trkpt>
      <trkpt lat="47.10183" lon="5.27324">
        <ele>178.10059</ele>
        <time>2026-05-15T08:56:10+02:00</time>
      </trkpt>
      <trkpt lat="47.10182" lon="5.27319">
        <ele>178.10059</ele>
        <time>2026-05-15T08:56:11+02:00</time>
      </trkpt>
      <trkpt lat="47.10181" lon="5.27314">
        <ele>178.10059</ele>
        <time>2026-05-15T08:56:12+02:00</time>
      </trkpt>
      <trkpt lat="47.1018" lon="5.27309">
        <ele>178.10059</ele>
        <time>2026-05-15T08:56:13+02:00</time>
      </trkpt>
      <trkpt lat="47.1018" lon="5.27304">
        <ele>178.10059</ele>
        <time>2026-05-15T08:56:14+02:00</time>
      </trkpt>
      <trkpt lat="47.10179" lon="5.27298">
        <ele>178.10059</ele>
        <time>2026-05-15T08:56:15+02:00</time>
      </trkpt>
      <trkpt lat="47.10178" lon="5.27292">
        <ele>178.10059</ele>
        <time>2026-05-15T08:56:16+02:00</time>
      </trkpt>
      <trkpt lat="47.10177" lon="5.27286">
        <ele>178.10059</ele>
        <time>2026-05-15T08:56:17+02:00</time>
      </trkpt>
      <trkpt lat="47.10176" lon="5.2728">
        <ele>178.10059</ele>
        <time>2026-05-15T08:56:18+02:00</time>
      </trkpt>
      <trkpt lat="47.10175" lon="5.27274">
        <ele>178.10059</ele>
        <time>2026-05-15T08:56:19+02:00</time>
      </trkpt>
      <trkpt lat="47.10175" lon="5.27268">
        <ele>178.10059</ele>
        <time>2026-05-15T08:56:20+02:00</time>
      </trkpt>
      <trkpt lat="47.10174" lon="5.27262">
        <ele>178.10059</ele>
        <time>2026-05-15T08:56:21+02:00</time>
      </trkpt>
      <trkpt lat="47.10172" lon="5.27256">
        <ele>178.10059</ele>
        <time>2026-05-15T08:56:22+02:00</time>
      </trkpt>
      <trkpt lat="47.10171" lon="5.2725">
        <ele>178.10059</ele>
        <time>2026-05-15T08:56:23+02:00</time>
      </trkpt>
      <trkpt lat="47.1017" lon="5.27243">
        <ele>178.10059</ele>
        <time>2026-05-15T08:56:24+02:00</time>
      </trkpt>
      <trkpt lat="47.1017" lon="5.27237">
        <ele>178.10059</ele>
        <time>2026-05-15T08:56:25+02:00</time>
      </trkpt>
      <trkpt lat="47.10169" lon="5.27231">
        <ele>178.10059</ele>
        <time>2026-05-15T08:56:26+02:00</time>
      </trkpt>
      <trkpt lat="47.10167" lon="5.27225">
        <ele>178.10059</ele>
        <time>2026-05-15T08:56:27+02:00</time>
      </trkpt>
      <trkpt lat="47.10167" lon="5.27219">
        <ele>178.10059</ele>
        <time>2026-05-15T08:56:28+02:00</time>
      </trkpt>
      <trkpt lat="47.10166" lon="5.27213">
        <ele>178.10059</ele>
        <time>2026-05-15T08:56:29+02:00</time>
      </trkpt>
      <trkpt lat="47.10165" lon="5.27207">
        <ele>178.10059</ele>
        <time>2026-05-15T08:56:30+02:00</time>
      </trkpt>
      <trkpt lat="47.10164" lon="5.27201">
        <ele>178.10059</ele>
        <time>2026-05-15T08:56:31+02:00</time>
      </trkpt>
      <trkpt lat="47.10162" lon="5.27196">
        <ele>178.10059</ele>
        <time>2026-05-15T08:56:32+02:00</time>
      </trkpt>
      <trkpt lat="47.10161" lon="5.2719">
        <ele>178.10059</ele>
        <time>2026-05-15T08:56:33+02:00</time>
      </trkpt>
      <trkpt lat="47.1016" lon="5.27184">
        <ele>178.10059</ele>
        <time>2026-05-15T08:56:34+02:00</time>
      </trkpt>
      <trkpt lat="47.10159" lon="5.27181">
        <ele>178.10059</ele>
        <time>2026-05-15T08:56:35+02:00</time>
      </trkpt>
      <trkpt lat="47.10159" lon="5.27172">
        <ele>178.10059</ele>
        <time>2026-05-15T08:56:36+02:00</time>
      </trkpt>
      <trkpt lat="47.1016" lon="5.27166">
        <ele>178.10059</ele>
        <time>2026-05-15T08:56:37+02:00</time>
      </trkpt>
      <trkpt lat="47.10162" lon="5.2716">
        <ele>178.10059</ele>
        <time>2026-05-15T08:56:38+02:00</time>
      </trkpt>
      <trkpt lat="47.10165" lon="5.27156">
        <ele>178.10059</ele>
        <time>2026-05-15T08:56:39+02:00</time>
      </trkpt>
      <trkpt lat="47.10169" lon="5.27153">
        <ele>178.2002</ele>
        <time>2026-05-15T08:56:40+02:00</time>
      </trkpt>
      <trkpt lat="47.10172" lon="5.2715">
        <ele>178.2002</ele>
        <time>2026-05-15T08:56:41+02:00</time>
      </trkpt>
      <trkpt lat="47.10176" lon="5.27147">
        <ele>178.40039</ele>
        <time>2026-05-15T08:56:42+02:00</time>
      </trkpt>
      <trkpt lat="47.1018" lon="5.27144">
        <ele>178.7002</ele>
        <time>2026-05-15T08:56:43+02:00</time>
      </trkpt>
      <trkpt lat="47.10183" lon="5.2714">
        <ele>178.7002</ele>
        <time>2026-05-15T08:56:44+02:00</time>
      </trkpt>
      <trkpt lat="47.10187" lon="5.27136">
        <ele>179</ele>
        <time>2026-05-15T08:56:45+02:00</time>
      </trkpt>
      <trkpt lat="47.10189" lon="5.27131">
        <ele>179</ele>
        <time>2026-05-15T08:56:46+02:00</time>
      </trkpt>
      <trkpt lat="47.10191" lon="5.27126">
        <ele>179.10059</ele>
        <time>2026-05-15T08:56:47+02:00</time>
      </trkpt>
      <trkpt lat="47.10192" lon="5.2712">
        <ele>179.60059</ele>
        <time>2026-05-15T08:56:48+02:00</time>
      </trkpt>
      <trkpt lat="47.10192" lon="5.27114">
        <ele>179.60059</ele>
        <time>2026-05-15T08:56:49+02:00</time>
      </trkpt>
      <trkpt lat="47.10191" lon="5.27108">
        <ele>179.2002</ele>
        <time>2026-05-15T08:56:50+02:00</time>
      </trkpt>
      <trkpt lat="47.1019" lon="5.27101">
        <ele>179.2998</ele>
        <time>2026-05-15T08:56:51+02:00</time>
      </trkpt>
      <trkpt lat="47.10188" lon="5.27095">
        <ele>179.2998</ele>
        <time>2026-05-15T08:56:52+02:00</time>
      </trkpt>
      <trkpt lat="47.10187" lon="5.27089">
        <ele>179.40039</ele>
        <time>2026-05-15T08:56:53+02:00</time>
      </trkpt>
      <trkpt lat="47.10185" lon="5.27083">
        <ele>179</ele>
        <time>2026-05-15T08:56:54+02:00</time>
      </trkpt>
      <trkpt lat="47.10183" lon="5.27077">
        <ele>179.10059</ele>
        <time>2026-05-15T08:56:55+02:00</time>
      </trkpt>
      <trkpt lat="47.10182" lon="5.27071">
        <ele>179.10059</ele>
        <time>2026-05-15T08:56:56+02:00</time>
      </trkpt>
      <trkpt lat="47.1018" lon="5.27065">
        <ele>179.10059</ele>
        <time>2026-05-15T08:56:57+02:00</time>
      </trkpt>
      <trkpt lat="47.10178" lon="5.27059">
        <ele>178.7998</ele>
        <time>2026-05-15T08:56:58+02:00</time>
      </trkpt>
      <trkpt lat="47.10177" lon="5.27056">
        <ele>178.7998</ele>
        <time>2026-05-15T08:56:59+02:00</time>
      </trkpt>
      <trkpt lat="47.10175" lon="5.27046">
        <ele>178.7998</ele>
        <time>2026-05-15T08:57:00+02:00</time>
      </trkpt>
      <trkpt lat="47.10173" lon="5.2704">
        <ele>178.5</ele>
        <time>2026-05-15T08:57:01+02:00</time>
      </trkpt>
      <trkpt lat="47.10171" lon="5.27033">
        <ele>178.5</ele>
        <time>2026-05-15T08:57:02+02:00</time>
      </trkpt>
      <trkpt lat="47.10169" lon="5.27027">
        <ele>178.5</ele>
        <time>2026-05-15T08:57:03+02:00</time>
      </trkpt>
      <trkpt lat="47.10167" lon="5.27021">
        <ele>178.2002</ele>
        <time>2026-05-15T08:57:04+02:00</time>
      </trkpt>
      <trkpt lat="47.10166" lon="5.27014">
        <ele>178.2002</ele>
        <time>2026-05-15T08:57:05+02:00</time>
      </trkpt>
      <trkpt lat="47.10164" lon="5.27008">
        <ele>178.2998</ele>
        <time>2026-05-15T08:57:06+02:00</time>
      </trkpt>
      <trkpt lat="47.10163" lon="5.27002">
        <ele>178.2998</ele>
        <time>2026-05-15T08:57:07+02:00</time>
      </trkpt>
      <trkpt lat="47.10162" lon="5.26996">
        <ele>178.10059</ele>
        <time>2026-05-15T08:57:08+02:00</time>
      </trkpt>
      <trkpt lat="47.10161" lon="5.2699">
        <ele>178.10059</ele>
        <time>2026-05-15T08:57:09+02:00</time>
      </trkpt>
      <trkpt lat="47.1016" lon="5.26984">
        <ele>178.10059</ele>
        <time>2026-05-15T08:57:10+02:00</time>
      </trkpt>
      <trkpt lat="47.10159" lon="5.26979">
        <ele>178.10059</ele>
        <time>2026-05-15T08:57:11+02:00</time>
      </trkpt>
      <trkpt lat="47.10157" lon="5.26974">
        <ele>178.10059</ele>
        <time>2026-05-15T08:57:12+02:00</time>
      </trkpt>
      <trkpt lat="47.10155" lon="5.26968">
        <ele>178</ele>
        <time>2026-05-15T08:57:13+02:00</time>
      </trkpt>
      <trkpt lat="47.10154" lon="5.26963">
        <ele>178</ele>
        <time>2026-05-15T08:57:14+02:00</time>
      </trkpt>
      <trkpt lat="47.10153" lon="5.26957">
        <ele>178</ele>
        <time>2026-05-15T08:57:15+02:00</time>
      </trkpt>
      <trkpt lat="47.10151" lon="5.26951">
        <ele>178</ele>
        <time>2026-05-15T08:57:16+02:00</time>
      </trkpt>
      <trkpt lat="47.1015" lon="5.26945">
        <ele>177.90039</ele>
        <time>2026-05-15T08:57:17+02:00</time>
      </trkpt>
      <trkpt lat="47.10149" lon="5.26938">
        <ele>178</ele>
        <time>2026-05-15T08:57:18+02:00</time>
      </trkpt>
      <trkpt lat="47.10148" lon="5.26931">
        <ele>178.2002</ele>
        <time>2026-05-15T08:57:19+02:00</time>
      </trkpt>
      <trkpt lat="47.10148" lon="5.26924">
        <ele>178.2002</ele>
        <time>2026-05-15T08:57:20+02:00</time>
      </trkpt>
      <trkpt lat="47.10148" lon="5.26917">
        <ele>178.40039</ele>
        <time>2026-05-15T08:57:21+02:00</time>
      </trkpt>
      <trkpt lat="47.10148" lon="5.26909">
        <ele>178.7002</ele>
        <time>2026-05-15T08:57:22+02:00</time>
      </trkpt>
      <trkpt lat="47.10148" lon="5.26902">
        <ele>178.90039</ele>
        <time>2026-05-15T08:57:23+02:00</time>
      </trkpt>
      <trkpt lat="47.10149" lon="5.26895">
        <ele>179</ele>
        <time>2026-05-15T08:57:24+02:00</time>
      </trkpt>
      <trkpt lat="47.1015" lon="5.26888">
        <ele>179.10059</ele>
        <time>2026-05-15T08:57:25+02:00</time>
      </trkpt>
      <trkpt lat="47.10151" lon="5.26882">
        <ele>179.60059</ele>
        <time>2026-05-15T08:57:26+02:00</time>
      </trkpt>
      <trkpt lat="47.10153" lon="5.26875">
        <ele>179.7998</ele>
        <time>2026-05-15T08:57:27+02:00</time>
      </trkpt>
      <trkpt lat="47.10153" lon="5.26869">
        <ele>180</ele>
        <time>2026-05-15T08:57:28+02:00</time>
      </trkpt>
      <trkpt lat="47.10153" lon="5.26863">
        <ele>180.10059</ele>
        <time>2026-05-15T08:57:29+02:00</time>
      </trkpt>
      <trkpt lat="47.10151" lon="5.26857">
        <ele>180.10059</ele>
        <time>2026-05-15T08:57:30+02:00</time>
      </trkpt>
      <trkpt lat="47.1015" lon="5.26851">
        <ele>179.5</ele>
        <time>2026-05-15T08:57:31+02:00</time>
      </trkpt>
      <trkpt lat="47.10148" lon="5.26846">
        <ele>179.5</ele>
        <time>2026-05-15T08:57:32+02:00</time>
      </trkpt>
      <trkpt lat="47.10145" lon="5.26841">
        <ele>179.60059</ele>
        <time>2026-05-15T08:57:33+02:00</time>
      </trkpt>
      <trkpt lat="47.10143" lon="5.26835">
        <ele>179</ele>
        <time>2026-05-15T08:57:34+02:00</time>
      </trkpt>
      <trkpt lat="47.10142" lon="5.2683">
        <ele>179</ele>
        <time>2026-05-15T08:57:35+02:00</time>
      </trkpt>
      <trkpt lat="47.10139" lon="5.26824">
        <ele>179.10059</ele>
        <time>2026-05-15T08:57:36+02:00</time>
      </trkpt>
      <trkpt lat="47.10137" lon="5.26819">
        <ele>178.5</ele>
        <time>2026-05-15T08:57:37+02:00</time>
      </trkpt>
      <trkpt lat="47.10135" lon="5.26813">
        <ele>178.5</ele>
        <time>2026-05-15T08:57:38+02:00</time>
      </trkpt>
      <trkpt lat="47.10133" lon="5.26807">
        <ele>178.2002</ele>
        <time>2026-05-15T08:57:39+02:00</time>
      </trkpt>
      <trkpt lat="47.10131" lon="5.26801">
        <ele>178.60059</ele>
        <time>2026-05-15T08:57:40+02:00</time>
      </trkpt>
      <trkpt lat="47.10129" lon="5.26795">
        <ele>178.60059</ele>
        <time>2026-05-15T08:57:41+02:00</time>
      </trkpt>
      <trkpt lat="47.10127" lon="5.2679">
        <ele>178.7002</ele>
        <time>2026-05-15T08:57:42+02:00</time>
      </trkpt>
      <trkpt lat="47.10126" lon="5.26785">
        <ele>179.2002</ele>
        <time>2026-05-15T08:57:43+02:00</time>
      </trkpt>
      <trkpt lat="47.10124" lon="5.2678">
        <ele>179.2002</ele>
        <time>2026-05-15T08:57:44+02:00</time>
      </trkpt>
      <trkpt lat="47.10121" lon="5.26775">
        <ele>178.90039</ele>
        <time>2026-05-15T08:57:45+02:00</time>
      </trkpt>
      <trkpt lat="47.10119" lon="5.2677">
        <ele>178.90039</ele>
        <time>2026-05-15T08:57:46+02:00</time>
      </trkpt>
      <trkpt lat="47.10117" lon="5.26766">
        <ele>179</ele>
        <time>2026-05-15T08:57:47+02:00</time>
      </trkpt>
      <trkpt lat="47.10115" lon="5.26761">
        <ele>178.5</ele>
        <time>2026-05-15T08:57:48+02:00</time>
      </trkpt>
      <trkpt lat="47.10114" lon="5.26757">
        <ele>178.5</ele>
        <time>2026-05-15T08:57:49+02:00</time>
      </trkpt>
      <trkpt lat="47.10112" lon="5.26753">
        <ele>178.5</ele>
        <time>2026-05-15T08:57:50+02:00</time>
      </trkpt>
      <trkpt lat="47.10111" lon="5.26749">
        <ele>178.60059</ele>
        <time>2026-05-15T08:57:51+02:00</time>
      </trkpt>
      <trkpt lat="47.1011" lon="5.26745">
        <ele>178.60059</ele>
        <time>2026-05-15T08:57:52+02:00</time>
      </trkpt>
      <trkpt lat="47.10109" lon="5.26741">
        <ele>178.2002</ele>
        <time>2026-05-15T08:57:53+02:00</time>
      </trkpt>
      <trkpt lat="47.10108" lon="5.26738">
        <ele>178.2002</ele>
        <time>2026-05-15T08:57:54+02:00</time>
      </trkpt>
      <trkpt lat="47.10108" lon="5.26735">
        <ele>178.2002</ele>
        <time>2026-05-15T08:57:55+02:00</time>
      </trkpt>
      <trkpt lat="47.10106" lon="5.26732">
        <ele>178.2002</ele>
        <time>2026-05-15T08:57:56+02:00</time>
      </trkpt>
      <trkpt lat="47.10105" lon="5.26728">
        <ele>178.2002</ele>
        <time>2026-05-15T08:57:57+02:00</time>
      </trkpt>
      <trkpt lat="47.10105" lon="5.26724">
        <ele>178.2998</ele>
        <time>2026-05-15T08:57:58+02:00</time>
      </trkpt>
      <trkpt lat="47.10103" lon="5.26719">
        <ele>178.10059</ele>
        <time>2026-05-15T08:57:59+02:00</time>
      </trkpt>
      <trkpt lat="47.10102" lon="5.26715">
        <ele>178.10059</ele>
        <time>2026-05-15T08:58:00+02:00</time>
      </trkpt>
      <trkpt lat="47.10101" lon="5.26711">
        <ele>178.10059</ele>
        <time>2026-05-15T08:58:01+02:00</time>
      </trkpt>
      <trkpt lat="47.10099" lon="5.26706">
        <ele>178.10059</ele>
        <time>2026-05-15T08:58:02+02:00</time>
      </trkpt>
      <trkpt lat="47.10098" lon="5.26702">
        <ele>178</ele>
        <time>2026-05-15T08:58:03+02:00</time>
      </trkpt>
      <trkpt lat="47.10096" lon="5.26697">
        <ele>178</ele>
        <time>2026-05-15T08:58:04+02:00</time>
      </trkpt>
      <trkpt lat="47.10094" lon="5.26692">
        <ele>178</ele>
        <time>2026-05-15T08:58:05+02:00</time>
      </trkpt>
      <trkpt lat="47.10094" lon="5.26687">
        <ele>178</ele>
        <time>2026-05-15T08:58:06+02:00</time>
      </trkpt>
      <trkpt lat="47.10094" lon="5.26684">
        <ele>178</ele>
        <time>2026-05-15T08:58:07+02:00</time>
      </trkpt>
      <trkpt lat="47.10093" lon="5.26681">
        <ele>178</ele>
        <time>2026-05-15T08:58:08+02:00</time>
      </trkpt>
      <trkpt lat="47.10093" lon="5.26678">
        <ele>178</ele>
        <time>2026-05-15T08:58:09+02:00</time>
      </trkpt>
      <trkpt lat="47.10092" lon="5.26675">
        <ele>178</ele>
        <time>2026-05-15T08:58:10+02:00</time>
      </trkpt>
      <trkpt lat="47.10092" lon="5.26671">
        <ele>178</ele>
        <time>2026-05-15T08:58:11+02:00</time>
      </trkpt>
      <trkpt lat="47.10092" lon="5.26666">
        <ele>178</ele>
        <time>2026-05-15T08:58:12+02:00</time>
      </trkpt>
      <trkpt lat="47.10093" lon="5.26661">
        <ele>178</ele>
        <time>2026-05-15T08:58:13+02:00</time>
      </trkpt>
      <trkpt lat="47.10093" lon="5.26656">
        <ele>178</ele>
        <time>2026-05-15T08:58:14+02:00</time>
      </trkpt>
      <trkpt lat="47.10094" lon="5.26651">
        <ele>178</ele>
        <time>2026-05-15T08:58:15+02:00</time>
      </trkpt>
      <trkpt lat="47.10095" lon="5.26645">
        <ele>178</ele>
        <time>2026-05-15T08:58:16+02:00</time>
      </trkpt>
      <trkpt lat="47.10095" lon="5.26639">
        <ele>178</ele>
        <time>2026-05-15T08:58:17+02:00</time>
      </trkpt>
      <trkpt lat="47.10096" lon="5.26633">
        <ele>178</ele>
        <time>2026-05-15T08:58:18+02:00</time>
      </trkpt>
      <trkpt lat="47.10096" lon="5.26627">
        <ele>178</ele>
        <time>2026-05-15T08:58:19+02:00</time>
      </trkpt>
      <trkpt lat="47.10097" lon="5.26621">
        <ele>178</ele>
        <time>2026-05-15T08:58:20+02:00</time>
      </trkpt>
      <trkpt lat="47.10098" lon="5.26615">
        <ele>178</ele>
        <time>2026-05-15T08:58:21+02:00</time>
      </trkpt>
      <trkpt lat="47.10098" lon="5.26608">
        <ele>178</ele>
        <time>2026-05-15T08:58:22+02:00</time>
      </trkpt>
      <trkpt lat="47.10099" lon="5.26602">
        <ele>178.2002</ele>
        <time>2026-05-15T08:58:23+02:00</time>
      </trkpt>
      <trkpt lat="47.101" lon="5.26595">
        <ele>178.2002</ele>
        <time>2026-05-15T08:58:24+02:00</time>
      </trkpt>
      <trkpt lat="47.10101" lon="5.26588">
        <ele>178.2998</ele>
        <time>2026-05-15T08:58:25+02:00</time>
      </trkpt>
      <trkpt lat="47.10101" lon="5.26582">
        <ele>178.2998</ele>
        <time>2026-05-15T08:58:26+02:00</time>
      </trkpt>
      <trkpt lat="47.10102" lon="5.26575">
        <ele>178.2002</ele>
        <time>2026-05-15T08:58:27+02:00</time>
      </trkpt>
      <trkpt lat="47.10103" lon="5.2657">
        <ele>178.2002</ele>
        <time>2026-05-15T08:58:28+02:00</time>
      </trkpt>
      <trkpt lat="47.10104" lon="5.26564">
        <ele>178.40039</ele>
        <time>2026-05-15T08:58:29+02:00</time>
      </trkpt>
      <trkpt lat="47.10104" lon="5.26558">
        <ele>178.2002</ele>
        <time>2026-05-15T08:58:30+02:00</time>
      </trkpt>
      <trkpt lat="47.10105" lon="5.26551">
        <ele>177.90039</ele>
        <time>2026-05-15T08:58:31+02:00</time>
      </trkpt>
      <trkpt lat="47.10106" lon="5.26545">
        <ele>177.90039</ele>
        <time>2026-05-15T08:58:32+02:00</time>
      </trkpt>
      <trkpt lat="47.10106" lon="5.26538">
        <ele>177.90039</ele>
        <time>2026-05-15T08:58:33+02:00</time>
      </trkpt>
      <trkpt lat="47.10107" lon="5.26532">
        <ele>177.90039</ele>
        <time>2026-05-15T08:58:34+02:00</time>
      </trkpt>
      <trkpt lat="47.10108" lon="5.26525">
        <ele>177.90039</ele>
        <time>2026-05-15T08:58:35+02:00</time>
      </trkpt>
      <trkpt lat="47.10109" lon="5.26518">
        <ele>177.90039</ele>
        <time>2026-05-15T08:58:36+02:00</time>
      </trkpt>
      <trkpt lat="47.10109" lon="5.26511">
        <ele>177.90039</ele>
        <time>2026-05-15T08:58:37+02:00</time>
      </trkpt>
      <trkpt lat="47.10109" lon="5.26504">
        <ele>177.90039</ele>
        <time>2026-05-15T08:58:38+02:00</time>
      </trkpt>
      <trkpt lat="47.1011" lon="5.26498">
        <ele>178</ele>
        <time>2026-05-15T08:58:39+02:00</time>
      </trkpt>
      <trkpt lat="47.10111" lon="5.26491">
        <ele>178</ele>
        <time>2026-05-15T08:58:40+02:00</time>
      </trkpt>
      <trkpt lat="47.10111" lon="5.26488">
        <ele>178</ele>
        <time>2026-05-15T08:58:41+02:00</time>
      </trkpt>
      <trkpt lat="47.10112" lon="5.26479">
        <ele>178</ele>
        <time>2026-05-15T08:58:42+02:00</time>
      </trkpt>
      <trkpt lat="47.10113" lon="5.26473">
        <ele>178.10059</ele>
        <time>2026-05-15T08:58:43+02:00</time>
      </trkpt>
      <trkpt lat="47.10113" lon="5.26468">
        <ele>178.10059</ele>
        <time>2026-05-15T08:58:44+02:00</time>
      </trkpt>
      <trkpt lat="47.10114" lon="5.26462">
        <ele>178.10059</ele>
        <time>2026-05-15T08:58:45+02:00</time>
      </trkpt>
      <trkpt lat="47.10114" lon="5.26457">
        <ele>178.10059</ele>
        <time>2026-05-15T08:58:46+02:00</time>
      </trkpt>
      <trkpt lat="47.10115" lon="5.26451">
        <ele>178.10059</ele>
        <time>2026-05-15T08:58:47+02:00</time>
      </trkpt>
      <trkpt lat="47.10116" lon="5.26446">
        <ele>178.2998</ele>
        <time>2026-05-15T08:58:48+02:00</time>
      </trkpt>
      <trkpt lat="47.10117" lon="5.26441">
        <ele>178.2998</ele>
        <time>2026-05-15T08:58:49+02:00</time>
      </trkpt>
      <trkpt lat="47.10117" lon="5.26436">
        <ele>178.2998</ele>
        <time>2026-05-15T08:58:50+02:00</time>
      </trkpt>
      <trkpt lat="47.10117" lon="5.26431">
        <ele>178.2002</ele>
        <time>2026-05-15T08:58:51+02:00</time>
      </trkpt>
      <trkpt lat="47.10118" lon="5.26425">
        <ele>178.10059</ele>
        <time>2026-05-15T08:58:52+02:00</time>
      </trkpt>
      <trkpt lat="47.10118" lon="5.26422">
        <ele>178.10059</ele>
        <time>2026-05-15T08:58:53+02:00</time>
      </trkpt>
      <trkpt lat="47.1012" lon="5.26414">
        <ele>178</ele>
        <time>2026-05-15T08:58:54+02:00</time>
      </trkpt>
      <trkpt lat="47.10121" lon="5.26408">
        <ele>178</ele>
        <time>2026-05-15T08:58:55+02:00</time>
      </trkpt>
      <trkpt lat="47.10121" lon="5.26402">
        <ele>178</ele>
        <time>2026-05-15T08:58:56+02:00</time>
      </trkpt>
      <trkpt lat="47.10122" lon="5.26396">
        <ele>177.90039</ele>
        <time>2026-05-15T08:58:57+02:00</time>
      </trkpt>
      <trkpt lat="47.10122" lon="5.26391">
        <ele>177.90039</ele>
        <time>2026-05-15T08:58:58+02:00</time>
      </trkpt>
      <trkpt lat="47.10123" lon="5.26385">
        <ele>177.90039</ele>
        <time>2026-05-15T08:58:59+02:00</time>
      </trkpt>
      <trkpt lat="47.10124" lon="5.2638">
        <ele>177.90039</ele>
        <time>2026-05-15T08:59:00+02:00</time>
      </trkpt>
      <trkpt lat="47.10125" lon="5.26375">
        <ele>177.90039</ele>
        <time>2026-05-15T08:59:01+02:00</time>
      </trkpt>
      <trkpt lat="47.10126" lon="5.26371">
        <ele>177.90039</ele>
        <time>2026-05-15T08:59:02+02:00</time>
      </trkpt>
      <trkpt lat="47.10127" lon="5.26366">
        <ele>177.90039</ele>
        <time>2026-05-15T08:59:03+02:00</time>
      </trkpt>
      <trkpt lat="47.10127" lon="5.26362">
        <ele>177.90039</ele>
        <time>2026-05-15T08:59:04+02:00</time>
      </trkpt>
      <trkpt lat="47.10127" lon="5.2636">
        <ele>177.90039</ele>
        <time>2026-05-15T08:59:05+02:00</time>
      </trkpt>
      <trkpt lat="47.10127" lon="5.26353">
        <ele>177.90039</ele>
        <time>2026-05-15T08:59:06+02:00</time>
      </trkpt>
      <trkpt lat="47.10127" lon="5.26349">
        <ele>177.90039</ele>
        <time>2026-05-15T08:59:07+02:00</time>
      </trkpt>
      <trkpt lat="47.10128" lon="5.26345">
        <ele>178.10059</ele>
        <time>2026-05-15T08:59:08+02:00</time>
      </trkpt>
      <trkpt lat="47.10129" lon="5.26342">
        <ele>178.10059</ele>
        <time>2026-05-15T08:59:09+02:00</time>
      </trkpt>
      <trkpt lat="47.10129" lon="5.2634">
        <ele>178.10059</ele>
        <time>2026-05-15T08:59:10+02:00</time>
      </trkpt>
      <trkpt lat="47.1013" lon="5.26338">
        <ele>178.10059</ele>
        <time>2026-05-15T08:59:11+02:00</time>
      </trkpt>
      <trkpt lat="47.10132" lon="5.26335">
        <ele>178.10059</ele>
        <time>2026-05-15T08:59:12+02:00</time>
      </trkpt>
      <trkpt lat="47.10132" lon="5.26333">
        <ele>178.10059</ele>
        <time>2026-05-15T08:59:13+02:00</time>
      </trkpt>
      <trkpt lat="47.10133" lon="5.26331">
        <ele>178.10059</ele>
        <time>2026-05-15T08:59:14+02:00</time>
      </trkpt>
      <trkpt lat="47.10133" lon="5.26329">
        <ele>178.10059</ele>
        <time>2026-05-15T08:59:15+02:00</time>
      </trkpt>
      <trkpt lat="47.10134" lon="5.26328">
        <ele>178.2998</ele>
        <time>2026-05-15T08:59:16+02:00</time>
      </trkpt>
      <trkpt lat="47.10134" lon="5.26327">
        <ele>178.2998</ele>
        <time>2026-05-15T08:59:17+02:00</time>
      </trkpt>
      <trkpt lat="47.10134" lon="5.26327">
        <ele>178.2998</ele>
        <time>2026-05-15T08:59:18+02:00</time>
      </trkpt>
      <trkpt lat="47.10134" lon="5.26327">
        <ele>178.2998</ele>
        <time>2026-05-15T08:59:19+02:00</time>
      </trkpt>
      <trkpt lat="47.10126" lon="5.26314">
        <ele>178</ele>
        <time>2026-05-15T08:59:30+02:00</time>
      </trkpt>
      <trkpt lat="47.10123" lon="5.26312">
        <ele>178</ele>
        <time>2026-05-15T08:59:31+02:00</time>
      </trkpt>
      <trkpt lat="47.1012" lon="5.26312">
        <ele>178</ele>
        <time>2026-05-15T08:59:32+02:00</time>
      </trkpt>
      <trkpt lat="47.10116" lon="5.26312">
        <ele>178</ele>
        <time>2026-05-15T08:59:33+02:00</time>
      </trkpt>
      <trkpt lat="47.10113" lon="5.26311">
        <ele>178.10059</ele>
        <time>2026-05-15T08:59:34+02:00</time>
      </trkpt>
      <trkpt lat="47.1011" lon="5.26311">
        <ele>178.10059</ele>
        <time>2026-05-15T08:59:35+02:00</time>
      </trkpt>
      <trkpt lat="47.10106" lon="5.26311">
        <ele>178.10059</ele>
        <time>2026-05-15T08:59:36+02:00</time>
      </trkpt>
      <trkpt lat="47.10103" lon="5.26311">
        <ele>178.10059</ele>
        <time>2026-05-15T08:59:37+02:00</time>
      </trkpt>
      <trkpt lat="47.101" lon="5.2631">
        <ele>178.10059</ele>
        <time>2026-05-15T08:59:38+02:00</time>
      </trkpt>
      <trkpt lat="47.10096" lon="5.2631">
        <ele>178.10059</ele>
        <time>2026-05-15T08:59:39+02:00</time>
      </trkpt>
      <trkpt lat="47.10092" lon="5.26309">
        <ele>178.10059</ele>
        <time>2026-05-15T08:59:40+02:00</time>
      </trkpt>
      <trkpt lat="47.10088" lon="5.26309">
        <ele>178.10059</ele>
        <time>2026-05-15T08:59:41+02:00</time>
      </trkpt>
      <trkpt lat="47.10084" lon="5.26308">
        <ele>178.10059</ele>
        <time>2026-05-15T08:59:42+02:00</time>
      </trkpt>
      <trkpt lat="47.1008" lon="5.26308">
        <ele>178.10059</ele>
        <time>2026-05-15T08:59:43+02:00</time>
      </trkpt>
      <trkpt lat="47.10076" lon="5.26307">
        <ele>178.10059</ele>
        <time>2026-05-15T08:59:44+02:00</time>
      </trkpt>
      <trkpt lat="47.10072" lon="5.26307">
        <ele>178.10059</ele>
        <time>2026-05-15T08:59:45+02:00</time>
      </trkpt>
      <trkpt lat="47.10068" lon="5.26307">
        <ele>178.10059</ele>
        <time>2026-05-15T08:59:46+02:00</time>
      </trkpt>
      <trkpt lat="47.10065" lon="5.26306">
        <ele>178.10059</ele>
        <time>2026-05-15T08:59:47+02:00</time>
      </trkpt>
      <trkpt lat="47.10061" lon="5.26306">
        <ele>178.10059</ele>
        <time>2026-05-15T08:59:48+02:00</time>
      </trkpt>
      <trkpt lat="47.10058" lon="5.26305">
        <ele>178.10059</ele>
        <time>2026-05-15T08:59:49+02:00</time>
      </trkpt>
      <trkpt lat="47.10054" lon="5.26305">
        <ele>178.10059</ele>
        <time>2026-05-15T08:59:50+02:00</time>
      </trkpt>
      <trkpt lat="47.1005" lon="5.26305">
        <ele>178.10059</ele>
        <time>2026-05-15T08:59:51+02:00</time>
      </trkpt>
      <trkpt lat="47.10046" lon="5.26304">
        <ele>178.10059</ele>
        <time>2026-05-15T08:59:52+02:00</time>
      </trkpt>
      <trkpt lat="47.10042" lon="5.26304">
        <ele>178.10059</ele>
        <time>2026-05-15T08:59:53+02:00</time>
      </trkpt>
      <trkpt lat="47.10038" lon="5.26303">
        <ele>178.10059</ele>
        <time>2026-05-15T08:59:54+02:00</time>
      </trkpt>
      <trkpt lat="47.10034" lon="5.26303">
        <ele>178.10059</ele>
        <time>2026-05-15T08:59:55+02:00</time>
      </trkpt>
      <trkpt lat="47.1003" lon="5.26303">
        <ele>178.10059</ele>
        <time>2026-05-15T08:59:56+02:00</time>
      </trkpt>
      <trkpt lat="47.10025" lon="5.26302">
        <ele>178.2002</ele>
        <time>2026-05-15T08:59:57+02:00</time>
      </trkpt>
      <trkpt lat="47.10021" lon="5.26301">
        <ele>178.2002</ele>
        <time>2026-05-15T08:59:58+02:00</time>
      </trkpt>
      <trkpt lat="47.10016" lon="5.26301">
        <ele>178.2998</ele>
        <time>2026-05-15T08:59:59+02:00</time>
      </trkpt>
      <trkpt lat="47.10011" lon="5.263">
        <ele>178.2998</ele>
        <time>2026-05-15T09:00:00+02:00</time>
      </trkpt>
      <trkpt lat="47.10006" lon="5.263">
        <ele>178.40039</ele>
        <time>2026-05-15T09:00:01+02:00</time>
      </trkpt>
      <trkpt lat="47.10001" lon="5.26299">
        <ele>178.60059</ele>
        <time>2026-05-15T09:00:02+02:00</time>
      </trkpt>
      <trkpt lat="47.09997" lon="5.26298">
        <ele>178.90039</ele>
        <time>2026-05-15T09:00:03+02:00</time>
      </trkpt>
      <trkpt lat="47.09992" lon="5.26298">
        <ele>179.2998</ele>
        <time>2026-05-15T09:00:04+02:00</time>
      </trkpt>
      <trkpt lat="47.09988" lon="5.26298">
        <ele>179.2998</ele>
        <time>2026-05-15T09:00:05+02:00</time>
      </trkpt>
      <trkpt lat="47.09985" lon="5.26297">
        <ele>179.7998</ele>
        <time>2026-05-15T09:00:06+02:00</time>
      </trkpt>
      <trkpt lat="47.09981" lon="5.26297">
        <ele>179.7998</ele>
        <time>2026-05-15T09:00:07+02:00</time>
      </trkpt>
      <trkpt lat="47.0998" lon="5.26298">
        <ele>180.2002</ele>
        <time>2026-05-15T09:00:08+02:00</time>
      </trkpt>
      <trkpt lat="47.09976" lon="5.26297">
        <ele>180.2002</ele>
        <time>2026-05-15T09:00:09+02:00</time>
      </trkpt>
      <trkpt lat="47.09973" lon="5.26298">
        <ele>180.7002</ele>
        <time>2026-05-15T09:00:10+02:00</time>
      </trkpt>
      <trkpt lat="47.0997" lon="5.26301">
        <ele>180.7002</ele>
        <time>2026-05-15T09:00:11+02:00</time>
      </trkpt>
      <trkpt lat="47.09969" lon="5.26306">
        <ele>181.2002</ele>
        <time>2026-05-15T09:00:12+02:00</time>
      </trkpt>
      <trkpt lat="47.09968" lon="5.26311">
        <ele>181.2002</ele>
        <time>2026-05-15T09:00:13+02:00</time>
      </trkpt>
      <trkpt lat="47.09968" lon="5.26317">
        <ele>181.2998</ele>
        <time>2026-05-15T09:00:14+02:00</time>
      </trkpt>
      <trkpt lat="47.09968" lon="5.26323">
        <ele>181.40039</ele>
        <time>2026-05-15T09:00:15+02:00</time>
      </trkpt>
      <trkpt lat="47.09968" lon="5.2633">
        <ele>181.40039</ele>
        <time>2026-05-15T09:00:16+02:00</time>
      </trkpt>
      <trkpt lat="47.09968" lon="5.26337">
        <ele>181.40039</ele>
        <time>2026-05-15T09:00:17+02:00</time>
      </trkpt>
      <trkpt lat="47.09968" lon="5.26344">
        <ele>181.5</ele>
        <time>2026-05-15T09:00:18+02:00</time>
      </trkpt>
      <trkpt lat="47.09967" lon="5.26352">
        <ele>181.5</ele>
        <time>2026-05-15T09:00:19+02:00</time>
      </trkpt>
      <trkpt lat="47.09967" lon="5.2636">
        <ele>181.5</ele>
        <time>2026-05-15T09:00:20+02:00</time>
      </trkpt>
      <trkpt lat="47.09966" lon="5.26368">
        <ele>181.40039</ele>
        <time>2026-05-15T09:00:21+02:00</time>
      </trkpt>
      <trkpt lat="47.09966" lon="5.26376">
        <ele>181.2998</ele>
        <time>2026-05-15T09:00:22+02:00</time>
      </trkpt>
      <trkpt lat="47.09967" lon="5.26384">
        <ele>181.2002</ele>
        <time>2026-05-15T09:00:23+02:00</time>
      </trkpt>
      <trkpt lat="47.09967" lon="5.26392">
        <ele>181.10059</ele>
        <time>2026-05-15T09:00:24+02:00</time>
      </trkpt>
      <trkpt lat="47.09966" lon="5.26401">
        <ele>181.10059</ele>
        <time>2026-05-15T09:00:25+02:00</time>
      </trkpt>
      <trkpt lat="47.09966" lon="5.2641">
        <ele>181.10059</ele>
        <time>2026-05-15T09:00:26+02:00</time>
      </trkpt>
      <trkpt lat="47.09966" lon="5.26418">
        <ele>181</ele>
        <time>2026-05-15T09:00:27+02:00</time>
      </trkpt>
      <trkpt lat="47.09966" lon="5.26428">
        <ele>181</ele>
        <time>2026-05-15T09:00:28+02:00</time>
      </trkpt>
      <trkpt lat="47.09966" lon="5.26432">
        <ele>181</ele>
        <time>2026-05-15T09:00:29+02:00</time>
      </trkpt>
      <trkpt lat="47.09965" lon="5.26447">
        <ele>181</ele>
        <time>2026-05-15T09:00:30+02:00</time>
      </trkpt>
      <trkpt lat="47.09965" lon="5.26456">
        <ele>181</ele>
        <time>2026-05-15T09:00:31+02:00</time>
      </trkpt>
      <trkpt lat="47.09963" lon="5.26465">
        <ele>181.60059</ele>
        <time>2026-05-15T09:00:32+02:00</time>
      </trkpt>
      <trkpt lat="47.09963" lon="5.26475">
        <ele>181.60059</ele>
        <time>2026-05-15T09:00:33+02:00</time>
      </trkpt>
      <trkpt lat="47.09961" lon="5.26484">
        <ele>181.60059</ele>
        <time>2026-05-15T09:00:34+02:00</time>
      </trkpt>
      <trkpt lat="47.0996" lon="5.26493">
        <ele>181.7002</ele>
        <time>2026-05-15T09:00:35+02:00</time>
      </trkpt>
      <trkpt lat="47.09959" lon="5.26501">
        <ele>181.5</ele>
        <time>2026-05-15T09:00:36+02:00</time>
      </trkpt>
      <trkpt lat="47.09958" lon="5.2651">
        <ele>180.60059</ele>
        <time>2026-05-15T09:00:37+02:00</time>
      </trkpt>
      <trkpt lat="47.09956" lon="5.26518">
        <ele>180.2998</ele>
        <time>2026-05-15T09:00:38+02:00</time>
      </trkpt>
      <trkpt lat="47.09955" lon="5.26526">
        <ele>179.7002</ele>
        <time>2026-05-15T09:00:39+02:00</time>
      </trkpt>
      <trkpt lat="47.09954" lon="5.26533">
        <ele>179.60059</ele>
        <time>2026-05-15T09:00:40+02:00</time>
      </trkpt>
      <trkpt lat="47.09953" lon="5.26541">
        <ele>179.90039</ele>
        <time>2026-05-15T09:00:41+02:00</time>
      </trkpt>
      <trkpt lat="47.09952" lon="5.26548">
        <ele>180.2998</ele>
        <time>2026-05-15T09:00:42+02:00</time>
      </trkpt>
      <trkpt lat="47.09951" lon="5.26555">
        <ele>181.5</ele>
        <time>2026-05-15T09:00:43+02:00</time>
      </trkpt>
      <trkpt lat="47.0995" lon="5.26561">
        <ele>181.5</ele>
        <time>2026-05-15T09:00:44+02:00</time>
      </trkpt>
      <trkpt lat="47.09949" lon="5.26568">
        <ele>181.60059</ele>
        <time>2026-05-15T09:00:45+02:00</time>
      </trkpt>
      <trkpt lat="47.09947" lon="5.26575">
        <ele>181.7002</ele>
        <time>2026-05-15T09:00:46+02:00</time>
      </trkpt>
      <trkpt lat="47.09945" lon="5.26582">
        <ele>182.5</ele>
        <time>2026-05-15T09:00:47+02:00</time>
      </trkpt>
      <trkpt lat="47.09943" lon="5.26588">
        <ele>182.5</ele>
        <time>2026-05-15T09:00:48+02:00</time>
      </trkpt>
      <trkpt lat="47.09941" lon="5.26595">
        <ele>182.60059</ele>
        <time>2026-05-15T09:00:49+02:00</time>
      </trkpt>
      <trkpt lat="47.0994" lon="5.26602">
        <ele>182.90039</ele>
        <time>2026-05-15T09:00:50+02:00</time>
      </trkpt>
      <trkpt lat="47.09939" lon="5.26609">
        <ele>183</ele>
        <time>2026-05-15T09:00:51+02:00</time>
      </trkpt>
      <trkpt lat="47.09938" lon="5.26617">
        <ele>183</ele>
        <time>2026-05-15T09:00:52+02:00</time>
      </trkpt>
      <trkpt lat="47.09937" lon="5.26624">
        <ele>183</ele>
        <time>2026-05-15T09:00:53+02:00</time>
      </trkpt>
      <trkpt lat="47.09937" lon="5.26632">
        <ele>183</ele>
        <time>2026-05-15T09:00:54+02:00</time>
      </trkpt>
      <trkpt lat="47.09936" lon="5.2664">
        <ele>183</ele>
        <time>2026-05-15T09:00:55+02:00</time>
      </trkpt>
      <trkpt lat="47.09936" lon="5.26648">
        <ele>183</ele>
        <time>2026-05-15T09:00:56+02:00</time>
      </trkpt>
      <trkpt lat="47.09935" lon="5.26656">
        <ele>182.90039</ele>
        <time>2026-05-15T09:00:57+02:00</time>
      </trkpt>
      <trkpt lat="47.09935" lon="5.26665">
        <ele>182.7998</ele>
        <time>2026-05-15T09:00:58+02:00</time>
      </trkpt>
      <trkpt lat="47.09935" lon="5.26673">
        <ele>182.7002</ele>
        <time>2026-05-15T09:00:59+02:00</time>
      </trkpt>
      <trkpt lat="47.09935" lon="5.26681">
        <ele>182.60059</ele>
        <time>2026-05-15T09:01:00+02:00</time>
      </trkpt>
      <trkpt lat="47.09934" lon="5.2669">
        <ele>182.40039</ele>
        <time>2026-05-15T09:01:01+02:00</time>
      </trkpt>
      <trkpt lat="47.09934" lon="5.26698">
        <ele>182.2998</ele>
        <time>2026-05-15T09:01:02+02:00</time>
      </trkpt>
      <trkpt lat="47.09934" lon="5.26707">
        <ele>182.2002</ele>
        <time>2026-05-15T09:01:03+02:00</time>
      </trkpt>
      <trkpt lat="47.09935" lon="5.26715">
        <ele>182.10059</ele>
        <time>2026-05-15T09:01:04+02:00</time>
      </trkpt>
      <trkpt lat="47.09935" lon="5.26724">
        <ele>182</ele>
        <time>2026-05-15T09:01:05+02:00</time>
      </trkpt>
      <trkpt lat="47.09935" lon="5.26732">
        <ele>181.7998</ele>
        <time>2026-05-15T09:01:06+02:00</time>
      </trkpt>
      <trkpt lat="47.09935" lon="5.26741">
        <ele>181.7002</ele>
        <time>2026-05-15T09:01:07+02:00</time>
      </trkpt>
      <trkpt lat="47.09936" lon="5.26749">
        <ele>181.5</ele>
        <time>2026-05-15T09:01:08+02:00</time>
      </trkpt>
      <trkpt lat="47.09936" lon="5.26758">
        <ele>181.2998</ele>
        <time>2026-05-15T09:01:09+02:00</time>
      </trkpt>
      <trkpt lat="47.09937" lon="5.26766">
        <ele>181.2002</ele>
        <time>2026-05-15T09:01:10+02:00</time>
      </trkpt>
      <trkpt lat="47.09937" lon="5.26774">
        <ele>181.2002</ele>
        <time>2026-05-15T09:01:11+02:00</time>
      </trkpt>
      <trkpt lat="47.09938" lon="5.26782">
        <ele>181.10059</ele>
        <time>2026-05-15T09:01:12+02:00</time>
      </trkpt>
      <trkpt lat="47.09939" lon="5.2679">
        <ele>181.10059</ele>
        <time>2026-05-15T09:01:13+02:00</time>
      </trkpt>
      <trkpt lat="47.0994" lon="5.26799">
        <ele>181.10059</ele>
        <time>2026-05-15T09:01:14+02:00</time>
      </trkpt>
      <trkpt lat="47.09941" lon="5.26806">
        <ele>181.2002</ele>
        <time>2026-05-15T09:01:15+02:00</time>
      </trkpt>
      <trkpt lat="47.09942" lon="5.26814">
        <ele>181.40039</ele>
        <time>2026-05-15T09:01:16+02:00</time>
      </trkpt>
      <trkpt lat="47.09943" lon="5.26822">
        <ele>181.5</ele>
        <time>2026-05-15T09:01:17+02:00</time>
      </trkpt>
      <trkpt lat="47.09944" lon="5.26826">
        <ele>181.5</ele>
        <time>2026-05-15T09:01:18+02:00</time>
      </trkpt>
      <trkpt lat="47.09945" lon="5.26837">
        <ele>181.5</ele>
        <time>2026-05-15T09:01:19+02:00</time>
      </trkpt>
      <trkpt lat="47.09947" lon="5.26844">
        <ele>181.60059</ele>
        <time>2026-05-15T09:01:20+02:00</time>
      </trkpt>
      <trkpt lat="47.09948" lon="5.26852">
        <ele>181.5</ele>
        <time>2026-05-15T09:01:21+02:00</time>
      </trkpt>
      <trkpt lat="47.09949" lon="5.2686">
        <ele>181.5</ele>
        <time>2026-05-15T09:01:22+02:00</time>
      </trkpt>
      <trkpt lat="47.0995" lon="5.26867">
        <ele>181.40039</ele>
        <time>2026-05-15T09:01:23+02:00</time>
      </trkpt>
      <trkpt lat="47.09952" lon="5.26875">
        <ele>181.5</ele>
        <time>2026-05-15T09:01:24+02:00</time>
      </trkpt>
      <trkpt lat="47.09953" lon="5.26882">
        <ele>181.5</ele>
        <time>2026-05-15T09:01:25+02:00</time>
      </trkpt>
      <trkpt lat="47.09954" lon="5.26889">
        <ele>181.40039</ele>
        <time>2026-05-15T09:01:26+02:00</time>
      </trkpt>
      <trkpt lat="47.09956" lon="5.26896">
        <ele>181.40039</ele>
        <time>2026-05-15T09:01:27+02:00</time>
      </trkpt>
      <trkpt lat="47.09957" lon="5.26903">
        <ele>181.40039</ele>
        <time>2026-05-15T09:01:28+02:00</time>
      </trkpt>
      <trkpt lat="47.09958" lon="5.2691">
        <ele>181.2998</ele>
        <time>2026-05-15T09:01:29+02:00</time>
      </trkpt>
      <trkpt lat="47.0996" lon="5.26917">
        <ele>181.2998</ele>
        <time>2026-05-15T09:01:30+02:00</time>
      </trkpt>
      <trkpt lat="47.09965" lon="5.26939">
        <ele>181.2002</ele>
        <time>2026-05-15T09:01:31+02:00</time>
      </trkpt>
      <trkpt lat="47.09966" lon="5.26946">
        <ele>181.2002</ele>
        <time>2026-05-15T09:01:32+02:00</time>
      </trkpt>
      <trkpt lat="47.09968" lon="5.26953">
        <ele>181.2998</ele>
        <time>2026-05-15T09:01:33+02:00</time>
      </trkpt>
      <trkpt lat="47.0997" lon="5.26961">
        <ele>181.40039</ele>
        <time>2026-05-15T09:01:34+02:00</time>
      </trkpt>
      <trkpt lat="47.09972" lon="5.26968">
        <ele>181.60059</ele>
        <time>2026-05-15T09:01:35+02:00</time>
      </trkpt>
      <trkpt lat="47.09973" lon="5.26975">
        <ele>181.7998</ele>
        <time>2026-05-15T09:01:36+02:00</time>
      </trkpt>
      <trkpt lat="47.09975" lon="5.26982">
        <ele>181.7998</ele>
        <time>2026-05-15T09:01:37+02:00</time>
      </trkpt>
      <trkpt lat="47.09977" lon="5.26989">
        <ele>182</ele>
        <time>2026-05-15T09:01:38+02:00</time>
      </trkpt>
      <trkpt lat="47.09979" lon="5.26996">
        <ele>182</ele>
        <time>2026-05-15T09:01:39+02:00</time>
      </trkpt>
      <trkpt lat="47.09981" lon="5.27003">
        <ele>182</ele>
        <time>2026-05-15T09:01:40+02:00</time>
      </trkpt>
      <trkpt lat="47.09982" lon="5.2701">
        <ele>181.90039</ele>
        <time>2026-05-15T09:01:41+02:00</time>
      </trkpt>
      <trkpt lat="47.09984" lon="5.27017">
        <ele>181.90039</ele>
        <time>2026-05-15T09:01:42+02:00</time>
      </trkpt>
      <trkpt lat="47.09986" lon="5.27024">
        <ele>181.7998</ele>
        <time>2026-05-15T09:01:43+02:00</time>
      </trkpt>
      <trkpt lat="47.09988" lon="5.2703">
        <ele>181.7002</ele>
        <time>2026-05-15T09:01:44+02:00</time>
      </trkpt>
      <trkpt lat="47.0999" lon="5.27037">
        <ele>181.60059</ele>
        <time>2026-05-15T09:01:45+02:00</time>
      </trkpt>
      <trkpt lat="47.09992" lon="5.27044">
        <ele>181.60059</ele>
        <time>2026-05-15T09:01:46+02:00</time>
      </trkpt>
      <trkpt lat="47.09993" lon="5.27051">
        <ele>181.40039</ele>
        <time>2026-05-15T09:01:47+02:00</time>
      </trkpt>
      <trkpt lat="47.09995" lon="5.27058">
        <ele>181.2998</ele>
        <time>2026-05-15T09:01:48+02:00</time>
      </trkpt>
      <trkpt lat="47.09997" lon="5.27065">
        <ele>181.2998</ele>
        <time>2026-05-15T09:01:49+02:00</time>
      </trkpt>
      <trkpt lat="47.09999" lon="5.27071">
        <ele>181</ele>
        <time>2026-05-15T09:01:50+02:00</time>
      </trkpt>
      <trkpt lat="47.10001" lon="5.27078">
        <ele>180.90039</ele>
        <time>2026-05-15T09:01:51+02:00</time>
      </trkpt>
      <trkpt lat="47.10003" lon="5.27085">
        <ele>180.90039</ele>
        <time>2026-05-15T09:01:52+02:00</time>
      </trkpt>
      <trkpt lat="47.10005" lon="5.27091">
        <ele>180.7002</ele>
        <time>2026-05-15T09:01:53+02:00</time>
      </trkpt>
      <trkpt lat="47.10006" lon="5.27098">
        <ele>181.10059</ele>
        <time>2026-05-15T09:01:54+02:00</time>
      </trkpt>
      <trkpt lat="47.10008" lon="5.27105">
        <ele>181.40039</ele>
        <time>2026-05-15T09:01:55+02:00</time>
      </trkpt>
      <trkpt lat="47.1001" lon="5.27112">
        <ele>181.40039</ele>
        <time>2026-05-15T09:01:56+02:00</time>
      </trkpt>
      <trkpt lat="47.10012" lon="5.27118">
        <ele>181.7002</ele>
        <time>2026-05-15T09:01:57+02:00</time>
      </trkpt>
      <trkpt lat="47.10014" lon="5.27125">
        <ele>181.7998</ele>
        <time>2026-05-15T09:01:58+02:00</time>
      </trkpt>
      <trkpt lat="47.10015" lon="5.27132">
        <ele>181.7002</ele>
        <time>2026-05-15T09:01:59+02:00</time>
      </trkpt>
      <trkpt lat="47.10017" lon="5.27139">
        <ele>181.5</ele>
        <time>2026-05-15T09:02:00+02:00</time>
      </trkpt>
      <trkpt lat="47.10018" lon="5.27146">
        <ele>181.5</ele>
        <time>2026-05-15T09:02:01+02:00</time>
      </trkpt>
      <trkpt lat="47.10019" lon="5.27154">
        <ele>181.5</ele>
        <time>2026-05-15T09:02:02+02:00</time>
      </trkpt>
      <trkpt lat="47.1002" lon="5.27161">
        <ele>181.5</ele>
        <time>2026-05-15T09:02:03+02:00</time>
      </trkpt>
      <trkpt lat="47.10021" lon="5.27169">
        <ele>181.5</ele>
        <time>2026-05-15T09:02:04+02:00</time>
      </trkpt>
      <trkpt lat="47.10022" lon="5.27176">
        <ele>181.5</ele>
        <time>2026-05-15T09:02:05+02:00</time>
      </trkpt>
      <trkpt lat="47.10022" lon="5.27183">
        <ele>181.60059</ele>
        <time>2026-05-15T09:02:06+02:00</time>
      </trkpt>
      <trkpt lat="47.10023" lon="5.2719">
        <ele>181.40039</ele>
        <time>2026-05-15T09:02:07+02:00</time>
      </trkpt>
      <trkpt lat="47.10024" lon="5.27198">
        <ele>181.5</ele>
        <time>2026-05-15T09:02:08+02:00</time>
      </trkpt>
      <trkpt lat="47.10025" lon="5.27205">
        <ele>181.5</ele>
        <time>2026-05-15T09:02:09+02:00</time>
      </trkpt>
      <trkpt lat="47.10026" lon="5.27212">
        <ele>181.60059</ele>
        <time>2026-05-15T09:02:10+02:00</time>
      </trkpt>
      <trkpt lat="47.10027" lon="5.27219">
        <ele>181.7002</ele>
        <time>2026-05-15T09:02:11+02:00</time>
      </trkpt>
      <trkpt lat="47.10028" lon="5.27226">
        <ele>181.2998</ele>
        <time>2026-05-15T09:02:12+02:00</time>
      </trkpt>
      <trkpt lat="47.10029" lon="5.27233">
        <ele>181.2002</ele>
        <time>2026-05-15T09:02:13+02:00</time>
      </trkpt>
      <trkpt lat="47.10031" lon="5.2724">
        <ele>181.2002</ele>
        <time>2026-05-15T09:02:14+02:00</time>
      </trkpt>
      <trkpt lat="47.10032" lon="5.27247">
        <ele>181.2998</ele>
        <time>2026-05-15T09:02:15+02:00</time>
      </trkpt>
      <trkpt lat="47.10034" lon="5.27254">
        <ele>181.2998</ele>
        <time>2026-05-15T09:02:16+02:00</time>
      </trkpt>
      <trkpt lat="47.10035" lon="5.27261">
        <ele>182</ele>
        <time>2026-05-15T09:02:17+02:00</time>
      </trkpt>
      <trkpt lat="47.10037" lon="5.27268">
        <ele>182.60059</ele>
        <time>2026-05-15T09:02:18+02:00</time>
      </trkpt>
      <trkpt lat="47.10039" lon="5.27275">
        <ele>182.60059</ele>
        <time>2026-05-15T09:02:19+02:00</time>
      </trkpt>
      <trkpt lat="47.1004" lon="5.27282">
        <ele>182.7998</ele>
        <time>2026-05-15T09:02:20+02:00</time>
      </trkpt>
      <trkpt lat="47.10042" lon="5.27289">
        <ele>182.7002</ele>
        <time>2026-05-15T09:02:21+02:00</time>
      </trkpt>
      <trkpt lat="47.10044" lon="5.27295">
        <ele>182.40039</ele>
        <time>2026-05-15T09:02:22+02:00</time>
      </trkpt>
      <trkpt lat="47.10046" lon="5.27302">
        <ele>181.90039</ele>
        <time>2026-05-15T09:02:23+02:00</time>
      </trkpt>
      <trkpt lat="47.10048" lon="5.27309">
        <ele>181.90039</ele>
        <time>2026-05-15T09:02:24+02:00</time>
      </trkpt>
      <trkpt lat="47.1005" lon="5.27316">
        <ele>181.60059</ele>
        <time>2026-05-15T09:02:25+02:00</time>
      </trkpt>
      <trkpt lat="47.10051" lon="5.27323">
        <ele>181.40039</ele>
        <time>2026-05-15T09:02:26+02:00</time>
      </trkpt>
      <trkpt lat="47.10052" lon="5.2733">
        <ele>180.7998</ele>
        <time>2026-05-15T09:02:27+02:00</time>
      </trkpt>
      <trkpt lat="47.10054" lon="5.27337">
        <ele>180.60059</ele>
        <time>2026-05-15T09:02:28+02:00</time>
      </trkpt>
      <trkpt lat="47.10055" lon="5.27344">
        <ele>180.40039</ele>
        <time>2026-05-15T09:02:29+02:00</time>
      </trkpt>
      <trkpt lat="47.10056" lon="5.27351">
        <ele>180.40039</ele>
        <time>2026-05-15T09:02:30+02:00</time>
      </trkpt>
      <trkpt lat="47.10057" lon="5.27358">
        <ele>179.7998</ele>
        <time>2026-05-15T09:02:31+02:00</time>
      </trkpt>
      <trkpt lat="47.10058" lon="5.27365">
        <ele>179.7002</ele>
        <time>2026-05-15T09:02:32+02:00</time>
      </trkpt>
      <trkpt lat="47.10058" lon="5.27373">
        <ele>179.5</ele>
        <time>2026-05-15T09:02:33+02:00</time>
      </trkpt>
      <trkpt lat="47.10059" lon="5.2738">
        <ele>179.40039</ele>
        <time>2026-05-15T09:02:34+02:00</time>
      </trkpt>
      <trkpt lat="47.1006" lon="5.27388">
        <ele>179.2998</ele>
        <time>2026-05-15T09:02:35+02:00</time>
      </trkpt>
      <trkpt lat="47.10061" lon="5.27395">
        <ele>179.2998</ele>
        <time>2026-05-15T09:02:36+02:00</time>
      </trkpt>
      <trkpt lat="47.10062" lon="5.27402">
        <ele>179.2002</ele>
        <time>2026-05-15T09:02:37+02:00</time>
      </trkpt>
      <trkpt lat="47.10063" lon="5.27409">
        <ele>178.7998</ele>
        <time>2026-05-15T09:02:38+02:00</time>
      </trkpt>
      <trkpt lat="47.10063" lon="5.27416">
        <ele>178.7002</ele>
        <time>2026-05-15T09:02:39+02:00</time>
      </trkpt>
      <trkpt lat="47.10064" lon="5.27423">
        <ele>178.7002</ele>
        <time>2026-05-15T09:02:40+02:00</time>
      </trkpt>
      <trkpt lat="47.10065" lon="5.2743">
        <ele>178.60059</ele>
        <time>2026-05-15T09:02:41+02:00</time>
      </trkpt>
      <trkpt lat="47.10066" lon="5.27438">
        <ele>178.60059</ele>
        <time>2026-05-15T09:02:42+02:00</time>
      </trkpt>
      <trkpt lat="47.10067" lon="5.27445">
        <ele>178.60059</ele>
        <time>2026-05-15T09:02:43+02:00</time>
      </trkpt>
      <trkpt lat="47.10067" lon="5.27452">
        <ele>178.7998</ele>
        <time>2026-05-15T09:02:44+02:00</time>
      </trkpt>
      <trkpt lat="47.10068" lon="5.2746">
        <ele>179</ele>
        <time>2026-05-15T09:02:45+02:00</time>
      </trkpt>
      <trkpt lat="47.10069" lon="5.27467">
        <ele>179.10059</ele>
        <time>2026-05-15T09:02:46+02:00</time>
      </trkpt>
      <trkpt lat="47.10069" lon="5.27475">
        <ele>179.10059</ele>
        <time>2026-05-15T09:02:47+02:00</time>
      </trkpt>
      <trkpt lat="47.1007" lon="5.27482">
        <ele>179</ele>
        <time>2026-05-15T09:02:48+02:00</time>
      </trkpt>
      <trkpt lat="47.10071" lon="5.2749">
        <ele>178.90039</ele>
        <time>2026-05-15T09:02:49+02:00</time>
      </trkpt>
      <trkpt lat="47.10071" lon="5.27497">
        <ele>178.90039</ele>
        <time>2026-05-15T09:02:50+02:00</time>
      </trkpt>
      <trkpt lat="47.10072" lon="5.27505">
        <ele>178.7002</ele>
        <time>2026-05-15T09:02:51+02:00</time>
      </trkpt>
      <trkpt lat="47.10072" lon="5.27512">
        <ele>178.60059</ele>
        <time>2026-05-15T09:02:52+02:00</time>
      </trkpt>
      <trkpt lat="47.10072" lon="5.2752">
        <ele>178.5</ele>
        <time>2026-05-15T09:02:53+02:00</time>
      </trkpt>
      <trkpt lat="47.10073" lon="5.27527">
        <ele>178.40039</ele>
        <time>2026-05-15T09:02:54+02:00</time>
      </trkpt>
      <trkpt lat="47.10074" lon="5.27535">
        <ele>178.2998</ele>
        <time>2026-05-15T09:02:55+02:00</time>
      </trkpt>
      <trkpt lat="47.10074" lon="5.27542">
        <ele>178.2002</ele>
        <time>2026-05-15T09:02:56+02:00</time>
      </trkpt>
      <trkpt lat="47.10075" lon="5.27549">
        <ele>178.2002</ele>
        <time>2026-05-15T09:02:57+02:00</time>
      </trkpt>
      <trkpt lat="47.10075" lon="5.27556">
        <ele>178.2002</ele>
        <time>2026-05-15T09:02:58+02:00</time>
      </trkpt>
      <trkpt lat="47.10076" lon="5.27564">
        <ele>178.2002</ele>
        <time>2026-05-15T09:02:59+02:00</time>
      </trkpt>
      <trkpt lat="47.10077" lon="5.27571">
        <ele>178.2002</ele>
        <time>2026-05-15T09:03:00+02:00</time>
      </trkpt>
      <trkpt lat="47.10077" lon="5.27578">
        <ele>178.2002</ele>
        <time>2026-05-15T09:03:01+02:00</time>
      </trkpt>
      <trkpt lat="47.10078" lon="5.27585">
        <ele>178.2002</ele>
        <time>2026-05-15T09:03:02+02:00</time>
      </trkpt>
      <trkpt lat="47.10079" lon="5.27592">
        <ele>178.2002</ele>
        <time>2026-05-15T09:03:03+02:00</time>
      </trkpt>
      <trkpt lat="47.1008" lon="5.276">
        <ele>178.2002</ele>
        <time>2026-05-15T09:03:04+02:00</time>
      </trkpt>
      <trkpt lat="47.10081" lon="5.27607">
        <ele>178.2002</ele>
        <time>2026-05-15T09:03:05+02:00</time>
      </trkpt>
      <trkpt lat="47.10082" lon="5.27615">
        <ele>178.2998</ele>
        <time>2026-05-15T09:03:06+02:00</time>
      </trkpt>
      <trkpt lat="47.10083" lon="5.27622">
        <ele>178.2998</ele>
        <time>2026-05-15T09:03:07+02:00</time>
      </trkpt>
      <trkpt lat="47.10084" lon="5.2763">
        <ele>178.40039</ele>
        <time>2026-05-15T09:03:08+02:00</time>
      </trkpt>
      <trkpt lat="47.10085" lon="5.27637">
        <ele>178.5</ele>
        <time>2026-05-15T09:03:09+02:00</time>
      </trkpt>
      <trkpt lat="47.10087" lon="5.27644">
        <ele>178.40039</ele>
        <time>2026-05-15T09:03:10+02:00</time>
      </trkpt>
      <trkpt lat="47.10088" lon="5.27652">
        <ele>178.60059</ele>
        <time>2026-05-15T09:03:11+02:00</time>
      </trkpt>
      <trkpt lat="47.10089" lon="5.27659">
        <ele>178.90039</ele>
        <time>2026-05-15T09:03:12+02:00</time>
      </trkpt>
      <trkpt lat="47.10091" lon="5.27666">
        <ele>179.10059</ele>
        <time>2026-05-15T09:03:13+02:00</time>
      </trkpt>
      <trkpt lat="47.10092" lon="5.27674">
        <ele>179.2002</ele>
        <time>2026-05-15T09:03:14+02:00</time>
      </trkpt>
      <trkpt lat="47.10093" lon="5.27681">
        <ele>179.2002</ele>
        <time>2026-05-15T09:03:15+02:00</time>
      </trkpt>
      <trkpt lat="47.10095" lon="5.27688">
        <ele>179.2002</ele>
        <time>2026-05-15T09:03:16+02:00</time>
      </trkpt>
      <trkpt lat="47.10096" lon="5.27695">
        <ele>179.2002</ele>
        <time>2026-05-15T09:03:17+02:00</time>
      </trkpt>
      <trkpt lat="47.10098" lon="5.27703">
        <ele>179.2002</ele>
        <time>2026-05-15T09:03:18+02:00</time>
      </trkpt>
      <trkpt lat="47.101" lon="5.27709">
        <ele>179.2002</ele>
        <time>2026-05-15T09:03:19+02:00</time>
      </trkpt>
      <trkpt lat="47.10102" lon="5.27716">
        <ele>179.2002</ele>
        <time>2026-05-15T09:03:20+02:00</time>
      </trkpt>
      <trkpt lat="47.10104" lon="5.27723">
        <ele>179.10059</ele>
        <time>2026-05-15T09:03:21+02:00</time>
      </trkpt>
      <trkpt lat="47.10106" lon="5.2773">
        <ele>179.10059</ele>
        <time>2026-05-15T09:03:22+02:00</time>
      </trkpt>
      <trkpt lat="47.10108" lon="5.27737">
        <ele>179.10059</ele>
        <time>2026-05-15T09:03:23+02:00</time>
      </trkpt>
      <trkpt lat="47.10109" lon="5.27743">
        <ele>179</ele>
        <time>2026-05-15T09:03:24+02:00</time>
      </trkpt>
      <trkpt lat="47.10112" lon="5.2775">
        <ele>178.7998</ele>
        <time>2026-05-15T09:03:25+02:00</time>
      </trkpt>
      <trkpt lat="47.10113" lon="5.27757">
        <ele>178.7002</ele>
        <time>2026-05-15T09:03:26+02:00</time>
      </trkpt>
      <trkpt lat="47.10116" lon="5.27764">
        <ele>178.5</ele>
        <time>2026-05-15T09:03:27+02:00</time>
      </trkpt>
      <trkpt lat="47.10117" lon="5.27771">
        <ele>178.5</ele>
        <time>2026-05-15T09:03:28+02:00</time>
      </trkpt>
      <trkpt lat="47.10119" lon="5.27777">
        <ele>178.40039</ele>
        <time>2026-05-15T09:03:29+02:00</time>
      </trkpt>
      <trkpt lat="47.10121" lon="5.27784">
        <ele>178.40039</ele>
        <time>2026-05-15T09:03:30+02:00</time>
      </trkpt>
      <trkpt lat="47.10123" lon="5.27791">
        <ele>178.2002</ele>
        <time>2026-05-15T09:03:31+02:00</time>
      </trkpt>
      <trkpt lat="47.10124" lon="5.27799">
        <ele>178.2002</ele>
        <time>2026-05-15T09:03:32+02:00</time>
      </trkpt>
      <trkpt lat="47.10126" lon="5.27806">
        <ele>178.2002</ele>
        <time>2026-05-15T09:03:33+02:00</time>
      </trkpt>
      <trkpt lat="47.10127" lon="5.27813">
        <ele>178.2002</ele>
        <time>2026-05-15T09:03:34+02:00</time>
      </trkpt>
      <trkpt lat="47.10128" lon="5.2782">
        <ele>178.2002</ele>
        <time>2026-05-15T09:03:35+02:00</time>
      </trkpt>
      <trkpt lat="47.10129" lon="5.27827">
        <ele>178.2002</ele>
        <time>2026-05-15T09:03:36+02:00</time>
      </trkpt>
      <trkpt lat="47.1013" lon="5.27835">
        <ele>178.2998</ele>
        <time>2026-05-15T09:03:37+02:00</time>
      </trkpt>
      <trkpt lat="47.10132" lon="5.27842">
        <ele>178.2998</ele>
        <time>2026-05-15T09:03:38+02:00</time>
      </trkpt>
      <trkpt lat="47.10132" lon="5.27849">
        <ele>178.2998</ele>
        <time>2026-05-15T09:03:39+02:00</time>
      </trkpt>
      <trkpt lat="47.10133" lon="5.27857">
        <ele>178.2998</ele>
        <time>2026-05-15T09:03:40+02:00</time>
      </trkpt>
      <trkpt lat="47.10134" lon="5.27864">
        <ele>178.2998</ele>
        <time>2026-05-15T09:03:41+02:00</time>
      </trkpt>
      <trkpt lat="47.10135" lon="5.27872">
        <ele>178.5</ele>
        <time>2026-05-15T09:03:42+02:00</time>
      </trkpt>
      <trkpt lat="47.10136" lon="5.27879">
        <ele>178.7002</ele>
        <time>2026-05-15T09:03:43+02:00</time>
      </trkpt>
      <trkpt lat="47.10137" lon="5.27887">
        <ele>179</ele>
        <time>2026-05-15T09:03:44+02:00</time>
      </trkpt>
      <trkpt lat="47.10138" lon="5.27894">
        <ele>179.2998</ele>
        <time>2026-05-15T09:03:45+02:00</time>
      </trkpt>
      <trkpt lat="47.10139" lon="5.27902">
        <ele>179.2002</ele>
        <time>2026-05-15T09:03:46+02:00</time>
      </trkpt>
      <trkpt lat="47.1014" lon="5.2791">
        <ele>179.2002</ele>
        <time>2026-05-15T09:03:47+02:00</time>
      </trkpt>
      <trkpt lat="47.10141" lon="5.27917">
        <ele>179.40039</ele>
        <time>2026-05-15T09:03:48+02:00</time>
      </trkpt>
      <trkpt lat="47.10142" lon="5.27924">
        <ele>179.5</ele>
        <time>2026-05-15T09:03:49+02:00</time>
      </trkpt>
      <trkpt lat="47.10143" lon="5.27932">
        <ele>179.60059</ele>
        <time>2026-05-15T09:03:50+02:00</time>
      </trkpt>
      <trkpt lat="47.10144" lon="5.27939">
        <ele>179.7002</ele>
        <time>2026-05-15T09:03:51+02:00</time>
      </trkpt>
      <trkpt lat="47.10145" lon="5.27947">
        <ele>179.10059</ele>
        <time>2026-05-15T09:03:52+02:00</time>
      </trkpt>
      <trkpt lat="47.10146" lon="5.27954">
        <ele>179.2002</ele>
        <time>2026-05-15T09:03:53+02:00</time>
      </trkpt>
      <trkpt lat="47.10148" lon="5.27961">
        <ele>179.2002</ele>
        <time>2026-05-15T09:03:54+02:00</time>
      </trkpt>
      <trkpt lat="47.10149" lon="5.27968">
        <ele>179.2002</ele>
        <time>2026-05-15T09:03:55+02:00</time>
      </trkpt>
      <trkpt lat="47.1015" lon="5.27975">
        <ele>179.2002</ele>
        <time>2026-05-15T09:03:56+02:00</time>
      </trkpt>
      <trkpt lat="47.10151" lon="5.27983">
        <ele>178.60059</ele>
        <time>2026-05-15T09:03:57+02:00</time>
      </trkpt>
      <trkpt lat="47.10152" lon="5.2799">
        <ele>178.60059</ele>
        <time>2026-05-15T09:03:58+02:00</time>
      </trkpt>
      <trkpt lat="47.10153" lon="5.27997">
        <ele>178.90039</ele>
        <time>2026-05-15T09:03:59+02:00</time>
      </trkpt>
      <trkpt lat="47.10154" lon="5.28004">
        <ele>178.90039</ele>
        <time>2026-05-15T09:04:00+02:00</time>
      </trkpt>
      <trkpt lat="47.10155" lon="5.28011">
        <ele>179.60059</ele>
        <time>2026-05-15T09:04:01+02:00</time>
      </trkpt>
      <trkpt lat="47.10156" lon="5.28019">
        <ele>180.2998</ele>
        <time>2026-05-15T09:04:02+02:00</time>
      </trkpt>
      <trkpt lat="47.10157" lon="5.28026">
        <ele>180.5</ele>
        <time>2026-05-15T09:04:03+02:00</time>
      </trkpt>
      <trkpt lat="47.10158" lon="5.28034">
        <ele>180.7002</ele>
        <time>2026-05-15T09:04:04+02:00</time>
      </trkpt>
      <trkpt lat="47.10159" lon="5.28041">
        <ele>180.7002</ele>
        <time>2026-05-15T09:04:05+02:00</time>
      </trkpt>
      <trkpt lat="47.10161" lon="5.28049">
        <ele>180.7002</ele>
        <time>2026-05-15T09:04:06+02:00</time>
      </trkpt>
      <trkpt lat="47.10162" lon="5.28057">
        <ele>180.7002</ele>
        <time>2026-05-15T09:04:07+02:00</time>
      </trkpt>
      <trkpt lat="47.10163" lon="5.28064">
        <ele>180.5</ele>
        <time>2026-05-15T09:04:08+02:00</time>
      </trkpt>
      <trkpt lat="47.10163" lon="5.28068">
        <ele>180.60059</ele>
        <time>2026-05-15T09:04:09+02:00</time>
      </trkpt>
      <trkpt lat="47.10165" lon="5.2808">
        <ele>180.7002</ele>
        <time>2026-05-15T09:04:10+02:00</time>
      </trkpt>
      <trkpt lat="47.10166" lon="5.28088">
        <ele>180.7998</ele>
        <time>2026-05-15T09:04:11+02:00</time>
      </trkpt>
      <trkpt lat="47.10167" lon="5.28095">
        <ele>180.7998</ele>
        <time>2026-05-15T09:04:12+02:00</time>
      </trkpt>
      <trkpt lat="47.10169" lon="5.28103">
        <ele>180.5</ele>
        <time>2026-05-15T09:04:13+02:00</time>
      </trkpt>
      <trkpt lat="47.10169" lon="5.28111">
        <ele>180.60059</ele>
        <time>2026-05-15T09:04:14+02:00</time>
      </trkpt>
      <trkpt lat="47.1017" lon="5.28119">
        <ele>180.60059</ele>
        <time>2026-05-15T09:04:15+02:00</time>
      </trkpt>
      <trkpt lat="47.10171" lon="5.28126">
        <ele>180.7002</ele>
        <time>2026-05-15T09:04:16+02:00</time>
      </trkpt>
      <trkpt lat="47.10172" lon="5.28134">
        <ele>180.7002</ele>
        <time>2026-05-15T09:04:17+02:00</time>
      </trkpt>
      <trkpt lat="47.10174" lon="5.28141">
        <ele>179.90039</ele>
        <time>2026-05-15T09:04:18+02:00</time>
      </trkpt>
      <trkpt lat="47.10175" lon="5.28149">
        <ele>179.7998</ele>
        <time>2026-05-15T09:04:19+02:00</time>
      </trkpt>
      <trkpt lat="47.10176" lon="5.28157">
        <ele>179.7002</ele>
        <time>2026-05-15T09:04:20+02:00</time>
      </trkpt>
      <trkpt lat="47.10177" lon="5.28164">
        <ele>179.60059</ele>
        <time>2026-05-15T09:04:21+02:00</time>
      </trkpt>
      <trkpt lat="47.10178" lon="5.28172">
        <ele>179.60059</ele>
        <time>2026-05-15T09:04:22+02:00</time>
      </trkpt>
      <trkpt lat="47.10179" lon="5.28179">
        <ele>179.60059</ele>
        <time>2026-05-15T09:04:23+02:00</time>
      </trkpt>
      <trkpt lat="47.1018" lon="5.28186">
        <ele>178.7998</ele>
        <time>2026-05-15T09:04:24+02:00</time>
      </trkpt>
      <trkpt lat="47.10181" lon="5.28194">
        <ele>179.2002</ele>
        <time>2026-05-15T09:04:25+02:00</time>
      </trkpt>
      <trkpt lat="47.10182" lon="5.28201">
        <ele>179.2002</ele>
        <time>2026-05-15T09:04:26+02:00</time>
      </trkpt>
      <trkpt lat="47.10183" lon="5.28208">
        <ele>179.7998</ele>
        <time>2026-05-15T09:04:27+02:00</time>
      </trkpt>
      <trkpt lat="47.10185" lon="5.28216">
        <ele>180.5</ele>
        <time>2026-05-15T09:04:28+02:00</time>
      </trkpt>
      <trkpt lat="47.10186" lon="5.28223">
        <ele>180.7002</ele>
        <time>2026-05-15T09:04:29+02:00</time>
      </trkpt>
      <trkpt lat="47.10187" lon="5.28231">
        <ele>180.60059</ele>
        <time>2026-05-15T09:04:30+02:00</time>
      </trkpt>
      <trkpt lat="47.10188" lon="5.28238">
        <ele>180.40039</ele>
        <time>2026-05-15T09:04:31+02:00</time>
      </trkpt>
      <trkpt lat="47.10189" lon="5.28245">
        <ele>180.2002</ele>
        <time>2026-05-15T09:04:32+02:00</time>
      </trkpt>
      <trkpt lat="47.1019" lon="5.28252">
        <ele>180.2002</ele>
        <time>2026-05-15T09:04:33+02:00</time>
      </trkpt>
      <trkpt lat="47.10191" lon="5.2826">
        <ele>180.10059</ele>
        <time>2026-05-15T09:04:34+02:00</time>
      </trkpt>
      <trkpt lat="47.10192" lon="5.28267">
        <ele>180.10059</ele>
        <time>2026-05-15T09:04:35+02:00</time>
      </trkpt>
      <trkpt lat="47.10193" lon="5.28274">
        <ele>180.2002</ele>
        <time>2026-05-15T09:04:36+02:00</time>
      </trkpt>
      <trkpt lat="47.10194" lon="5.28278">
        <ele>180.2002</ele>
        <time>2026-05-15T09:04:37+02:00</time>
      </trkpt>
      <trkpt lat="47.10195" lon="5.28289">
        <ele>180.40039</ele>
        <time>2026-05-15T09:04:38+02:00</time>
      </trkpt>
      <trkpt lat="47.10196" lon="5.28296">
        <ele>180.40039</ele>
        <time>2026-05-15T09:04:39+02:00</time>
      </trkpt>
      <trkpt lat="47.10197" lon="5.28304">
        <ele>180.40039</ele>
        <time>2026-05-15T09:04:40+02:00</time>
      </trkpt>
      <trkpt lat="47.10198" lon="5.28311">
        <ele>180.10059</ele>
        <time>2026-05-15T09:04:41+02:00</time>
      </trkpt>
      <trkpt lat="47.10199" lon="5.28318">
        <ele>180.10059</ele>
        <time>2026-05-15T09:04:42+02:00</time>
      </trkpt>
      <trkpt lat="47.10201" lon="5.28326">
        <ele>180.10059</ele>
        <time>2026-05-15T09:04:43+02:00</time>
      </trkpt>
      <trkpt lat="47.10202" lon="5.28333">
        <ele>180</ele>
        <time>2026-05-15T09:04:44+02:00</time>
      </trkpt>
      <trkpt lat="47.10203" lon="5.2834">
        <ele>179.2002</ele>
        <time>2026-05-15T09:04:45+02:00</time>
      </trkpt>
      <trkpt lat="47.10204" lon="5.28348">
        <ele>179.2002</ele>
        <time>2026-05-15T09:04:46+02:00</time>
      </trkpt>
      <trkpt lat="47.10204" lon="5.28355">
        <ele>179.2002</ele>
        <time>2026-05-15T09:04:47+02:00</time>
      </trkpt>
      <trkpt lat="47.10206" lon="5.28362">
        <ele>179.60059</ele>
        <time>2026-05-15T09:04:48+02:00</time>
      </trkpt>
      <trkpt lat="47.10206" lon="5.28365">
        <ele>179.60059</ele>
        <time>2026-05-15T09:04:49+02:00</time>
      </trkpt>
      <trkpt lat="47.10208" lon="5.28376">
        <ele>180.60059</ele>
        <time>2026-05-15T09:04:50+02:00</time>
      </trkpt>
      <trkpt lat="47.10209" lon="5.28384">
        <ele>180.7002</ele>
        <time>2026-05-15T09:04:51+02:00</time>
      </trkpt>
      <trkpt lat="47.10209" lon="5.28391">
        <ele>180.7002</ele>
        <time>2026-05-15T09:04:52+02:00</time>
      </trkpt>
      <trkpt lat="47.1021" lon="5.28399">
        <ele>181.10059</ele>
        <time>2026-05-15T09:04:53+02:00</time>
      </trkpt>
      <trkpt lat="47.10211" lon="5.28406">
        <ele>180.90039</ele>
        <time>2026-05-15T09:04:54+02:00</time>
      </trkpt>
      <trkpt lat="47.10211" lon="5.28414">
        <ele>180.7002</ele>
        <time>2026-05-15T09:04:55+02:00</time>
      </trkpt>
      <trkpt lat="47.10212" lon="5.28421">
        <ele>180.5</ele>
        <time>2026-05-15T09:04:56+02:00</time>
      </trkpt>
      <trkpt lat="47.10213" lon="5.28429">
        <ele>180.2998</ele>
        <time>2026-05-15T09:04:57+02:00</time>
      </trkpt>
      <trkpt lat="47.10214" lon="5.28437">
        <ele>180.10059</ele>
        <time>2026-05-15T09:04:58+02:00</time>
      </trkpt>
      <trkpt lat="47.10214" lon="5.28444">
        <ele>180</ele>
        <time>2026-05-15T09:04:59+02:00</time>
      </trkpt>
      <trkpt lat="47.10215" lon="5.28452">
        <ele>179.90039</ele>
        <time>2026-05-15T09:05:00+02:00</time>
      </trkpt>
      <trkpt lat="47.10215" lon="5.28459">
        <ele>179.90039</ele>
        <time>2026-05-15T09:05:01+02:00</time>
      </trkpt>
      <trkpt lat="47.10216" lon="5.28467">
        <ele>179.7998</ele>
        <time>2026-05-15T09:05:02+02:00</time>
      </trkpt>
      <trkpt lat="47.10216" lon="5.28475">
        <ele>179.7002</ele>
        <time>2026-05-15T09:05:03+02:00</time>
      </trkpt>
      <trkpt lat="47.10217" lon="5.28482">
        <ele>179.7002</ele>
        <time>2026-05-15T09:05:04+02:00</time>
      </trkpt>
      <trkpt lat="47.10217" lon="5.28489">
        <ele>179.60059</ele>
        <time>2026-05-15T09:05:05+02:00</time>
      </trkpt>
      <trkpt lat="47.10218" lon="5.28497">
        <ele>179.5</ele>
        <time>2026-05-15T09:05:06+02:00</time>
      </trkpt>
      <trkpt lat="47.10219" lon="5.28503">
        <ele>179.40039</ele>
        <time>2026-05-15T09:05:07+02:00</time>
      </trkpt>
      <trkpt lat="47.10219" lon="5.28511">
        <ele>179.40039</ele>
        <time>2026-05-15T09:05:08+02:00</time>
      </trkpt>
      <trkpt lat="47.1022" lon="5.28517">
        <ele>179.2998</ele>
        <time>2026-05-15T09:05:09+02:00</time>
      </trkpt>
      <trkpt lat="47.1022" lon="5.28524">
        <ele>179.2002</ele>
        <time>2026-05-15T09:05:10+02:00</time>
      </trkpt>
      <trkpt lat="47.10221" lon="5.28532">
        <ele>178.90039</ele>
        <time>2026-05-15T09:05:11+02:00</time>
      </trkpt>
      <trkpt lat="47.10221" lon="5.28539">
        <ele>178.7002</ele>
        <time>2026-05-15T09:05:12+02:00</time>
      </trkpt>
      <trkpt lat="47.10221" lon="5.28547">
        <ele>178.60059</ele>
        <time>2026-05-15T09:05:13+02:00</time>
      </trkpt>
      <trkpt lat="47.10222" lon="5.28554">
        <ele>178.5</ele>
        <time>2026-05-15T09:05:14+02:00</time>
      </trkpt>
      <trkpt lat="47.10222" lon="5.28562">
        <ele>178.5</ele>
        <time>2026-05-15T09:05:15+02:00</time>
      </trkpt>
      <trkpt lat="47.10223" lon="5.28569">
        <ele>178.40039</ele>
        <time>2026-05-15T09:05:16+02:00</time>
      </trkpt>
      <trkpt lat="47.10223" lon="5.28577">
        <ele>178.2998</ele>
        <time>2026-05-15T09:05:17+02:00</time>
      </trkpt>
      <trkpt lat="47.10224" lon="5.28585">
        <ele>178.2002</ele>
        <time>2026-05-15T09:05:18+02:00</time>
      </trkpt>
      <trkpt lat="47.10224" lon="5.28592">
        <ele>178.2002</ele>
        <time>2026-05-15T09:05:19+02:00</time>
      </trkpt>
      <trkpt lat="47.10224" lon="5.286">
        <ele>178.2002</ele>
        <time>2026-05-15T09:05:20+02:00</time>
      </trkpt>
      <trkpt lat="47.10224" lon="5.28607">
        <ele>178.2002</ele>
        <time>2026-05-15T09:05:21+02:00</time>
      </trkpt>
      <trkpt lat="47.10225" lon="5.28615">
        <ele>178.2998</ele>
        <time>2026-05-15T09:05:22+02:00</time>
      </trkpt>
      <trkpt lat="47.10225" lon="5.28622">
        <ele>178.2998</ele>
        <time>2026-05-15T09:05:23+02:00</time>
      </trkpt>
      <trkpt lat="47.10225" lon="5.2863">
        <ele>178.40039</ele>
        <time>2026-05-15T09:05:24+02:00</time>
      </trkpt>
      <trkpt lat="47.10224" lon="5.28637">
        <ele>178.5</ele>
        <time>2026-05-15T09:05:25+02:00</time>
      </trkpt>
      <trkpt lat="47.10224" lon="5.28645">
        <ele>178.60059</ele>
        <time>2026-05-15T09:05:26+02:00</time>
      </trkpt>
      <trkpt lat="47.10224" lon="5.28652">
        <ele>178.7002</ele>
        <time>2026-05-15T09:05:27+02:00</time>
      </trkpt>
      <trkpt lat="47.10223" lon="5.2866">
        <ele>178.7002</ele>
        <time>2026-05-15T09:05:28+02:00</time>
      </trkpt>
      <trkpt lat="47.10223" lon="5.28667">
        <ele>178.7998</ele>
        <time>2026-05-15T09:05:29+02:00</time>
      </trkpt>
      <trkpt lat="47.10222" lon="5.28674">
        <ele>178.7998</ele>
        <time>2026-05-15T09:05:30+02:00</time>
      </trkpt>
      <trkpt lat="47.10221" lon="5.28682">
        <ele>178.7998</ele>
        <time>2026-05-15T09:05:31+02:00</time>
      </trkpt>
      <trkpt lat="47.1022" lon="5.28689">
        <ele>179</ele>
        <time>2026-05-15T09:05:32+02:00</time>
      </trkpt>
      <trkpt lat="47.10219" lon="5.28696">
        <ele>179</ele>
        <time>2026-05-15T09:05:33+02:00</time>
      </trkpt>
      <trkpt lat="47.10219" lon="5.28704">
        <ele>179</ele>
        <time>2026-05-15T09:05:34+02:00</time>
      </trkpt>
      <trkpt lat="47.10217" lon="5.28711">
        <ele>179</ele>
        <time>2026-05-15T09:05:35+02:00</time>
      </trkpt>
      <trkpt lat="47.10216" lon="5.28718">
        <ele>179</ele>
        <time>2026-05-15T09:05:36+02:00</time>
      </trkpt>
      <trkpt lat="47.10215" lon="5.28726">
        <ele>179</ele>
        <time>2026-05-15T09:05:37+02:00</time>
      </trkpt>
      <trkpt lat="47.10214" lon="5.28733">
        <ele>179.10059</ele>
        <time>2026-05-15T09:05:38+02:00</time>
      </trkpt>
      <trkpt lat="47.10214" lon="5.2874">
        <ele>179.10059</ele>
        <time>2026-05-15T09:05:39+02:00</time>
      </trkpt>
      <trkpt lat="47.10212" lon="5.28748">
        <ele>179.10059</ele>
        <time>2026-05-15T09:05:40+02:00</time>
      </trkpt>
      <trkpt lat="47.10211" lon="5.28755">
        <ele>179</ele>
        <time>2026-05-15T09:05:41+02:00</time>
      </trkpt>
      <trkpt lat="47.10211" lon="5.28763">
        <ele>178.90039</ele>
        <time>2026-05-15T09:05:42+02:00</time>
      </trkpt>
      <trkpt lat="47.1021" lon="5.2877">
        <ele>178.7998</ele>
        <time>2026-05-15T09:05:43+02:00</time>
      </trkpt>
      <trkpt lat="47.10209" lon="5.28778">
        <ele>178.7002</ele>
        <time>2026-05-15T09:05:44+02:00</time>
      </trkpt>
      <trkpt lat="47.10208" lon="5.28785">
        <ele>178.7002</ele>
        <time>2026-05-15T09:05:45+02:00</time>
      </trkpt>
      <trkpt lat="47.10207" lon="5.28789">
        <ele>178.60059</ele>
        <time>2026-05-15T09:05:46+02:00</time>
      </trkpt>
      <trkpt lat="47.10206" lon="5.288">
        <ele>178.5</ele>
        <time>2026-05-15T09:05:47+02:00</time>
      </trkpt>
      <trkpt lat="47.10204" lon="5.28808">
        <ele>178.40039</ele>
        <time>2026-05-15T09:05:48+02:00</time>
      </trkpt>
      <trkpt lat="47.10204" lon="5.28816">
        <ele>178.40039</ele>
        <time>2026-05-15T09:05:49+02:00</time>
      </trkpt>
      <trkpt lat="47.10203" lon="5.28823">
        <ele>178.2998</ele>
        <time>2026-05-15T09:05:50+02:00</time>
      </trkpt>
      <trkpt lat="47.10201" lon="5.28831">
        <ele>178.40039</ele>
        <time>2026-05-15T09:05:51+02:00</time>
      </trkpt>
      <trkpt lat="47.10201" lon="5.28839">
        <ele>178.40039</ele>
        <time>2026-05-15T09:05:52+02:00</time>
      </trkpt>
      <trkpt lat="47.10199" lon="5.28847">
        <ele>178.40039</ele>
        <time>2026-05-15T09:05:53+02:00</time>
      </trkpt>
      <trkpt lat="47.10199" lon="5.28854">
        <ele>178.40039</ele>
        <time>2026-05-15T09:05:54+02:00</time>
      </trkpt>
      <trkpt lat="47.10198" lon="5.28862">
        <ele>178.40039</ele>
        <time>2026-05-15T09:05:55+02:00</time>
      </trkpt>
      <trkpt lat="47.10196" lon="5.2887">
        <ele>178.5</ele>
        <time>2026-05-15T09:05:56+02:00</time>
      </trkpt>
      <trkpt lat="47.10195" lon="5.28877">
        <ele>178.60059</ele>
        <time>2026-05-15T09:05:57+02:00</time>
      </trkpt>
      <trkpt lat="47.10194" lon="5.28885">
        <ele>178.60059</ele>
        <time>2026-05-15T09:05:58+02:00</time>
      </trkpt>
      <trkpt lat="47.10193" lon="5.28893">
        <ele>178.60059</ele>
        <time>2026-05-15T09:05:59+02:00</time>
      </trkpt>
      <trkpt lat="47.10192" lon="5.289">
        <ele>178.60059</ele>
        <time>2026-05-15T09:06:00+02:00</time>
      </trkpt>
      <trkpt lat="47.10191" lon="5.28908">
        <ele>178.7998</ele>
        <time>2026-05-15T09:06:01+02:00</time>
      </trkpt>
      <trkpt lat="47.1019" lon="5.28915">
        <ele>178.7998</ele>
        <time>2026-05-15T09:06:02+02:00</time>
      </trkpt>
      <trkpt lat="47.10189" lon="5.28923">
        <ele>178.7998</ele>
        <time>2026-05-15T09:06:03+02:00</time>
      </trkpt>
      <trkpt lat="47.10188" lon="5.2893">
        <ele>178.90039</ele>
        <time>2026-05-15T09:06:04+02:00</time>
      </trkpt>
      <trkpt lat="47.10187" lon="5.28938">
        <ele>179</ele>
        <time>2026-05-15T09:06:05+02:00</time>
      </trkpt>
      <trkpt lat="47.10186" lon="5.28945">
        <ele>179</ele>
        <time>2026-05-15T09:06:06+02:00</time>
      </trkpt>
      <trkpt lat="47.10185" lon="5.28952">
        <ele>179.10059</ele>
        <time>2026-05-15T09:06:07+02:00</time>
      </trkpt>
      <trkpt lat="47.10184" lon="5.2896">
        <ele>179.10059</ele>
        <time>2026-05-15T09:06:08+02:00</time>
      </trkpt>
      <trkpt lat="47.10183" lon="5.28967">
        <ele>179.2002</ele>
        <time>2026-05-15T09:06:09+02:00</time>
      </trkpt>
      <trkpt lat="47.10182" lon="5.28975">
        <ele>179.2002</ele>
        <time>2026-05-15T09:06:10+02:00</time>
      </trkpt>
      <trkpt lat="47.10181" lon="5.28982">
        <ele>179.2002</ele>
        <time>2026-05-15T09:06:11+02:00</time>
      </trkpt>
      <trkpt lat="47.1018" lon="5.2899">
        <ele>179.2002</ele>
        <time>2026-05-15T09:06:12+02:00</time>
      </trkpt>
      <trkpt lat="47.10179" lon="5.28997">
        <ele>179.2998</ele>
        <time>2026-05-15T09:06:13+02:00</time>
      </trkpt>
      <trkpt lat="47.10178" lon="5.29005">
        <ele>179.2998</ele>
        <time>2026-05-15T09:06:14+02:00</time>
      </trkpt>
      <trkpt lat="47.10177" lon="5.29012">
        <ele>179.2002</ele>
        <time>2026-05-15T09:06:15+02:00</time>
      </trkpt>
      <trkpt lat="47.10176" lon="5.2902">
        <ele>179.2002</ele>
        <time>2026-05-15T09:06:16+02:00</time>
      </trkpt>
      <trkpt lat="47.10175" lon="5.29027">
        <ele>179.10059</ele>
        <time>2026-05-15T09:06:17+02:00</time>
      </trkpt>
      <trkpt lat="47.10174" lon="5.29035">
        <ele>179</ele>
        <time>2026-05-15T09:06:18+02:00</time>
      </trkpt>
      <trkpt lat="47.10174" lon="5.29042">
        <ele>179</ele>
        <time>2026-05-15T09:06:19+02:00</time>
      </trkpt>
      <trkpt lat="47.10172" lon="5.29049">
        <ele>178.7998</ele>
        <time>2026-05-15T09:06:20+02:00</time>
      </trkpt>
      <trkpt lat="47.10172" lon="5.29053">
        <ele>178.60059</ele>
        <time>2026-05-15T09:06:21+02:00</time>
      </trkpt>
      <trkpt lat="47.10171" lon="5.29064">
        <ele>178.5</ele>
        <time>2026-05-15T09:06:22+02:00</time>
      </trkpt>
      <trkpt lat="47.1017" lon="5.29072">
        <ele>178.40039</ele>
        <time>2026-05-15T09:06:23+02:00</time>
      </trkpt>
      <trkpt lat="47.10169" lon="5.29079">
        <ele>178.2998</ele>
        <time>2026-05-15T09:06:24+02:00</time>
      </trkpt>
      <trkpt lat="47.10168" lon="5.29086">
        <ele>178.2998</ele>
        <time>2026-05-15T09:06:25+02:00</time>
      </trkpt>
      <trkpt lat="47.10167" lon="5.29093">
        <ele>178.40039</ele>
        <time>2026-05-15T09:06:26+02:00</time>
      </trkpt>
      <trkpt lat="47.10166" lon="5.29101">
        <ele>178.5</ele>
        <time>2026-05-15T09:06:27+02:00</time>
      </trkpt>
      <trkpt lat="47.10166" lon="5.29108">
        <ele>178.60059</ele>
        <time>2026-05-15T09:06:28+02:00</time>
      </trkpt>
      <trkpt lat="47.10165" lon="5.29115">
        <ele>178.7002</ele>
        <time>2026-05-15T09:06:29+02:00</time>
      </trkpt>
      <trkpt lat="47.10164" lon="5.29122">
        <ele>178.7998</ele>
        <time>2026-05-15T09:06:30+02:00</time>
      </trkpt>
      <trkpt lat="47.10163" lon="5.29129">
        <ele>178.7998</ele>
        <time>2026-05-15T09:06:31+02:00</time>
      </trkpt>
      <trkpt lat="47.10163" lon="5.29136">
        <ele>178.90039</ele>
        <time>2026-05-15T09:06:32+02:00</time>
      </trkpt>
      <trkpt lat="47.10162" lon="5.2914">
        <ele>179.10059</ele>
        <time>2026-05-15T09:06:33+02:00</time>
      </trkpt>
      <trkpt lat="47.10161" lon="5.29151">
        <ele>179.10059</ele>
        <time>2026-05-15T09:06:34+02:00</time>
      </trkpt>
      <trkpt lat="47.10161" lon="5.29158">
        <ele>179.2002</ele>
        <time>2026-05-15T09:06:35+02:00</time>
      </trkpt>
      <trkpt lat="47.1016" lon="5.29166">
        <ele>179.2998</ele>
        <time>2026-05-15T09:06:36+02:00</time>
      </trkpt>
      <trkpt lat="47.10159" lon="5.29173">
        <ele>179.2998</ele>
        <time>2026-05-15T09:06:37+02:00</time>
      </trkpt>
      <trkpt lat="47.10159" lon="5.29181">
        <ele>179.2998</ele>
        <time>2026-05-15T09:06:38+02:00</time>
      </trkpt>
      <trkpt lat="47.10158" lon="5.29189">
        <ele>179.2998</ele>
        <time>2026-05-15T09:06:39+02:00</time>
      </trkpt>
      <trkpt lat="47.10157" lon="5.29196">
        <ele>179.2998</ele>
        <time>2026-05-15T09:06:40+02:00</time>
      </trkpt>
      <trkpt lat="47.10157" lon="5.29204">
        <ele>179.2998</ele>
        <time>2026-05-15T09:06:41+02:00</time>
      </trkpt>
      <trkpt lat="47.10156" lon="5.29211">
        <ele>179.40039</ele>
        <time>2026-05-15T09:06:42+02:00</time>
      </trkpt>
      <trkpt lat="47.10155" lon="5.29218">
        <ele>179.40039</ele>
        <time>2026-05-15T09:06:43+02:00</time>
      </trkpt>
      <trkpt lat="47.10155" lon="5.29226">
        <ele>179.40039</ele>
        <time>2026-05-15T09:06:44+02:00</time>
      </trkpt>
      <trkpt lat="47.10154" lon="5.29234">
        <ele>179.40039</ele>
        <time>2026-05-15T09:06:45+02:00</time>
      </trkpt>
      <trkpt lat="47.10153" lon="5.29241">
        <ele>179.40039</ele>
        <time>2026-05-15T09:06:46+02:00</time>
      </trkpt>
      <trkpt lat="47.10153" lon="5.29249">
        <ele>179.40039</ele>
        <time>2026-05-15T09:06:47+02:00</time>
      </trkpt>
      <trkpt lat="47.10152" lon="5.29257">
        <ele>179.40039</ele>
        <time>2026-05-15T09:06:48+02:00</time>
      </trkpt>
      <trkpt lat="47.10151" lon="5.29264">
        <ele>179.40039</ele>
        <time>2026-05-15T09:06:49+02:00</time>
      </trkpt>
      <trkpt lat="47.10151" lon="5.29268">
        <ele>179.2998</ele>
        <time>2026-05-15T09:06:50+02:00</time>
      </trkpt>
      <trkpt lat="47.1015" lon="5.2928">
        <ele>179.40039</ele>
        <time>2026-05-15T09:06:51+02:00</time>
      </trkpt>
      <trkpt lat="47.1015" lon="5.29287">
        <ele>179.40039</ele>
        <time>2026-05-15T09:06:52+02:00</time>
      </trkpt>
      <trkpt lat="47.10149" lon="5.29295">
        <ele>179.40039</ele>
        <time>2026-05-15T09:06:53+02:00</time>
      </trkpt>
      <trkpt lat="47.10148" lon="5.29303">
        <ele>179.40039</ele>
        <time>2026-05-15T09:06:54+02:00</time>
      </trkpt>
      <trkpt lat="47.10148" lon="5.2931">
        <ele>179.40039</ele>
        <time>2026-05-15T09:06:55+02:00</time>
      </trkpt>
      <trkpt lat="47.10147" lon="5.29318">
        <ele>179.2998</ele>
        <time>2026-05-15T09:06:56+02:00</time>
      </trkpt>
      <trkpt lat="47.10147" lon="5.29326">
        <ele>179.2998</ele>
        <time>2026-05-15T09:06:57+02:00</time>
      </trkpt>
      <trkpt lat="47.10146" lon="5.29333">
        <ele>179.2002</ele>
        <time>2026-05-15T09:06:58+02:00</time>
      </trkpt>
      <trkpt lat="47.10146" lon="5.29341">
        <ele>179</ele>
        <time>2026-05-15T09:06:59+02:00</time>
      </trkpt>
      <trkpt lat="47.10145" lon="5.29348">
        <ele>178.90039</ele>
        <time>2026-05-15T09:07:00+02:00</time>
      </trkpt>
      <trkpt lat="47.10145" lon="5.29356">
        <ele>178.7002</ele>
        <time>2026-05-15T09:07:01+02:00</time>
      </trkpt>
      <trkpt lat="47.10145" lon="5.29364">
        <ele>178.60059</ele>
        <time>2026-05-15T09:07:02+02:00</time>
      </trkpt>
      <trkpt lat="47.10144" lon="5.29371">
        <ele>178.5</ele>
        <time>2026-05-15T09:07:03+02:00</time>
      </trkpt>
      <trkpt lat="47.10144" lon="5.29379">
        <ele>178.2998</ele>
        <time>2026-05-15T09:07:04+02:00</time>
      </trkpt>
      <trkpt lat="47.10143" lon="5.29387">
        <ele>178.2002</ele>
        <time>2026-05-15T09:07:05+02:00</time>
      </trkpt>
      <trkpt lat="47.10143" lon="5.29394">
        <ele>178.2002</ele>
        <time>2026-05-15T09:07:06+02:00</time>
      </trkpt>
      <trkpt lat="47.10143" lon="5.29402">
        <ele>178.2002</ele>
        <time>2026-05-15T09:07:07+02:00</time>
      </trkpt>
      <trkpt lat="47.10142" lon="5.2941">
        <ele>178.10059</ele>
        <time>2026-05-15T09:07:08+02:00</time>
      </trkpt>
      <trkpt lat="47.10142" lon="5.29414">
        <ele>178.2002</ele>
        <time>2026-05-15T09:07:09+02:00</time>
      </trkpt>
      <trkpt lat="47.10142" lon="5.29425">
        <ele>178.2002</ele>
        <time>2026-05-15T09:07:10+02:00</time>
      </trkpt>
      <trkpt lat="47.10142" lon="5.29433">
        <ele>178.2998</ele>
        <time>2026-05-15T09:07:11+02:00</time>
      </trkpt>
      <trkpt lat="47.10141" lon="5.29441">
        <ele>178.5</ele>
        <time>2026-05-15T09:07:12+02:00</time>
      </trkpt>
      <trkpt lat="47.10141" lon="5.29449">
        <ele>178.60059</ele>
        <time>2026-05-15T09:07:13+02:00</time>
      </trkpt>
      <trkpt lat="47.10141" lon="5.29457">
        <ele>178.7002</ele>
        <time>2026-05-15T09:07:14+02:00</time>
      </trkpt>
      <trkpt lat="47.1014" lon="5.29465">
        <ele>178.7998</ele>
        <time>2026-05-15T09:07:15+02:00</time>
      </trkpt>
      <trkpt lat="47.1014" lon="5.29473">
        <ele>179</ele>
        <time>2026-05-15T09:07:16+02:00</time>
      </trkpt>
      <trkpt lat="47.1014" lon="5.29481">
        <ele>179.2002</ele>
        <time>2026-05-15T09:07:17+02:00</time>
      </trkpt>
      <trkpt lat="47.1014" lon="5.29489">
        <ele>179.2002</ele>
        <time>2026-05-15T09:07:18+02:00</time>
      </trkpt>
      <trkpt lat="47.1014" lon="5.29496">
        <ele>179.40039</ele>
        <time>2026-05-15T09:07:19+02:00</time>
      </trkpt>
      <trkpt lat="47.10141" lon="5.29504">
        <ele>179.60059</ele>
        <time>2026-05-15T09:07:20+02:00</time>
      </trkpt>
      <trkpt lat="47.10142" lon="5.29512">
        <ele>179.90039</ele>
        <time>2026-05-15T09:07:21+02:00</time>
      </trkpt>
      <trkpt lat="47.10142" lon="5.2952">
        <ele>180.2002</ele>
        <time>2026-05-15T09:07:22+02:00</time>
      </trkpt>
      <trkpt lat="47.10143" lon="5.29528">
        <ele>180.40039</ele>
        <time>2026-05-15T09:07:23+02:00</time>
      </trkpt>
      <trkpt lat="47.10145" lon="5.29536">
        <ele>179.7002</ele>
        <time>2026-05-15T09:07:24+02:00</time>
      </trkpt>
      <trkpt lat="47.10145" lon="5.29543">
        <ele>179.90039</ele>
        <time>2026-05-15T09:07:25+02:00</time>
      </trkpt>
      <trkpt lat="47.10145" lon="5.29551">
        <ele>180.2002</ele>
        <time>2026-05-15T09:07:26+02:00</time>
      </trkpt>
      <trkpt lat="47.10145" lon="5.29559">
        <ele>180.5</ele>
        <time>2026-05-15T09:07:27+02:00</time>
      </trkpt>
      <trkpt lat="47.10145" lon="5.29567">
        <ele>180.7998</ele>
        <time>2026-05-15T09:07:28+02:00</time>
      </trkpt>
      <trkpt lat="47.10145" lon="5.2957">
        <ele>180.7998</ele>
        <time>2026-05-15T09:07:29+02:00</time>
      </trkpt>
      <trkpt lat="47.10144" lon="5.29582">
        <ele>182.7002</ele>
        <time>2026-05-15T09:07:30+02:00</time>
      </trkpt>
      <trkpt lat="47.10144" lon="5.2959">
        <ele>183</ele>
        <time>2026-05-15T09:07:31+02:00</time>
      </trkpt>
      <trkpt lat="47.10144" lon="5.29598">
        <ele>183.2998</ele>
        <time>2026-05-15T09:07:32+02:00</time>
      </trkpt>
      <trkpt lat="47.10143" lon="5.29605">
        <ele>183.60059</ele>
        <time>2026-05-15T09:07:33+02:00</time>
      </trkpt>
      <trkpt lat="47.10143" lon="5.29613">
        <ele>183.7002</ele>
        <time>2026-05-15T09:07:34+02:00</time>
      </trkpt>
      <trkpt lat="47.10143" lon="5.2962">
        <ele>183.90039</ele>
        <time>2026-05-15T09:07:35+02:00</time>
      </trkpt>
      <trkpt lat="47.10143" lon="5.29628">
        <ele>183.90039</ele>
        <time>2026-05-15T09:07:36+02:00</time>
      </trkpt>
      <trkpt lat="47.10143" lon="5.29635">
        <ele>183.90039</ele>
        <time>2026-05-15T09:07:37+02:00</time>
      </trkpt>
      <trkpt lat="47.10143" lon="5.29643">
        <ele>184</ele>
        <time>2026-05-15T09:07:38+02:00</time>
      </trkpt>
      <trkpt lat="47.10143" lon="5.29651">
        <ele>184.10059</ele>
        <time>2026-05-15T09:07:39+02:00</time>
      </trkpt>
      <trkpt lat="47.10143" lon="5.29658">
        <ele>184.10059</ele>
        <time>2026-05-15T09:07:40+02:00</time>
      </trkpt>
      <trkpt lat="47.10143" lon="5.29665">
        <ele>184.10059</ele>
        <time>2026-05-15T09:07:41+02:00</time>
      </trkpt>
      <trkpt lat="47.10143" lon="5.29673">
        <ele>184.2002</ele>
        <time>2026-05-15T09:07:42+02:00</time>
      </trkpt>
      <trkpt lat="47.10143" lon="5.2968">
        <ele>184.5</ele>
        <time>2026-05-15T09:07:43+02:00</time>
      </trkpt>
      <trkpt lat="47.10143" lon="5.29688">
        <ele>184.90039</ele>
        <time>2026-05-15T09:07:44+02:00</time>
      </trkpt>
      <trkpt lat="47.10144" lon="5.29696">
        <ele>185.2998</ele>
        <time>2026-05-15T09:07:45+02:00</time>
      </trkpt>
      <trkpt lat="47.10144" lon="5.29703">
        <ele>185.2998</ele>
        <time>2026-05-15T09:07:46+02:00</time>
      </trkpt>
      <trkpt lat="47.10145" lon="5.29711">
        <ele>185.10059</ele>
        <time>2026-05-15T09:07:47+02:00</time>
      </trkpt>
      <trkpt lat="47.10145" lon="5.29719">
        <ele>185.7002</ele>
        <time>2026-05-15T09:07:48+02:00</time>
      </trkpt>
      <trkpt lat="47.10146" lon="5.29727">
        <ele>186.2002</ele>
        <time>2026-05-15T09:07:49+02:00</time>
      </trkpt>
      <trkpt lat="47.10148" lon="5.29734">
        <ele>186.5</ele>
        <time>2026-05-15T09:07:50+02:00</time>
      </trkpt>
      <trkpt lat="47.10149" lon="5.29742">
        <ele>186.7998</ele>
        <time>2026-05-15T09:07:51+02:00</time>
      </trkpt>
      <trkpt lat="47.1015" lon="5.2975">
        <ele>186.90039</ele>
        <time>2026-05-15T09:07:52+02:00</time>
      </trkpt>
      <trkpt lat="47.10152" lon="5.29758">
        <ele>186.60059</ele>
        <time>2026-05-15T09:07:53+02:00</time>
      </trkpt>
      <trkpt lat="47.10153" lon="5.29765">
        <ele>186.5</ele>
        <time>2026-05-15T09:07:54+02:00</time>
      </trkpt>
      <trkpt lat="47.10155" lon="5.29772">
        <ele>186.5</ele>
        <time>2026-05-15T09:07:55+02:00</time>
      </trkpt>
      <trkpt lat="47.10157" lon="5.2978">
        <ele>186</ele>
        <time>2026-05-15T09:07:56+02:00</time>
      </trkpt>
      <trkpt lat="47.10158" lon="5.29787">
        <ele>185.7998</ele>
        <time>2026-05-15T09:07:57+02:00</time>
      </trkpt>
      <trkpt lat="47.1016" lon="5.29795">
        <ele>185.7002</ele>
        <time>2026-05-15T09:07:58+02:00</time>
      </trkpt>
      <trkpt lat="47.10162" lon="5.29802">
        <ele>185.5</ele>
        <time>2026-05-15T09:07:59+02:00</time>
      </trkpt>
      <trkpt lat="47.10164" lon="5.29809">
        <ele>184.7998</ele>
        <time>2026-05-15T09:08:00+02:00</time>
      </trkpt>
      <trkpt lat="47.10166" lon="5.29817">
        <ele>185</ele>
        <time>2026-05-15T09:08:01+02:00</time>
      </trkpt>
      <trkpt lat="47.10168" lon="5.29824">
        <ele>184.40039</ele>
        <time>2026-05-15T09:08:02+02:00</time>
      </trkpt>
      <trkpt lat="47.1017" lon="5.29831">
        <ele>184.7998</ele>
        <time>2026-05-15T09:08:03+02:00</time>
      </trkpt>
      <trkpt lat="47.10172" lon="5.29838">
        <ele>185</ele>
        <time>2026-05-15T09:08:04+02:00</time>
      </trkpt>
      <trkpt lat="47.10175" lon="5.29846">
        <ele>184.90039</ele>
        <time>2026-05-15T09:08:05+02:00</time>
      </trkpt>
      <trkpt lat="47.10177" lon="5.29853">
        <ele>184.7998</ele>
        <time>2026-05-15T09:08:06+02:00</time>
      </trkpt>
      <trkpt lat="47.1018" lon="5.2986">
        <ele>184.40039</ele>
        <time>2026-05-15T09:08:07+02:00</time>
      </trkpt>
      <trkpt lat="47.10182" lon="5.29867">
        <ele>184.40039</ele>
        <time>2026-05-15T09:08:08+02:00</time>
      </trkpt>
      <trkpt lat="47.10184" lon="5.29873">
        <ele>184.2002</ele>
        <time>2026-05-15T09:08:09+02:00</time>
      </trkpt>
      <trkpt lat="47.10187" lon="5.2988">
        <ele>183.7998</ele>
        <time>2026-05-15T09:08:10+02:00</time>
      </trkpt>
      <trkpt lat="47.10189" lon="5.29887">
        <ele>183.7998</ele>
        <time>2026-05-15T09:08:11+02:00</time>
      </trkpt>
      <trkpt lat="47.10192" lon="5.29894">
        <ele>183.5</ele>
        <time>2026-05-15T09:08:12+02:00</time>
      </trkpt>
      <trkpt lat="47.10194" lon="5.29901">
        <ele>183.5</ele>
        <time>2026-05-15T09:08:13+02:00</time>
      </trkpt>
      <trkpt lat="47.10197" lon="5.29907">
        <ele>183.5</ele>
        <time>2026-05-15T09:08:14+02:00</time>
      </trkpt>
      <trkpt lat="47.102" lon="5.29914">
        <ele>183.2002</ele>
        <time>2026-05-15T09:08:15+02:00</time>
      </trkpt>
      <trkpt lat="47.10203" lon="5.2992">
        <ele>182.90039</ele>
        <time>2026-05-15T09:08:16+02:00</time>
      </trkpt>
      <trkpt lat="47.10205" lon="5.29927">
        <ele>182.90039</ele>
        <time>2026-05-15T09:08:17+02:00</time>
      </trkpt>
      <trkpt lat="47.10208" lon="5.29934">
        <ele>182.7998</ele>
        <time>2026-05-15T09:08:18+02:00</time>
      </trkpt>
      <trkpt lat="47.10211" lon="5.2994">
        <ele>182.5</ele>
        <time>2026-05-15T09:08:19+02:00</time>
      </trkpt>
      <trkpt lat="47.10214" lon="5.29947">
        <ele>182.5</ele>
        <time>2026-05-15T09:08:20+02:00</time>
      </trkpt>
      <trkpt lat="47.10217" lon="5.29953">
        <ele>182.2998</ele>
        <time>2026-05-15T09:08:21+02:00</time>
      </trkpt>
      <trkpt lat="47.1022" lon="5.29959">
        <ele>182.2998</ele>
        <time>2026-05-15T09:08:22+02:00</time>
      </trkpt>
      <trkpt lat="47.10223" lon="5.29965">
        <ele>182</ele>
        <time>2026-05-15T09:08:23+02:00</time>
      </trkpt>
      <trkpt lat="47.10226" lon="5.29972">
        <ele>182.10059</ele>
        <time>2026-05-15T09:08:24+02:00</time>
      </trkpt>
      <trkpt lat="47.10229" lon="5.29978">
        <ele>181.7998</ele>
        <time>2026-05-15T09:08:25+02:00</time>
      </trkpt>
      <trkpt lat="47.10232" lon="5.29983">
        <ele>181.7998</ele>
        <time>2026-05-15T09:08:26+02:00</time>
      </trkpt>
      <trkpt lat="47.10235" lon="5.29989">
        <ele>181.40039</ele>
        <time>2026-05-15T09:08:27+02:00</time>
      </trkpt>
      <trkpt lat="47.10239" lon="5.29995">
        <ele>181.10059</ele>
        <time>2026-05-15T09:08:28+02:00</time>
      </trkpt>
      <trkpt lat="47.10242" lon="5.30001">
        <ele>181.2002</ele>
        <time>2026-05-15T09:08:29+02:00</time>
      </trkpt>
      <trkpt lat="47.10245" lon="5.30007">
        <ele>181.10059</ele>
        <time>2026-05-15T09:08:30+02:00</time>
      </trkpt>
      <trkpt lat="47.10249" lon="5.30012">
        <ele>181.10059</ele>
        <time>2026-05-15T09:08:31+02:00</time>
      </trkpt>
      <trkpt lat="47.10253" lon="5.30018">
        <ele>181.10059</ele>
        <time>2026-05-15T09:08:32+02:00</time>
      </trkpt>
      <trkpt lat="47.10256" lon="5.30024">
        <ele>181</ele>
        <time>2026-05-15T09:08:33+02:00</time>
      </trkpt>
      <trkpt lat="47.1026" lon="5.30029">
        <ele>181</ele>
        <time>2026-05-15T09:08:34+02:00</time>
      </trkpt>
      <trkpt lat="47.10264" lon="5.30035">
        <ele>180.90039</ele>
        <time>2026-05-15T09:08:35+02:00</time>
      </trkpt>
      <trkpt lat="47.10267" lon="5.3004">
        <ele>181</ele>
        <time>2026-05-15T09:08:36+02:00</time>
      </trkpt>
      <trkpt lat="47.10271" lon="5.30046">
        <ele>180.7998</ele>
        <time>2026-05-15T09:08:37+02:00</time>
      </trkpt>
      <trkpt lat="47.10274" lon="5.30051">
        <ele>180.7998</ele>
        <time>2026-05-15T09:08:38+02:00</time>
      </trkpt>
      <trkpt lat="47.10278" lon="5.30057">
        <ele>181</ele>
        <time>2026-05-15T09:08:39+02:00</time>
      </trkpt>
      <trkpt lat="47.10282" lon="5.30062">
        <ele>180.7998</ele>
        <time>2026-05-15T09:08:40+02:00</time>
      </trkpt>
      <trkpt lat="47.10286" lon="5.30067">
        <ele>180.7998</ele>
        <time>2026-05-15T09:08:41+02:00</time>
      </trkpt>
      <trkpt lat="47.1029" lon="5.30072">
        <ele>180.7998</ele>
        <time>2026-05-15T09:08:42+02:00</time>
      </trkpt>
      <trkpt lat="47.10294" lon="5.30077">
        <ele>180.7002</ele>
        <time>2026-05-15T09:08:43+02:00</time>
      </trkpt>
      <trkpt lat="47.10298" lon="5.30081">
        <ele>180.5</ele>
        <time>2026-05-15T09:08:44+02:00</time>
      </trkpt>
      <trkpt lat="47.10301" lon="5.30086">
        <ele>180.7002</ele>
        <time>2026-05-15T09:08:45+02:00</time>
      </trkpt>
      <trkpt lat="47.10305" lon="5.30091">
        <ele>180.60059</ele>
        <time>2026-05-15T09:08:46+02:00</time>
      </trkpt>
      <trkpt lat="47.10309" lon="5.30096">
        <ele>180.2998</ele>
        <time>2026-05-15T09:08:47+02:00</time>
      </trkpt>
      <trkpt lat="47.10313" lon="5.30101">
        <ele>180.5</ele>
        <time>2026-05-15T09:08:48+02:00</time>
      </trkpt>
      <trkpt lat="47.10317" lon="5.30106">
        <ele>180.2002</ele>
        <time>2026-05-15T09:08:49+02:00</time>
      </trkpt>
      <trkpt lat="47.10321" lon="5.30111">
        <ele>180.10059</ele>
        <time>2026-05-15T09:08:50+02:00</time>
      </trkpt>
      <trkpt lat="47.10325" lon="5.30116">
        <ele>180.10059</ele>
        <time>2026-05-15T09:08:51+02:00</time>
      </trkpt>
      <trkpt lat="47.10328" lon="5.30121">
        <ele>179.90039</ele>
        <time>2026-05-15T09:08:52+02:00</time>
      </trkpt>
      <trkpt lat="47.10332" lon="5.30125">
        <ele>179.7002</ele>
        <time>2026-05-15T09:08:53+02:00</time>
      </trkpt>
      <trkpt lat="47.10336" lon="5.3013">
        <ele>179.7002</ele>
        <time>2026-05-15T09:08:54+02:00</time>
      </trkpt>
      <trkpt lat="47.1034" lon="5.30135">
        <ele>179.5</ele>
        <time>2026-05-15T09:08:55+02:00</time>
      </trkpt>
      <trkpt lat="47.10344" lon="5.30139">
        <ele>179.2002</ele>
        <time>2026-05-15T09:08:56+02:00</time>
      </trkpt>
      <trkpt lat="47.10348" lon="5.30145">
        <ele>179.2998</ele>
        <time>2026-05-15T09:08:57+02:00</time>
      </trkpt>
      <trkpt lat="47.10352" lon="5.30149">
        <ele>179</ele>
        <time>2026-05-15T09:08:58+02:00</time>
      </trkpt>
      <trkpt lat="47.10356" lon="5.30154">
        <ele>178.90039</ele>
        <time>2026-05-15T09:08:59+02:00</time>
      </trkpt>
      <trkpt lat="47.1036" lon="5.30159">
        <ele>179</ele>
        <time>2026-05-15T09:09:00+02:00</time>
      </trkpt>
      <trkpt lat="47.10365" lon="5.30164">
        <ele>178.7998</ele>
        <time>2026-05-15T09:09:01+02:00</time>
      </trkpt>
      <trkpt lat="47.10369" lon="5.30169">
        <ele>178.7998</ele>
        <time>2026-05-15T09:09:02+02:00</time>
      </trkpt>
      <trkpt lat="47.10373" lon="5.30174">
        <ele>178.60059</ele>
        <time>2026-05-15T09:09:03+02:00</time>
      </trkpt>
      <trkpt lat="47.10377" lon="5.30179">
        <ele>178.7998</ele>
        <time>2026-05-15T09:09:04+02:00</time>
      </trkpt>
      <trkpt lat="47.10381" lon="5.30183">
        <ele>178.60059</ele>
        <time>2026-05-15T09:09:05+02:00</time>
      </trkpt>
      <trkpt lat="47.10386" lon="5.30187">
        <ele>178.60059</ele>
        <time>2026-05-15T09:09:06+02:00</time>
      </trkpt>
      <trkpt lat="47.10391" lon="5.30191">
        <ele>178.5</ele>
        <time>2026-05-15T09:09:07+02:00</time>
      </trkpt>
      <trkpt lat="47.10395" lon="5.30195">
        <ele>178.60059</ele>
        <time>2026-05-15T09:09:08+02:00</time>
      </trkpt>
      <trkpt lat="47.10399" lon="5.302">
        <ele>178.40039</ele>
        <time>2026-05-15T09:09:09+02:00</time>
      </trkpt>
      <trkpt lat="47.10404" lon="5.30204">
        <ele>178.2998</ele>
        <time>2026-05-15T09:09:10+02:00</time>
      </trkpt>
      <trkpt lat="47.10408" lon="5.30208">
        <ele>178.2002</ele>
        <time>2026-05-15T09:09:11+02:00</time>
      </trkpt>
      <trkpt lat="47.10413" lon="5.30212">
        <ele>178.2002</ele>
        <time>2026-05-15T09:09:12+02:00</time>
      </trkpt>
      <trkpt lat="47.10417" lon="5.30216">
        <ele>178.2002</ele>
        <time>2026-05-15T09:09:13+02:00</time>
      </trkpt>
      <trkpt lat="47.10421" lon="5.3022">
        <ele>178.10059</ele>
        <time>2026-05-15T09:09:14+02:00</time>
      </trkpt>
      <trkpt lat="47.10426" lon="5.30224">
        <ele>178.10059</ele>
        <time>2026-05-15T09:09:15+02:00</time>
      </trkpt>
      <trkpt lat="47.1043" lon="5.30228">
        <ele>177.90039</ele>
        <time>2026-05-15T09:09:16+02:00</time>
      </trkpt>
      <trkpt lat="47.10435" lon="5.30232">
        <ele>177.90039</ele>
        <time>2026-05-15T09:09:17+02:00</time>
      </trkpt>
      <trkpt lat="47.10439" lon="5.30236">
        <ele>177.90039</ele>
        <time>2026-05-15T09:09:18+02:00</time>
      </trkpt>
      <trkpt lat="47.10444" lon="5.3024">
        <ele>177.90039</ele>
        <time>2026-05-15T09:09:19+02:00</time>
      </trkpt>
      <trkpt lat="47.10448" lon="5.30244">
        <ele>177.90039</ele>
        <time>2026-05-15T09:09:20+02:00</time>
      </trkpt>
      <trkpt lat="47.10452" lon="5.30248">
        <ele>177.90039</ele>
        <time>2026-05-15T09:09:21+02:00</time>
      </trkpt>
      <trkpt lat="47.10457" lon="5.30252">
        <ele>178</ele>
        <time>2026-05-15T09:09:22+02:00</time>
      </trkpt>
      <trkpt lat="47.10462" lon="5.30256">
        <ele>177.90039</ele>
        <time>2026-05-15T09:09:23+02:00</time>
      </trkpt>
      <trkpt lat="47.10466" lon="5.3026">
        <ele>177.90039</ele>
        <time>2026-05-15T09:09:24+02:00</time>
      </trkpt>
      <trkpt lat="47.10471" lon="5.30263">
        <ele>177.7998</ele>
        <time>2026-05-15T09:09:25+02:00</time>
      </trkpt>
      <trkpt lat="47.10475" lon="5.30267">
        <ele>177.90039</ele>
        <time>2026-05-15T09:09:26+02:00</time>
      </trkpt>
      <trkpt lat="47.1048" lon="5.3027">
        <ele>177.90039</ele>
        <time>2026-05-15T09:09:27+02:00</time>
      </trkpt>
      <trkpt lat="47.10484" lon="5.30273">
        <ele>178.10059</ele>
        <time>2026-05-15T09:09:28+02:00</time>
      </trkpt>
      <trkpt lat="47.10489" lon="5.30277">
        <ele>178.10059</ele>
        <time>2026-05-15T09:09:29+02:00</time>
      </trkpt>
      <trkpt lat="47.10493" lon="5.30281">
        <ele>178.2998</ele>
        <time>2026-05-15T09:09:30+02:00</time>
      </trkpt>
      <trkpt lat="47.10498" lon="5.30285">
        <ele>178.40039</ele>
        <time>2026-05-15T09:09:31+02:00</time>
      </trkpt>
      <trkpt lat="47.10502" lon="5.3029">
        <ele>178.60059</ele>
        <time>2026-05-15T09:09:32+02:00</time>
      </trkpt>
      <trkpt lat="47.10507" lon="5.30294">
        <ele>178.60059</ele>
        <time>2026-05-15T09:09:33+02:00</time>
      </trkpt>
      <trkpt lat="47.1051" lon="5.30299">
        <ele>178.7998</ele>
        <time>2026-05-15T09:09:34+02:00</time>
      </trkpt>
      <trkpt lat="47.10514" lon="5.30305">
        <ele>178.90039</ele>
        <time>2026-05-15T09:09:35+02:00</time>
      </trkpt>
      <trkpt lat="47.10518" lon="5.3031">
        <ele>178.90039</ele>
        <time>2026-05-15T09:09:36+02:00</time>
      </trkpt>
      <trkpt lat="47.10522" lon="5.30315">
        <ele>179</ele>
        <time>2026-05-15T09:09:37+02:00</time>
      </trkpt>
      <trkpt lat="47.10526" lon="5.3032">
        <ele>178.90039</ele>
        <time>2026-05-15T09:09:38+02:00</time>
      </trkpt>
      <trkpt lat="47.10529" lon="5.30326">
        <ele>179.10059</ele>
        <time>2026-05-15T09:09:39+02:00</time>
      </trkpt>
      <trkpt lat="47.10533" lon="5.30331">
        <ele>179.10059</ele>
        <time>2026-05-15T09:09:40+02:00</time>
      </trkpt>
      <trkpt lat="47.10537" lon="5.30337">
        <ele>178.90039</ele>
        <time>2026-05-15T09:09:41+02:00</time>
      </trkpt>
      <trkpt lat="47.10541" lon="5.30342">
        <ele>179</ele>
        <time>2026-05-15T09:09:42+02:00</time>
      </trkpt>
      <trkpt lat="47.10544" lon="5.30348">
        <ele>179</ele>
        <time>2026-05-15T09:09:43+02:00</time>
      </trkpt>
      <trkpt lat="47.10548" lon="5.30354">
        <ele>178.7998</ele>
        <time>2026-05-15T09:09:44+02:00</time>
      </trkpt>
      <trkpt lat="47.10551" lon="5.3036">
        <ele>179.10059</ele>
        <time>2026-05-15T09:09:45+02:00</time>
      </trkpt>
      <trkpt lat="47.10554" lon="5.30366">
        <ele>179.10059</ele>
        <time>2026-05-15T09:09:46+02:00</time>
      </trkpt>
      <trkpt lat="47.10557" lon="5.30372">
        <ele>179.10059</ele>
        <time>2026-05-15T09:09:47+02:00</time>
      </trkpt>
      <trkpt lat="47.1056" lon="5.30378">
        <ele>179.2002</ele>
        <time>2026-05-15T09:09:48+02:00</time>
      </trkpt>
      <trkpt lat="47.10563" lon="5.30384">
        <ele>179.60059</ele>
        <time>2026-05-15T09:09:49+02:00</time>
      </trkpt>
      <trkpt lat="47.10565" lon="5.30391">
        <ele>179.90039</ele>
        <time>2026-05-15T09:09:50+02:00</time>
      </trkpt>
      <trkpt lat="47.10568" lon="5.30397">
        <ele>179.90039</ele>
        <time>2026-05-15T09:09:51+02:00</time>
      </trkpt>
      <trkpt lat="47.10571" lon="5.30403">
        <ele>180.10059</ele>
        <time>2026-05-15T09:09:52+02:00</time>
      </trkpt>
      <trkpt lat="47.10574" lon="5.30409">
        <ele>180.2002</ele>
        <time>2026-05-15T09:09:53+02:00</time>
      </trkpt>
      <trkpt lat="47.10577" lon="5.30416">
        <ele>180.2002</ele>
        <time>2026-05-15T09:09:54+02:00</time>
      </trkpt>
      <trkpt lat="47.1058" lon="5.30422">
        <ele>180.2998</ele>
        <time>2026-05-15T09:09:55+02:00</time>
      </trkpt>
      <trkpt lat="47.10582" lon="5.30428">
        <ele>180.40039</ele>
        <time>2026-05-15T09:09:56+02:00</time>
      </trkpt>
      <trkpt lat="47.10586" lon="5.30434">
        <ele>180.60059</ele>
        <time>2026-05-15T09:09:57+02:00</time>
      </trkpt>
      <trkpt lat="47.10589" lon="5.3044">
        <ele>180.7998</ele>
        <time>2026-05-15T09:09:58+02:00</time>
      </trkpt>
      <trkpt lat="47.10592" lon="5.30447">
        <ele>180.7998</ele>
        <time>2026-05-15T09:09:59+02:00</time>
      </trkpt>
      <trkpt lat="47.10595" lon="5.30453">
        <ele>180.90039</ele>
        <time>2026-05-15T09:10:00+02:00</time>
      </trkpt>
      <trkpt lat="47.10598" lon="5.3046">
        <ele>180.90039</ele>
        <time>2026-05-15T09:10:01+02:00</time>
      </trkpt>
      <trkpt lat="47.10601" lon="5.30466">
        <ele>180.90039</ele>
        <time>2026-05-15T09:10:02+02:00</time>
      </trkpt>
      <trkpt lat="47.10603" lon="5.30473">
        <ele>180.90039</ele>
        <time>2026-05-15T09:10:03+02:00</time>
      </trkpt>
      <trkpt lat="47.10606" lon="5.3048">
        <ele>180.90039</ele>
        <time>2026-05-15T09:10:04+02:00</time>
      </trkpt>
      <trkpt lat="47.10609" lon="5.30486">
        <ele>180.90039</ele>
        <time>2026-05-15T09:10:05+02:00</time>
      </trkpt>
      <trkpt lat="47.10612" lon="5.30493">
        <ele>181</ele>
        <time>2026-05-15T09:10:06+02:00</time>
      </trkpt>
      <trkpt lat="47.10615" lon="5.30499">
        <ele>180.90039</ele>
        <time>2026-05-15T09:10:07+02:00</time>
      </trkpt>
      <trkpt lat="47.10618" lon="5.30506">
        <ele>180.7002</ele>
        <time>2026-05-15T09:10:08+02:00</time>
      </trkpt>
      <trkpt lat="47.1062" lon="5.30512">
        <ele>180.5</ele>
        <time>2026-05-15T09:10:09+02:00</time>
      </trkpt>
      <trkpt lat="47.10621" lon="5.30515">
        <ele>180.5</ele>
        <time>2026-05-15T09:10:10+02:00</time>
      </trkpt>
      <trkpt lat="47.10626" lon="5.30525">
        <ele>180.10059</ele>
        <time>2026-05-15T09:10:11+02:00</time>
      </trkpt>
      <trkpt lat="47.10628" lon="5.30532">
        <ele>179.90039</ele>
        <time>2026-05-15T09:10:12+02:00</time>
      </trkpt>
      <trkpt lat="47.10631" lon="5.30538">
        <ele>179.40039</ele>
        <time>2026-05-15T09:10:13+02:00</time>
      </trkpt>
      <trkpt lat="47.10634" lon="5.30545">
        <ele>179.40039</ele>
        <time>2026-05-15T09:10:14+02:00</time>
      </trkpt>
      <trkpt lat="47.10637" lon="5.30551">
        <ele>179</ele>
        <time>2026-05-15T09:10:15+02:00</time>
      </trkpt>
      <trkpt lat="47.1064" lon="5.30558">
        <ele>178.7998</ele>
        <time>2026-05-15T09:10:16+02:00</time>
      </trkpt>
      <trkpt lat="47.10643" lon="5.30565">
        <ele>178.7002</ele>
        <time>2026-05-15T09:10:17+02:00</time>
      </trkpt>
      <trkpt lat="47.10645" lon="5.30572">
        <ele>178.40039</ele>
        <time>2026-05-15T09:10:18+02:00</time>
      </trkpt>
      <trkpt lat="47.10648" lon="5.30579">
        <ele>178.40039</ele>
        <time>2026-05-15T09:10:19+02:00</time>
      </trkpt>
      <trkpt lat="47.10651" lon="5.30586">
        <ele>178.2998</ele>
        <time>2026-05-15T09:10:20+02:00</time>
      </trkpt>
      <trkpt lat="47.10653" lon="5.30594">
        <ele>178.2002</ele>
        <time>2026-05-15T09:10:21+02:00</time>
      </trkpt>
      <trkpt lat="47.10655" lon="5.30601">
        <ele>178.2002</ele>
        <time>2026-05-15T09:10:22+02:00</time>
      </trkpt>
      <trkpt lat="47.10658" lon="5.30608">
        <ele>178.2002</ele>
        <time>2026-05-15T09:10:23+02:00</time>
      </trkpt>
      <trkpt lat="47.1066" lon="5.30615">
        <ele>178.2998</ele>
        <time>2026-05-15T09:10:24+02:00</time>
      </trkpt>
      <trkpt lat="47.10662" lon="5.30622">
        <ele>178.2998</ele>
        <time>2026-05-15T09:10:25+02:00</time>
      </trkpt>
      <trkpt lat="47.10664" lon="5.3063">
        <ele>178.5</ele>
        <time>2026-05-15T09:10:26+02:00</time>
      </trkpt>
      <trkpt lat="47.10666" lon="5.30637">
        <ele>178.7002</ele>
        <time>2026-05-15T09:10:27+02:00</time>
      </trkpt>
      <trkpt lat="47.10668" lon="5.30644">
        <ele>179</ele>
        <time>2026-05-15T09:10:28+02:00</time>
      </trkpt>
      <trkpt lat="47.10669" lon="5.30652">
        <ele>179.2998</ele>
        <time>2026-05-15T09:10:29+02:00</time>
      </trkpt>
      <trkpt lat="47.10671" lon="5.30659">
        <ele>179.60059</ele>
        <time>2026-05-15T09:10:30+02:00</time>
      </trkpt>
      <trkpt lat="47.10673" lon="5.30666">
        <ele>179.90039</ele>
        <time>2026-05-15T09:10:31+02:00</time>
      </trkpt>
      <trkpt lat="47.10674" lon="5.30674">
        <ele>180.2002</ele>
        <time>2026-05-15T09:10:32+02:00</time>
      </trkpt>
      <trkpt lat="47.10676" lon="5.30682">
        <ele>180.2002</ele>
        <time>2026-05-15T09:10:33+02:00</time>
      </trkpt>
      <trkpt lat="47.10677" lon="5.3069">
        <ele>180.40039</ele>
        <time>2026-05-15T09:10:34+02:00</time>
      </trkpt>
      <trkpt lat="47.10678" lon="5.30698">
        <ele>180.60059</ele>
        <time>2026-05-15T09:10:35+02:00</time>
      </trkpt>
      <trkpt lat="47.10679" lon="5.30706">
        <ele>180.60059</ele>
        <time>2026-05-15T09:10:36+02:00</time>
      </trkpt>
      <trkpt lat="47.10681" lon="5.30713">
        <ele>180.7002</ele>
        <time>2026-05-15T09:10:37+02:00</time>
      </trkpt>
      <trkpt lat="47.10682" lon="5.30721">
        <ele>180.7998</ele>
        <time>2026-05-15T09:10:38+02:00</time>
      </trkpt>
      <trkpt lat="47.10684" lon="5.30729">
        <ele>180.7002</ele>
        <time>2026-05-15T09:10:39+02:00</time>
      </trkpt>
      <trkpt lat="47.10685" lon="5.30737">
        <ele>180.90039</ele>
        <time>2026-05-15T09:10:40+02:00</time>
      </trkpt>
      <trkpt lat="47.10686" lon="5.30744">
        <ele>181</ele>
        <time>2026-05-15T09:10:41+02:00</time>
      </trkpt>
      <trkpt lat="47.10687" lon="5.30752">
        <ele>181.10059</ele>
        <time>2026-05-15T09:10:42+02:00</time>
      </trkpt>
      <trkpt lat="47.10689" lon="5.30759">
        <ele>180.60059</ele>
        <time>2026-05-15T09:10:43+02:00</time>
      </trkpt>
      <trkpt lat="47.1069" lon="5.30767">
        <ele>180.7002</ele>
        <time>2026-05-15T09:10:44+02:00</time>
      </trkpt>
      <trkpt lat="47.10692" lon="5.30774">
        <ele>180.7002</ele>
        <time>2026-05-15T09:10:45+02:00</time>
      </trkpt>
      <trkpt lat="47.10693" lon="5.30781">
        <ele>180.7998</ele>
        <time>2026-05-15T09:10:46+02:00</time>
      </trkpt>
      <trkpt lat="47.10694" lon="5.30788">
        <ele>180.2998</ele>
        <time>2026-05-15T09:10:47+02:00</time>
      </trkpt>
      <trkpt lat="47.10695" lon="5.30796">
        <ele>180.40039</ele>
        <time>2026-05-15T09:10:48+02:00</time>
      </trkpt>
      <trkpt lat="47.10697" lon="5.30803">
        <ele>180.60059</ele>
        <time>2026-05-15T09:10:49+02:00</time>
      </trkpt>
      <trkpt lat="47.10698" lon="5.30811">
        <ele>180.60059</ele>
        <time>2026-05-15T09:10:50+02:00</time>
      </trkpt>
      <trkpt lat="47.107" lon="5.30818">
        <ele>180.2998</ele>
        <time>2026-05-15T09:10:51+02:00</time>
      </trkpt>
      <trkpt lat="47.10701" lon="5.30825">
        <ele>180.7002</ele>
        <time>2026-05-15T09:10:52+02:00</time>
      </trkpt>
      <trkpt lat="47.10702" lon="5.30832">
        <ele>181.10059</ele>
        <time>2026-05-15T09:10:53+02:00</time>
      </trkpt>
      <trkpt lat="47.10704" lon="5.3084">
        <ele>181.40039</ele>
        <time>2026-05-15T09:10:54+02:00</time>
      </trkpt>
      <trkpt lat="47.10705" lon="5.30847">
        <ele>181.40039</ele>
        <time>2026-05-15T09:10:55+02:00</time>
      </trkpt>
      <trkpt lat="47.10706" lon="5.30854">
        <ele>181.40039</ele>
        <time>2026-05-15T09:10:56+02:00</time>
      </trkpt>
      <trkpt lat="47.10708" lon="5.30861">
        <ele>181.2998</ele>
        <time>2026-05-15T09:10:57+02:00</time>
      </trkpt>
      <trkpt lat="47.10709" lon="5.30869">
        <ele>181.10059</ele>
        <time>2026-05-15T09:10:58+02:00</time>
      </trkpt>
      <trkpt lat="47.10711" lon="5.30876">
        <ele>180.90039</ele>
        <time>2026-05-15T09:10:59+02:00</time>
      </trkpt>
      <trkpt lat="47.10712" lon="5.30883">
        <ele>180.60059</ele>
        <time>2026-05-15T09:11:00+02:00</time>
      </trkpt>
      <trkpt lat="47.10713" lon="5.30891">
        <ele>180.5</ele>
        <time>2026-05-15T09:11:01+02:00</time>
      </trkpt>
      <trkpt lat="47.10714" lon="5.30898">
        <ele>180.2998</ele>
        <time>2026-05-15T09:11:02+02:00</time>
      </trkpt>
      <trkpt lat="47.10715" lon="5.30906">
        <ele>180.10059</ele>
        <time>2026-05-15T09:11:03+02:00</time>
      </trkpt>
      <trkpt lat="47.10716" lon="5.30914">
        <ele>180.10059</ele>
        <time>2026-05-15T09:11:04+02:00</time>
      </trkpt>
      <trkpt lat="47.10717" lon="5.30921">
        <ele>180</ele>
        <time>2026-05-15T09:11:05+02:00</time>
      </trkpt>
      <trkpt lat="47.10718" lon="5.30929">
        <ele>179.5</ele>
        <time>2026-05-15T09:11:06+02:00</time>
      </trkpt>
      <trkpt lat="47.10719" lon="5.30937">
        <ele>179.2998</ele>
        <time>2026-05-15T09:11:07+02:00</time>
      </trkpt>
      <trkpt lat="47.10719" lon="5.30945">
        <ele>179.2002</ele>
        <time>2026-05-15T09:11:08+02:00</time>
      </trkpt>
      <trkpt lat="47.1072" lon="5.30953">
        <ele>179.10059</ele>
        <time>2026-05-15T09:11:09+02:00</time>
      </trkpt>
      <trkpt lat="47.10721" lon="5.3096">
        <ele>178.90039</ele>
        <time>2026-05-15T09:11:10+02:00</time>
      </trkpt>
      <trkpt lat="47.10722" lon="5.30968">
        <ele>178.7998</ele>
        <time>2026-05-15T09:11:11+02:00</time>
      </trkpt>
      <trkpt lat="47.10722" lon="5.30976">
        <ele>178.7002</ele>
        <time>2026-05-15T09:11:12+02:00</time>
      </trkpt>
      <trkpt lat="47.10724" lon="5.30983">
        <ele>178.5</ele>
        <time>2026-05-15T09:11:13+02:00</time>
      </trkpt>
      <trkpt lat="47.10725" lon="5.30991">
        <ele>178.5</ele>
        <time>2026-05-15T09:11:14+02:00</time>
      </trkpt>
      <trkpt lat="47.10725" lon="5.30994">
        <ele>178.5</ele>
        <time>2026-05-15T09:11:15+02:00</time>
      </trkpt>
      <trkpt lat="47.10727" lon="5.31006">
        <ele>178.40039</ele>
        <time>2026-05-15T09:11:16+02:00</time>
      </trkpt>
      <trkpt lat="47.10728" lon="5.31013">
        <ele>178.40039</ele>
        <time>2026-05-15T09:11:17+02:00</time>
      </trkpt>
      <trkpt lat="47.10729" lon="5.31021">
        <ele>178.5</ele>
        <time>2026-05-15T09:11:18+02:00</time>
      </trkpt>
      <trkpt lat="47.1073" lon="5.31028">
        <ele>178.40039</ele>
        <time>2026-05-15T09:11:19+02:00</time>
      </trkpt>
      <trkpt lat="47.10732" lon="5.31036">
        <ele>178.5</ele>
        <time>2026-05-15T09:11:20+02:00</time>
      </trkpt>
      <trkpt lat="47.10733" lon="5.31043">
        <ele>178.5</ele>
        <time>2026-05-15T09:11:21+02:00</time>
      </trkpt>
      <trkpt lat="47.10735" lon="5.3105">
        <ele>178.60059</ele>
        <time>2026-05-15T09:11:22+02:00</time>
      </trkpt>
      <trkpt lat="47.10737" lon="5.31057">
        <ele>178.7002</ele>
        <time>2026-05-15T09:11:23+02:00</time>
      </trkpt>
      <trkpt lat="47.10739" lon="5.31064">
        <ele>178.7998</ele>
        <time>2026-05-15T09:11:24+02:00</time>
      </trkpt>
      <trkpt lat="47.1074" lon="5.31071">
        <ele>179</ele>
        <time>2026-05-15T09:11:25+02:00</time>
      </trkpt>
      <trkpt lat="47.10742" lon="5.31078">
        <ele>179.2002</ele>
        <time>2026-05-15T09:11:26+02:00</time>
      </trkpt>
      <trkpt lat="47.10743" lon="5.31085">
        <ele>179.2002</ele>
        <time>2026-05-15T09:11:27+02:00</time>
      </trkpt>
      <trkpt lat="47.10744" lon="5.31092">
        <ele>179.40039</ele>
        <time>2026-05-15T09:11:28+02:00</time>
      </trkpt>
      <trkpt lat="47.10745" lon="5.31098">
        <ele>179.7002</ele>
        <time>2026-05-15T09:11:29+02:00</time>
      </trkpt>
      <trkpt lat="47.10746" lon="5.31105">
        <ele>179.90039</ele>
        <time>2026-05-15T09:11:30+02:00</time>
      </trkpt>
      <trkpt lat="47.10747" lon="5.31112">
        <ele>180</ele>
        <time>2026-05-15T09:11:31+02:00</time>
      </trkpt>
      <trkpt lat="47.10748" lon="5.31119">
        <ele>180</ele>
        <time>2026-05-15T09:11:32+02:00</time>
      </trkpt>
      <trkpt lat="47.10749" lon="5.31126">
        <ele>180.2002</ele>
        <time>2026-05-15T09:11:33+02:00</time>
      </trkpt>
      <trkpt lat="47.1075" lon="5.31132">
        <ele>180.5</ele>
        <time>2026-05-15T09:11:34+02:00</time>
      </trkpt>
      <trkpt lat="47.10751" lon="5.31139">
        <ele>180.7002</ele>
        <time>2026-05-15T09:11:35+02:00</time>
      </trkpt>
      <trkpt lat="47.10753" lon="5.31146">
        <ele>180</ele>
        <time>2026-05-15T09:11:36+02:00</time>
      </trkpt>
      <trkpt lat="47.10753" lon="5.31149">
        <ele>180.2002</ele>
        <time>2026-05-15T09:11:37+02:00</time>
      </trkpt>
      <trkpt lat="47.10755" lon="5.3116">
        <ele>180.2998</ele>
        <time>2026-05-15T09:11:38+02:00</time>
      </trkpt>
      <trkpt lat="47.10756" lon="5.31168">
        <ele>180.40039</ele>
        <time>2026-05-15T09:11:39+02:00</time>
      </trkpt>
      <trkpt lat="47.10758" lon="5.31175">
        <ele>180.60059</ele>
        <time>2026-05-15T09:11:40+02:00</time>
      </trkpt>
      <trkpt lat="47.10758" lon="5.31182">
        <ele>180.7002</ele>
        <time>2026-05-15T09:11:41+02:00</time>
      </trkpt>
      <trkpt lat="47.10759" lon="5.3119">
        <ele>179.60059</ele>
        <time>2026-05-15T09:11:42+02:00</time>
      </trkpt>
      <trkpt lat="47.10761" lon="5.31197">
        <ele>179.60059</ele>
        <time>2026-05-15T09:11:43+02:00</time>
      </trkpt>
      <trkpt lat="47.10761" lon="5.31205">
        <ele>179.7002</ele>
        <time>2026-05-15T09:11:44+02:00</time>
      </trkpt>
      <trkpt lat="47.10762" lon="5.31211">
        <ele>180</ele>
        <time>2026-05-15T09:11:45+02:00</time>
      </trkpt>
      <trkpt lat="47.10762" lon="5.31218">
        <ele>180.5</ele>
        <time>2026-05-15T09:11:46+02:00</time>
      </trkpt>
      <trkpt lat="47.10762" lon="5.31225">
        <ele>181</ele>
        <time>2026-05-15T09:11:47+02:00</time>
      </trkpt>
      <trkpt lat="47.10762" lon="5.31232">
        <ele>181.5</ele>
        <time>2026-05-15T09:11:48+02:00</time>
      </trkpt>
      <trkpt lat="47.10761" lon="5.31239">
        <ele>181.5</ele>
        <time>2026-05-15T09:11:49+02:00</time>
      </trkpt>
      <trkpt lat="47.1076" lon="5.31246">
        <ele>181.7998</ele>
        <time>2026-05-15T09:11:50+02:00</time>
      </trkpt>
      <trkpt lat="47.10759" lon="5.31253">
        <ele>182</ele>
        <time>2026-05-15T09:11:51+02:00</time>
      </trkpt>
      <trkpt lat="47.10758" lon="5.31259">
        <ele>181.90039</ele>
        <time>2026-05-15T09:11:52+02:00</time>
      </trkpt>
      <trkpt lat="47.10756" lon="5.31265">
        <ele>181.90039</ele>
        <time>2026-05-15T09:11:53+02:00</time>
      </trkpt>
      <trkpt lat="47.10754" lon="5.3127">
        <ele>181.90039</ele>
        <time>2026-05-15T09:11:54+02:00</time>
      </trkpt>
      <trkpt lat="47.10752" lon="5.31276">
        <ele>181.7998</ele>
        <time>2026-05-15T09:11:55+02:00</time>
      </trkpt>
      <trkpt lat="47.1075" lon="5.31281">
        <ele>181.7998</ele>
        <time>2026-05-15T09:11:56+02:00</time>
      </trkpt>
      <trkpt lat="47.10749" lon="5.31286">
        <ele>181.7998</ele>
        <time>2026-05-15T09:11:57+02:00</time>
      </trkpt>
      <trkpt lat="47.10748" lon="5.31291">
        <ele>181.7998</ele>
        <time>2026-05-15T09:11:58+02:00</time>
      </trkpt>
      <trkpt lat="47.10748" lon="5.31296">
        <ele>181.7002</ele>
        <time>2026-05-15T09:11:59+02:00</time>
      </trkpt>
      <trkpt lat="47.1075" lon="5.31301">
        <ele>181.60059</ele>
        <time>2026-05-15T09:12:00+02:00</time>
      </trkpt>
      <trkpt lat="47.10751" lon="5.31305">
        <ele>181.60059</ele>
        <time>2026-05-15T09:12:01+02:00</time>
      </trkpt>
      <trkpt lat="47.10754" lon="5.31309">
        <ele>181.40039</ele>
        <time>2026-05-15T09:12:02+02:00</time>
      </trkpt>
      <trkpt lat="47.10756" lon="5.31311">
        <ele>181.2998</ele>
        <time>2026-05-15T09:12:03+02:00</time>
      </trkpt>
      <trkpt lat="47.10759" lon="5.31313">
        <ele>181</ele>
        <time>2026-05-15T09:12:04+02:00</time>
      </trkpt>
      <trkpt lat="47.10763" lon="5.31317">
        <ele>181</ele>
        <time>2026-05-15T09:12:05+02:00</time>
      </trkpt>
      <trkpt lat="47.10765" lon="5.3132">
        <ele>180.5</ele>
        <time>2026-05-15T09:12:06+02:00</time>
      </trkpt>
      <trkpt lat="47.10767" lon="5.31324">
        <ele>180.5</ele>
        <time>2026-05-15T09:12:07+02:00</time>
      </trkpt>
      <trkpt lat="47.10769" lon="5.31328">
        <ele>180.5</ele>
        <time>2026-05-15T09:12:08+02:00</time>
      </trkpt>
      <trkpt lat="47.10772" lon="5.3133">
        <ele>180.10059</ele>
        <time>2026-05-15T09:12:09+02:00</time>
      </trkpt>
      <trkpt lat="47.10774" lon="5.31332">
        <ele>180.10059</ele>
        <time>2026-05-15T09:12:10+02:00</time>
      </trkpt>
      <trkpt lat="47.10777" lon="5.31335">
        <ele>179.90039</ele>
        <time>2026-05-15T09:12:11+02:00</time>
      </trkpt>
      <trkpt lat="47.10779" lon="5.31337">
        <ele>179.90039</ele>
        <time>2026-05-15T09:12:12+02:00</time>
      </trkpt>
      <trkpt lat="47.10781" lon="5.31339">
        <ele>179.90039</ele>
        <time>2026-05-15T09:12:13+02:00</time>
      </trkpt>
      <trkpt lat="47.10783" lon="5.31342">
        <ele>179.40039</ele>
        <time>2026-05-15T09:12:14+02:00</time>
      </trkpt>
      <trkpt lat="47.10783" lon="5.31346">
        <ele>179.7998</ele>
        <time>2026-05-15T09:12:15+02:00</time>
      </trkpt>
      <trkpt lat="47.10783" lon="5.31349">
        <ele>179.7998</ele>
        <time>2026-05-15T09:12:16+02:00</time>
      </trkpt>
      <trkpt lat="47.10782" lon="5.31352">
        <ele>179.7998</ele>
        <time>2026-05-15T09:12:17+02:00</time>
      </trkpt>
      <trkpt lat="47.1078" lon="5.31355">
        <ele>180.5</ele>
        <time>2026-05-15T09:12:18+02:00</time>
      </trkpt>
      <trkpt lat="47.10778" lon="5.31358">
        <ele>180.5</ele>
        <time>2026-05-15T09:12:19+02:00</time>
      </trkpt>
      <trkpt lat="47.10776" lon="5.31362">
        <ele>180.60059</ele>
        <time>2026-05-15T09:12:20+02:00</time>
      </trkpt>
      <trkpt lat="47.10773" lon="5.31367">
        <ele>180.7998</ele>
        <time>2026-05-15T09:12:21+02:00</time>
      </trkpt>
      <trkpt lat="47.10771" lon="5.31372">
        <ele>180.7998</ele>
        <time>2026-05-15T09:12:22+02:00</time>
      </trkpt>
      <trkpt lat="47.10768" lon="5.31376">
        <ele>180.7002</ele>
        <time>2026-05-15T09:12:23+02:00</time>
      </trkpt>
      <trkpt lat="47.10766" lon="5.31381">
        <ele>180.7002</ele>
        <time>2026-05-15T09:12:24+02:00</time>
      </trkpt>
      <trkpt lat="47.10764" lon="5.31387">
        <ele>180.60059</ele>
        <time>2026-05-15T09:12:25+02:00</time>
      </trkpt>
      <trkpt lat="47.10763" lon="5.31393">
        <ele>180.60059</ele>
        <time>2026-05-15T09:12:26+02:00</time>
      </trkpt>
      <trkpt lat="47.10763" lon="5.31398">
        <ele>180.60059</ele>
        <time>2026-05-15T09:12:27+02:00</time>
      </trkpt>
      <trkpt lat="47.10761" lon="5.31405">
        <ele>180.5</ele>
        <time>2026-05-15T09:12:28+02:00</time>
      </trkpt>
      <trkpt lat="47.1076" lon="5.31411">
        <ele>180.5</ele>
        <time>2026-05-15T09:12:29+02:00</time>
      </trkpt>
      <trkpt lat="47.10758" lon="5.31416">
        <ele>180.5</ele>
        <time>2026-05-15T09:12:30+02:00</time>
      </trkpt>
      <trkpt lat="47.10755" lon="5.31422">
        <ele>180.5</ele>
        <time>2026-05-15T09:12:31+02:00</time>
      </trkpt>
      <trkpt lat="47.10753" lon="5.31428">
        <ele>180.5</ele>
        <time>2026-05-15T09:12:32+02:00</time>
      </trkpt>
      <trkpt lat="47.10751" lon="5.31434">
        <ele>180.5</ele>
        <time>2026-05-15T09:12:33+02:00</time>
      </trkpt>
      <trkpt lat="47.10748" lon="5.3144">
        <ele>180.5</ele>
        <time>2026-05-15T09:12:34+02:00</time>
      </trkpt>
      <trkpt lat="47.10745" lon="5.31446">
        <ele>180.5</ele>
        <time>2026-05-15T09:12:35+02:00</time>
      </trkpt>
      <trkpt lat="47.10742" lon="5.31452">
        <ele>180.60059</ele>
        <time>2026-05-15T09:12:36+02:00</time>
      </trkpt>
      <trkpt lat="47.1074" lon="5.31458">
        <ele>180.7002</ele>
        <time>2026-05-15T09:12:37+02:00</time>
      </trkpt>
      <trkpt lat="47.10737" lon="5.31464">
        <ele>180.7002</ele>
        <time>2026-05-15T09:12:38+02:00</time>
      </trkpt>
      <trkpt lat="47.10734" lon="5.31469">
        <ele>180.7998</ele>
        <time>2026-05-15T09:12:39+02:00</time>
      </trkpt>
      <trkpt lat="47.1073" lon="5.31475">
        <ele>180.90039</ele>
        <time>2026-05-15T09:12:40+02:00</time>
      </trkpt>
      <trkpt lat="47.10727" lon="5.3148">
        <ele>181</ele>
        <time>2026-05-15T09:12:41+02:00</time>
      </trkpt>
      <trkpt lat="47.10723" lon="5.31486">
        <ele>181</ele>
        <time>2026-05-15T09:12:42+02:00</time>
      </trkpt>
      <trkpt lat="47.1072" lon="5.31491">
        <ele>181.2002</ele>
        <time>2026-05-15T09:12:43+02:00</time>
      </trkpt>
      <trkpt lat="47.10716" lon="5.31496">
        <ele>181.2998</ele>
        <time>2026-05-15T09:12:44+02:00</time>
      </trkpt>
      <trkpt lat="47.10712" lon="5.31501">
        <ele>181.2998</ele>
        <time>2026-05-15T09:12:45+02:00</time>
      </trkpt>
      <trkpt lat="47.10708" lon="5.31505">
        <ele>181.2998</ele>
        <time>2026-05-15T09:12:46+02:00</time>
      </trkpt>
      <trkpt lat="47.10704" lon="5.3151">
        <ele>181.40039</ele>
        <time>2026-05-15T09:12:47+02:00</time>
      </trkpt>
      <trkpt lat="47.107" lon="5.31514">
        <ele>181.40039</ele>
        <time>2026-05-15T09:12:48+02:00</time>
      </trkpt>
      <trkpt lat="47.10695" lon="5.31519">
        <ele>181.5</ele>
        <time>2026-05-15T09:12:49+02:00</time>
      </trkpt>
      <trkpt lat="47.10691" lon="5.31522">
        <ele>181.5</ele>
        <time>2026-05-15T09:12:50+02:00</time>
      </trkpt>
      <trkpt lat="47.10686" lon="5.31526">
        <ele>181.60059</ele>
        <time>2026-05-15T09:12:51+02:00</time>
      </trkpt>
      <trkpt lat="47.10682" lon="5.3153">
        <ele>181.7002</ele>
        <time>2026-05-15T09:12:52+02:00</time>
      </trkpt>
      <trkpt lat="47.10677" lon="5.31534">
        <ele>181.7998</ele>
        <time>2026-05-15T09:12:53+02:00</time>
      </trkpt>
      <trkpt lat="47.10673" lon="5.31538">
        <ele>181.7998</ele>
        <time>2026-05-15T09:12:54+02:00</time>
      </trkpt>
      <trkpt lat="47.10668" lon="5.31541">
        <ele>181.90039</ele>
        <time>2026-05-15T09:12:55+02:00</time>
      </trkpt>
      <trkpt lat="47.10664" lon="5.31545">
        <ele>181.7998</ele>
        <time>2026-05-15T09:12:56+02:00</time>
      </trkpt>
      <trkpt lat="47.1066" lon="5.31549">
        <ele>181.7998</ele>
        <time>2026-05-15T09:12:57+02:00</time>
      </trkpt>
      <trkpt lat="47.10655" lon="5.31552">
        <ele>181.7998</ele>
        <time>2026-05-15T09:12:58+02:00</time>
      </trkpt>
      <trkpt lat="47.1065" lon="5.31556">
        <ele>181.7998</ele>
        <time>2026-05-15T09:12:59+02:00</time>
      </trkpt>
      <trkpt lat="47.10645" lon="5.31559">
        <ele>182</ele>
        <time>2026-05-15T09:13:00+02:00</time>
      </trkpt>
      <trkpt lat="47.1064" lon="5.31561">
        <ele>182</ele>
        <time>2026-05-15T09:13:01+02:00</time>
      </trkpt>
      <trkpt lat="47.10636" lon="5.31564">
        <ele>182</ele>
        <time>2026-05-15T09:13:02+02:00</time>
      </trkpt>
      <trkpt lat="47.10631" lon="5.31566">
        <ele>181.90039</ele>
        <time>2026-05-15T09:13:03+02:00</time>
      </trkpt>
      <trkpt lat="47.10626" lon="5.31569">
        <ele>182.10059</ele>
        <time>2026-05-15T09:13:04+02:00</time>
      </trkpt>
      <trkpt lat="47.10621" lon="5.31571">
        <ele>182.10059</ele>
        <time>2026-05-15T09:13:05+02:00</time>
      </trkpt>
      <trkpt lat="47.10616" lon="5.31573">
        <ele>182.10059</ele>
        <time>2026-05-15T09:13:06+02:00</time>
      </trkpt>
      <trkpt lat="47.10611" lon="5.31575">
        <ele>182</ele>
        <time>2026-05-15T09:13:07+02:00</time>
      </trkpt>
      <trkpt lat="47.10606" lon="5.31577">
        <ele>182.10059</ele>
        <time>2026-05-15T09:13:08+02:00</time>
      </trkpt>
      <trkpt lat="47.10601" lon="5.31578">
        <ele>182.10059</ele>
        <time>2026-05-15T09:13:09+02:00</time>
      </trkpt>
      <trkpt lat="47.10596" lon="5.3158">
        <ele>182</ele>
        <time>2026-05-15T09:13:10+02:00</time>
      </trkpt>
      <trkpt lat="47.10591" lon="5.31581">
        <ele>181.90039</ele>
        <time>2026-05-15T09:13:11+02:00</time>
      </trkpt>
      <trkpt lat="47.10586" lon="5.31582">
        <ele>181.90039</ele>
        <time>2026-05-15T09:13:12+02:00</time>
      </trkpt>
      <trkpt lat="47.10581" lon="5.31583">
        <ele>181.90039</ele>
        <time>2026-05-15T09:13:13+02:00</time>
      </trkpt>
      <trkpt lat="47.10577" lon="5.31584">
        <ele>182</ele>
        <time>2026-05-15T09:13:14+02:00</time>
      </trkpt>
      <trkpt lat="47.10572" lon="5.31585">
        <ele>182</ele>
        <time>2026-05-15T09:13:15+02:00</time>
      </trkpt>
      <trkpt lat="47.10567" lon="5.31586">
        <ele>182.10059</ele>
        <time>2026-05-15T09:13:16+02:00</time>
      </trkpt>
      <trkpt lat="47.10562" lon="5.31588">
        <ele>182.2002</ele>
        <time>2026-05-15T09:13:17+02:00</time>
      </trkpt>
      <trkpt lat="47.10557" lon="5.31589">
        <ele>182.2002</ele>
        <time>2026-05-15T09:13:18+02:00</time>
      </trkpt>
      <trkpt lat="47.10552" lon="5.3159">
        <ele>182.2002</ele>
        <time>2026-05-15T09:13:19+02:00</time>
      </trkpt>
      <trkpt lat="47.10547" lon="5.31592">
        <ele>182.2002</ele>
        <time>2026-05-15T09:13:20+02:00</time>
      </trkpt>
      <trkpt lat="47.10542" lon="5.31593">
        <ele>182.2002</ele>
        <time>2026-05-15T09:13:21+02:00</time>
      </trkpt>
      <trkpt lat="47.10537" lon="5.31594">
        <ele>182.2002</ele>
        <time>2026-05-15T09:13:22+02:00</time>
      </trkpt>
      <trkpt lat="47.10532" lon="5.31595">
        <ele>182.2998</ele>
        <time>2026-05-15T09:13:23+02:00</time>
      </trkpt>
      <trkpt lat="47.10528" lon="5.31596">
        <ele>182.5</ele>
        <time>2026-05-15T09:13:24+02:00</time>
      </trkpt>
      <trkpt lat="47.10523" lon="5.31597">
        <ele>182.7002</ele>
        <time>2026-05-15T09:13:25+02:00</time>
      </trkpt>
      <trkpt lat="47.10519" lon="5.31597">
        <ele>182.7002</ele>
        <time>2026-05-15T09:13:26+02:00</time>
      </trkpt>
      <trkpt lat="47.10515" lon="5.31597">
        <ele>182.7998</ele>
        <time>2026-05-15T09:13:27+02:00</time>
      </trkpt>
      <trkpt lat="47.10511" lon="5.31598">
        <ele>182.7998</ele>
        <time>2026-05-15T09:13:28+02:00</time>
      </trkpt>
      <trkpt lat="47.10507" lon="5.31598">
        <ele>182.7998</ele>
        <time>2026-05-15T09:13:29+02:00</time>
      </trkpt>
      <trkpt lat="47.10503" lon="5.31598">
        <ele>182.7998</ele>
        <time>2026-05-15T09:13:30+02:00</time>
      </trkpt>
      <trkpt lat="47.10499" lon="5.31599">
        <ele>182.7998</ele>
        <time>2026-05-15T09:13:31+02:00</time>
      </trkpt>
      <trkpt lat="47.10496" lon="5.316">
        <ele>182.7998</ele>
        <time>2026-05-15T09:13:32+02:00</time>
      </trkpt>
      <trkpt lat="47.10492" lon="5.31601">
        <ele>182.7998</ele>
        <time>2026-05-15T09:13:33+02:00</time>
      </trkpt>
      <trkpt lat="47.10488" lon="5.31602">
        <ele>182.7998</ele>
        <time>2026-05-15T09:13:34+02:00</time>
      </trkpt>
      <trkpt lat="47.10484" lon="5.31604">
        <ele>182.7998</ele>
        <time>2026-05-15T09:13:35+02:00</time>
      </trkpt>
      <trkpt lat="47.10479" lon="5.31606">
        <ele>182.7998</ele>
        <time>2026-05-15T09:13:36+02:00</time>
      </trkpt>
      <trkpt lat="47.10475" lon="5.31608">
        <ele>182.7998</ele>
        <time>2026-05-15T09:13:37+02:00</time>
      </trkpt>
      <trkpt lat="47.1047" lon="5.3161">
        <ele>182.90039</ele>
        <time>2026-05-15T09:13:38+02:00</time>
      </trkpt>
      <trkpt lat="47.10466" lon="5.31612">
        <ele>182.90039</ele>
        <time>2026-05-15T09:13:39+02:00</time>
      </trkpt>
      <trkpt lat="47.10461" lon="5.31614">
        <ele>182.90039</ele>
        <time>2026-05-15T09:13:40+02:00</time>
      </trkpt>
      <trkpt lat="47.10456" lon="5.31616">
        <ele>182.90039</ele>
        <time>2026-05-15T09:13:41+02:00</time>
      </trkpt>
      <trkpt lat="47.10452" lon="5.31618">
        <ele>182.90039</ele>
        <time>2026-05-15T09:13:42+02:00</time>
      </trkpt>
      <trkpt lat="47.10447" lon="5.3162">
        <ele>183</ele>
        <time>2026-05-15T09:13:43+02:00</time>
      </trkpt>
      <trkpt lat="47.10442" lon="5.31622">
        <ele>183</ele>
        <time>2026-05-15T09:13:44+02:00</time>
      </trkpt>
      <trkpt lat="47.10437" lon="5.31623">
        <ele>183</ele>
        <time>2026-05-15T09:13:45+02:00</time>
      </trkpt>
      <trkpt lat="47.10432" lon="5.31624">
        <ele>183</ele>
        <time>2026-05-15T09:13:46+02:00</time>
      </trkpt>
      <trkpt lat="47.10427" lon="5.31626">
        <ele>183</ele>
        <time>2026-05-15T09:13:47+02:00</time>
      </trkpt>
      <trkpt lat="47.10422" lon="5.31627">
        <ele>183</ele>
        <time>2026-05-15T09:13:48+02:00</time>
      </trkpt>
      <trkpt lat="47.10416" lon="5.31628">
        <ele>182.90039</ele>
        <time>2026-05-15T09:13:49+02:00</time>
      </trkpt>
      <trkpt lat="47.10411" lon="5.31629">
        <ele>182.90039</ele>
        <time>2026-05-15T09:13:50+02:00</time>
      </trkpt>
      <trkpt lat="47.10405" lon="5.31631">
        <ele>182.90039</ele>
        <time>2026-05-15T09:13:51+02:00</time>
      </trkpt>
      <trkpt lat="47.10402" lon="5.31631">
        <ele>182.90039</ele>
        <time>2026-05-15T09:13:52+02:00</time>
      </trkpt>
      <trkpt lat="47.10394" lon="5.31634">
        <ele>183.10059</ele>
        <time>2026-05-15T09:13:53+02:00</time>
      </trkpt>
      <trkpt lat="47.10389" lon="5.31636">
        <ele>183.2002</ele>
        <time>2026-05-15T09:13:54+02:00</time>
      </trkpt>
      <trkpt lat="47.10383" lon="5.31637">
        <ele>183.2998</ele>
        <time>2026-05-15T09:13:55+02:00</time>
      </trkpt>
      <trkpt lat="47.10381" lon="5.31638">
        <ele>183.2998</ele>
        <time>2026-05-15T09:13:56+02:00</time>
      </trkpt>
      <trkpt lat="47.10372" lon="5.3164">
        <ele>183.7002</ele>
        <time>2026-05-15T09:13:57+02:00</time>
      </trkpt>
      <trkpt lat="47.10367" lon="5.31642">
        <ele>183.7002</ele>
        <time>2026-05-15T09:13:58+02:00</time>
      </trkpt>
      <trkpt lat="47.10361" lon="5.31644">
        <ele>183.7002</ele>
        <time>2026-05-15T09:13:59+02:00</time>
      </trkpt>
      <trkpt lat="47.10356" lon="5.31646">
        <ele>183.7998</ele>
        <time>2026-05-15T09:14:00+02:00</time>
      </trkpt>
      <trkpt lat="47.1035" lon="5.31647">
        <ele>183.90039</ele>
        <time>2026-05-15T09:14:01+02:00</time>
      </trkpt>
      <trkpt lat="47.10344" lon="5.31649">
        <ele>183.90039</ele>
        <time>2026-05-15T09:14:02+02:00</time>
      </trkpt>
      <trkpt lat="47.10339" lon="5.3165">
        <ele>183.90039</ele>
        <time>2026-05-15T09:14:03+02:00</time>
      </trkpt>
      <trkpt lat="47.10334" lon="5.31651">
        <ele>184</ele>
        <time>2026-05-15T09:14:04+02:00</time>
      </trkpt>
      <trkpt lat="47.10328" lon="5.31653">
        <ele>184</ele>
        <time>2026-05-15T09:14:05+02:00</time>
      </trkpt>
      <trkpt lat="47.10323" lon="5.31654">
        <ele>184</ele>
        <time>2026-05-15T09:14:06+02:00</time>
      </trkpt>
      <trkpt lat="47.10317" lon="5.31656">
        <ele>184.10059</ele>
        <time>2026-05-15T09:14:07+02:00</time>
      </trkpt>
      <trkpt lat="47.10315" lon="5.31656">
        <ele>184.10059</ele>
        <time>2026-05-15T09:14:08+02:00</time>
      </trkpt>
      <trkpt lat="47.10307" lon="5.31658">
        <ele>184.2002</ele>
        <time>2026-05-15T09:14:09+02:00</time>
      </trkpt>
      <trkpt lat="47.10301" lon="5.3166">
        <ele>184.2998</ele>
        <time>2026-05-15T09:14:10+02:00</time>
      </trkpt>
      <trkpt lat="47.10296" lon="5.31661">
        <ele>184.40039</ele>
        <time>2026-05-15T09:14:11+02:00</time>
      </trkpt>
      <trkpt lat="47.1029" lon="5.31662">
        <ele>184.5</ele>
        <time>2026-05-15T09:14:12+02:00</time>
      </trkpt>
      <trkpt lat="47.10285" lon="5.31663">
        <ele>184.5</ele>
        <time>2026-05-15T09:14:13+02:00</time>
      </trkpt>
      <trkpt lat="47.1028" lon="5.31664">
        <ele>184.60059</ele>
        <time>2026-05-15T09:14:14+02:00</time>
      </trkpt>
      <trkpt lat="47.10274" lon="5.31665">
        <ele>184.7002</ele>
        <time>2026-05-15T09:14:15+02:00</time>
      </trkpt>
      <trkpt lat="47.10269" lon="5.31665">
        <ele>184.7002</ele>
        <time>2026-05-15T09:14:16+02:00</time>
      </trkpt>
      <trkpt lat="47.10263" lon="5.31666">
        <ele>184.7998</ele>
        <time>2026-05-15T09:14:17+02:00</time>
      </trkpt>
      <trkpt lat="47.10257" lon="5.31666">
        <ele>184.7998</ele>
        <time>2026-05-15T09:14:18+02:00</time>
      </trkpt>
      <trkpt lat="47.10252" lon="5.31667">
        <ele>184.90039</ele>
        <time>2026-05-15T09:14:19+02:00</time>
      </trkpt>
      <trkpt lat="47.10246" lon="5.31667">
        <ele>184.90039</ele>
        <time>2026-05-15T09:14:20+02:00</time>
      </trkpt>
      <trkpt lat="47.1024" lon="5.31667">
        <ele>184.90039</ele>
        <time>2026-05-15T09:14:21+02:00</time>
      </trkpt>
      <trkpt lat="47.10235" lon="5.31667">
        <ele>184.90039</ele>
        <time>2026-05-15T09:14:22+02:00</time>
      </trkpt>
      <trkpt lat="47.10229" lon="5.31666">
        <ele>184.90039</ele>
        <time>2026-05-15T09:14:23+02:00</time>
      </trkpt>
      <trkpt lat="47.10224" lon="5.31666">
        <ele>184.90039</ele>
        <time>2026-05-15T09:14:24+02:00</time>
      </trkpt>
      <trkpt lat="47.10218" lon="5.31665">
        <ele>185</ele>
        <time>2026-05-15T09:14:25+02:00</time>
      </trkpt>
      <trkpt lat="47.10213" lon="5.31664">
        <ele>185</ele>
        <time>2026-05-15T09:14:26+02:00</time>
      </trkpt>
      <trkpt lat="47.10207" lon="5.31663">
        <ele>185</ele>
        <time>2026-05-15T09:14:27+02:00</time>
      </trkpt>
      <trkpt lat="47.10202" lon="5.31663">
        <ele>185</ele>
        <time>2026-05-15T09:14:28+02:00</time>
      </trkpt>
      <trkpt lat="47.10196" lon="5.31662">
        <ele>185</ele>
        <time>2026-05-15T09:14:29+02:00</time>
      </trkpt>
      <trkpt lat="47.10191" lon="5.31661">
        <ele>184.7998</ele>
        <time>2026-05-15T09:14:30+02:00</time>
      </trkpt>
      <trkpt lat="47.10186" lon="5.31661">
        <ele>184.7998</ele>
        <time>2026-05-15T09:14:31+02:00</time>
      </trkpt>
      <trkpt lat="47.1018" lon="5.31662">
        <ele>185</ele>
        <time>2026-05-15T09:14:32+02:00</time>
      </trkpt>
      <trkpt lat="47.10175" lon="5.31663">
        <ele>185</ele>
        <time>2026-05-15T09:14:33+02:00</time>
      </trkpt>
      <trkpt lat="47.10169" lon="5.31664">
        <ele>184.90039</ele>
        <time>2026-05-15T09:14:34+02:00</time>
      </trkpt>
      <trkpt lat="47.10163" lon="5.31667">
        <ele>184.90039</ele>
        <time>2026-05-15T09:14:35+02:00</time>
      </trkpt>
      <trkpt lat="47.10157" lon="5.3167">
        <ele>185.10059</ele>
        <time>2026-05-15T09:14:36+02:00</time>
      </trkpt>
      <trkpt lat="47.10151" lon="5.31674">
        <ele>185.10059</ele>
        <time>2026-05-15T09:14:37+02:00</time>
      </trkpt>
      <trkpt lat="47.10146" lon="5.31678">
        <ele>185</ele>
        <time>2026-05-15T09:14:38+02:00</time>
      </trkpt>
      <trkpt lat="47.1014" lon="5.31681">
        <ele>185</ele>
        <time>2026-05-15T09:14:39+02:00</time>
      </trkpt>
      <trkpt lat="47.10135" lon="5.31685">
        <ele>184.90039</ele>
        <time>2026-05-15T09:14:40+02:00</time>
      </trkpt>
      <trkpt lat="47.1013" lon="5.3169">
        <ele>184.90039</ele>
        <time>2026-05-15T09:14:41+02:00</time>
      </trkpt>
      <trkpt lat="47.10125" lon="5.31694">
        <ele>184.90039</ele>
        <time>2026-05-15T09:14:42+02:00</time>
      </trkpt>
      <trkpt lat="47.10121" lon="5.317">
        <ele>184.90039</ele>
        <time>2026-05-15T09:14:43+02:00</time>
      </trkpt>
      <trkpt lat="47.10117" lon="5.31706">
        <ele>184.90039</ele>
        <time>2026-05-15T09:14:44+02:00</time>
      </trkpt>
      <trkpt lat="47.10113" lon="5.31712">
        <ele>185</ele>
        <time>2026-05-15T09:14:45+02:00</time>
      </trkpt>
      <trkpt lat="47.10109" lon="5.31718">
        <ele>185.10059</ele>
        <time>2026-05-15T09:14:46+02:00</time>
      </trkpt>
      <trkpt lat="47.10106" lon="5.31725">
        <ele>185.10059</ele>
        <time>2026-05-15T09:14:47+02:00</time>
      </trkpt>
      <trkpt lat="47.10104" lon="5.31731">
        <ele>185.10059</ele>
        <time>2026-05-15T09:14:48+02:00</time>
      </trkpt>
      <trkpt lat="47.10101" lon="5.31736">
        <ele>185.2002</ele>
        <time>2026-05-15T09:14:49+02:00</time>
      </trkpt>
      <trkpt lat="47.10098" lon="5.3174">
        <ele>185.2002</ele>
        <time>2026-05-15T09:14:50+02:00</time>
      </trkpt>
      <trkpt lat="47.10096" lon="5.31743">
        <ele>185.2002</ele>
        <time>2026-05-15T09:14:51+02:00</time>
      </trkpt>
      <trkpt lat="47.10093" lon="5.31746">
        <ele>185.2002</ele>
        <time>2026-05-15T09:14:52+02:00</time>
      </trkpt>
      <trkpt lat="47.1009" lon="5.31748">
        <ele>185.2002</ele>
        <time>2026-05-15T09:14:53+02:00</time>
      </trkpt>
      <trkpt lat="47.10087" lon="5.31751">
        <ele>185.2002</ele>
        <time>2026-05-15T09:14:54+02:00</time>
      </trkpt>
      <trkpt lat="47.10084" lon="5.31754">
        <ele>185.2998</ele>
        <time>2026-05-15T09:14:55+02:00</time>
      </trkpt>
      <trkpt lat="47.10082" lon="5.31758">
        <ele>185.2998</ele>
        <time>2026-05-15T09:14:56+02:00</time>
      </trkpt>
      <trkpt lat="47.1008" lon="5.31763">
        <ele>185.5</ele>
        <time>2026-05-15T09:14:57+02:00</time>
      </trkpt>
      <trkpt lat="47.10079" lon="5.31769">
        <ele>185.5</ele>
        <time>2026-05-15T09:14:58+02:00</time>
      </trkpt>
      <trkpt lat="47.10077" lon="5.31774">
        <ele>185.5</ele>
        <time>2026-05-15T09:14:59+02:00</time>
      </trkpt>
      <trkpt lat="47.10075" lon="5.31778">
        <ele>185.5</ele>
        <time>2026-05-15T09:15:00+02:00</time>
      </trkpt>
      <trkpt lat="47.10072" lon="5.31783">
        <ele>185.5</ele>
        <time>2026-05-15T09:15:01+02:00</time>
      </trkpt>
      <trkpt lat="47.10069" lon="5.31787">
        <ele>185.5</ele>
        <time>2026-05-15T09:15:02+02:00</time>
      </trkpt>
      <trkpt lat="47.10066" lon="5.31792">
        <ele>185.5</ele>
        <time>2026-05-15T09:15:03+02:00</time>
      </trkpt>
      <trkpt lat="47.10063" lon="5.31797">
        <ele>185.5</ele>
        <time>2026-05-15T09:15:04+02:00</time>
      </trkpt>
      <trkpt lat="47.1006" lon="5.31802">
        <ele>185.40039</ele>
        <time>2026-05-15T09:15:05+02:00</time>
      </trkpt>
      <trkpt lat="47.10057" lon="5.31808">
        <ele>185.2002</ele>
        <time>2026-05-15T09:15:06+02:00</time>
      </trkpt>
      <trkpt lat="47.10054" lon="5.31814">
        <ele>185.2002</ele>
        <time>2026-05-15T09:15:07+02:00</time>
      </trkpt>
      <trkpt lat="47.1005" lon="5.31819">
        <ele>185.10059</ele>
        <time>2026-05-15T09:15:08+02:00</time>
      </trkpt>
      <trkpt lat="47.10047" lon="5.31825">
        <ele>185.10059</ele>
        <time>2026-05-15T09:15:09+02:00</time>
      </trkpt>
      <trkpt lat="47.10044" lon="5.31831">
        <ele>185.2998</ele>
        <time>2026-05-15T09:15:10+02:00</time>
      </trkpt>
      <trkpt lat="47.1004" lon="5.31836">
        <ele>185.2998</ele>
        <time>2026-05-15T09:15:11+02:00</time>
      </trkpt>
      <trkpt lat="47.10037" lon="5.31841">
        <ele>185.40039</ele>
        <time>2026-05-15T09:15:12+02:00</time>
      </trkpt>
      <trkpt lat="47.10034" lon="5.31846">
        <ele>185.40039</ele>
        <time>2026-05-15T09:15:13+02:00</time>
      </trkpt>
      <trkpt lat="47.10032" lon="5.3185">
        <ele>185.60059</ele>
        <time>2026-05-15T09:15:14+02:00</time>
      </trkpt>
      <trkpt lat="47.10029" lon="5.31854">
        <ele>185.60059</ele>
        <time>2026-05-15T09:15:15+02:00</time>
      </trkpt>
      <trkpt lat="47.10027" lon="5.31856">
        <ele>185.7002</ele>
        <time>2026-05-15T09:15:16+02:00</time>
      </trkpt>
      <trkpt lat="47.10024" lon="5.31862">
        <ele>185.7998</ele>
        <time>2026-05-15T09:15:17+02:00</time>
      </trkpt>
      <trkpt lat="47.10021" lon="5.31866">
        <ele>186</ele>
        <time>2026-05-15T09:15:18+02:00</time>
      </trkpt>
      <trkpt lat="47.10019" lon="5.3187">
        <ele>186.10059</ele>
        <time>2026-05-15T09:15:19+02:00</time>
      </trkpt>
      <trkpt lat="47.10016" lon="5.31875">
        <ele>186.2998</ele>
        <time>2026-05-15T09:15:20+02:00</time>
      </trkpt>
      <trkpt lat="47.10013" lon="5.31879">
        <ele>186.2998</ele>
        <time>2026-05-15T09:15:21+02:00</time>
      </trkpt>
      <trkpt lat="47.1001" lon="5.31884">
        <ele>186.5</ele>
        <time>2026-05-15T09:15:22+02:00</time>
      </trkpt>
      <trkpt lat="47.10007" lon="5.31888">
        <ele>186.5</ele>
        <time>2026-05-15T09:15:23+02:00</time>
      </trkpt>
      <trkpt lat="47.10005" lon="5.31893">
        <ele>186.60059</ele>
        <time>2026-05-15T09:15:24+02:00</time>
      </trkpt>
      <trkpt lat="47.10002" lon="5.31897">
        <ele>186.7002</ele>
        <time>2026-05-15T09:15:25+02:00</time>
      </trkpt>
      <trkpt lat="47.1" lon="5.31902">
        <ele>186.7998</ele>
        <time>2026-05-15T09:15:26+02:00</time>
      </trkpt>
      <trkpt lat="47.09997" lon="5.31907">
        <ele>187</ele>
        <time>2026-05-15T09:15:27+02:00</time>
      </trkpt>
      <trkpt lat="47.0999" lon="5.31922">
        <ele>187.2998</ele>
        <time>2026-05-15T09:15:28+02:00</time>
      </trkpt>
      <trkpt lat="47.09987" lon="5.31926">
        <ele>187.40039</ele>
        <time>2026-05-15T09:15:29+02:00</time>
      </trkpt>
      <trkpt lat="47.09985" lon="5.31931">
        <ele>187.5</ele>
        <time>2026-05-15T09:15:30+02:00</time>
      </trkpt>
      <trkpt lat="47.09982" lon="5.31936">
        <ele>187.60059</ele>
        <time>2026-05-15T09:15:31+02:00</time>
      </trkpt>
      <trkpt lat="47.09981" lon="5.3194">
        <ele>187.60059</ele>
        <time>2026-05-15T09:15:32+02:00</time>
      </trkpt>
      <trkpt lat="47.09978" lon="5.31946">
        <ele>187.7998</ele>
        <time>2026-05-15T09:15:33+02:00</time>
      </trkpt>
      <trkpt lat="47.09976" lon="5.31951">
        <ele>187.7998</ele>
        <time>2026-05-15T09:15:34+02:00</time>
      </trkpt>
      <trkpt lat="47.09974" lon="5.31956">
        <ele>187.90039</ele>
        <time>2026-05-15T09:15:35+02:00</time>
      </trkpt>
      <trkpt lat="47.09972" lon="5.31961">
        <ele>187.90039</ele>
        <time>2026-05-15T09:15:36+02:00</time>
      </trkpt>
      <trkpt lat="47.09969" lon="5.31965">
        <ele>188.10059</ele>
        <time>2026-05-15T09:15:37+02:00</time>
      </trkpt>
      <trkpt lat="47.09968" lon="5.31967">
        <ele>188.10059</ele>
        <time>2026-05-15T09:15:38+02:00</time>
      </trkpt>
      <trkpt lat="47.09964" lon="5.31972">
        <ele>188.2002</ele>
        <time>2026-05-15T09:15:39+02:00</time>
      </trkpt>
      <trkpt lat="47.09961" lon="5.31976">
        <ele>188.2002</ele>
        <time>2026-05-15T09:15:40+02:00</time>
      </trkpt>
      <trkpt lat="47.09958" lon="5.3198">
        <ele>188.40039</ele>
        <time>2026-05-15T09:15:41+02:00</time>
      </trkpt>
      <trkpt lat="47.09955" lon="5.31983">
        <ele>188.40039</ele>
        <time>2026-05-15T09:15:42+02:00</time>
      </trkpt>
      <trkpt lat="47.09951" lon="5.31986">
        <ele>188.40039</ele>
        <time>2026-05-15T09:15:43+02:00</time>
      </trkpt>
      <trkpt lat="47.09947" lon="5.31989">
        <ele>188.60059</ele>
        <time>2026-05-15T09:15:44+02:00</time>
      </trkpt>
      <trkpt lat="47.09943" lon="5.31991">
        <ele>188.60059</ele>
        <time>2026-05-15T09:15:45+02:00</time>
      </trkpt>
      <trkpt lat="47.09939" lon="5.31993">
        <ele>188.60059</ele>
        <time>2026-05-15T09:15:46+02:00</time>
      </trkpt>
      <trkpt lat="47.09936" lon="5.31995">
        <ele>188.60059</ele>
        <time>2026-05-15T09:15:47+02:00</time>
      </trkpt>
      <trkpt lat="47.09931" lon="5.31996">
        <ele>188.7998</ele>
        <time>2026-05-15T09:15:48+02:00</time>
      </trkpt>
      <trkpt lat="47.09927" lon="5.31997">
        <ele>188.7998</ele>
        <time>2026-05-15T09:15:49+02:00</time>
      </trkpt>
      <trkpt lat="47.09923" lon="5.31998">
        <ele>188.7998</ele>
        <time>2026-05-15T09:15:50+02:00</time>
      </trkpt>
      <trkpt lat="47.09918" lon="5.31998">
        <ele>188.7998</ele>
        <time>2026-05-15T09:15:51+02:00</time>
      </trkpt>
      <trkpt lat="47.09914" lon="5.31999">
        <ele>188.7998</ele>
        <time>2026-05-15T09:15:52+02:00</time>
      </trkpt>
      <trkpt lat="47.09909" lon="5.31999">
        <ele>188.7998</ele>
        <time>2026-05-15T09:15:53+02:00</time>
      </trkpt>
      <trkpt lat="47.09904" lon="5.32">
        <ele>188.7998</ele>
        <time>2026-05-15T09:15:54+02:00</time>
      </trkpt>
      <trkpt lat="47.09899" lon="5.32">
        <ele>188.7998</ele>
        <time>2026-05-15T09:15:55+02:00</time>
      </trkpt>
      <trkpt lat="47.09894" lon="5.32">
        <ele>188.7998</ele>
        <time>2026-05-15T09:15:56+02:00</time>
      </trkpt>
      <trkpt lat="47.09889" lon="5.32001">
        <ele>188.90039</ele>
        <time>2026-05-15T09:15:57+02:00</time>
      </trkpt>
      <trkpt lat="47.09884" lon="5.32001">
        <ele>188.90039</ele>
        <time>2026-05-15T09:15:58+02:00</time>
      </trkpt>
      <trkpt lat="47.09879" lon="5.32002">
        <ele>188.90039</ele>
        <time>2026-05-15T09:15:59+02:00</time>
      </trkpt>
      <trkpt lat="47.09874" lon="5.32002">
        <ele>188.90039</ele>
        <time>2026-05-15T09:16:00+02:00</time>
      </trkpt>
      <trkpt lat="47.0987" lon="5.32003">
        <ele>188.90039</ele>
        <time>2026-05-15T09:16:01+02:00</time>
      </trkpt>
      <trkpt lat="47.09865" lon="5.32003">
        <ele>188.90039</ele>
        <time>2026-05-15T09:16:02+02:00</time>
      </trkpt>
      <trkpt lat="47.0986" lon="5.32004">
        <ele>188.7998</ele>
        <time>2026-05-15T09:16:03+02:00</time>
      </trkpt>
      <trkpt lat="47.09854" lon="5.32005">
        <ele>189.2998</ele>
        <time>2026-05-15T09:16:04+02:00</time>
      </trkpt>
      <trkpt lat="47.09849" lon="5.32007">
        <ele>189.2002</ele>
        <time>2026-05-15T09:16:05+02:00</time>
      </trkpt>
      <trkpt lat="47.09844" lon="5.32009">
        <ele>189.10059</ele>
        <time>2026-05-15T09:16:06+02:00</time>
      </trkpt>
      <trkpt lat="47.09839" lon="5.32012">
        <ele>188.90039</ele>
        <time>2026-05-15T09:16:07+02:00</time>
      </trkpt>
      <trkpt lat="47.09834" lon="5.32015">
        <ele>189</ele>
        <time>2026-05-15T09:16:08+02:00</time>
      </trkpt>
      <trkpt lat="47.09829" lon="5.32018">
        <ele>188.7002</ele>
        <time>2026-05-15T09:16:09+02:00</time>
      </trkpt>
      <trkpt lat="47.09825" lon="5.32022">
        <ele>188.7002</ele>
        <time>2026-05-15T09:16:10+02:00</time>
      </trkpt>
      <trkpt lat="47.0982" lon="5.32026">
        <ele>188.2998</ele>
        <time>2026-05-15T09:16:11+02:00</time>
      </trkpt>
      <trkpt lat="47.09815" lon="5.3203">
        <ele>188.10059</ele>
        <time>2026-05-15T09:16:12+02:00</time>
      </trkpt>
      <trkpt lat="47.09811" lon="5.32034">
        <ele>187.90039</ele>
        <time>2026-05-15T09:16:13+02:00</time>
      </trkpt>
      <trkpt lat="47.09807" lon="5.32039">
        <ele>187.90039</ele>
        <time>2026-05-15T09:16:14+02:00</time>
      </trkpt>
      <trkpt lat="47.09803" lon="5.32044">
        <ele>188</ele>
        <time>2026-05-15T09:16:15+02:00</time>
      </trkpt>
      <trkpt lat="47.09799" lon="5.3205">
        <ele>188.10059</ele>
        <time>2026-05-15T09:16:16+02:00</time>
      </trkpt>
      <trkpt lat="47.09794" lon="5.32055">
        <ele>188.2002</ele>
        <time>2026-05-15T09:16:17+02:00</time>
      </trkpt>
      <trkpt lat="47.0979" lon="5.32061">
        <ele>188.10059</ele>
        <time>2026-05-15T09:16:18+02:00</time>
      </trkpt>
      <trkpt lat="47.09786" lon="5.32067">
        <ele>188.2002</ele>
        <time>2026-05-15T09:16:19+02:00</time>
      </trkpt>
      <trkpt lat="47.09781" lon="5.32073">
        <ele>188.60059</ele>
        <time>2026-05-15T09:16:20+02:00</time>
      </trkpt>
      <trkpt lat="47.09778" lon="5.3208">
        <ele>188.60059</ele>
        <time>2026-05-15T09:16:21+02:00</time>
      </trkpt>
      <trkpt lat="47.09774" lon="5.32085">
        <ele>189</ele>
        <time>2026-05-15T09:16:22+02:00</time>
      </trkpt>
      <trkpt lat="47.0977" lon="5.32092">
        <ele>188.90039</ele>
        <time>2026-05-15T09:16:23+02:00</time>
      </trkpt>
      <trkpt lat="47.09765" lon="5.32098">
        <ele>188.90039</ele>
        <time>2026-05-15T09:16:24+02:00</time>
      </trkpt>
      <trkpt lat="47.09762" lon="5.32105">
        <ele>188.7002</ele>
        <time>2026-05-15T09:16:25+02:00</time>
      </trkpt>
      <trkpt lat="47.09757" lon="5.32113">
        <ele>188.7998</ele>
        <time>2026-05-15T09:16:26+02:00</time>
      </trkpt>
      <trkpt lat="47.09753" lon="5.3212">
        <ele>188.90039</ele>
        <time>2026-05-15T09:16:27+02:00</time>
      </trkpt>
      <trkpt lat="47.09749" lon="5.32127">
        <ele>188.7998</ele>
        <time>2026-05-15T09:16:28+02:00</time>
      </trkpt>
      <trkpt lat="47.09745" lon="5.32134">
        <ele>188.7002</ele>
        <time>2026-05-15T09:16:29+02:00</time>
      </trkpt>
      <trkpt lat="47.09741" lon="5.32142">
        <ele>188.90039</ele>
        <time>2026-05-15T09:16:30+02:00</time>
      </trkpt>
      <trkpt lat="47.09738" lon="5.3215">
        <ele>188.90039</ele>
        <time>2026-05-15T09:16:31+02:00</time>
      </trkpt>
      <trkpt lat="47.09736" lon="5.32154">
        <ele>188.7998</ele>
        <time>2026-05-15T09:16:32+02:00</time>
      </trkpt>
      <trkpt lat="47.0973" lon="5.32166">
        <ele>189.10059</ele>
        <time>2026-05-15T09:16:33+02:00</time>
      </trkpt>
      <trkpt lat="47.09727" lon="5.32174">
        <ele>189.40039</ele>
        <time>2026-05-15T09:16:34+02:00</time>
      </trkpt>
      <trkpt lat="47.09724" lon="5.32182">
        <ele>189.2998</ele>
        <time>2026-05-15T09:16:35+02:00</time>
      </trkpt>
      <trkpt lat="47.09723" lon="5.32186">
        <ele>189.40039</ele>
        <time>2026-05-15T09:16:36+02:00</time>
      </trkpt>
      <trkpt lat="47.09718" lon="5.32199">
        <ele>189.5</ele>
        <time>2026-05-15T09:16:37+02:00</time>
      </trkpt>
      <trkpt lat="47.09715" lon="5.32207">
        <ele>189.40039</ele>
        <time>2026-05-15T09:16:38+02:00</time>
      </trkpt>
      <trkpt lat="47.09712" lon="5.32215">
        <ele>189.7002</ele>
        <time>2026-05-15T09:16:39+02:00</time>
      </trkpt>
      <trkpt lat="47.09711" lon="5.32219">
        <ele>189.7002</ele>
        <time>2026-05-15T09:16:40+02:00</time>
      </trkpt>
      <trkpt lat="47.09707" lon="5.32231">
        <ele>189.7002</ele>
        <time>2026-05-15T09:16:41+02:00</time>
      </trkpt>
      <trkpt lat="47.09704" lon="5.3224">
        <ele>189.90039</ele>
        <time>2026-05-15T09:16:42+02:00</time>
      </trkpt>
      <trkpt lat="47.09702" lon="5.32248">
        <ele>189.7998</ele>
        <time>2026-05-15T09:16:43+02:00</time>
      </trkpt>
      <trkpt lat="47.09699" lon="5.32256">
        <ele>189.7002</ele>
        <time>2026-05-15T09:16:44+02:00</time>
      </trkpt>
      <trkpt lat="47.09697" lon="5.32264">
        <ele>189.40039</ele>
        <time>2026-05-15T09:16:45+02:00</time>
      </trkpt>
      <trkpt lat="47.09694" lon="5.32273">
        <ele>189.40039</ele>
        <time>2026-05-15T09:16:46+02:00</time>
      </trkpt>
      <trkpt lat="47.09693" lon="5.32281">
        <ele>189.2998</ele>
        <time>2026-05-15T09:16:47+02:00</time>
      </trkpt>
      <trkpt lat="47.09691" lon="5.32289">
        <ele>189.2998</ele>
        <time>2026-05-15T09:16:48+02:00</time>
      </trkpt>
      <trkpt lat="47.09688" lon="5.32297">
        <ele>189.5</ele>
        <time>2026-05-15T09:16:49+02:00</time>
      </trkpt>
      <trkpt lat="47.09686" lon="5.32305">
        <ele>189.40039</ele>
        <time>2026-05-15T09:16:50+02:00</time>
      </trkpt>
      <trkpt lat="47.09684" lon="5.32313">
        <ele>189.40039</ele>
        <time>2026-05-15T09:16:51+02:00</time>
      </trkpt>
      <trkpt lat="47.09681" lon="5.32322">
        <ele>189.2002</ele>
        <time>2026-05-15T09:16:52+02:00</time>
      </trkpt>
      <trkpt lat="47.09679" lon="5.3233">
        <ele>189.2002</ele>
        <time>2026-05-15T09:16:53+02:00</time>
      </trkpt>
      <trkpt lat="47.09677" lon="5.32338">
        <ele>188.90039</ele>
        <time>2026-05-15T09:16:54+02:00</time>
      </trkpt>
      <trkpt lat="47.09675" lon="5.32347">
        <ele>188.7998</ele>
        <time>2026-05-15T09:16:55+02:00</time>
      </trkpt>
      <trkpt lat="47.09673" lon="5.32356">
        <ele>188.7002</ele>
        <time>2026-05-15T09:16:56+02:00</time>
      </trkpt>
      <trkpt lat="47.09672" lon="5.32364">
        <ele>188.60059</ele>
        <time>2026-05-15T09:16:57+02:00</time>
      </trkpt>
      <trkpt lat="47.09671" lon="5.32373">
        <ele>188.60059</ele>
        <time>2026-05-15T09:16:58+02:00</time>
      </trkpt>
      <trkpt lat="47.09671" lon="5.32383">
        <ele>188.40039</ele>
        <time>2026-05-15T09:16:59+02:00</time>
      </trkpt>
      <trkpt lat="47.09672" lon="5.32392">
        <ele>188.10059</ele>
        <time>2026-05-15T09:17:00+02:00</time>
      </trkpt>
      <trkpt lat="47.09672" lon="5.32401">
        <ele>188.10059</ele>
        <time>2026-05-15T09:17:01+02:00</time>
      </trkpt>
      <trkpt lat="47.09674" lon="5.3241">
        <ele>188.10059</ele>
        <time>2026-05-15T09:17:02+02:00</time>
      </trkpt>
      <trkpt lat="47.09675" lon="5.32418">
        <ele>188.2002</ele>
        <time>2026-05-15T09:17:03+02:00</time>
      </trkpt>
      <trkpt lat="47.09677" lon="5.32427">
        <ele>188.5</ele>
        <time>2026-05-15T09:17:04+02:00</time>
      </trkpt>
      <trkpt lat="47.09678" lon="5.32435">
        <ele>189.40039</ele>
        <time>2026-05-15T09:17:05+02:00</time>
      </trkpt>
      <trkpt lat="47.0968" lon="5.32444">
        <ele>190</ele>
        <time>2026-05-15T09:17:06+02:00</time>
      </trkpt>
      <trkpt lat="47.09681" lon="5.32452">
        <ele>190.5</ele>
        <time>2026-05-15T09:17:07+02:00</time>
      </trkpt>
      <trkpt lat="47.09681" lon="5.32461">
        <ele>190.7998</ele>
        <time>2026-05-15T09:17:08+02:00</time>
      </trkpt>
      <trkpt lat="47.09681" lon="5.32469">
        <ele>191</ele>
        <time>2026-05-15T09:17:09+02:00</time>
      </trkpt>
      <trkpt lat="47.09681" lon="5.32478">
        <ele>191.2002</ele>
        <time>2026-05-15T09:17:10+02:00</time>
      </trkpt>
      <trkpt lat="47.09681" lon="5.32486">
        <ele>191.2998</ele>
        <time>2026-05-15T09:17:11+02:00</time>
      </trkpt>
      <trkpt lat="47.09679" lon="5.32495">
        <ele>191.40039</ele>
        <time>2026-05-15T09:17:12+02:00</time>
      </trkpt>
      <trkpt lat="47.09677" lon="5.32503">
        <ele>190.90039</ele>
        <time>2026-05-15T09:17:13+02:00</time>
      </trkpt>
      <trkpt lat="47.09675" lon="5.3251">
        <ele>190.90039</ele>
        <time>2026-05-15T09:17:14+02:00</time>
      </trkpt>
      <trkpt lat="47.09671" lon="5.32517">
        <ele>190.60059</ele>
        <time>2026-05-15T09:17:15+02:00</time>
      </trkpt>
      <trkpt lat="47.09668" lon="5.32523">
        <ele>190.90039</ele>
        <time>2026-05-15T09:17:16+02:00</time>
      </trkpt>
      <trkpt lat="47.09664" lon="5.32528">
        <ele>191</ele>
        <time>2026-05-15T09:17:17+02:00</time>
      </trkpt>
      <trkpt lat="47.09659" lon="5.32534">
        <ele>190.7998</ele>
        <time>2026-05-15T09:17:18+02:00</time>
      </trkpt>
      <trkpt lat="47.09654" lon="5.32538">
        <ele>191.10059</ele>
        <time>2026-05-15T09:17:19+02:00</time>
      </trkpt>
      <trkpt lat="47.09649" lon="5.32542">
        <ele>191.10059</ele>
        <time>2026-05-15T09:17:20+02:00</time>
      </trkpt>
      <trkpt lat="47.09643" lon="5.32544">
        <ele>190.90039</ele>
        <time>2026-05-15T09:17:21+02:00</time>
      </trkpt>
      <trkpt lat="47.09638" lon="5.32546">
        <ele>191.40039</ele>
        <time>2026-05-15T09:17:22+02:00</time>
      </trkpt>
      <trkpt lat="47.09631" lon="5.32547">
        <ele>191.40039</ele>
        <time>2026-05-15T09:17:23+02:00</time>
      </trkpt>
      <trkpt lat="47.09626" lon="5.32547">
        <ele>191.40039</ele>
        <time>2026-05-15T09:17:24+02:00</time>
      </trkpt>
      <trkpt lat="47.0962" lon="5.32546">
        <ele>191.40039</ele>
        <time>2026-05-15T09:17:25+02:00</time>
      </trkpt>
      <trkpt lat="47.09614" lon="5.32546">
        <ele>191.40039</ele>
        <time>2026-05-15T09:17:26+02:00</time>
      </trkpt>
      <trkpt lat="47.09608" lon="5.32545">
        <ele>190.7002</ele>
        <time>2026-05-15T09:17:27+02:00</time>
      </trkpt>
      <trkpt lat="47.09602" lon="5.32544">
        <ele>190.7002</ele>
        <time>2026-05-15T09:17:28+02:00</time>
      </trkpt>
      <trkpt lat="47.09597" lon="5.32543">
        <ele>190.60059</ele>
        <time>2026-05-15T09:17:29+02:00</time>
      </trkpt>
      <trkpt lat="47.09591" lon="5.32541">
        <ele>190.60059</ele>
        <time>2026-05-15T09:17:30+02:00</time>
      </trkpt>
      <trkpt lat="47.09585" lon="5.3254">
        <ele>190.60059</ele>
        <time>2026-05-15T09:17:31+02:00</time>
      </trkpt>
      <trkpt lat="47.0958" lon="5.3254">
        <ele>190.5</ele>
        <time>2026-05-15T09:17:32+02:00</time>
      </trkpt>
      <trkpt lat="47.09574" lon="5.32539">
        <ele>190.5</ele>
        <time>2026-05-15T09:17:33+02:00</time>
      </trkpt>
      <trkpt lat="47.09568" lon="5.32538">
        <ele>190.40039</ele>
        <time>2026-05-15T09:17:34+02:00</time>
      </trkpt>
      <trkpt lat="47.09563" lon="5.32538">
        <ele>190.40039</ele>
        <time>2026-05-15T09:17:35+02:00</time>
      </trkpt>
      <trkpt lat="47.09557" lon="5.32538">
        <ele>190.2998</ele>
        <time>2026-05-15T09:17:36+02:00</time>
      </trkpt>
      <trkpt lat="47.09552" lon="5.32537">
        <ele>190.2002</ele>
        <time>2026-05-15T09:17:37+02:00</time>
      </trkpt>
      <trkpt lat="47.09546" lon="5.32536">
        <ele>189.5</ele>
        <time>2026-05-15T09:17:38+02:00</time>
      </trkpt>
      <trkpt lat="47.09541" lon="5.32535">
        <ele>189.40039</ele>
        <time>2026-05-15T09:17:39+02:00</time>
      </trkpt>
      <trkpt lat="47.09536" lon="5.32535">
        <ele>189.40039</ele>
        <time>2026-05-15T09:17:40+02:00</time>
      </trkpt>
      <trkpt lat="47.09531" lon="5.32534">
        <ele>189.2998</ele>
        <time>2026-05-15T09:17:41+02:00</time>
      </trkpt>
      <trkpt lat="47.09528" lon="5.32534">
        <ele>189.2998</ele>
        <time>2026-05-15T09:17:42+02:00</time>
      </trkpt>
      <trkpt lat="47.0952" lon="5.32533">
        <ele>189.2002</ele>
        <time>2026-05-15T09:17:43+02:00</time>
      </trkpt>
      <trkpt lat="47.09515" lon="5.32532">
        <ele>189.10059</ele>
        <time>2026-05-15T09:17:44+02:00</time>
      </trkpt>
      <trkpt lat="47.0951" lon="5.32531">
        <ele>189</ele>
        <time>2026-05-15T09:17:45+02:00</time>
      </trkpt>
      <trkpt lat="47.09504" lon="5.32531">
        <ele>189</ele>
        <time>2026-05-15T09:17:46+02:00</time>
      </trkpt>
      <trkpt lat="47.09499" lon="5.3253">
        <ele>188.90039</ele>
        <time>2026-05-15T09:17:47+02:00</time>
      </trkpt>
      <trkpt lat="47.09494" lon="5.3253">
        <ele>188.7998</ele>
        <time>2026-05-15T09:17:48+02:00</time>
      </trkpt>
      <trkpt lat="47.09488" lon="5.32529">
        <ele>188.7998</ele>
        <time>2026-05-15T09:17:49+02:00</time>
      </trkpt>
      <trkpt lat="47.09482" lon="5.32528">
        <ele>188.7002</ele>
        <time>2026-05-15T09:17:50+02:00</time>
      </trkpt>
      <trkpt lat="47.09477" lon="5.32528">
        <ele>188.7002</ele>
        <time>2026-05-15T09:17:51+02:00</time>
      </trkpt>
      <trkpt lat="47.09471" lon="5.32527">
        <ele>188.5</ele>
        <time>2026-05-15T09:17:52+02:00</time>
      </trkpt>
      <trkpt lat="47.09466" lon="5.32527">
        <ele>188.5</ele>
        <time>2026-05-15T09:17:53+02:00</time>
      </trkpt>
      <trkpt lat="47.0946" lon="5.32526">
        <ele>188.5</ele>
        <time>2026-05-15T09:17:54+02:00</time>
      </trkpt>
      <trkpt lat="47.09458" lon="5.32526">
        <ele>188.5</ele>
        <time>2026-05-15T09:17:55+02:00</time>
      </trkpt>
      <trkpt lat="47.0945" lon="5.32525">
        <ele>188.5</ele>
        <time>2026-05-15T09:17:56+02:00</time>
      </trkpt>
      <trkpt lat="47.09444" lon="5.32525">
        <ele>188.5</ele>
        <time>2026-05-15T09:17:57+02:00</time>
      </trkpt>
      <trkpt lat="47.09439" lon="5.32524">
        <ele>188.5</ele>
        <time>2026-05-15T09:17:58+02:00</time>
      </trkpt>
      <trkpt lat="47.09433" lon="5.32524">
        <ele>188.5</ele>
        <time>2026-05-15T09:17:59+02:00</time>
      </trkpt>
      <trkpt lat="47.09428" lon="5.32523">
        <ele>188.5</ele>
        <time>2026-05-15T09:18:00+02:00</time>
      </trkpt>
      <trkpt lat="47.09422" lon="5.32523">
        <ele>188.5</ele>
        <time>2026-05-15T09:18:01+02:00</time>
      </trkpt>
      <trkpt lat="47.09417" lon="5.32523">
        <ele>188.5</ele>
        <time>2026-05-15T09:18:02+02:00</time>
      </trkpt>
      <trkpt lat="47.09411" lon="5.32522">
        <ele>188.5</ele>
        <time>2026-05-15T09:18:03+02:00</time>
      </trkpt>
      <trkpt lat="47.09406" lon="5.32522">
        <ele>188.5</ele>
        <time>2026-05-15T09:18:04+02:00</time>
      </trkpt>
      <trkpt lat="47.094" lon="5.32522">
        <ele>188.5</ele>
        <time>2026-05-15T09:18:05+02:00</time>
      </trkpt>
      <trkpt lat="47.09395" lon="5.32522">
        <ele>188.5</ele>
        <time>2026-05-15T09:18:06+02:00</time>
      </trkpt>
      <trkpt lat="47.09389" lon="5.32521">
        <ele>188.5</ele>
        <time>2026-05-15T09:18:07+02:00</time>
      </trkpt>
      <trkpt lat="47.09384" lon="5.32521">
        <ele>188.5</ele>
        <time>2026-05-15T09:18:08+02:00</time>
      </trkpt>
      <trkpt lat="47.09377" lon="5.3252">
        <ele>188.40039</ele>
        <time>2026-05-15T09:18:09+02:00</time>
      </trkpt>
      <trkpt lat="47.09372" lon="5.3252">
        <ele>188.40039</ele>
        <time>2026-05-15T09:18:10+02:00</time>
      </trkpt>
      <trkpt lat="47.09366" lon="5.32519">
        <ele>188.2002</ele>
        <time>2026-05-15T09:18:11+02:00</time>
      </trkpt>
      <trkpt lat="47.0936" lon="5.32519">
        <ele>188.2002</ele>
        <time>2026-05-15T09:18:12+02:00</time>
      </trkpt>
      <trkpt lat="47.09354" lon="5.32519">
        <ele>188.2002</ele>
        <time>2026-05-15T09:18:13+02:00</time>
      </trkpt>
      <trkpt lat="47.09348" lon="5.32518">
        <ele>188.2002</ele>
        <time>2026-05-15T09:18:14+02:00</time>
      </trkpt>
      <trkpt lat="47.09343" lon="5.32518">
        <ele>188.2002</ele>
        <time>2026-05-15T09:18:15+02:00</time>
      </trkpt>
      <trkpt lat="47.09337" lon="5.32518">
        <ele>188.2002</ele>
        <time>2026-05-15T09:18:16+02:00</time>
      </trkpt>
      <trkpt lat="47.09331" lon="5.32517">
        <ele>188.2002</ele>
        <time>2026-05-15T09:18:17+02:00</time>
      </trkpt>
      <trkpt lat="47.09326" lon="5.32518">
        <ele>188.2002</ele>
        <time>2026-05-15T09:18:18+02:00</time>
      </trkpt>
      <trkpt lat="47.0932" lon="5.32518">
        <ele>188.2002</ele>
        <time>2026-05-15T09:18:19+02:00</time>
      </trkpt>
      <trkpt lat="47.09314" lon="5.32519">
        <ele>188.10059</ele>
        <time>2026-05-15T09:18:20+02:00</time>
      </trkpt>
      <trkpt lat="47.09309" lon="5.3252">
        <ele>188.2998</ele>
        <time>2026-05-15T09:18:21+02:00</time>
      </trkpt>
      <trkpt lat="47.09306" lon="5.32521">
        <ele>188.2998</ele>
        <time>2026-05-15T09:18:22+02:00</time>
      </trkpt>
      <trkpt lat="47.09298" lon="5.32525">
        <ele>188.2002</ele>
        <time>2026-05-15T09:18:23+02:00</time>
      </trkpt>
      <trkpt lat="47.09292" lon="5.32528">
        <ele>188.2998</ele>
        <time>2026-05-15T09:18:24+02:00</time>
      </trkpt>
      <trkpt lat="47.09287" lon="5.32531">
        <ele>188.2002</ele>
        <time>2026-05-15T09:18:25+02:00</time>
      </trkpt>
      <trkpt lat="47.09281" lon="5.32534">
        <ele>188.10059</ele>
        <time>2026-05-15T09:18:26+02:00</time>
      </trkpt>
      <trkpt lat="47.09276" lon="5.32537">
        <ele>188.2002</ele>
        <time>2026-05-15T09:18:27+02:00</time>
      </trkpt>
      <trkpt lat="47.0927" lon="5.3254">
        <ele>188.10059</ele>
        <time>2026-05-15T09:18:28+02:00</time>
      </trkpt>
      <trkpt lat="47.09265" lon="5.32543">
        <ele>188.10059</ele>
        <time>2026-05-15T09:18:29+02:00</time>
      </trkpt>
      <trkpt lat="47.0926" lon="5.32546">
        <ele>188.2002</ele>
        <time>2026-05-15T09:18:30+02:00</time>
      </trkpt>
      <trkpt lat="47.09255" lon="5.32549">
        <ele>188.2002</ele>
        <time>2026-05-15T09:18:31+02:00</time>
      </trkpt>
      <trkpt lat="47.09249" lon="5.32552">
        <ele>188.10059</ele>
        <time>2026-05-15T09:18:32+02:00</time>
      </trkpt>
      <trkpt lat="47.09244" lon="5.32556">
        <ele>188.2998</ele>
        <time>2026-05-15T09:18:33+02:00</time>
      </trkpt>
      <trkpt lat="47.09239" lon="5.32559">
        <ele>188.2998</ele>
        <time>2026-05-15T09:18:34+02:00</time>
      </trkpt>
      <trkpt lat="47.09233" lon="5.32562">
        <ele>188.2002</ele>
        <time>2026-05-15T09:18:35+02:00</time>
      </trkpt>
      <trkpt lat="47.09228" lon="5.32565">
        <ele>188.40039</ele>
        <time>2026-05-15T09:18:36+02:00</time>
      </trkpt>
      <trkpt lat="47.09223" lon="5.32568">
        <ele>188.2998</ele>
        <time>2026-05-15T09:18:37+02:00</time>
      </trkpt>
      <trkpt lat="47.09217" lon="5.32572">
        <ele>188.40039</ele>
        <time>2026-05-15T09:18:38+02:00</time>
      </trkpt>
      <trkpt lat="47.09215" lon="5.32574">
        <ele>188.2002</ele>
        <time>2026-05-15T09:18:39+02:00</time>
      </trkpt>
      <trkpt lat="47.09207" lon="5.3258">
        <ele>188.2998</ele>
        <time>2026-05-15T09:18:40+02:00</time>
      </trkpt>
      <trkpt lat="47.09202" lon="5.32585">
        <ele>188.2002</ele>
        <time>2026-05-15T09:18:41+02:00</time>
      </trkpt>
      <trkpt lat="47.09197" lon="5.32589">
        <ele>188.2998</ele>
        <time>2026-05-15T09:18:42+02:00</time>
      </trkpt>
      <trkpt lat="47.09192" lon="5.32594">
        <ele>188.2002</ele>
        <time>2026-05-15T09:18:43+02:00</time>
      </trkpt>
      <trkpt lat="47.09187" lon="5.32599">
        <ele>188.40039</ele>
        <time>2026-05-15T09:18:44+02:00</time>
      </trkpt>
      <trkpt lat="47.09183" lon="5.32604">
        <ele>188.2998</ele>
        <time>2026-05-15T09:18:45+02:00</time>
      </trkpt>
      <trkpt lat="47.09178" lon="5.32609">
        <ele>188.40039</ele>
        <time>2026-05-15T09:18:46+02:00</time>
      </trkpt>
      <trkpt lat="47.09173" lon="5.32614">
        <ele>188.40039</ele>
        <time>2026-05-15T09:18:47+02:00</time>
      </trkpt>
      <trkpt lat="47.09168" lon="5.32619">
        <ele>188.2998</ele>
        <time>2026-05-15T09:18:48+02:00</time>
      </trkpt>
      <trkpt lat="47.09164" lon="5.32625">
        <ele>188.40039</ele>
        <time>2026-05-15T09:18:49+02:00</time>
      </trkpt>
      <trkpt lat="47.09159" lon="5.3263">
        <ele>188.2998</ele>
        <time>2026-05-15T09:18:50+02:00</time>
      </trkpt>
      <trkpt lat="47.09154" lon="5.32635">
        <ele>188.40039</ele>
        <time>2026-05-15T09:18:51+02:00</time>
      </trkpt>
      <trkpt lat="47.0915" lon="5.32641">
        <ele>188.5</ele>
        <time>2026-05-15T09:18:52+02:00</time>
      </trkpt>
      <trkpt lat="47.09145" lon="5.32647">
        <ele>188.40039</ele>
        <time>2026-05-15T09:18:53+02:00</time>
      </trkpt>
      <trkpt lat="47.09141" lon="5.32653">
        <ele>188.5</ele>
        <time>2026-05-15T09:18:54+02:00</time>
      </trkpt>
      <trkpt lat="47.09137" lon="5.32659">
        <ele>188.60059</ele>
        <time>2026-05-15T09:18:55+02:00</time>
      </trkpt>
      <trkpt lat="47.09134" lon="5.32665">
        <ele>188.60059</ele>
        <time>2026-05-15T09:18:56+02:00</time>
      </trkpt>
      <trkpt lat="47.0913" lon="5.32671">
        <ele>188.60059</ele>
        <time>2026-05-15T09:18:57+02:00</time>
      </trkpt>
      <trkpt lat="47.09126" lon="5.32677">
        <ele>188.7002</ele>
        <time>2026-05-15T09:18:58+02:00</time>
      </trkpt>
      <trkpt lat="47.09122" lon="5.32683">
        <ele>188.60059</ele>
        <time>2026-05-15T09:18:59+02:00</time>
      </trkpt>
      <trkpt lat="47.09118" lon="5.32689">
        <ele>188.60059</ele>
        <time>2026-05-15T09:19:00+02:00</time>
      </trkpt>
      <trkpt lat="47.09113" lon="5.32694">
        <ele>188.5</ele>
        <time>2026-05-15T09:19:01+02:00</time>
      </trkpt>
      <trkpt lat="47.09108" lon="5.32699">
        <ele>188.5</ele>
        <time>2026-05-15T09:19:02+02:00</time>
      </trkpt>
      <trkpt lat="47.09104" lon="5.32703">
        <ele>188.60059</ele>
        <time>2026-05-15T09:19:03+02:00</time>
      </trkpt>
      <trkpt lat="47.09099" lon="5.32708">
        <ele>188.60059</ele>
        <time>2026-05-15T09:19:04+02:00</time>
      </trkpt>
      <trkpt lat="47.09094" lon="5.32712">
        <ele>188.60059</ele>
        <time>2026-05-15T09:19:05+02:00</time>
      </trkpt>
      <trkpt lat="47.09089" lon="5.32716">
        <ele>188.5</ele>
        <time>2026-05-15T09:19:06+02:00</time>
      </trkpt>
      <trkpt lat="47.09084" lon="5.32719">
        <ele>188.5</ele>
        <time>2026-05-15T09:19:07+02:00</time>
      </trkpt>
      <trkpt lat="47.09078" lon="5.32723">
        <ele>188.40039</ele>
        <time>2026-05-15T09:19:08+02:00</time>
      </trkpt>
      <trkpt lat="47.09073" lon="5.32726">
        <ele>188.5</ele>
        <time>2026-05-15T09:19:09+02:00</time>
      </trkpt>
      <trkpt lat="47.09068" lon="5.32729">
        <ele>188.5</ele>
        <time>2026-05-15T09:19:10+02:00</time>
      </trkpt>
      <trkpt lat="47.09063" lon="5.32733">
        <ele>188.5</ele>
        <time>2026-05-15T09:19:11+02:00</time>
      </trkpt>
      <trkpt lat="47.09058" lon="5.32736">
        <ele>188.7002</ele>
        <time>2026-05-15T09:19:12+02:00</time>
      </trkpt>
      <trkpt lat="47.09053" lon="5.3274">
        <ele>188.7002</ele>
        <time>2026-05-15T09:19:13+02:00</time>
      </trkpt>
      <trkpt lat="47.09048" lon="5.32744">
        <ele>188.90039</ele>
        <time>2026-05-15T09:19:14+02:00</time>
      </trkpt>
      <trkpt lat="47.09043" lon="5.32747">
        <ele>188.7998</ele>
        <time>2026-05-15T09:19:15+02:00</time>
      </trkpt>
      <trkpt lat="47.09038" lon="5.32751">
        <ele>188.7002</ele>
        <time>2026-05-15T09:19:16+02:00</time>
      </trkpt>
      <trkpt lat="47.09033" lon="5.32755">
        <ele>188.7998</ele>
        <time>2026-05-15T09:19:17+02:00</time>
      </trkpt>
      <trkpt lat="47.09028" lon="5.32758">
        <ele>188.7002</ele>
        <time>2026-05-15T09:19:18+02:00</time>
      </trkpt>
      <trkpt lat="47.09022" lon="5.32762">
        <ele>188.7998</ele>
        <time>2026-05-15T09:19:19+02:00</time>
      </trkpt>
      <trkpt lat="47.09017" lon="5.32766">
        <ele>188.7998</ele>
        <time>2026-05-15T09:19:20+02:00</time>
      </trkpt>
      <trkpt lat="47.09015" lon="5.32768">
        <ele>188.7002</ele>
        <time>2026-05-15T09:19:21+02:00</time>
      </trkpt>
      <trkpt lat="47.09007" lon="5.32773">
        <ele>188.7998</ele>
        <time>2026-05-15T09:19:22+02:00</time>
      </trkpt>
      <trkpt lat="47.09002" lon="5.32777">
        <ele>189</ele>
        <time>2026-05-15T09:19:23+02:00</time>
      </trkpt>
      <trkpt lat="47.08997" lon="5.32781">
        <ele>188.90039</ele>
        <time>2026-05-15T09:19:24+02:00</time>
      </trkpt>
      <trkpt lat="47.08992" lon="5.32784">
        <ele>188.90039</ele>
        <time>2026-05-15T09:19:25+02:00</time>
      </trkpt>
      <trkpt lat="47.08987" lon="5.32787">
        <ele>189.10059</ele>
        <time>2026-05-15T09:19:26+02:00</time>
      </trkpt>
      <trkpt lat="47.08982" lon="5.3279">
        <ele>189.10059</ele>
        <time>2026-05-15T09:19:27+02:00</time>
      </trkpt>
      <trkpt lat="47.08976" lon="5.32793">
        <ele>189.10059</ele>
        <time>2026-05-15T09:19:28+02:00</time>
      </trkpt>
      <trkpt lat="47.08972" lon="5.32796">
        <ele>189.40039</ele>
        <time>2026-05-15T09:19:29+02:00</time>
      </trkpt>
      <trkpt lat="47.08966" lon="5.32798">
        <ele>189.2998</ele>
        <time>2026-05-15T09:19:30+02:00</time>
      </trkpt>
      <trkpt lat="47.0896" lon="5.328">
        <ele>189.2998</ele>
        <time>2026-05-15T09:19:31+02:00</time>
      </trkpt>
      <trkpt lat="47.08955" lon="5.32802">
        <ele>189.2998</ele>
        <time>2026-05-15T09:19:32+02:00</time>
      </trkpt>
      <trkpt lat="47.08949" lon="5.32804">
        <ele>189.40039</ele>
        <time>2026-05-15T09:19:33+02:00</time>
      </trkpt>
      <trkpt lat="47.08944" lon="5.32806">
        <ele>189.2998</ele>
        <time>2026-05-15T09:19:34+02:00</time>
      </trkpt>
      <trkpt lat="47.08938" lon="5.32808">
        <ele>189.10059</ele>
        <time>2026-05-15T09:19:35+02:00</time>
      </trkpt>
      <trkpt lat="47.08933" lon="5.3281">
        <ele>189</ele>
        <time>2026-05-15T09:19:36+02:00</time>
      </trkpt>
      <trkpt lat="47.08928" lon="5.32813">
        <ele>188.7998</ele>
        <time>2026-05-15T09:19:37+02:00</time>
      </trkpt>
      <trkpt lat="47.08922" lon="5.32815">
        <ele>188.7998</ele>
        <time>2026-05-15T09:19:38+02:00</time>
      </trkpt>
      <trkpt lat="47.08917" lon="5.32818">
        <ele>188.7002</ele>
        <time>2026-05-15T09:19:39+02:00</time>
      </trkpt>
      <trkpt lat="47.08912" lon="5.32821">
        <ele>188.90039</ele>
        <time>2026-05-15T09:19:40+02:00</time>
      </trkpt>
      <trkpt lat="47.08907" lon="5.32824">
        <ele>188.90039</ele>
        <time>2026-05-15T09:19:41+02:00</time>
      </trkpt>
      <trkpt lat="47.08901" lon="5.32828">
        <ele>188.90039</ele>
        <time>2026-05-15T09:19:42+02:00</time>
      </trkpt>
      <trkpt lat="47.08896" lon="5.32833">
        <ele>189.10059</ele>
        <time>2026-05-15T09:19:43+02:00</time>
      </trkpt>
      <trkpt lat="47.08891" lon="5.32838">
        <ele>189.10059</ele>
        <time>2026-05-15T09:19:44+02:00</time>
      </trkpt>
      <trkpt lat="47.08886" lon="5.32843">
        <ele>188.90039</ele>
        <time>2026-05-15T09:19:45+02:00</time>
      </trkpt>
      <trkpt lat="47.08884" lon="5.32846">
        <ele>189</ele>
        <time>2026-05-15T09:19:46+02:00</time>
      </trkpt>
      <trkpt lat="47.08878" lon="5.32855">
        <ele>188.90039</ele>
        <time>2026-05-15T09:19:47+02:00</time>
      </trkpt>
      <trkpt lat="47.08874" lon="5.32862">
        <ele>188.90039</ele>
        <time>2026-05-15T09:19:48+02:00</time>
      </trkpt>
      <trkpt lat="47.0887" lon="5.32868">
        <ele>188.90039</ele>
        <time>2026-05-15T09:19:49+02:00</time>
      </trkpt>
      <trkpt lat="47.08866" lon="5.32875">
        <ele>189</ele>
        <time>2026-05-15T09:19:50+02:00</time>
      </trkpt>
      <trkpt lat="47.08863" lon="5.32883">
        <ele>188.90039</ele>
        <time>2026-05-15T09:19:51+02:00</time>
      </trkpt>
      <trkpt lat="47.08859" lon="5.3289">
        <ele>188.90039</ele>
        <time>2026-05-15T09:19:52+02:00</time>
      </trkpt>
      <trkpt lat="47.08856" lon="5.32897">
        <ele>188.90039</ele>
        <time>2026-05-15T09:19:53+02:00</time>
      </trkpt>
      <trkpt lat="47.08854" lon="5.32901">
        <ele>189.10059</ele>
        <time>2026-05-15T09:19:54+02:00</time>
      </trkpt>
      <trkpt lat="47.08851" lon="5.32912">
        <ele>189.2002</ele>
        <time>2026-05-15T09:19:55+02:00</time>
      </trkpt>
      <trkpt lat="47.08849" lon="5.3292">
        <ele>189.2002</ele>
        <time>2026-05-15T09:19:56+02:00</time>
      </trkpt>
      <trkpt lat="47.08846" lon="5.32928">
        <ele>189</ele>
        <time>2026-05-15T09:19:57+02:00</time>
      </trkpt>
      <trkpt lat="47.08844" lon="5.32936">
        <ele>189</ele>
        <time>2026-05-15T09:19:58+02:00</time>
      </trkpt>
      <trkpt lat="47.08842" lon="5.32944">
        <ele>188.90039</ele>
        <time>2026-05-15T09:19:59+02:00</time>
      </trkpt>
      <trkpt lat="47.08841" lon="5.32952">
        <ele>188.90039</ele>
        <time>2026-05-15T09:20:00+02:00</time>
      </trkpt>
      <trkpt lat="47.0884" lon="5.32961">
        <ele>188.90039</ele>
        <time>2026-05-15T09:20:01+02:00</time>
      </trkpt>
      <trkpt lat="47.08838" lon="5.32969">
        <ele>188.90039</ele>
        <time>2026-05-15T09:20:02+02:00</time>
      </trkpt>
      <trkpt lat="47.08838" lon="5.32978">
        <ele>188.90039</ele>
        <time>2026-05-15T09:20:03+02:00</time>
      </trkpt>
      <trkpt lat="47.08837" lon="5.32987">
        <ele>188.90039</ele>
        <time>2026-05-15T09:20:04+02:00</time>
      </trkpt>
      <trkpt lat="47.08836" lon="5.32996">
        <ele>188.90039</ele>
        <time>2026-05-15T09:20:05+02:00</time>
      </trkpt>
      <trkpt lat="47.08836" lon="5.33004">
        <ele>188.90039</ele>
        <time>2026-05-15T09:20:06+02:00</time>
      </trkpt>
      <trkpt lat="47.08836" lon="5.33012">
        <ele>188.90039</ele>
        <time>2026-05-15T09:20:07+02:00</time>
      </trkpt>
      <trkpt lat="47.08836" lon="5.33021">
        <ele>188.90039</ele>
        <time>2026-05-15T09:20:08+02:00</time>
      </trkpt>
      <trkpt lat="47.08835" lon="5.3303">
        <ele>189</ele>
        <time>2026-05-15T09:20:09+02:00</time>
      </trkpt>
      <trkpt lat="47.08835" lon="5.33038">
        <ele>189</ele>
        <time>2026-05-15T09:20:10+02:00</time>
      </trkpt>
      <trkpt lat="47.08835" lon="5.33047">
        <ele>189</ele>
        <time>2026-05-15T09:20:11+02:00</time>
      </trkpt>
      <trkpt lat="47.08835" lon="5.33056">
        <ele>189.10059</ele>
        <time>2026-05-15T09:20:12+02:00</time>
      </trkpt>
      <trkpt lat="47.08834" lon="5.33065">
        <ele>189.10059</ele>
        <time>2026-05-15T09:20:13+02:00</time>
      </trkpt>
      <trkpt lat="47.08834" lon="5.33074">
        <ele>189.10059</ele>
        <time>2026-05-15T09:20:14+02:00</time>
      </trkpt>
      <trkpt lat="47.08834" lon="5.33082">
        <ele>189.10059</ele>
        <time>2026-05-15T09:20:15+02:00</time>
      </trkpt>
      <trkpt lat="47.08833" lon="5.33091">
        <ele>189.2002</ele>
        <time>2026-05-15T09:20:16+02:00</time>
      </trkpt>
      <trkpt lat="47.08833" lon="5.33099">
        <ele>189.2002</ele>
        <time>2026-05-15T09:20:17+02:00</time>
      </trkpt>
      <trkpt lat="47.08833" lon="5.33108">
        <ele>189.2002</ele>
        <time>2026-05-15T09:20:18+02:00</time>
      </trkpt>
      <trkpt lat="47.08832" lon="5.33116">
        <ele>189.2998</ele>
        <time>2026-05-15T09:20:19+02:00</time>
      </trkpt>
      <trkpt lat="47.08832" lon="5.33125">
        <ele>189.2998</ele>
        <time>2026-05-15T09:20:20+02:00</time>
      </trkpt>
      <trkpt lat="47.08831" lon="5.33134">
        <ele>189.40039</ele>
        <time>2026-05-15T09:20:21+02:00</time>
      </trkpt>
      <trkpt lat="47.08831" lon="5.33142">
        <ele>189.40039</ele>
        <time>2026-05-15T09:20:22+02:00</time>
      </trkpt>
      <trkpt lat="47.0883" lon="5.3315">
        <ele>189.7998</ele>
        <time>2026-05-15T09:20:23+02:00</time>
      </trkpt>
      <trkpt lat="47.0883" lon="5.33159">
        <ele>189.7998</ele>
        <time>2026-05-15T09:20:24+02:00</time>
      </trkpt>
      <trkpt lat="47.08829" lon="5.33167">
        <ele>189.90039</ele>
        <time>2026-05-15T09:20:25+02:00</time>
      </trkpt>
      <trkpt lat="47.08829" lon="5.33176">
        <ele>189.90039</ele>
        <time>2026-05-15T09:20:26+02:00</time>
      </trkpt>
      <trkpt lat="47.08829" lon="5.33184">
        <ele>189.90039</ele>
        <time>2026-05-15T09:20:27+02:00</time>
      </trkpt>
      <trkpt lat="47.08828" lon="5.33193">
        <ele>190</ele>
        <time>2026-05-15T09:20:28+02:00</time>
      </trkpt>
      <trkpt lat="47.08828" lon="5.33201">
        <ele>190</ele>
        <time>2026-05-15T09:20:29+02:00</time>
      </trkpt>
      <trkpt lat="47.08828" lon="5.33209">
        <ele>190</ele>
        <time>2026-05-15T09:20:30+02:00</time>
      </trkpt>
      <trkpt lat="47.08828" lon="5.33217">
        <ele>190</ele>
        <time>2026-05-15T09:20:31+02:00</time>
      </trkpt>
      <trkpt lat="47.08827" lon="5.33226">
        <ele>190</ele>
        <time>2026-05-15T09:20:32+02:00</time>
      </trkpt>
      <trkpt lat="47.08827" lon="5.33234">
        <ele>189.7002</ele>
        <time>2026-05-15T09:20:33+02:00</time>
      </trkpt>
      <trkpt lat="47.08826" lon="5.33242">
        <ele>189.2998</ele>
        <time>2026-05-15T09:20:34+02:00</time>
      </trkpt>
      <trkpt lat="47.08826" lon="5.3325">
        <ele>189.10059</ele>
        <time>2026-05-15T09:20:35+02:00</time>
      </trkpt>
      <trkpt lat="47.08825" lon="5.33258">
        <ele>189</ele>
        <time>2026-05-15T09:20:36+02:00</time>
      </trkpt>
      <trkpt lat="47.08825" lon="5.33266">
        <ele>189</ele>
        <time>2026-05-15T09:20:37+02:00</time>
      </trkpt>
      <trkpt lat="47.08824" lon="5.33274">
        <ele>189</ele>
        <time>2026-05-15T09:20:38+02:00</time>
      </trkpt>
      <trkpt lat="47.08824" lon="5.33282">
        <ele>189</ele>
        <time>2026-05-15T09:20:39+02:00</time>
      </trkpt>
      <trkpt lat="47.08823" lon="5.33291">
        <ele>189.2002</ele>
        <time>2026-05-15T09:20:40+02:00</time>
      </trkpt>
      <trkpt lat="47.08822" lon="5.33299">
        <ele>189.2002</ele>
        <time>2026-05-15T09:20:41+02:00</time>
      </trkpt>
      <trkpt lat="47.08822" lon="5.33307">
        <ele>189.2002</ele>
        <time>2026-05-15T09:20:42+02:00</time>
      </trkpt>
      <trkpt lat="47.08822" lon="5.33316">
        <ele>189.2998</ele>
        <time>2026-05-15T09:20:43+02:00</time>
      </trkpt>
      <trkpt lat="47.08821" lon="5.33324">
        <ele>189.2998</ele>
        <time>2026-05-15T09:20:44+02:00</time>
      </trkpt>
      <trkpt lat="47.08821" lon="5.33333">
        <ele>189.2998</ele>
        <time>2026-05-15T09:20:45+02:00</time>
      </trkpt>
      <trkpt lat="47.0882" lon="5.33341">
        <ele>189.2998</ele>
        <time>2026-05-15T09:20:46+02:00</time>
      </trkpt>
      <trkpt lat="47.0882" lon="5.3335">
        <ele>189.2998</ele>
        <time>2026-05-15T09:20:47+02:00</time>
      </trkpt>
      <trkpt lat="47.08819" lon="5.33359">
        <ele>189.40039</ele>
        <time>2026-05-15T09:20:48+02:00</time>
      </trkpt>
      <trkpt lat="47.08819" lon="5.33367">
        <ele>189.40039</ele>
        <time>2026-05-15T09:20:49+02:00</time>
      </trkpt>
      <trkpt lat="47.08818" lon="5.33376">
        <ele>189.7002</ele>
        <time>2026-05-15T09:20:50+02:00</time>
      </trkpt>
      <trkpt lat="47.08817" lon="5.33384">
        <ele>189.7998</ele>
        <time>2026-05-15T09:20:51+02:00</time>
      </trkpt>
      <trkpt lat="47.08817" lon="5.33393">
        <ele>189.7998</ele>
        <time>2026-05-15T09:20:52+02:00</time>
      </trkpt>
      <trkpt lat="47.08816" lon="5.33402">
        <ele>189.7998</ele>
        <time>2026-05-15T09:20:53+02:00</time>
      </trkpt>
      <trkpt lat="47.08816" lon="5.3341">
        <ele>189.7998</ele>
        <time>2026-05-15T09:20:54+02:00</time>
      </trkpt>
      <trkpt lat="47.08816" lon="5.33419">
        <ele>189.7998</ele>
        <time>2026-05-15T09:20:55+02:00</time>
      </trkpt>
      <trkpt lat="47.08816" lon="5.33428">
        <ele>189.7998</ele>
        <time>2026-05-15T09:20:56+02:00</time>
      </trkpt>
      <trkpt lat="47.08815" lon="5.33436">
        <ele>189.7998</ele>
        <time>2026-05-15T09:20:57+02:00</time>
      </trkpt>
      <trkpt lat="47.08814" lon="5.33445">
        <ele>189.7998</ele>
        <time>2026-05-15T09:20:58+02:00</time>
      </trkpt>
      <trkpt lat="47.08814" lon="5.33454">
        <ele>189.7002</ele>
        <time>2026-05-15T09:20:59+02:00</time>
      </trkpt>
      <trkpt lat="47.08814" lon="5.33462">
        <ele>189.7002</ele>
        <time>2026-05-15T09:21:00+02:00</time>
      </trkpt>
      <trkpt lat="47.08814" lon="5.33471">
        <ele>189.60059</ele>
        <time>2026-05-15T09:21:01+02:00</time>
      </trkpt>
      <trkpt lat="47.08813" lon="5.33475">
        <ele>189.60059</ele>
        <time>2026-05-15T09:21:02+02:00</time>
      </trkpt>
      <trkpt lat="47.08812" lon="5.33487">
        <ele>189.60059</ele>
        <time>2026-05-15T09:21:03+02:00</time>
      </trkpt>
      <trkpt lat="47.08812" lon="5.33496">
        <ele>189.5</ele>
        <time>2026-05-15T09:21:04+02:00</time>
      </trkpt>
      <trkpt lat="47.08811" lon="5.33504">
        <ele>189.40039</ele>
        <time>2026-05-15T09:21:05+02:00</time>
      </trkpt>
      <trkpt lat="47.0881" lon="5.33508">
        <ele>189.2998</ele>
        <time>2026-05-15T09:21:06+02:00</time>
      </trkpt>
      <trkpt lat="47.08809" lon="5.33521">
        <ele>189.2002</ele>
        <time>2026-05-15T09:21:07+02:00</time>
      </trkpt>
      <trkpt lat="47.08808" lon="5.33529">
        <ele>189.10059</ele>
        <time>2026-05-15T09:21:08+02:00</time>
      </trkpt>
      <trkpt lat="47.08807" lon="5.33537">
        <ele>189.10059</ele>
        <time>2026-05-15T09:21:09+02:00</time>
      </trkpt>
      <trkpt lat="47.08805" lon="5.33545">
        <ele>189.10059</ele>
        <time>2026-05-15T09:21:10+02:00</time>
      </trkpt>
      <trkpt lat="47.08803" lon="5.33552">
        <ele>189.10059</ele>
        <time>2026-05-15T09:21:11+02:00</time>
      </trkpt>
      <trkpt lat="47.08801" lon="5.3356">
        <ele>189.10059</ele>
        <time>2026-05-15T09:21:12+02:00</time>
      </trkpt>
      <trkpt lat="47.08798" lon="5.33567">
        <ele>189.10059</ele>
        <time>2026-05-15T09:21:13+02:00</time>
      </trkpt>
      <trkpt lat="47.08796" lon="5.33575">
        <ele>189.10059</ele>
        <time>2026-05-15T09:21:14+02:00</time>
      </trkpt>
      <trkpt lat="47.08793" lon="5.33583">
        <ele>189.10059</ele>
        <time>2026-05-15T09:21:15+02:00</time>
      </trkpt>
      <trkpt lat="47.0879" lon="5.3359">
        <ele>189.10059</ele>
        <time>2026-05-15T09:21:16+02:00</time>
      </trkpt>
      <trkpt lat="47.08788" lon="5.33597">
        <ele>189.2002</ele>
        <time>2026-05-15T09:21:17+02:00</time>
      </trkpt>
      <trkpt lat="47.08785" lon="5.33604">
        <ele>189.40039</ele>
        <time>2026-05-15T09:21:18+02:00</time>
      </trkpt>
      <trkpt lat="47.08782" lon="5.33611">
        <ele>189.60059</ele>
        <time>2026-05-15T09:21:19+02:00</time>
      </trkpt>
      <trkpt lat="47.08779" lon="5.33618">
        <ele>189.7002</ele>
        <time>2026-05-15T09:21:20+02:00</time>
      </trkpt>
      <trkpt lat="47.08776" lon="5.33625">
        <ele>189.60059</ele>
        <time>2026-05-15T09:21:21+02:00</time>
      </trkpt>
      <trkpt lat="47.08774" lon="5.33632">
        <ele>189.60059</ele>
        <time>2026-05-15T09:21:22+02:00</time>
      </trkpt>
      <trkpt lat="47.08771" lon="5.33639">
        <ele>189.5</ele>
        <time>2026-05-15T09:21:23+02:00</time>
      </trkpt>
      <trkpt lat="47.08768" lon="5.33646">
        <ele>189.5</ele>
        <time>2026-05-15T09:21:24+02:00</time>
      </trkpt>
      <trkpt lat="47.08765" lon="5.33653">
        <ele>189.40039</ele>
        <time>2026-05-15T09:21:25+02:00</time>
      </trkpt>
      <trkpt lat="47.08762" lon="5.3366">
        <ele>189.40039</ele>
        <time>2026-05-15T09:21:26+02:00</time>
      </trkpt>
      <trkpt lat="47.08759" lon="5.33667">
        <ele>189.40039</ele>
        <time>2026-05-15T09:21:27+02:00</time>
      </trkpt>
      <trkpt lat="47.08756" lon="5.33674">
        <ele>189.60059</ele>
        <time>2026-05-15T09:21:28+02:00</time>
      </trkpt>
      <trkpt lat="47.08753" lon="5.33681">
        <ele>189.7002</ele>
        <time>2026-05-15T09:21:29+02:00</time>
      </trkpt>
      <trkpt lat="47.0875" lon="5.33689">
        <ele>189.7998</ele>
        <time>2026-05-15T09:21:30+02:00</time>
      </trkpt>
      <trkpt lat="47.08746" lon="5.33696">
        <ele>189.7998</ele>
        <time>2026-05-15T09:21:31+02:00</time>
      </trkpt>
      <trkpt lat="47.08743" lon="5.33703">
        <ele>189.7998</ele>
        <time>2026-05-15T09:21:32+02:00</time>
      </trkpt>
      <trkpt lat="47.0874" lon="5.3371">
        <ele>189.7998</ele>
        <time>2026-05-15T09:21:33+02:00</time>
      </trkpt>
      <trkpt lat="47.08737" lon="5.33717">
        <ele>189.7998</ele>
        <time>2026-05-15T09:21:34+02:00</time>
      </trkpt>
      <trkpt lat="47.08734" lon="5.33724">
        <ele>189.90039</ele>
        <time>2026-05-15T09:21:35+02:00</time>
      </trkpt>
      <trkpt lat="47.08732" lon="5.33732">
        <ele>189.90039</ele>
        <time>2026-05-15T09:21:36+02:00</time>
      </trkpt>
      <trkpt lat="47.08728" lon="5.33739">
        <ele>189.90039</ele>
        <time>2026-05-15T09:21:37+02:00</time>
      </trkpt>
      <trkpt lat="47.08725" lon="5.33746">
        <ele>189.90039</ele>
        <time>2026-05-15T09:21:38+02:00</time>
      </trkpt>
      <trkpt lat="47.08722" lon="5.33753">
        <ele>189.90039</ele>
        <time>2026-05-15T09:21:39+02:00</time>
      </trkpt>
      <trkpt lat="47.08719" lon="5.33761">
        <ele>189.90039</ele>
        <time>2026-05-15T09:21:40+02:00</time>
      </trkpt>
      <trkpt lat="47.08716" lon="5.33769">
        <ele>189.90039</ele>
        <time>2026-05-15T09:21:41+02:00</time>
      </trkpt>
      <trkpt lat="47.08714" lon="5.33777">
        <ele>189.90039</ele>
        <time>2026-05-15T09:21:42+02:00</time>
      </trkpt>
      <trkpt lat="47.08712" lon="5.33785">
        <ele>190</ele>
        <time>2026-05-15T09:21:43+02:00</time>
      </trkpt>
      <trkpt lat="47.0871" lon="5.33793">
        <ele>189.90039</ele>
        <time>2026-05-15T09:21:44+02:00</time>
      </trkpt>
      <trkpt lat="47.08708" lon="5.33801">
        <ele>189.90039</ele>
        <time>2026-05-15T09:21:45+02:00</time>
      </trkpt>
      <trkpt lat="47.08706" lon="5.33809">
        <ele>189.90039</ele>
        <time>2026-05-15T09:21:46+02:00</time>
      </trkpt>
      <trkpt lat="47.08705" lon="5.33817">
        <ele>189.90039</ele>
        <time>2026-05-15T09:21:47+02:00</time>
      </trkpt>
      <trkpt lat="47.08703" lon="5.33826">
        <ele>189.90039</ele>
        <time>2026-05-15T09:21:48+02:00</time>
      </trkpt>
      <trkpt lat="47.08701" lon="5.33834">
        <ele>190</ele>
        <time>2026-05-15T09:21:49+02:00</time>
      </trkpt>
      <trkpt lat="47.087" lon="5.33842">
        <ele>190</ele>
        <time>2026-05-15T09:21:50+02:00</time>
      </trkpt>
      <trkpt lat="47.08698" lon="5.3385">
        <ele>190</ele>
        <time>2026-05-15T09:21:51+02:00</time>
      </trkpt>
      <trkpt lat="47.08697" lon="5.33859">
        <ele>190.10059</ele>
        <time>2026-05-15T09:21:52+02:00</time>
      </trkpt>
      <trkpt lat="47.08696" lon="5.33867">
        <ele>190</ele>
        <time>2026-05-15T09:21:53+02:00</time>
      </trkpt>
      <trkpt lat="47.08694" lon="5.33876">
        <ele>190</ele>
        <time>2026-05-15T09:21:54+02:00</time>
      </trkpt>
      <trkpt lat="47.08693" lon="5.33884">
        <ele>190</ele>
        <time>2026-05-15T09:21:55+02:00</time>
      </trkpt>
      <trkpt lat="47.08691" lon="5.33892">
        <ele>190</ele>
        <time>2026-05-15T09:21:56+02:00</time>
      </trkpt>
      <trkpt lat="47.0869" lon="5.339">
        <ele>189.90039</ele>
        <time>2026-05-15T09:21:57+02:00</time>
      </trkpt>
      <trkpt lat="47.08689" lon="5.33904">
        <ele>190.10059</ele>
        <time>2026-05-15T09:21:58+02:00</time>
      </trkpt>
      <trkpt lat="47.08687" lon="5.33917">
        <ele>190.10059</ele>
        <time>2026-05-15T09:21:59+02:00</time>
      </trkpt>
      <trkpt lat="47.08685" lon="5.33925">
        <ele>190</ele>
        <time>2026-05-15T09:22:00+02:00</time>
      </trkpt>
      <trkpt lat="47.08684" lon="5.33933">
        <ele>190</ele>
        <time>2026-05-15T09:22:01+02:00</time>
      </trkpt>
      <trkpt lat="47.08683" lon="5.33941">
        <ele>190.10059</ele>
        <time>2026-05-15T09:22:02+02:00</time>
      </trkpt>
      <trkpt lat="47.08681" lon="5.3395">
        <ele>190</ele>
        <time>2026-05-15T09:22:03+02:00</time>
      </trkpt>
      <trkpt lat="47.0868" lon="5.33958">
        <ele>189.90039</ele>
        <time>2026-05-15T09:22:04+02:00</time>
      </trkpt>
      <trkpt lat="47.08679" lon="5.33966">
        <ele>189.7998</ele>
        <time>2026-05-15T09:22:05+02:00</time>
      </trkpt>
      <trkpt lat="47.08677" lon="5.33975">
        <ele>190</ele>
        <time>2026-05-15T09:22:06+02:00</time>
      </trkpt>
      <trkpt lat="47.08676" lon="5.33983">
        <ele>190</ele>
        <time>2026-05-15T09:22:07+02:00</time>
      </trkpt>
      <trkpt lat="47.08674" lon="5.33991">
        <ele>190</ele>
        <time>2026-05-15T09:22:08+02:00</time>
      </trkpt>
      <trkpt lat="47.08672" lon="5.34">
        <ele>190.2002</ele>
        <time>2026-05-15T09:22:09+02:00</time>
      </trkpt>
      <trkpt lat="47.08672" lon="5.34004">
        <ele>190.2002</ele>
        <time>2026-05-15T09:22:10+02:00</time>
      </trkpt>
      <trkpt lat="47.0867" lon="5.34016">
        <ele>190.2998</ele>
        <time>2026-05-15T09:22:11+02:00</time>
      </trkpt>
      <trkpt lat="47.08668" lon="5.34025">
        <ele>190.2998</ele>
        <time>2026-05-15T09:22:12+02:00</time>
      </trkpt>
      <trkpt lat="47.08667" lon="5.34033">
        <ele>190.2998</ele>
        <time>2026-05-15T09:22:13+02:00</time>
      </trkpt>
      <trkpt lat="47.08666" lon="5.34037">
        <ele>190.60059</ele>
        <time>2026-05-15T09:22:14+02:00</time>
      </trkpt>
      <trkpt lat="47.08664" lon="5.34049">
        <ele>190.10059</ele>
        <time>2026-05-15T09:22:15+02:00</time>
      </trkpt>
      <trkpt lat="47.08663" lon="5.34057">
        <ele>189.90039</ele>
        <time>2026-05-15T09:22:16+02:00</time>
      </trkpt>
      <trkpt lat="47.08661" lon="5.34065">
        <ele>189.7998</ele>
        <time>2026-05-15T09:22:17+02:00</time>
      </trkpt>
      <trkpt lat="47.0866" lon="5.34073">
        <ele>189.90039</ele>
        <time>2026-05-15T09:22:18+02:00</time>
      </trkpt>
      <trkpt lat="47.08659" lon="5.34082">
        <ele>189.90039</ele>
        <time>2026-05-15T09:22:19+02:00</time>
      </trkpt>
      <trkpt lat="47.08657" lon="5.3409">
        <ele>189.90039</ele>
        <time>2026-05-15T09:22:20+02:00</time>
      </trkpt>
      <trkpt lat="47.08656" lon="5.34098">
        <ele>189.90039</ele>
        <time>2026-05-15T09:22:21+02:00</time>
      </trkpt>
      <trkpt lat="47.08654" lon="5.34106">
        <ele>190.10059</ele>
        <time>2026-05-15T09:22:22+02:00</time>
      </trkpt>
      <trkpt lat="47.08653" lon="5.34115">
        <ele>190.10059</ele>
        <time>2026-05-15T09:22:23+02:00</time>
      </trkpt>
      <trkpt lat="47.08651" lon="5.34123">
        <ele>190.10059</ele>
        <time>2026-05-15T09:22:24+02:00</time>
      </trkpt>
      <trkpt lat="47.0865" lon="5.34131">
        <ele>190.10059</ele>
        <time>2026-05-15T09:22:25+02:00</time>
      </trkpt>
      <trkpt lat="47.08648" lon="5.34139">
        <ele>190.2002</ele>
        <time>2026-05-15T09:22:26+02:00</time>
      </trkpt>
      <trkpt lat="47.08647" lon="5.34148">
        <ele>190</ele>
        <time>2026-05-15T09:22:27+02:00</time>
      </trkpt>
      <trkpt lat="47.08646" lon="5.34156">
        <ele>189.90039</ele>
        <time>2026-05-15T09:22:28+02:00</time>
      </trkpt>
      <trkpt lat="47.08644" lon="5.34164">
        <ele>189.7998</ele>
        <time>2026-05-15T09:22:29+02:00</time>
      </trkpt>
      <trkpt lat="47.08643" lon="5.34172">
        <ele>189.7998</ele>
        <time>2026-05-15T09:22:30+02:00</time>
      </trkpt>
      <trkpt lat="47.08642" lon="5.34176">
        <ele>189.90039</ele>
        <time>2026-05-15T09:22:31+02:00</time>
      </trkpt>
      <trkpt lat="47.0864" lon="5.34188">
        <ele>189.90039</ele>
        <time>2026-05-15T09:22:32+02:00</time>
      </trkpt>
      <trkpt lat="47.08639" lon="5.34196">
        <ele>189.90039</ele>
        <time>2026-05-15T09:22:33+02:00</time>
      </trkpt>
      <trkpt lat="47.08638" lon="5.34204">
        <ele>189.7998</ele>
        <time>2026-05-15T09:22:34+02:00</time>
      </trkpt>
      <trkpt lat="47.08637" lon="5.34213">
        <ele>190</ele>
        <time>2026-05-15T09:22:35+02:00</time>
      </trkpt>
      <trkpt lat="47.08635" lon="5.34221">
        <ele>190</ele>
        <time>2026-05-15T09:22:36+02:00</time>
      </trkpt>
      <trkpt lat="47.08634" lon="5.34229">
        <ele>189.90039</ele>
        <time>2026-05-15T09:22:37+02:00</time>
      </trkpt>
      <trkpt lat="47.08632" lon="5.34237">
        <ele>189.90039</ele>
        <time>2026-05-15T09:22:38+02:00</time>
      </trkpt>
      <trkpt lat="47.08632" lon="5.34242">
        <ele>189.90039</ele>
        <time>2026-05-15T09:22:39+02:00</time>
      </trkpt>
      <trkpt lat="47.08629" lon="5.34254">
        <ele>189.90039</ele>
        <time>2026-05-15T09:22:40+02:00</time>
      </trkpt>
      <trkpt lat="47.08627" lon="5.34262">
        <ele>189.7998</ele>
        <time>2026-05-15T09:22:41+02:00</time>
      </trkpt>
      <trkpt lat="47.08624" lon="5.34269">
        <ele>189.7998</ele>
        <time>2026-05-15T09:22:42+02:00</time>
      </trkpt>
      <trkpt lat="47.08622" lon="5.34277">
        <ele>189.7998</ele>
        <time>2026-05-15T09:22:43+02:00</time>
      </trkpt>
      <trkpt lat="47.08619" lon="5.34285">
        <ele>189.7002</ele>
        <time>2026-05-15T09:22:44+02:00</time>
      </trkpt>
      <trkpt lat="47.08617" lon="5.34293">
        <ele>189.7002</ele>
        <time>2026-05-15T09:22:45+02:00</time>
      </trkpt>
      <trkpt lat="47.08617" lon="5.34302">
        <ele>189.7002</ele>
        <time>2026-05-15T09:22:46+02:00</time>
      </trkpt>
      <trkpt lat="47.08617" lon="5.3431">
        <ele>189.7002</ele>
        <time>2026-05-15T09:22:47+02:00</time>
      </trkpt>
      <trkpt lat="47.08617" lon="5.34319">
        <ele>189.60059</ele>
        <time>2026-05-15T09:22:48+02:00</time>
      </trkpt>
      <trkpt lat="47.08617" lon="5.34328">
        <ele>189.60059</ele>
        <time>2026-05-15T09:22:49+02:00</time>
      </trkpt>
      <trkpt lat="47.08617" lon="5.34337">
        <ele>189.5</ele>
        <time>2026-05-15T09:22:50+02:00</time>
      </trkpt>
      <trkpt lat="47.08615" lon="5.34345">
        <ele>189.40039</ele>
        <time>2026-05-15T09:22:51+02:00</time>
      </trkpt>
      <trkpt lat="47.08614" lon="5.34353">
        <ele>189.40039</ele>
        <time>2026-05-15T09:22:52+02:00</time>
      </trkpt>
      <trkpt lat="47.08612" lon="5.34362">
        <ele>189.10059</ele>
        <time>2026-05-15T09:22:53+02:00</time>
      </trkpt>
      <trkpt lat="47.0861" lon="5.3437">
        <ele>189</ele>
        <time>2026-05-15T09:22:54+02:00</time>
      </trkpt>
      <trkpt lat="47.08608" lon="5.34378">
        <ele>188.7998</ele>
        <time>2026-05-15T09:22:55+02:00</time>
      </trkpt>
      <trkpt lat="47.08606" lon="5.34387">
        <ele>188.7002</ele>
        <time>2026-05-15T09:22:56+02:00</time>
      </trkpt>
      <trkpt lat="47.08605" lon="5.34395">
        <ele>188.60059</ele>
        <time>2026-05-15T09:22:57+02:00</time>
      </trkpt>
      <trkpt lat="47.08603" lon="5.34403">
        <ele>188.5</ele>
        <time>2026-05-15T09:22:58+02:00</time>
      </trkpt>
      <trkpt lat="47.08602" lon="5.34412">
        <ele>188.5</ele>
        <time>2026-05-15T09:22:59+02:00</time>
      </trkpt>
      <trkpt lat="47.086" lon="5.3442">
        <ele>188.40039</ele>
        <time>2026-05-15T09:23:00+02:00</time>
      </trkpt>
      <trkpt lat="47.08598" lon="5.34428">
        <ele>188.40039</ele>
        <time>2026-05-15T09:23:01+02:00</time>
      </trkpt>
      <trkpt lat="47.08597" lon="5.34436">
        <ele>188.40039</ele>
        <time>2026-05-15T09:23:02+02:00</time>
      </trkpt>
      <trkpt lat="47.08595" lon="5.34444">
        <ele>188.2002</ele>
        <time>2026-05-15T09:23:03+02:00</time>
      </trkpt>
      <trkpt lat="47.08594" lon="5.34452">
        <ele>188.2002</ele>
        <time>2026-05-15T09:23:04+02:00</time>
      </trkpt>
      <trkpt lat="47.08592" lon="5.3446">
        <ele>188.2002</ele>
        <time>2026-05-15T09:23:05+02:00</time>
      </trkpt>
      <trkpt lat="47.0859" lon="5.34469">
        <ele>188.2002</ele>
        <time>2026-05-15T09:23:06+02:00</time>
      </trkpt>
      <trkpt lat="47.08589" lon="5.34477">
        <ele>188.2002</ele>
        <time>2026-05-15T09:23:07+02:00</time>
      </trkpt>
      <trkpt lat="47.08587" lon="5.34485">
        <ele>188.2998</ele>
        <time>2026-05-15T09:23:08+02:00</time>
      </trkpt>
      <trkpt lat="47.08585" lon="5.34493">
        <ele>188.2998</ele>
        <time>2026-05-15T09:23:09+02:00</time>
      </trkpt>
      <trkpt lat="47.08584" lon="5.34502">
        <ele>188.40039</ele>
        <time>2026-05-15T09:23:10+02:00</time>
      </trkpt>
      <trkpt lat="47.08583" lon="5.3451">
        <ele>188.40039</ele>
        <time>2026-05-15T09:23:11+02:00</time>
      </trkpt>
      <trkpt lat="47.08582" lon="5.34518">
        <ele>188.5</ele>
        <time>2026-05-15T09:23:12+02:00</time>
      </trkpt>
      <trkpt lat="47.0858" lon="5.34527">
        <ele>188.60059</ele>
        <time>2026-05-15T09:23:13+02:00</time>
      </trkpt>
      <trkpt lat="47.08578" lon="5.34535">
        <ele>188.60059</ele>
        <time>2026-05-15T09:23:14+02:00</time>
      </trkpt>
      <trkpt lat="47.08577" lon="5.34543">
        <ele>188.60059</ele>
        <time>2026-05-15T09:23:15+02:00</time>
      </trkpt>
      <trkpt lat="47.08576" lon="5.34552">
        <ele>188.7002</ele>
        <time>2026-05-15T09:23:16+02:00</time>
      </trkpt>
      <trkpt lat="47.08574" lon="5.3456">
        <ele>188.7002</ele>
        <time>2026-05-15T09:23:17+02:00</time>
      </trkpt>
      <trkpt lat="47.08573" lon="5.34569">
        <ele>188.7998</ele>
        <time>2026-05-15T09:23:18+02:00</time>
      </trkpt>
      <trkpt lat="47.08571" lon="5.34577">
        <ele>188.7002</ele>
        <time>2026-05-15T09:23:19+02:00</time>
      </trkpt>
      <trkpt lat="47.08569" lon="5.34585">
        <ele>188.7002</ele>
        <time>2026-05-15T09:23:20+02:00</time>
      </trkpt>
      <trkpt lat="47.08568" lon="5.34594">
        <ele>188.7002</ele>
        <time>2026-05-15T09:23:21+02:00</time>
      </trkpt>
      <trkpt lat="47.08566" lon="5.34602">
        <ele>188.60059</ele>
        <time>2026-05-15T09:23:22+02:00</time>
      </trkpt>
      <trkpt lat="47.08565" lon="5.34611">
        <ele>188.5</ele>
        <time>2026-05-15T09:23:23+02:00</time>
      </trkpt>
      <trkpt lat="47.08564" lon="5.3462">
        <ele>188.5</ele>
        <time>2026-05-15T09:23:24+02:00</time>
      </trkpt>
      <trkpt lat="47.08562" lon="5.34628">
        <ele>188.40039</ele>
        <time>2026-05-15T09:23:25+02:00</time>
      </trkpt>
      <trkpt lat="47.08561" lon="5.34637">
        <ele>188.40039</ele>
        <time>2026-05-15T09:23:26+02:00</time>
      </trkpt>
      <trkpt lat="47.08559" lon="5.34645">
        <ele>188.2998</ele>
        <time>2026-05-15T09:23:27+02:00</time>
      </trkpt>
      <trkpt lat="47.08557" lon="5.34653">
        <ele>188.2998</ele>
        <time>2026-05-15T09:23:28+02:00</time>
      </trkpt>
      <trkpt lat="47.08556" lon="5.34662">
        <ele>188.2998</ele>
        <time>2026-05-15T09:23:29+02:00</time>
      </trkpt>
      <trkpt lat="47.08555" lon="5.3467">
        <ele>188.2002</ele>
        <time>2026-05-15T09:23:30+02:00</time>
      </trkpt>
      <trkpt lat="47.08553" lon="5.34678">
        <ele>188.2998</ele>
        <time>2026-05-15T09:23:31+02:00</time>
      </trkpt>
      <trkpt lat="47.08552" lon="5.34686">
        <ele>188.40039</ele>
        <time>2026-05-15T09:23:32+02:00</time>
      </trkpt>
      <trkpt lat="47.0855" lon="5.34694">
        <ele>188.5</ele>
        <time>2026-05-15T09:23:33+02:00</time>
      </trkpt>
      <trkpt lat="47.08549" lon="5.34703">
        <ele>188.60059</ele>
        <time>2026-05-15T09:23:34+02:00</time>
      </trkpt>
      <trkpt lat="47.08548" lon="5.34711">
        <ele>188.7002</ele>
        <time>2026-05-15T09:23:35+02:00</time>
      </trkpt>
      <trkpt lat="47.08547" lon="5.34719">
        <ele>188.7998</ele>
        <time>2026-05-15T09:23:36+02:00</time>
      </trkpt>
      <trkpt lat="47.08545" lon="5.34727">
        <ele>188.90039</ele>
        <time>2026-05-15T09:23:37+02:00</time>
      </trkpt>
      <trkpt lat="47.08544" lon="5.34735">
        <ele>189</ele>
        <time>2026-05-15T09:23:38+02:00</time>
      </trkpt>
      <trkpt lat="47.08542" lon="5.34743">
        <ele>189</ele>
        <time>2026-05-15T09:23:39+02:00</time>
      </trkpt>
      <trkpt lat="47.08541" lon="5.34752">
        <ele>189.10059</ele>
        <time>2026-05-15T09:23:40+02:00</time>
      </trkpt>
      <trkpt lat="47.0854" lon="5.3476">
        <ele>189.2002</ele>
        <time>2026-05-15T09:23:41+02:00</time>
      </trkpt>
      <trkpt lat="47.08538" lon="5.34768">
        <ele>189.2002</ele>
        <time>2026-05-15T09:23:42+02:00</time>
      </trkpt>
      <trkpt lat="47.08537" lon="5.34776">
        <ele>189.2998</ele>
        <time>2026-05-15T09:23:43+02:00</time>
      </trkpt>
      <trkpt lat="47.08535" lon="5.34784">
        <ele>189.2998</ele>
        <time>2026-05-15T09:23:44+02:00</time>
      </trkpt>
      <trkpt lat="47.08534" lon="5.34792">
        <ele>189.40039</ele>
        <time>2026-05-15T09:23:45+02:00</time>
      </trkpt>
      <trkpt lat="47.08532" lon="5.348">
        <ele>189.5</ele>
        <time>2026-05-15T09:23:46+02:00</time>
      </trkpt>
      <trkpt lat="47.08531" lon="5.34809">
        <ele>189.60059</ele>
        <time>2026-05-15T09:23:47+02:00</time>
      </trkpt>
      <trkpt lat="47.08529" lon="5.34817">
        <ele>189.7002</ele>
        <time>2026-05-15T09:23:48+02:00</time>
      </trkpt>
      <trkpt lat="47.08528" lon="5.34825">
        <ele>189.7998</ele>
        <time>2026-05-15T09:23:49+02:00</time>
      </trkpt>
      <trkpt lat="47.08526" lon="5.34834">
        <ele>189.90039</ele>
        <time>2026-05-15T09:23:50+02:00</time>
      </trkpt>
      <trkpt lat="47.08524" lon="5.34842">
        <ele>189.90039</ele>
        <time>2026-05-15T09:23:51+02:00</time>
      </trkpt>
      <trkpt lat="47.08523" lon="5.3485">
        <ele>189.90039</ele>
        <time>2026-05-15T09:23:52+02:00</time>
      </trkpt>
      <trkpt lat="47.08521" lon="5.34858">
        <ele>189.7998</ele>
        <time>2026-05-15T09:23:53+02:00</time>
      </trkpt>
      <trkpt lat="47.0852" lon="5.34867">
        <ele>189.7998</ele>
        <time>2026-05-15T09:23:54+02:00</time>
      </trkpt>
      <trkpt lat="47.08518" lon="5.34875">
        <ele>189.7998</ele>
        <time>2026-05-15T09:23:55+02:00</time>
      </trkpt>
      <trkpt lat="47.08517" lon="5.34883">
        <ele>189.7998</ele>
        <time>2026-05-15T09:23:56+02:00</time>
      </trkpt>
      <trkpt lat="47.08515" lon="5.34891">
        <ele>189.7998</ele>
        <time>2026-05-15T09:23:57+02:00</time>
      </trkpt>
      <trkpt lat="47.08514" lon="5.349">
        <ele>189.90039</ele>
        <time>2026-05-15T09:23:58+02:00</time>
      </trkpt>
      <trkpt lat="47.08512" lon="5.34908">
        <ele>189.90039</ele>
        <time>2026-05-15T09:23:59+02:00</time>
      </trkpt>
      <trkpt lat="47.08511" lon="5.34916">
        <ele>189.90039</ele>
        <time>2026-05-15T09:24:00+02:00</time>
      </trkpt>
      <trkpt lat="47.0851" lon="5.34925">
        <ele>189.7998</ele>
        <time>2026-05-15T09:24:01+02:00</time>
      </trkpt>
      <trkpt lat="47.08508" lon="5.34933">
        <ele>189.7998</ele>
        <time>2026-05-15T09:24:02+02:00</time>
      </trkpt>
      <trkpt lat="47.08506" lon="5.34941">
        <ele>189.90039</ele>
        <time>2026-05-15T09:24:03+02:00</time>
      </trkpt>
      <trkpt lat="47.08505" lon="5.3495">
        <ele>190</ele>
        <time>2026-05-15T09:24:04+02:00</time>
      </trkpt>
      <trkpt lat="47.08503" lon="5.34958">
        <ele>190</ele>
        <time>2026-05-15T09:24:05+02:00</time>
      </trkpt>
      <trkpt lat="47.08502" lon="5.34967">
        <ele>190</ele>
        <time>2026-05-15T09:24:06+02:00</time>
      </trkpt>
      <trkpt lat="47.08501" lon="5.34975">
        <ele>190</ele>
        <time>2026-05-15T09:24:07+02:00</time>
      </trkpt>
      <trkpt lat="47.08499" lon="5.34983">
        <ele>190</ele>
        <time>2026-05-15T09:24:08+02:00</time>
      </trkpt>
      <trkpt lat="47.08498" lon="5.34992">
        <ele>190</ele>
        <time>2026-05-15T09:24:09+02:00</time>
      </trkpt>
      <trkpt lat="47.08497" lon="5.35">
        <ele>190</ele>
        <time>2026-05-15T09:24:10+02:00</time>
      </trkpt>
      <trkpt lat="47.08495" lon="5.35008">
        <ele>190</ele>
        <time>2026-05-15T09:24:11+02:00</time>
      </trkpt>
      <trkpt lat="47.08495" lon="5.35017">
        <ele>190</ele>
        <time>2026-05-15T09:24:12+02:00</time>
      </trkpt>
      <trkpt lat="47.08493" lon="5.35025">
        <ele>190</ele>
        <time>2026-05-15T09:24:13+02:00</time>
      </trkpt>
      <trkpt lat="47.08492" lon="5.35033">
        <ele>190</ele>
        <time>2026-05-15T09:24:14+02:00</time>
      </trkpt>
      <trkpt lat="47.0849" lon="5.35041">
        <ele>190</ele>
        <time>2026-05-15T09:24:15+02:00</time>
      </trkpt>
      <trkpt lat="47.08489" lon="5.35049">
        <ele>190.10059</ele>
        <time>2026-05-15T09:24:16+02:00</time>
      </trkpt>
      <trkpt lat="47.08487" lon="5.35058">
        <ele>190.10059</ele>
        <time>2026-05-15T09:24:17+02:00</time>
      </trkpt>
      <trkpt lat="47.08486" lon="5.35066">
        <ele>190.2002</ele>
        <time>2026-05-15T09:24:18+02:00</time>
      </trkpt>
      <trkpt lat="47.08484" lon="5.35074">
        <ele>190.10059</ele>
        <time>2026-05-15T09:24:19+02:00</time>
      </trkpt>
      <trkpt lat="47.08482" lon="5.35082">
        <ele>190.10059</ele>
        <time>2026-05-15T09:24:20+02:00</time>
      </trkpt>
      <trkpt lat="47.08481" lon="5.35091">
        <ele>190.10059</ele>
        <time>2026-05-15T09:24:21+02:00</time>
      </trkpt>
      <trkpt lat="47.08479" lon="5.35099">
        <ele>190</ele>
        <time>2026-05-15T09:24:22+02:00</time>
      </trkpt>
      <trkpt lat="47.08478" lon="5.35107">
        <ele>190</ele>
        <time>2026-05-15T09:24:23+02:00</time>
      </trkpt>
      <trkpt lat="47.08476" lon="5.35116">
        <ele>190</ele>
        <time>2026-05-15T09:24:24+02:00</time>
      </trkpt>
      <trkpt lat="47.08475" lon="5.35124">
        <ele>190</ele>
        <time>2026-05-15T09:24:25+02:00</time>
      </trkpt>
      <trkpt lat="47.08474" lon="5.35132">
        <ele>190</ele>
        <time>2026-05-15T09:24:26+02:00</time>
      </trkpt>
      <trkpt lat="47.08472" lon="5.35141">
        <ele>190</ele>
        <time>2026-05-15T09:24:27+02:00</time>
      </trkpt>
      <trkpt lat="47.08471" lon="5.35149">
        <ele>190</ele>
        <time>2026-05-15T09:24:28+02:00</time>
      </trkpt>
      <trkpt lat="47.08469" lon="5.35157">
        <ele>190</ele>
        <time>2026-05-15T09:24:29+02:00</time>
      </trkpt>
      <trkpt lat="47.08468" lon="5.35166">
        <ele>190</ele>
        <time>2026-05-15T09:24:30+02:00</time>
      </trkpt>
      <trkpt lat="47.08467" lon="5.35174">
        <ele>189.90039</ele>
        <time>2026-05-15T09:24:31+02:00</time>
      </trkpt>
      <trkpt lat="47.08465" lon="5.35182">
        <ele>189.7998</ele>
        <time>2026-05-15T09:24:32+02:00</time>
      </trkpt>
      <trkpt lat="47.08464" lon="5.35191">
        <ele>189.7002</ele>
        <time>2026-05-15T09:24:33+02:00</time>
      </trkpt>
      <trkpt lat="47.08463" lon="5.35199">
        <ele>189.60059</ele>
        <time>2026-05-15T09:24:34+02:00</time>
      </trkpt>
      <trkpt lat="47.08462" lon="5.35208">
        <ele>189.5</ele>
        <time>2026-05-15T09:24:35+02:00</time>
      </trkpt>
      <trkpt lat="47.0846" lon="5.35216">
        <ele>189.2998</ele>
        <time>2026-05-15T09:24:36+02:00</time>
      </trkpt>
      <trkpt lat="47.08459" lon="5.35224">
        <ele>189.2002</ele>
        <time>2026-05-15T09:24:37+02:00</time>
      </trkpt>
      <trkpt lat="47.08458" lon="5.35233">
        <ele>189.2002</ele>
        <time>2026-05-15T09:24:38+02:00</time>
      </trkpt>
      <trkpt lat="47.08456" lon="5.35241">
        <ele>189.10059</ele>
        <time>2026-05-15T09:24:39+02:00</time>
      </trkpt>
      <trkpt lat="47.08454" lon="5.35249">
        <ele>189.10059</ele>
        <time>2026-05-15T09:24:40+02:00</time>
      </trkpt>
      <trkpt lat="47.08452" lon="5.35257">
        <ele>189.10059</ele>
        <time>2026-05-15T09:24:41+02:00</time>
      </trkpt>
      <trkpt lat="47.08451" lon="5.35266">
        <ele>189</ele>
        <time>2026-05-15T09:24:42+02:00</time>
      </trkpt>
      <trkpt lat="47.0845" lon="5.35274">
        <ele>189</ele>
        <time>2026-05-15T09:24:43+02:00</time>
      </trkpt>
      <trkpt lat="47.08448" lon="5.35282">
        <ele>189</ele>
        <time>2026-05-15T09:24:44+02:00</time>
      </trkpt>
      <trkpt lat="47.08446" lon="5.3529">
        <ele>189</ele>
        <time>2026-05-15T09:24:45+02:00</time>
      </trkpt>
      <trkpt lat="47.08445" lon="5.35298">
        <ele>189</ele>
        <time>2026-05-15T09:24:46+02:00</time>
      </trkpt>
      <trkpt lat="47.08444" lon="5.35306">
        <ele>189</ele>
        <time>2026-05-15T09:24:47+02:00</time>
      </trkpt>
      <trkpt lat="47.08442" lon="5.35314">
        <ele>189</ele>
        <time>2026-05-15T09:24:48+02:00</time>
      </trkpt>
      <trkpt lat="47.08441" lon="5.35322">
        <ele>189</ele>
        <time>2026-05-15T09:24:49+02:00</time>
      </trkpt>
      <trkpt lat="47.08439" lon="5.35331">
        <ele>189</ele>
        <time>2026-05-15T09:24:50+02:00</time>
      </trkpt>
      <trkpt lat="47.08437" lon="5.35339">
        <ele>189.2002</ele>
        <time>2026-05-15T09:24:51+02:00</time>
      </trkpt>
      <trkpt lat="47.08436" lon="5.35347">
        <ele>189.2002</ele>
        <time>2026-05-15T09:24:52+02:00</time>
      </trkpt>
      <trkpt lat="47.08435" lon="5.35355">
        <ele>189.2998</ele>
        <time>2026-05-15T09:24:53+02:00</time>
      </trkpt>
      <trkpt lat="47.08433" lon="5.35363">
        <ele>189.2998</ele>
        <time>2026-05-15T09:24:54+02:00</time>
      </trkpt>
      <trkpt lat="47.08432" lon="5.35371">
        <ele>189.40039</ele>
        <time>2026-05-15T09:24:55+02:00</time>
      </trkpt>
      <trkpt lat="47.0843" lon="5.35379">
        <ele>189.40039</ele>
        <time>2026-05-15T09:24:56+02:00</time>
      </trkpt>
      <trkpt lat="47.08429" lon="5.35387">
        <ele>189.40039</ele>
        <time>2026-05-15T09:24:57+02:00</time>
      </trkpt>
      <trkpt lat="47.08428" lon="5.35395">
        <ele>189.40039</ele>
        <time>2026-05-15T09:24:58+02:00</time>
      </trkpt>
      <trkpt lat="47.08426" lon="5.35404">
        <ele>189.40039</ele>
        <time>2026-05-15T09:24:59+02:00</time>
      </trkpt>
      <trkpt lat="47.08424" lon="5.35411">
        <ele>189.40039</ele>
        <time>2026-05-15T09:25:00+02:00</time>
      </trkpt>
      <trkpt lat="47.08423" lon="5.3542">
        <ele>189.40039</ele>
        <time>2026-05-15T09:25:01+02:00</time>
      </trkpt>
      <trkpt lat="47.08421" lon="5.35428">
        <ele>189.2998</ele>
        <time>2026-05-15T09:25:02+02:00</time>
      </trkpt>
      <trkpt lat="47.0842" lon="5.35437">
        <ele>189.2998</ele>
        <time>2026-05-15T09:25:03+02:00</time>
      </trkpt>
      <trkpt lat="47.08419" lon="5.35445">
        <ele>189.2002</ele>
        <time>2026-05-15T09:25:04+02:00</time>
      </trkpt>
      <trkpt lat="47.08417" lon="5.35454">
        <ele>189.10059</ele>
        <time>2026-05-15T09:25:05+02:00</time>
      </trkpt>
      <trkpt lat="47.08416" lon="5.35462">
        <ele>189.10059</ele>
        <time>2026-05-15T09:25:06+02:00</time>
      </trkpt>
      <trkpt lat="47.08414" lon="5.35471">
        <ele>189.10059</ele>
        <time>2026-05-15T09:25:07+02:00</time>
      </trkpt>
      <trkpt lat="47.08413" lon="5.35479">
        <ele>189</ele>
        <time>2026-05-15T09:25:08+02:00</time>
      </trkpt>
      <trkpt lat="47.08412" lon="5.35488">
        <ele>188.90039</ele>
        <time>2026-05-15T09:25:09+02:00</time>
      </trkpt>
      <trkpt lat="47.0841" lon="5.35496">
        <ele>188.90039</ele>
        <time>2026-05-15T09:25:10+02:00</time>
      </trkpt>
      <trkpt lat="47.08408" lon="5.35505">
        <ele>188.90039</ele>
        <time>2026-05-15T09:25:11+02:00</time>
      </trkpt>
      <trkpt lat="47.08407" lon="5.35513">
        <ele>188.90039</ele>
        <time>2026-05-15T09:25:12+02:00</time>
      </trkpt>
      <trkpt lat="47.08405" lon="5.35522">
        <ele>188.90039</ele>
        <time>2026-05-15T09:25:13+02:00</time>
      </trkpt>
      <trkpt lat="47.08404" lon="5.35531">
        <ele>188.90039</ele>
        <time>2026-05-15T09:25:14+02:00</time>
      </trkpt>
      <trkpt lat="47.08403" lon="5.35539">
        <ele>188.7998</ele>
        <time>2026-05-15T09:25:15+02:00</time>
      </trkpt>
      <trkpt lat="47.08401" lon="5.35548">
        <ele>188.7998</ele>
        <time>2026-05-15T09:25:16+02:00</time>
      </trkpt>
      <trkpt lat="47.084" lon="5.35557">
        <ele>188.7998</ele>
        <time>2026-05-15T09:25:17+02:00</time>
      </trkpt>
      <trkpt lat="47.08399" lon="5.35565">
        <ele>188.90039</ele>
        <time>2026-05-15T09:25:18+02:00</time>
      </trkpt>
      <trkpt lat="47.08397" lon="5.35574">
        <ele>188.7998</ele>
        <time>2026-05-15T09:25:19+02:00</time>
      </trkpt>
      <trkpt lat="47.08396" lon="5.35578">
        <ele>188.7998</ele>
        <time>2026-05-15T09:25:20+02:00</time>
      </trkpt>
      <trkpt lat="47.08394" lon="5.35589">
        <ele>188.7998</ele>
        <time>2026-05-15T09:25:21+02:00</time>
      </trkpt>
      <trkpt lat="47.08393" lon="5.35596">
        <ele>188.7998</ele>
        <time>2026-05-15T09:25:22+02:00</time>
      </trkpt>
      <trkpt lat="47.08393" lon="5.35602">
        <ele>188.7998</ele>
        <time>2026-05-15T09:25:23+02:00</time>
      </trkpt>
      <trkpt lat="47.08393" lon="5.35607">
        <ele>188.7998</ele>
        <time>2026-05-15T09:25:24+02:00</time>
      </trkpt>
      <trkpt lat="47.08393" lon="5.3561">
        <ele>188.7002</ele>
        <time>2026-05-15T09:25:25+02:00</time>
      </trkpt>
      <trkpt lat="47.08393" lon="5.35614">
        <ele>188.7002</ele>
        <time>2026-05-15T09:25:26+02:00</time>
      </trkpt>
      <trkpt lat="47.08395" lon="5.35616">
        <ele>188.7002</ele>
        <time>2026-05-15T09:25:27+02:00</time>
      </trkpt>
      <trkpt lat="47.08397" lon="5.35618">
        <ele>188.7002</ele>
        <time>2026-05-15T09:25:28+02:00</time>
      </trkpt>
      <trkpt lat="47.08399" lon="5.3562">
        <ele>188.7998</ele>
        <time>2026-05-15T09:25:29+02:00</time>
      </trkpt>
      <trkpt lat="47.08402" lon="5.35622">
        <ele>188.7998</ele>
        <time>2026-05-15T09:25:30+02:00</time>
      </trkpt>
      <trkpt lat="47.08405" lon="5.35625">
        <ele>188.7998</ele>
        <time>2026-05-15T09:25:31+02:00</time>
      </trkpt>
      <trkpt lat="47.08408" lon="5.35627">
        <ele>188.7998</ele>
        <time>2026-05-15T09:25:32+02:00</time>
      </trkpt>
      <trkpt lat="47.08412" lon="5.3563">
        <ele>188.90039</ele>
        <time>2026-05-15T09:25:33+02:00</time>
      </trkpt>
      <trkpt lat="47.08415" lon="5.35633">
        <ele>188.90039</ele>
        <time>2026-05-15T09:25:34+02:00</time>
      </trkpt>
      <trkpt lat="47.08419" lon="5.35636">
        <ele>188.7998</ele>
        <time>2026-05-15T09:25:35+02:00</time>
      </trkpt>
      <trkpt lat="47.08423" lon="5.3564">
        <ele>188.7998</ele>
        <time>2026-05-15T09:25:36+02:00</time>
      </trkpt>
      <trkpt lat="47.08427" lon="5.35643">
        <ele>188.7998</ele>
        <time>2026-05-15T09:25:37+02:00</time>
      </trkpt>
      <trkpt lat="47.08432" lon="5.35647">
        <ele>188.7002</ele>
        <time>2026-05-15T09:25:38+02:00</time>
      </trkpt>
      <trkpt lat="47.08436" lon="5.35651">
        <ele>188.7002</ele>
        <time>2026-05-15T09:25:39+02:00</time>
      </trkpt>
      <trkpt lat="47.08441" lon="5.35654">
        <ele>188.60059</ele>
        <time>2026-05-15T09:25:40+02:00</time>
      </trkpt>
      <trkpt lat="47.08446" lon="5.35658">
        <ele>188.60059</ele>
        <time>2026-05-15T09:25:41+02:00</time>
      </trkpt>
      <trkpt lat="47.08451" lon="5.35663">
        <ele>188.5</ele>
        <time>2026-05-15T09:25:42+02:00</time>
      </trkpt>
      <trkpt lat="47.08455" lon="5.35667">
        <ele>188.5</ele>
        <time>2026-05-15T09:25:43+02:00</time>
      </trkpt>
      <trkpt lat="47.0846" lon="5.3567">
        <ele>188.2998</ele>
        <time>2026-05-15T09:25:44+02:00</time>
      </trkpt>
      <trkpt lat="47.08465" lon="5.35674">
        <ele>188.2998</ele>
        <time>2026-05-15T09:25:45+02:00</time>
      </trkpt>
      <trkpt lat="47.0847" lon="5.35678">
        <ele>188.10059</ele>
        <time>2026-05-15T09:25:46+02:00</time>
      </trkpt>
      <trkpt lat="47.08474" lon="5.35681">
        <ele>188.10059</ele>
        <time>2026-05-15T09:25:47+02:00</time>
      </trkpt>
      <trkpt lat="47.08478" lon="5.35684">
        <ele>188.10059</ele>
        <time>2026-05-15T09:25:48+02:00</time>
      </trkpt>
      <trkpt lat="47.08483" lon="5.35686">
        <ele>188</ele>
        <time>2026-05-15T09:25:49+02:00</time>
      </trkpt>
      <trkpt lat="47.08487" lon="5.35686">
        <ele>188</ele>
        <time>2026-05-15T09:25:50+02:00</time>
      </trkpt>
      <trkpt lat="47.0849" lon="5.35686">
        <ele>188</ele>
        <time>2026-05-15T09:25:51+02:00</time>
      </trkpt>
      <trkpt lat="47.08493" lon="5.35687">
        <ele>187.90039</ele>
        <time>2026-05-15T09:25:52+02:00</time>
      </trkpt>
      <trkpt lat="47.08495" lon="5.35689">
        <ele>187.90039</ele>
        <time>2026-05-15T09:25:53+02:00</time>
      </trkpt>
      <trkpt lat="47.08497" lon="5.35692">
        <ele>187.90039</ele>
        <time>2026-05-15T09:25:54+02:00</time>
      </trkpt>
      <trkpt lat="47.08497" lon="5.35694">
        <ele>187.90039</ele>
        <time>2026-05-15T09:25:55+02:00</time>
      </trkpt>
      <trkpt lat="47.08497" lon="5.35694">
        <ele>187.90039</ele>
        <time>2026-05-15T09:25:56+02:00</time>
      </trkpt>
      <trkpt lat="47.08497" lon="5.35694">
        <ele>187.90039</ele>
        <time>2026-05-15T09:25:57+02:00</time>
      </trkpt>
      <trkpt lat="47.08497" lon="5.35694">
        <ele>187.90039</ele>
        <time>2026-05-15T09:25:58+02:00</time>
      </trkpt>
      <trkpt lat="47.08497" lon="5.35694">
        <ele>187.90039</ele>
        <time>2026-05-15T09:25:59+02:00</time>
      </trkpt>
      <trkpt lat="47.08512" lon="5.35709">
        <ele>187.90039</ele>
        <time>2026-05-15T09:29:15+02:00</time>
      </trkpt>
      <trkpt lat="47.08515" lon="5.35712">
        <ele>188</ele>
        <time>2026-05-15T09:29:16+02:00</time>
      </trkpt>
      <trkpt lat="47.08518" lon="5.35714">
        <ele>187.90039</ele>
        <time>2026-05-15T09:29:17+02:00</time>
      </trkpt>
      <trkpt lat="47.08521" lon="5.35716">
        <ele>188</ele>
        <time>2026-05-15T09:29:18+02:00</time>
      </trkpt>
      <trkpt lat="47.08523" lon="5.35717">
        <ele>188</ele>
        <time>2026-05-15T09:29:19+02:00</time>
      </trkpt>
      <trkpt lat="47.08527" lon="5.35722">
        <ele>188.2002</ele>
        <time>2026-05-15T09:29:20+02:00</time>
      </trkpt>
      <trkpt lat="47.0853" lon="5.35725">
        <ele>188.2002</ele>
        <time>2026-05-15T09:29:21+02:00</time>
      </trkpt>
      <trkpt lat="47.08532" lon="5.35727">
        <ele>188.40039</ele>
        <time>2026-05-15T09:29:22+02:00</time>
      </trkpt>
      <trkpt lat="47.08536" lon="5.3573">
        <ele>188.40039</ele>
        <time>2026-05-15T09:29:23+02:00</time>
      </trkpt>
      <trkpt lat="47.08539" lon="5.35732">
        <ele>188.60059</ele>
        <time>2026-05-15T09:29:24+02:00</time>
      </trkpt>
      <trkpt lat="47.08542" lon="5.35734">
        <ele>188.60059</ele>
        <time>2026-05-15T09:29:25+02:00</time>
      </trkpt>
      <trkpt lat="47.08545" lon="5.35737">
        <ele>188.7998</ele>
        <time>2026-05-15T09:29:26+02:00</time>
      </trkpt>
      <trkpt lat="47.08548" lon="5.35739">
        <ele>188.90039</ele>
        <time>2026-05-15T09:29:27+02:00</time>
      </trkpt>
      <trkpt lat="47.08552" lon="5.35741">
        <ele>189.10059</ele>
        <time>2026-05-15T09:29:28+02:00</time>
      </trkpt>
      <trkpt lat="47.08556" lon="5.35744">
        <ele>189.2002</ele>
        <time>2026-05-15T09:29:29+02:00</time>
      </trkpt>
      <trkpt lat="47.0856" lon="5.35747">
        <ele>189.2998</ele>
        <time>2026-05-15T09:29:30+02:00</time>
      </trkpt>
      <trkpt lat="47.08563" lon="5.35749">
        <ele>189.5</ele>
        <time>2026-05-15T09:29:31+02:00</time>
      </trkpt>
      <trkpt lat="47.08568" lon="5.35752">
        <ele>189.60059</ele>
        <time>2026-05-15T09:29:32+02:00</time>
      </trkpt>
      <trkpt lat="47.08572" lon="5.35755">
        <ele>189.60059</ele>
        <time>2026-05-15T09:29:33+02:00</time>
      </trkpt>
      <trkpt lat="47.08576" lon="5.35758">
        <ele>189.7998</ele>
        <time>2026-05-15T09:29:34+02:00</time>
      </trkpt>
      <trkpt lat="47.0858" lon="5.3576">
        <ele>189.90039</ele>
        <time>2026-05-15T09:29:35+02:00</time>
      </trkpt>
      <trkpt lat="47.08584" lon="5.35763">
        <ele>189.90039</ele>
        <time>2026-05-15T09:29:36+02:00</time>
      </trkpt>
      <trkpt lat="47.08588" lon="5.35766">
        <ele>190.2002</ele>
        <time>2026-05-15T09:29:37+02:00</time>
      </trkpt>
      <trkpt lat="47.08592" lon="5.35769">
        <ele>190.2998</ele>
        <time>2026-05-15T09:29:38+02:00</time>
      </trkpt>
      <trkpt lat="47.08594" lon="5.3577">
        <ele>190.2998</ele>
        <time>2026-05-15T09:29:39+02:00</time>
      </trkpt>
      <trkpt lat="47.086" lon="5.35775">
        <ele>190.60059</ele>
        <time>2026-05-15T09:29:40+02:00</time>
      </trkpt>
      <trkpt lat="47.08605" lon="5.35777">
        <ele>190.7998</ele>
        <time>2026-05-15T09:29:41+02:00</time>
      </trkpt>
      <trkpt lat="47.08609" lon="5.3578">
        <ele>190.90039</ele>
        <time>2026-05-15T09:29:42+02:00</time>
      </trkpt>
      <trkpt lat="47.08614" lon="5.35782">
        <ele>191.2002</ele>
        <time>2026-05-15T09:29:43+02:00</time>
      </trkpt>
      <trkpt lat="47.08618" lon="5.35784">
        <ele>191.2002</ele>
        <time>2026-05-15T09:29:44+02:00</time>
      </trkpt>
      <trkpt lat="47.08623" lon="5.35786">
        <ele>191.2998</ele>
        <time>2026-05-15T09:29:45+02:00</time>
      </trkpt>
      <trkpt lat="47.08628" lon="5.35788">
        <ele>191.40039</ele>
        <time>2026-05-15T09:29:46+02:00</time>
      </trkpt>
      <trkpt lat="47.08632" lon="5.3579">
        <ele>191.7002</ele>
        <time>2026-05-15T09:29:47+02:00</time>
      </trkpt>
      <trkpt lat="47.08638" lon="5.35792">
        <ele>191.7998</ele>
        <time>2026-05-15T09:29:48+02:00</time>
      </trkpt>
      <trkpt lat="47.08643" lon="5.35794">
        <ele>191.7998</ele>
        <time>2026-05-15T09:29:49+02:00</time>
      </trkpt>
      <trkpt lat="47.08647" lon="5.35796">
        <ele>191.7998</ele>
        <time>2026-05-15T09:29:50+02:00</time>
      </trkpt>
      <trkpt lat="47.08652" lon="5.35798">
        <ele>191.90039</ele>
        <time>2026-05-15T09:29:51+02:00</time>
      </trkpt>
      <trkpt lat="47.08657" lon="5.358">
        <ele>192.2002</ele>
        <time>2026-05-15T09:29:52+02:00</time>
      </trkpt>
      <trkpt lat="47.08662" lon="5.35802">
        <ele>192.2002</ele>
        <time>2026-05-15T09:29:53+02:00</time>
      </trkpt>
      <trkpt lat="47.08667" lon="5.35804">
        <ele>192.2002</ele>
        <time>2026-05-15T09:29:54+02:00</time>
      </trkpt>
      <trkpt lat="47.08672" lon="5.35807">
        <ele>192.40039</ele>
        <time>2026-05-15T09:29:55+02:00</time>
      </trkpt>
      <trkpt lat="47.08677" lon="5.3581">
        <ele>192.40039</ele>
        <time>2026-05-15T09:29:56+02:00</time>
      </trkpt>
      <trkpt lat="47.08682" lon="5.35812">
        <ele>192.40039</ele>
        <time>2026-05-15T09:29:57+02:00</time>
      </trkpt>
      <trkpt lat="47.08687" lon="5.35814">
        <ele>192.40039</ele>
        <time>2026-05-15T09:29:58+02:00</time>
      </trkpt>
      <trkpt lat="47.08692" lon="5.35817">
        <ele>192.60059</ele>
        <time>2026-05-15T09:29:59+02:00</time>
      </trkpt>
      <trkpt lat="47.08696" lon="5.35819">
        <ele>192.60059</ele>
        <time>2026-05-15T09:30:00+02:00</time>
      </trkpt>
      <trkpt lat="47.08701" lon="5.35822">
        <ele>192.60059</ele>
        <time>2026-05-15T09:30:01+02:00</time>
      </trkpt>
      <trkpt lat="47.08706" lon="5.35825">
        <ele>192.7002</ele>
        <time>2026-05-15T09:30:02+02:00</time>
      </trkpt>
      <trkpt lat="47.0871" lon="5.35828">
        <ele>192.7002</ele>
        <time>2026-05-15T09:30:03+02:00</time>
      </trkpt>
      <trkpt lat="47.08715" lon="5.35831">
        <ele>192.7002</ele>
        <time>2026-05-15T09:30:04+02:00</time>
      </trkpt>
      <trkpt lat="47.0872" lon="5.35834">
        <ele>192.90039</ele>
        <time>2026-05-15T09:30:05+02:00</time>
      </trkpt>
      <trkpt lat="47.08724" lon="5.35837">
        <ele>192.90039</ele>
        <time>2026-05-15T09:30:06+02:00</time>
      </trkpt>
      <trkpt lat="47.08729" lon="5.3584">
        <ele>192.90039</ele>
        <time>2026-05-15T09:30:07+02:00</time>
      </trkpt>
      <trkpt lat="47.08733" lon="5.35843">
        <ele>193.10059</ele>
        <time>2026-05-15T09:30:08+02:00</time>
      </trkpt>
      <trkpt lat="47.08738" lon="5.35846">
        <ele>193.2002</ele>
        <time>2026-05-15T09:30:09+02:00</time>
      </trkpt>
      <trkpt lat="47.08743" lon="5.35849">
        <ele>193.2002</ele>
        <time>2026-05-15T09:30:10+02:00</time>
      </trkpt>
      <trkpt lat="47.08748" lon="5.35852">
        <ele>193.40039</ele>
        <time>2026-05-15T09:30:11+02:00</time>
      </trkpt>
      <trkpt lat="47.08752" lon="5.35855">
        <ele>193.40039</ele>
        <time>2026-05-15T09:30:12+02:00</time>
      </trkpt>
      <trkpt lat="47.08756" lon="5.35859">
        <ele>193.7002</ele>
        <time>2026-05-15T09:30:13+02:00</time>
      </trkpt>
      <trkpt lat="47.08761" lon="5.35863">
        <ele>193.7998</ele>
        <time>2026-05-15T09:30:14+02:00</time>
      </trkpt>
      <trkpt lat="47.08766" lon="5.35866">
        <ele>193.90039</ele>
        <time>2026-05-15T09:30:15+02:00</time>
      </trkpt>
      <trkpt lat="47.0877" lon="5.35869">
        <ele>194</ele>
        <time>2026-05-15T09:30:16+02:00</time>
      </trkpt>
      <trkpt lat="47.08775" lon="5.35873">
        <ele>194.10059</ele>
        <time>2026-05-15T09:30:17+02:00</time>
      </trkpt>
      <trkpt lat="47.08779" lon="5.35876">
        <ele>194.40039</ele>
        <time>2026-05-15T09:30:18+02:00</time>
      </trkpt>
      <trkpt lat="47.08782" lon="5.35877">
        <ele>194.40039</ele>
        <time>2026-05-15T09:30:19+02:00</time>
      </trkpt>
      <trkpt lat="47.08788" lon="5.35882">
        <ele>194.5</ele>
        <time>2026-05-15T09:30:20+02:00</time>
      </trkpt>
      <trkpt lat="47.08792" lon="5.35886">
        <ele>194.7998</ele>
        <time>2026-05-15T09:30:21+02:00</time>
      </trkpt>
      <trkpt lat="47.08796" lon="5.35888">
        <ele>195</ele>
        <time>2026-05-15T09:30:22+02:00</time>
      </trkpt>
      <trkpt lat="47.08801" lon="5.35892">
        <ele>195.10059</ele>
        <time>2026-05-15T09:30:23+02:00</time>
      </trkpt>
      <trkpt lat="47.08805" lon="5.35895">
        <ele>195.2002</ele>
        <time>2026-05-15T09:30:24+02:00</time>
      </trkpt>
      <trkpt lat="47.08809" lon="5.35898">
        <ele>195.40039</ele>
        <time>2026-05-15T09:30:25+02:00</time>
      </trkpt>
      <trkpt lat="47.08814" lon="5.35901">
        <ele>195.60059</ele>
        <time>2026-05-15T09:30:26+02:00</time>
      </trkpt>
      <trkpt lat="47.08818" lon="5.35905">
        <ele>195.7002</ele>
        <time>2026-05-15T09:30:27+02:00</time>
      </trkpt>
      <trkpt lat="47.08823" lon="5.35908">
        <ele>195.90039</ele>
        <time>2026-05-15T09:30:28+02:00</time>
      </trkpt>
      <trkpt lat="47.08827" lon="5.35911">
        <ele>196.10059</ele>
        <time>2026-05-15T09:30:29+02:00</time>
      </trkpt>
      <trkpt lat="47.08832" lon="5.35915">
        <ele>196.2998</ele>
        <time>2026-05-15T09:30:30+02:00</time>
      </trkpt>
      <trkpt lat="47.08836" lon="5.35918">
        <ele>196.5</ele>
        <time>2026-05-15T09:30:31+02:00</time>
      </trkpt>
      <trkpt lat="47.0884" lon="5.35922">
        <ele>196.5</ele>
        <time>2026-05-15T09:30:32+02:00</time>
      </trkpt>
      <trkpt lat="47.08845" lon="5.35926">
        <ele>196.7002</ele>
        <time>2026-05-15T09:30:33+02:00</time>
      </trkpt>
      <trkpt lat="47.0885" lon="5.35929">
        <ele>196.90039</ele>
        <time>2026-05-15T09:30:34+02:00</time>
      </trkpt>
      <trkpt lat="47.08855" lon="5.35933">
        <ele>197.10059</ele>
        <time>2026-05-15T09:30:35+02:00</time>
      </trkpt>
      <trkpt lat="47.0886" lon="5.35937">
        <ele>197.2998</ele>
        <time>2026-05-15T09:30:36+02:00</time>
      </trkpt>
      <trkpt lat="47.08865" lon="5.35941">
        <ele>197.2998</ele>
        <time>2026-05-15T09:30:37+02:00</time>
      </trkpt>
      <trkpt lat="47.0887" lon="5.35944">
        <ele>197.60059</ele>
        <time>2026-05-15T09:30:38+02:00</time>
      </trkpt>
      <trkpt lat="47.08874" lon="5.35948">
        <ele>197.7002</ele>
        <time>2026-05-15T09:30:39+02:00</time>
      </trkpt>
      <trkpt lat="47.08879" lon="5.35951">
        <ele>197.90039</ele>
        <time>2026-05-15T09:30:40+02:00</time>
      </trkpt>
      <trkpt lat="47.08883" lon="5.35955">
        <ele>197.90039</ele>
        <time>2026-05-15T09:30:41+02:00</time>
      </trkpt>
      <trkpt lat="47.08888" lon="5.35958">
        <ele>197.90039</ele>
        <time>2026-05-15T09:30:42+02:00</time>
      </trkpt>
      <trkpt lat="47.08893" lon="5.3596">
        <ele>198.10059</ele>
        <time>2026-05-15T09:30:43+02:00</time>
      </trkpt>
      <trkpt lat="47.08897" lon="5.35963">
        <ele>198.10059</ele>
        <time>2026-05-15T09:30:44+02:00</time>
      </trkpt>
      <trkpt lat="47.08901" lon="5.35967">
        <ele>198.2002</ele>
        <time>2026-05-15T09:30:45+02:00</time>
      </trkpt>
      <trkpt lat="47.08905" lon="5.3597">
        <ele>198.10059</ele>
        <time>2026-05-15T09:30:46+02:00</time>
      </trkpt>
      <trkpt lat="47.08909" lon="5.35974">
        <ele>198.10059</ele>
        <time>2026-05-15T09:30:47+02:00</time>
      </trkpt>
      <trkpt lat="47.08914" lon="5.35977">
        <ele>198.2002</ele>
        <time>2026-05-15T09:30:48+02:00</time>
      </trkpt>
      <trkpt lat="47.08918" lon="5.35981">
        <ele>198.10059</ele>
        <time>2026-05-15T09:30:49+02:00</time>
      </trkpt>
      <trkpt lat="47.08922" lon="5.35984">
        <ele>198.10059</ele>
        <time>2026-05-15T09:30:50+02:00</time>
      </trkpt>
      <trkpt lat="47.08927" lon="5.35988">
        <ele>198.10059</ele>
        <time>2026-05-15T09:30:51+02:00</time>
      </trkpt>
      <trkpt lat="47.08931" lon="5.35991">
        <ele>198.10059</ele>
        <time>2026-05-15T09:30:52+02:00</time>
      </trkpt>
      <trkpt lat="47.08936" lon="5.35994">
        <ele>198.10059</ele>
        <time>2026-05-15T09:30:53+02:00</time>
      </trkpt>
      <trkpt lat="47.0894" lon="5.35998">
        <ele>198.10059</ele>
        <time>2026-05-15T09:30:54+02:00</time>
      </trkpt>
      <trkpt lat="47.08944" lon="5.36002">
        <ele>198.10059</ele>
        <time>2026-05-15T09:30:55+02:00</time>
      </trkpt>
      <trkpt lat="47.08949" lon="5.36006">
        <ele>198.2002</ele>
        <time>2026-05-15T09:30:56+02:00</time>
      </trkpt>
      <trkpt lat="47.08953" lon="5.36009">
        <ele>198.2002</ele>
        <time>2026-05-15T09:30:57+02:00</time>
      </trkpt>
      <trkpt lat="47.08957" lon="5.36013">
        <ele>198.2998</ele>
        <time>2026-05-15T09:30:58+02:00</time>
      </trkpt>
      <trkpt lat="47.08961" lon="5.36017">
        <ele>198.2998</ele>
        <time>2026-05-15T09:30:59+02:00</time>
      </trkpt>
      <trkpt lat="47.08966" lon="5.3602">
        <ele>198.2998</ele>
        <time>2026-05-15T09:31:00+02:00</time>
      </trkpt>
      <trkpt lat="47.0897" lon="5.36024">
        <ele>198.40039</ele>
        <time>2026-05-15T09:31:01+02:00</time>
      </trkpt>
      <trkpt lat="47.08975" lon="5.36028">
        <ele>198.5</ele>
        <time>2026-05-15T09:31:02+02:00</time>
      </trkpt>
      <trkpt lat="47.0898" lon="5.36032">
        <ele>198.7002</ele>
        <time>2026-05-15T09:31:03+02:00</time>
      </trkpt>
      <trkpt lat="47.08984" lon="5.36036">
        <ele>198.7998</ele>
        <time>2026-05-15T09:31:04+02:00</time>
      </trkpt>
      <trkpt lat="47.08989" lon="5.36039">
        <ele>199</ele>
        <time>2026-05-15T09:31:05+02:00</time>
      </trkpt>
      <trkpt lat="47.08993" lon="5.36043">
        <ele>199</ele>
        <time>2026-05-15T09:31:06+02:00</time>
      </trkpt>
      <trkpt lat="47.08998" lon="5.36047">
        <ele>199.10059</ele>
        <time>2026-05-15T09:31:07+02:00</time>
      </trkpt>
      <trkpt lat="47.09002" lon="5.36051">
        <ele>199.2998</ele>
        <time>2026-05-15T09:31:08+02:00</time>
      </trkpt>
      <trkpt lat="47.09007" lon="5.36055">
        <ele>199.2998</ele>
        <time>2026-05-15T09:31:09+02:00</time>
      </trkpt>
      <trkpt lat="47.09012" lon="5.36058">
        <ele>199.5</ele>
        <time>2026-05-15T09:31:10+02:00</time>
      </trkpt>
      <trkpt lat="47.09016" lon="5.36062">
        <ele>199.5</ele>
        <time>2026-05-15T09:31:11+02:00</time>
      </trkpt>
      <trkpt lat="47.09021" lon="5.36066">
        <ele>199.7002</ele>
        <time>2026-05-15T09:31:12+02:00</time>
      </trkpt>
      <trkpt lat="47.09026" lon="5.3607">
        <ele>199.7002</ele>
        <time>2026-05-15T09:31:13+02:00</time>
      </trkpt>
      <trkpt lat="47.09031" lon="5.36074">
        <ele>199.7998</ele>
        <time>2026-05-15T09:31:14+02:00</time>
      </trkpt>
      <trkpt lat="47.09035" lon="5.36078">
        <ele>199.90039</ele>
        <time>2026-05-15T09:31:15+02:00</time>
      </trkpt>
      <trkpt lat="47.0904" lon="5.36082">
        <ele>200</ele>
        <time>2026-05-15T09:31:16+02:00</time>
      </trkpt>
      <trkpt lat="47.09045" lon="5.36086">
        <ele>200</ele>
        <time>2026-05-15T09:31:17+02:00</time>
      </trkpt>
      <trkpt lat="47.0905" lon="5.3609">
        <ele>200.10059</ele>
        <time>2026-05-15T09:31:18+02:00</time>
      </trkpt>
      <trkpt lat="47.09055" lon="5.36094">
        <ele>200.10059</ele>
        <time>2026-05-15T09:31:19+02:00</time>
      </trkpt>
      <trkpt lat="47.0906" lon="5.36097">
        <ele>200.10059</ele>
        <time>2026-05-15T09:31:20+02:00</time>
      </trkpt>
      <trkpt lat="47.09064" lon="5.36101">
        <ele>200.2002</ele>
        <time>2026-05-15T09:31:21+02:00</time>
      </trkpt>
      <trkpt lat="47.09069" lon="5.36105">
        <ele>200.2002</ele>
        <time>2026-05-15T09:31:22+02:00</time>
      </trkpt>
      <trkpt lat="47.09074" lon="5.36109">
        <ele>200.2998</ele>
        <time>2026-05-15T09:31:23+02:00</time>
      </trkpt>
      <trkpt lat="47.09079" lon="5.36113">
        <ele>200.2998</ele>
        <time>2026-05-15T09:31:24+02:00</time>
      </trkpt>
      <trkpt lat="47.09084" lon="5.36116">
        <ele>200.2998</ele>
        <time>2026-05-15T09:31:25+02:00</time>
      </trkpt>
      <trkpt lat="47.09088" lon="5.3612">
        <ele>200.2998</ele>
        <time>2026-05-15T09:31:26+02:00</time>
      </trkpt>
      <trkpt lat="47.09094" lon="5.36123">
        <ele>200.2002</ele>
        <time>2026-05-15T09:31:27+02:00</time>
      </trkpt>
      <trkpt lat="47.09099" lon="5.36127">
        <ele>200.2998</ele>
        <time>2026-05-15T09:31:28+02:00</time>
      </trkpt>
      <trkpt lat="47.09104" lon="5.36131">
        <ele>200.2998</ele>
        <time>2026-05-15T09:31:29+02:00</time>
      </trkpt>
      <trkpt lat="47.09108" lon="5.36134">
        <ele>200.2998</ele>
        <time>2026-05-15T09:31:30+02:00</time>
      </trkpt>
      <trkpt lat="47.09113" lon="5.36138">
        <ele>200.2998</ele>
        <time>2026-05-15T09:31:31+02:00</time>
      </trkpt>
      <trkpt lat="47.09118" lon="5.36142">
        <ele>200.2998</ele>
        <time>2026-05-15T09:31:32+02:00</time>
      </trkpt>
      <trkpt lat="47.09124" lon="5.36145">
        <ele>200.2002</ele>
        <time>2026-05-15T09:31:33+02:00</time>
      </trkpt>
      <trkpt lat="47.09129" lon="5.36149">
        <ele>200.10059</ele>
        <time>2026-05-15T09:31:34+02:00</time>
      </trkpt>
      <trkpt lat="47.09134" lon="5.36153">
        <ele>200.10059</ele>
        <time>2026-05-15T09:31:35+02:00</time>
      </trkpt>
      <trkpt lat="47.09139" lon="5.36155">
        <ele>200.10059</ele>
        <time>2026-05-15T09:31:36+02:00</time>
      </trkpt>
      <trkpt lat="47.09145" lon="5.36158">
        <ele>200</ele>
        <time>2026-05-15T09:31:37+02:00</time>
      </trkpt>
      <trkpt lat="47.0915" lon="5.36161">
        <ele>200.10059</ele>
        <time>2026-05-15T09:31:38+02:00</time>
      </trkpt>
      <trkpt lat="47.09155" lon="5.36164">
        <ele>200.10059</ele>
        <time>2026-05-15T09:31:39+02:00</time>
      </trkpt>
      <trkpt lat="47.09161" lon="5.36167">
        <ele>200</ele>
        <time>2026-05-15T09:31:40+02:00</time>
      </trkpt>
      <trkpt lat="47.09166" lon="5.36169">
        <ele>200.10059</ele>
        <time>2026-05-15T09:31:41+02:00</time>
      </trkpt>
      <trkpt lat="47.09171" lon="5.36172">
        <ele>200</ele>
        <time>2026-05-15T09:31:42+02:00</time>
      </trkpt>
      <trkpt lat="47.09177" lon="5.36175">
        <ele>200</ele>
        <time>2026-05-15T09:31:43+02:00</time>
      </trkpt>
      <trkpt lat="47.09182" lon="5.36178">
        <ele>200.10059</ele>
        <time>2026-05-15T09:31:44+02:00</time>
      </trkpt>
      <trkpt lat="47.09187" lon="5.36181">
        <ele>200.10059</ele>
        <time>2026-05-15T09:31:45+02:00</time>
      </trkpt>
      <trkpt lat="47.09192" lon="5.36185">
        <ele>200.2002</ele>
        <time>2026-05-15T09:31:46+02:00</time>
      </trkpt>
      <trkpt lat="47.09198" lon="5.36188">
        <ele>200.2002</ele>
        <time>2026-05-15T09:31:47+02:00</time>
      </trkpt>
      <trkpt lat="47.09203" lon="5.3619">
        <ele>200.2998</ele>
        <time>2026-05-15T09:31:48+02:00</time>
      </trkpt>
      <trkpt lat="47.09208" lon="5.36193">
        <ele>200.40039</ele>
        <time>2026-05-15T09:31:49+02:00</time>
      </trkpt>
      <trkpt lat="47.09214" lon="5.36195">
        <ele>200.40039</ele>
        <time>2026-05-15T09:31:50+02:00</time>
      </trkpt>
      <trkpt lat="47.09219" lon="5.36198">
        <ele>200.40039</ele>
        <time>2026-05-15T09:31:51+02:00</time>
      </trkpt>
      <trkpt lat="47.09224" lon="5.362">
        <ele>200.40039</ele>
        <time>2026-05-15T09:31:52+02:00</time>
      </trkpt>
      <trkpt lat="47.09229" lon="5.36202">
        <ele>200.40039</ele>
        <time>2026-05-15T09:31:53+02:00</time>
      </trkpt>
      <trkpt lat="47.09234" lon="5.36207">
        <ele>200.40039</ele>
        <time>2026-05-15T09:31:54+02:00</time>
      </trkpt>
      <trkpt lat="47.09238" lon="5.36212">
        <ele>200.5</ele>
        <time>2026-05-15T09:31:55+02:00</time>
      </trkpt>
      <trkpt lat="47.09242" lon="5.36217">
        <ele>200.40039</ele>
        <time>2026-05-15T09:31:56+02:00</time>
      </trkpt>
      <trkpt lat="47.09247" lon="5.36223">
        <ele>200.40039</ele>
        <time>2026-05-15T09:31:57+02:00</time>
      </trkpt>
      <trkpt lat="47.09251" lon="5.36229">
        <ele>200.40039</ele>
        <time>2026-05-15T09:31:58+02:00</time>
      </trkpt>
      <trkpt lat="47.09255" lon="5.36235">
        <ele>200.40039</ele>
        <time>2026-05-15T09:31:59+02:00</time>
      </trkpt>
      <trkpt lat="47.0926" lon="5.36241">
        <ele>200.2998</ele>
        <time>2026-05-15T09:32:00+02:00</time>
      </trkpt>
      <trkpt lat="47.09261" lon="5.36244">
        <ele>200.2998</ele>
        <time>2026-05-15T09:32:01+02:00</time>
      </trkpt>
      <trkpt lat="47.09268" lon="5.36252">
        <ele>200.10059</ele>
        <time>2026-05-15T09:32:02+02:00</time>
      </trkpt>
      <trkpt lat="47.09273" lon="5.36258">
        <ele>199.90039</ele>
        <time>2026-05-15T09:32:03+02:00</time>
      </trkpt>
      <trkpt lat="47.09277" lon="5.36263">
        <ele>199.7998</ele>
        <time>2026-05-15T09:32:04+02:00</time>
      </trkpt>
      <trkpt lat="47.09281" lon="5.36269">
        <ele>199.60059</ele>
        <time>2026-05-15T09:32:05+02:00</time>
      </trkpt>
      <trkpt lat="47.09285" lon="5.36274">
        <ele>199.5</ele>
        <time>2026-05-15T09:32:06+02:00</time>
      </trkpt>
      <trkpt lat="47.09289" lon="5.3628">
        <ele>199.2998</ele>
        <time>2026-05-15T09:32:07+02:00</time>
      </trkpt>
      <trkpt lat="47.09293" lon="5.36287">
        <ele>199.10059</ele>
        <time>2026-05-15T09:32:08+02:00</time>
      </trkpt>
      <trkpt lat="47.09297" lon="5.36294">
        <ele>199</ele>
        <time>2026-05-15T09:32:09+02:00</time>
      </trkpt>
      <trkpt lat="47.09299" lon="5.36301">
        <ele>198.7998</ele>
        <time>2026-05-15T09:32:10+02:00</time>
      </trkpt>
      <trkpt lat="47.09301" lon="5.36309">
        <ele>198.7998</ele>
        <time>2026-05-15T09:32:11+02:00</time>
      </trkpt>
      <trkpt lat="47.09302" lon="5.36317">
        <ele>198.7002</ele>
        <time>2026-05-15T09:32:12+02:00</time>
      </trkpt>
      <trkpt lat="47.09302" lon="5.36326">
        <ele>198.60059</ele>
        <time>2026-05-15T09:32:13+02:00</time>
      </trkpt>
      <trkpt lat="47.09302" lon="5.36335">
        <ele>198.60059</ele>
        <time>2026-05-15T09:32:14+02:00</time>
      </trkpt>
      <trkpt lat="47.09301" lon="5.36343">
        <ele>198.5</ele>
        <time>2026-05-15T09:32:15+02:00</time>
      </trkpt>
      <trkpt lat="47.093" lon="5.36351">
        <ele>198.40039</ele>
        <time>2026-05-15T09:32:16+02:00</time>
      </trkpt>
      <trkpt lat="47.09298" lon="5.36359">
        <ele>198.2998</ele>
        <time>2026-05-15T09:32:17+02:00</time>
      </trkpt>
      <trkpt lat="47.09296" lon="5.36368">
        <ele>198.40039</ele>
        <time>2026-05-15T09:32:18+02:00</time>
      </trkpt>
      <trkpt lat="47.09293" lon="5.36376">
        <ele>198.2998</ele>
        <time>2026-05-15T09:32:19+02:00</time>
      </trkpt>
      <trkpt lat="47.09292" lon="5.36384">
        <ele>198.2002</ele>
        <time>2026-05-15T09:32:20+02:00</time>
      </trkpt>
      <trkpt lat="47.09289" lon="5.36392">
        <ele>198.2998</ele>
        <time>2026-05-15T09:32:21+02:00</time>
      </trkpt>
      <trkpt lat="47.09287" lon="5.36401">
        <ele>198.2002</ele>
        <time>2026-05-15T09:32:22+02:00</time>
      </trkpt>
      <trkpt lat="47.09286" lon="5.36409">
        <ele>198.10059</ele>
        <time>2026-05-15T09:32:23+02:00</time>
      </trkpt>
      <trkpt lat="47.09285" lon="5.36418">
        <ele>198.2002</ele>
        <time>2026-05-15T09:32:24+02:00</time>
      </trkpt>
      <trkpt lat="47.09284" lon="5.36426">
        <ele>198.10059</ele>
        <time>2026-05-15T09:32:25+02:00</time>
      </trkpt>
      <trkpt lat="47.09282" lon="5.36435">
        <ele>198.10059</ele>
        <time>2026-05-15T09:32:26+02:00</time>
      </trkpt>
      <trkpt lat="47.09282" lon="5.36444">
        <ele>198</ele>
        <time>2026-05-15T09:32:27+02:00</time>
      </trkpt>
      <trkpt lat="47.09282" lon="5.36453">
        <ele>198</ele>
        <time>2026-05-15T09:32:28+02:00</time>
      </trkpt>
      <trkpt lat="47.09282" lon="5.36462">
        <ele>197.90039</ele>
        <time>2026-05-15T09:32:29+02:00</time>
      </trkpt>
      <trkpt lat="47.09282" lon="5.36471">
        <ele>197.90039</ele>
        <time>2026-05-15T09:32:30+02:00</time>
      </trkpt>
      <trkpt lat="47.09283" lon="5.36479">
        <ele>197.7998</ele>
        <time>2026-05-15T09:32:31+02:00</time>
      </trkpt>
      <trkpt lat="47.09284" lon="5.36488">
        <ele>197.7998</ele>
        <time>2026-05-15T09:32:32+02:00</time>
      </trkpt>
      <trkpt lat="47.09285" lon="5.36497">
        <ele>197.7002</ele>
        <time>2026-05-15T09:32:33+02:00</time>
      </trkpt>
      <trkpt lat="47.09286" lon="5.36505">
        <ele>197.7002</ele>
        <time>2026-05-15T09:32:34+02:00</time>
      </trkpt>
      <trkpt lat="47.09287" lon="5.36514">
        <ele>197.60059</ele>
        <time>2026-05-15T09:32:35+02:00</time>
      </trkpt>
      <trkpt lat="47.09288" lon="5.36523">
        <ele>197.60059</ele>
        <time>2026-05-15T09:32:36+02:00</time>
      </trkpt>
      <trkpt lat="47.09289" lon="5.36531">
        <ele>197.60059</ele>
        <time>2026-05-15T09:32:37+02:00</time>
      </trkpt>
      <trkpt lat="47.0929" lon="5.36539">
        <ele>197.7002</ele>
        <time>2026-05-15T09:32:38+02:00</time>
      </trkpt>
      <trkpt lat="47.09292" lon="5.36548">
        <ele>197.7002</ele>
        <time>2026-05-15T09:32:39+02:00</time>
      </trkpt>
      <trkpt lat="47.09295" lon="5.36573">
        <ele>197.7002</ele>
        <time>2026-05-15T09:32:40+02:00</time>
      </trkpt>
      <trkpt lat="47.09297" lon="5.36581">
        <ele>197.60059</ele>
        <time>2026-05-15T09:32:41+02:00</time>
      </trkpt>
      <trkpt lat="47.09298" lon="5.36589">
        <ele>197.60059</ele>
        <time>2026-05-15T09:32:42+02:00</time>
      </trkpt>
      <trkpt lat="47.09299" lon="5.36597">
        <ele>197.60059</ele>
        <time>2026-05-15T09:32:43+02:00</time>
      </trkpt>
      <trkpt lat="47.093" lon="5.36605">
        <ele>197.5</ele>
        <time>2026-05-15T09:32:44+02:00</time>
      </trkpt>
      <trkpt lat="47.09302" lon="5.36613">
        <ele>197.5</ele>
        <time>2026-05-15T09:32:45+02:00</time>
      </trkpt>
      <trkpt lat="47.09304" lon="5.36621">
        <ele>197.60059</ele>
        <time>2026-05-15T09:32:46+02:00</time>
      </trkpt>
      <trkpt lat="47.09306" lon="5.36629">
        <ele>197.5</ele>
        <time>2026-05-15T09:32:47+02:00</time>
      </trkpt>
      <trkpt lat="47.09308" lon="5.36637">
        <ele>197.40039</ele>
        <time>2026-05-15T09:32:48+02:00</time>
      </trkpt>
      <trkpt lat="47.0931" lon="5.36645">
        <ele>197.5</ele>
        <time>2026-05-15T09:32:49+02:00</time>
      </trkpt>
      <trkpt lat="47.09313" lon="5.36653">
        <ele>197.5</ele>
        <time>2026-05-15T09:32:50+02:00</time>
      </trkpt>
      <trkpt lat="47.09315" lon="5.36661">
        <ele>197.60059</ele>
        <time>2026-05-15T09:32:51+02:00</time>
      </trkpt>
      <trkpt lat="47.09318" lon="5.36669">
        <ele>197.5</ele>
        <time>2026-05-15T09:32:52+02:00</time>
      </trkpt>
      <trkpt lat="47.0932" lon="5.36676">
        <ele>197.5</ele>
        <time>2026-05-15T09:32:53+02:00</time>
      </trkpt>
      <trkpt lat="47.09323" lon="5.36684">
        <ele>197.7002</ele>
        <time>2026-05-15T09:32:54+02:00</time>
      </trkpt>
      <trkpt lat="47.09327" lon="5.36691">
        <ele>198</ele>
        <time>2026-05-15T09:32:55+02:00</time>
      </trkpt>
      <trkpt lat="47.0933" lon="5.36698">
        <ele>198</ele>
        <time>2026-05-15T09:32:56+02:00</time>
      </trkpt>
      <trkpt lat="47.09334" lon="5.36704">
        <ele>198.2998</ele>
        <time>2026-05-15T09:32:57+02:00</time>
      </trkpt>
      <trkpt lat="47.09338" lon="5.3671">
        <ele>198.40039</ele>
        <time>2026-05-15T09:32:58+02:00</time>
      </trkpt>
      <trkpt lat="47.09342" lon="5.36716">
        <ele>198.60059</ele>
        <time>2026-05-15T09:32:59+02:00</time>
      </trkpt>
      <trkpt lat="47.09347" lon="5.36722">
        <ele>199.10059</ele>
        <time>2026-05-15T09:33:00+02:00</time>
      </trkpt>
      <trkpt lat="47.09348" lon="5.36724">
        <ele>199.10059</ele>
        <time>2026-05-15T09:33:01+02:00</time>
      </trkpt>
      <trkpt lat="47.09355" lon="5.36732">
        <ele>199.60059</ele>
        <time>2026-05-15T09:33:02+02:00</time>
      </trkpt>
      <trkpt lat="47.0936" lon="5.36737">
        <ele>200.10059</ele>
        <time>2026-05-15T09:33:03+02:00</time>
      </trkpt>
      <trkpt lat="47.09365" lon="5.36742">
        <ele>200.40039</ele>
        <time>2026-05-15T09:33:04+02:00</time>
      </trkpt>
      <trkpt lat="47.09369" lon="5.36747">
        <ele>201</ele>
        <time>2026-05-15T09:33:05+02:00</time>
      </trkpt>
      <trkpt lat="47.09374" lon="5.36752">
        <ele>201.5</ele>
        <time>2026-05-15T09:33:06+02:00</time>
      </trkpt>
      <trkpt lat="47.09379" lon="5.36757">
        <ele>201.5</ele>
        <time>2026-05-15T09:33:07+02:00</time>
      </trkpt>
      <trkpt lat="47.0938" lon="5.3676">
        <ele>201.90039</ele>
        <time>2026-05-15T09:33:08+02:00</time>
      </trkpt>
      <trkpt lat="47.09387" lon="5.36768">
        <ele>202.2002</ele>
        <time>2026-05-15T09:33:09+02:00</time>
      </trkpt>
      <trkpt lat="47.09392" lon="5.36775">
        <ele>202.2998</ele>
        <time>2026-05-15T09:33:10+02:00</time>
      </trkpt>
      <trkpt lat="47.09395" lon="5.36782">
        <ele>202.40039</ele>
        <time>2026-05-15T09:33:11+02:00</time>
      </trkpt>
      <trkpt lat="47.09398" lon="5.36789">
        <ele>202.7002</ele>
        <time>2026-05-15T09:33:12+02:00</time>
      </trkpt>
      <trkpt lat="47.09401" lon="5.36796">
        <ele>202.7998</ele>
        <time>2026-05-15T09:33:13+02:00</time>
      </trkpt>
      <trkpt lat="47.09404" lon="5.36804">
        <ele>203.40039</ele>
        <time>2026-05-15T09:33:14+02:00</time>
      </trkpt>
      <trkpt lat="47.09406" lon="5.36812">
        <ele>203.7998</ele>
        <time>2026-05-15T09:33:15+02:00</time>
      </trkpt>
      <trkpt lat="47.09408" lon="5.3682">
        <ele>204.2002</ele>
        <time>2026-05-15T09:33:16+02:00</time>
      </trkpt>
      <trkpt lat="47.09409" lon="5.36827">
        <ele>204.60059</ele>
        <time>2026-05-15T09:33:17+02:00</time>
      </trkpt>
      <trkpt lat="47.0941" lon="5.36831">
        <ele>204.90039</ele>
        <time>2026-05-15T09:33:18+02:00</time>
      </trkpt>
      <trkpt lat="47.09412" lon="5.36843">
        <ele>205</ele>
        <time>2026-05-15T09:33:19+02:00</time>
      </trkpt>
      <trkpt lat="47.09413" lon="5.3685">
        <ele>205.10059</ele>
        <time>2026-05-15T09:33:20+02:00</time>
      </trkpt>
      <trkpt lat="47.09414" lon="5.36858">
        <ele>205.2002</ele>
        <time>2026-05-15T09:33:21+02:00</time>
      </trkpt>
      <trkpt lat="47.09415" lon="5.36867">
        <ele>205.90039</ele>
        <time>2026-05-15T09:33:22+02:00</time>
      </trkpt>
      <trkpt lat="47.09416" lon="5.36875">
        <ele>206</ele>
        <time>2026-05-15T09:33:23+02:00</time>
      </trkpt>
      <trkpt lat="47.09417" lon="5.36883">
        <ele>206.2002</ele>
        <time>2026-05-15T09:33:24+02:00</time>
      </trkpt>
      <trkpt lat="47.09418" lon="5.36891">
        <ele>206.40039</ele>
        <time>2026-05-15T09:33:25+02:00</time>
      </trkpt>
      <trkpt lat="47.09419" lon="5.36899">
        <ele>206.60059</ele>
        <time>2026-05-15T09:33:26+02:00</time>
      </trkpt>
      <trkpt lat="47.09421" lon="5.36908">
        <ele>207.2002</ele>
        <time>2026-05-15T09:33:27+02:00</time>
      </trkpt>
      <trkpt lat="47.09422" lon="5.36917">
        <ele>207.2998</ele>
        <time>2026-05-15T09:33:28+02:00</time>
      </trkpt>
      <trkpt lat="47.09424" lon="5.36926">
        <ele>207.40039</ele>
        <time>2026-05-15T09:33:29+02:00</time>
      </trkpt>
      <trkpt lat="47.09425" lon="5.36935">
        <ele>207.5</ele>
        <time>2026-05-15T09:33:30+02:00</time>
      </trkpt>
      <trkpt lat="47.09426" lon="5.36944">
        <ele>207.90039</ele>
        <time>2026-05-15T09:33:31+02:00</time>
      </trkpt>
      <trkpt lat="47.09428" lon="5.36953">
        <ele>208</ele>
        <time>2026-05-15T09:33:32+02:00</time>
      </trkpt>
      <trkpt lat="47.09429" lon="5.36962">
        <ele>208.10059</ele>
        <time>2026-05-15T09:33:33+02:00</time>
      </trkpt>
      <trkpt lat="47.09431" lon="5.36971">
        <ele>208</ele>
        <time>2026-05-15T09:33:34+02:00</time>
      </trkpt>
      <trkpt lat="47.09432" lon="5.3698">
        <ele>208</ele>
        <time>2026-05-15T09:33:35+02:00</time>
      </trkpt>
      <trkpt lat="47.09434" lon="5.36989">
        <ele>208.2998</ele>
        <time>2026-05-15T09:33:36+02:00</time>
      </trkpt>
      <trkpt lat="47.09435" lon="5.36997">
        <ele>208.2002</ele>
        <time>2026-05-15T09:33:37+02:00</time>
      </trkpt>
      <trkpt lat="47.09437" lon="5.37006">
        <ele>208.2002</ele>
        <time>2026-05-15T09:33:38+02:00</time>
      </trkpt>
      <trkpt lat="47.09438" lon="5.37014">
        <ele>208.5</ele>
        <time>2026-05-15T09:33:39+02:00</time>
      </trkpt>
      <trkpt lat="47.0944" lon="5.37022">
        <ele>208.40039</ele>
        <time>2026-05-15T09:33:40+02:00</time>
      </trkpt>
      <trkpt lat="47.09442" lon="5.37029">
        <ele>208.40039</ele>
        <time>2026-05-15T09:33:41+02:00</time>
      </trkpt>
      <trkpt lat="47.09442" lon="5.37037">
        <ele>208.40039</ele>
        <time>2026-05-15T09:33:42+02:00</time>
      </trkpt>
      <trkpt lat="47.09443" lon="5.37045">
        <ele>208.5</ele>
        <time>2026-05-15T09:33:43+02:00</time>
      </trkpt>
      <trkpt lat="47.09445" lon="5.37052">
        <ele>208.60059</ele>
        <time>2026-05-15T09:33:44+02:00</time>
      </trkpt>
      <trkpt lat="47.09446" lon="5.37059">
        <ele>208.60059</ele>
        <time>2026-05-15T09:33:45+02:00</time>
      </trkpt>
      <trkpt lat="47.09447" lon="5.37066">
        <ele>208.60059</ele>
        <time>2026-05-15T09:33:46+02:00</time>
      </trkpt>
      <trkpt lat="47.09447" lon="5.37074">
        <ele>208.60059</ele>
        <time>2026-05-15T09:33:47+02:00</time>
      </trkpt>
      <trkpt lat="47.09448" lon="5.37081">
        <ele>208.60059</ele>
        <time>2026-05-15T09:33:48+02:00</time>
      </trkpt>
      <trkpt lat="47.0945" lon="5.37088">
        <ele>208.7002</ele>
        <time>2026-05-15T09:33:49+02:00</time>
      </trkpt>
      <trkpt lat="47.0945" lon="5.37095">
        <ele>208.60059</ele>
        <time>2026-05-15T09:33:50+02:00</time>
      </trkpt>
      <trkpt lat="47.09451" lon="5.37101">
        <ele>208.60059</ele>
        <time>2026-05-15T09:33:51+02:00</time>
      </trkpt>
      <trkpt lat="47.09451" lon="5.37108">
        <ele>208.60059</ele>
        <time>2026-05-15T09:33:52+02:00</time>
      </trkpt>
      <trkpt lat="47.09453" lon="5.37115">
        <ele>208.60059</ele>
        <time>2026-05-15T09:33:53+02:00</time>
      </trkpt>
      <trkpt lat="47.09453" lon="5.37122">
        <ele>208.60059</ele>
        <time>2026-05-15T09:33:54+02:00</time>
      </trkpt>
      <trkpt lat="47.09454" lon="5.37129">
        <ele>208.60059</ele>
        <time>2026-05-15T09:33:55+02:00</time>
      </trkpt>
      <trkpt lat="47.09455" lon="5.37136">
        <ele>208.60059</ele>
        <time>2026-05-15T09:33:56+02:00</time>
      </trkpt>
      <trkpt lat="47.09457" lon="5.37143">
        <ele>208.60059</ele>
        <time>2026-05-15T09:33:57+02:00</time>
      </trkpt>
      <trkpt lat="47.09458" lon="5.3715">
        <ele>208.5</ele>
        <time>2026-05-15T09:33:58+02:00</time>
      </trkpt>
      <trkpt lat="47.09459" lon="5.37158">
        <ele>208.5</ele>
        <time>2026-05-15T09:33:59+02:00</time>
      </trkpt>
      <trkpt lat="47.09459" lon="5.37165">
        <ele>208.5</ele>
        <time>2026-05-15T09:34:00+02:00</time>
      </trkpt>
      <trkpt lat="47.0946" lon="5.37172">
        <ele>208.5</ele>
        <time>2026-05-15T09:34:01+02:00</time>
      </trkpt>
      <trkpt lat="47.09461" lon="5.37179">
        <ele>208.5</ele>
        <time>2026-05-15T09:34:02+02:00</time>
      </trkpt>
      <trkpt lat="47.09462" lon="5.37186">
        <ele>208.40039</ele>
        <time>2026-05-15T09:34:03+02:00</time>
      </trkpt>
      <trkpt lat="47.09462" lon="5.37193">
        <ele>208.2998</ele>
        <time>2026-05-15T09:34:04+02:00</time>
      </trkpt>
      <trkpt lat="47.09463" lon="5.372">
        <ele>208.2998</ele>
        <time>2026-05-15T09:34:05+02:00</time>
      </trkpt>
      <trkpt lat="47.09464" lon="5.37208">
        <ele>208.2998</ele>
        <time>2026-05-15T09:34:06+02:00</time>
      </trkpt>
      <trkpt lat="47.09466" lon="5.37216">
        <ele>208.2002</ele>
        <time>2026-05-15T09:34:07+02:00</time>
      </trkpt>
      <trkpt lat="47.09467" lon="5.37224">
        <ele>208.2002</ele>
        <time>2026-05-15T09:34:08+02:00</time>
      </trkpt>
      <trkpt lat="47.09468" lon="5.37232">
        <ele>208.10059</ele>
        <time>2026-05-15T09:34:09+02:00</time>
      </trkpt>
      <trkpt lat="47.0947" lon="5.3724">
        <ele>208.10059</ele>
        <time>2026-05-15T09:34:10+02:00</time>
      </trkpt>
      <trkpt lat="47.09471" lon="5.37248">
        <ele>208.10059</ele>
        <time>2026-05-15T09:34:11+02:00</time>
      </trkpt>
      <trkpt lat="47.09472" lon="5.37256">
        <ele>208</ele>
        <time>2026-05-15T09:34:12+02:00</time>
      </trkpt>
      <trkpt lat="47.09473" lon="5.37264">
        <ele>208</ele>
        <time>2026-05-15T09:34:13+02:00</time>
      </trkpt>
      <trkpt lat="47.09474" lon="5.37272">
        <ele>208</ele>
        <time>2026-05-15T09:34:14+02:00</time>
      </trkpt>
      <trkpt lat="47.09475" lon="5.37279">
        <ele>207.90039</ele>
        <time>2026-05-15T09:34:15+02:00</time>
      </trkpt>
      <trkpt lat="47.09476" lon="5.37287">
        <ele>207.90039</ele>
        <time>2026-05-15T09:34:16+02:00</time>
      </trkpt>
      <trkpt lat="47.09477" lon="5.37295">
        <ele>207.7998</ele>
        <time>2026-05-15T09:34:17+02:00</time>
      </trkpt>
      <trkpt lat="47.09478" lon="5.37302">
        <ele>207.7998</ele>
        <time>2026-05-15T09:34:18+02:00</time>
      </trkpt>
      <trkpt lat="47.09479" lon="5.3731">
        <ele>207.90039</ele>
        <time>2026-05-15T09:34:19+02:00</time>
      </trkpt>
      <trkpt lat="47.0948" lon="5.37318">
        <ele>207.90039</ele>
        <time>2026-05-15T09:34:20+02:00</time>
      </trkpt>
      <trkpt lat="47.09482" lon="5.37325">
        <ele>207.90039</ele>
        <time>2026-05-15T09:34:21+02:00</time>
      </trkpt>
      <trkpt lat="47.09483" lon="5.37333">
        <ele>208</ele>
        <time>2026-05-15T09:34:22+02:00</time>
      </trkpt>
      <trkpt lat="47.09484" lon="5.37341">
        <ele>208.10059</ele>
        <time>2026-05-15T09:34:23+02:00</time>
      </trkpt>
      <trkpt lat="47.09485" lon="5.37348">
        <ele>208.2998</ele>
        <time>2026-05-15T09:34:24+02:00</time>
      </trkpt>
      <trkpt lat="47.09487" lon="5.37356">
        <ele>208.5</ele>
        <time>2026-05-15T09:34:25+02:00</time>
      </trkpt>
      <trkpt lat="47.09487" lon="5.37363">
        <ele>208.7002</ele>
        <time>2026-05-15T09:34:26+02:00</time>
      </trkpt>
      <trkpt lat="47.09489" lon="5.3737">
        <ele>209</ele>
        <time>2026-05-15T09:34:27+02:00</time>
      </trkpt>
      <trkpt lat="47.0949" lon="5.37378">
        <ele>209.2002</ele>
        <time>2026-05-15T09:34:28+02:00</time>
      </trkpt>
      <trkpt lat="47.09491" lon="5.37386">
        <ele>209.5</ele>
        <time>2026-05-15T09:34:29+02:00</time>
      </trkpt>
      <trkpt lat="47.09492" lon="5.37393">
        <ele>209.5</ele>
        <time>2026-05-15T09:34:30+02:00</time>
      </trkpt>
      <trkpt lat="47.09493" lon="5.37401">
        <ele>209.7002</ele>
        <time>2026-05-15T09:34:31+02:00</time>
      </trkpt>
      <trkpt lat="47.09495" lon="5.37409">
        <ele>209.7998</ele>
        <time>2026-05-15T09:34:32+02:00</time>
      </trkpt>
      <trkpt lat="47.09496" lon="5.37416">
        <ele>209.90039</ele>
        <time>2026-05-15T09:34:33+02:00</time>
      </trkpt>
      <trkpt lat="47.09497" lon="5.37424">
        <ele>209.90039</ele>
        <time>2026-05-15T09:34:34+02:00</time>
      </trkpt>
      <trkpt lat="47.09498" lon="5.37432">
        <ele>209.90039</ele>
        <time>2026-05-15T09:34:35+02:00</time>
      </trkpt>
      <trkpt lat="47.09499" lon="5.3744">
        <ele>209.7998</ele>
        <time>2026-05-15T09:34:36+02:00</time>
      </trkpt>
      <trkpt lat="47.095" lon="5.37447">
        <ele>209.7998</ele>
        <time>2026-05-15T09:34:37+02:00</time>
      </trkpt>
      <trkpt lat="47.09501" lon="5.37455">
        <ele>209.7002</ele>
        <time>2026-05-15T09:34:38+02:00</time>
      </trkpt>
      <trkpt lat="47.09502" lon="5.37463">
        <ele>209.7002</ele>
        <time>2026-05-15T09:34:39+02:00</time>
      </trkpt>
      <trkpt lat="47.09503" lon="5.37471">
        <ele>209.7002</ele>
        <time>2026-05-15T09:34:40+02:00</time>
      </trkpt>
      <trkpt lat="47.09504" lon="5.37479">
        <ele>209.60059</ele>
        <time>2026-05-15T09:34:41+02:00</time>
      </trkpt>
      <trkpt lat="47.09506" lon="5.37487">
        <ele>209.60059</ele>
        <time>2026-05-15T09:34:42+02:00</time>
      </trkpt>
      <trkpt lat="47.09507" lon="5.37495">
        <ele>209.60059</ele>
        <time>2026-05-15T09:34:43+02:00</time>
      </trkpt>
      <trkpt lat="47.09508" lon="5.37503">
        <ele>209.60059</ele>
        <time>2026-05-15T09:34:44+02:00</time>
      </trkpt>
      <trkpt lat="47.09509" lon="5.37511">
        <ele>209.7002</ele>
        <time>2026-05-15T09:34:45+02:00</time>
      </trkpt>
      <trkpt lat="47.0951" lon="5.37519">
        <ele>209.7998</ele>
        <time>2026-05-15T09:34:46+02:00</time>
      </trkpt>
      <trkpt lat="47.09512" lon="5.37527">
        <ele>210</ele>
        <time>2026-05-15T09:34:47+02:00</time>
      </trkpt>
      <trkpt lat="47.09513" lon="5.37535">
        <ele>210.2002</ele>
        <time>2026-05-15T09:34:48+02:00</time>
      </trkpt>
      <trkpt lat="47.09514" lon="5.37543">
        <ele>210.40039</ele>
        <time>2026-05-15T09:34:49+02:00</time>
      </trkpt>
      <trkpt lat="47.09515" lon="5.37551">
        <ele>210.5</ele>
        <time>2026-05-15T09:34:50+02:00</time>
      </trkpt>
      <trkpt lat="47.09516" lon="5.37558">
        <ele>210.7002</ele>
        <time>2026-05-15T09:34:51+02:00</time>
      </trkpt>
      <trkpt lat="47.09517" lon="5.37566">
        <ele>210.7002</ele>
        <time>2026-05-15T09:34:52+02:00</time>
      </trkpt>
      <trkpt lat="47.09519" lon="5.37574">
        <ele>210.7998</ele>
        <time>2026-05-15T09:34:53+02:00</time>
      </trkpt>
      <trkpt lat="47.0952" lon="5.37582">
        <ele>210.90039</ele>
        <time>2026-05-15T09:34:54+02:00</time>
      </trkpt>
      <trkpt lat="47.09521" lon="5.3759">
        <ele>211</ele>
        <time>2026-05-15T09:34:55+02:00</time>
      </trkpt>
      <trkpt lat="47.09522" lon="5.37598">
        <ele>211.10059</ele>
        <time>2026-05-15T09:34:56+02:00</time>
      </trkpt>
      <trkpt lat="47.09523" lon="5.37606">
        <ele>211.10059</ele>
        <time>2026-05-15T09:34:57+02:00</time>
      </trkpt>
      <trkpt lat="47.09524" lon="5.37614">
        <ele>211.10059</ele>
        <time>2026-05-15T09:34:58+02:00</time>
      </trkpt>
      <trkpt lat="47.09525" lon="5.37622">
        <ele>211.10059</ele>
        <time>2026-05-15T09:34:59+02:00</time>
      </trkpt>
      <trkpt lat="47.09527" lon="5.3763">
        <ele>211.10059</ele>
        <time>2026-05-15T09:35:00+02:00</time>
      </trkpt>
      <trkpt lat="47.09527" lon="5.37638">
        <ele>211.10059</ele>
        <time>2026-05-15T09:35:01+02:00</time>
      </trkpt>
      <trkpt lat="47.09527" lon="5.37646">
        <ele>211.10059</ele>
        <time>2026-05-15T09:35:02+02:00</time>
      </trkpt>
      <trkpt lat="47.09528" lon="5.37654">
        <ele>211.10059</ele>
        <time>2026-05-15T09:35:03+02:00</time>
      </trkpt>
      <trkpt lat="47.0953" lon="5.37662">
        <ele>211.2002</ele>
        <time>2026-05-15T09:35:04+02:00</time>
      </trkpt>
      <trkpt lat="47.09531" lon="5.3767">
        <ele>211.2002</ele>
        <time>2026-05-15T09:35:05+02:00</time>
      </trkpt>
      <trkpt lat="47.09532" lon="5.37678">
        <ele>211.2002</ele>
        <time>2026-05-15T09:35:06+02:00</time>
      </trkpt>
      <trkpt lat="47.09532" lon="5.37682">
        <ele>211.2002</ele>
        <time>2026-05-15T09:35:07+02:00</time>
      </trkpt>
      <trkpt lat="47.09534" lon="5.37694">
        <ele>211.2998</ele>
        <time>2026-05-15T09:35:08+02:00</time>
      </trkpt>
      <trkpt lat="47.09535" lon="5.37702">
        <ele>211.2998</ele>
        <time>2026-05-15T09:35:09+02:00</time>
      </trkpt>
      <trkpt lat="47.09537" lon="5.3771">
        <ele>211.40039</ele>
        <time>2026-05-15T09:35:10+02:00</time>
      </trkpt>
      <trkpt lat="47.09538" lon="5.37718">
        <ele>211.40039</ele>
        <time>2026-05-15T09:35:11+02:00</time>
      </trkpt>
      <trkpt lat="47.09539" lon="5.37726">
        <ele>211.40039</ele>
        <time>2026-05-15T09:35:12+02:00</time>
      </trkpt>
      <trkpt lat="47.09541" lon="5.37733">
        <ele>211.5</ele>
        <time>2026-05-15T09:35:13+02:00</time>
      </trkpt>
      <trkpt lat="47.09542" lon="5.3774">
        <ele>211.5</ele>
        <time>2026-05-15T09:35:14+02:00</time>
      </trkpt>
      <trkpt lat="47.09543" lon="5.37748">
        <ele>211.5</ele>
        <time>2026-05-15T09:35:15+02:00</time>
      </trkpt>
      <trkpt lat="47.09544" lon="5.37755">
        <ele>211.40039</ele>
        <time>2026-05-15T09:35:16+02:00</time>
      </trkpt>
      <trkpt lat="47.09545" lon="5.37762">
        <ele>211.40039</ele>
        <time>2026-05-15T09:35:17+02:00</time>
      </trkpt>
      <trkpt lat="47.09546" lon="5.37769">
        <ele>211.2998</ele>
        <time>2026-05-15T09:35:18+02:00</time>
      </trkpt>
      <trkpt lat="47.09547" lon="5.37777">
        <ele>211.2998</ele>
        <time>2026-05-15T09:35:19+02:00</time>
      </trkpt>
      <trkpt lat="47.09548" lon="5.37784">
        <ele>211.2002</ele>
        <time>2026-05-15T09:35:20+02:00</time>
      </trkpt>
      <trkpt lat="47.09549" lon="5.37791">
        <ele>211.10059</ele>
        <time>2026-05-15T09:35:21+02:00</time>
      </trkpt>
      <trkpt lat="47.0955" lon="5.37798">
        <ele>211</ele>
        <time>2026-05-15T09:35:22+02:00</time>
      </trkpt>
      <trkpt lat="47.09551" lon="5.37805">
        <ele>211</ele>
        <time>2026-05-15T09:35:23+02:00</time>
      </trkpt>
      <trkpt lat="47.09553" lon="5.37812">
        <ele>210.7998</ele>
        <time>2026-05-15T09:35:24+02:00</time>
      </trkpt>
      <trkpt lat="47.09553" lon="5.37819">
        <ele>210.7002</ele>
        <time>2026-05-15T09:35:25+02:00</time>
      </trkpt>
      <trkpt lat="47.09554" lon="5.37822">
        <ele>210.7002</ele>
        <time>2026-05-15T09:35:26+02:00</time>
      </trkpt>
      <trkpt lat="47.09556" lon="5.37833">
        <ele>210.2998</ele>
        <time>2026-05-15T09:35:27+02:00</time>
      </trkpt>
      <trkpt lat="47.09557" lon="5.3784">
        <ele>210.2998</ele>
        <time>2026-05-15T09:35:28+02:00</time>
      </trkpt>
      <trkpt lat="47.09557" lon="5.37847">
        <ele>210.10059</ele>
        <time>2026-05-15T09:35:29+02:00</time>
      </trkpt>
      <trkpt lat="47.09558" lon="5.37854">
        <ele>210</ele>
        <time>2026-05-15T09:35:30+02:00</time>
      </trkpt>
      <trkpt lat="47.09559" lon="5.37862">
        <ele>209.7998</ele>
        <time>2026-05-15T09:35:31+02:00</time>
      </trkpt>
      <trkpt lat="47.0956" lon="5.3787">
        <ele>209.7002</ele>
        <time>2026-05-15T09:35:32+02:00</time>
      </trkpt>
      <trkpt lat="47.09561" lon="5.37877">
        <ele>209.40039</ele>
        <time>2026-05-15T09:35:33+02:00</time>
      </trkpt>
      <trkpt lat="47.09562" lon="5.37884">
        <ele>209.2998</ele>
        <time>2026-05-15T09:35:34+02:00</time>
      </trkpt>
      <trkpt lat="47.09564" lon="5.37892">
        <ele>209.2998</ele>
        <time>2026-05-15T09:35:35+02:00</time>
      </trkpt>
      <trkpt lat="47.09565" lon="5.37899">
        <ele>209.2002</ele>
        <time>2026-05-15T09:35:36+02:00</time>
      </trkpt>
      <trkpt lat="47.09565" lon="5.37906">
        <ele>209.10059</ele>
        <time>2026-05-15T09:35:37+02:00</time>
      </trkpt>
      <trkpt lat="47.09567" lon="5.37913">
        <ele>208.90039</ele>
        <time>2026-05-15T09:35:38+02:00</time>
      </trkpt>
      <trkpt lat="47.09567" lon="5.3792">
        <ele>208.90039</ele>
        <time>2026-05-15T09:35:39+02:00</time>
      </trkpt>
      <trkpt lat="47.09569" lon="5.37927">
        <ele>208.90039</ele>
        <time>2026-05-15T09:35:40+02:00</time>
      </trkpt>
      <trkpt lat="47.09569" lon="5.37935">
        <ele>208.90039</ele>
        <time>2026-05-15T09:35:41+02:00</time>
      </trkpt>
      <trkpt lat="47.0957" lon="5.37942">
        <ele>208.7998</ele>
        <time>2026-05-15T09:35:42+02:00</time>
      </trkpt>
      <trkpt lat="47.09572" lon="5.3795">
        <ele>208.7998</ele>
        <time>2026-05-15T09:35:43+02:00</time>
      </trkpt>
      <trkpt lat="47.09573" lon="5.37957">
        <ele>208.7002</ele>
        <time>2026-05-15T09:35:44+02:00</time>
      </trkpt>
      <trkpt lat="47.09573" lon="5.37965">
        <ele>208.60059</ele>
        <time>2026-05-15T09:35:45+02:00</time>
      </trkpt>
      <trkpt lat="47.09574" lon="5.37972">
        <ele>208.60059</ele>
        <time>2026-05-15T09:35:46+02:00</time>
      </trkpt>
      <trkpt lat="47.09575" lon="5.37979">
        <ele>208.5</ele>
        <time>2026-05-15T09:35:47+02:00</time>
      </trkpt>
      <trkpt lat="47.09576" lon="5.37987">
        <ele>208.40039</ele>
        <time>2026-05-15T09:35:48+02:00</time>
      </trkpt>
      <trkpt lat="47.09578" lon="5.37994">
        <ele>208.40039</ele>
        <time>2026-05-15T09:35:49+02:00</time>
      </trkpt>
      <trkpt lat="47.09578" lon="5.38002">
        <ele>208.40039</ele>
        <time>2026-05-15T09:35:50+02:00</time>
      </trkpt>
      <trkpt lat="47.0958" lon="5.38009">
        <ele>208.40039</ele>
        <time>2026-05-15T09:35:51+02:00</time>
      </trkpt>
      <trkpt lat="47.09581" lon="5.38017">
        <ele>208.5</ele>
        <time>2026-05-15T09:35:52+02:00</time>
      </trkpt>
      <trkpt lat="47.09582" lon="5.38025">
        <ele>208.5</ele>
        <time>2026-05-15T09:35:53+02:00</time>
      </trkpt>
      <trkpt lat="47.09583" lon="5.38032">
        <ele>208.60059</ele>
        <time>2026-05-15T09:35:54+02:00</time>
      </trkpt>
      <trkpt lat="47.09584" lon="5.3804">
        <ele>208.7002</ele>
        <time>2026-05-15T09:35:55+02:00</time>
      </trkpt>
      <trkpt lat="47.09585" lon="5.38048">
        <ele>208.7002</ele>
        <time>2026-05-15T09:35:56+02:00</time>
      </trkpt>
      <trkpt lat="47.09586" lon="5.38056">
        <ele>208.7002</ele>
        <time>2026-05-15T09:35:57+02:00</time>
      </trkpt>
      <trkpt lat="47.09587" lon="5.38064">
        <ele>208.7002</ele>
        <time>2026-05-15T09:35:58+02:00</time>
      </trkpt>
      <trkpt lat="47.09589" lon="5.38072">
        <ele>208.7998</ele>
        <time>2026-05-15T09:35:59+02:00</time>
      </trkpt>
      <trkpt lat="47.0959" lon="5.38079">
        <ele>208.7998</ele>
        <time>2026-05-15T09:36:00+02:00</time>
      </trkpt>
      <trkpt lat="47.09591" lon="5.38087">
        <ele>208.7998</ele>
        <time>2026-05-15T09:36:01+02:00</time>
      </trkpt>
      <trkpt lat="47.09592" lon="5.38095">
        <ele>208.7998</ele>
        <time>2026-05-15T09:36:02+02:00</time>
      </trkpt>
      <trkpt lat="47.09593" lon="5.38102">
        <ele>208.60059</ele>
        <time>2026-05-15T09:36:03+02:00</time>
      </trkpt>
      <trkpt lat="47.09594" lon="5.3811">
        <ele>208.40039</ele>
        <time>2026-05-15T09:36:04+02:00</time>
      </trkpt>
      <trkpt lat="47.09594" lon="5.38117">
        <ele>208.10059</ele>
        <time>2026-05-15T09:36:05+02:00</time>
      </trkpt>
      <trkpt lat="47.09596" lon="5.38124">
        <ele>208.2998</ele>
        <time>2026-05-15T09:36:06+02:00</time>
      </trkpt>
      <trkpt lat="47.09596" lon="5.38132">
        <ele>208</ele>
        <time>2026-05-15T09:36:07+02:00</time>
      </trkpt>
      <trkpt lat="47.09598" lon="5.38139">
        <ele>207.7002</ele>
        <time>2026-05-15T09:36:08+02:00</time>
      </trkpt>
      <trkpt lat="47.09599" lon="5.38147">
        <ele>207.40039</ele>
        <time>2026-05-15T09:36:09+02:00</time>
      </trkpt>
      <trkpt lat="47.09601" lon="5.38154">
        <ele>207.2002</ele>
        <time>2026-05-15T09:36:10+02:00</time>
      </trkpt>
      <trkpt lat="47.09601" lon="5.38161">
        <ele>207</ele>
        <time>2026-05-15T09:36:11+02:00</time>
      </trkpt>
      <trkpt lat="47.09602" lon="5.38164">
        <ele>207.10059</ele>
        <time>2026-05-15T09:36:12+02:00</time>
      </trkpt>
      <trkpt lat="47.09604" lon="5.38175">
        <ele>206.7998</ele>
        <time>2026-05-15T09:36:13+02:00</time>
      </trkpt>
      <trkpt lat="47.09604" lon="5.38182">
        <ele>206.60059</ele>
        <time>2026-05-15T09:36:14+02:00</time>
      </trkpt>
      <trkpt lat="47.09606" lon="5.38189">
        <ele>206.5</ele>
        <time>2026-05-15T09:36:15+02:00</time>
      </trkpt>
      <trkpt lat="47.09607" lon="5.38197">
        <ele>206.40039</ele>
        <time>2026-05-15T09:36:16+02:00</time>
      </trkpt>
      <trkpt lat="47.09608" lon="5.38205">
        <ele>206.2002</ele>
        <time>2026-05-15T09:36:17+02:00</time>
      </trkpt>
      <trkpt lat="47.09609" lon="5.38213">
        <ele>206.2002</ele>
        <time>2026-05-15T09:36:18+02:00</time>
      </trkpt>
      <trkpt lat="47.0961" lon="5.3822">
        <ele>206.10059</ele>
        <time>2026-05-15T09:36:19+02:00</time>
      </trkpt>
      <trkpt lat="47.09612" lon="5.38228">
        <ele>206</ele>
        <time>2026-05-15T09:36:20+02:00</time>
      </trkpt>
      <trkpt lat="47.09613" lon="5.38237">
        <ele>205.90039</ele>
        <time>2026-05-15T09:36:21+02:00</time>
      </trkpt>
      <trkpt lat="47.09614" lon="5.38245">
        <ele>205.7998</ele>
        <time>2026-05-15T09:36:22+02:00</time>
      </trkpt>
      <trkpt lat="47.09615" lon="5.38253">
        <ele>205.7002</ele>
        <time>2026-05-15T09:36:23+02:00</time>
      </trkpt>
      <trkpt lat="47.09616" lon="5.38261">
        <ele>205.7002</ele>
        <time>2026-05-15T09:36:24+02:00</time>
      </trkpt>
      <trkpt lat="47.09617" lon="5.38269">
        <ele>205.7002</ele>
        <time>2026-05-15T09:36:25+02:00</time>
      </trkpt>
      <trkpt lat="47.09618" lon="5.38278">
        <ele>205.7002</ele>
        <time>2026-05-15T09:36:26+02:00</time>
      </trkpt>
      <trkpt lat="47.09619" lon="5.38286">
        <ele>205.60059</ele>
        <time>2026-05-15T09:36:27+02:00</time>
      </trkpt>
      <trkpt lat="47.0962" lon="5.38294">
        <ele>205.60059</ele>
        <time>2026-05-15T09:36:28+02:00</time>
      </trkpt>
      <trkpt lat="47.09621" lon="5.38301">
        <ele>205.60059</ele>
        <time>2026-05-15T09:36:29+02:00</time>
      </trkpt>
      <trkpt lat="47.09623" lon="5.38308">
        <ele>205.5</ele>
        <time>2026-05-15T09:36:30+02:00</time>
      </trkpt>
      <trkpt lat="47.09624" lon="5.38315">
        <ele>205.5</ele>
        <time>2026-05-15T09:36:31+02:00</time>
      </trkpt>
      <trkpt lat="47.09625" lon="5.38323">
        <ele>205.2998</ele>
        <time>2026-05-15T09:36:32+02:00</time>
      </trkpt>
      <trkpt lat="47.09626" lon="5.38331">
        <ele>205.2002</ele>
        <time>2026-05-15T09:36:33+02:00</time>
      </trkpt>
      <trkpt lat="47.09627" lon="5.38339">
        <ele>205.10059</ele>
        <time>2026-05-15T09:36:34+02:00</time>
      </trkpt>
      <trkpt lat="47.09627" lon="5.38348">
        <ele>205</ele>
        <time>2026-05-15T09:36:35+02:00</time>
      </trkpt>
      <trkpt lat="47.09627" lon="5.38357">
        <ele>204.7998</ele>
        <time>2026-05-15T09:36:36+02:00</time>
      </trkpt>
      <trkpt lat="47.09627" lon="5.38365">
        <ele>204.7002</ele>
        <time>2026-05-15T09:36:37+02:00</time>
      </trkpt>
      <trkpt lat="47.09625" lon="5.38373">
        <ele>204.5</ele>
        <time>2026-05-15T09:36:38+02:00</time>
      </trkpt>
      <trkpt lat="47.09623" lon="5.38381">
        <ele>204.2998</ele>
        <time>2026-05-15T09:36:39+02:00</time>
      </trkpt>
      <trkpt lat="47.0962" lon="5.38389">
        <ele>204.10059</ele>
        <time>2026-05-15T09:36:40+02:00</time>
      </trkpt>
      <trkpt lat="47.09617" lon="5.38397">
        <ele>203.60059</ele>
        <time>2026-05-15T09:36:41+02:00</time>
      </trkpt>
      <trkpt lat="47.09614" lon="5.38406">
        <ele>203.2002</ele>
        <time>2026-05-15T09:36:42+02:00</time>
      </trkpt>
      <trkpt lat="47.09611" lon="5.38414">
        <ele>202.60059</ele>
        <time>2026-05-15T09:36:43+02:00</time>
      </trkpt>
      <trkpt lat="47.09607" lon="5.38423">
        <ele>202</ele>
        <time>2026-05-15T09:36:44+02:00</time>
      </trkpt>
      <trkpt lat="47.09604" lon="5.38432">
        <ele>201.60059</ele>
        <time>2026-05-15T09:36:45+02:00</time>
      </trkpt>
      <trkpt lat="47.096" lon="5.38442">
        <ele>200.60059</ele>
        <time>2026-05-15T09:36:46+02:00</time>
      </trkpt>
      <trkpt lat="47.09597" lon="5.38451">
        <ele>200.10059</ele>
        <time>2026-05-15T09:36:47+02:00</time>
      </trkpt>
      <trkpt lat="47.09593" lon="5.3846">
        <ele>199.60059</ele>
        <time>2026-05-15T09:36:48+02:00</time>
      </trkpt>
      <trkpt lat="47.0959" lon="5.3847">
        <ele>199.2002</ele>
        <time>2026-05-15T09:36:49+02:00</time>
      </trkpt>
      <trkpt lat="47.09586" lon="5.38479">
        <ele>198.90039</ele>
        <time>2026-05-15T09:36:50+02:00</time>
      </trkpt>
      <trkpt lat="47.09582" lon="5.38489">
        <ele>198.60059</ele>
        <time>2026-05-15T09:36:51+02:00</time>
      </trkpt>
      <trkpt lat="47.09578" lon="5.38498">
        <ele>198.2998</ele>
        <time>2026-05-15T09:36:52+02:00</time>
      </trkpt>
      <trkpt lat="47.09575" lon="5.38508">
        <ele>198.10059</ele>
        <time>2026-05-15T09:36:53+02:00</time>
      </trkpt>
      <trkpt lat="47.09572" lon="5.38518">
        <ele>198</ele>
        <time>2026-05-15T09:36:54+02:00</time>
      </trkpt>
      <trkpt lat="47.09569" lon="5.38528">
        <ele>197.5</ele>
        <time>2026-05-15T09:36:55+02:00</time>
      </trkpt>
      <trkpt lat="47.09566" lon="5.38538">
        <ele>197.5</ele>
        <time>2026-05-15T09:36:56+02:00</time>
      </trkpt>
      <trkpt lat="47.09564" lon="5.38548">
        <ele>197.2998</ele>
        <time>2026-05-15T09:36:57+02:00</time>
      </trkpt>
      <trkpt lat="47.09562" lon="5.38559">
        <ele>197.2002</ele>
        <time>2026-05-15T09:36:58+02:00</time>
      </trkpt>
      <trkpt lat="47.09561" lon="5.38569">
        <ele>197.10059</ele>
        <time>2026-05-15T09:36:59+02:00</time>
      </trkpt>
      <trkpt lat="47.09561" lon="5.38574">
        <ele>197</ele>
        <time>2026-05-15T09:37:00+02:00</time>
      </trkpt>
      <trkpt lat="47.09559" lon="5.3859">
        <ele>197.10059</ele>
        <time>2026-05-15T09:37:01+02:00</time>
      </trkpt>
      <trkpt lat="47.09558" lon="5.386">
        <ele>197</ele>
        <time>2026-05-15T09:37:02+02:00</time>
      </trkpt>
      <trkpt lat="47.09557" lon="5.3861">
        <ele>197</ele>
        <time>2026-05-15T09:37:03+02:00</time>
      </trkpt>
      <trkpt lat="47.09556" lon="5.3862">
        <ele>197.10059</ele>
        <time>2026-05-15T09:37:04+02:00</time>
      </trkpt>
      <trkpt lat="47.09556" lon="5.38631">
        <ele>197.2998</ele>
        <time>2026-05-15T09:37:05+02:00</time>
      </trkpt>
      <trkpt lat="47.09555" lon="5.38641">
        <ele>197.5</ele>
        <time>2026-05-15T09:37:06+02:00</time>
      </trkpt>
      <trkpt lat="47.09554" lon="5.38651">
        <ele>198</ele>
        <time>2026-05-15T09:37:07+02:00</time>
      </trkpt>
      <trkpt lat="47.09553" lon="5.38661">
        <ele>198.2998</ele>
        <time>2026-05-15T09:37:08+02:00</time>
      </trkpt>
      <trkpt lat="47.09552" lon="5.38671">
        <ele>198.5</ele>
        <time>2026-05-15T09:37:09+02:00</time>
      </trkpt>
      <trkpt lat="47.0955" lon="5.38681">
        <ele>198.7002</ele>
        <time>2026-05-15T09:37:10+02:00</time>
      </trkpt>
      <trkpt lat="47.09549" lon="5.38691">
        <ele>199</ele>
        <time>2026-05-15T09:37:11+02:00</time>
      </trkpt>
      <trkpt lat="47.09546" lon="5.38701">
        <ele>199.40039</ele>
        <time>2026-05-15T09:37:12+02:00</time>
      </trkpt>
      <trkpt lat="47.09544" lon="5.3871">
        <ele>199.60059</ele>
        <time>2026-05-15T09:37:13+02:00</time>
      </trkpt>
      <trkpt lat="47.09541" lon="5.38719">
        <ele>199.90039</ele>
        <time>2026-05-15T09:37:14+02:00</time>
      </trkpt>
      <trkpt lat="47.09538" lon="5.38728">
        <ele>200.10059</ele>
        <time>2026-05-15T09:37:15+02:00</time>
      </trkpt>
      <trkpt lat="47.09536" lon="5.38737">
        <ele>200.40039</ele>
        <time>2026-05-15T09:37:16+02:00</time>
      </trkpt>
      <trkpt lat="47.09533" lon="5.38745">
        <ele>200.5</ele>
        <time>2026-05-15T09:37:17+02:00</time>
      </trkpt>
      <trkpt lat="47.0953" lon="5.38754">
        <ele>200.7998</ele>
        <time>2026-05-15T09:37:18+02:00</time>
      </trkpt>
      <trkpt lat="47.09527" lon="5.38761">
        <ele>201</ele>
        <time>2026-05-15T09:37:19+02:00</time>
      </trkpt>
      <trkpt lat="47.09524" lon="5.38769">
        <ele>201.2002</ele>
        <time>2026-05-15T09:37:20+02:00</time>
      </trkpt>
      <trkpt lat="47.09521" lon="5.38777">
        <ele>201.2998</ele>
        <time>2026-05-15T09:37:21+02:00</time>
      </trkpt>
      <trkpt lat="47.09519" lon="5.38784">
        <ele>201.5</ele>
        <time>2026-05-15T09:37:22+02:00</time>
      </trkpt>
      <trkpt lat="47.09517" lon="5.38791">
        <ele>201.5</ele>
        <time>2026-05-15T09:37:23+02:00</time>
      </trkpt>
      <trkpt lat="47.09514" lon="5.38799">
        <ele>201.60059</ele>
        <time>2026-05-15T09:37:24+02:00</time>
      </trkpt>
      <trkpt lat="47.09512" lon="5.38806">
        <ele>201.7998</ele>
        <time>2026-05-15T09:37:25+02:00</time>
      </trkpt>
      <trkpt lat="47.09509" lon="5.38814">
        <ele>201.90039</ele>
        <time>2026-05-15T09:37:26+02:00</time>
      </trkpt>
      <trkpt lat="47.09507" lon="5.38821">
        <ele>202.10059</ele>
        <time>2026-05-15T09:37:27+02:00</time>
      </trkpt>
      <trkpt lat="47.09504" lon="5.38829">
        <ele>202.2002</ele>
        <time>2026-05-15T09:37:28+02:00</time>
      </trkpt>
      <trkpt lat="47.09502" lon="5.38837">
        <ele>202.2998</ele>
        <time>2026-05-15T09:37:29+02:00</time>
      </trkpt>
      <trkpt lat="47.09499" lon="5.38845">
        <ele>202.40039</ele>
        <time>2026-05-15T09:37:30+02:00</time>
      </trkpt>
      <trkpt lat="47.09497" lon="5.38852">
        <ele>202.5</ele>
        <time>2026-05-15T09:37:31+02:00</time>
      </trkpt>
      <trkpt lat="47.09496" lon="5.38856">
        <ele>202.7998</ele>
        <time>2026-05-15T09:37:32+02:00</time>
      </trkpt>
      <trkpt lat="47.09494" lon="5.38867">
        <ele>202.90039</ele>
        <time>2026-05-15T09:37:33+02:00</time>
      </trkpt>
      <trkpt lat="47.09493" lon="5.38873">
        <ele>203.10059</ele>
        <time>2026-05-15T09:37:34+02:00</time>
      </trkpt>
      <trkpt lat="47.09492" lon="5.38879">
        <ele>203.10059</ele>
        <time>2026-05-15T09:37:35+02:00</time>
      </trkpt>
      <trkpt lat="47.09493" lon="5.38884">
        <ele>203.2998</ele>
        <time>2026-05-15T09:37:36+02:00</time>
      </trkpt>
      <trkpt lat="47.09495" lon="5.38887">
        <ele>203.2998</ele>
        <time>2026-05-15T09:37:37+02:00</time>
      </trkpt>
      <trkpt lat="47.09498" lon="5.38889">
        <ele>203.40039</ele>
        <time>2026-05-15T09:37:38+02:00</time>
      </trkpt>
      <trkpt lat="47.09501" lon="5.3889">
        <ele>203.40039</ele>
        <time>2026-05-15T09:37:39+02:00</time>
      </trkpt>
      <trkpt lat="47.09503" lon="5.38892">
        <ele>203.2998</ele>
        <time>2026-05-15T09:37:40+02:00</time>
      </trkpt>
      <trkpt lat="47.09507" lon="5.38895">
        <ele>203.2998</ele>
        <time>2026-05-15T09:37:41+02:00</time>
      </trkpt>
      <trkpt lat="47.0951" lon="5.38898">
        <ele>203.2998</ele>
        <time>2026-05-15T09:37:42+02:00</time>
      </trkpt>
      <trkpt lat="47.09514" lon="5.38901">
        <ele>203.2002</ele>
        <time>2026-05-15T09:37:43+02:00</time>
      </trkpt>
      <trkpt lat="47.09517" lon="5.38903">
        <ele>203.2002</ele>
        <time>2026-05-15T09:37:44+02:00</time>
      </trkpt>
      <trkpt lat="47.09522" lon="5.38906">
        <ele>203.2002</ele>
        <time>2026-05-15T09:37:45+02:00</time>
      </trkpt>
      <trkpt lat="47.09526" lon="5.3891">
        <ele>203.10059</ele>
        <time>2026-05-15T09:37:46+02:00</time>
      </trkpt>
      <trkpt lat="47.0953" lon="5.38913">
        <ele>203.10059</ele>
        <time>2026-05-15T09:37:47+02:00</time>
      </trkpt>
      <trkpt lat="47.09535" lon="5.38917">
        <ele>203.10059</ele>
        <time>2026-05-15T09:37:48+02:00</time>
      </trkpt>
      <trkpt lat="47.09539" lon="5.38921">
        <ele>203</ele>
        <time>2026-05-15T09:37:49+02:00</time>
      </trkpt>
      <trkpt lat="47.09544" lon="5.38925">
        <ele>202.90039</ele>
        <time>2026-05-15T09:37:50+02:00</time>
      </trkpt>
      <trkpt lat="47.09548" lon="5.38929">
        <ele>202.90039</ele>
        <time>2026-05-15T09:37:51+02:00</time>
      </trkpt>
      <trkpt lat="47.09553" lon="5.38933">
        <ele>202.7998</ele>
        <time>2026-05-15T09:37:52+02:00</time>
      </trkpt>
      <trkpt lat="47.09558" lon="5.38937">
        <ele>202.7002</ele>
        <time>2026-05-15T09:37:53+02:00</time>
      </trkpt>
      <trkpt lat="47.09563" lon="5.38941">
        <ele>202.7002</ele>
        <time>2026-05-15T09:37:54+02:00</time>
      </trkpt>
      <trkpt lat="47.09568" lon="5.38945">
        <ele>202.60059</ele>
        <time>2026-05-15T09:37:55+02:00</time>
      </trkpt>
      <trkpt lat="47.09573" lon="5.38949">
        <ele>202.60059</ele>
        <time>2026-05-15T09:37:56+02:00</time>
      </trkpt>
      <trkpt lat="47.09578" lon="5.38953">
        <ele>202.5</ele>
        <time>2026-05-15T09:37:57+02:00</time>
      </trkpt>
      <trkpt lat="47.09583" lon="5.38956">
        <ele>202.5</ele>
        <time>2026-05-15T09:37:58+02:00</time>
      </trkpt>
      <trkpt lat="47.09588" lon="5.38959">
        <ele>202.5</ele>
        <time>2026-05-15T09:37:59+02:00</time>
      </trkpt>
      <trkpt lat="47.09593" lon="5.38963">
        <ele>202.40039</ele>
        <time>2026-05-15T09:38:00+02:00</time>
      </trkpt>
      <trkpt lat="47.09598" lon="5.38966">
        <ele>202.5</ele>
        <time>2026-05-15T09:38:01+02:00</time>
      </trkpt>
      <trkpt lat="47.09604" lon="5.38969">
        <ele>202.40039</ele>
        <time>2026-05-15T09:38:02+02:00</time>
      </trkpt>
      <trkpt lat="47.09609" lon="5.38971">
        <ele>202.2998</ele>
        <time>2026-05-15T09:38:03+02:00</time>
      </trkpt>
      <trkpt lat="47.09612" lon="5.38972">
        <ele>202.2998</ele>
        <time>2026-05-15T09:38:04+02:00</time>
      </trkpt>
      <trkpt lat="47.0962" lon="5.38977">
        <ele>202.2998</ele>
        <time>2026-05-15T09:38:05+02:00</time>
      </trkpt>
      <trkpt lat="47.09625" lon="5.3898">
        <ele>202.2002</ele>
        <time>2026-05-15T09:38:06+02:00</time>
      </trkpt>
      <trkpt lat="47.0963" lon="5.38983">
        <ele>202.2998</ele>
        <time>2026-05-15T09:38:07+02:00</time>
      </trkpt>
      <trkpt lat="47.09636" lon="5.38987">
        <ele>202.2002</ele>
        <time>2026-05-15T09:38:08+02:00</time>
      </trkpt>
      <trkpt lat="47.09641" lon="5.38991">
        <ele>202.10059</ele>
        <time>2026-05-15T09:38:09+02:00</time>
      </trkpt>
      <trkpt lat="47.09646" lon="5.38995">
        <ele>202</ele>
        <time>2026-05-15T09:38:10+02:00</time>
      </trkpt>
      <trkpt lat="47.09651" lon="5.38999">
        <ele>201.90039</ele>
        <time>2026-05-15T09:38:11+02:00</time>
      </trkpt>
      <trkpt lat="47.09656" lon="5.39003">
        <ele>201.7998</ele>
        <time>2026-05-15T09:38:12+02:00</time>
      </trkpt>
      <trkpt lat="47.09661" lon="5.39007">
        <ele>201.7002</ele>
        <time>2026-05-15T09:38:13+02:00</time>
      </trkpt>
      <trkpt lat="47.09667" lon="5.39012">
        <ele>201.60059</ele>
        <time>2026-05-15T09:38:14+02:00</time>
      </trkpt>
      <trkpt lat="47.09672" lon="5.39016">
        <ele>201.40039</ele>
        <time>2026-05-15T09:38:15+02:00</time>
      </trkpt>
      <trkpt lat="47.09677" lon="5.3902">
        <ele>201.5</ele>
        <time>2026-05-15T09:38:16+02:00</time>
      </trkpt>
      <trkpt lat="47.09682" lon="5.39024">
        <ele>201.2998</ele>
        <time>2026-05-15T09:38:17+02:00</time>
      </trkpt>
      <trkpt lat="47.09687" lon="5.39028">
        <ele>201.2002</ele>
        <time>2026-05-15T09:38:18+02:00</time>
      </trkpt>
      <trkpt lat="47.09692" lon="5.39033">
        <ele>201</ele>
        <time>2026-05-15T09:38:19+02:00</time>
      </trkpt>
      <trkpt lat="47.09697" lon="5.39037">
        <ele>200.7998</ele>
        <time>2026-05-15T09:38:20+02:00</time>
      </trkpt>
      <trkpt lat="47.09702" lon="5.39041">
        <ele>200.7002</ele>
        <time>2026-05-15T09:38:21+02:00</time>
      </trkpt>
      <trkpt lat="47.09706" lon="5.39045">
        <ele>200.7998</ele>
        <time>2026-05-15T09:38:22+02:00</time>
      </trkpt>
      <trkpt lat="47.09712" lon="5.39049">
        <ele>200.7002</ele>
        <time>2026-05-15T09:38:23+02:00</time>
      </trkpt>
      <trkpt lat="47.09717" lon="5.39052">
        <ele>200.7002</ele>
        <time>2026-05-15T09:38:24+02:00</time>
      </trkpt>
      <trkpt lat="47.09721" lon="5.39055">
        <ele>200.60059</ele>
        <time>2026-05-15T09:38:25+02:00</time>
      </trkpt>
      <trkpt lat="47.09726" lon="5.39058">
        <ele>200.60059</ele>
        <time>2026-05-15T09:38:26+02:00</time>
      </trkpt>
      <trkpt lat="47.09731" lon="5.3906">
        <ele>200.7002</ele>
        <time>2026-05-15T09:38:27+02:00</time>
      </trkpt>
      <trkpt lat="47.09736" lon="5.39063">
        <ele>200.7002</ele>
        <time>2026-05-15T09:38:28+02:00</time>
      </trkpt>
      <trkpt lat="47.09741" lon="5.39065">
        <ele>200.7002</ele>
        <time>2026-05-15T09:38:29+02:00</time>
      </trkpt>
      <trkpt lat="47.09746" lon="5.39067">
        <ele>200.7998</ele>
        <time>2026-05-15T09:38:30+02:00</time>
      </trkpt>
      <trkpt lat="47.09751" lon="5.3907">
        <ele>201</ele>
        <time>2026-05-15T09:38:31+02:00</time>
      </trkpt>
      <trkpt lat="47.09755" lon="5.39072">
        <ele>201.10059</ele>
        <time>2026-05-15T09:38:32+02:00</time>
      </trkpt>
      <trkpt lat="47.09758" lon="5.39073">
        <ele>201.10059</ele>
        <time>2026-05-15T09:38:33+02:00</time>
      </trkpt>
      <trkpt lat="47.09765" lon="5.39076">
        <ele>201.2002</ele>
        <time>2026-05-15T09:38:34+02:00</time>
      </trkpt>
      <trkpt lat="47.0977" lon="5.39078">
        <ele>201.5</ele>
        <time>2026-05-15T09:38:35+02:00</time>
      </trkpt>
      <trkpt lat="47.09775" lon="5.3908">
        <ele>201.60059</ele>
        <time>2026-05-15T09:38:36+02:00</time>
      </trkpt>
      <trkpt lat="47.09779" lon="5.39082">
        <ele>201.7002</ele>
        <time>2026-05-15T09:38:37+02:00</time>
      </trkpt>
      <trkpt lat="47.09784" lon="5.39084">
        <ele>201.90039</ele>
        <time>2026-05-15T09:38:38+02:00</time>
      </trkpt>
      <trkpt lat="47.09788" lon="5.39086">
        <ele>202</ele>
        <time>2026-05-15T09:38:39+02:00</time>
      </trkpt>
      <trkpt lat="47.09793" lon="5.39088">
        <ele>202.10059</ele>
        <time>2026-05-15T09:38:40+02:00</time>
      </trkpt>
      <trkpt lat="47.09798" lon="5.3909">
        <ele>202.2002</ele>
        <time>2026-05-15T09:38:41+02:00</time>
      </trkpt>
      <trkpt lat="47.09803" lon="5.39092">
        <ele>202.2998</ele>
        <time>2026-05-15T09:38:42+02:00</time>
      </trkpt>
      <trkpt lat="47.09807" lon="5.39094">
        <ele>202.60059</ele>
        <time>2026-05-15T09:38:43+02:00</time>
      </trkpt>
      <trkpt lat="47.09812" lon="5.39095">
        <ele>202.7002</ele>
        <time>2026-05-15T09:38:44+02:00</time>
      </trkpt>
      <trkpt lat="47.09817" lon="5.39097">
        <ele>202.7002</ele>
        <time>2026-05-15T09:38:45+02:00</time>
      </trkpt>
      <trkpt lat="47.09822" lon="5.39099">
        <ele>202.7998</ele>
        <time>2026-05-15T09:38:46+02:00</time>
      </trkpt>
      <trkpt lat="47.09826" lon="5.391">
        <ele>202.7998</ele>
        <time>2026-05-15T09:38:47+02:00</time>
      </trkpt>
      <trkpt lat="47.09831" lon="5.39103">
        <ele>203</ele>
        <time>2026-05-15T09:38:48+02:00</time>
      </trkpt>
      <trkpt lat="47.09836" lon="5.39105">
        <ele>203</ele>
        <time>2026-05-15T09:38:49+02:00</time>
      </trkpt>
      <trkpt lat="47.0984" lon="5.39107">
        <ele>203</ele>
        <time>2026-05-15T09:38:50+02:00</time>
      </trkpt>
      <trkpt lat="47.09845" lon="5.39108">
        <ele>202.90039</ele>
        <time>2026-05-15T09:38:51+02:00</time>
      </trkpt>
      <trkpt lat="47.0985" lon="5.3911">
        <ele>202.7998</ele>
        <time>2026-05-15T09:38:52+02:00</time>
      </trkpt>
      <trkpt lat="47.09854" lon="5.39112">
        <ele>202.7998</ele>
        <time>2026-05-15T09:38:53+02:00</time>
      </trkpt>
      <trkpt lat="47.09859" lon="5.39113">
        <ele>202.7002</ele>
        <time>2026-05-15T09:38:54+02:00</time>
      </trkpt>
      <trkpt lat="47.09864" lon="5.39115">
        <ele>202.7002</ele>
        <time>2026-05-15T09:38:55+02:00</time>
      </trkpt>
      <trkpt lat="47.0987" lon="5.39118">
        <ele>202.40039</ele>
        <time>2026-05-15T09:38:56+02:00</time>
      </trkpt>
      <trkpt lat="47.09874" lon="5.39121">
        <ele>202.5</ele>
        <time>2026-05-15T09:38:57+02:00</time>
      </trkpt>
      <trkpt lat="47.0988" lon="5.39124">
        <ele>202.40039</ele>
        <time>2026-05-15T09:38:58+02:00</time>
      </trkpt>
      <trkpt lat="47.09886" lon="5.39127">
        <ele>202.2002</ele>
        <time>2026-05-15T09:38:59+02:00</time>
      </trkpt>
      <trkpt lat="47.09892" lon="5.3913">
        <ele>202.10059</ele>
        <time>2026-05-15T09:39:00+02:00</time>
      </trkpt>
      <trkpt lat="47.09897" lon="5.39134">
        <ele>201.90039</ele>
        <time>2026-05-15T09:39:01+02:00</time>
      </trkpt>
      <trkpt lat="47.09903" lon="5.39138">
        <ele>201.7998</ele>
        <time>2026-05-15T09:39:02+02:00</time>
      </trkpt>
      <trkpt lat="47.09909" lon="5.39143">
        <ele>201.60059</ele>
        <time>2026-05-15T09:39:03+02:00</time>
      </trkpt>
      <trkpt lat="47.09915" lon="5.39147">
        <ele>201.5</ele>
        <time>2026-05-15T09:39:04+02:00</time>
      </trkpt>
      <trkpt lat="47.09921" lon="5.39152">
        <ele>201.2998</ele>
        <time>2026-05-15T09:39:05+02:00</time>
      </trkpt>
      <trkpt lat="47.09928" lon="5.39157">
        <ele>201.2002</ele>
        <time>2026-05-15T09:39:06+02:00</time>
      </trkpt>
      <trkpt lat="47.09935" lon="5.39161">
        <ele>200.7998</ele>
        <time>2026-05-15T09:39:07+02:00</time>
      </trkpt>
      <trkpt lat="47.09942" lon="5.39165">
        <ele>200.60059</ele>
        <time>2026-05-15T09:39:08+02:00</time>
      </trkpt>
      <trkpt lat="47.09949" lon="5.39168">
        <ele>200.40039</ele>
        <time>2026-05-15T09:39:09+02:00</time>
      </trkpt>
      <trkpt lat="47.09956" lon="5.39172">
        <ele>200.2002</ele>
        <time>2026-05-15T09:39:10+02:00</time>
      </trkpt>
      <trkpt lat="47.09964" lon="5.39175">
        <ele>199.7998</ele>
        <time>2026-05-15T09:39:11+02:00</time>
      </trkpt>
      <trkpt lat="47.09971" lon="5.39178">
        <ele>199.60059</ele>
        <time>2026-05-15T09:39:12+02:00</time>
      </trkpt>
      <trkpt lat="47.09978" lon="5.3918">
        <ele>199.5</ele>
        <time>2026-05-15T09:39:13+02:00</time>
      </trkpt>
      <trkpt lat="47.09985" lon="5.39183">
        <ele>199.40039</ele>
        <time>2026-05-15T09:39:14+02:00</time>
      </trkpt>
      <trkpt lat="47.09992" lon="5.39185">
        <ele>199.2002</ele>
        <time>2026-05-15T09:39:15+02:00</time>
      </trkpt>
      <trkpt lat="47.09998" lon="5.39187">
        <ele>199.10059</ele>
        <time>2026-05-15T09:39:16+02:00</time>
      </trkpt>
      <trkpt lat="47.10004" lon="5.39189">
        <ele>199</ele>
        <time>2026-05-15T09:39:17+02:00</time>
      </trkpt>
      <trkpt lat="47.1001" lon="5.39192">
        <ele>198.90039</ele>
        <time>2026-05-15T09:39:18+02:00</time>
      </trkpt>
      <trkpt lat="47.10015" lon="5.39194">
        <ele>198.7998</ele>
        <time>2026-05-15T09:39:19+02:00</time>
      </trkpt>
      <trkpt lat="47.1002" lon="5.39196">
        <ele>198.7002</ele>
        <time>2026-05-15T09:39:20+02:00</time>
      </trkpt>
      <trkpt lat="47.10024" lon="5.39197">
        <ele>198.7002</ele>
        <time>2026-05-15T09:39:21+02:00</time>
      </trkpt>
      <trkpt lat="47.10027" lon="5.39198">
        <ele>198.7002</ele>
        <time>2026-05-15T09:39:22+02:00</time>
      </trkpt>
      <trkpt lat="47.10031" lon="5.392">
        <ele>198.60059</ele>
        <time>2026-05-15T09:39:23+02:00</time>
      </trkpt>
      <trkpt lat="47.10035" lon="5.39202">
        <ele>198.5</ele>
        <time>2026-05-15T09:39:24+02:00</time>
      </trkpt>
      <trkpt lat="47.1004" lon="5.39204">
        <ele>198.40039</ele>
        <time>2026-05-15T09:39:25+02:00</time>
      </trkpt>
      <trkpt lat="47.10044" lon="5.39206">
        <ele>198.5</ele>
        <time>2026-05-15T09:39:26+02:00</time>
      </trkpt>
      <trkpt lat="47.10048" lon="5.39208">
        <ele>198.5</ele>
        <time>2026-05-15T09:39:27+02:00</time>
      </trkpt>
      <trkpt lat="47.10054" lon="5.3921">
        <ele>198.5</ele>
        <time>2026-05-15T09:39:28+02:00</time>
      </trkpt>
      <trkpt lat="47.10059" lon="5.39212">
        <ele>198.40039</ele>
        <time>2026-05-15T09:39:29+02:00</time>
      </trkpt>
      <trkpt lat="47.10064" lon="5.39214">
        <ele>198.40039</ele>
        <time>2026-05-15T09:39:30+02:00</time>
      </trkpt>
      <trkpt lat="47.10069" lon="5.39217">
        <ele>198.60059</ele>
        <time>2026-05-15T09:39:31+02:00</time>
      </trkpt>
      <trkpt lat="47.10075" lon="5.39219">
        <ele>198.60059</ele>
        <time>2026-05-15T09:39:32+02:00</time>
      </trkpt>
      <trkpt lat="47.1008" lon="5.39222">
        <ele>198.60059</ele>
        <time>2026-05-15T09:39:33+02:00</time>
      </trkpt>
      <trkpt lat="47.10086" lon="5.39224">
        <ele>198.90039</ele>
        <time>2026-05-15T09:39:34+02:00</time>
      </trkpt>
      <trkpt lat="47.10091" lon="5.39227">
        <ele>199</ele>
        <time>2026-05-15T09:39:35+02:00</time>
      </trkpt>
      <trkpt lat="47.10096" lon="5.39229">
        <ele>199.10059</ele>
        <time>2026-05-15T09:39:36+02:00</time>
      </trkpt>
      <trkpt lat="47.10101" lon="5.39231">
        <ele>199.2998</ele>
        <time>2026-05-15T09:39:37+02:00</time>
      </trkpt>
      <trkpt lat="47.10106" lon="5.39234">
        <ele>199.60059</ele>
        <time>2026-05-15T09:39:38+02:00</time>
      </trkpt>
      <trkpt lat="47.1011" lon="5.39235">
        <ele>199.7998</ele>
        <time>2026-05-15T09:39:39+02:00</time>
      </trkpt>
      <trkpt lat="47.10114" lon="5.39237">
        <ele>199.7998</ele>
        <time>2026-05-15T09:39:40+02:00</time>
      </trkpt>
      <trkpt lat="47.10119" lon="5.3924">
        <ele>200.2002</ele>
        <time>2026-05-15T09:39:41+02:00</time>
      </trkpt>
      <trkpt lat="47.10124" lon="5.39241">
        <ele>200.2998</ele>
        <time>2026-05-15T09:39:42+02:00</time>
      </trkpt>
      <trkpt lat="47.10128" lon="5.39243">
        <ele>200.40039</ele>
        <time>2026-05-15T09:39:43+02:00</time>
      </trkpt>
      <trkpt lat="47.10133" lon="5.39245">
        <ele>200.40039</ele>
        <time>2026-05-15T09:39:44+02:00</time>
      </trkpt>
      <trkpt lat="47.10137" lon="5.39248">
        <ele>200.60059</ele>
        <time>2026-05-15T09:39:45+02:00</time>
      </trkpt>
      <trkpt lat="47.10142" lon="5.3925">
        <ele>200.7998</ele>
        <time>2026-05-15T09:39:46+02:00</time>
      </trkpt>
      <trkpt lat="47.10146" lon="5.39252">
        <ele>200.90039</ele>
        <time>2026-05-15T09:39:47+02:00</time>
      </trkpt>
      <trkpt lat="47.10151" lon="5.39254">
        <ele>201</ele>
        <time>2026-05-15T09:39:48+02:00</time>
      </trkpt>
      <trkpt lat="47.10156" lon="5.39256">
        <ele>201</ele>
        <time>2026-05-15T09:39:49+02:00</time>
      </trkpt>
      <trkpt lat="47.10161" lon="5.39258">
        <ele>201.10059</ele>
        <time>2026-05-15T09:39:50+02:00</time>
      </trkpt>
      <trkpt lat="47.10165" lon="5.3926">
        <ele>201.2002</ele>
        <time>2026-05-15T09:39:51+02:00</time>
      </trkpt>
      <trkpt lat="47.1017" lon="5.39262">
        <ele>201.2998</ele>
        <time>2026-05-15T09:39:52+02:00</time>
      </trkpt>
      <trkpt lat="47.10174" lon="5.39264">
        <ele>201.40039</ele>
        <time>2026-05-15T09:39:53+02:00</time>
      </trkpt>
      <trkpt lat="47.10179" lon="5.39266">
        <ele>201.40039</ele>
        <time>2026-05-15T09:39:54+02:00</time>
      </trkpt>
      <trkpt lat="47.10183" lon="5.39268">
        <ele>201.5</ele>
        <time>2026-05-15T09:39:55+02:00</time>
      </trkpt>
      <trkpt lat="47.10188" lon="5.3927">
        <ele>201.60059</ele>
        <time>2026-05-15T09:39:56+02:00</time>
      </trkpt>
      <trkpt lat="47.10193" lon="5.39272">
        <ele>201.7002</ele>
        <time>2026-05-15T09:39:57+02:00</time>
      </trkpt>
      <trkpt lat="47.10197" lon="5.39274">
        <ele>201.7002</ele>
        <time>2026-05-15T09:39:58+02:00</time>
      </trkpt>
      <trkpt lat="47.10202" lon="5.39277">
        <ele>201.7998</ele>
        <time>2026-05-15T09:39:59+02:00</time>
      </trkpt>
      <trkpt lat="47.10206" lon="5.39279">
        <ele>201.90039</ele>
        <time>2026-05-15T09:40:00+02:00</time>
      </trkpt>
      <trkpt lat="47.10211" lon="5.39281">
        <ele>202</ele>
        <time>2026-05-15T09:40:01+02:00</time>
      </trkpt>
      <trkpt lat="47.10216" lon="5.39283">
        <ele>202.10059</ele>
        <time>2026-05-15T09:40:02+02:00</time>
      </trkpt>
      <trkpt lat="47.10221" lon="5.39284">
        <ele>202.2002</ele>
        <time>2026-05-15T09:40:03+02:00</time>
      </trkpt>
      <trkpt lat="47.10226" lon="5.39286">
        <ele>202.2002</ele>
        <time>2026-05-15T09:40:04+02:00</time>
      </trkpt>
      <trkpt lat="47.10231" lon="5.39287">
        <ele>202.2002</ele>
        <time>2026-05-15T09:40:05+02:00</time>
      </trkpt>
      <trkpt lat="47.10235" lon="5.39289">
        <ele>202.2998</ele>
        <time>2026-05-15T09:40:06+02:00</time>
      </trkpt>
      <trkpt lat="47.1024" lon="5.3929">
        <ele>202.40039</ele>
        <time>2026-05-15T09:40:07+02:00</time>
      </trkpt>
      <trkpt lat="47.10245" lon="5.39291">
        <ele>202.40039</ele>
        <time>2026-05-15T09:40:08+02:00</time>
      </trkpt>
      <trkpt lat="47.1025" lon="5.39292">
        <ele>202.2998</ele>
        <time>2026-05-15T09:40:09+02:00</time>
      </trkpt>
      <trkpt lat="47.10256" lon="5.39293">
        <ele>202.2998</ele>
        <time>2026-05-15T09:40:10+02:00</time>
      </trkpt>
      <trkpt lat="47.10261" lon="5.39294">
        <ele>202.2998</ele>
        <time>2026-05-15T09:40:11+02:00</time>
      </trkpt>
      <trkpt lat="47.10266" lon="5.39295">
        <ele>202.2998</ele>
        <time>2026-05-15T09:40:12+02:00</time>
      </trkpt>
      <trkpt lat="47.10271" lon="5.39296">
        <ele>202.2998</ele>
        <time>2026-05-15T09:40:13+02:00</time>
      </trkpt>
      <trkpt lat="47.10276" lon="5.39297">
        <ele>202.2998</ele>
        <time>2026-05-15T09:40:14+02:00</time>
      </trkpt>
      <trkpt lat="47.10282" lon="5.39298">
        <ele>202.2002</ele>
        <time>2026-05-15T09:40:15+02:00</time>
      </trkpt>
      <trkpt lat="47.10287" lon="5.39298">
        <ele>202.2002</ele>
        <time>2026-05-15T09:40:16+02:00</time>
      </trkpt>
      <trkpt lat="47.10292" lon="5.39299">
        <ele>202.10059</ele>
        <time>2026-05-15T09:40:17+02:00</time>
      </trkpt>
      <trkpt lat="47.10297" lon="5.393">
        <ele>202</ele>
        <time>2026-05-15T09:40:18+02:00</time>
      </trkpt>
      <trkpt lat="47.10302" lon="5.393">
        <ele>202</ele>
        <time>2026-05-15T09:40:19+02:00</time>
      </trkpt>
      <trkpt lat="47.10308" lon="5.39301">
        <ele>201.90039</ele>
        <time>2026-05-15T09:40:20+02:00</time>
      </trkpt>
      <trkpt lat="47.1031" lon="5.39301">
        <ele>201.90039</ele>
        <time>2026-05-15T09:40:21+02:00</time>
      </trkpt>
      <trkpt lat="47.10319" lon="5.39302">
        <ele>201.7998</ele>
        <time>2026-05-15T09:40:22+02:00</time>
      </trkpt>
      <trkpt lat="47.10324" lon="5.39303">
        <ele>201.7998</ele>
        <time>2026-05-15T09:40:23+02:00</time>
      </trkpt>
      <trkpt lat="47.10329" lon="5.39304">
        <ele>201.7998</ele>
        <time>2026-05-15T09:40:24+02:00</time>
      </trkpt>
      <trkpt lat="47.10335" lon="5.39304">
        <ele>201.7998</ele>
        <time>2026-05-15T09:40:25+02:00</time>
      </trkpt>
      <trkpt lat="47.1034" lon="5.39305">
        <ele>201.7002</ele>
        <time>2026-05-15T09:40:26+02:00</time>
      </trkpt>
      <trkpt lat="47.10346" lon="5.39306">
        <ele>201.7002</ele>
        <time>2026-05-15T09:40:27+02:00</time>
      </trkpt>
      <trkpt lat="47.10349" lon="5.39307">
        <ele>201.7002</ele>
        <time>2026-05-15T09:40:28+02:00</time>
      </trkpt>
      <trkpt lat="47.10359" lon="5.39308">
        <ele>201.7002</ele>
        <time>2026-05-15T09:40:29+02:00</time>
      </trkpt>
      <trkpt lat="47.10365" lon="5.39309">
        <ele>201.7002</ele>
        <time>2026-05-15T09:40:30+02:00</time>
      </trkpt>
      <trkpt lat="47.10371" lon="5.3931">
        <ele>201.7002</ele>
        <time>2026-05-15T09:40:31+02:00</time>
      </trkpt>
      <trkpt lat="47.10378" lon="5.3931">
        <ele>201.7998</ele>
        <time>2026-05-15T09:40:32+02:00</time>
      </trkpt>
      <trkpt lat="47.10384" lon="5.3931">
        <ele>201.7998</ele>
        <time>2026-05-15T09:40:33+02:00</time>
      </trkpt>
      <trkpt lat="47.10391" lon="5.39311">
        <ele>201.7998</ele>
        <time>2026-05-15T09:40:34+02:00</time>
      </trkpt>
      <trkpt lat="47.10397" lon="5.39311">
        <ele>201.7998</ele>
        <time>2026-05-15T09:40:35+02:00</time>
      </trkpt>
      <trkpt lat="47.10404" lon="5.39311">
        <ele>201.7002</ele>
        <time>2026-05-15T09:40:36+02:00</time>
      </trkpt>
      <trkpt lat="47.1041" lon="5.3931">
        <ele>201.7002</ele>
        <time>2026-05-15T09:40:37+02:00</time>
      </trkpt>
      <trkpt lat="47.10416" lon="5.39308">
        <ele>201.60059</ele>
        <time>2026-05-15T09:40:38+02:00</time>
      </trkpt>
      <trkpt lat="47.10423" lon="5.39305">
        <ele>201.5</ele>
        <time>2026-05-15T09:40:39+02:00</time>
      </trkpt>
      <trkpt lat="47.10428" lon="5.39302">
        <ele>201.40039</ele>
        <time>2026-05-15T09:40:40+02:00</time>
      </trkpt>
      <trkpt lat="47.10434" lon="5.39298">
        <ele>201.2002</ele>
        <time>2026-05-15T09:40:41+02:00</time>
      </trkpt>
      <trkpt lat="47.10439" lon="5.39295">
        <ele>201.10059</ele>
        <time>2026-05-15T09:40:42+02:00</time>
      </trkpt>
      <trkpt lat="47.10443" lon="5.39291">
        <ele>201</ele>
        <time>2026-05-15T09:40:43+02:00</time>
      </trkpt>
      <trkpt lat="47.10447" lon="5.39289">
        <ele>201</ele>
        <time>2026-05-15T09:40:44+02:00</time>
      </trkpt>
      <trkpt lat="47.10452" lon="5.39286">
        <ele>200.7998</ele>
        <time>2026-05-15T09:40:45+02:00</time>
      </trkpt>
      <trkpt lat="47.10457" lon="5.39284">
        <ele>200.7002</ele>
        <time>2026-05-15T09:40:46+02:00</time>
      </trkpt>
      <trkpt lat="47.10462" lon="5.39284">
        <ele>200.60059</ele>
        <time>2026-05-15T09:40:47+02:00</time>
      </trkpt>
      <trkpt lat="47.10465" lon="5.39284">
        <ele>200.60059</ele>
        <time>2026-05-15T09:40:48+02:00</time>
      </trkpt>
      <trkpt lat="47.10473" lon="5.39286">
        <ele>200.40039</ele>
        <time>2026-05-15T09:40:49+02:00</time>
      </trkpt>
      <trkpt lat="47.10479" lon="5.39287">
        <ele>200.40039</ele>
        <time>2026-05-15T09:40:50+02:00</time>
      </trkpt>
      <trkpt lat="47.10484" lon="5.39289">
        <ele>200.2998</ele>
        <time>2026-05-15T09:40:51+02:00</time>
      </trkpt>
      <trkpt lat="47.1049" lon="5.39291">
        <ele>200.2002</ele>
        <time>2026-05-15T09:40:52+02:00</time>
      </trkpt>
      <trkpt lat="47.10495" lon="5.39293">
        <ele>200.2002</ele>
        <time>2026-05-15T09:40:53+02:00</time>
      </trkpt>
      <trkpt lat="47.105" lon="5.39295">
        <ele>200.10059</ele>
        <time>2026-05-15T09:40:54+02:00</time>
      </trkpt>
      <trkpt lat="47.10503" lon="5.39296">
        <ele>200.10059</ele>
        <time>2026-05-15T09:40:55+02:00</time>
      </trkpt>
      <trkpt lat="47.10511" lon="5.39299">
        <ele>200</ele>
        <time>2026-05-15T09:40:56+02:00</time>
      </trkpt>
      <trkpt lat="47.10516" lon="5.39301">
        <ele>199.90039</ele>
        <time>2026-05-15T09:40:57+02:00</time>
      </trkpt>
      <trkpt lat="47.10521" lon="5.39304">
        <ele>199.90039</ele>
        <time>2026-05-15T09:40:58+02:00</time>
      </trkpt>
      <trkpt lat="47.10526" lon="5.39306">
        <ele>199.7998</ele>
        <time>2026-05-15T09:40:59+02:00</time>
      </trkpt>
      <trkpt lat="47.1053" lon="5.39308">
        <ele>199.7998</ele>
        <time>2026-05-15T09:41:00+02:00</time>
      </trkpt>
      <trkpt lat="47.10534" lon="5.39309">
        <ele>199.7002</ele>
        <time>2026-05-15T09:41:01+02:00</time>
      </trkpt>
      <trkpt lat="47.10538" lon="5.39307">
        <ele>199.7002</ele>
        <time>2026-05-15T09:41:02+02:00</time>
      </trkpt>
      <trkpt lat="47.10542" lon="5.39304">
        <ele>199.7002</ele>
        <time>2026-05-15T09:41:03+02:00</time>
      </trkpt>
      <trkpt lat="47.10545" lon="5.39299">
        <ele>199.7002</ele>
        <time>2026-05-15T09:41:04+02:00</time>
      </trkpt>
      <trkpt lat="47.10548" lon="5.39293">
        <ele>199.7002</ele>
        <time>2026-05-15T09:41:05+02:00</time>
      </trkpt>
      <trkpt lat="47.10551" lon="5.39288">
        <ele>199.7998</ele>
        <time>2026-05-15T09:41:06+02:00</time>
      </trkpt>
      <trkpt lat="47.10554" lon="5.39282">
        <ele>199.7998</ele>
        <time>2026-05-15T09:41:07+02:00</time>
      </trkpt>
      <trkpt lat="47.10557" lon="5.39275">
        <ele>199.7998</ele>
        <time>2026-05-15T09:41:08+02:00</time>
      </trkpt>
      <trkpt lat="47.10558" lon="5.39272">
        <ele>199.90039</ele>
        <time>2026-05-15T09:41:09+02:00</time>
      </trkpt>
      <trkpt lat="47.10563" lon="5.39262">
        <ele>200</ele>
        <time>2026-05-15T09:41:10+02:00</time>
      </trkpt>
      <trkpt lat="47.10566" lon="5.39255">
        <ele>200</ele>
        <time>2026-05-15T09:41:11+02:00</time>
      </trkpt>
      <trkpt lat="47.10569" lon="5.39247">
        <ele>200.10059</ele>
        <time>2026-05-15T09:41:12+02:00</time>
      </trkpt>
      <trkpt lat="47.10572" lon="5.3924">
        <ele>200.10059</ele>
        <time>2026-05-15T09:41:13+02:00</time>
      </trkpt>
      <trkpt lat="47.10575" lon="5.39233">
        <ele>200.2002</ele>
        <time>2026-05-15T09:41:14+02:00</time>
      </trkpt>
      <trkpt lat="47.10579" lon="5.39226">
        <ele>200.2998</ele>
        <time>2026-05-15T09:41:15+02:00</time>
      </trkpt>
      <trkpt lat="47.1058" lon="5.39223">
        <ele>200.2998</ele>
        <time>2026-05-15T09:41:16+02:00</time>
      </trkpt>
      <trkpt lat="47.10585" lon="5.39212">
        <ele>200.5</ele>
        <time>2026-05-15T09:41:17+02:00</time>
      </trkpt>
      <trkpt lat="47.10588" lon="5.39206">
        <ele>200.5</ele>
        <time>2026-05-15T09:41:18+02:00</time>
      </trkpt>
      <trkpt lat="47.10591" lon="5.39199">
        <ele>200.60059</ele>
        <time>2026-05-15T09:41:19+02:00</time>
      </trkpt>
      <trkpt lat="47.10595" lon="5.39192">
        <ele>200.60059</ele>
        <time>2026-05-15T09:41:20+02:00</time>
      </trkpt>
      <trkpt lat="47.10598" lon="5.39185">
        <ele>200.7002</ele>
        <time>2026-05-15T09:41:21+02:00</time>
      </trkpt>
      <trkpt lat="47.10601" lon="5.39177">
        <ele>200.7002</ele>
        <time>2026-05-15T09:41:22+02:00</time>
      </trkpt>
      <trkpt lat="47.10604" lon="5.3917">
        <ele>200.7002</ele>
        <time>2026-05-15T09:41:23+02:00</time>
      </trkpt>
      <trkpt lat="47.10608" lon="5.39163">
        <ele>200.60059</ele>
        <time>2026-05-15T09:41:24+02:00</time>
      </trkpt>
      <trkpt lat="47.10611" lon="5.39156">
        <ele>200.60059</ele>
        <time>2026-05-15T09:41:25+02:00</time>
      </trkpt>
      <trkpt lat="47.10614" lon="5.39149">
        <ele>200.60059</ele>
        <time>2026-05-15T09:41:26+02:00</time>
      </trkpt>
      <trkpt lat="47.10617" lon="5.39141">
        <ele>200.60059</ele>
        <time>2026-05-15T09:41:27+02:00</time>
      </trkpt>
      <trkpt lat="47.10621" lon="5.39135">
        <ele>200.60059</ele>
        <time>2026-05-15T09:41:28+02:00</time>
      </trkpt>
      <trkpt lat="47.10624" lon="5.39128">
        <ele>200.5</ele>
        <time>2026-05-15T09:41:29+02:00</time>
      </trkpt>
      <trkpt lat="47.10628" lon="5.39121">
        <ele>200.5</ele>
        <time>2026-05-15T09:41:30+02:00</time>
      </trkpt>
      <trkpt lat="47.10632" lon="5.39115">
        <ele>200.60059</ele>
        <time>2026-05-15T09:41:31+02:00</time>
      </trkpt>
      <trkpt lat="47.10636" lon="5.39109">
        <ele>200.60059</ele>
        <time>2026-05-15T09:41:32+02:00</time>
      </trkpt>
      <trkpt lat="47.10637" lon="5.39106">
        <ele>200.60059</ele>
        <time>2026-05-15T09:41:33+02:00</time>
      </trkpt>
      <trkpt lat="47.10644" lon="5.39098">
        <ele>200.7998</ele>
        <time>2026-05-15T09:41:34+02:00</time>
      </trkpt>
      <trkpt lat="47.10648" lon="5.39092">
        <ele>201.10059</ele>
        <time>2026-05-15T09:41:35+02:00</time>
      </trkpt>
      <trkpt lat="47.10652" lon="5.39087">
        <ele>201.10059</ele>
        <time>2026-05-15T09:41:36+02:00</time>
      </trkpt>
      <trkpt lat="47.10656" lon="5.39081">
        <ele>201.40039</ele>
        <time>2026-05-15T09:41:37+02:00</time>
      </trkpt>
      <trkpt lat="47.10661" lon="5.39076">
        <ele>201.7998</ele>
        <time>2026-05-15T09:41:38+02:00</time>
      </trkpt>
      <trkpt lat="47.10665" lon="5.39071">
        <ele>202</ele>
        <time>2026-05-15T09:41:39+02:00</time>
      </trkpt>
      <trkpt lat="47.1067" lon="5.39066">
        <ele>202.2002</ele>
        <time>2026-05-15T09:41:40+02:00</time>
      </trkpt>
      <trkpt lat="47.10674" lon="5.3906">
        <ele>202.40039</ele>
        <time>2026-05-15T09:41:41+02:00</time>
      </trkpt>
      <trkpt lat="47.10678" lon="5.39055">
        <ele>202.90039</ele>
        <time>2026-05-15T09:41:42+02:00</time>
      </trkpt>
      <trkpt lat="47.10683" lon="5.39049">
        <ele>203.40039</ele>
        <time>2026-05-15T09:41:43+02:00</time>
      </trkpt>
      <trkpt lat="47.10687" lon="5.39044">
        <ele>203.40039</ele>
        <time>2026-05-15T09:41:44+02:00</time>
      </trkpt>
      <trkpt lat="47.10692" lon="5.39039">
        <ele>203.90039</ele>
        <time>2026-05-15T09:41:45+02:00</time>
      </trkpt>
      <trkpt lat="47.10697" lon="5.39033">
        <ele>204.40039</ele>
        <time>2026-05-15T09:41:46+02:00</time>
      </trkpt>
      <trkpt lat="47.10701" lon="5.39028">
        <ele>204.7002</ele>
        <time>2026-05-15T09:41:47+02:00</time>
      </trkpt>
      <trkpt lat="47.10706" lon="5.39022">
        <ele>205.2002</ele>
        <time>2026-05-15T09:41:48+02:00</time>
      </trkpt>
      <trkpt lat="47.1071" lon="5.39016">
        <ele>205.2002</ele>
        <time>2026-05-15T09:41:49+02:00</time>
      </trkpt>
      <trkpt lat="47.10715" lon="5.39011">
        <ele>205.5</ele>
        <time>2026-05-15T09:41:50+02:00</time>
      </trkpt>
      <trkpt lat="47.10719" lon="5.39005">
        <ele>205.90039</ele>
        <time>2026-05-15T09:41:51+02:00</time>
      </trkpt>
      <trkpt lat="47.10724" lon="5.38999">
        <ele>206.2002</ele>
        <time>2026-05-15T09:41:52+02:00</time>
      </trkpt>
      <trkpt lat="47.10729" lon="5.38993">
        <ele>206.2002</ele>
        <time>2026-05-15T09:41:53+02:00</time>
      </trkpt>
      <trkpt lat="47.10733" lon="5.38988">
        <ele>206.5</ele>
        <time>2026-05-15T09:41:54+02:00</time>
      </trkpt>
      <trkpt lat="47.10737" lon="5.38982">
        <ele>206.7002</ele>
        <time>2026-05-15T09:41:55+02:00</time>
      </trkpt>
      <trkpt lat="47.10742" lon="5.38977">
        <ele>207.10059</ele>
        <time>2026-05-15T09:41:56+02:00</time>
      </trkpt>
      <trkpt lat="47.10747" lon="5.38972">
        <ele>207.2998</ele>
        <time>2026-05-15T09:41:57+02:00</time>
      </trkpt>
      <trkpt lat="47.10751" lon="5.38966">
        <ele>207.2998</ele>
        <time>2026-05-15T09:41:58+02:00</time>
      </trkpt>
      <trkpt lat="47.10755" lon="5.38961">
        <ele>207.60059</ele>
        <time>2026-05-15T09:41:59+02:00</time>
      </trkpt>
      <trkpt lat="47.10759" lon="5.38955">
        <ele>207.90039</ele>
        <time>2026-05-15T09:42:00+02:00</time>
      </trkpt>
      <trkpt lat="47.10763" lon="5.3895">
        <ele>207.90039</ele>
        <time>2026-05-15T09:42:01+02:00</time>
      </trkpt>
      <trkpt lat="47.10767" lon="5.38945">
        <ele>208.2998</ele>
        <time>2026-05-15T09:42:02+02:00</time>
      </trkpt>
      <trkpt lat="47.10771" lon="5.38941">
        <ele>208.7998</ele>
        <time>2026-05-15T09:42:03+02:00</time>
      </trkpt>
      <trkpt lat="47.10775" lon="5.38936">
        <ele>208.7998</ele>
        <time>2026-05-15T09:42:04+02:00</time>
      </trkpt>
      <trkpt lat="47.10779" lon="5.38931">
        <ele>209.2998</ele>
        <time>2026-05-15T09:42:05+02:00</time>
      </trkpt>
      <trkpt lat="47.10783" lon="5.38927">
        <ele>209.90039</ele>
        <time>2026-05-15T09:42:06+02:00</time>
      </trkpt>
      <trkpt lat="47.10787" lon="5.38922">
        <ele>210</ele>
        <time>2026-05-15T09:42:07+02:00</time>
      </trkpt>
      <trkpt lat="47.1079" lon="5.38918">
        <ele>210.5</ele>
        <time>2026-05-15T09:42:08+02:00</time>
      </trkpt>
      <trkpt lat="47.10794" lon="5.38913">
        <ele>211.2002</ele>
        <time>2026-05-15T09:42:09+02:00</time>
      </trkpt>
      <trkpt lat="47.10798" lon="5.38908">
        <ele>211.2002</ele>
        <time>2026-05-15T09:42:10+02:00</time>
      </trkpt>
      <trkpt lat="47.10802" lon="5.38903">
        <ele>211.7998</ele>
        <time>2026-05-15T09:42:11+02:00</time>
      </trkpt>
      <trkpt lat="47.10806" lon="5.38899">
        <ele>212.2998</ele>
        <time>2026-05-15T09:42:12+02:00</time>
      </trkpt>
      <trkpt lat="47.1081" lon="5.38894">
        <ele>212.40039</ele>
        <time>2026-05-15T09:42:13+02:00</time>
      </trkpt>
      <trkpt lat="47.10813" lon="5.38889">
        <ele>212.7998</ele>
        <time>2026-05-15T09:42:14+02:00</time>
      </trkpt>
      <trkpt lat="47.10817" lon="5.38885">
        <ele>213</ele>
        <time>2026-05-15T09:42:15+02:00</time>
      </trkpt>
      <trkpt lat="47.10819" lon="5.38882">
        <ele>213</ele>
        <time>2026-05-15T09:42:16+02:00</time>
      </trkpt>
      <trkpt lat="47.10825" lon="5.38875">
        <ele>213.10059</ele>
        <time>2026-05-15T09:42:17+02:00</time>
      </trkpt>
      <trkpt lat="47.10829" lon="5.38871">
        <ele>213.40039</ele>
        <time>2026-05-15T09:42:18+02:00</time>
      </trkpt>
      <trkpt lat="47.10832" lon="5.38866">
        <ele>213.2998</ele>
        <time>2026-05-15T09:42:19+02:00</time>
      </trkpt>
      <trkpt lat="47.10836" lon="5.38861">
        <ele>213.40039</ele>
        <time>2026-05-15T09:42:20+02:00</time>
      </trkpt>
      <trkpt lat="47.1084" lon="5.38857">
        <ele>213.40039</ele>
        <time>2026-05-15T09:42:21+02:00</time>
      </trkpt>
      <trkpt lat="47.10844" lon="5.38852">
        <ele>213.40039</ele>
        <time>2026-05-15T09:42:22+02:00</time>
      </trkpt>
      <trkpt lat="47.10848" lon="5.38847">
        <ele>213.7002</ele>
        <time>2026-05-15T09:42:23+02:00</time>
      </trkpt>
      <trkpt lat="47.10851" lon="5.38842">
        <ele>213.40039</ele>
        <time>2026-05-15T09:42:24+02:00</time>
      </trkpt>
      <trkpt lat="47.10856" lon="5.38838">
        <ele>213.60059</ele>
        <time>2026-05-15T09:42:25+02:00</time>
      </trkpt>
      <trkpt lat="47.10859" lon="5.38833">
        <ele>213.60059</ele>
        <time>2026-05-15T09:42:26+02:00</time>
      </trkpt>
      <trkpt lat="47.10863" lon="5.38828">
        <ele>213.60059</ele>
        <time>2026-05-15T09:42:27+02:00</time>
      </trkpt>
      <trkpt lat="47.10867" lon="5.38823">
        <ele>213.60059</ele>
        <time>2026-05-15T09:42:28+02:00</time>
      </trkpt>
      <trkpt lat="47.10872" lon="5.38818">
        <ele>213.5</ele>
        <time>2026-05-15T09:42:29+02:00</time>
      </trkpt>
      <trkpt lat="47.10876" lon="5.38813">
        <ele>213.7998</ele>
        <time>2026-05-15T09:42:30+02:00</time>
      </trkpt>
      <trkpt lat="47.1088" lon="5.38808">
        <ele>213.5</ele>
        <time>2026-05-15T09:42:31+02:00</time>
      </trkpt>
      <trkpt lat="47.10885" lon="5.38803">
        <ele>213.7998</ele>
        <time>2026-05-15T09:42:32+02:00</time>
      </trkpt>
      <trkpt lat="47.10889" lon="5.38798">
        <ele>213.7002</ele>
        <time>2026-05-15T09:42:33+02:00</time>
      </trkpt>
      <trkpt lat="47.10893" lon="5.38793">
        <ele>213.60059</ele>
        <time>2026-05-15T09:42:34+02:00</time>
      </trkpt>
      <trkpt lat="47.10897" lon="5.38788">
        <ele>213.60059</ele>
        <time>2026-05-15T09:42:35+02:00</time>
      </trkpt>
      <trkpt lat="47.10901" lon="5.38782">
        <ele>213.40039</ele>
        <time>2026-05-15T09:42:36+02:00</time>
      </trkpt>
      <trkpt lat="47.10906" lon="5.38777">
        <ele>213.60059</ele>
        <time>2026-05-15T09:42:37+02:00</time>
      </trkpt>
      <trkpt lat="47.1091" lon="5.38772">
        <ele>213.2998</ele>
        <time>2026-05-15T09:42:38+02:00</time>
      </trkpt>
      <trkpt lat="47.10914" lon="5.38767">
        <ele>212.7998</ele>
        <time>2026-05-15T09:42:39+02:00</time>
      </trkpt>
      <trkpt lat="47.10918" lon="5.38762">
        <ele>213</ele>
        <time>2026-05-15T09:42:40+02:00</time>
      </trkpt>
      <trkpt lat="47.10922" lon="5.38757">
        <ele>212.7998</ele>
        <time>2026-05-15T09:42:41+02:00</time>
      </trkpt>
      <trkpt lat="47.10927" lon="5.38751">
        <ele>212.7998</ele>
        <time>2026-05-15T09:42:42+02:00</time>
      </trkpt>
      <trkpt lat="47.10931" lon="5.38746">
        <ele>212.7002</ele>
        <time>2026-05-15T09:42:43+02:00</time>
      </trkpt>
      <trkpt lat="47.10935" lon="5.38741">
        <ele>212.7002</ele>
        <time>2026-05-15T09:42:44+02:00</time>
      </trkpt>
      <trkpt lat="47.1094" lon="5.38735">
        <ele>212.90039</ele>
        <time>2026-05-15T09:42:45+02:00</time>
      </trkpt>
      <trkpt lat="47.10944" lon="5.3873">
        <ele>212.60059</ele>
        <time>2026-05-15T09:42:46+02:00</time>
      </trkpt>
      <trkpt lat="47.10949" lon="5.38725">
        <ele>212.7998</ele>
        <time>2026-05-15T09:42:47+02:00</time>
      </trkpt>
      <trkpt lat="47.10953" lon="5.3872">
        <ele>212.60059</ele>
        <time>2026-05-15T09:42:48+02:00</time>
      </trkpt>
      <trkpt lat="47.10957" lon="5.38714">
        <ele>212.5</ele>
        <time>2026-05-15T09:42:49+02:00</time>
      </trkpt>
      <trkpt lat="47.10962" lon="5.38709">
        <ele>212.5</ele>
        <time>2026-05-15T09:42:50+02:00</time>
      </trkpt>
      <trkpt lat="47.10966" lon="5.38703">
        <ele>212.2998</ele>
        <time>2026-05-15T09:42:51+02:00</time>
      </trkpt>
      <trkpt lat="47.1097" lon="5.38698">
        <ele>212.10059</ele>
        <time>2026-05-15T09:42:52+02:00</time>
      </trkpt>
      <trkpt lat="47.10975" lon="5.38693">
        <ele>212.10059</ele>
        <time>2026-05-15T09:42:53+02:00</time>
      </trkpt>
      <trkpt lat="47.10979" lon="5.38688">
        <ele>211.7998</ele>
        <time>2026-05-15T09:42:54+02:00</time>
      </trkpt>
      <trkpt lat="47.10983" lon="5.38682">
        <ele>211.40039</ele>
        <time>2026-05-15T09:42:55+02:00</time>
      </trkpt>
      <trkpt lat="47.10988" lon="5.38677">
        <ele>211.5</ele>
        <time>2026-05-15T09:42:56+02:00</time>
      </trkpt>
      <trkpt lat="47.10991" lon="5.38672">
        <ele>211.10059</ele>
        <time>2026-05-15T09:42:57+02:00</time>
      </trkpt>
      <trkpt lat="47.10996" lon="5.38667">
        <ele>211.10059</ele>
        <time>2026-05-15T09:42:58+02:00</time>
      </trkpt>
      <trkpt lat="47.10999" lon="5.38662">
        <ele>210.7002</ele>
        <time>2026-05-15T09:42:59+02:00</time>
      </trkpt>
      <trkpt lat="47.11004" lon="5.38657">
        <ele>210.7998</ele>
        <time>2026-05-15T09:43:00+02:00</time>
      </trkpt>
      <trkpt lat="47.11008" lon="5.38652">
        <ele>210.40039</ele>
        <time>2026-05-15T09:43:01+02:00</time>
      </trkpt>
      <trkpt lat="47.11012" lon="5.38647">
        <ele>210</ele>
        <time>2026-05-15T09:43:02+02:00</time>
      </trkpt>
      <trkpt lat="47.11016" lon="5.38642">
        <ele>210.10059</ele>
        <time>2026-05-15T09:43:03+02:00</time>
      </trkpt>
      <trkpt lat="47.1102" lon="5.38637">
        <ele>209.60059</ele>
        <time>2026-05-15T09:43:04+02:00</time>
      </trkpt>
      <trkpt lat="47.11023" lon="5.38632">
        <ele>209.7002</ele>
        <time>2026-05-15T09:43:05+02:00</time>
      </trkpt>
      <trkpt lat="47.11028" lon="5.38627">
        <ele>209.2002</ele>
        <time>2026-05-15T09:43:06+02:00</time>
      </trkpt>
      <trkpt lat="47.11032" lon="5.38622">
        <ele>209.2002</ele>
        <time>2026-05-15T09:43:07+02:00</time>
      </trkpt>
      <trkpt lat="47.11036" lon="5.38617">
        <ele>208.7002</ele>
        <time>2026-05-15T09:43:08+02:00</time>
      </trkpt>
      <trkpt lat="47.11041" lon="5.38611">
        <ele>208.2002</ele>
        <time>2026-05-15T09:43:09+02:00</time>
      </trkpt>
      <trkpt lat="47.11045" lon="5.38606">
        <ele>208.2002</ele>
        <time>2026-05-15T09:43:10+02:00</time>
      </trkpt>
      <trkpt lat="47.11049" lon="5.38601">
        <ele>207.7002</ele>
        <time>2026-05-15T09:43:11+02:00</time>
      </trkpt>
      <trkpt lat="47.11054" lon="5.38595">
        <ele>207.2998</ele>
        <time>2026-05-15T09:43:12+02:00</time>
      </trkpt>
      <trkpt lat="47.11059" lon="5.38589">
        <ele>207.40039</ele>
        <time>2026-05-15T09:43:13+02:00</time>
      </trkpt>
      <trkpt lat="47.11064" lon="5.38583">
        <ele>207.10059</ele>
        <time>2026-05-15T09:43:14+02:00</time>
      </trkpt>
      <trkpt lat="47.11068" lon="5.38578">
        <ele>206.90039</ele>
        <time>2026-05-15T09:43:15+02:00</time>
      </trkpt>
      <trkpt lat="47.11073" lon="5.38572">
        <ele>206.90039</ele>
        <time>2026-05-15T09:43:16+02:00</time>
      </trkpt>
      <trkpt lat="47.11078" lon="5.38566">
        <ele>206.7998</ele>
        <time>2026-05-15T09:43:17+02:00</time>
      </trkpt>
      <trkpt lat="47.11081" lon="5.38563">
        <ele>206.90039</ele>
        <time>2026-05-15T09:43:18+02:00</time>
      </trkpt>
      <trkpt lat="47.11088" lon="5.38554">
        <ele>206.90039</ele>
        <time>2026-05-15T09:43:19+02:00</time>
      </trkpt>
      <trkpt lat="47.11092" lon="5.38548">
        <ele>206.90039</ele>
        <time>2026-05-15T09:43:20+02:00</time>
      </trkpt>
      <trkpt lat="47.11097" lon="5.38543">
        <ele>206.90039</ele>
        <time>2026-05-15T09:43:21+02:00</time>
      </trkpt>
      <trkpt lat="47.11101" lon="5.38537">
        <ele>206.90039</ele>
        <time>2026-05-15T09:43:22+02:00</time>
      </trkpt>
      <trkpt lat="47.11106" lon="5.38531">
        <ele>206.90039</ele>
        <time>2026-05-15T09:43:23+02:00</time>
      </trkpt>
      <trkpt lat="47.1111" lon="5.38526">
        <ele>206.7998</ele>
        <time>2026-05-15T09:43:24+02:00</time>
      </trkpt>
      <trkpt lat="47.11115" lon="5.3852">
        <ele>207</ele>
        <time>2026-05-15T09:43:25+02:00</time>
      </trkpt>
      <trkpt lat="47.11119" lon="5.38515">
        <ele>206.7002</ele>
        <time>2026-05-15T09:43:26+02:00</time>
      </trkpt>
      <trkpt lat="47.11123" lon="5.38509">
        <ele>206.60059</ele>
        <time>2026-05-15T09:43:27+02:00</time>
      </trkpt>
      <trkpt lat="47.11128" lon="5.38504">
        <ele>206.7002</ele>
        <time>2026-05-15T09:43:28+02:00</time>
      </trkpt>
      <trkpt lat="47.11132" lon="5.38499">
        <ele>206.5</ele>
        <time>2026-05-15T09:43:29+02:00</time>
      </trkpt>
      <trkpt lat="47.11137" lon="5.38493">
        <ele>206.10059</ele>
        <time>2026-05-15T09:43:30+02:00</time>
      </trkpt>
      <trkpt lat="47.11141" lon="5.38488">
        <ele>206.2002</ele>
        <time>2026-05-15T09:43:31+02:00</time>
      </trkpt>
      <trkpt lat="47.11146" lon="5.38483">
        <ele>205.90039</ele>
        <time>2026-05-15T09:43:32+02:00</time>
      </trkpt>
      <trkpt lat="47.1115" lon="5.38478">
        <ele>205.90039</ele>
        <time>2026-05-15T09:43:33+02:00</time>
      </trkpt>
      <trkpt lat="47.11155" lon="5.38473">
        <ele>205.5</ele>
        <time>2026-05-15T09:43:34+02:00</time>
      </trkpt>
      <trkpt lat="47.1116" lon="5.38468">
        <ele>205.5</ele>
        <time>2026-05-15T09:43:35+02:00</time>
      </trkpt>
      <trkpt lat="47.11165" lon="5.38463">
        <ele>205.10059</ele>
        <time>2026-05-15T09:43:36+02:00</time>
      </trkpt>
      <trkpt lat="47.1117" lon="5.38459">
        <ele>205</ele>
        <time>2026-05-15T09:43:37+02:00</time>
      </trkpt>
      <trkpt lat="47.11175" lon="5.38455">
        <ele>204.7002</ele>
        <time>2026-05-15T09:43:38+02:00</time>
      </trkpt>
      <trkpt lat="47.1118" lon="5.3845">
        <ele>204.2998</ele>
        <time>2026-05-15T09:43:39+02:00</time>
      </trkpt>
      <trkpt lat="47.11185" lon="5.38446">
        <ele>204.2998</ele>
        <time>2026-05-15T09:43:40+02:00</time>
      </trkpt>
      <trkpt lat="47.1119" lon="5.38442">
        <ele>204.2998</ele>
        <time>2026-05-15T09:43:41+02:00</time>
      </trkpt>
      <trkpt lat="47.11195" lon="5.38439">
        <ele>203.7998</ele>
        <time>2026-05-15T09:43:42+02:00</time>
      </trkpt>
      <trkpt lat="47.112" lon="5.38435">
        <ele>203.7998</ele>
        <time>2026-05-15T09:43:43+02:00</time>
      </trkpt>
      <trkpt lat="47.11205" lon="5.38432">
        <ele>203.2002</ele>
        <time>2026-05-15T09:43:44+02:00</time>
      </trkpt>
      <trkpt lat="47.1121" lon="5.38429">
        <ele>203.2002</ele>
        <time>2026-05-15T09:43:45+02:00</time>
      </trkpt>
      <trkpt lat="47.11216" lon="5.38427">
        <ele>203.10059</ele>
        <time>2026-05-15T09:43:46+02:00</time>
      </trkpt>
      <trkpt lat="47.11221" lon="5.38424">
        <ele>202.40039</ele>
        <time>2026-05-15T09:43:47+02:00</time>
      </trkpt>
      <trkpt lat="47.11226" lon="5.38422">
        <ele>202.2998</ele>
        <time>2026-05-15T09:43:48+02:00</time>
      </trkpt>
      <trkpt lat="47.11231" lon="5.38419">
        <ele>202.2998</ele>
        <time>2026-05-15T09:43:49+02:00</time>
      </trkpt>
      <trkpt lat="47.11237" lon="5.38417">
        <ele>202.10059</ele>
        <time>2026-05-15T09:43:50+02:00</time>
      </trkpt>
      <trkpt lat="47.11242" lon="5.38415">
        <ele>201.5</ele>
        <time>2026-05-15T09:43:51+02:00</time>
      </trkpt>
      <trkpt lat="47.11248" lon="5.38412">
        <ele>201.2998</ele>
        <time>2026-05-15T09:43:52+02:00</time>
      </trkpt>
      <trkpt lat="47.11254" lon="5.3841">
        <ele>201.2002</ele>
        <time>2026-05-15T09:43:53+02:00</time>
      </trkpt>
      <trkpt lat="47.1126" lon="5.38407">
        <ele>200.7998</ele>
        <time>2026-05-15T09:43:54+02:00</time>
      </trkpt>
      <trkpt lat="47.11265" lon="5.38405">
        <ele>200.7002</ele>
        <time>2026-05-15T09:43:55+02:00</time>
      </trkpt>
      <trkpt lat="47.11271" lon="5.38403">
        <ele>200.7002</ele>
        <time>2026-05-15T09:43:56+02:00</time>
      </trkpt>
      <trkpt lat="47.11277" lon="5.384">
        <ele>200.7002</ele>
        <time>2026-05-15T09:43:57+02:00</time>
      </trkpt>
      <trkpt lat="47.11282" lon="5.38398">
        <ele>200.40039</ele>
        <time>2026-05-15T09:43:58+02:00</time>
      </trkpt>
      <trkpt lat="47.11288" lon="5.38395">
        <ele>200.5</ele>
        <time>2026-05-15T09:43:59+02:00</time>
      </trkpt>
      <trkpt lat="47.11294" lon="5.38393">
        <ele>200.60059</ele>
        <time>2026-05-15T09:44:00+02:00</time>
      </trkpt>
      <trkpt lat="47.11299" lon="5.38391">
        <ele>200.7002</ele>
        <time>2026-05-15T09:44:01+02:00</time>
      </trkpt>
      <trkpt lat="47.11305" lon="5.38388">
        <ele>200.5</ele>
        <time>2026-05-15T09:44:02+02:00</time>
      </trkpt>
      <trkpt lat="47.1131" lon="5.38386">
        <ele>200.5</ele>
        <time>2026-05-15T09:44:03+02:00</time>
      </trkpt>
      <trkpt lat="47.11315" lon="5.38383">
        <ele>200.60059</ele>
        <time>2026-05-15T09:44:04+02:00</time>
      </trkpt>
      <trkpt lat="47.11321" lon="5.38381">
        <ele>200.40039</ele>
        <time>2026-05-15T09:44:05+02:00</time>
      </trkpt>
      <trkpt lat="47.11326" lon="5.38378">
        <ele>200.5</ele>
        <time>2026-05-15T09:44:06+02:00</time>
      </trkpt>
      <trkpt lat="47.11331" lon="5.38376">
        <ele>200.5</ele>
        <time>2026-05-15T09:44:07+02:00</time>
      </trkpt>
      <trkpt lat="47.11336" lon="5.38374">
        <ele>200.5</ele>
        <time>2026-05-15T09:44:08+02:00</time>
      </trkpt>
      <trkpt lat="47.11341" lon="5.38372">
        <ele>200.2998</ele>
        <time>2026-05-15T09:44:09+02:00</time>
      </trkpt>
      <trkpt lat="47.11347" lon="5.38369">
        <ele>200.40039</ele>
        <time>2026-05-15T09:44:10+02:00</time>
      </trkpt>
      <trkpt lat="47.11352" lon="5.38367">
        <ele>200.40039</ele>
        <time>2026-05-15T09:44:11+02:00</time>
      </trkpt>
      <trkpt lat="47.11356" lon="5.38365">
        <ele>200.40039</ele>
        <time>2026-05-15T09:44:12+02:00</time>
      </trkpt>
      <trkpt lat="47.11361" lon="5.38363">
        <ele>200.2002</ele>
        <time>2026-05-15T09:44:13+02:00</time>
      </trkpt>
      <trkpt lat="47.11364" lon="5.38362">
        <ele>200.2002</ele>
        <time>2026-05-15T09:44:14+02:00</time>
      </trkpt>
      <trkpt lat="47.11372" lon="5.38359">
        <ele>200.2998</ele>
        <time>2026-05-15T09:44:15+02:00</time>
      </trkpt>
      <trkpt lat="47.11377" lon="5.38358">
        <ele>200.2998</ele>
        <time>2026-05-15T09:44:16+02:00</time>
      </trkpt>
      <trkpt lat="47.11382" lon="5.38357">
        <ele>200.2998</ele>
        <time>2026-05-15T09:44:17+02:00</time>
      </trkpt>
      <trkpt lat="47.11387" lon="5.38356">
        <ele>200.40039</ele>
        <time>2026-05-15T09:44:18+02:00</time>
      </trkpt>
      <trkpt lat="47.11393" lon="5.38355">
        <ele>200.2998</ele>
        <time>2026-05-15T09:44:19+02:00</time>
      </trkpt>
      <trkpt lat="47.11398" lon="5.38355">
        <ele>200.40039</ele>
        <time>2026-05-15T09:44:20+02:00</time>
      </trkpt>
      <trkpt lat="47.11403" lon="5.38354">
        <ele>200.5</ele>
        <time>2026-05-15T09:44:21+02:00</time>
      </trkpt>
      <trkpt lat="47.11409" lon="5.38354">
        <ele>200.60059</ele>
        <time>2026-05-15T09:44:22+02:00</time>
      </trkpt>
      <trkpt lat="47.11414" lon="5.38354">
        <ele>200.7998</ele>
        <time>2026-05-15T09:44:23+02:00</time>
      </trkpt>
      <trkpt lat="47.11419" lon="5.38354">
        <ele>200.90039</ele>
        <time>2026-05-15T09:44:24+02:00</time>
      </trkpt>
      <trkpt lat="47.11424" lon="5.38355">
        <ele>200.90039</ele>
        <time>2026-05-15T09:44:25+02:00</time>
      </trkpt>
      <trkpt lat="47.1143" lon="5.38355">
        <ele>201.2998</ele>
        <time>2026-05-15T09:44:26+02:00</time>
      </trkpt>
      <trkpt lat="47.11435" lon="5.38356">
        <ele>201.60059</ele>
        <time>2026-05-15T09:44:27+02:00</time>
      </trkpt>
      <trkpt lat="47.1144" lon="5.38357">
        <ele>201.7002</ele>
        <time>2026-05-15T09:44:28+02:00</time>
      </trkpt>
      <trkpt lat="47.11445" lon="5.38357">
        <ele>201.7998</ele>
        <time>2026-05-15T09:44:29+02:00</time>
      </trkpt>
      <trkpt lat="47.1145" lon="5.38358">
        <ele>202</ele>
        <time>2026-05-15T09:44:30+02:00</time>
      </trkpt>
      <trkpt lat="47.11455" lon="5.38359">
        <ele>202</ele>
        <time>2026-05-15T09:44:31+02:00</time>
      </trkpt>
      <trkpt lat="47.11459" lon="5.38359">
        <ele>202</ele>
        <time>2026-05-15T09:44:32+02:00</time>
      </trkpt>
      <trkpt lat="47.11464" lon="5.3836">
        <ele>202.10059</ele>
        <time>2026-05-15T09:44:33+02:00</time>
      </trkpt>
      <trkpt lat="47.11469" lon="5.38361">
        <ele>202.10059</ele>
        <time>2026-05-15T09:44:34+02:00</time>
      </trkpt>
      <trkpt lat="47.11474" lon="5.38362">
        <ele>202.10059</ele>
        <time>2026-05-15T09:44:35+02:00</time>
      </trkpt>
      <trkpt lat="47.11479" lon="5.38363">
        <ele>202.10059</ele>
        <time>2026-05-15T09:44:36+02:00</time>
      </trkpt>
      <trkpt lat="47.11484" lon="5.38364">
        <ele>202.10059</ele>
        <time>2026-05-15T09:44:37+02:00</time>
      </trkpt>
      <trkpt lat="47.11488" lon="5.38365">
        <ele>202.40039</ele>
        <time>2026-05-15T09:44:38+02:00</time>
      </trkpt>
      <trkpt lat="47.11493" lon="5.38366">
        <ele>202.2998</ele>
        <time>2026-05-15T09:44:39+02:00</time>
      </trkpt>
      <trkpt lat="47.11498" lon="5.38367">
        <ele>202.2998</ele>
        <time>2026-05-15T09:44:40+02:00</time>
      </trkpt>
      <trkpt lat="47.11503" lon="5.38368">
        <ele>202.2998</ele>
        <time>2026-05-15T09:44:41+02:00</time>
      </trkpt>
      <trkpt lat="47.11508" lon="5.38369">
        <ele>202.2998</ele>
        <time>2026-05-15T09:44:42+02:00</time>
      </trkpt>
      <trkpt lat="47.11513" lon="5.3837">
        <ele>202.2998</ele>
        <time>2026-05-15T09:44:43+02:00</time>
      </trkpt>
      <trkpt lat="47.11517" lon="5.3837">
        <ele>202.2998</ele>
        <time>2026-05-15T09:44:44+02:00</time>
      </trkpt>
      <trkpt lat="47.11522" lon="5.38371">
        <ele>202.2998</ele>
        <time>2026-05-15T09:44:45+02:00</time>
      </trkpt>
      <trkpt lat="47.11527" lon="5.38372">
        <ele>202.2998</ele>
        <time>2026-05-15T09:44:46+02:00</time>
      </trkpt>
      <trkpt lat="47.11531" lon="5.38373">
        <ele>202.7002</ele>
        <time>2026-05-15T09:44:47+02:00</time>
      </trkpt>
      <trkpt lat="47.11536" lon="5.38374">
        <ele>202.7002</ele>
        <time>2026-05-15T09:44:48+02:00</time>
      </trkpt>
      <trkpt lat="47.1154" lon="5.38375">
        <ele>202.7002</ele>
        <time>2026-05-15T09:44:49+02:00</time>
      </trkpt>
      <trkpt lat="47.11545" lon="5.38377">
        <ele>202.7002</ele>
        <time>2026-05-15T09:44:50+02:00</time>
      </trkpt>
      <trkpt lat="47.11549" lon="5.38378">
        <ele>202.7998</ele>
        <time>2026-05-15T09:44:51+02:00</time>
      </trkpt>
      <trkpt lat="47.11553" lon="5.38379">
        <ele>202.7998</ele>
        <time>2026-05-15T09:44:52+02:00</time>
      </trkpt>
      <trkpt lat="47.11558" lon="5.3838">
        <ele>202.7998</ele>
        <time>2026-05-15T09:44:53+02:00</time>
      </trkpt>
      <trkpt lat="47.11561" lon="5.38382">
        <ele>203.2998</ele>
        <time>2026-05-15T09:44:54+02:00</time>
      </trkpt>
      <trkpt lat="47.11565" lon="5.38383">
        <ele>203.40039</ele>
        <time>2026-05-15T09:44:55+02:00</time>
      </trkpt>
      <trkpt lat="47.11569" lon="5.38384">
        <ele>203.40039</ele>
        <time>2026-05-15T09:44:56+02:00</time>
      </trkpt>
      <trkpt lat="47.11571" lon="5.38386">
        <ele>203.5</ele>
        <time>2026-05-15T09:44:57+02:00</time>
      </trkpt>
      <trkpt lat="47.11572" lon="5.38386">
        <ele>203.5</ele>
        <time>2026-05-15T09:44:58+02:00</time>
      </trkpt>
      <trkpt lat="47.11575" lon="5.38387">
        <ele>203.5</ele>
        <time>2026-05-15T09:44:59+02:00</time>
      </trkpt>
      <trkpt lat="47.11577" lon="5.38388">
        <ele>203.7002</ele>
        <time>2026-05-15T09:45:00+02:00</time>
      </trkpt>
      <trkpt lat="47.11579" lon="5.38387">
        <ele>203.7002</ele>
        <time>2026-05-15T09:45:01+02:00</time>
      </trkpt>
      <trkpt lat="47.1158" lon="5.38385">
        <ele>203.7002</ele>
        <time>2026-05-15T09:45:02+02:00</time>
      </trkpt>
      <trkpt lat="47.11582" lon="5.38382">
        <ele>203.7998</ele>
        <time>2026-05-15T09:45:03+02:00</time>
      </trkpt>
      <trkpt lat="47.11584" lon="5.38379">
        <ele>203.40039</ele>
        <time>2026-05-15T09:45:04+02:00</time>
      </trkpt>
      <trkpt lat="47.11586" lon="5.38376">
        <ele>203.40039</ele>
        <time>2026-05-15T09:45:05+02:00</time>
      </trkpt>
      <trkpt lat="47.11588" lon="5.38372">
        <ele>203.10059</ele>
        <time>2026-05-15T09:45:06+02:00</time>
      </trkpt>
      <trkpt lat="47.11589" lon="5.38369">
        <ele>203.10059</ele>
        <time>2026-05-15T09:45:07+02:00</time>
      </trkpt>
      <trkpt lat="47.11591" lon="5.38365">
        <ele>203.10059</ele>
        <time>2026-05-15T09:45:08+02:00</time>
      </trkpt>
      <trkpt lat="47.11593" lon="5.38361">
        <ele>202.7002</ele>
        <time>2026-05-15T09:45:09+02:00</time>
      </trkpt>
      <trkpt lat="47.11594" lon="5.38356">
        <ele>202.7998</ele>
        <time>2026-05-15T09:45:10+02:00</time>
      </trkpt>
      <trkpt lat="47.11596" lon="5.38353">
        <ele>202.5</ele>
        <time>2026-05-15T09:45:11+02:00</time>
      </trkpt>
      <trkpt lat="47.11597" lon="5.38349">
        <ele>202.5</ele>
        <time>2026-05-15T09:45:12+02:00</time>
      </trkpt>
      <trkpt lat="47.11599" lon="5.38345">
        <ele>202.10059</ele>
        <time>2026-05-15T09:45:13+02:00</time>
      </trkpt>
      <trkpt lat="47.116" lon="5.3834">
        <ele>202.2002</ele>
        <time>2026-05-15T09:45:14+02:00</time>
      </trkpt>
      <trkpt lat="47.11602" lon="5.38336">
        <ele>201.90039</ele>
        <time>2026-05-15T09:45:15+02:00</time>
      </trkpt>
      <trkpt lat="47.11604" lon="5.38332">
        <ele>201.90039</ele>
        <time>2026-05-15T09:45:16+02:00</time>
      </trkpt>
      <trkpt lat="47.11605" lon="5.38328">
        <ele>201.5</ele>
        <time>2026-05-15T09:45:17+02:00</time>
      </trkpt>
      <trkpt lat="47.11607" lon="5.38325">
        <ele>201.60059</ele>
        <time>2026-05-15T09:45:18+02:00</time>
      </trkpt>
      <trkpt lat="47.11609" lon="5.38322">
        <ele>201.60059</ele>
        <time>2026-05-15T09:45:19+02:00</time>
      </trkpt>
      <trkpt lat="47.11611" lon="5.3832">
        <ele>201.2998</ele>
        <time>2026-05-15T09:45:20+02:00</time>
      </trkpt>
      <trkpt lat="47.11614" lon="5.38321">
        <ele>201.2998</ele>
        <time>2026-05-15T09:45:21+02:00</time>
      </trkpt>
      <trkpt lat="47.11615" lon="5.38323">
        <ele>201.7002</ele>
        <time>2026-05-15T09:45:22+02:00</time>
      </trkpt>
      <trkpt lat="47.11616" lon="5.38324">
        <ele>201.7002</ele>
        <time>2026-05-15T09:45:23+02:00</time>
      </trkpt>
      <trkpt lat="47.11616" lon="5.38325">
        <ele>201.7002</ele>
        <time>2026-05-15T09:45:24+02:00</time>
      </trkpt>
      <trkpt lat="47.11616" lon="5.38325">
        <ele>201.7002</ele>
        <time>2026-05-15T09:45:25+02:00</time>
      </trkpt>
      <trkpt lat="47.11616" lon="5.38325">
        <ele>201.7002</ele>
        <time>2026-05-15T09:45:26+02:00</time>
      </trkpt>
      <trkpt lat="47.11616" lon="5.38325">
        <ele>201.7002</ele>
        <time>2026-05-15T09:45:27+02:00</time>
      </trkpt>
      <trkpt lat="47.11606" lon="5.38324">
        <ele>201.60059</ele>
        <time>2026-05-15T09:46:01+02:00</time>
      </trkpt>
      <trkpt lat="47.11604" lon="5.38325">
        <ele>201.5</ele>
        <time>2026-05-15T09:46:02+02:00</time>
      </trkpt>
      <trkpt lat="47.11602" lon="5.38328">
        <ele>201.5</ele>
        <time>2026-05-15T09:46:03+02:00</time>
      </trkpt>
      <trkpt lat="47.116" lon="5.38331">
        <ele>201.90039</ele>
        <time>2026-05-15T09:46:04+02:00</time>
      </trkpt>
      <trkpt lat="47.11598" lon="5.38335">
        <ele>201.7998</ele>
        <time>2026-05-15T09:46:05+02:00</time>
      </trkpt>
      <trkpt lat="47.11597" lon="5.38339">
        <ele>202.10059</ele>
        <time>2026-05-15T09:46:06+02:00</time>
      </trkpt>
      <trkpt lat="47.11596" lon="5.38342">
        <ele>202.10059</ele>
        <time>2026-05-15T09:46:07+02:00</time>
      </trkpt>
      <trkpt lat="47.11595" lon="5.38346">
        <ele>202.10059</ele>
        <time>2026-05-15T09:46:08+02:00</time>
      </trkpt>
      <trkpt lat="47.11593" lon="5.3835">
        <ele>202.2998</ele>
        <time>2026-05-15T09:46:09+02:00</time>
      </trkpt>
      <trkpt lat="47.11591" lon="5.38352">
        <ele>202.2998</ele>
        <time>2026-05-15T09:46:10+02:00</time>
      </trkpt>
      <trkpt lat="47.1159" lon="5.38354">
        <ele>202.2998</ele>
        <time>2026-05-15T09:46:11+02:00</time>
      </trkpt>
      <trkpt lat="47.11588" lon="5.38356">
        <ele>202.7002</ele>
        <time>2026-05-15T09:46:12+02:00</time>
      </trkpt>
      <trkpt lat="47.11587" lon="5.38358">
        <ele>202.60059</ele>
        <time>2026-05-15T09:46:13+02:00</time>
      </trkpt>
      <trkpt lat="47.11586" lon="5.38359">
        <ele>202.60059</ele>
        <time>2026-05-15T09:46:14+02:00</time>
      </trkpt>
      <trkpt lat="47.11585" lon="5.3836">
        <ele>202.60059</ele>
        <time>2026-05-15T09:46:15+02:00</time>
      </trkpt>
      <trkpt lat="47.11583" lon="5.38361">
        <ele>202.60059</ele>
        <time>2026-05-15T09:46:16+02:00</time>
      </trkpt>
      <trkpt lat="47.11582" lon="5.38362">
        <ele>202.60059</ele>
        <time>2026-05-15T09:46:17+02:00</time>
      </trkpt>
      <trkpt lat="47.11581" lon="5.38364">
        <ele>202.40039</ele>
        <time>2026-05-15T09:46:18+02:00</time>
      </trkpt>
      <trkpt lat="47.11581" lon="5.38365">
        <ele>202.7998</ele>
        <time>2026-05-15T09:46:19+02:00</time>
      </trkpt>
      <trkpt lat="47.11581" lon="5.38365">
        <ele>202.7998</ele>
        <time>2026-05-15T09:46:20+02:00</time>
      </trkpt>
      <trkpt lat="47.1158" lon="5.38365">
        <ele>202.7998</ele>
        <time>2026-05-15T09:46:21+02:00</time>
      </trkpt>
      <trkpt lat="47.1158" lon="5.38365">
        <ele>202.7998</ele>
        <time>2026-05-15T09:46:22+02:00</time>
      </trkpt>
      <trkpt lat="47.11599" lon="5.38349">
        <ele>202.5</ele>
        <time>2026-05-15T09:56:05+02:00</time>
      </trkpt>
      <trkpt lat="47.11601" lon="5.38344">
        <ele>202.2002</ele>
        <time>2026-05-15T09:56:06+02:00</time>
      </trkpt>
      <trkpt lat="47.11603" lon="5.38339">
        <ele>202.2002</ele>
        <time>2026-05-15T09:56:07+02:00</time>
      </trkpt>
      <trkpt lat="47.11605" lon="5.38335">
        <ele>201.90039</ele>
        <time>2026-05-15T09:56:08+02:00</time>
      </trkpt>
      <trkpt lat="47.11607" lon="5.3833">
        <ele>201.60059</ele>
        <time>2026-05-15T09:56:09+02:00</time>
      </trkpt>
      <trkpt lat="47.11609" lon="5.38325">
        <ele>201.60059</ele>
        <time>2026-05-15T09:56:10+02:00</time>
      </trkpt>
      <trkpt lat="47.11612" lon="5.3832">
        <ele>201.2998</ele>
        <time>2026-05-15T09:56:11+02:00</time>
      </trkpt>
      <trkpt lat="47.11615" lon="5.38315">
        <ele>201.2998</ele>
        <time>2026-05-15T09:56:12+02:00</time>
      </trkpt>
      <trkpt lat="47.11617" lon="5.38309">
        <ele>201.10059</ele>
        <time>2026-05-15T09:56:13+02:00</time>
      </trkpt>
      <trkpt lat="47.1162" lon="5.38303">
        <ele>200.7002</ele>
        <time>2026-05-15T09:56:14+02:00</time>
      </trkpt>
      <trkpt lat="47.11624" lon="5.38298">
        <ele>200.7998</ele>
        <time>2026-05-15T09:56:15+02:00</time>
      </trkpt>
      <trkpt lat="47.11627" lon="5.38292">
        <ele>200.40039</ele>
        <time>2026-05-15T09:56:16+02:00</time>
      </trkpt>
      <trkpt lat="47.1163" lon="5.38286">
        <ele>200.10059</ele>
        <time>2026-05-15T09:56:17+02:00</time>
      </trkpt>
      <trkpt lat="47.11633" lon="5.3828">
        <ele>200.10059</ele>
        <time>2026-05-15T09:56:18+02:00</time>
      </trkpt>
      <trkpt lat="47.11635" lon="5.38277">
        <ele>199.7998</ele>
        <time>2026-05-15T09:56:19+02:00</time>
      </trkpt>
      <trkpt lat="47.1164" lon="5.38267">
        <ele>199.5</ele>
        <time>2026-05-15T09:56:20+02:00</time>
      </trkpt>
      <trkpt lat="47.11643" lon="5.38261">
        <ele>199.10059</ele>
        <time>2026-05-15T09:56:21+02:00</time>
      </trkpt>
      <trkpt lat="47.11646" lon="5.38255">
        <ele>199.10059</ele>
        <time>2026-05-15T09:56:22+02:00</time>
      </trkpt>
      <trkpt lat="47.1165" lon="5.38248">
        <ele>198.7998</ele>
        <time>2026-05-15T09:56:23+02:00</time>
      </trkpt>
      <trkpt lat="47.11654" lon="5.38242">
        <ele>198.5</ele>
        <time>2026-05-15T09:56:24+02:00</time>
      </trkpt>
      <trkpt lat="47.11657" lon="5.38235">
        <ele>198.2002</ele>
        <time>2026-05-15T09:56:25+02:00</time>
      </trkpt>
      <trkpt lat="47.11661" lon="5.38228">
        <ele>198.2998</ele>
        <time>2026-05-15T09:56:26+02:00</time>
      </trkpt>
      <trkpt lat="47.11664" lon="5.38221">
        <ele>198</ele>
        <time>2026-05-15T09:56:27+02:00</time>
      </trkpt>
      <trkpt lat="47.11668" lon="5.38215">
        <ele>197.7998</ele>
        <time>2026-05-15T09:56:28+02:00</time>
      </trkpt>
      <trkpt lat="47.11672" lon="5.38208">
        <ele>197.60059</ele>
        <time>2026-05-15T09:56:29+02:00</time>
      </trkpt>
      <trkpt lat="47.11676" lon="5.38201">
        <ele>197.5</ele>
        <time>2026-05-15T09:56:30+02:00</time>
      </trkpt>
      <trkpt lat="47.1168" lon="5.38195">
        <ele>197.5</ele>
        <time>2026-05-15T09:56:31+02:00</time>
      </trkpt>
      <trkpt lat="47.11684" lon="5.38189">
        <ele>197.40039</ele>
        <time>2026-05-15T09:56:32+02:00</time>
      </trkpt>
      <trkpt lat="47.11688" lon="5.38182">
        <ele>197.2998</ele>
        <time>2026-05-15T09:56:33+02:00</time>
      </trkpt>
      <trkpt lat="47.11691" lon="5.38175">
        <ele>197.2002</ele>
        <time>2026-05-15T09:56:34+02:00</time>
      </trkpt>
      <trkpt lat="47.11696" lon="5.38168">
        <ele>197.2998</ele>
        <time>2026-05-15T09:56:35+02:00</time>
      </trkpt>
      <trkpt lat="47.11699" lon="5.38161">
        <ele>197.2002</ele>
        <time>2026-05-15T09:56:36+02:00</time>
      </trkpt>
      <trkpt lat="47.11704" lon="5.38154">
        <ele>197.10059</ele>
        <time>2026-05-15T09:56:37+02:00</time>
      </trkpt>
      <trkpt lat="47.11707" lon="5.38147">
        <ele>197.10059</ele>
        <time>2026-05-15T09:56:38+02:00</time>
      </trkpt>
      <trkpt lat="47.11712" lon="5.3814">
        <ele>197</ele>
        <time>2026-05-15T09:56:39+02:00</time>
      </trkpt>
      <trkpt lat="47.11715" lon="5.38133">
        <ele>197</ele>
        <time>2026-05-15T09:56:40+02:00</time>
      </trkpt>
      <trkpt lat="47.11718" lon="5.38129">
        <ele>197</ele>
        <time>2026-05-15T09:56:41+02:00</time>
      </trkpt>
      <trkpt lat="47.11723" lon="5.38119">
        <ele>196.90039</ele>
        <time>2026-05-15T09:56:42+02:00</time>
      </trkpt>
      <trkpt lat="47.11728" lon="5.38112">
        <ele>196.7998</ele>
        <time>2026-05-15T09:56:43+02:00</time>
      </trkpt>
      <trkpt lat="47.11731" lon="5.38105">
        <ele>196.60059</ele>
        <time>2026-05-15T09:56:44+02:00</time>
      </trkpt>
      <trkpt lat="47.11735" lon="5.38098">
        <ele>196.5</ele>
        <time>2026-05-15T09:56:45+02:00</time>
      </trkpt>
      <trkpt lat="47.11739" lon="5.38091">
        <ele>196.5</ele>
        <time>2026-05-15T09:56:46+02:00</time>
      </trkpt>
      <trkpt lat="47.11743" lon="5.38084">
        <ele>196.40039</ele>
        <time>2026-05-15T09:56:47+02:00</time>
      </trkpt>
      <trkpt lat="47.11747" lon="5.38076">
        <ele>196.2002</ele>
        <time>2026-05-15T09:56:48+02:00</time>
      </trkpt>
      <trkpt lat="47.11751" lon="5.38069">
        <ele>196.10059</ele>
        <time>2026-05-15T09:56:49+02:00</time>
      </trkpt>
      <trkpt lat="47.11755" lon="5.38062">
        <ele>195.90039</ele>
        <time>2026-05-15T09:56:50+02:00</time>
      </trkpt>
      <trkpt lat="47.11759" lon="5.38055">
        <ele>195.7998</ele>
        <time>2026-05-15T09:56:51+02:00</time>
      </trkpt>
      <trkpt lat="47.11771" lon="5.38033">
        <ele>195.7998</ele>
        <time>2026-05-15T09:56:52+02:00</time>
      </trkpt>
      <trkpt lat="47.11775" lon="5.38026">
        <ele>195.90039</ele>
        <time>2026-05-15T09:56:53+02:00</time>
      </trkpt>
      <trkpt lat="47.11779" lon="5.38018">
        <ele>195.7002</ele>
        <time>2026-05-15T09:56:54+02:00</time>
      </trkpt>
      <trkpt lat="47.11783" lon="5.38011">
        <ele>195.7998</ele>
        <time>2026-05-15T09:56:55+02:00</time>
      </trkpt>
      <trkpt lat="47.11787" lon="5.38004">
        <ele>196</ele>
        <time>2026-05-15T09:56:56+02:00</time>
      </trkpt>
      <trkpt lat="47.11791" lon="5.37997">
        <ele>195.7998</ele>
        <time>2026-05-15T09:56:57+02:00</time>
      </trkpt>
      <trkpt lat="47.11796" lon="5.37989">
        <ele>195.90039</ele>
        <time>2026-05-15T09:56:58+02:00</time>
      </trkpt>
      <trkpt lat="47.11799" lon="5.37982">
        <ele>196</ele>
        <time>2026-05-15T09:56:59+02:00</time>
      </trkpt>
      <trkpt lat="47.11804" lon="5.37975">
        <ele>196.10059</ele>
        <time>2026-05-15T09:57:00+02:00</time>
      </trkpt>
      <trkpt lat="47.11808" lon="5.37967">
        <ele>195.90039</ele>
        <time>2026-05-15T09:57:01+02:00</time>
      </trkpt>
      <trkpt lat="47.11812" lon="5.3796">
        <ele>195.90039</ele>
        <time>2026-05-15T09:57:02+02:00</time>
      </trkpt>
      <trkpt lat="47.11817" lon="5.37952">
        <ele>196</ele>
        <time>2026-05-15T09:57:03+02:00</time>
      </trkpt>
      <trkpt lat="47.11821" lon="5.37944">
        <ele>196</ele>
        <time>2026-05-15T09:57:04+02:00</time>
      </trkpt>
      <trkpt lat="47.11825" lon="5.37937">
        <ele>196</ele>
        <time>2026-05-15T09:57:05+02:00</time>
      </trkpt>
      <trkpt lat="47.11829" lon="5.37929">
        <ele>196</ele>
        <time>2026-05-15T09:57:06+02:00</time>
      </trkpt>
      <trkpt lat="47.11833" lon="5.37921">
        <ele>195.7998</ele>
        <time>2026-05-15T09:57:07+02:00</time>
      </trkpt>
      <trkpt lat="47.11837" lon="5.37913">
        <ele>195.7998</ele>
        <time>2026-05-15T09:57:08+02:00</time>
      </trkpt>
      <trkpt lat="47.11841" lon="5.37906">
        <ele>195.7998</ele>
        <time>2026-05-15T09:57:09+02:00</time>
      </trkpt>
      <trkpt lat="47.11845" lon="5.37898">
        <ele>195.90039</ele>
        <time>2026-05-15T09:57:10+02:00</time>
      </trkpt>
      <trkpt lat="47.11849" lon="5.3789">
        <ele>195.7002</ele>
        <time>2026-05-15T09:57:11+02:00</time>
      </trkpt>
      <trkpt lat="47.11852" lon="5.37882">
        <ele>195.7998</ele>
        <time>2026-05-15T09:57:12+02:00</time>
      </trkpt>
      <trkpt lat="47.11855" lon="5.37873">
        <ele>195.7002</ele>
        <time>2026-05-15T09:57:13+02:00</time>
      </trkpt>
      <trkpt lat="47.11859" lon="5.37865">
        <ele>195.7998</ele>
        <time>2026-05-15T09:57:14+02:00</time>
      </trkpt>
      <trkpt lat="47.11862" lon="5.37857">
        <ele>196</ele>
        <time>2026-05-15T09:57:15+02:00</time>
      </trkpt>
      <trkpt lat="47.11865" lon="5.37849">
        <ele>195.90039</ele>
        <time>2026-05-15T09:57:16+02:00</time>
      </trkpt>
      <trkpt lat="47.11868" lon="5.3784">
        <ele>195.90039</ele>
        <time>2026-05-15T09:57:17+02:00</time>
      </trkpt>
      <trkpt lat="47.11871" lon="5.37831">
        <ele>196.10059</ele>
        <time>2026-05-15T09:57:18+02:00</time>
      </trkpt>
      <trkpt lat="47.11873" lon="5.37823">
        <ele>196.2002</ele>
        <time>2026-05-15T09:57:19+02:00</time>
      </trkpt>
      <trkpt lat="47.11876" lon="5.37814">
        <ele>196.40039</ele>
        <time>2026-05-15T09:57:20+02:00</time>
      </trkpt>
      <trkpt lat="47.11878" lon="5.37805">
        <ele>196.5</ele>
        <time>2026-05-15T09:57:21+02:00</time>
      </trkpt>
      <trkpt lat="47.11879" lon="5.37796">
        <ele>196.60059</ele>
        <time>2026-05-15T09:57:22+02:00</time>
      </trkpt>
      <trkpt lat="47.11881" lon="5.37787">
        <ele>196.7998</ele>
        <time>2026-05-15T09:57:23+02:00</time>
      </trkpt>
      <trkpt lat="47.11883" lon="5.37778">
        <ele>196.90039</ele>
        <time>2026-05-15T09:57:24+02:00</time>
      </trkpt>
      <trkpt lat="47.11884" lon="5.37769">
        <ele>197</ele>
        <time>2026-05-15T09:57:25+02:00</time>
      </trkpt>
      <trkpt lat="47.11886" lon="5.3776">
        <ele>197.2002</ele>
        <time>2026-05-15T09:57:26+02:00</time>
      </trkpt>
      <trkpt lat="47.11887" lon="5.37751">
        <ele>197.40039</ele>
        <time>2026-05-15T09:57:27+02:00</time>
      </trkpt>
      <trkpt lat="47.11888" lon="5.37742">
        <ele>197.5</ele>
        <time>2026-05-15T09:57:28+02:00</time>
      </trkpt>
      <trkpt lat="47.11889" lon="5.37733">
        <ele>197.60059</ele>
        <time>2026-05-15T09:57:29+02:00</time>
      </trkpt>
      <trkpt lat="47.11889" lon="5.37724">
        <ele>197.7002</ele>
        <time>2026-05-15T09:57:30+02:00</time>
      </trkpt>
      <trkpt lat="47.11891" lon="5.37716">
        <ele>197.90039</ele>
        <time>2026-05-15T09:57:31+02:00</time>
      </trkpt>
      <trkpt lat="47.11891" lon="5.37707">
        <ele>198</ele>
        <time>2026-05-15T09:57:32+02:00</time>
      </trkpt>
      <trkpt lat="47.11891" lon="5.37698">
        <ele>198.10059</ele>
        <time>2026-05-15T09:57:33+02:00</time>
      </trkpt>
      <trkpt lat="47.11891" lon="5.3769">
        <ele>198.2002</ele>
        <time>2026-05-15T09:57:34+02:00</time>
      </trkpt>
      <trkpt lat="47.11891" lon="5.37685">
        <ele>198.2998</ele>
        <time>2026-05-15T09:57:35+02:00</time>
      </trkpt>
      <trkpt lat="47.11891" lon="5.37673">
        <ele>198.2998</ele>
        <time>2026-05-15T09:57:36+02:00</time>
      </trkpt>
      <trkpt lat="47.1189" lon="5.37664">
        <ele>198.40039</ele>
        <time>2026-05-15T09:57:37+02:00</time>
      </trkpt>
      <trkpt lat="47.1189" lon="5.37656">
        <ele>198.40039</ele>
        <time>2026-05-15T09:57:38+02:00</time>
      </trkpt>
      <trkpt lat="47.11889" lon="5.37647">
        <ele>198.5</ele>
        <time>2026-05-15T09:57:39+02:00</time>
      </trkpt>
      <trkpt lat="47.11889" lon="5.37638">
        <ele>198.5</ele>
        <time>2026-05-15T09:57:40+02:00</time>
      </trkpt>
      <trkpt lat="47.11889" lon="5.37634">
        <ele>198.5</ele>
        <time>2026-05-15T09:57:41+02:00</time>
      </trkpt>
      <trkpt lat="47.11889" lon="5.37621">
        <ele>198.5</ele>
        <time>2026-05-15T09:57:42+02:00</time>
      </trkpt>
      <trkpt lat="47.11888" lon="5.37613">
        <ele>198.5</ele>
        <time>2026-05-15T09:57:43+02:00</time>
      </trkpt>
      <trkpt lat="47.11887" lon="5.37605">
        <ele>198.5</ele>
        <time>2026-05-15T09:57:44+02:00</time>
      </trkpt>
      <trkpt lat="47.11886" lon="5.37597">
        <ele>198.5</ele>
        <time>2026-05-15T09:57:45+02:00</time>
      </trkpt>
      <trkpt lat="47.11885" lon="5.37589">
        <ele>198.5</ele>
        <time>2026-05-15T09:57:46+02:00</time>
      </trkpt>
      <trkpt lat="47.11884" lon="5.37581">
        <ele>198.5</ele>
        <time>2026-05-15T09:57:47+02:00</time>
      </trkpt>
      <trkpt lat="47.11883" lon="5.37572">
        <ele>198.60059</ele>
        <time>2026-05-15T09:57:48+02:00</time>
      </trkpt>
      <trkpt lat="47.11882" lon="5.37564">
        <ele>198.7002</ele>
        <time>2026-05-15T09:57:49+02:00</time>
      </trkpt>
      <trkpt lat="47.11881" lon="5.37555">
        <ele>198.7002</ele>
        <time>2026-05-15T09:57:50+02:00</time>
      </trkpt>
      <trkpt lat="47.11879" lon="5.37547">
        <ele>198.7998</ele>
        <time>2026-05-15T09:57:51+02:00</time>
      </trkpt>
      <trkpt lat="47.11878" lon="5.37538">
        <ele>198.90039</ele>
        <time>2026-05-15T09:57:52+02:00</time>
      </trkpt>
      <trkpt lat="47.11876" lon="5.3753">
        <ele>199.10059</ele>
        <time>2026-05-15T09:57:53+02:00</time>
      </trkpt>
      <trkpt lat="47.11875" lon="5.37521">
        <ele>199.2002</ele>
        <time>2026-05-15T09:57:54+02:00</time>
      </trkpt>
      <trkpt lat="47.11873" lon="5.37513">
        <ele>199.2998</ele>
        <time>2026-05-15T09:57:55+02:00</time>
      </trkpt>
      <trkpt lat="47.11872" lon="5.37504">
        <ele>199.40039</ele>
        <time>2026-05-15T09:57:56+02:00</time>
      </trkpt>
      <trkpt lat="47.1187" lon="5.37495">
        <ele>199.60059</ele>
        <time>2026-05-15T09:57:57+02:00</time>
      </trkpt>
      <trkpt lat="47.1187" lon="5.37491">
        <ele>199.60059</ele>
        <time>2026-05-15T09:57:58+02:00</time>
      </trkpt>
      <trkpt lat="47.11868" lon="5.37478">
        <ele>199.7998</ele>
        <time>2026-05-15T09:57:59+02:00</time>
      </trkpt>
      <trkpt lat="47.11867" lon="5.37469">
        <ele>199.90039</ele>
        <time>2026-05-15T09:58:00+02:00</time>
      </trkpt>
      <trkpt lat="47.11867" lon="5.3746">
        <ele>199.90039</ele>
        <time>2026-05-15T09:58:01+02:00</time>
      </trkpt>
      <trkpt lat="47.11867" lon="5.3745">
        <ele>200</ele>
        <time>2026-05-15T09:58:02+02:00</time>
      </trkpt>
      <trkpt lat="47.11867" lon="5.37441">
        <ele>200</ele>
        <time>2026-05-15T09:58:03+02:00</time>
      </trkpt>
      <trkpt lat="47.11868" lon="5.37432">
        <ele>200.10059</ele>
        <time>2026-05-15T09:58:04+02:00</time>
      </trkpt>
      <trkpt lat="47.11869" lon="5.37423">
        <ele>200</ele>
        <time>2026-05-15T09:58:05+02:00</time>
      </trkpt>
      <trkpt lat="47.1187" lon="5.37413">
        <ele>200.10059</ele>
        <time>2026-05-15T09:58:06+02:00</time>
      </trkpt>
      <trkpt lat="47.1187" lon="5.37404">
        <ele>200.10059</ele>
        <time>2026-05-15T09:58:07+02:00</time>
      </trkpt>
      <trkpt lat="47.11871" lon="5.37395">
        <ele>200.10059</ele>
        <time>2026-05-15T09:58:08+02:00</time>
      </trkpt>
      <trkpt lat="47.11872" lon="5.37385">
        <ele>200.10059</ele>
        <time>2026-05-15T09:58:09+02:00</time>
      </trkpt>
      <trkpt lat="47.11873" lon="5.37376">
        <ele>200.10059</ele>
        <time>2026-05-15T09:58:10+02:00</time>
      </trkpt>
      <trkpt lat="47.11874" lon="5.37366">
        <ele>200</ele>
        <time>2026-05-15T09:58:11+02:00</time>
      </trkpt>
      <trkpt lat="47.11875" lon="5.37356">
        <ele>200</ele>
        <time>2026-05-15T09:58:12+02:00</time>
      </trkpt>
      <trkpt lat="47.11876" lon="5.37346">
        <ele>200</ele>
        <time>2026-05-15T09:58:13+02:00</time>
      </trkpt>
      <trkpt lat="47.11877" lon="5.37336">
        <ele>199.90039</ele>
        <time>2026-05-15T09:58:14+02:00</time>
      </trkpt>
      <trkpt lat="47.11878" lon="5.37327">
        <ele>199.90039</ele>
        <time>2026-05-15T09:58:15+02:00</time>
      </trkpt>
      <trkpt lat="47.11879" lon="5.37317">
        <ele>199.7002</ele>
        <time>2026-05-15T09:58:16+02:00</time>
      </trkpt>
      <trkpt lat="47.11881" lon="5.37308">
        <ele>199.40039</ele>
        <time>2026-05-15T09:58:17+02:00</time>
      </trkpt>
      <trkpt lat="47.11882" lon="5.37299">
        <ele>199.2998</ele>
        <time>2026-05-15T09:58:18+02:00</time>
      </trkpt>
      <trkpt lat="47.11883" lon="5.37289">
        <ele>199.10059</ele>
        <time>2026-05-15T09:58:19+02:00</time>
      </trkpt>
      <trkpt lat="47.11885" lon="5.3728">
        <ele>199</ele>
        <time>2026-05-15T09:58:20+02:00</time>
      </trkpt>
      <trkpt lat="47.11887" lon="5.37271">
        <ele>198.7998</ele>
        <time>2026-05-15T09:58:21+02:00</time>
      </trkpt>
      <trkpt lat="47.11889" lon="5.37262">
        <ele>198.7002</ele>
        <time>2026-05-15T09:58:22+02:00</time>
      </trkpt>
      <trkpt lat="47.11891" lon="5.37253">
        <ele>198.60059</ele>
        <time>2026-05-15T09:58:23+02:00</time>
      </trkpt>
      <trkpt lat="47.11893" lon="5.37245">
        <ele>198.5</ele>
        <time>2026-05-15T09:58:24+02:00</time>
      </trkpt>
      <trkpt lat="47.11895" lon="5.37236">
        <ele>198.5</ele>
        <time>2026-05-15T09:58:25+02:00</time>
      </trkpt>
      <trkpt lat="47.11897" lon="5.37227">
        <ele>198.5</ele>
        <time>2026-05-15T09:58:26+02:00</time>
      </trkpt>
      <trkpt lat="47.119" lon="5.37218">
        <ele>198.5</ele>
        <time>2026-05-15T09:58:27+02:00</time>
      </trkpt>
      <trkpt lat="47.11903" lon="5.3721">
        <ele>198.60059</ele>
        <time>2026-05-15T09:58:28+02:00</time>
      </trkpt>
      <trkpt lat="47.11906" lon="5.37202">
        <ele>198.60059</ele>
        <time>2026-05-15T09:58:29+02:00</time>
      </trkpt>
      <trkpt lat="47.11907" lon="5.37198">
        <ele>198.60059</ele>
        <time>2026-05-15T09:58:30+02:00</time>
      </trkpt>
      <trkpt lat="47.11912" lon="5.37186">
        <ele>198.7998</ele>
        <time>2026-05-15T09:58:31+02:00</time>
      </trkpt>
      <trkpt lat="47.11916" lon="5.37178">
        <ele>198.7998</ele>
        <time>2026-05-15T09:58:32+02:00</time>
      </trkpt>
      <trkpt lat="47.1192" lon="5.3717">
        <ele>198.90039</ele>
        <time>2026-05-15T09:58:33+02:00</time>
      </trkpt>
      <trkpt lat="47.11923" lon="5.37162">
        <ele>198.90039</ele>
        <time>2026-05-15T09:58:34+02:00</time>
      </trkpt>
      <trkpt lat="47.11927" lon="5.37155">
        <ele>198.90039</ele>
        <time>2026-05-15T09:58:35+02:00</time>
      </trkpt>
      <trkpt lat="47.11931" lon="5.37147">
        <ele>198.90039</ele>
        <time>2026-05-15T09:58:36+02:00</time>
      </trkpt>
      <trkpt lat="47.11935" lon="5.3714">
        <ele>198.90039</ele>
        <time>2026-05-15T09:58:37+02:00</time>
      </trkpt>
      <trkpt lat="47.11939" lon="5.37132">
        <ele>198.90039</ele>
        <time>2026-05-15T09:58:38+02:00</time>
      </trkpt>
      <trkpt lat="47.11942" lon="5.37125">
        <ele>198.7998</ele>
        <time>2026-05-15T09:58:39+02:00</time>
      </trkpt>
      <trkpt lat="47.11946" lon="5.37117">
        <ele>198.7998</ele>
        <time>2026-05-15T09:58:40+02:00</time>
      </trkpt>
      <trkpt lat="47.1195" lon="5.3711">
        <ele>198.7998</ele>
        <time>2026-05-15T09:58:41+02:00</time>
      </trkpt>
      <trkpt lat="47.11954" lon="5.37103">
        <ele>198.7998</ele>
        <time>2026-05-15T09:58:42+02:00</time>
      </trkpt>
      <trkpt lat="47.11958" lon="5.37096">
        <ele>198.7998</ele>
        <time>2026-05-15T09:58:43+02:00</time>
      </trkpt>
      <trkpt lat="47.11962" lon="5.37089">
        <ele>198.7998</ele>
        <time>2026-05-15T09:58:44+02:00</time>
      </trkpt>
      <trkpt lat="47.11966" lon="5.37082">
        <ele>198.7998</ele>
        <time>2026-05-15T09:58:45+02:00</time>
      </trkpt>
      <trkpt lat="47.1197" lon="5.37076">
        <ele>198.7998</ele>
        <time>2026-05-15T09:58:46+02:00</time>
      </trkpt>
      <trkpt lat="47.11973" lon="5.37069">
        <ele>198.90039</ele>
        <time>2026-05-15T09:58:47+02:00</time>
      </trkpt>
      <trkpt lat="47.11977" lon="5.37063">
        <ele>198.7998</ele>
        <time>2026-05-15T09:58:48+02:00</time>
      </trkpt>
      <trkpt lat="47.11981" lon="5.37057">
        <ele>198.90039</ele>
        <time>2026-05-15T09:58:49+02:00</time>
      </trkpt>
      <trkpt lat="47.11985" lon="5.37051">
        <ele>198.90039</ele>
        <time>2026-05-15T09:58:50+02:00</time>
      </trkpt>
      <trkpt lat="47.11989" lon="5.37044">
        <ele>198.90039</ele>
        <time>2026-05-15T09:58:51+02:00</time>
      </trkpt>
      <trkpt lat="47.11993" lon="5.37038">
        <ele>198.90039</ele>
        <time>2026-05-15T09:58:52+02:00</time>
      </trkpt>
      <trkpt lat="47.11997" lon="5.37033">
        <ele>198.7998</ele>
        <time>2026-05-15T09:58:53+02:00</time>
      </trkpt>
      <trkpt lat="47.12002" lon="5.37027">
        <ele>198.7998</ele>
        <time>2026-05-15T09:58:54+02:00</time>
      </trkpt>
      <trkpt lat="47.12007" lon="5.37022">
        <ele>198.7998</ele>
        <time>2026-05-15T09:58:55+02:00</time>
      </trkpt>
      <trkpt lat="47.12011" lon="5.37016">
        <ele>198.7002</ele>
        <time>2026-05-15T09:58:56+02:00</time>
      </trkpt>
      <trkpt lat="47.12015" lon="5.37009">
        <ele>198.60059</ele>
        <time>2026-05-15T09:58:57+02:00</time>
      </trkpt>
      <trkpt lat="47.1202" lon="5.37003">
        <ele>198.60059</ele>
        <time>2026-05-15T09:58:58+02:00</time>
      </trkpt>
      <trkpt lat="47.12025" lon="5.36998">
        <ele>198.7002</ele>
        <time>2026-05-15T09:58:59+02:00</time>
      </trkpt>
      <trkpt lat="47.12029" lon="5.36992">
        <ele>198.60059</ele>
        <time>2026-05-15T09:59:00+02:00</time>
      </trkpt>
      <trkpt lat="47.12034" lon="5.36986">
        <ele>198.60059</ele>
        <time>2026-05-15T09:59:01+02:00</time>
      </trkpt>
      <trkpt lat="47.12039" lon="5.3698">
        <ele>198.60059</ele>
        <time>2026-05-15T09:59:02+02:00</time>
      </trkpt>
      <trkpt lat="47.12044" lon="5.36974">
        <ele>198.40039</ele>
        <time>2026-05-15T09:59:03+02:00</time>
      </trkpt>
      <trkpt lat="47.12049" lon="5.36968">
        <ele>198.5</ele>
        <time>2026-05-15T09:59:04+02:00</time>
      </trkpt>
      <trkpt lat="47.12054" lon="5.36963">
        <ele>198.7002</ele>
        <time>2026-05-15T09:59:05+02:00</time>
      </trkpt>
      <trkpt lat="47.12059" lon="5.36957">
        <ele>198.5</ele>
        <time>2026-05-15T09:59:06+02:00</time>
      </trkpt>
      <trkpt lat="47.12064" lon="5.36951">
        <ele>198.60059</ele>
        <time>2026-05-15T09:59:07+02:00</time>
      </trkpt>
      <trkpt lat="47.12069" lon="5.36945">
        <ele>198.60059</ele>
        <time>2026-05-15T09:59:08+02:00</time>
      </trkpt>
      <trkpt lat="47.12073" lon="5.36939">
        <ele>198.60059</ele>
        <time>2026-05-15T09:59:09+02:00</time>
      </trkpt>
      <trkpt lat="47.12078" lon="5.36934">
        <ele>198.60059</ele>
        <time>2026-05-15T09:59:10+02:00</time>
      </trkpt>
      <trkpt lat="47.12083" lon="5.36928">
        <ele>198.7002</ele>
        <time>2026-05-15T09:59:11+02:00</time>
      </trkpt>
      <trkpt lat="47.12087" lon="5.36922">
        <ele>198.90039</ele>
        <time>2026-05-15T09:59:12+02:00</time>
      </trkpt>
      <trkpt lat="47.12092" lon="5.36915">
        <ele>198.7002</ele>
        <time>2026-05-15T09:59:13+02:00</time>
      </trkpt>
      <trkpt lat="47.12097" lon="5.36908">
        <ele>198.90039</ele>
        <time>2026-05-15T09:59:14+02:00</time>
      </trkpt>
      <trkpt lat="47.12102" lon="5.36901">
        <ele>199.2002</ele>
        <time>2026-05-15T09:59:15+02:00</time>
      </trkpt>
      <trkpt lat="47.12106" lon="5.36894">
        <ele>199.7002</ele>
        <time>2026-05-15T09:59:16+02:00</time>
      </trkpt>
      <trkpt lat="47.12111" lon="5.36886">
        <ele>199.7002</ele>
        <time>2026-05-15T09:59:17+02:00</time>
      </trkpt>
      <trkpt lat="47.12116" lon="5.36878">
        <ele>199.60059</ele>
        <time>2026-05-15T09:59:18+02:00</time>
      </trkpt>
      <trkpt lat="47.1212" lon="5.36869">
        <ele>199.40039</ele>
        <time>2026-05-15T09:59:19+02:00</time>
      </trkpt>
      <trkpt lat="47.12125" lon="5.36861">
        <ele>198.90039</ele>
        <time>2026-05-15T09:59:20+02:00</time>
      </trkpt>
      <trkpt lat="47.12129" lon="5.36852">
        <ele>199.10059</ele>
        <time>2026-05-15T09:59:21+02:00</time>
      </trkpt>
      <trkpt lat="47.12134" lon="5.36843">
        <ele>198.40039</ele>
        <time>2026-05-15T09:59:22+02:00</time>
      </trkpt>
      <trkpt lat="47.12138" lon="5.36833">
        <ele>197.60059</ele>
        <time>2026-05-15T09:59:23+02:00</time>
      </trkpt>
      <trkpt lat="47.12143" lon="5.36823">
        <ele>196.5</ele>
        <time>2026-05-15T09:59:24+02:00</time>
      </trkpt>
      <trkpt lat="47.12148" lon="5.36813">
        <ele>196.2998</ele>
        <time>2026-05-15T09:59:25+02:00</time>
      </trkpt>
      <trkpt lat="47.12154" lon="5.36803">
        <ele>195</ele>
        <time>2026-05-15T09:59:26+02:00</time>
      </trkpt>
      <trkpt lat="47.12159" lon="5.36793">
        <ele>193.2998</ele>
        <time>2026-05-15T09:59:27+02:00</time>
      </trkpt>
      <trkpt lat="47.12166" lon="5.36783">
        <ele>191.2002</ele>
        <time>2026-05-15T09:59:28+02:00</time>
      </trkpt>
      <trkpt lat="47.12172" lon="5.36773">
        <ele>190.10059</ele>
        <time>2026-05-15T09:59:29+02:00</time>
      </trkpt>
      <trkpt lat="47.12179" lon="5.36763">
        <ele>189.2998</ele>
        <time>2026-05-15T09:59:30+02:00</time>
      </trkpt>
      <trkpt lat="47.12185" lon="5.36754">
        <ele>188.60059</ele>
        <time>2026-05-15T09:59:31+02:00</time>
      </trkpt>
      <trkpt lat="47.12192" lon="5.36745">
        <ele>188.10059</ele>
        <time>2026-05-15T09:59:32+02:00</time>
      </trkpt>
      <trkpt lat="47.12198" lon="5.36736">
        <ele>187.60059</ele>
        <time>2026-05-15T09:59:33+02:00</time>
      </trkpt>
      <trkpt lat="47.12204" lon="5.36727">
        <ele>187.2002</ele>
        <time>2026-05-15T09:59:34+02:00</time>
      </trkpt>
      <trkpt lat="47.1221" lon="5.36718">
        <ele>186.90039</ele>
        <time>2026-05-15T09:59:35+02:00</time>
      </trkpt>
      <trkpt lat="47.12216" lon="5.3671">
        <ele>186.60059</ele>
        <time>2026-05-15T09:59:36+02:00</time>
      </trkpt>
      <trkpt lat="47.12221" lon="5.36702">
        <ele>186.2998</ele>
        <time>2026-05-15T09:59:37+02:00</time>
      </trkpt>
      <trkpt lat="47.12227" lon="5.36694">
        <ele>186</ele>
        <time>2026-05-15T09:59:38+02:00</time>
      </trkpt>
      <trkpt lat="47.12232" lon="5.36686">
        <ele>185.7998</ele>
        <time>2026-05-15T09:59:39+02:00</time>
      </trkpt>
      <trkpt lat="47.12237" lon="5.36678">
        <ele>185.5</ele>
        <time>2026-05-15T09:59:40+02:00</time>
      </trkpt>
      <trkpt lat="47.12241" lon="5.3667">
        <ele>185.2998</ele>
        <time>2026-05-15T09:59:41+02:00</time>
      </trkpt>
      <trkpt lat="47.12246" lon="5.36663">
        <ele>185.10059</ele>
        <time>2026-05-15T09:59:42+02:00</time>
      </trkpt>
      <trkpt lat="47.12251" lon="5.36655">
        <ele>184.7998</ele>
        <time>2026-05-15T09:59:43+02:00</time>
      </trkpt>
      <trkpt lat="47.12255" lon="5.36648">
        <ele>184.7002</ele>
        <time>2026-05-15T09:59:44+02:00</time>
      </trkpt>
      <trkpt lat="47.12259" lon="5.36641">
        <ele>184.5</ele>
        <time>2026-05-15T09:59:45+02:00</time>
      </trkpt>
      <trkpt lat="47.12264" lon="5.36635">
        <ele>184.2002</ele>
        <time>2026-05-15T09:59:46+02:00</time>
      </trkpt>
      <trkpt lat="47.12268" lon="5.36629">
        <ele>183.90039</ele>
        <time>2026-05-15T09:59:47+02:00</time>
      </trkpt>
      <trkpt lat="47.12272" lon="5.36622">
        <ele>183.60059</ele>
        <time>2026-05-15T09:59:48+02:00</time>
      </trkpt>
      <trkpt lat="47.12277" lon="5.36616">
        <ele>183.5</ele>
        <time>2026-05-15T09:59:49+02:00</time>
      </trkpt>
      <trkpt lat="47.12282" lon="5.3661">
        <ele>183.2998</ele>
        <time>2026-05-15T09:59:50+02:00</time>
      </trkpt>
      <trkpt lat="47.12287" lon="5.36604">
        <ele>183.10059</ele>
        <time>2026-05-15T09:59:51+02:00</time>
      </trkpt>
      <trkpt lat="47.12291" lon="5.36598">
        <ele>183.10059</ele>
        <time>2026-05-15T09:59:52+02:00</time>
      </trkpt>
      <trkpt lat="47.12296" lon="5.36592">
        <ele>183</ele>
        <time>2026-05-15T09:59:53+02:00</time>
      </trkpt>
      <trkpt lat="47.12301" lon="5.36586">
        <ele>183</ele>
        <time>2026-05-15T09:59:54+02:00</time>
      </trkpt>
      <trkpt lat="47.12305" lon="5.3658">
        <ele>183</ele>
        <time>2026-05-15T09:59:55+02:00</time>
      </trkpt>
      <trkpt lat="47.1231" lon="5.36575">
        <ele>183</ele>
        <time>2026-05-15T09:59:56+02:00</time>
      </trkpt>
      <trkpt lat="47.12314" lon="5.36569">
        <ele>183</ele>
        <time>2026-05-15T09:59:57+02:00</time>
      </trkpt>
      <trkpt lat="47.12319" lon="5.36564">
        <ele>183</ele>
        <time>2026-05-15T09:59:58+02:00</time>
      </trkpt>
      <trkpt lat="47.12324" lon="5.36558">
        <ele>183.10059</ele>
        <time>2026-05-15T09:59:59+02:00</time>
      </trkpt>
      <trkpt lat="47.12328" lon="5.36553">
        <ele>183</ele>
        <time>2026-05-15T10:00:00+02:00</time>
      </trkpt>
      <trkpt lat="47.12332" lon="5.36547">
        <ele>183.10059</ele>
        <time>2026-05-15T10:00:01+02:00</time>
      </trkpt>
      <trkpt lat="47.12336" lon="5.36542">
        <ele>183.10059</ele>
        <time>2026-05-15T10:00:02+02:00</time>
      </trkpt>
      <trkpt lat="47.12341" lon="5.36536">
        <ele>183</ele>
        <time>2026-05-15T10:00:03+02:00</time>
      </trkpt>
      <trkpt lat="47.12346" lon="5.36531">
        <ele>183</ele>
        <time>2026-05-15T10:00:04+02:00</time>
      </trkpt>
      <trkpt lat="47.1235" lon="5.36525">
        <ele>183</ele>
        <time>2026-05-15T10:00:05+02:00</time>
      </trkpt>
      <trkpt lat="47.12354" lon="5.3652">
        <ele>183</ele>
        <time>2026-05-15T10:00:06+02:00</time>
      </trkpt>
      <trkpt lat="47.12359" lon="5.36514">
        <ele>182.90039</ele>
        <time>2026-05-15T10:00:07+02:00</time>
      </trkpt>
      <trkpt lat="47.12363" lon="5.36509">
        <ele>182.7998</ele>
        <time>2026-05-15T10:00:08+02:00</time>
      </trkpt>
      <trkpt lat="47.12367" lon="5.36503">
        <ele>182.7002</ele>
        <time>2026-05-15T10:00:09+02:00</time>
      </trkpt>
      <trkpt lat="47.12372" lon="5.36498">
        <ele>182.60059</ele>
        <time>2026-05-15T10:00:10+02:00</time>
      </trkpt>
      <trkpt lat="47.12376" lon="5.36493">
        <ele>182.40039</ele>
        <time>2026-05-15T10:00:11+02:00</time>
      </trkpt>
      <trkpt lat="47.1238" lon="5.36487">
        <ele>182.40039</ele>
        <time>2026-05-15T10:00:12+02:00</time>
      </trkpt>
      <trkpt lat="47.12385" lon="5.36482">
        <ele>182.2002</ele>
        <time>2026-05-15T10:00:13+02:00</time>
      </trkpt>
      <trkpt lat="47.12389" lon="5.36477">
        <ele>182.10059</ele>
        <time>2026-05-15T10:00:14+02:00</time>
      </trkpt>
      <trkpt lat="47.12393" lon="5.36472">
        <ele>182</ele>
        <time>2026-05-15T10:00:15+02:00</time>
      </trkpt>
      <trkpt lat="47.12397" lon="5.36467">
        <ele>181.7998</ele>
        <time>2026-05-15T10:00:16+02:00</time>
      </trkpt>
      <trkpt lat="47.12401" lon="5.36461">
        <ele>181.7998</ele>
        <time>2026-05-15T10:00:17+02:00</time>
      </trkpt>
      <trkpt lat="47.12405" lon="5.36457">
        <ele>181.7002</ele>
        <time>2026-05-15T10:00:18+02:00</time>
      </trkpt>
      <trkpt lat="47.12409" lon="5.36452">
        <ele>181.7002</ele>
        <time>2026-05-15T10:00:19+02:00</time>
      </trkpt>
      <trkpt lat="47.12413" lon="5.36447">
        <ele>181.60059</ele>
        <time>2026-05-15T10:00:20+02:00</time>
      </trkpt>
      <trkpt lat="47.12417" lon="5.36442">
        <ele>181.60059</ele>
        <time>2026-05-15T10:00:21+02:00</time>
      </trkpt>
      <trkpt lat="47.12422" lon="5.36437">
        <ele>181.5</ele>
        <time>2026-05-15T10:00:22+02:00</time>
      </trkpt>
      <trkpt lat="47.12425" lon="5.36431">
        <ele>181.5</ele>
        <time>2026-05-15T10:00:23+02:00</time>
      </trkpt>
      <trkpt lat="47.1243" lon="5.36426">
        <ele>181.5</ele>
        <time>2026-05-15T10:00:24+02:00</time>
      </trkpt>
      <trkpt lat="47.12433" lon="5.36421">
        <ele>181.40039</ele>
        <time>2026-05-15T10:00:25+02:00</time>
      </trkpt>
      <trkpt lat="47.12438" lon="5.36416">
        <ele>181.5</ele>
        <time>2026-05-15T10:00:26+02:00</time>
      </trkpt>
      <trkpt lat="47.12439" lon="5.36414">
        <ele>181.5</ele>
        <time>2026-05-15T10:00:27+02:00</time>
      </trkpt>
      <trkpt lat="47.12446" lon="5.36406">
        <ele>181.5</ele>
        <time>2026-05-15T10:00:28+02:00</time>
      </trkpt>
      <trkpt lat="47.1245" lon="5.36401">
        <ele>181.60059</ele>
        <time>2026-05-15T10:00:29+02:00</time>
      </trkpt>
      <trkpt lat="47.12454" lon="5.36396">
        <ele>181.7002</ele>
        <time>2026-05-15T10:00:30+02:00</time>
      </trkpt>
      <trkpt lat="47.12458" lon="5.36391">
        <ele>181.7998</ele>
        <time>2026-05-15T10:00:31+02:00</time>
      </trkpt>
      <trkpt lat="47.12462" lon="5.36386">
        <ele>181.7998</ele>
        <time>2026-05-15T10:00:32+02:00</time>
      </trkpt>
      <trkpt lat="47.12466" lon="5.36381">
        <ele>181.90039</ele>
        <time>2026-05-15T10:00:33+02:00</time>
      </trkpt>
      <trkpt lat="47.1247" lon="5.36376">
        <ele>182</ele>
        <time>2026-05-15T10:00:34+02:00</time>
      </trkpt>
      <trkpt lat="47.12475" lon="5.36371">
        <ele>182</ele>
        <time>2026-05-15T10:00:35+02:00</time>
      </trkpt>
      <trkpt lat="47.12478" lon="5.36366">
        <ele>182.2002</ele>
        <time>2026-05-15T10:00:36+02:00</time>
      </trkpt>
      <trkpt lat="47.12483" lon="5.36361">
        <ele>182.2998</ele>
        <time>2026-05-15T10:00:37+02:00</time>
      </trkpt>
      <trkpt lat="47.12486" lon="5.36356">
        <ele>182.2998</ele>
        <time>2026-05-15T10:00:38+02:00</time>
      </trkpt>
      <trkpt lat="47.1249" lon="5.36351">
        <ele>182.5</ele>
        <time>2026-05-15T10:00:39+02:00</time>
      </trkpt>
      <trkpt lat="47.12494" lon="5.36347">
        <ele>182.60059</ele>
        <time>2026-05-15T10:00:40+02:00</time>
      </trkpt>
      <trkpt lat="47.12498" lon="5.36342">
        <ele>182.60059</ele>
        <time>2026-05-15T10:00:41+02:00</time>
      </trkpt>
      <trkpt lat="47.12502" lon="5.36338">
        <ele>182.7998</ele>
        <time>2026-05-15T10:00:42+02:00</time>
      </trkpt>
      <trkpt lat="47.12504" lon="5.36336">
        <ele>182.7998</ele>
        <time>2026-05-15T10:00:43+02:00</time>
      </trkpt>
      <trkpt lat="47.1251" lon="5.3633">
        <ele>182.90039</ele>
        <time>2026-05-15T10:00:44+02:00</time>
      </trkpt>
      <trkpt lat="47.12515" lon="5.36326">
        <ele>182.90039</ele>
        <time>2026-05-15T10:00:45+02:00</time>
      </trkpt>
      <trkpt lat="47.12519" lon="5.36322">
        <ele>183</ele>
        <time>2026-05-15T10:00:46+02:00</time>
      </trkpt>
      <trkpt lat="47.12523" lon="5.3632">
        <ele>183</ele>
        <time>2026-05-15T10:00:47+02:00</time>
      </trkpt>
      <trkpt lat="47.12528" lon="5.36319">
        <ele>183</ele>
        <time>2026-05-15T10:00:48+02:00</time>
      </trkpt>
      <trkpt lat="47.12533" lon="5.36318">
        <ele>183.10059</ele>
        <time>2026-05-15T10:00:49+02:00</time>
      </trkpt>
      <trkpt lat="47.12537" lon="5.36317">
        <ele>183.10059</ele>
        <time>2026-05-15T10:00:50+02:00</time>
      </trkpt>
      <trkpt lat="47.12542" lon="5.36315">
        <ele>183.10059</ele>
        <time>2026-05-15T10:00:51+02:00</time>
      </trkpt>
      <trkpt lat="47.12546" lon="5.36313">
        <ele>183.2002</ele>
        <time>2026-05-15T10:00:52+02:00</time>
      </trkpt>
      <trkpt lat="47.1255" lon="5.3631">
        <ele>183.2002</ele>
        <time>2026-05-15T10:00:53+02:00</time>
      </trkpt>
      <trkpt lat="47.12555" lon="5.36309">
        <ele>183.2002</ele>
        <time>2026-05-15T10:00:54+02:00</time>
      </trkpt>
      <trkpt lat="47.1256" lon="5.36308">
        <ele>183.2002</ele>
        <time>2026-05-15T10:00:55+02:00</time>
      </trkpt>
      <trkpt lat="47.12565" lon="5.36308">
        <ele>183.2002</ele>
        <time>2026-05-15T10:00:56+02:00</time>
      </trkpt>
      <trkpt lat="47.1257" lon="5.36311">
        <ele>183.2002</ele>
        <time>2026-05-15T10:00:57+02:00</time>
      </trkpt>
      <trkpt lat="47.12574" lon="5.36314">
        <ele>183.10059</ele>
        <time>2026-05-15T10:00:58+02:00</time>
      </trkpt>
      <trkpt lat="47.12578" lon="5.36319">
        <ele>183.10059</ele>
        <time>2026-05-15T10:00:59+02:00</time>
      </trkpt>
      <trkpt lat="47.12582" lon="5.36324">
        <ele>183</ele>
        <time>2026-05-15T10:01:00+02:00</time>
      </trkpt>
      <trkpt lat="47.12586" lon="5.3633">
        <ele>183</ele>
        <time>2026-05-15T10:01:01+02:00</time>
      </trkpt>
      <trkpt lat="47.12589" lon="5.36336">
        <ele>182.7998</ele>
        <time>2026-05-15T10:01:02+02:00</time>
      </trkpt>
      <trkpt lat="47.12592" lon="5.36342">
        <ele>182.60059</ele>
        <time>2026-05-15T10:01:03+02:00</time>
      </trkpt>
      <trkpt lat="47.12595" lon="5.36348">
        <ele>182.40039</ele>
        <time>2026-05-15T10:01:04+02:00</time>
      </trkpt>
      <trkpt lat="47.12598" lon="5.36355">
        <ele>182.40039</ele>
        <time>2026-05-15T10:01:05+02:00</time>
      </trkpt>
      <trkpt lat="47.12601" lon="5.36361">
        <ele>182.2002</ele>
        <time>2026-05-15T10:01:06+02:00</time>
      </trkpt>
      <trkpt lat="47.12604" lon="5.36368">
        <ele>181.90039</ele>
        <time>2026-05-15T10:01:07+02:00</time>
      </trkpt>
      <trkpt lat="47.12607" lon="5.36374">
        <ele>181.7002</ele>
        <time>2026-05-15T10:01:08+02:00</time>
      </trkpt>
      <trkpt lat="47.1261" lon="5.3638">
        <ele>181.60059</ele>
        <time>2026-05-15T10:01:09+02:00</time>
      </trkpt>
      <trkpt lat="47.12612" lon="5.36386">
        <ele>181.40039</ele>
        <time>2026-05-15T10:01:10+02:00</time>
      </trkpt>
      <trkpt lat="47.12615" lon="5.36392">
        <ele>181.2002</ele>
        <time>2026-05-15T10:01:11+02:00</time>
      </trkpt>
      <trkpt lat="47.12618" lon="5.36399">
        <ele>181</ele>
        <time>2026-05-15T10:01:12+02:00</time>
      </trkpt>
      <trkpt lat="47.12621" lon="5.36405">
        <ele>181</ele>
        <time>2026-05-15T10:01:13+02:00</time>
      </trkpt>
      <trkpt lat="47.12624" lon="5.36411">
        <ele>180.7998</ele>
        <time>2026-05-15T10:01:14+02:00</time>
      </trkpt>
      <trkpt lat="47.12627" lon="5.36417">
        <ele>180.7002</ele>
        <time>2026-05-15T10:01:15+02:00</time>
      </trkpt>
      <trkpt lat="47.12631" lon="5.36423">
        <ele>180.60059</ele>
        <time>2026-05-15T10:01:16+02:00</time>
      </trkpt>
      <trkpt lat="47.12634" lon="5.36428">
        <ele>180.5</ele>
        <time>2026-05-15T10:01:17+02:00</time>
      </trkpt>
      <trkpt lat="47.12636" lon="5.36431">
        <ele>180.5</ele>
        <time>2026-05-15T10:01:18+02:00</time>
      </trkpt>
      <trkpt lat="47.12642" lon="5.36438">
        <ele>180.2998</ele>
        <time>2026-05-15T10:01:19+02:00</time>
      </trkpt>
      <trkpt lat="47.12646" lon="5.36442">
        <ele>180.2002</ele>
        <time>2026-05-15T10:01:20+02:00</time>
      </trkpt>
      <trkpt lat="47.1265" lon="5.36446">
        <ele>180.2002</ele>
        <time>2026-05-15T10:01:21+02:00</time>
      </trkpt>
      <trkpt lat="47.12655" lon="5.36449">
        <ele>180.10059</ele>
        <time>2026-05-15T10:01:22+02:00</time>
      </trkpt>
      <trkpt lat="47.12658" lon="5.36453">
        <ele>180</ele>
        <time>2026-05-15T10:01:23+02:00</time>
      </trkpt>
      <trkpt lat="47.12663" lon="5.36457">
        <ele>179.90039</ele>
        <time>2026-05-15T10:01:24+02:00</time>
      </trkpt>
      <trkpt lat="47.12667" lon="5.36461">
        <ele>179.90039</ele>
        <time>2026-05-15T10:01:25+02:00</time>
      </trkpt>
      <trkpt lat="47.12671" lon="5.36465">
        <ele>179.7998</ele>
        <time>2026-05-15T10:01:26+02:00</time>
      </trkpt>
      <trkpt lat="47.12676" lon="5.3647">
        <ele>179.7998</ele>
        <time>2026-05-15T10:01:27+02:00</time>
      </trkpt>
      <trkpt lat="47.1268" lon="5.36475">
        <ele>179.7998</ele>
        <time>2026-05-15T10:01:28+02:00</time>
      </trkpt>
      <trkpt lat="47.12685" lon="5.3648">
        <ele>179.7998</ele>
        <time>2026-05-15T10:01:29+02:00</time>
      </trkpt>
      <trkpt lat="47.12689" lon="5.36484">
        <ele>179.90039</ele>
        <time>2026-05-15T10:01:30+02:00</time>
      </trkpt>
      <trkpt lat="47.12694" lon="5.36489">
        <ele>180</ele>
        <time>2026-05-15T10:01:31+02:00</time>
      </trkpt>
      <trkpt lat="47.12698" lon="5.36494">
        <ele>180.2002</ele>
        <time>2026-05-15T10:01:32+02:00</time>
      </trkpt>
      <trkpt lat="47.12702" lon="5.365">
        <ele>180.2002</ele>
        <time>2026-05-15T10:01:33+02:00</time>
      </trkpt>
      <trkpt lat="47.12707" lon="5.36505">
        <ele>180.40039</ele>
        <time>2026-05-15T10:01:34+02:00</time>
      </trkpt>
      <trkpt lat="47.12712" lon="5.3651">
        <ele>180.5</ele>
        <time>2026-05-15T10:01:35+02:00</time>
      </trkpt>
      <trkpt lat="47.12716" lon="5.36515">
        <ele>180.7002</ele>
        <time>2026-05-15T10:01:36+02:00</time>
      </trkpt>
      <trkpt lat="47.12721" lon="5.36521">
        <ele>181</ele>
        <time>2026-05-15T10:01:37+02:00</time>
      </trkpt>
      <trkpt lat="47.12726" lon="5.36526">
        <ele>181</ele>
        <time>2026-05-15T10:01:38+02:00</time>
      </trkpt>
      <trkpt lat="47.1273" lon="5.36532">
        <ele>181.2002</ele>
        <time>2026-05-15T10:01:39+02:00</time>
      </trkpt>
      <trkpt lat="47.12734" lon="5.36537">
        <ele>181.40039</ele>
        <time>2026-05-15T10:01:40+02:00</time>
      </trkpt>
      <trkpt lat="47.12739" lon="5.36542">
        <ele>181.40039</ele>
        <time>2026-05-15T10:01:41+02:00</time>
      </trkpt>
      <trkpt lat="47.12743" lon="5.36547">
        <ele>181.5</ele>
        <time>2026-05-15T10:01:42+02:00</time>
      </trkpt>
      <trkpt lat="47.12747" lon="5.36552">
        <ele>181.5</ele>
        <time>2026-05-15T10:01:43+02:00</time>
      </trkpt>
      <trkpt lat="47.12752" lon="5.36557">
        <ele>181.60059</ele>
        <time>2026-05-15T10:01:44+02:00</time>
      </trkpt>
      <trkpt lat="47.12756" lon="5.36561">
        <ele>181.60059</ele>
        <time>2026-05-15T10:01:45+02:00</time>
      </trkpt>
      <trkpt lat="47.12761" lon="5.36566">
        <ele>181.60059</ele>
        <time>2026-05-15T10:01:46+02:00</time>
      </trkpt>
      <trkpt lat="47.12765" lon="5.36571">
        <ele>181.60059</ele>
        <time>2026-05-15T10:01:47+02:00</time>
      </trkpt>
      <trkpt lat="47.1277" lon="5.36576">
        <ele>181.5</ele>
        <time>2026-05-15T10:01:48+02:00</time>
      </trkpt>
      <trkpt lat="47.12774" lon="5.3658">
        <ele>181.40039</ele>
        <time>2026-05-15T10:01:49+02:00</time>
      </trkpt>
      <trkpt lat="47.12779" lon="5.36584">
        <ele>181.40039</ele>
        <time>2026-05-15T10:01:50+02:00</time>
      </trkpt>
      <trkpt lat="47.12784" lon="5.36589">
        <ele>181.2998</ele>
        <time>2026-05-15T10:01:51+02:00</time>
      </trkpt>
      <trkpt lat="47.12788" lon="5.36593">
        <ele>181.10059</ele>
        <time>2026-05-15T10:01:52+02:00</time>
      </trkpt>
      <trkpt lat="47.12793" lon="5.36597">
        <ele>181</ele>
        <time>2026-05-15T10:01:53+02:00</time>
      </trkpt>
      <trkpt lat="47.12797" lon="5.36601">
        <ele>180.7998</ele>
        <time>2026-05-15T10:01:54+02:00</time>
      </trkpt>
      <trkpt lat="47.12801" lon="5.36605">
        <ele>180.7998</ele>
        <time>2026-05-15T10:01:55+02:00</time>
      </trkpt>
      <trkpt lat="47.12805" lon="5.36609">
        <ele>180.7002</ele>
        <time>2026-05-15T10:01:56+02:00</time>
      </trkpt>
      <trkpt lat="47.12808" lon="5.36611">
        <ele>180.7002</ele>
        <time>2026-05-15T10:01:57+02:00</time>
      </trkpt>
      <trkpt lat="47.12814" lon="5.36618">
        <ele>180.60059</ele>
        <time>2026-05-15T10:01:58+02:00</time>
      </trkpt>
      <trkpt lat="47.12818" lon="5.36622">
        <ele>180.40039</ele>
        <time>2026-05-15T10:01:59+02:00</time>
      </trkpt>
      <trkpt lat="47.12823" lon="5.36626">
        <ele>180.40039</ele>
        <time>2026-05-15T10:02:00+02:00</time>
      </trkpt>
      <trkpt lat="47.12827" lon="5.36631">
        <ele>180.2998</ele>
        <time>2026-05-15T10:02:01+02:00</time>
      </trkpt>
      <trkpt lat="47.12832" lon="5.36635">
        <ele>180.2998</ele>
        <time>2026-05-15T10:02:02+02:00</time>
      </trkpt>
      <trkpt lat="47.12836" lon="5.36639">
        <ele>180.2998</ele>
        <time>2026-05-15T10:02:03+02:00</time>
      </trkpt>
      <trkpt lat="47.1284" lon="5.36644">
        <ele>180.2002</ele>
        <time>2026-05-15T10:02:04+02:00</time>
      </trkpt>
      <trkpt lat="47.12845" lon="5.36649">
        <ele>180.2002</ele>
        <time>2026-05-15T10:02:05+02:00</time>
      </trkpt>
      <trkpt lat="47.12849" lon="5.36653">
        <ele>180.2002</ele>
        <time>2026-05-15T10:02:06+02:00</time>
      </trkpt>
      <trkpt lat="47.12854" lon="5.36657">
        <ele>180.2998</ele>
        <time>2026-05-15T10:02:07+02:00</time>
      </trkpt>
      <trkpt lat="47.12856" lon="5.36659">
        <ele>180.2998</ele>
        <time>2026-05-15T10:02:08+02:00</time>
      </trkpt>
      <trkpt lat="47.12862" lon="5.36666">
        <ele>180.40039</ele>
        <time>2026-05-15T10:02:09+02:00</time>
      </trkpt>
      <trkpt lat="47.12867" lon="5.3667">
        <ele>180.2998</ele>
        <time>2026-05-15T10:02:10+02:00</time>
      </trkpt>
      <trkpt lat="47.12871" lon="5.36675">
        <ele>180.40039</ele>
        <time>2026-05-15T10:02:11+02:00</time>
      </trkpt>
      <trkpt lat="47.12873" lon="5.36677">
        <ele>180.40039</ele>
        <time>2026-05-15T10:02:12+02:00</time>
      </trkpt>
      <trkpt lat="47.1288" lon="5.36684">
        <ele>180.40039</ele>
        <time>2026-05-15T10:02:13+02:00</time>
      </trkpt>
      <trkpt lat="47.12884" lon="5.36689">
        <ele>180.40039</ele>
        <time>2026-05-15T10:02:14+02:00</time>
      </trkpt>
      <trkpt lat="47.12889" lon="5.36693">
        <ele>180.5</ele>
        <time>2026-05-15T10:02:15+02:00</time>
      </trkpt>
      <trkpt lat="47.12893" lon="5.36697">
        <ele>180.40039</ele>
        <time>2026-05-15T10:02:16+02:00</time>
      </trkpt>
      <trkpt lat="47.12898" lon="5.36701">
        <ele>180.5</ele>
        <time>2026-05-15T10:02:17+02:00</time>
      </trkpt>
      <trkpt lat="47.12902" lon="5.36706">
        <ele>180.40039</ele>
        <time>2026-05-15T10:02:18+02:00</time>
      </trkpt>
      <trkpt lat="47.12907" lon="5.3671">
        <ele>180.5</ele>
        <time>2026-05-15T10:02:19+02:00</time>
      </trkpt>
      <trkpt lat="47.12911" lon="5.36715">
        <ele>180.40039</ele>
        <time>2026-05-15T10:02:20+02:00</time>
      </trkpt>
      <trkpt lat="47.12915" lon="5.36719">
        <ele>180.40039</ele>
        <time>2026-05-15T10:02:21+02:00</time>
      </trkpt>
      <trkpt lat="47.12919" lon="5.36724">
        <ele>180.40039</ele>
        <time>2026-05-15T10:02:22+02:00</time>
      </trkpt>
      <trkpt lat="47.12923" lon="5.36729">
        <ele>180.40039</ele>
        <time>2026-05-15T10:02:23+02:00</time>
      </trkpt>
      <trkpt lat="47.12926" lon="5.36734">
        <ele>180.5</ele>
        <time>2026-05-15T10:02:24+02:00</time>
      </trkpt>
      <trkpt lat="47.1293" lon="5.36739">
        <ele>180.5</ele>
        <time>2026-05-15T10:02:25+02:00</time>
      </trkpt>
      <trkpt lat="47.12934" lon="5.36745">
        <ele>180.5</ele>
        <time>2026-05-15T10:02:26+02:00</time>
      </trkpt>
      <trkpt lat="47.12938" lon="5.3675">
        <ele>180.5</ele>
        <time>2026-05-15T10:02:27+02:00</time>
      </trkpt>
      <trkpt lat="47.12942" lon="5.36755">
        <ele>180.5</ele>
        <time>2026-05-15T10:02:28+02:00</time>
      </trkpt>
      <trkpt lat="47.12946" lon="5.3676">
        <ele>180.5</ele>
        <time>2026-05-15T10:02:29+02:00</time>
      </trkpt>
      <trkpt lat="47.1295" lon="5.36765">
        <ele>180.60059</ele>
        <time>2026-05-15T10:02:30+02:00</time>
      </trkpt>
      <trkpt lat="47.12954" lon="5.3677">
        <ele>180.60059</ele>
        <time>2026-05-15T10:02:31+02:00</time>
      </trkpt>
      <trkpt lat="47.12958" lon="5.36775">
        <ele>180.60059</ele>
        <time>2026-05-15T10:02:32+02:00</time>
      </trkpt>
      <trkpt lat="47.12962" lon="5.36779">
        <ele>180.60059</ele>
        <time>2026-05-15T10:02:33+02:00</time>
      </trkpt>
      <trkpt lat="47.12966" lon="5.36784">
        <ele>180.60059</ele>
        <time>2026-05-15T10:02:34+02:00</time>
      </trkpt>
      <trkpt lat="47.1297" lon="5.36788">
        <ele>180.60059</ele>
        <time>2026-05-15T10:02:35+02:00</time>
      </trkpt>
      <trkpt lat="47.12974" lon="5.36792">
        <ele>180.7002</ele>
        <time>2026-05-15T10:02:36+02:00</time>
      </trkpt>
      <trkpt lat="47.12978" lon="5.36797">
        <ele>180.7002</ele>
        <time>2026-05-15T10:02:37+02:00</time>
      </trkpt>
      <trkpt lat="47.12982" lon="5.36801">
        <ele>180.7002</ele>
        <time>2026-05-15T10:02:38+02:00</time>
      </trkpt>
      <trkpt lat="47.12986" lon="5.36805">
        <ele>180.60059</ele>
        <time>2026-05-15T10:02:39+02:00</time>
      </trkpt>
      <trkpt lat="47.1299" lon="5.3681">
        <ele>180.7002</ele>
        <time>2026-05-15T10:02:40+02:00</time>
      </trkpt>
      <trkpt lat="47.12994" lon="5.36814">
        <ele>180.5</ele>
        <time>2026-05-15T10:02:41+02:00</time>
      </trkpt>
      <trkpt lat="47.12999" lon="5.36818">
        <ele>180.60059</ele>
        <time>2026-05-15T10:02:42+02:00</time>
      </trkpt>
      <trkpt lat="47.13003" lon="5.36822">
        <ele>180.7998</ele>
        <time>2026-05-15T10:02:43+02:00</time>
      </trkpt>
      <trkpt lat="47.13007" lon="5.36826">
        <ele>181.10059</ele>
        <time>2026-05-15T10:02:44+02:00</time>
      </trkpt>
      <trkpt lat="47.13011" lon="5.3683">
        <ele>180.90039</ele>
        <time>2026-05-15T10:02:45+02:00</time>
      </trkpt>
      <trkpt lat="47.13014" lon="5.36832">
        <ele>181</ele>
        <time>2026-05-15T10:02:46+02:00</time>
      </trkpt>
      <trkpt lat="47.1302" lon="5.36839">
        <ele>180.90039</ele>
        <time>2026-05-15T10:02:47+02:00</time>
      </trkpt>
      <trkpt lat="47.13025" lon="5.36843">
        <ele>181.10059</ele>
        <time>2026-05-15T10:02:48+02:00</time>
      </trkpt>
      <trkpt lat="47.13029" lon="5.36846">
        <ele>181</ele>
        <time>2026-05-15T10:02:49+02:00</time>
      </trkpt>
      <trkpt lat="47.13033" lon="5.3685">
        <ele>181.2998</ele>
        <time>2026-05-15T10:02:50+02:00</time>
      </trkpt>
      <trkpt lat="47.13037" lon="5.36854">
        <ele>181.2998</ele>
        <time>2026-05-15T10:02:51+02:00</time>
      </trkpt>
      <trkpt lat="47.13041" lon="5.36858">
        <ele>181.2998</ele>
        <time>2026-05-15T10:02:52+02:00</time>
      </trkpt>
      <trkpt lat="47.13045" lon="5.36862">
        <ele>181.2998</ele>
        <time>2026-05-15T10:02:53+02:00</time>
      </trkpt>
      <trkpt lat="47.13049" lon="5.36866">
        <ele>181.2002</ele>
        <time>2026-05-15T10:02:54+02:00</time>
      </trkpt>
      <trkpt lat="47.13054" lon="5.3687">
        <ele>181.2002</ele>
        <time>2026-05-15T10:02:55+02:00</time>
      </trkpt>
      <trkpt lat="47.13058" lon="5.36874">
        <ele>181.2998</ele>
        <time>2026-05-15T10:02:56+02:00</time>
      </trkpt>
      <trkpt lat="47.13062" lon="5.36878">
        <ele>181.40039</ele>
        <time>2026-05-15T10:02:57+02:00</time>
      </trkpt>
      <trkpt lat="47.13066" lon="5.36882">
        <ele>181.40039</ele>
        <time>2026-05-15T10:02:58+02:00</time>
      </trkpt>
      <trkpt lat="47.1307" lon="5.36886">
        <ele>181.40039</ele>
        <time>2026-05-15T10:02:59+02:00</time>
      </trkpt>
      <trkpt lat="47.13074" lon="5.3689">
        <ele>181.2998</ele>
        <time>2026-05-15T10:03:00+02:00</time>
      </trkpt>
      <trkpt lat="47.13078" lon="5.36894">
        <ele>181.2998</ele>
        <time>2026-05-15T10:03:01+02:00</time>
      </trkpt>
      <trkpt lat="47.13082" lon="5.36898">
        <ele>181.2998</ele>
        <time>2026-05-15T10:03:02+02:00</time>
      </trkpt>
      <trkpt lat="47.13086" lon="5.36901">
        <ele>181.2002</ele>
        <time>2026-05-15T10:03:03+02:00</time>
      </trkpt>
      <trkpt lat="47.13091" lon="5.36905">
        <ele>181.2002</ele>
        <time>2026-05-15T10:03:04+02:00</time>
      </trkpt>
      <trkpt lat="47.13095" lon="5.36909">
        <ele>181.2998</ele>
        <time>2026-05-15T10:03:05+02:00</time>
      </trkpt>
      <trkpt lat="47.13099" lon="5.36913">
        <ele>181.2998</ele>
        <time>2026-05-15T10:03:06+02:00</time>
      </trkpt>
      <trkpt lat="47.13103" lon="5.36916">
        <ele>181.2998</ele>
        <time>2026-05-15T10:03:07+02:00</time>
      </trkpt>
      <trkpt lat="47.13105" lon="5.36918">
        <ele>181.2998</ele>
        <time>2026-05-15T10:03:08+02:00</time>
      </trkpt>
      <trkpt lat="47.13111" lon="5.36924">
        <ele>181.2002</ele>
        <time>2026-05-15T10:03:09+02:00</time>
      </trkpt>
      <trkpt lat="47.13116" lon="5.36928">
        <ele>181.10059</ele>
        <time>2026-05-15T10:03:10+02:00</time>
      </trkpt>
      <trkpt lat="47.1312" lon="5.36932">
        <ele>181.10059</ele>
        <time>2026-05-15T10:03:11+02:00</time>
      </trkpt>
      <trkpt lat="47.13124" lon="5.36935">
        <ele>181</ele>
        <time>2026-05-15T10:03:12+02:00</time>
      </trkpt>
      <trkpt lat="47.13128" lon="5.36939">
        <ele>181</ele>
        <time>2026-05-15T10:03:13+02:00</time>
      </trkpt>
      <trkpt lat="47.13133" lon="5.36943">
        <ele>181.10059</ele>
        <time>2026-05-15T10:03:14+02:00</time>
      </trkpt>
      <trkpt lat="47.13135" lon="5.36945">
        <ele>181.10059</ele>
        <time>2026-05-15T10:03:15+02:00</time>
      </trkpt>
      <trkpt lat="47.13141" lon="5.3695">
        <ele>181.10059</ele>
        <time>2026-05-15T10:03:16+02:00</time>
      </trkpt>
      <trkpt lat="47.13145" lon="5.36954">
        <ele>181</ele>
        <time>2026-05-15T10:03:17+02:00</time>
      </trkpt>
      <trkpt lat="47.13149" lon="5.36957">
        <ele>181.10059</ele>
        <time>2026-05-15T10:03:18+02:00</time>
      </trkpt>
      <trkpt lat="47.13154" lon="5.36961">
        <ele>181</ele>
        <time>2026-05-15T10:03:19+02:00</time>
      </trkpt>
      <trkpt lat="47.13158" lon="5.36965">
        <ele>181</ele>
        <time>2026-05-15T10:03:20+02:00</time>
      </trkpt>
      <trkpt lat="47.13162" lon="5.36968">
        <ele>181.2002</ele>
        <time>2026-05-15T10:03:21+02:00</time>
      </trkpt>
      <trkpt lat="47.13166" lon="5.36972">
        <ele>181.2002</ele>
        <time>2026-05-15T10:03:22+02:00</time>
      </trkpt>
      <trkpt lat="47.1317" lon="5.36975">
        <ele>181.2002</ele>
        <time>2026-05-15T10:03:23+02:00</time>
      </trkpt>
      <trkpt lat="47.13175" lon="5.36979">
        <ele>181.2002</ele>
        <time>2026-05-15T10:03:24+02:00</time>
      </trkpt>
      <trkpt lat="47.13178" lon="5.36983">
        <ele>181.2998</ele>
        <time>2026-05-15T10:03:25+02:00</time>
      </trkpt>
      <trkpt lat="47.13183" lon="5.36986">
        <ele>181.2998</ele>
        <time>2026-05-15T10:03:26+02:00</time>
      </trkpt>
      <trkpt lat="47.13187" lon="5.3699">
        <ele>181.2998</ele>
        <time>2026-05-15T10:03:27+02:00</time>
      </trkpt>
      <trkpt lat="47.13191" lon="5.36993">
        <ele>181.40039</ele>
        <time>2026-05-15T10:03:28+02:00</time>
      </trkpt>
      <trkpt lat="47.13195" lon="5.36997">
        <ele>181.5</ele>
        <time>2026-05-15T10:03:29+02:00</time>
      </trkpt>
      <trkpt lat="47.13199" lon="5.37001">
        <ele>181.5</ele>
        <time>2026-05-15T10:03:30+02:00</time>
      </trkpt>
      <trkpt lat="47.13204" lon="5.37004">
        <ele>181.5</ele>
        <time>2026-05-15T10:03:31+02:00</time>
      </trkpt>
      <trkpt lat="47.13208" lon="5.37008">
        <ele>181.5</ele>
        <time>2026-05-15T10:03:32+02:00</time>
      </trkpt>
      <trkpt lat="47.13212" lon="5.37012">
        <ele>181.40039</ele>
        <time>2026-05-15T10:03:33+02:00</time>
      </trkpt>
      <trkpt lat="47.13216" lon="5.37015">
        <ele>181.40039</ele>
        <time>2026-05-15T10:03:34+02:00</time>
      </trkpt>
      <trkpt lat="47.13221" lon="5.37019">
        <ele>181.40039</ele>
        <time>2026-05-15T10:03:35+02:00</time>
      </trkpt>
      <trkpt lat="47.13225" lon="5.37022">
        <ele>181.5</ele>
        <time>2026-05-15T10:03:36+02:00</time>
      </trkpt>
      <trkpt lat="47.13229" lon="5.37025">
        <ele>181.60059</ele>
        <time>2026-05-15T10:03:37+02:00</time>
      </trkpt>
      <trkpt lat="47.13233" lon="5.37029">
        <ele>181.7002</ele>
        <time>2026-05-15T10:03:38+02:00</time>
      </trkpt>
      <trkpt lat="47.13238" lon="5.37032">
        <ele>181.7998</ele>
        <time>2026-05-15T10:03:39+02:00</time>
      </trkpt>
      <trkpt lat="47.13242" lon="5.37035">
        <ele>181.7998</ele>
        <time>2026-05-15T10:03:40+02:00</time>
      </trkpt>
      <trkpt lat="47.13246" lon="5.37039">
        <ele>181.7998</ele>
        <time>2026-05-15T10:03:41+02:00</time>
      </trkpt>
      <trkpt lat="47.1325" lon="5.37043">
        <ele>181.7002</ele>
        <time>2026-05-15T10:03:42+02:00</time>
      </trkpt>
      <trkpt lat="47.13254" lon="5.37046">
        <ele>181.7998</ele>
        <time>2026-05-15T10:03:43+02:00</time>
      </trkpt>
      <trkpt lat="47.13258" lon="5.3705">
        <ele>182</ele>
        <time>2026-05-15T10:03:44+02:00</time>
      </trkpt>
      <trkpt lat="47.13263" lon="5.37054">
        <ele>181.90039</ele>
        <time>2026-05-15T10:03:45+02:00</time>
      </trkpt>
      <trkpt lat="47.13267" lon="5.37057">
        <ele>182.10059</ele>
        <time>2026-05-15T10:03:46+02:00</time>
      </trkpt>
      <trkpt lat="47.13271" lon="5.37061">
        <ele>182.10059</ele>
        <time>2026-05-15T10:03:47+02:00</time>
      </trkpt>
      <trkpt lat="47.13275" lon="5.37065">
        <ele>182.10059</ele>
        <time>2026-05-15T10:03:48+02:00</time>
      </trkpt>
      <trkpt lat="47.13279" lon="5.37068">
        <ele>182.2998</ele>
        <time>2026-05-15T10:03:49+02:00</time>
      </trkpt>
      <trkpt lat="47.13284" lon="5.37072">
        <ele>182.2998</ele>
        <time>2026-05-15T10:03:50+02:00</time>
      </trkpt>
      <trkpt lat="47.13288" lon="5.37075">
        <ele>182.5</ele>
        <time>2026-05-15T10:03:51+02:00</time>
      </trkpt>
      <trkpt lat="47.13292" lon="5.37079">
        <ele>182.2998</ele>
        <time>2026-05-15T10:03:52+02:00</time>
      </trkpt>
      <trkpt lat="47.13296" lon="5.37083">
        <ele>182.5</ele>
        <time>2026-05-15T10:03:53+02:00</time>
      </trkpt>
      <trkpt lat="47.133" lon="5.37086">
        <ele>182.60059</ele>
        <time>2026-05-15T10:03:54+02:00</time>
      </trkpt>
      <trkpt lat="47.13305" lon="5.3709">
        <ele>182.7002</ele>
        <time>2026-05-15T10:03:55+02:00</time>
      </trkpt>
      <trkpt lat="47.13309" lon="5.37094">
        <ele>182.7002</ele>
        <time>2026-05-15T10:03:56+02:00</time>
      </trkpt>
      <trkpt lat="47.13313" lon="5.37098">
        <ele>182.90039</ele>
        <time>2026-05-15T10:03:57+02:00</time>
      </trkpt>
      <trkpt lat="47.13318" lon="5.37101">
        <ele>183</ele>
        <time>2026-05-15T10:03:58+02:00</time>
      </trkpt>
      <trkpt lat="47.13322" lon="5.37104">
        <ele>182.90039</ele>
        <time>2026-05-15T10:03:59+02:00</time>
      </trkpt>
      <trkpt lat="47.13326" lon="5.37108">
        <ele>182.90039</ele>
        <time>2026-05-15T10:04:00+02:00</time>
      </trkpt>
      <trkpt lat="47.13331" lon="5.3711">
        <ele>182.90039</ele>
        <time>2026-05-15T10:04:01+02:00</time>
      </trkpt>
      <trkpt lat="47.13335" lon="5.37112">
        <ele>182.7998</ele>
        <time>2026-05-15T10:04:02+02:00</time>
      </trkpt>
      <trkpt lat="47.1334" lon="5.37114">
        <ele>182.7998</ele>
        <time>2026-05-15T10:04:03+02:00</time>
      </trkpt>
      <trkpt lat="47.13345" lon="5.37116">
        <ele>182.7998</ele>
        <time>2026-05-15T10:04:04+02:00</time>
      </trkpt>
      <trkpt lat="47.13349" lon="5.37118">
        <ele>182.7002</ele>
        <time>2026-05-15T10:04:05+02:00</time>
      </trkpt>
      <trkpt lat="47.13354" lon="5.3712">
        <ele>182.7002</ele>
        <time>2026-05-15T10:04:06+02:00</time>
      </trkpt>
      <trkpt lat="47.13358" lon="5.37122">
        <ele>182.7002</ele>
        <time>2026-05-15T10:04:07+02:00</time>
      </trkpt>
      <trkpt lat="47.13363" lon="5.37124">
        <ele>182.7002</ele>
        <time>2026-05-15T10:04:08+02:00</time>
      </trkpt>
      <trkpt lat="47.13367" lon="5.37126">
        <ele>182.60059</ele>
        <time>2026-05-15T10:04:09+02:00</time>
      </trkpt>
      <trkpt lat="47.13371" lon="5.37128">
        <ele>182.5</ele>
        <time>2026-05-15T10:04:10+02:00</time>
      </trkpt>
      <trkpt lat="47.13376" lon="5.37131">
        <ele>182.2002</ele>
        <time>2026-05-15T10:04:11+02:00</time>
      </trkpt>
      <trkpt lat="47.1338" lon="5.37133">
        <ele>182.2002</ele>
        <time>2026-05-15T10:04:12+02:00</time>
      </trkpt>
      <trkpt lat="47.13384" lon="5.37136">
        <ele>182</ele>
        <time>2026-05-15T10:04:13+02:00</time>
      </trkpt>
      <trkpt lat="47.13388" lon="5.37138">
        <ele>181.90039</ele>
        <time>2026-05-15T10:04:14+02:00</time>
      </trkpt>
      <trkpt lat="47.13392" lon="5.3714">
        <ele>181.90039</ele>
        <time>2026-05-15T10:04:15+02:00</time>
      </trkpt>
      <trkpt lat="47.13396" lon="5.37142">
        <ele>181.7998</ele>
        <time>2026-05-15T10:04:16+02:00</time>
      </trkpt>
      <trkpt lat="47.134" lon="5.37144">
        <ele>181.7002</ele>
        <time>2026-05-15T10:04:17+02:00</time>
      </trkpt>
      <trkpt lat="47.13402" lon="5.37145">
        <ele>181.7002</ele>
        <time>2026-05-15T10:04:18+02:00</time>
      </trkpt>
      <trkpt lat="47.13407" lon="5.37148">
        <ele>181.7002</ele>
        <time>2026-05-15T10:04:19+02:00</time>
      </trkpt>
      <trkpt lat="47.13411" lon="5.37149">
        <ele>181.60059</ele>
        <time>2026-05-15T10:04:20+02:00</time>
      </trkpt>
      <trkpt lat="47.13415" lon="5.37151">
        <ele>181.60059</ele>
        <time>2026-05-15T10:04:21+02:00</time>
      </trkpt>
      <trkpt lat="47.13419" lon="5.37152">
        <ele>181.60059</ele>
        <time>2026-05-15T10:04:22+02:00</time>
      </trkpt>
      <trkpt lat="47.13424" lon="5.37153">
        <ele>181.5</ele>
        <time>2026-05-15T10:04:23+02:00</time>
      </trkpt>
      <trkpt lat="47.13429" lon="5.37155">
        <ele>181.2998</ele>
        <time>2026-05-15T10:04:24+02:00</time>
      </trkpt>
      <trkpt lat="47.13434" lon="5.37156">
        <ele>181.2998</ele>
        <time>2026-05-15T10:04:25+02:00</time>
      </trkpt>
      <trkpt lat="47.13438" lon="5.37158">
        <ele>181.2998</ele>
        <time>2026-05-15T10:04:26+02:00</time>
      </trkpt>
      <trkpt lat="47.13443" lon="5.37159">
        <ele>181.2998</ele>
        <time>2026-05-15T10:04:27+02:00</time>
      </trkpt>
      <trkpt lat="47.13448" lon="5.37161">
        <ele>181.2998</ele>
        <time>2026-05-15T10:04:28+02:00</time>
      </trkpt>
      <trkpt lat="47.13454" lon="5.37162">
        <ele>181.2998</ele>
        <time>2026-05-15T10:04:29+02:00</time>
      </trkpt>
      <trkpt lat="47.13459" lon="5.37163">
        <ele>181.2002</ele>
        <time>2026-05-15T10:04:30+02:00</time>
      </trkpt>
      <trkpt lat="47.13464" lon="5.37165">
        <ele>181.2002</ele>
        <time>2026-05-15T10:04:31+02:00</time>
      </trkpt>
      <trkpt lat="47.13469" lon="5.37166">
        <ele>181.2002</ele>
        <time>2026-05-15T10:04:32+02:00</time>
      </trkpt>
      <trkpt lat="47.13474" lon="5.37167">
        <ele>181.2002</ele>
        <time>2026-05-15T10:04:33+02:00</time>
      </trkpt>
      <trkpt lat="47.13479" lon="5.37169">
        <ele>181.2002</ele>
        <time>2026-05-15T10:04:34+02:00</time>
      </trkpt>
      <trkpt lat="47.13484" lon="5.3717">
        <ele>181.2002</ele>
        <time>2026-05-15T10:04:35+02:00</time>
      </trkpt>
      <trkpt lat="47.13489" lon="5.37171">
        <ele>181.2002</ele>
        <time>2026-05-15T10:04:36+02:00</time>
      </trkpt>
      <trkpt lat="47.13494" lon="5.37173">
        <ele>181.2002</ele>
        <time>2026-05-15T10:04:37+02:00</time>
      </trkpt>
      <trkpt lat="47.13499" lon="5.37174">
        <ele>181.2002</ele>
        <time>2026-05-15T10:04:38+02:00</time>
      </trkpt>
      <trkpt lat="47.13503" lon="5.37175">
        <ele>181.2002</ele>
        <time>2026-05-15T10:04:39+02:00</time>
      </trkpt>
      <trkpt lat="47.13509" lon="5.37177">
        <ele>181.10059</ele>
        <time>2026-05-15T10:04:40+02:00</time>
      </trkpt>
      <trkpt lat="47.13513" lon="5.37179">
        <ele>181.10059</ele>
        <time>2026-05-15T10:04:41+02:00</time>
      </trkpt>
      <trkpt lat="47.13518" lon="5.3718">
        <ele>181</ele>
        <time>2026-05-15T10:04:42+02:00</time>
      </trkpt>
      <trkpt lat="47.13523" lon="5.37181">
        <ele>181</ele>
        <time>2026-05-15T10:04:43+02:00</time>
      </trkpt>
      <trkpt lat="47.13528" lon="5.37183">
        <ele>180.90039</ele>
        <time>2026-05-15T10:04:44+02:00</time>
      </trkpt>
      <trkpt lat="47.13533" lon="5.37184">
        <ele>180.90039</ele>
        <time>2026-05-15T10:04:45+02:00</time>
      </trkpt>
      <trkpt lat="47.13538" lon="5.37186">
        <ele>180.90039</ele>
        <time>2026-05-15T10:04:46+02:00</time>
      </trkpt>
      <trkpt lat="47.13542" lon="5.37187">
        <ele>180.7998</ele>
        <time>2026-05-15T10:04:47+02:00</time>
      </trkpt>
      <trkpt lat="47.13545" lon="5.37187">
        <ele>180.7998</ele>
        <time>2026-05-15T10:04:48+02:00</time>
      </trkpt>
      <trkpt lat="47.13547" lon="5.37188">
        <ele>180.7998</ele>
        <time>2026-05-15T10:04:49+02:00</time>
      </trkpt>
      <trkpt lat="47.13548" lon="5.37188">
        <ele>180.7998</ele>
        <time>2026-05-15T10:04:50+02:00</time>
      </trkpt>
      <trkpt lat="47.13549" lon="5.37188">
        <ele>180.7998</ele>
        <time>2026-05-15T10:04:51+02:00</time>
      </trkpt>
      <trkpt lat="47.13549" lon="5.37188">
        <ele>180.7998</ele>
        <time>2026-05-15T10:04:52+02:00</time>
      </trkpt>
      <trkpt lat="47.13549" lon="5.37188">
        <ele>180.7998</ele>
        <time>2026-05-15T10:04:53+02:00</time>
      </trkpt>
      <trkpt lat="47.13549" lon="5.37188">
        <ele>180.7998</ele>
        <time>2026-05-15T10:04:54+02:00</time>
      </trkpt>
      <trkpt lat="47.1357" lon="5.37189">
        <ele>180.90039</ele>
        <time>2026-05-15T10:05:14+02:00</time>
      </trkpt>
      <trkpt lat="47.13572" lon="5.37189">
        <ele>180.90039</ele>
        <time>2026-05-15T10:05:15+02:00</time>
      </trkpt>
      <trkpt lat="47.13575" lon="5.37189">
        <ele>181</ele>
        <time>2026-05-15T10:05:16+02:00</time>
      </trkpt>
      <trkpt lat="47.13578" lon="5.3719">
        <ele>181</ele>
        <time>2026-05-15T10:05:17+02:00</time>
      </trkpt>
      <trkpt lat="47.13582" lon="5.3719">
        <ele>181</ele>
        <time>2026-05-15T10:05:18+02:00</time>
      </trkpt>
      <trkpt lat="47.13585" lon="5.3719">
        <ele>181</ele>
        <time>2026-05-15T10:05:19+02:00</time>
      </trkpt>
      <trkpt lat="47.13589" lon="5.37191">
        <ele>181</ele>
        <time>2026-05-15T10:05:20+02:00</time>
      </trkpt>
      <trkpt lat="47.13592" lon="5.37191">
        <ele>181</ele>
        <time>2026-05-15T10:05:21+02:00</time>
      </trkpt>
      <trkpt lat="47.13595" lon="5.37191">
        <ele>181</ele>
        <time>2026-05-15T10:05:22+02:00</time>
      </trkpt>
      <trkpt lat="47.13599" lon="5.37191">
        <ele>181</ele>
        <time>2026-05-15T10:05:23+02:00</time>
      </trkpt>
      <trkpt lat="47.13603" lon="5.37191">
        <ele>181</ele>
        <time>2026-05-15T10:05:24+02:00</time>
      </trkpt>
      <trkpt lat="47.13608" lon="5.37191">
        <ele>181</ele>
        <time>2026-05-15T10:05:25+02:00</time>
      </trkpt>
      <trkpt lat="47.13612" lon="5.37191">
        <ele>181.10059</ele>
        <time>2026-05-15T10:05:26+02:00</time>
      </trkpt>
      <trkpt lat="47.13617" lon="5.37191">
        <ele>181.10059</ele>
        <time>2026-05-15T10:05:27+02:00</time>
      </trkpt>
      <trkpt lat="47.13621" lon="5.37191">
        <ele>181.2002</ele>
        <time>2026-05-15T10:05:28+02:00</time>
      </trkpt>
      <trkpt lat="47.13624" lon="5.37191">
        <ele>181.2002</ele>
        <time>2026-05-15T10:05:29+02:00</time>
      </trkpt>
      <trkpt lat="47.13631" lon="5.3719">
        <ele>181.2002</ele>
        <time>2026-05-15T10:05:30+02:00</time>
      </trkpt>
      <trkpt lat="47.13636" lon="5.3719">
        <ele>181.2002</ele>
        <time>2026-05-15T10:05:31+02:00</time>
      </trkpt>
      <trkpt lat="47.13641" lon="5.3719">
        <ele>181.2002</ele>
        <time>2026-05-15T10:05:32+02:00</time>
      </trkpt>
      <trkpt lat="47.13646" lon="5.3719">
        <ele>181.2002</ele>
        <time>2026-05-15T10:05:33+02:00</time>
      </trkpt>
      <trkpt lat="47.13651" lon="5.3719">
        <ele>181.2002</ele>
        <time>2026-05-15T10:05:34+02:00</time>
      </trkpt>
      <trkpt lat="47.13656" lon="5.37191">
        <ele>181.2002</ele>
        <time>2026-05-15T10:05:35+02:00</time>
      </trkpt>
      <trkpt lat="47.13661" lon="5.37192">
        <ele>181.2002</ele>
        <time>2026-05-15T10:05:36+02:00</time>
      </trkpt>
      <trkpt lat="47.13666" lon="5.37193">
        <ele>181.2002</ele>
        <time>2026-05-15T10:05:37+02:00</time>
      </trkpt>
      <trkpt lat="47.13671" lon="5.37195">
        <ele>181.10059</ele>
        <time>2026-05-15T10:05:38+02:00</time>
      </trkpt>
      <trkpt lat="47.13677" lon="5.37197">
        <ele>181.10059</ele>
        <time>2026-05-15T10:05:39+02:00</time>
      </trkpt>
      <trkpt lat="47.13682" lon="5.37198">
        <ele>181.2002</ele>
        <time>2026-05-15T10:05:40+02:00</time>
      </trkpt>
      <trkpt lat="47.13688" lon="5.372">
        <ele>181.2002</ele>
        <time>2026-05-15T10:05:41+02:00</time>
      </trkpt>
      <trkpt lat="47.13693" lon="5.37202">
        <ele>181.10059</ele>
        <time>2026-05-15T10:05:42+02:00</time>
      </trkpt>
      <trkpt lat="47.13699" lon="5.37204">
        <ele>181.10059</ele>
        <time>2026-05-15T10:05:43+02:00</time>
      </trkpt>
      <trkpt lat="47.13704" lon="5.37206">
        <ele>181.2998</ele>
        <time>2026-05-15T10:05:44+02:00</time>
      </trkpt>
      <trkpt lat="47.1371" lon="5.37208">
        <ele>181.2998</ele>
        <time>2026-05-15T10:05:45+02:00</time>
      </trkpt>
      <trkpt lat="47.13715" lon="5.3721">
        <ele>181.2002</ele>
        <time>2026-05-15T10:05:46+02:00</time>
      </trkpt>
      <trkpt lat="47.13721" lon="5.37213">
        <ele>181</ele>
        <time>2026-05-15T10:05:47+02:00</time>
      </trkpt>
      <trkpt lat="47.13726" lon="5.37215">
        <ele>181</ele>
        <time>2026-05-15T10:05:48+02:00</time>
      </trkpt>
      <trkpt lat="47.13732" lon="5.37218">
        <ele>180.90039</ele>
        <time>2026-05-15T10:05:49+02:00</time>
      </trkpt>
      <trkpt lat="47.13737" lon="5.37222">
        <ele>181</ele>
        <time>2026-05-15T10:05:50+02:00</time>
      </trkpt>
      <trkpt lat="47.13743" lon="5.37225">
        <ele>181.5</ele>
        <time>2026-05-15T10:05:51+02:00</time>
      </trkpt>
      <trkpt lat="47.13748" lon="5.37228">
        <ele>181.5</ele>
        <time>2026-05-15T10:05:52+02:00</time>
      </trkpt>
      <trkpt lat="47.13753" lon="5.3723">
        <ele>181.7002</ele>
        <time>2026-05-15T10:05:53+02:00</time>
      </trkpt>
      <trkpt lat="47.13759" lon="5.37233">
        <ele>182.5</ele>
        <time>2026-05-15T10:05:54+02:00</time>
      </trkpt>
      <trkpt lat="47.13764" lon="5.37235">
        <ele>182.90039</ele>
        <time>2026-05-15T10:05:55+02:00</time>
      </trkpt>
      <trkpt lat="47.1377" lon="5.37237">
        <ele>183.2998</ele>
        <time>2026-05-15T10:05:56+02:00</time>
      </trkpt>
      <trkpt lat="47.13775" lon="5.37239">
        <ele>183.7002</ele>
        <time>2026-05-15T10:05:57+02:00</time>
      </trkpt>
      <trkpt lat="47.13781" lon="5.37241">
        <ele>184.7002</ele>
        <time>2026-05-15T10:05:58+02:00</time>
      </trkpt>
      <trkpt lat="47.13786" lon="5.37243">
        <ele>184.7002</ele>
        <time>2026-05-15T10:05:59+02:00</time>
      </trkpt>
      <trkpt lat="47.13792" lon="5.37244">
        <ele>184.60059</ele>
        <time>2026-05-15T10:06:00+02:00</time>
      </trkpt>
      <trkpt lat="47.13798" lon="5.37246">
        <ele>184.2998</ele>
        <time>2026-05-15T10:06:01+02:00</time>
      </trkpt>
      <trkpt lat="47.13803" lon="5.37247">
        <ele>184.10059</ele>
        <time>2026-05-15T10:06:02+02:00</time>
      </trkpt>
      <trkpt lat="47.13809" lon="5.37249">
        <ele>184.90039</ele>
        <time>2026-05-15T10:06:03+02:00</time>
      </trkpt>
      <trkpt lat="47.13814" lon="5.37251">
        <ele>185</ele>
        <time>2026-05-15T10:06:04+02:00</time>
      </trkpt>
      <trkpt lat="47.13819" lon="5.37253">
        <ele>185.10059</ele>
        <time>2026-05-15T10:06:05+02:00</time>
      </trkpt>
      <trkpt lat="47.13825" lon="5.37254">
        <ele>185.2002</ele>
        <time>2026-05-15T10:06:06+02:00</time>
      </trkpt>
      <trkpt lat="47.1383" lon="5.37256">
        <ele>185.40039</ele>
        <time>2026-05-15T10:06:07+02:00</time>
      </trkpt>
      <trkpt lat="47.13835" lon="5.37257">
        <ele>185.40039</ele>
        <time>2026-05-15T10:06:08+02:00</time>
      </trkpt>
      <trkpt lat="47.13841" lon="5.37259">
        <ele>186.90039</ele>
        <time>2026-05-15T10:06:09+02:00</time>
      </trkpt>
      <trkpt lat="47.13846" lon="5.3726">
        <ele>186.90039</ele>
        <time>2026-05-15T10:06:10+02:00</time>
      </trkpt>
      <trkpt lat="47.13852" lon="5.37261">
        <ele>187.10059</ele>
        <time>2026-05-15T10:06:11+02:00</time>
      </trkpt>
      <trkpt lat="47.13857" lon="5.37262">
        <ele>187.5</ele>
        <time>2026-05-15T10:06:12+02:00</time>
      </trkpt>
      <trkpt lat="47.13863" lon="5.37263">
        <ele>188</ele>
        <time>2026-05-15T10:06:13+02:00</time>
      </trkpt>
      <trkpt lat="47.13869" lon="5.37264">
        <ele>188.5</ele>
        <time>2026-05-15T10:06:14+02:00</time>
      </trkpt>
      <trkpt lat="47.13875" lon="5.37266">
        <ele>189.7002</ele>
        <time>2026-05-15T10:06:15+02:00</time>
      </trkpt>
      <trkpt lat="47.1388" lon="5.37267">
        <ele>190.2998</ele>
        <time>2026-05-15T10:06:16+02:00</time>
      </trkpt>
      <trkpt lat="47.13885" lon="5.37269">
        <ele>190.90039</ele>
        <time>2026-05-15T10:06:17+02:00</time>
      </trkpt>
      <trkpt lat="47.13891" lon="5.3727">
        <ele>191.2998</ele>
        <time>2026-05-15T10:06:18+02:00</time>
      </trkpt>
      <trkpt lat="47.13894" lon="5.37271">
        <ele>191.2998</ele>
        <time>2026-05-15T10:06:19+02:00</time>
      </trkpt>
      <trkpt lat="47.13902" lon="5.37272">
        <ele>192</ele>
        <time>2026-05-15T10:06:20+02:00</time>
      </trkpt>
      <trkpt lat="47.13908" lon="5.37273">
        <ele>192</ele>
        <time>2026-05-15T10:06:21+02:00</time>
      </trkpt>
      <trkpt lat="47.13913" lon="5.37275">
        <ele>191.7002</ele>
        <time>2026-05-15T10:06:22+02:00</time>
      </trkpt>
      <trkpt lat="47.13919" lon="5.37275">
        <ele>191.2002</ele>
        <time>2026-05-15T10:06:23+02:00</time>
      </trkpt>
      <trkpt lat="47.13925" lon="5.37275">
        <ele>190.2998</ele>
        <time>2026-05-15T10:06:24+02:00</time>
      </trkpt>
      <trkpt lat="47.13927" lon="5.37275">
        <ele>190.2998</ele>
        <time>2026-05-15T10:06:25+02:00</time>
      </trkpt>
      <trkpt lat="47.13936" lon="5.37276">
        <ele>188.60059</ele>
        <time>2026-05-15T10:06:26+02:00</time>
      </trkpt>
      <trkpt lat="47.13942" lon="5.37276">
        <ele>188.2998</ele>
        <time>2026-05-15T10:06:27+02:00</time>
      </trkpt>
      <trkpt lat="47.13948" lon="5.37276">
        <ele>188</ele>
        <time>2026-05-15T10:06:28+02:00</time>
      </trkpt>
      <trkpt lat="47.13954" lon="5.37276">
        <ele>187.7998</ele>
        <time>2026-05-15T10:06:29+02:00</time>
      </trkpt>
      <trkpt lat="47.1396" lon="5.37275">
        <ele>187.60059</ele>
        <time>2026-05-15T10:06:30+02:00</time>
      </trkpt>
      <trkpt lat="47.13967" lon="5.37275">
        <ele>187.5</ele>
        <time>2026-05-15T10:06:31+02:00</time>
      </trkpt>
      <trkpt lat="47.13973" lon="5.37275">
        <ele>187.40039</ele>
        <time>2026-05-15T10:06:32+02:00</time>
      </trkpt>
      <trkpt lat="47.13979" lon="5.37274">
        <ele>184.5</ele>
        <time>2026-05-15T10:06:33+02:00</time>
      </trkpt>
      <trkpt lat="47.13985" lon="5.37274">
        <ele>184.5</ele>
        <time>2026-05-15T10:06:34+02:00</time>
      </trkpt>
      <trkpt lat="47.13991" lon="5.37273">
        <ele>184.60059</ele>
        <time>2026-05-15T10:06:35+02:00</time>
      </trkpt>
      <trkpt lat="47.13997" lon="5.37272">
        <ele>184.7002</ele>
        <time>2026-05-15T10:06:36+02:00</time>
      </trkpt>
      <trkpt lat="47.14003" lon="5.37271">
        <ele>185</ele>
        <time>2026-05-15T10:06:37+02:00</time>
      </trkpt>
      <trkpt lat="47.14009" lon="5.3727">
        <ele>185.40039</ele>
        <time>2026-05-15T10:06:38+02:00</time>
      </trkpt>
      <trkpt lat="47.14015" lon="5.37269">
        <ele>186</ele>
        <time>2026-05-15T10:06:39+02:00</time>
      </trkpt>
      <trkpt lat="47.14021" lon="5.37268">
        <ele>186.7998</ele>
        <time>2026-05-15T10:06:40+02:00</time>
      </trkpt>
      <trkpt lat="47.14026" lon="5.37267">
        <ele>187.40039</ele>
        <time>2026-05-15T10:06:41+02:00</time>
      </trkpt>
      <trkpt lat="47.14032" lon="5.37266">
        <ele>187.90039</ele>
        <time>2026-05-15T10:06:42+02:00</time>
      </trkpt>
      <trkpt lat="47.14038" lon="5.37265">
        <ele>186</ele>
        <time>2026-05-15T10:06:43+02:00</time>
      </trkpt>
      <trkpt lat="47.14044" lon="5.37264">
        <ele>186.40039</ele>
        <time>2026-05-15T10:06:44+02:00</time>
      </trkpt>
      <trkpt lat="47.14049" lon="5.37263">
        <ele>186.7002</ele>
        <time>2026-05-15T10:06:45+02:00</time>
      </trkpt>
      <trkpt lat="47.14055" lon="5.37261">
        <ele>187.10059</ele>
        <time>2026-05-15T10:06:46+02:00</time>
      </trkpt>
      <trkpt lat="47.1406" lon="5.3726">
        <ele>187.2998</ele>
        <time>2026-05-15T10:06:47+02:00</time>
      </trkpt>
      <trkpt lat="47.14065" lon="5.37259">
        <ele>187.60059</ele>
        <time>2026-05-15T10:06:48+02:00</time>
      </trkpt>
      <trkpt lat="47.14071" lon="5.37258">
        <ele>188.10059</ele>
        <time>2026-05-15T10:06:49+02:00</time>
      </trkpt>
      <trkpt lat="47.14077" lon="5.37256">
        <ele>186.7002</ele>
        <time>2026-05-15T10:06:50+02:00</time>
      </trkpt>
      <trkpt lat="47.14082" lon="5.37255">
        <ele>188</ele>
        <time>2026-05-15T10:06:51+02:00</time>
      </trkpt>
      <trkpt lat="47.14089" lon="5.37254">
        <ele>189.2998</ele>
        <time>2026-05-15T10:06:52+02:00</time>
      </trkpt>
      <trkpt lat="47.14095" lon="5.37252">
        <ele>190.2998</ele>
        <time>2026-05-15T10:06:53+02:00</time>
      </trkpt>
      <trkpt lat="47.141" lon="5.3725">
        <ele>190.40039</ele>
        <time>2026-05-15T10:06:54+02:00</time>
      </trkpt>
      <trkpt lat="47.14106" lon="5.37248">
        <ele>189.2002</ele>
        <time>2026-05-15T10:06:55+02:00</time>
      </trkpt>
      <trkpt lat="47.14112" lon="5.37246">
        <ele>189.10059</ele>
        <time>2026-05-15T10:06:56+02:00</time>
      </trkpt>
      <trkpt lat="47.14118" lon="5.37244">
        <ele>189.10059</ele>
        <time>2026-05-15T10:06:57+02:00</time>
      </trkpt>
      <trkpt lat="47.14123" lon="5.37243">
        <ele>189.2002</ele>
        <time>2026-05-15T10:06:58+02:00</time>
      </trkpt>
      <trkpt lat="47.14129" lon="5.37241">
        <ele>189.40039</ele>
        <time>2026-05-15T10:06:59+02:00</time>
      </trkpt>
      <trkpt lat="47.14135" lon="5.37239">
        <ele>188.10059</ele>
        <time>2026-05-15T10:07:00+02:00</time>
      </trkpt>
      <trkpt lat="47.14141" lon="5.37237">
        <ele>188.2002</ele>
        <time>2026-05-15T10:07:01+02:00</time>
      </trkpt>
      <trkpt lat="47.14144" lon="5.37236">
        <ele>188.2002</ele>
        <time>2026-05-15T10:07:02+02:00</time>
      </trkpt>
      <trkpt lat="47.14153" lon="5.37234">
        <ele>187.90039</ele>
        <time>2026-05-15T10:07:03+02:00</time>
      </trkpt>
      <trkpt lat="47.14158" lon="5.37232">
        <ele>188</ele>
        <time>2026-05-15T10:07:04+02:00</time>
      </trkpt>
      <trkpt lat="47.14164" lon="5.3723">
        <ele>186.90039</ele>
        <time>2026-05-15T10:07:05+02:00</time>
      </trkpt>
      <trkpt lat="47.14169" lon="5.37228">
        <ele>188.10059</ele>
        <time>2026-05-15T10:07:06+02:00</time>
      </trkpt>
      <trkpt lat="47.14175" lon="5.37226">
        <ele>189.7002</ele>
        <time>2026-05-15T10:07:07+02:00</time>
      </trkpt>
      <trkpt lat="47.14181" lon="5.37224">
        <ele>191.2002</ele>
        <time>2026-05-15T10:07:08+02:00</time>
      </trkpt>
      <trkpt lat="47.14186" lon="5.37222">
        <ele>188.2002</ele>
        <time>2026-05-15T10:07:09+02:00</time>
      </trkpt>
      <trkpt lat="47.14191" lon="5.3722">
        <ele>188.7998</ele>
        <time>2026-05-15T10:07:10+02:00</time>
      </trkpt>
      <trkpt lat="47.14196" lon="5.37219">
        <ele>189.10059</ele>
        <time>2026-05-15T10:07:11+02:00</time>
      </trkpt>
      <trkpt lat="47.142" lon="5.37217">
        <ele>189.40039</ele>
        <time>2026-05-15T10:07:12+02:00</time>
      </trkpt>
      <trkpt lat="47.14205" lon="5.37216">
        <ele>189.60059</ele>
        <time>2026-05-15T10:07:13+02:00</time>
      </trkpt>
      <trkpt lat="47.14211" lon="5.37214">
        <ele>186.2998</ele>
        <time>2026-05-15T10:07:14+02:00</time>
      </trkpt>
      <trkpt lat="47.14215" lon="5.37212">
        <ele>186.2998</ele>
        <time>2026-05-15T10:07:15+02:00</time>
      </trkpt>
      <trkpt lat="47.14221" lon="5.3721">
        <ele>186.40039</ele>
        <time>2026-05-15T10:07:16+02:00</time>
      </trkpt>
      <trkpt lat="47.14226" lon="5.37209">
        <ele>186.60059</ele>
        <time>2026-05-15T10:07:17+02:00</time>
      </trkpt>
      <trkpt lat="47.14231" lon="5.37208">
        <ele>186.7002</ele>
        <time>2026-05-15T10:07:18+02:00</time>
      </trkpt>
      <trkpt lat="47.14237" lon="5.37207">
        <ele>186.7998</ele>
        <time>2026-05-15T10:07:19+02:00</time>
      </trkpt>
      <trkpt lat="47.14243" lon="5.37206">
        <ele>186.90039</ele>
        <time>2026-05-15T10:07:20+02:00</time>
      </trkpt>
      <trkpt lat="47.14248" lon="5.37205">
        <ele>184.40039</ele>
        <time>2026-05-15T10:07:21+02:00</time>
      </trkpt>
      <trkpt lat="47.14254" lon="5.37204">
        <ele>184.60059</ele>
        <time>2026-05-15T10:07:22+02:00</time>
      </trkpt>
      <trkpt lat="47.1426" lon="5.37203">
        <ele>184.7002</ele>
        <time>2026-05-15T10:07:23+02:00</time>
      </trkpt>
      <trkpt lat="47.14266" lon="5.37201">
        <ele>184.90039</ele>
        <time>2026-05-15T10:07:24+02:00</time>
      </trkpt>
      <trkpt lat="47.14271" lon="5.372">
        <ele>185.2998</ele>
        <time>2026-05-15T10:07:25+02:00</time>
      </trkpt>
      <trkpt lat="47.14276" lon="5.37199">
        <ele>185.7998</ele>
        <time>2026-05-15T10:07:26+02:00</time>
      </trkpt>
      <trkpt lat="47.14282" lon="5.37198">
        <ele>187</ele>
        <time>2026-05-15T10:07:27+02:00</time>
      </trkpt>
      <trkpt lat="47.14287" lon="5.37197">
        <ele>187.7998</ele>
        <time>2026-05-15T10:07:28+02:00</time>
      </trkpt>
      <trkpt lat="47.14292" lon="5.37196">
        <ele>189.2002</ele>
        <time>2026-05-15T10:07:29+02:00</time>
      </trkpt>
      <trkpt lat="47.14298" lon="5.37194">
        <ele>189.40039</ele>
        <time>2026-05-15T10:07:30+02:00</time>
      </trkpt>
      <trkpt lat="47.14303" lon="5.37193">
        <ele>189.40039</ele>
        <time>2026-05-15T10:07:31+02:00</time>
      </trkpt>
      <trkpt lat="47.14308" lon="5.37191">
        <ele>189</ele>
        <time>2026-05-15T10:07:32+02:00</time>
      </trkpt>
      <trkpt lat="47.14314" lon="5.3719">
        <ele>188.60059</ele>
        <time>2026-05-15T10:07:33+02:00</time>
      </trkpt>
      <trkpt lat="47.14319" lon="5.37189">
        <ele>188.2998</ele>
        <time>2026-05-15T10:07:34+02:00</time>
      </trkpt>
      <trkpt lat="47.14324" lon="5.37188">
        <ele>187.2002</ele>
        <time>2026-05-15T10:07:35+02:00</time>
      </trkpt>
      <trkpt lat="47.14329" lon="5.37187">
        <ele>187.10059</ele>
        <time>2026-05-15T10:07:36+02:00</time>
      </trkpt>
      <trkpt lat="47.14335" lon="5.37186">
        <ele>186.90039</ele>
        <time>2026-05-15T10:07:37+02:00</time>
      </trkpt>
      <trkpt lat="47.1434" lon="5.37184">
        <ele>186.7998</ele>
        <time>2026-05-15T10:07:38+02:00</time>
      </trkpt>
      <trkpt lat="47.14345" lon="5.37183">
        <ele>186.7998</ele>
        <time>2026-05-15T10:07:39+02:00</time>
      </trkpt>
      <trkpt lat="47.14351" lon="5.37181">
        <ele>186.90039</ele>
        <time>2026-05-15T10:07:40+02:00</time>
      </trkpt>
      <trkpt lat="47.14356" lon="5.3718">
        <ele>186.90039</ele>
        <time>2026-05-15T10:07:41+02:00</time>
      </trkpt>
      <trkpt lat="47.14361" lon="5.37179">
        <ele>185.60059</ele>
        <time>2026-05-15T10:07:42+02:00</time>
      </trkpt>
      <trkpt lat="47.14366" lon="5.37177">
        <ele>185.7002</ele>
        <time>2026-05-15T10:07:43+02:00</time>
      </trkpt>
      <trkpt lat="47.14371" lon="5.37176">
        <ele>185.7002</ele>
        <time>2026-05-15T10:07:44+02:00</time>
      </trkpt>
      <trkpt lat="47.14376" lon="5.37175">
        <ele>185.7002</ele>
        <time>2026-05-15T10:07:45+02:00</time>
      </trkpt>
      <trkpt lat="47.14381" lon="5.37174">
        <ele>185.7002</ele>
        <time>2026-05-15T10:07:46+02:00</time>
      </trkpt>
      <trkpt lat="47.14386" lon="5.37173">
        <ele>185.7002</ele>
        <time>2026-05-15T10:07:47+02:00</time>
      </trkpt>
      <trkpt lat="47.14391" lon="5.37171">
        <ele>184.2998</ele>
        <time>2026-05-15T10:07:48+02:00</time>
      </trkpt>
      <trkpt lat="47.14396" lon="5.3717">
        <ele>184.2998</ele>
        <time>2026-05-15T10:07:49+02:00</time>
      </trkpt>
      <trkpt lat="47.14401" lon="5.37169">
        <ele>184.2998</ele>
        <time>2026-05-15T10:07:50+02:00</time>
      </trkpt>
      <trkpt lat="47.14406" lon="5.37168">
        <ele>184.2998</ele>
        <time>2026-05-15T10:07:51+02:00</time>
      </trkpt>
      <trkpt lat="47.14411" lon="5.37167">
        <ele>184.2002</ele>
        <time>2026-05-15T10:07:52+02:00</time>
      </trkpt>
      <trkpt lat="47.14416" lon="5.37166">
        <ele>184.10059</ele>
        <time>2026-05-15T10:07:53+02:00</time>
      </trkpt>
      <trkpt lat="47.14421" lon="5.37165">
        <ele>183.90039</ele>
        <time>2026-05-15T10:07:54+02:00</time>
      </trkpt>
      <trkpt lat="47.14425" lon="5.37164">
        <ele>183.90039</ele>
        <time>2026-05-15T10:07:55+02:00</time>
      </trkpt>
      <trkpt lat="47.1443" lon="5.37164">
        <ele>183.7998</ele>
        <time>2026-05-15T10:07:56+02:00</time>
      </trkpt>
      <trkpt lat="47.14435" lon="5.37163">
        <ele>183.7998</ele>
        <time>2026-05-15T10:07:57+02:00</time>
      </trkpt>
      <trkpt lat="47.1444" lon="5.37163">
        <ele>183.7998</ele>
        <time>2026-05-15T10:07:58+02:00</time>
      </trkpt>
      <trkpt lat="47.14445" lon="5.37162">
        <ele>182.7998</ele>
        <time>2026-05-15T10:07:59+02:00</time>
      </trkpt>
      <trkpt lat="47.1445" lon="5.37161">
        <ele>183</ele>
        <time>2026-05-15T10:08:00+02:00</time>
      </trkpt>
      <trkpt lat="47.14454" lon="5.37159">
        <ele>183</ele>
        <time>2026-05-15T10:08:01+02:00</time>
      </trkpt>
      <trkpt lat="47.14459" lon="5.37157">
        <ele>183</ele>
        <time>2026-05-15T10:08:02+02:00</time>
      </trkpt>
      <trkpt lat="47.14464" lon="5.37155">
        <ele>183</ele>
        <time>2026-05-15T10:08:03+02:00</time>
      </trkpt>
      <trkpt lat="47.14468" lon="5.37152">
        <ele>182.40039</ele>
        <time>2026-05-15T10:08:04+02:00</time>
      </trkpt>
      <trkpt lat="47.14472" lon="5.37149">
        <ele>182.40039</ele>
        <time>2026-05-15T10:08:05+02:00</time>
      </trkpt>
      <trkpt lat="47.14477" lon="5.37146">
        <ele>182.60059</ele>
        <time>2026-05-15T10:08:06+02:00</time>
      </trkpt>
      <trkpt lat="47.14481" lon="5.37145">
        <ele>182.5</ele>
        <time>2026-05-15T10:08:07+02:00</time>
      </trkpt>
      <trkpt lat="47.14486" lon="5.37143">
        <ele>183.2998</ele>
        <time>2026-05-15T10:08:08+02:00</time>
      </trkpt>
      <trkpt lat="47.14491" lon="5.37141">
        <ele>184</ele>
        <time>2026-05-15T10:08:09+02:00</time>
      </trkpt>
      <trkpt lat="47.14496" lon="5.37139">
        <ele>184.2998</ele>
        <time>2026-05-15T10:08:10+02:00</time>
      </trkpt>
      <trkpt lat="47.14502" lon="5.37137">
        <ele>183.2002</ele>
        <time>2026-05-15T10:08:11+02:00</time>
      </trkpt>
      <trkpt lat="47.14507" lon="5.37135">
        <ele>183.2002</ele>
        <time>2026-05-15T10:08:12+02:00</time>
      </trkpt>
      <trkpt lat="47.14512" lon="5.37132">
        <ele>182.7002</ele>
        <time>2026-05-15T10:08:13+02:00</time>
      </trkpt>
      <trkpt lat="47.14518" lon="5.3713">
        <ele>182.2998</ele>
        <time>2026-05-15T10:08:14+02:00</time>
      </trkpt>
      <trkpt lat="47.14523" lon="5.37128">
        <ele>181.5</ele>
        <time>2026-05-15T10:08:15+02:00</time>
      </trkpt>
      <trkpt lat="47.14529" lon="5.37126">
        <ele>181.60059</ele>
        <time>2026-05-15T10:08:16+02:00</time>
      </trkpt>
      <trkpt lat="47.14534" lon="5.37123">
        <ele>181.7998</ele>
        <time>2026-05-15T10:08:17+02:00</time>
      </trkpt>
      <trkpt lat="47.14539" lon="5.3712">
        <ele>181.90039</ele>
        <time>2026-05-15T10:08:18+02:00</time>
      </trkpt>
      <trkpt lat="47.14544" lon="5.37117">
        <ele>181.2998</ele>
        <time>2026-05-15T10:08:19+02:00</time>
      </trkpt>
      <trkpt lat="47.14549" lon="5.37113">
        <ele>181.40039</ele>
        <time>2026-05-15T10:08:20+02:00</time>
      </trkpt>
      <trkpt lat="47.14554" lon="5.37111">
        <ele>180.7002</ele>
        <time>2026-05-15T10:08:21+02:00</time>
      </trkpt>
      <trkpt lat="47.14559" lon="5.37108">
        <ele>180.90039</ele>
        <time>2026-05-15T10:08:22+02:00</time>
      </trkpt>
      <trkpt lat="47.14564" lon="5.37105">
        <ele>181.10059</ele>
        <time>2026-05-15T10:08:23+02:00</time>
      </trkpt>
      <trkpt lat="47.14568" lon="5.37102">
        <ele>181</ele>
        <time>2026-05-15T10:08:24+02:00</time>
      </trkpt>
      <trkpt lat="47.14573" lon="5.371">
        <ele>181.40039</ele>
        <time>2026-05-15T10:08:25+02:00</time>
      </trkpt>
      <trkpt lat="47.14578" lon="5.37096">
        <ele>181.7998</ele>
        <time>2026-05-15T10:08:26+02:00</time>
      </trkpt>
      <trkpt lat="47.14582" lon="5.37094">
        <ele>181.2002</ele>
        <time>2026-05-15T10:08:27+02:00</time>
      </trkpt>
      <trkpt lat="47.14587" lon="5.37091">
        <ele>181.5</ele>
        <time>2026-05-15T10:08:28+02:00</time>
      </trkpt>
      <trkpt lat="47.14591" lon="5.37089">
        <ele>181.7002</ele>
        <time>2026-05-15T10:08:29+02:00</time>
      </trkpt>
      <trkpt lat="47.14596" lon="5.37086">
        <ele>181.90039</ele>
        <time>2026-05-15T10:08:30+02:00</time>
      </trkpt>
      <trkpt lat="47.14601" lon="5.37083">
        <ele>181.10059</ele>
        <time>2026-05-15T10:08:31+02:00</time>
      </trkpt>
      <trkpt lat="47.14605" lon="5.3708">
        <ele>181.10059</ele>
        <time>2026-05-15T10:08:32+02:00</time>
      </trkpt>
      <trkpt lat="47.1461" lon="5.37077">
        <ele>181.10059</ele>
        <time>2026-05-15T10:08:33+02:00</time>
      </trkpt>
      <trkpt lat="47.14615" lon="5.37074">
        <ele>180.2002</ele>
        <time>2026-05-15T10:08:34+02:00</time>
      </trkpt>
      <trkpt lat="47.1462" lon="5.37071">
        <ele>180.2002</ele>
        <time>2026-05-15T10:08:35+02:00</time>
      </trkpt>
      <trkpt lat="47.14624" lon="5.37068">
        <ele>179.60059</ele>
        <time>2026-05-15T10:08:36+02:00</time>
      </trkpt>
      <trkpt lat="47.14629" lon="5.37065">
        <ele>179.60059</ele>
        <time>2026-05-15T10:08:37+02:00</time>
      </trkpt>
      <trkpt lat="47.14633" lon="5.37062">
        <ele>179.7002</ele>
        <time>2026-05-15T10:08:38+02:00</time>
      </trkpt>
      <trkpt lat="47.14638" lon="5.37059">
        <ele>179.2998</ele>
        <time>2026-05-15T10:08:39+02:00</time>
      </trkpt>
      <trkpt lat="47.14642" lon="5.37057">
        <ele>179.40039</ele>
        <time>2026-05-15T10:08:40+02:00</time>
      </trkpt>
      <trkpt lat="47.14647" lon="5.37054">
        <ele>179.40039</ele>
        <time>2026-05-15T10:08:41+02:00</time>
      </trkpt>
      <trkpt lat="47.14651" lon="5.37052">
        <ele>179.60059</ele>
        <time>2026-05-15T10:08:42+02:00</time>
      </trkpt>
      <trkpt lat="47.14656" lon="5.37049">
        <ele>179.5</ele>
        <time>2026-05-15T10:08:43+02:00</time>
      </trkpt>
      <trkpt lat="47.1466" lon="5.37046">
        <ele>179.90039</ele>
        <time>2026-05-15T10:08:44+02:00</time>
      </trkpt>
      <trkpt lat="47.14665" lon="5.37044">
        <ele>179.90039</ele>
        <time>2026-05-15T10:08:45+02:00</time>
      </trkpt>
      <trkpt lat="47.14669" lon="5.37042">
        <ele>179.60059</ele>
        <time>2026-05-15T10:08:46+02:00</time>
      </trkpt>
      <trkpt lat="47.14674" lon="5.3704">
        <ele>179.7998</ele>
        <time>2026-05-15T10:08:47+02:00</time>
      </trkpt>
      <trkpt lat="47.14678" lon="5.37038">
        <ele>179.90039</ele>
        <time>2026-05-15T10:08:48+02:00</time>
      </trkpt>
      <trkpt lat="47.14683" lon="5.37035">
        <ele>179.90039</ele>
        <time>2026-05-15T10:08:49+02:00</time>
      </trkpt>
      <trkpt lat="47.14687" lon="5.37033">
        <ele>179.2998</ele>
        <time>2026-05-15T10:08:50+02:00</time>
      </trkpt>
      <trkpt lat="47.14692" lon="5.37031">
        <ele>179.40039</ele>
        <time>2026-05-15T10:08:51+02:00</time>
      </trkpt>
      <trkpt lat="47.14697" lon="5.37029">
        <ele>179.5</ele>
        <time>2026-05-15T10:08:52+02:00</time>
      </trkpt>
      <trkpt lat="47.14701" lon="5.37026">
        <ele>179.60059</ele>
        <time>2026-05-15T10:08:53+02:00</time>
      </trkpt>
      <trkpt lat="47.14706" lon="5.37024">
        <ele>179.2998</ele>
        <time>2026-05-15T10:08:54+02:00</time>
      </trkpt>
      <trkpt lat="47.1471" lon="5.37022">
        <ele>179.2998</ele>
        <time>2026-05-15T10:08:55+02:00</time>
      </trkpt>
      <trkpt lat="47.14715" lon="5.3702">
        <ele>179.40039</ele>
        <time>2026-05-15T10:08:56+02:00</time>
      </trkpt>
      <trkpt lat="47.1472" lon="5.37017">
        <ele>179.5</ele>
        <time>2026-05-15T10:08:57+02:00</time>
      </trkpt>
      <trkpt lat="47.14724" lon="5.37015">
        <ele>179.2002</ele>
        <time>2026-05-15T10:08:58+02:00</time>
      </trkpt>
      <trkpt lat="47.14729" lon="5.37013">
        <ele>179.2002</ele>
        <time>2026-05-15T10:08:59+02:00</time>
      </trkpt>
      <trkpt lat="47.14733" lon="5.37011">
        <ele>179.40039</ele>
        <time>2026-05-15T10:09:00+02:00</time>
      </trkpt>
      <trkpt lat="47.14738" lon="5.37009">
        <ele>179.7002</ele>
        <time>2026-05-15T10:09:01+02:00</time>
      </trkpt>
      <trkpt lat="47.14743" lon="5.37007">
        <ele>179.7002</ele>
        <time>2026-05-15T10:09:02+02:00</time>
      </trkpt>
      <trkpt lat="47.14748" lon="5.37005">
        <ele>180</ele>
        <time>2026-05-15T10:09:03+02:00</time>
      </trkpt>
      <trkpt lat="47.14752" lon="5.37003">
        <ele>180</ele>
        <time>2026-05-15T10:09:04+02:00</time>
      </trkpt>
      <trkpt lat="47.14757" lon="5.37001">
        <ele>180.40039</ele>
        <time>2026-05-15T10:09:05+02:00</time>
      </trkpt>
      <trkpt lat="47.14762" lon="5.37">
        <ele>180.7002</ele>
        <time>2026-05-15T10:09:06+02:00</time>
      </trkpt>
      <trkpt lat="47.14767" lon="5.36998">
        <ele>180.10059</ele>
        <time>2026-05-15T10:09:07+02:00</time>
      </trkpt>
      <trkpt lat="47.14772" lon="5.36996">
        <ele>180.2002</ele>
        <time>2026-05-15T10:09:08+02:00</time>
      </trkpt>
      <trkpt lat="47.14776" lon="5.36995">
        <ele>180.2998</ele>
        <time>2026-05-15T10:09:09+02:00</time>
      </trkpt>
      <trkpt lat="47.14781" lon="5.36993">
        <ele>180.2998</ele>
        <time>2026-05-15T10:09:10+02:00</time>
      </trkpt>
      <trkpt lat="47.14786" lon="5.36991">
        <ele>179.7998</ele>
        <time>2026-05-15T10:09:11+02:00</time>
      </trkpt>
      <trkpt lat="47.1479" lon="5.36989">
        <ele>179.90039</ele>
        <time>2026-05-15T10:09:12+02:00</time>
      </trkpt>
      <trkpt lat="47.14795" lon="5.36988">
        <ele>180.10059</ele>
        <time>2026-05-15T10:09:13+02:00</time>
      </trkpt>
      <trkpt lat="47.148" lon="5.36986">
        <ele>180.2998</ele>
        <time>2026-05-15T10:09:14+02:00</time>
      </trkpt>
      <trkpt lat="47.14805" lon="5.36984">
        <ele>180.2998</ele>
        <time>2026-05-15T10:09:15+02:00</time>
      </trkpt>
      <trkpt lat="47.1481" lon="5.36983">
        <ele>180.5</ele>
        <time>2026-05-15T10:09:16+02:00</time>
      </trkpt>
      <trkpt lat="47.14814" lon="5.36981">
        <ele>180</ele>
        <time>2026-05-15T10:09:17+02:00</time>
      </trkpt>
      <trkpt lat="47.14819" lon="5.3698">
        <ele>180.2002</ele>
        <time>2026-05-15T10:09:18+02:00</time>
      </trkpt>
      <trkpt lat="47.14824" lon="5.36978">
        <ele>180.5</ele>
        <time>2026-05-15T10:09:19+02:00</time>
      </trkpt>
      <trkpt lat="47.14829" lon="5.36977">
        <ele>180.7998</ele>
        <time>2026-05-15T10:09:20+02:00</time>
      </trkpt>
      <trkpt lat="47.14834" lon="5.36975">
        <ele>180.7998</ele>
        <time>2026-05-15T10:09:21+02:00</time>
      </trkpt>
      <trkpt lat="47.14839" lon="5.36974">
        <ele>181.40039</ele>
        <time>2026-05-15T10:09:22+02:00</time>
      </trkpt>
      <trkpt lat="47.14844" lon="5.36972">
        <ele>181.5</ele>
        <time>2026-05-15T10:09:23+02:00</time>
      </trkpt>
      <trkpt lat="47.14849" lon="5.3697">
        <ele>182</ele>
        <time>2026-05-15T10:09:24+02:00</time>
      </trkpt>
      <trkpt lat="47.14854" lon="5.36969">
        <ele>182.40039</ele>
        <time>2026-05-15T10:09:25+02:00</time>
      </trkpt>
      <trkpt lat="47.14859" lon="5.36967">
        <ele>182.7002</ele>
        <time>2026-05-15T10:09:26+02:00</time>
      </trkpt>
      <trkpt lat="47.14864" lon="5.36965">
        <ele>181.90039</ele>
        <time>2026-05-15T10:09:27+02:00</time>
      </trkpt>
      <trkpt lat="47.14869" lon="5.36964">
        <ele>181.90039</ele>
        <time>2026-05-15T10:09:28+02:00</time>
      </trkpt>
      <trkpt lat="47.14874" lon="5.36962">
        <ele>182</ele>
        <time>2026-05-15T10:09:29+02:00</time>
      </trkpt>
      <trkpt lat="47.14879" lon="5.36961">
        <ele>182.10059</ele>
        <time>2026-05-15T10:09:30+02:00</time>
      </trkpt>
      <trkpt lat="47.14884" lon="5.36959">
        <ele>182.2002</ele>
        <time>2026-05-15T10:09:31+02:00</time>
      </trkpt>
      <trkpt lat="47.14887" lon="5.36958">
        <ele>182.2998</ele>
        <time>2026-05-15T10:09:32+02:00</time>
      </trkpt>
      <trkpt lat="47.14894" lon="5.36956">
        <ele>181.2002</ele>
        <time>2026-05-15T10:09:33+02:00</time>
      </trkpt>
      <trkpt lat="47.14899" lon="5.36955">
        <ele>181.2998</ele>
        <time>2026-05-15T10:09:34+02:00</time>
      </trkpt>
      <trkpt lat="47.14901" lon="5.36954">
        <ele>181.2998</ele>
        <time>2026-05-15T10:09:35+02:00</time>
      </trkpt>
      <trkpt lat="47.14908" lon="5.36952">
        <ele>181.40039</ele>
        <time>2026-05-15T10:09:36+02:00</time>
      </trkpt>
      <trkpt lat="47.14913" lon="5.3695">
        <ele>181.5</ele>
        <time>2026-05-15T10:09:37+02:00</time>
      </trkpt>
      <trkpt lat="47.14917" lon="5.36948">
        <ele>180.60059</ele>
        <time>2026-05-15T10:09:38+02:00</time>
      </trkpt>
      <trkpt lat="47.14921" lon="5.36946">
        <ele>180.60059</ele>
        <time>2026-05-15T10:09:39+02:00</time>
      </trkpt>
      <trkpt lat="47.14926" lon="5.36944">
        <ele>180.7002</ele>
        <time>2026-05-15T10:09:40+02:00</time>
      </trkpt>
      <trkpt lat="47.1493" lon="5.36942">
        <ele>180.7998</ele>
        <time>2026-05-15T10:09:41+02:00</time>
      </trkpt>
      <trkpt lat="47.14933" lon="5.36941">
        <ele>180.7998</ele>
        <time>2026-05-15T10:09:42+02:00</time>
      </trkpt>
      <trkpt lat="47.1494" lon="5.36938">
        <ele>180.60059</ele>
        <time>2026-05-15T10:09:43+02:00</time>
      </trkpt>
      <trkpt lat="47.14945" lon="5.36935">
        <ele>180.60059</ele>
        <time>2026-05-15T10:09:44+02:00</time>
      </trkpt>
      <trkpt lat="47.14949" lon="5.36933">
        <ele>181</ele>
        <time>2026-05-15T10:09:45+02:00</time>
      </trkpt>
      <trkpt lat="47.14953" lon="5.36931">
        <ele>180.90039</ele>
        <time>2026-05-15T10:09:46+02:00</time>
      </trkpt>
      <trkpt lat="47.14958" lon="5.36928">
        <ele>181.2998</ele>
        <time>2026-05-15T10:09:47+02:00</time>
      </trkpt>
      <trkpt lat="47.14963" lon="5.36926">
        <ele>181.40039</ele>
        <time>2026-05-15T10:09:48+02:00</time>
      </trkpt>
      <trkpt lat="47.14966" lon="5.36925">
        <ele>181.40039</ele>
        <time>2026-05-15T10:09:49+02:00</time>
      </trkpt>
      <trkpt lat="47.14974" lon="5.36921">
        <ele>180.7002</ele>
        <time>2026-05-15T10:09:50+02:00</time>
      </trkpt>
      <trkpt lat="47.14978" lon="5.36919">
        <ele>180.7998</ele>
        <time>2026-05-15T10:09:51+02:00</time>
      </trkpt>
      <trkpt lat="47.14983" lon="5.36917">
        <ele>180.90039</ele>
        <time>2026-05-15T10:09:52+02:00</time>
      </trkpt>
      <trkpt lat="47.14988" lon="5.36915">
        <ele>181</ele>
        <time>2026-05-15T10:09:53+02:00</time>
      </trkpt>
      <trkpt lat="47.14993" lon="5.36912">
        <ele>180.2998</ele>
        <time>2026-05-15T10:09:54+02:00</time>
      </trkpt>
      <trkpt lat="47.14998" lon="5.3691">
        <ele>180.2998</ele>
        <time>2026-05-15T10:09:55+02:00</time>
      </trkpt>
      <trkpt lat="47.15003" lon="5.36908">
        <ele>180.2998</ele>
        <time>2026-05-15T10:09:56+02:00</time>
      </trkpt>
      <trkpt lat="47.15008" lon="5.36907">
        <ele>180.40039</ele>
        <time>2026-05-15T10:09:57+02:00</time>
      </trkpt>
      <trkpt lat="47.15013" lon="5.36906">
        <ele>180.40039</ele>
        <time>2026-05-15T10:09:58+02:00</time>
      </trkpt>
      <trkpt lat="47.15018" lon="5.36904">
        <ele>179.7002</ele>
        <time>2026-05-15T10:09:59+02:00</time>
      </trkpt>
      <trkpt lat="47.15023" lon="5.36902">
        <ele>179.7998</ele>
        <time>2026-05-15T10:10:00+02:00</time>
      </trkpt>
      <trkpt lat="47.15028" lon="5.36901">
        <ele>179.90039</ele>
        <time>2026-05-15T10:10:01+02:00</time>
      </trkpt>
      <trkpt lat="47.15031" lon="5.369">
        <ele>179.90039</ele>
        <time>2026-05-15T10:10:02+02:00</time>
      </trkpt>
      <trkpt lat="47.15038" lon="5.36898">
        <ele>179.90039</ele>
        <time>2026-05-15T10:10:03+02:00</time>
      </trkpt>
      <trkpt lat="47.15043" lon="5.36897">
        <ele>180</ele>
        <time>2026-05-15T10:10:04+02:00</time>
      </trkpt>
      <trkpt lat="47.15048" lon="5.36896">
        <ele>179.7002</ele>
        <time>2026-05-15T10:10:05+02:00</time>
      </trkpt>
      <trkpt lat="47.15053" lon="5.36894">
        <ele>179.90039</ele>
        <time>2026-05-15T10:10:06+02:00</time>
      </trkpt>
      <trkpt lat="47.15058" lon="5.36893">
        <ele>180.2002</ele>
        <time>2026-05-15T10:10:07+02:00</time>
      </trkpt>
      <trkpt lat="47.15062" lon="5.36892">
        <ele>180.7002</ele>
        <time>2026-05-15T10:10:08+02:00</time>
      </trkpt>
      <trkpt lat="47.15067" lon="5.3689">
        <ele>180.7002</ele>
        <time>2026-05-15T10:10:09+02:00</time>
      </trkpt>
      <trkpt lat="47.15072" lon="5.36889">
        <ele>181</ele>
        <time>2026-05-15T10:10:10+02:00</time>
      </trkpt>
      <trkpt lat="47.15077" lon="5.36888">
        <ele>180.90039</ele>
        <time>2026-05-15T10:10:11+02:00</time>
      </trkpt>
      <trkpt lat="47.15081" lon="5.36886">
        <ele>181</ele>
        <time>2026-05-15T10:10:12+02:00</time>
      </trkpt>
      <trkpt lat="47.15085" lon="5.36885">
        <ele>181</ele>
        <time>2026-05-15T10:10:13+02:00</time>
      </trkpt>
      <trkpt lat="47.1509" lon="5.36883">
        <ele>181.2002</ele>
        <time>2026-05-15T10:10:14+02:00</time>
      </trkpt>
      <trkpt lat="47.15094" lon="5.36881">
        <ele>181.2998</ele>
        <time>2026-05-15T10:10:15+02:00</time>
      </trkpt>
      <trkpt lat="47.15096" lon="5.36881">
        <ele>181.2998</ele>
        <time>2026-05-15T10:10:16+02:00</time>
      </trkpt>
      <trkpt lat="47.15103" lon="5.36878">
        <ele>180.7998</ele>
        <time>2026-05-15T10:10:17+02:00</time>
      </trkpt>
      <trkpt lat="47.15107" lon="5.36876">
        <ele>180.7998</ele>
        <time>2026-05-15T10:10:18+02:00</time>
      </trkpt>
      <trkpt lat="47.15112" lon="5.36873">
        <ele>180.7998</ele>
        <time>2026-05-15T10:10:19+02:00</time>
      </trkpt>
      <trkpt lat="47.15116" lon="5.36871">
        <ele>180.90039</ele>
        <time>2026-05-15T10:10:20+02:00</time>
      </trkpt>
      <trkpt lat="47.1512" lon="5.36868">
        <ele>180.2998</ele>
        <time>2026-05-15T10:10:21+02:00</time>
      </trkpt>
      <trkpt lat="47.15124" lon="5.36866">
        <ele>180.2998</ele>
        <time>2026-05-15T10:10:22+02:00</time>
      </trkpt>
      <trkpt lat="47.15128" lon="5.36862">
        <ele>179.7998</ele>
        <time>2026-05-15T10:10:23+02:00</time>
      </trkpt>
      <trkpt lat="47.15132" lon="5.36859">
        <ele>180</ele>
        <time>2026-05-15T10:10:24+02:00</time>
      </trkpt>
      <trkpt lat="47.15136" lon="5.36856">
        <ele>180</ele>
        <time>2026-05-15T10:10:25+02:00</time>
      </trkpt>
      <trkpt lat="47.15138" lon="5.36855">
        <ele>180.2002</ele>
        <time>2026-05-15T10:10:26+02:00</time>
      </trkpt>
      <trkpt lat="47.15144" lon="5.3685">
        <ele>180.2998</ele>
        <time>2026-05-15T10:10:27+02:00</time>
      </trkpt>
      <trkpt lat="47.15149" lon="5.36847">
        <ele>180.2998</ele>
        <time>2026-05-15T10:10:28+02:00</time>
      </trkpt>
      <trkpt lat="47.15153" lon="5.36844">
        <ele>180.2998</ele>
        <time>2026-05-15T10:10:29+02:00</time>
      </trkpt>
      <trkpt lat="47.15157" lon="5.36841">
        <ele>180.7002</ele>
        <time>2026-05-15T10:10:30+02:00</time>
      </trkpt>
      <trkpt lat="47.15161" lon="5.36838">
        <ele>180.90039</ele>
        <time>2026-05-15T10:10:31+02:00</time>
      </trkpt>
      <trkpt lat="47.15165" lon="5.36836">
        <ele>180.2002</ele>
        <time>2026-05-15T10:10:32+02:00</time>
      </trkpt>
      <trkpt lat="47.15168" lon="5.36835">
        <ele>180.40039</ele>
        <time>2026-05-15T10:10:33+02:00</time>
      </trkpt>
      <trkpt lat="47.15174" lon="5.36832">
        <ele>180.60059</ele>
        <time>2026-05-15T10:10:34+02:00</time>
      </trkpt>
      <trkpt lat="47.15179" lon="5.3683">
        <ele>180.7002</ele>
        <time>2026-05-15T10:10:35+02:00</time>
      </trkpt>
      <trkpt lat="47.15183" lon="5.36829">
        <ele>180.7002</ele>
        <time>2026-05-15T10:10:36+02:00</time>
      </trkpt>
      <trkpt lat="47.15188" lon="5.36827">
        <ele>180</ele>
        <time>2026-05-15T10:10:37+02:00</time>
      </trkpt>
      <trkpt lat="47.15193" lon="5.36826">
        <ele>180.10059</ele>
        <time>2026-05-15T10:10:38+02:00</time>
      </trkpt>
      <trkpt lat="47.15197" lon="5.36824">
        <ele>180.2002</ele>
        <time>2026-05-15T10:10:39+02:00</time>
      </trkpt>
      <trkpt lat="47.15201" lon="5.36822">
        <ele>180.2002</ele>
        <time>2026-05-15T10:10:40+02:00</time>
      </trkpt>
      <trkpt lat="47.15206" lon="5.3682">
        <ele>180.40039</ele>
        <time>2026-05-15T10:10:41+02:00</time>
      </trkpt>
      <trkpt lat="47.1521" lon="5.36818">
        <ele>179.7998</ele>
        <time>2026-05-15T10:10:42+02:00</time>
      </trkpt>
      <trkpt lat="47.15214" lon="5.36815">
        <ele>179.90039</ele>
        <time>2026-05-15T10:10:43+02:00</time>
      </trkpt>
      <trkpt lat="47.15219" lon="5.36812">
        <ele>179.90039</ele>
        <time>2026-05-15T10:10:44+02:00</time>
      </trkpt>
      <trkpt lat="47.15223" lon="5.3681">
        <ele>179.7002</ele>
        <time>2026-05-15T10:10:45+02:00</time>
      </trkpt>
      <trkpt lat="47.15227" lon="5.36806">
        <ele>180.10059</ele>
        <time>2026-05-15T10:10:46+02:00</time>
      </trkpt>
      <trkpt lat="47.15231" lon="5.36804">
        <ele>180.10059</ele>
        <time>2026-05-15T10:10:47+02:00</time>
      </trkpt>
      <trkpt lat="47.15236" lon="5.36801">
        <ele>180.2002</ele>
        <time>2026-05-15T10:10:48+02:00</time>
      </trkpt>
      <trkpt lat="47.15238" lon="5.36799">
        <ele>180.7998</ele>
        <time>2026-05-15T10:10:49+02:00</time>
      </trkpt>
      <trkpt lat="47.15244" lon="5.36794">
        <ele>181.40039</ele>
        <time>2026-05-15T10:10:50+02:00</time>
      </trkpt>
      <trkpt lat="47.15249" lon="5.36791">
        <ele>180.60059</ele>
        <time>2026-05-15T10:10:51+02:00</time>
      </trkpt>
      <trkpt lat="47.15254" lon="5.36788">
        <ele>180.60059</ele>
        <time>2026-05-15T10:10:52+02:00</time>
      </trkpt>
      <trkpt lat="47.15257" lon="5.36785">
        <ele>179.90039</ele>
        <time>2026-05-15T10:10:53+02:00</time>
      </trkpt>
      <trkpt lat="47.15262" lon="5.36782">
        <ele>180.10059</ele>
        <time>2026-05-15T10:10:54+02:00</time>
      </trkpt>
      <trkpt lat="47.15267" lon="5.36778">
        <ele>180.2998</ele>
        <time>2026-05-15T10:10:55+02:00</time>
      </trkpt>
      <trkpt lat="47.15271" lon="5.36775">
        <ele>179.7002</ele>
        <time>2026-05-15T10:10:56+02:00</time>
      </trkpt>
      <trkpt lat="47.15275" lon="5.36773">
        <ele>179.7998</ele>
        <time>2026-05-15T10:10:57+02:00</time>
      </trkpt>
      <trkpt lat="47.1528" lon="5.3677">
        <ele>180</ele>
        <time>2026-05-15T10:10:58+02:00</time>
      </trkpt>
      <trkpt lat="47.15284" lon="5.36768">
        <ele>180.10059</ele>
        <time>2026-05-15T10:10:59+02:00</time>
      </trkpt>
      <trkpt lat="47.15288" lon="5.36765">
        <ele>179.7002</ele>
        <time>2026-05-15T10:11:00+02:00</time>
      </trkpt>
      <trkpt lat="47.15293" lon="5.36763">
        <ele>180</ele>
        <time>2026-05-15T10:11:01+02:00</time>
      </trkpt>
      <trkpt lat="47.15297" lon="5.36761">
        <ele>180.40039</ele>
        <time>2026-05-15T10:11:02+02:00</time>
      </trkpt>
      <trkpt lat="47.15302" lon="5.36759">
        <ele>180.2998</ele>
        <time>2026-05-15T10:11:03+02:00</time>
      </trkpt>
      <trkpt lat="47.15306" lon="5.36757">
        <ele>180.2998</ele>
        <time>2026-05-15T10:11:04+02:00</time>
      </trkpt>
      <trkpt lat="47.1531" lon="5.36755">
        <ele>180.7002</ele>
        <time>2026-05-15T10:11:05+02:00</time>
      </trkpt>
      <trkpt lat="47.15314" lon="5.36753">
        <ele>181</ele>
        <time>2026-05-15T10:11:06+02:00</time>
      </trkpt>
      <trkpt lat="47.15318" lon="5.36751">
        <ele>181</ele>
        <time>2026-05-15T10:11:07+02:00</time>
      </trkpt>
      <trkpt lat="47.15331" lon="5.36744">
        <ele>180.40039</ele>
        <time>2026-05-15T10:11:08+02:00</time>
      </trkpt>
      <trkpt lat="47.15336" lon="5.36741">
        <ele>179.7002</ele>
        <time>2026-05-15T10:11:09+02:00</time>
      </trkpt>
      <trkpt lat="47.15341" lon="5.36739">
        <ele>179.7998</ele>
        <time>2026-05-15T10:11:10+02:00</time>
      </trkpt>
      <trkpt lat="47.15345" lon="5.36736">
        <ele>179.90039</ele>
        <time>2026-05-15T10:11:11+02:00</time>
      </trkpt>
      <trkpt lat="47.1535" lon="5.36734">
        <ele>179.90039</ele>
        <time>2026-05-15T10:11:12+02:00</time>
      </trkpt>
      <trkpt lat="47.15354" lon="5.36731">
        <ele>179.7002</ele>
        <time>2026-05-15T10:11:13+02:00</time>
      </trkpt>
      <trkpt lat="47.15359" lon="5.36729">
        <ele>179.7002</ele>
        <time>2026-05-15T10:11:14+02:00</time>
      </trkpt>
      <trkpt lat="47.15363" lon="5.36726">
        <ele>180</ele>
        <time>2026-05-15T10:11:15+02:00</time>
      </trkpt>
      <trkpt lat="47.15367" lon="5.36724">
        <ele>180.10059</ele>
        <time>2026-05-15T10:11:16+02:00</time>
      </trkpt>
      <trkpt lat="47.15372" lon="5.36721">
        <ele>180.5</ele>
        <time>2026-05-15T10:11:17+02:00</time>
      </trkpt>
      <trkpt lat="47.15376" lon="5.36718">
        <ele>180.5</ele>
        <time>2026-05-15T10:11:18+02:00</time>
      </trkpt>
      <trkpt lat="47.1538" lon="5.36715">
        <ele>180.10059</ele>
        <time>2026-05-15T10:11:19+02:00</time>
      </trkpt>
      <trkpt lat="47.15385" lon="5.36713">
        <ele>180.10059</ele>
        <time>2026-05-15T10:11:20+02:00</time>
      </trkpt>
      <trkpt lat="47.15389" lon="5.3671">
        <ele>180.2002</ele>
        <time>2026-05-15T10:11:21+02:00</time>
      </trkpt>
      <trkpt lat="47.15394" lon="5.36707">
        <ele>179.5</ele>
        <time>2026-05-15T10:11:22+02:00</time>
      </trkpt>
      <trkpt lat="47.15398" lon="5.36705">
        <ele>179.60059</ele>
        <time>2026-05-15T10:11:23+02:00</time>
      </trkpt>
      <trkpt lat="47.15402" lon="5.36701">
        <ele>179.7002</ele>
        <time>2026-05-15T10:11:24+02:00</time>
      </trkpt>
      <trkpt lat="47.15407" lon="5.36698">
        <ele>179.40039</ele>
        <time>2026-05-15T10:11:25+02:00</time>
      </trkpt>
      <trkpt lat="47.15411" lon="5.36695">
        <ele>179.40039</ele>
        <time>2026-05-15T10:11:26+02:00</time>
      </trkpt>
      <trkpt lat="47.15415" lon="5.36693">
        <ele>179.40039</ele>
        <time>2026-05-15T10:11:27+02:00</time>
      </trkpt>
      <trkpt lat="47.1542" lon="5.3669">
        <ele>179.2998</ele>
        <time>2026-05-15T10:11:28+02:00</time>
      </trkpt>
      <trkpt lat="47.15424" lon="5.36687">
        <ele>179.5</ele>
        <time>2026-05-15T10:11:29+02:00</time>
      </trkpt>
      <trkpt lat="47.15429" lon="5.36684">
        <ele>179.5</ele>
        <time>2026-05-15T10:11:30+02:00</time>
      </trkpt>
      <trkpt lat="47.15433" lon="5.36682">
        <ele>179.60059</ele>
        <time>2026-05-15T10:11:31+02:00</time>
      </trkpt>
      <trkpt lat="47.15437" lon="5.36679">
        <ele>179.90039</ele>
        <time>2026-05-15T10:11:32+02:00</time>
      </trkpt>
      <trkpt lat="47.15441" lon="5.36676">
        <ele>179.90039</ele>
        <time>2026-05-15T10:11:33+02:00</time>
      </trkpt>
      <trkpt lat="47.15446" lon="5.36673">
        <ele>179.5</ele>
        <time>2026-05-15T10:11:34+02:00</time>
      </trkpt>
      <trkpt lat="47.1545" lon="5.36671">
        <ele>179.7002</ele>
        <time>2026-05-15T10:11:35+02:00</time>
      </trkpt>
      <trkpt lat="47.15455" lon="5.36668">
        <ele>179.7998</ele>
        <time>2026-05-15T10:11:36+02:00</time>
      </trkpt>
      <trkpt lat="47.15459" lon="5.36665">
        <ele>179.90039</ele>
        <time>2026-05-15T10:11:37+02:00</time>
      </trkpt>
      <trkpt lat="47.15463" lon="5.36662">
        <ele>179.40039</ele>
        <time>2026-05-15T10:11:38+02:00</time>
      </trkpt>
      <trkpt lat="47.15468" lon="5.36659">
        <ele>179.5</ele>
        <time>2026-05-15T10:11:39+02:00</time>
      </trkpt>
      <trkpt lat="47.15472" lon="5.36656">
        <ele>179.2002</ele>
        <time>2026-05-15T10:11:40+02:00</time>
      </trkpt>
      <trkpt lat="47.15476" lon="5.36652">
        <ele>179.2002</ele>
        <time>2026-05-15T10:11:41+02:00</time>
      </trkpt>
      <trkpt lat="47.1548" lon="5.36649">
        <ele>179.2998</ele>
        <time>2026-05-15T10:11:42+02:00</time>
      </trkpt>
      <trkpt lat="47.15484" lon="5.36646">
        <ele>179.2002</ele>
        <time>2026-05-15T10:11:43+02:00</time>
      </trkpt>
      <trkpt lat="47.15488" lon="5.36643">
        <ele>179.40039</ele>
        <time>2026-05-15T10:11:44+02:00</time>
      </trkpt>
      <trkpt lat="47.15492" lon="5.3664">
        <ele>179.40039</ele>
        <time>2026-05-15T10:11:45+02:00</time>
      </trkpt>
      <trkpt lat="47.15497" lon="5.36636">
        <ele>179.40039</ele>
        <time>2026-05-15T10:11:46+02:00</time>
      </trkpt>
      <trkpt lat="47.15501" lon="5.36633">
        <ele>179.7002</ele>
        <time>2026-05-15T10:11:47+02:00</time>
      </trkpt>
      <trkpt lat="47.15506" lon="5.3663">
        <ele>179.2998</ele>
        <time>2026-05-15T10:11:48+02:00</time>
      </trkpt>
      <trkpt lat="47.1551" lon="5.36627">
        <ele>179.2998</ele>
        <time>2026-05-15T10:11:49+02:00</time>
      </trkpt>
      <trkpt lat="47.15513" lon="5.36625">
        <ele>179.5</ele>
        <time>2026-05-15T10:11:50+02:00</time>
      </trkpt>
      <trkpt lat="47.1552" lon="5.36621">
        <ele>179.2002</ele>
        <time>2026-05-15T10:11:51+02:00</time>
      </trkpt>
      <trkpt lat="47.15525" lon="5.36618">
        <ele>179.40039</ele>
        <time>2026-05-15T10:11:52+02:00</time>
      </trkpt>
      <trkpt lat="47.1553" lon="5.36615">
        <ele>179.5</ele>
        <time>2026-05-15T10:11:53+02:00</time>
      </trkpt>
      <trkpt lat="47.15535" lon="5.36611">
        <ele>179.2002</ele>
        <time>2026-05-15T10:11:54+02:00</time>
      </trkpt>
      <trkpt lat="47.15539" lon="5.36608">
        <ele>179.2002</ele>
        <time>2026-05-15T10:11:55+02:00</time>
      </trkpt>
      <trkpt lat="47.15543" lon="5.36605">
        <ele>179.40039</ele>
        <time>2026-05-15T10:11:56+02:00</time>
      </trkpt>
      <trkpt lat="47.15548" lon="5.36601">
        <ele>179.2002</ele>
        <time>2026-05-15T10:11:57+02:00</time>
      </trkpt>
      <trkpt lat="47.15553" lon="5.36598">
        <ele>179.5</ele>
        <time>2026-05-15T10:11:58+02:00</time>
      </trkpt>
      <trkpt lat="47.15557" lon="5.36594">
        <ele>179.2002</ele>
        <time>2026-05-15T10:11:59+02:00</time>
      </trkpt>
      <trkpt lat="47.15562" lon="5.36591">
        <ele>179.40039</ele>
        <time>2026-05-15T10:12:00+02:00</time>
      </trkpt>
      <trkpt lat="47.15566" lon="5.36588">
        <ele>179.7002</ele>
        <time>2026-05-15T10:12:01+02:00</time>
      </trkpt>
      <trkpt lat="47.15571" lon="5.36584">
        <ele>179.40039</ele>
        <time>2026-05-15T10:12:02+02:00</time>
      </trkpt>
      <trkpt lat="47.15575" lon="5.36581">
        <ele>179.40039</ele>
        <time>2026-05-15T10:12:03+02:00</time>
      </trkpt>
      <trkpt lat="47.15579" lon="5.36578">
        <ele>179.10059</ele>
        <time>2026-05-15T10:12:04+02:00</time>
      </trkpt>
      <trkpt lat="47.15584" lon="5.36575">
        <ele>179.2002</ele>
        <time>2026-05-15T10:12:05+02:00</time>
      </trkpt>
      <trkpt lat="47.15588" lon="5.36572">
        <ele>179.40039</ele>
        <time>2026-05-15T10:12:06+02:00</time>
      </trkpt>
      <trkpt lat="47.15592" lon="5.36569">
        <ele>179.10059</ele>
        <time>2026-05-15T10:12:07+02:00</time>
      </trkpt>
      <trkpt lat="47.15596" lon="5.36566">
        <ele>179.2998</ele>
        <time>2026-05-15T10:12:08+02:00</time>
      </trkpt>
      <trkpt lat="47.15601" lon="5.36564">
        <ele>179.5</ele>
        <time>2026-05-15T10:12:09+02:00</time>
      </trkpt>
      <trkpt lat="47.15605" lon="5.36561">
        <ele>179.40039</ele>
        <time>2026-05-15T10:12:10+02:00</time>
      </trkpt>
      <trkpt lat="47.15609" lon="5.36558">
        <ele>179.40039</ele>
        <time>2026-05-15T10:12:11+02:00</time>
      </trkpt>
      <trkpt lat="47.15614" lon="5.36555">
        <ele>179.60059</ele>
        <time>2026-05-15T10:12:12+02:00</time>
      </trkpt>
      <trkpt lat="47.15618" lon="5.36552">
        <ele>179.2002</ele>
        <time>2026-05-15T10:12:13+02:00</time>
      </trkpt>
      <trkpt lat="47.15622" lon="5.36549">
        <ele>179.2002</ele>
        <time>2026-05-15T10:12:14+02:00</time>
      </trkpt>
      <trkpt lat="47.15626" lon="5.36547">
        <ele>179.2998</ele>
        <time>2026-05-15T10:12:15+02:00</time>
      </trkpt>
      <trkpt lat="47.1563" lon="5.36544">
        <ele>179</ele>
        <time>2026-05-15T10:12:16+02:00</time>
      </trkpt>
      <trkpt lat="47.15634" lon="5.36541">
        <ele>179.10059</ele>
        <time>2026-05-15T10:12:17+02:00</time>
      </trkpt>
      <trkpt lat="47.15638" lon="5.36538">
        <ele>179.10059</ele>
        <time>2026-05-15T10:12:18+02:00</time>
      </trkpt>
      <trkpt lat="47.15643" lon="5.36534">
        <ele>178.7998</ele>
        <time>2026-05-15T10:12:19+02:00</time>
      </trkpt>
      <trkpt lat="47.15647" lon="5.36531">
        <ele>178.90039</ele>
        <time>2026-05-15T10:12:20+02:00</time>
      </trkpt>
      <trkpt lat="47.15651" lon="5.36527">
        <ele>178.60059</ele>
        <time>2026-05-15T10:12:21+02:00</time>
      </trkpt>
      <trkpt lat="47.15656" lon="5.36524">
        <ele>178.7998</ele>
        <time>2026-05-15T10:12:22+02:00</time>
      </trkpt>
      <trkpt lat="47.1566" lon="5.36521">
        <ele>179</ele>
        <time>2026-05-15T10:12:23+02:00</time>
      </trkpt>
      <trkpt lat="47.15664" lon="5.36518">
        <ele>178.90039</ele>
        <time>2026-05-15T10:12:24+02:00</time>
      </trkpt>
      <trkpt lat="47.15668" lon="5.36515">
        <ele>178.90039</ele>
        <time>2026-05-15T10:12:25+02:00</time>
      </trkpt>
      <trkpt lat="47.15673" lon="5.36512">
        <ele>179.10059</ele>
        <time>2026-05-15T10:12:26+02:00</time>
      </trkpt>
      <trkpt lat="47.15677" lon="5.36509">
        <ele>178.90039</ele>
        <time>2026-05-15T10:12:27+02:00</time>
      </trkpt>
      <trkpt lat="47.15682" lon="5.36506">
        <ele>179</ele>
        <time>2026-05-15T10:12:28+02:00</time>
      </trkpt>
      <trkpt lat="47.15686" lon="5.36503">
        <ele>179</ele>
        <time>2026-05-15T10:12:29+02:00</time>
      </trkpt>
      <trkpt lat="47.1569" lon="5.365">
        <ele>178.7998</ele>
        <time>2026-05-15T10:12:30+02:00</time>
      </trkpt>
      <trkpt lat="47.15695" lon="5.36497">
        <ele>178.90039</ele>
        <time>2026-05-15T10:12:31+02:00</time>
      </trkpt>
      <trkpt lat="47.15699" lon="5.36494">
        <ele>179.10059</ele>
        <time>2026-05-15T10:12:32+02:00</time>
      </trkpt>
      <trkpt lat="47.15703" lon="5.36491">
        <ele>178.7998</ele>
        <time>2026-05-15T10:12:33+02:00</time>
      </trkpt>
      <trkpt lat="47.15708" lon="5.36488">
        <ele>179</ele>
        <time>2026-05-15T10:12:34+02:00</time>
      </trkpt>
      <trkpt lat="47.15712" lon="5.36484">
        <ele>179</ele>
        <time>2026-05-15T10:12:35+02:00</time>
      </trkpt>
      <trkpt lat="47.15716" lon="5.36481">
        <ele>179.2002</ele>
        <time>2026-05-15T10:12:36+02:00</time>
      </trkpt>
      <trkpt lat="47.15721" lon="5.36478">
        <ele>179.2002</ele>
        <time>2026-05-15T10:12:37+02:00</time>
      </trkpt>
      <trkpt lat="47.15725" lon="5.36475">
        <ele>178.90039</ele>
        <time>2026-05-15T10:12:38+02:00</time>
      </trkpt>
      <trkpt lat="47.1573" lon="5.36472">
        <ele>179</ele>
        <time>2026-05-15T10:12:39+02:00</time>
      </trkpt>
      <trkpt lat="47.15735" lon="5.36469">
        <ele>179.10059</ele>
        <time>2026-05-15T10:12:40+02:00</time>
      </trkpt>
      <trkpt lat="47.1574" lon="5.36465">
        <ele>178.90039</ele>
        <time>2026-05-15T10:12:41+02:00</time>
      </trkpt>
      <trkpt lat="47.15744" lon="5.36462">
        <ele>178.90039</ele>
        <time>2026-05-15T10:12:42+02:00</time>
      </trkpt>
      <trkpt lat="47.15748" lon="5.36459">
        <ele>179</ele>
        <time>2026-05-15T10:12:43+02:00</time>
      </trkpt>
      <trkpt lat="47.15753" lon="5.36456">
        <ele>178.7998</ele>
        <time>2026-05-15T10:12:44+02:00</time>
      </trkpt>
      <trkpt lat="47.15757" lon="5.36453">
        <ele>178.90039</ele>
        <time>2026-05-15T10:12:45+02:00</time>
      </trkpt>
      <trkpt lat="47.15762" lon="5.36451">
        <ele>178.90039</ele>
        <time>2026-05-15T10:12:46+02:00</time>
      </trkpt>
      <trkpt lat="47.15766" lon="5.36448">
        <ele>178.7998</ele>
        <time>2026-05-15T10:12:47+02:00</time>
      </trkpt>
      <trkpt lat="47.15771" lon="5.36446">
        <ele>179</ele>
        <time>2026-05-15T10:12:48+02:00</time>
      </trkpt>
      <trkpt lat="47.15776" lon="5.36443">
        <ele>179.2002</ele>
        <time>2026-05-15T10:12:49+02:00</time>
      </trkpt>
      <trkpt lat="47.15781" lon="5.36441">
        <ele>179</ele>
        <time>2026-05-15T10:12:50+02:00</time>
      </trkpt>
      <trkpt lat="47.15786" lon="5.36439">
        <ele>179.10059</ele>
        <time>2026-05-15T10:12:51+02:00</time>
      </trkpt>
      <trkpt lat="47.15791" lon="5.36437">
        <ele>179.10059</ele>
        <time>2026-05-15T10:12:52+02:00</time>
      </trkpt>
      <trkpt lat="47.15795" lon="5.36435">
        <ele>179.2998</ele>
        <time>2026-05-15T10:12:53+02:00</time>
      </trkpt>
      <trkpt lat="47.15801" lon="5.36434">
        <ele>179.40039</ele>
        <time>2026-05-15T10:12:54+02:00</time>
      </trkpt>
      <trkpt lat="47.15806" lon="5.36432">
        <ele>179</ele>
        <time>2026-05-15T10:12:55+02:00</time>
      </trkpt>
      <trkpt lat="47.15811" lon="5.36431">
        <ele>179.10059</ele>
        <time>2026-05-15T10:12:56+02:00</time>
      </trkpt>
      <trkpt lat="47.15816" lon="5.36431">
        <ele>179.2002</ele>
        <time>2026-05-15T10:12:57+02:00</time>
      </trkpt>
      <trkpt lat="47.15821" lon="5.3643">
        <ele>179.2998</ele>
        <time>2026-05-15T10:12:58+02:00</time>
      </trkpt>
      <trkpt lat="47.15826" lon="5.36429">
        <ele>179.2998</ele>
        <time>2026-05-15T10:12:59+02:00</time>
      </trkpt>
      <trkpt lat="47.15831" lon="5.36428">
        <ele>179.40039</ele>
        <time>2026-05-15T10:13:00+02:00</time>
      </trkpt>
      <trkpt lat="47.15833" lon="5.36427">
        <ele>179.40039</ele>
        <time>2026-05-15T10:13:01+02:00</time>
      </trkpt>
      <trkpt lat="47.15841" lon="5.36425">
        <ele>179.60059</ele>
        <time>2026-05-15T10:13:02+02:00</time>
      </trkpt>
      <trkpt lat="47.15846" lon="5.36423">
        <ele>179.5</ele>
        <time>2026-05-15T10:13:03+02:00</time>
      </trkpt>
      <trkpt lat="47.15851" lon="5.3642">
        <ele>179.7998</ele>
        <time>2026-05-15T10:13:04+02:00</time>
      </trkpt>
      <trkpt lat="47.15856" lon="5.36418">
        <ele>180.10059</ele>
        <time>2026-05-15T10:13:05+02:00</time>
      </trkpt>
      <trkpt lat="47.1586" lon="5.36415">
        <ele>179.7002</ele>
        <time>2026-05-15T10:13:06+02:00</time>
      </trkpt>
      <trkpt lat="47.15865" lon="5.36412">
        <ele>179.90039</ele>
        <time>2026-05-15T10:13:07+02:00</time>
      </trkpt>
      <trkpt lat="47.1587" lon="5.36409">
        <ele>179.90039</ele>
        <time>2026-05-15T10:13:08+02:00</time>
      </trkpt>
      <trkpt lat="47.15876" lon="5.36407">
        <ele>179.5</ele>
        <time>2026-05-15T10:13:09+02:00</time>
      </trkpt>
      <trkpt lat="47.15881" lon="5.36404">
        <ele>179.5</ele>
        <time>2026-05-15T10:13:10+02:00</time>
      </trkpt>
      <trkpt lat="47.15883" lon="5.36402">
        <ele>179.5</ele>
        <time>2026-05-15T10:13:11+02:00</time>
      </trkpt>
      <trkpt lat="47.1589" lon="5.36398">
        <ele>179.2002</ele>
        <time>2026-05-15T10:13:12+02:00</time>
      </trkpt>
      <trkpt lat="47.15896" lon="5.36395">
        <ele>179.2002</ele>
        <time>2026-05-15T10:13:13+02:00</time>
      </trkpt>
      <trkpt lat="47.159" lon="5.36392">
        <ele>179.2998</ele>
        <time>2026-05-15T10:13:14+02:00</time>
      </trkpt>
      <trkpt lat="47.15905" lon="5.36389">
        <ele>179.10059</ele>
        <time>2026-05-15T10:13:15+02:00</time>
      </trkpt>
      <trkpt lat="47.1591" lon="5.36386">
        <ele>179.2998</ele>
        <time>2026-05-15T10:13:16+02:00</time>
      </trkpt>
      <trkpt lat="47.15915" lon="5.36383">
        <ele>179.5</ele>
        <time>2026-05-15T10:13:17+02:00</time>
      </trkpt>
      <trkpt lat="47.1592" lon="5.36381">
        <ele>179.60059</ele>
        <time>2026-05-15T10:13:18+02:00</time>
      </trkpt>
      <trkpt lat="47.15925" lon="5.36378">
        <ele>179.60059</ele>
        <time>2026-05-15T10:13:19+02:00</time>
      </trkpt>
      <trkpt lat="47.1593" lon="5.36376">
        <ele>179.7998</ele>
        <time>2026-05-15T10:13:20+02:00</time>
      </trkpt>
      <trkpt lat="47.15935" lon="5.36374">
        <ele>179.7998</ele>
        <time>2026-05-15T10:13:21+02:00</time>
      </trkpt>
      <trkpt lat="47.15937" lon="5.36373">
        <ele>179.40039</ele>
        <time>2026-05-15T10:13:22+02:00</time>
      </trkpt>
      <trkpt lat="47.15944" lon="5.3637">
        <ele>179.40039</ele>
        <time>2026-05-15T10:13:23+02:00</time>
      </trkpt>
      <trkpt lat="47.1595" lon="5.36368">
        <ele>179.5</ele>
        <time>2026-05-15T10:13:24+02:00</time>
      </trkpt>
      <trkpt lat="47.15955" lon="5.36366">
        <ele>179.5</ele>
        <time>2026-05-15T10:13:25+02:00</time>
      </trkpt>
      <trkpt lat="47.1596" lon="5.36364">
        <ele>179.10059</ele>
        <time>2026-05-15T10:13:26+02:00</time>
      </trkpt>
      <trkpt lat="47.15964" lon="5.36362">
        <ele>179.10059</ele>
        <time>2026-05-15T10:13:27+02:00</time>
      </trkpt>
      <trkpt lat="47.15969" lon="5.3636">
        <ele>179.2002</ele>
        <time>2026-05-15T10:13:28+02:00</time>
      </trkpt>
      <trkpt lat="47.15975" lon="5.36358">
        <ele>179.2002</ele>
        <time>2026-05-15T10:13:29+02:00</time>
      </trkpt>
      <trkpt lat="47.1598" lon="5.36355">
        <ele>178.90039</ele>
        <time>2026-05-15T10:13:30+02:00</time>
      </trkpt>
      <trkpt lat="47.15984" lon="5.36352">
        <ele>178.90039</ele>
        <time>2026-05-15T10:13:31+02:00</time>
      </trkpt>
      <trkpt lat="47.15989" lon="5.36349">
        <ele>179</ele>
        <time>2026-05-15T10:13:32+02:00</time>
      </trkpt>
      <trkpt lat="47.15994" lon="5.36346">
        <ele>178.90039</ele>
        <time>2026-05-15T10:13:33+02:00</time>
      </trkpt>
      <trkpt lat="47.15999" lon="5.36343">
        <ele>179</ele>
        <time>2026-05-15T10:13:34+02:00</time>
      </trkpt>
      <trkpt lat="47.16004" lon="5.3634">
        <ele>179.10059</ele>
        <time>2026-05-15T10:13:35+02:00</time>
      </trkpt>
      <trkpt lat="47.16009" lon="5.36336">
        <ele>179.10059</ele>
        <time>2026-05-15T10:13:36+02:00</time>
      </trkpt>
      <trkpt lat="47.16013" lon="5.36333">
        <ele>179.10059</ele>
        <time>2026-05-15T10:13:37+02:00</time>
      </trkpt>
      <trkpt lat="47.16018" lon="5.36329">
        <ele>179</ele>
        <time>2026-05-15T10:13:38+02:00</time>
      </trkpt>
      <trkpt lat="47.16021" lon="5.36327">
        <ele>179</ele>
        <time>2026-05-15T10:13:39+02:00</time>
      </trkpt>
      <trkpt lat="47.16028" lon="5.36322">
        <ele>179.10059</ele>
        <time>2026-05-15T10:13:40+02:00</time>
      </trkpt>
      <trkpt lat="47.16033" lon="5.36318">
        <ele>179</ele>
        <time>2026-05-15T10:13:41+02:00</time>
      </trkpt>
      <trkpt lat="47.16037" lon="5.36315">
        <ele>179.10059</ele>
        <time>2026-05-15T10:13:42+02:00</time>
      </trkpt>
      <trkpt lat="47.16041" lon="5.36311">
        <ele>178.90039</ele>
        <time>2026-05-15T10:13:43+02:00</time>
      </trkpt>
      <trkpt lat="47.16046" lon="5.36307">
        <ele>179.10059</ele>
        <time>2026-05-15T10:13:44+02:00</time>
      </trkpt>
      <trkpt lat="47.1605" lon="5.36303">
        <ele>179.2002</ele>
        <time>2026-05-15T10:13:45+02:00</time>
      </trkpt>
      <trkpt lat="47.16055" lon="5.363">
        <ele>179.40039</ele>
        <time>2026-05-15T10:13:46+02:00</time>
      </trkpt>
      <trkpt lat="47.16057" lon="5.36298">
        <ele>179.40039</ele>
        <time>2026-05-15T10:13:47+02:00</time>
      </trkpt>
      <trkpt lat="47.16064" lon="5.36292">
        <ele>179.2998</ele>
        <time>2026-05-15T10:13:48+02:00</time>
      </trkpt>
      <trkpt lat="47.16068" lon="5.36289">
        <ele>179.2998</ele>
        <time>2026-05-15T10:13:49+02:00</time>
      </trkpt>
      <trkpt lat="47.16073" lon="5.36285">
        <ele>179.10059</ele>
        <time>2026-05-15T10:13:50+02:00</time>
      </trkpt>
      <trkpt lat="47.16077" lon="5.36281">
        <ele>179.10059</ele>
        <time>2026-05-15T10:13:51+02:00</time>
      </trkpt>
      <trkpt lat="47.16081" lon="5.36277">
        <ele>178.90039</ele>
        <time>2026-05-15T10:13:52+02:00</time>
      </trkpt>
      <trkpt lat="47.16086" lon="5.36273">
        <ele>179</ele>
        <time>2026-05-15T10:13:53+02:00</time>
      </trkpt>
      <trkpt lat="47.1609" lon="5.36269">
        <ele>178.90039</ele>
        <time>2026-05-15T10:13:54+02:00</time>
      </trkpt>
      <trkpt lat="47.16094" lon="5.36265">
        <ele>178.90039</ele>
        <time>2026-05-15T10:13:55+02:00</time>
      </trkpt>
      <trkpt lat="47.16099" lon="5.36261">
        <ele>178.7998</ele>
        <time>2026-05-15T10:13:56+02:00</time>
      </trkpt>
      <trkpt lat="47.16103" lon="5.36256">
        <ele>178.90039</ele>
        <time>2026-05-15T10:13:57+02:00</time>
      </trkpt>
      <trkpt lat="47.16107" lon="5.36252">
        <ele>178.90039</ele>
        <time>2026-05-15T10:13:58+02:00</time>
      </trkpt>
      <trkpt lat="47.16112" lon="5.36247">
        <ele>178.90039</ele>
        <time>2026-05-15T10:13:59+02:00</time>
      </trkpt>
      <trkpt lat="47.16116" lon="5.36243">
        <ele>178.7998</ele>
        <time>2026-05-15T10:14:00+02:00</time>
      </trkpt>
      <trkpt lat="47.1612" lon="5.36238">
        <ele>178.90039</ele>
        <time>2026-05-15T10:14:01+02:00</time>
      </trkpt>
      <trkpt lat="47.16124" lon="5.36232">
        <ele>178.7002</ele>
        <time>2026-05-15T10:14:02+02:00</time>
      </trkpt>
      <trkpt lat="47.16128" lon="5.36227">
        <ele>178.5</ele>
        <time>2026-05-15T10:14:03+02:00</time>
      </trkpt>
      <trkpt lat="47.16131" lon="5.36222">
        <ele>178.60059</ele>
        <time>2026-05-15T10:14:04+02:00</time>
      </trkpt>
      <trkpt lat="47.16135" lon="5.36217">
        <ele>178.40039</ele>
        <time>2026-05-15T10:14:05+02:00</time>
      </trkpt>
      <trkpt lat="47.16139" lon="5.36212">
        <ele>178.60059</ele>
        <time>2026-05-15T10:14:06+02:00</time>
      </trkpt>
      <trkpt lat="47.16142" lon="5.36206">
        <ele>178.60059</ele>
        <time>2026-05-15T10:14:07+02:00</time>
      </trkpt>
      <trkpt lat="47.16146" lon="5.36202">
        <ele>178.60059</ele>
        <time>2026-05-15T10:14:08+02:00</time>
      </trkpt>
      <trkpt lat="47.1615" lon="5.36196">
        <ele>178.60059</ele>
        <time>2026-05-15T10:14:09+02:00</time>
      </trkpt>
      <trkpt lat="47.16154" lon="5.36191">
        <ele>178.60059</ele>
        <time>2026-05-15T10:14:10+02:00</time>
      </trkpt>
      <trkpt lat="47.16157" lon="5.36186">
        <ele>178.60059</ele>
        <time>2026-05-15T10:14:11+02:00</time>
      </trkpt>
      <trkpt lat="47.16161" lon="5.36181">
        <ele>178.60059</ele>
        <time>2026-05-15T10:14:12+02:00</time>
      </trkpt>
      <trkpt lat="47.16165" lon="5.36176">
        <ele>178.7002</ele>
        <time>2026-05-15T10:14:13+02:00</time>
      </trkpt>
      <trkpt lat="47.16169" lon="5.36171">
        <ele>178.60059</ele>
        <time>2026-05-15T10:14:14+02:00</time>
      </trkpt>
      <trkpt lat="47.16173" lon="5.36166">
        <ele>178.60059</ele>
        <time>2026-05-15T10:14:15+02:00</time>
      </trkpt>
      <trkpt lat="47.16176" lon="5.36161">
        <ele>178.60059</ele>
        <time>2026-05-15T10:14:16+02:00</time>
      </trkpt>
      <trkpt lat="47.16177" lon="5.36159">
        <ele>178.7002</ele>
        <time>2026-05-15T10:14:17+02:00</time>
      </trkpt>
      <trkpt lat="47.16183" lon="5.3615">
        <ele>178.60059</ele>
        <time>2026-05-15T10:14:18+02:00</time>
      </trkpt>
      <trkpt lat="47.16187" lon="5.36145">
        <ele>178.2998</ele>
        <time>2026-05-15T10:14:19+02:00</time>
      </trkpt>
      <trkpt lat="47.16191" lon="5.3614">
        <ele>178.2998</ele>
        <time>2026-05-15T10:14:20+02:00</time>
      </trkpt>
      <trkpt lat="47.16194" lon="5.36135">
        <ele>178.40039</ele>
        <time>2026-05-15T10:14:21+02:00</time>
      </trkpt>
      <trkpt lat="47.16198" lon="5.36129">
        <ele>178.2998</ele>
        <time>2026-05-15T10:14:22+02:00</time>
      </trkpt>
      <trkpt lat="47.16201" lon="5.36124">
        <ele>178.40039</ele>
        <time>2026-05-15T10:14:23+02:00</time>
      </trkpt>
      <trkpt lat="47.16205" lon="5.36118">
        <ele>178.40039</ele>
        <time>2026-05-15T10:14:24+02:00</time>
      </trkpt>
      <trkpt lat="47.16208" lon="5.36112">
        <ele>178.40039</ele>
        <time>2026-05-15T10:14:25+02:00</time>
      </trkpt>
      <trkpt lat="47.16212" lon="5.36106">
        <ele>178.40039</ele>
        <time>2026-05-15T10:14:26+02:00</time>
      </trkpt>
      <trkpt lat="47.16216" lon="5.361">
        <ele>178.40039</ele>
        <time>2026-05-15T10:14:27+02:00</time>
      </trkpt>
      <trkpt lat="47.16218" lon="5.36097">
        <ele>178.40039</ele>
        <time>2026-05-15T10:14:28+02:00</time>
      </trkpt>
      <trkpt lat="47.16224" lon="5.36089">
        <ele>178.5</ele>
        <time>2026-05-15T10:14:29+02:00</time>
      </trkpt>
      <trkpt lat="47.16227" lon="5.36083">
        <ele>178.5</ele>
        <time>2026-05-15T10:14:30+02:00</time>
      </trkpt>
      <trkpt lat="47.16231" lon="5.36077">
        <ele>178.5</ele>
        <time>2026-05-15T10:14:31+02:00</time>
      </trkpt>
      <trkpt lat="47.16235" lon="5.36071">
        <ele>178.5</ele>
        <time>2026-05-15T10:14:32+02:00</time>
      </trkpt>
      <trkpt lat="47.16239" lon="5.36065">
        <ele>178.5</ele>
        <time>2026-05-15T10:14:33+02:00</time>
      </trkpt>
      <trkpt lat="47.16243" lon="5.36059">
        <ele>178.5</ele>
        <time>2026-05-15T10:14:34+02:00</time>
      </trkpt>
      <trkpt lat="47.16247" lon="5.36053">
        <ele>178.60059</ele>
        <time>2026-05-15T10:14:35+02:00</time>
      </trkpt>
      <trkpt lat="47.16251" lon="5.36047">
        <ele>178.40039</ele>
        <time>2026-05-15T10:14:36+02:00</time>
      </trkpt>
      <trkpt lat="47.16255" lon="5.36041">
        <ele>178.5</ele>
        <time>2026-05-15T10:14:37+02:00</time>
      </trkpt>
      <trkpt lat="47.16259" lon="5.36035">
        <ele>178.5</ele>
        <time>2026-05-15T10:14:38+02:00</time>
      </trkpt>
      <trkpt lat="47.16263" lon="5.36029">
        <ele>178.40039</ele>
        <time>2026-05-15T10:14:39+02:00</time>
      </trkpt>
      <trkpt lat="47.16267" lon="5.36023">
        <ele>178.60059</ele>
        <time>2026-05-15T10:14:40+02:00</time>
      </trkpt>
      <trkpt lat="47.16271" lon="5.36017">
        <ele>178.60059</ele>
        <time>2026-05-15T10:14:41+02:00</time>
      </trkpt>
      <trkpt lat="47.16275" lon="5.36012">
        <ele>178.40039</ele>
        <time>2026-05-15T10:14:42+02:00</time>
      </trkpt>
      <trkpt lat="47.16279" lon="5.36007">
        <ele>178.5</ele>
        <time>2026-05-15T10:14:43+02:00</time>
      </trkpt>
      <trkpt lat="47.16283" lon="5.36002">
        <ele>178.5</ele>
        <time>2026-05-15T10:14:44+02:00</time>
      </trkpt>
      <trkpt lat="47.16287" lon="5.35998">
        <ele>178.5</ele>
        <time>2026-05-15T10:14:45+02:00</time>
      </trkpt>
      <trkpt lat="47.16289" lon="5.35995">
        <ele>178.5</ele>
        <time>2026-05-15T10:14:46+02:00</time>
      </trkpt>
      <trkpt lat="47.16296" lon="5.35989">
        <ele>178.7002</ele>
        <time>2026-05-15T10:14:47+02:00</time>
      </trkpt>
      <trkpt lat="47.163" lon="5.35984">
        <ele>178.60059</ele>
        <time>2026-05-15T10:14:48+02:00</time>
      </trkpt>
      <trkpt lat="47.16305" lon="5.3598">
        <ele>178.7002</ele>
        <time>2026-05-15T10:14:49+02:00</time>
      </trkpt>
      <trkpt lat="47.16309" lon="5.35975">
        <ele>178.5</ele>
        <time>2026-05-15T10:14:50+02:00</time>
      </trkpt>
      <trkpt lat="47.16314" lon="5.35971">
        <ele>178.5</ele>
        <time>2026-05-15T10:14:51+02:00</time>
      </trkpt>
      <trkpt lat="47.16318" lon="5.35966">
        <ele>178.40039</ele>
        <time>2026-05-15T10:14:52+02:00</time>
      </trkpt>
      <trkpt lat="47.16323" lon="5.35962">
        <ele>178.60059</ele>
        <time>2026-05-15T10:14:53+02:00</time>
      </trkpt>
      <trkpt lat="47.16328" lon="5.35957">
        <ele>178.40039</ele>
        <time>2026-05-15T10:14:54+02:00</time>
      </trkpt>
      <trkpt lat="47.16333" lon="5.35952">
        <ele>178.5</ele>
        <time>2026-05-15T10:14:55+02:00</time>
      </trkpt>
      <trkpt lat="47.16337" lon="5.35947">
        <ele>178.7002</ele>
        <time>2026-05-15T10:14:56+02:00</time>
      </trkpt>
      <trkpt lat="47.16342" lon="5.35943">
        <ele>178.7002</ele>
        <time>2026-05-15T10:14:57+02:00</time>
      </trkpt>
      <trkpt lat="47.16346" lon="5.35939">
        <ele>178.7998</ele>
        <time>2026-05-15T10:14:58+02:00</time>
      </trkpt>
      <trkpt lat="47.1635" lon="5.35934">
        <ele>178.60059</ele>
        <time>2026-05-15T10:14:59+02:00</time>
      </trkpt>
      <trkpt lat="47.16354" lon="5.35931">
        <ele>178.7998</ele>
        <time>2026-05-15T10:15:00+02:00</time>
      </trkpt>
      <trkpt lat="47.16358" lon="5.35927">
        <ele>179</ele>
        <time>2026-05-15T10:15:01+02:00</time>
      </trkpt>
      <trkpt lat="47.16362" lon="5.35924">
        <ele>178.7998</ele>
        <time>2026-05-15T10:15:02+02:00</time>
      </trkpt>
      <trkpt lat="47.16366" lon="5.35921">
        <ele>179</ele>
        <time>2026-05-15T10:15:03+02:00</time>
      </trkpt>
      <trkpt lat="47.1637" lon="5.35918">
        <ele>178.7998</ele>
        <time>2026-05-15T10:15:04+02:00</time>
      </trkpt>
      <trkpt lat="47.16374" lon="5.35914">
        <ele>178.7998</ele>
        <time>2026-05-15T10:15:05+02:00</time>
      </trkpt>
      <trkpt lat="47.16379" lon="5.35912">
        <ele>179</ele>
        <time>2026-05-15T10:15:06+02:00</time>
      </trkpt>
      <trkpt lat="47.16382" lon="5.3591">
        <ele>179.10059</ele>
        <time>2026-05-15T10:15:07+02:00</time>
      </trkpt>
      <trkpt lat="47.16389" lon="5.35904">
        <ele>178.90039</ele>
        <time>2026-05-15T10:15:08+02:00</time>
      </trkpt>
      <trkpt lat="47.16394" lon="5.359">
        <ele>178.7002</ele>
        <time>2026-05-15T10:15:09+02:00</time>
      </trkpt>
      <trkpt lat="47.16399" lon="5.35896">
        <ele>178.90039</ele>
        <time>2026-05-15T10:15:10+02:00</time>
      </trkpt>
      <trkpt lat="47.16404" lon="5.35892">
        <ele>178.7002</ele>
        <time>2026-05-15T10:15:11+02:00</time>
      </trkpt>
      <trkpt lat="47.16408" lon="5.35889">
        <ele>178.7998</ele>
        <time>2026-05-15T10:15:12+02:00</time>
      </trkpt>
      <trkpt lat="47.16413" lon="5.35885">
        <ele>178.90039</ele>
        <time>2026-05-15T10:15:13+02:00</time>
      </trkpt>
      <trkpt lat="47.16418" lon="5.35881">
        <ele>178.7002</ele>
        <time>2026-05-15T10:15:14+02:00</time>
      </trkpt>
      <trkpt lat="47.16423" lon="5.35877">
        <ele>178.7998</ele>
        <time>2026-05-15T10:15:15+02:00</time>
      </trkpt>
      <trkpt lat="47.16428" lon="5.35873">
        <ele>178.7002</ele>
        <time>2026-05-15T10:15:16+02:00</time>
      </trkpt>
      <trkpt lat="47.16433" lon="5.35869">
        <ele>178.7002</ele>
        <time>2026-05-15T10:15:17+02:00</time>
      </trkpt>
      <trkpt lat="47.16438" lon="5.35864">
        <ele>178.60059</ele>
        <time>2026-05-15T10:15:18+02:00</time>
      </trkpt>
      <trkpt lat="47.16443" lon="5.3586">
        <ele>178.7002</ele>
        <time>2026-05-15T10:15:19+02:00</time>
      </trkpt>
      <trkpt lat="47.16448" lon="5.35856">
        <ele>178.60059</ele>
        <time>2026-05-15T10:15:20+02:00</time>
      </trkpt>
      <trkpt lat="47.16451" lon="5.35854">
        <ele>178.7002</ele>
        <time>2026-05-15T10:15:21+02:00</time>
      </trkpt>
      <trkpt lat="47.16459" lon="5.35849">
        <ele>178.7002</ele>
        <time>2026-05-15T10:15:22+02:00</time>
      </trkpt>
      <trkpt lat="47.16464" lon="5.35845">
        <ele>178.7002</ele>
        <time>2026-05-15T10:15:23+02:00</time>
      </trkpt>
      <trkpt lat="47.1647" lon="5.35841">
        <ele>178.7998</ele>
        <time>2026-05-15T10:15:24+02:00</time>
      </trkpt>
      <trkpt lat="47.16475" lon="5.35838">
        <ele>178.7002</ele>
        <time>2026-05-15T10:15:25+02:00</time>
      </trkpt>
      <trkpt lat="47.16481" lon="5.35835">
        <ele>178.7998</ele>
        <time>2026-05-15T10:15:26+02:00</time>
      </trkpt>
      <trkpt lat="47.16486" lon="5.35831">
        <ele>178.7998</ele>
        <time>2026-05-15T10:15:27+02:00</time>
      </trkpt>
      <trkpt lat="47.16492" lon="5.35828">
        <ele>179</ele>
        <time>2026-05-15T10:15:28+02:00</time>
      </trkpt>
      <trkpt lat="47.16497" lon="5.35825">
        <ele>179</ele>
        <time>2026-05-15T10:15:29+02:00</time>
      </trkpt>
      <trkpt lat="47.16502" lon="5.35822">
        <ele>179</ele>
        <time>2026-05-15T10:15:30+02:00</time>
      </trkpt>
      <trkpt lat="47.16507" lon="5.35819">
        <ele>179.2002</ele>
        <time>2026-05-15T10:15:31+02:00</time>
      </trkpt>
      <trkpt lat="47.16512" lon="5.35816">
        <ele>179.40039</ele>
        <time>2026-05-15T10:15:32+02:00</time>
      </trkpt>
      <trkpt lat="47.16517" lon="5.35813">
        <ele>179.10059</ele>
        <time>2026-05-15T10:15:33+02:00</time>
      </trkpt>
      <trkpt lat="47.16522" lon="5.3581">
        <ele>179.2002</ele>
        <time>2026-05-15T10:15:34+02:00</time>
      </trkpt>
      <trkpt lat="47.16528" lon="5.35808">
        <ele>179.2998</ele>
        <time>2026-05-15T10:15:35+02:00</time>
      </trkpt>
      <trkpt lat="47.16534" lon="5.35805">
        <ele>179.2002</ele>
        <time>2026-05-15T10:15:36+02:00</time>
      </trkpt>
      <trkpt lat="47.1654" lon="5.35802">
        <ele>179.5</ele>
        <time>2026-05-15T10:15:37+02:00</time>
      </trkpt>
      <trkpt lat="47.16545" lon="5.35799">
        <ele>179.7998</ele>
        <time>2026-05-15T10:15:38+02:00</time>
      </trkpt>
      <trkpt lat="47.16548" lon="5.35798">
        <ele>179.60059</ele>
        <time>2026-05-15T10:15:39+02:00</time>
      </trkpt>
      <trkpt lat="47.16556" lon="5.35794">
        <ele>180.10059</ele>
        <time>2026-05-15T10:15:40+02:00</time>
      </trkpt>
      <trkpt lat="47.16561" lon="5.35791">
        <ele>180.10059</ele>
        <time>2026-05-15T10:15:41+02:00</time>
      </trkpt>
      <trkpt lat="47.16564" lon="5.3579">
        <ele>180.2002</ele>
        <time>2026-05-15T10:15:42+02:00</time>
      </trkpt>
      <trkpt lat="47.16573" lon="5.35786">
        <ele>179.7998</ele>
        <time>2026-05-15T10:15:43+02:00</time>
      </trkpt>
      <trkpt lat="47.16578" lon="5.35782">
        <ele>179.90039</ele>
        <time>2026-05-15T10:15:44+02:00</time>
      </trkpt>
      <trkpt lat="47.16584" lon="5.3578">
        <ele>179.60059</ele>
        <time>2026-05-15T10:15:45+02:00</time>
      </trkpt>
      <trkpt lat="47.16589" lon="5.35777">
        <ele>179.60059</ele>
        <time>2026-05-15T10:15:46+02:00</time>
      </trkpt>
      <trkpt lat="47.16594" lon="5.35774">
        <ele>179.7002</ele>
        <time>2026-05-15T10:15:47+02:00</time>
      </trkpt>
      <trkpt lat="47.166" lon="5.35771">
        <ele>179.5</ele>
        <time>2026-05-15T10:15:48+02:00</time>
      </trkpt>
      <trkpt lat="47.16606" lon="5.35767">
        <ele>179.7002</ele>
        <time>2026-05-15T10:15:49+02:00</time>
      </trkpt>
      <trkpt lat="47.16611" lon="5.35764">
        <ele>179.90039</ele>
        <time>2026-05-15T10:15:50+02:00</time>
      </trkpt>
      <trkpt lat="47.16616" lon="5.3576">
        <ele>180.10059</ele>
        <time>2026-05-15T10:15:51+02:00</time>
      </trkpt>
      <trkpt lat="47.16622" lon="5.35757">
        <ele>180.2998</ele>
        <time>2026-05-15T10:15:52+02:00</time>
      </trkpt>
      <trkpt lat="47.16626" lon="5.35754">
        <ele>180.10059</ele>
        <time>2026-05-15T10:15:53+02:00</time>
      </trkpt>
      <trkpt lat="47.16632" lon="5.3575">
        <ele>180.10059</ele>
        <time>2026-05-15T10:15:54+02:00</time>
      </trkpt>
      <trkpt lat="47.16637" lon="5.35747">
        <ele>180.10059</ele>
        <time>2026-05-15T10:15:55+02:00</time>
      </trkpt>
      <trkpt lat="47.16643" lon="5.35744">
        <ele>179.7002</ele>
        <time>2026-05-15T10:15:56+02:00</time>
      </trkpt>
      <trkpt lat="47.16648" lon="5.35741">
        <ele>179.7998</ele>
        <time>2026-05-15T10:15:57+02:00</time>
      </trkpt>
      <trkpt lat="47.16654" lon="5.35738">
        <ele>179.7998</ele>
        <time>2026-05-15T10:15:58+02:00</time>
      </trkpt>
      <trkpt lat="47.16659" lon="5.35735">
        <ele>179.40039</ele>
        <time>2026-05-15T10:15:59+02:00</time>
      </trkpt>
      <trkpt lat="47.16665" lon="5.35732">
        <ele>179.60059</ele>
        <time>2026-05-15T10:16:00+02:00</time>
      </trkpt>
      <trkpt lat="47.16671" lon="5.35729">
        <ele>179.5</ele>
        <time>2026-05-15T10:16:01+02:00</time>
      </trkpt>
      <trkpt lat="47.16676" lon="5.35726">
        <ele>179.90039</ele>
        <time>2026-05-15T10:16:02+02:00</time>
      </trkpt>
      <trkpt lat="47.16681" lon="5.35724">
        <ele>180.5</ele>
        <time>2026-05-15T10:16:03+02:00</time>
      </trkpt>
      <trkpt lat="47.16687" lon="5.35721">
        <ele>180.90039</ele>
        <time>2026-05-15T10:16:04+02:00</time>
      </trkpt>
      <trkpt lat="47.16693" lon="5.35719">
        <ele>180.7002</ele>
        <time>2026-05-15T10:16:05+02:00</time>
      </trkpt>
      <trkpt lat="47.16699" lon="5.35716">
        <ele>180.7002</ele>
        <time>2026-05-15T10:16:06+02:00</time>
      </trkpt>
      <trkpt lat="47.16705" lon="5.35714">
        <ele>180.60059</ele>
        <time>2026-05-15T10:16:07+02:00</time>
      </trkpt>
      <trkpt lat="47.1671" lon="5.35711">
        <ele>180.10059</ele>
        <time>2026-05-15T10:16:08+02:00</time>
      </trkpt>
      <trkpt lat="47.16716" lon="5.35709">
        <ele>180.10059</ele>
        <time>2026-05-15T10:16:09+02:00</time>
      </trkpt>
      <trkpt lat="47.16722" lon="5.35706">
        <ele>180.10059</ele>
        <time>2026-05-15T10:16:10+02:00</time>
      </trkpt>
      <trkpt lat="47.16725" lon="5.35705">
        <ele>180.10059</ele>
        <time>2026-05-15T10:16:11+02:00</time>
      </trkpt>
      <trkpt lat="47.16733" lon="5.35701">
        <ele>179.90039</ele>
        <time>2026-05-15T10:16:12+02:00</time>
      </trkpt>
      <trkpt lat="47.16739" lon="5.35699">
        <ele>180.10059</ele>
        <time>2026-05-15T10:16:13+02:00</time>
      </trkpt>
      <trkpt lat="47.16744" lon="5.35696">
        <ele>180.40039</ele>
        <time>2026-05-15T10:16:14+02:00</time>
      </trkpt>
      <trkpt lat="47.1675" lon="5.35694">
        <ele>180.60059</ele>
        <time>2026-05-15T10:16:15+02:00</time>
      </trkpt>
      <trkpt lat="47.16755" lon="5.35692">
        <ele>180.7998</ele>
        <time>2026-05-15T10:16:16+02:00</time>
      </trkpt>
      <trkpt lat="47.16761" lon="5.3569">
        <ele>180.7998</ele>
        <time>2026-05-15T10:16:17+02:00</time>
      </trkpt>
      <trkpt lat="47.16766" lon="5.35688">
        <ele>180.7998</ele>
        <time>2026-05-15T10:16:18+02:00</time>
      </trkpt>
      <trkpt lat="47.16771" lon="5.35685">
        <ele>180.60059</ele>
        <time>2026-05-15T10:16:19+02:00</time>
      </trkpt>
      <trkpt lat="47.16777" lon="5.35683">
        <ele>180.5</ele>
        <time>2026-05-15T10:16:20+02:00</time>
      </trkpt>
      <trkpt lat="47.16783" lon="5.35681">
        <ele>180.60059</ele>
        <time>2026-05-15T10:16:21+02:00</time>
      </trkpt>
      <trkpt lat="47.16788" lon="5.35679">
        <ele>180.7002</ele>
        <time>2026-05-15T10:16:22+02:00</time>
      </trkpt>
      <trkpt lat="47.16794" lon="5.35677">
        <ele>180.60059</ele>
        <time>2026-05-15T10:16:23+02:00</time>
      </trkpt>
      <trkpt lat="47.16799" lon="5.35675">
        <ele>180.7998</ele>
        <time>2026-05-15T10:16:24+02:00</time>
      </trkpt>
      <trkpt lat="47.16805" lon="5.35673">
        <ele>180.90039</ele>
        <time>2026-05-15T10:16:25+02:00</time>
      </trkpt>
      <trkpt lat="47.16811" lon="5.35671">
        <ele>181</ele>
        <time>2026-05-15T10:16:26+02:00</time>
      </trkpt>
      <trkpt lat="47.16816" lon="5.35669">
        <ele>180.5</ele>
        <time>2026-05-15T10:16:27+02:00</time>
      </trkpt>
      <trkpt lat="47.16822" lon="5.35667">
        <ele>180.5</ele>
        <time>2026-05-15T10:16:28+02:00</time>
      </trkpt>
      <trkpt lat="47.16827" lon="5.35665">
        <ele>180.60059</ele>
        <time>2026-05-15T10:16:29+02:00</time>
      </trkpt>
      <trkpt lat="47.16833" lon="5.35663">
        <ele>180.7002</ele>
        <time>2026-05-15T10:16:30+02:00</time>
      </trkpt>
      <trkpt lat="47.16839" lon="5.35661">
        <ele>180.90039</ele>
        <time>2026-05-15T10:16:31+02:00</time>
      </trkpt>
      <trkpt lat="47.16845" lon="5.35659">
        <ele>180.40039</ele>
        <time>2026-05-15T10:16:32+02:00</time>
      </trkpt>
      <trkpt lat="47.1685" lon="5.35658">
        <ele>180.5</ele>
        <time>2026-05-15T10:16:33+02:00</time>
      </trkpt>
      <trkpt lat="47.16856" lon="5.35656">
        <ele>180.7002</ele>
        <time>2026-05-15T10:16:34+02:00</time>
      </trkpt>
      <trkpt lat="47.16862" lon="5.35655">
        <ele>180.90039</ele>
        <time>2026-05-15T10:16:35+02:00</time>
      </trkpt>
      <trkpt lat="47.16865" lon="5.35654">
        <ele>180.90039</ele>
        <time>2026-05-15T10:16:36+02:00</time>
      </trkpt>
      <trkpt lat="47.16873" lon="5.35653">
        <ele>181.7998</ele>
        <time>2026-05-15T10:16:37+02:00</time>
      </trkpt>
      <trkpt lat="47.16879" lon="5.35652">
        <ele>182.40039</ele>
        <time>2026-05-15T10:16:38+02:00</time>
      </trkpt>
      <trkpt lat="47.16884" lon="5.3565">
        <ele>183.2998</ele>
        <time>2026-05-15T10:16:39+02:00</time>
      </trkpt>
      <trkpt lat="47.16889" lon="5.35649">
        <ele>183.90039</ele>
        <time>2026-05-15T10:16:40+02:00</time>
      </trkpt>
      <trkpt lat="47.16895" lon="5.35648">
        <ele>184.2002</ele>
        <time>2026-05-15T10:16:41+02:00</time>
      </trkpt>
      <trkpt lat="47.169" lon="5.35648">
        <ele>184.2002</ele>
        <time>2026-05-15T10:16:42+02:00</time>
      </trkpt>
      <trkpt lat="47.16906" lon="5.35647">
        <ele>184.40039</ele>
        <time>2026-05-15T10:16:43+02:00</time>
      </trkpt>
      <trkpt lat="47.16911" lon="5.35646">
        <ele>184.7002</ele>
        <time>2026-05-15T10:16:44+02:00</time>
      </trkpt>
      <trkpt lat="47.16917" lon="5.35646">
        <ele>184.90039</ele>
        <time>2026-05-15T10:16:45+02:00</time>
      </trkpt>
      <trkpt lat="47.16922" lon="5.35645">
        <ele>185.2998</ele>
        <time>2026-05-15T10:16:46+02:00</time>
      </trkpt>
      <trkpt lat="47.16928" lon="5.35644">
        <ele>185.60059</ele>
        <time>2026-05-15T10:16:47+02:00</time>
      </trkpt>
      <trkpt lat="47.16933" lon="5.35644">
        <ele>185.90039</ele>
        <time>2026-05-15T10:16:48+02:00</time>
      </trkpt>
      <trkpt lat="47.16939" lon="5.35643">
        <ele>186</ele>
        <time>2026-05-15T10:16:49+02:00</time>
      </trkpt>
      <trkpt lat="47.16944" lon="5.35642">
        <ele>186.2998</ele>
        <time>2026-05-15T10:16:50+02:00</time>
      </trkpt>
      <trkpt lat="47.1695" lon="5.35641">
        <ele>186.5</ele>
        <time>2026-05-15T10:16:51+02:00</time>
      </trkpt>
      <trkpt lat="47.16955" lon="5.35641">
        <ele>186.7998</ele>
        <time>2026-05-15T10:16:52+02:00</time>
      </trkpt>
      <trkpt lat="47.1696" lon="5.3564">
        <ele>187</ele>
        <time>2026-05-15T10:16:53+02:00</time>
      </trkpt>
      <trkpt lat="47.16965" lon="5.3564">
        <ele>187.2998</ele>
        <time>2026-05-15T10:16:54+02:00</time>
      </trkpt>
      <trkpt lat="47.16971" lon="5.3564">
        <ele>187.5</ele>
        <time>2026-05-15T10:16:55+02:00</time>
      </trkpt>
      <trkpt lat="47.16976" lon="5.35639">
        <ele>187.60059</ele>
        <time>2026-05-15T10:16:56+02:00</time>
      </trkpt>
      <trkpt lat="47.16979" lon="5.35639">
        <ele>187.60059</ele>
        <time>2026-05-15T10:16:57+02:00</time>
      </trkpt>
      <trkpt lat="47.16987" lon="5.35639">
        <ele>187.60059</ele>
        <time>2026-05-15T10:16:58+02:00</time>
      </trkpt>
      <trkpt lat="47.16993" lon="5.35639">
        <ele>187.60059</ele>
        <time>2026-05-15T10:16:59+02:00</time>
      </trkpt>
      <trkpt lat="47.16998" lon="5.35641">
        <ele>187.40039</ele>
        <time>2026-05-15T10:17:00+02:00</time>
      </trkpt>
      <trkpt lat="47.17003" lon="5.35644">
        <ele>187.10059</ele>
        <time>2026-05-15T10:17:01+02:00</time>
      </trkpt>
      <trkpt lat="47.17007" lon="5.35647">
        <ele>186.7002</ele>
        <time>2026-05-15T10:17:02+02:00</time>
      </trkpt>
      <trkpt lat="47.17012" lon="5.35652">
        <ele>186.2998</ele>
        <time>2026-05-15T10:17:03+02:00</time>
      </trkpt>
      <trkpt lat="47.17014" lon="5.35654">
        <ele>186</ele>
        <time>2026-05-15T10:17:04+02:00</time>
      </trkpt>
      <trkpt lat="47.17022" lon="5.35658">
        <ele>185.60059</ele>
        <time>2026-05-15T10:17:05+02:00</time>
      </trkpt>
      <trkpt lat="47.17027" lon="5.35659">
        <ele>185.2998</ele>
        <time>2026-05-15T10:17:06+02:00</time>
      </trkpt>
      <trkpt lat="47.1703" lon="5.35659">
        <ele>185</ele>
        <time>2026-05-15T10:17:07+02:00</time>
      </trkpt>
      <trkpt lat="47.17037" lon="5.35656">
        <ele>184.7002</ele>
        <time>2026-05-15T10:17:08+02:00</time>
      </trkpt>
      <trkpt lat="47.17041" lon="5.35651">
        <ele>184.5</ele>
        <time>2026-05-15T10:17:09+02:00</time>
      </trkpt>
      <trkpt lat="47.17044" lon="5.35645">
        <ele>184.5</ele>
        <time>2026-05-15T10:17:10+02:00</time>
      </trkpt>
      <trkpt lat="47.17047" lon="5.35639">
        <ele>184</ele>
        <time>2026-05-15T10:17:11+02:00</time>
      </trkpt>
      <trkpt lat="47.17051" lon="5.35635">
        <ele>184</ele>
        <time>2026-05-15T10:17:12+02:00</time>
      </trkpt>
      <trkpt lat="47.17057" lon="5.35633">
        <ele>183.2998</ele>
        <time>2026-05-15T10:17:13+02:00</time>
      </trkpt>
      <trkpt lat="47.17062" lon="5.35634">
        <ele>183</ele>
        <time>2026-05-15T10:17:14+02:00</time>
      </trkpt>
      <trkpt lat="47.17068" lon="5.35634">
        <ele>182.7002</ele>
        <time>2026-05-15T10:17:15+02:00</time>
      </trkpt>
      <trkpt lat="47.17074" lon="5.35635">
        <ele>183</ele>
        <time>2026-05-15T10:17:16+02:00</time>
      </trkpt>
      <trkpt lat="47.17079" lon="5.35636">
        <ele>182.7998</ele>
        <time>2026-05-15T10:17:17+02:00</time>
      </trkpt>
      <trkpt lat="47.17084" lon="5.35636">
        <ele>182.5</ele>
        <time>2026-05-15T10:17:18+02:00</time>
      </trkpt>
      <trkpt lat="47.1709" lon="5.35637">
        <ele>182.2998</ele>
        <time>2026-05-15T10:17:19+02:00</time>
      </trkpt>
      <trkpt lat="47.17096" lon="5.35637">
        <ele>182.10059</ele>
        <time>2026-05-15T10:17:20+02:00</time>
      </trkpt>
      <trkpt lat="47.17101" lon="5.35636">
        <ele>182</ele>
        <time>2026-05-15T10:17:21+02:00</time>
      </trkpt>
      <trkpt lat="47.17107" lon="5.35636">
        <ele>182</ele>
        <time>2026-05-15T10:17:22+02:00</time>
      </trkpt>
      <trkpt lat="47.17112" lon="5.35636">
        <ele>182</ele>
        <time>2026-05-15T10:17:23+02:00</time>
      </trkpt>
      <trkpt lat="47.17117" lon="5.35637">
        <ele>182</ele>
        <time>2026-05-15T10:17:24+02:00</time>
      </trkpt>
      <trkpt lat="47.17123" lon="5.35637">
        <ele>181.90039</ele>
        <time>2026-05-15T10:17:25+02:00</time>
      </trkpt>
      <trkpt lat="47.17128" lon="5.35638">
        <ele>181.90039</ele>
        <time>2026-05-15T10:17:26+02:00</time>
      </trkpt>
      <trkpt lat="47.17133" lon="5.35638">
        <ele>181.90039</ele>
        <time>2026-05-15T10:17:27+02:00</time>
      </trkpt>
      <trkpt lat="47.17139" lon="5.35638">
        <ele>181.90039</ele>
        <time>2026-05-15T10:17:28+02:00</time>
      </trkpt>
      <trkpt lat="47.17144" lon="5.35639">
        <ele>182</ele>
        <time>2026-05-15T10:17:29+02:00</time>
      </trkpt>
      <trkpt lat="47.17149" lon="5.3564">
        <ele>182.10059</ele>
        <time>2026-05-15T10:17:30+02:00</time>
      </trkpt>
      <trkpt lat="47.17155" lon="5.35641">
        <ele>182.2002</ele>
        <time>2026-05-15T10:17:31+02:00</time>
      </trkpt>
      <trkpt lat="47.1716" lon="5.35641">
        <ele>182.2998</ele>
        <time>2026-05-15T10:17:32+02:00</time>
      </trkpt>
      <trkpt lat="47.17166" lon="5.35641">
        <ele>182.2998</ele>
        <time>2026-05-15T10:17:33+02:00</time>
      </trkpt>
      <trkpt lat="47.17171" lon="5.35641">
        <ele>182.2998</ele>
        <time>2026-05-15T10:17:34+02:00</time>
      </trkpt>
      <trkpt lat="47.17176" lon="5.35642">
        <ele>182.2998</ele>
        <time>2026-05-15T10:17:35+02:00</time>
      </trkpt>
      <trkpt lat="47.17182" lon="5.35642">
        <ele>182.2998</ele>
        <time>2026-05-15T10:17:36+02:00</time>
      </trkpt>
      <trkpt lat="47.17187" lon="5.35643">
        <ele>182.2998</ele>
        <time>2026-05-15T10:17:37+02:00</time>
      </trkpt>
      <trkpt lat="47.17193" lon="5.35643">
        <ele>182.2002</ele>
        <time>2026-05-15T10:17:38+02:00</time>
      </trkpt>
      <trkpt lat="47.17198" lon="5.35644">
        <ele>182.40039</ele>
        <time>2026-05-15T10:17:39+02:00</time>
      </trkpt>
      <trkpt lat="47.17203" lon="5.35645">
        <ele>182.40039</ele>
        <time>2026-05-15T10:17:40+02:00</time>
      </trkpt>
      <trkpt lat="47.17208" lon="5.35647">
        <ele>182.2998</ele>
        <time>2026-05-15T10:17:41+02:00</time>
      </trkpt>
      <trkpt lat="47.17214" lon="5.35648">
        <ele>182.2998</ele>
        <time>2026-05-15T10:17:42+02:00</time>
      </trkpt>
      <trkpt lat="47.17219" lon="5.3565">
        <ele>182.2002</ele>
        <time>2026-05-15T10:17:43+02:00</time>
      </trkpt>
      <trkpt lat="47.17224" lon="5.35652">
        <ele>182.10059</ele>
        <time>2026-05-15T10:17:44+02:00</time>
      </trkpt>
      <trkpt lat="47.17229" lon="5.35653">
        <ele>182.2002</ele>
        <time>2026-05-15T10:17:45+02:00</time>
      </trkpt>
      <trkpt lat="47.17234" lon="5.35654">
        <ele>182.10059</ele>
        <time>2026-05-15T10:17:46+02:00</time>
      </trkpt>
      <trkpt lat="47.1724" lon="5.35656">
        <ele>182.10059</ele>
        <time>2026-05-15T10:17:47+02:00</time>
      </trkpt>
      <trkpt lat="47.17245" lon="5.35657">
        <ele>182</ele>
        <time>2026-05-15T10:17:48+02:00</time>
      </trkpt>
      <trkpt lat="47.17251" lon="5.35658">
        <ele>182</ele>
        <time>2026-05-15T10:17:49+02:00</time>
      </trkpt>
      <trkpt lat="47.17257" lon="5.35658">
        <ele>181.90039</ele>
        <time>2026-05-15T10:17:50+02:00</time>
      </trkpt>
      <trkpt lat="47.17263" lon="5.35659">
        <ele>181.7998</ele>
        <time>2026-05-15T10:17:51+02:00</time>
      </trkpt>
      <trkpt lat="47.17269" lon="5.35659">
        <ele>181.7998</ele>
        <time>2026-05-15T10:17:52+02:00</time>
      </trkpt>
      <trkpt lat="47.17275" lon="5.3566">
        <ele>181.7002</ele>
        <time>2026-05-15T10:17:53+02:00</time>
      </trkpt>
      <trkpt lat="47.17281" lon="5.3566">
        <ele>181.60059</ele>
        <time>2026-05-15T10:17:54+02:00</time>
      </trkpt>
      <trkpt lat="47.17287" lon="5.35661">
        <ele>181.5</ele>
        <time>2026-05-15T10:17:55+02:00</time>
      </trkpt>
      <trkpt lat="47.17293" lon="5.35661">
        <ele>181.5</ele>
        <time>2026-05-15T10:17:56+02:00</time>
      </trkpt>
      <trkpt lat="47.17299" lon="5.35662">
        <ele>181.40039</ele>
        <time>2026-05-15T10:17:57+02:00</time>
      </trkpt>
      <trkpt lat="47.17304" lon="5.35662">
        <ele>181.40039</ele>
        <time>2026-05-15T10:17:58+02:00</time>
      </trkpt>
      <trkpt lat="47.1731" lon="5.35662">
        <ele>181.40039</ele>
        <time>2026-05-15T10:17:59+02:00</time>
      </trkpt>
      <trkpt lat="47.17315" lon="5.35663">
        <ele>181.5</ele>
        <time>2026-05-15T10:18:00+02:00</time>
      </trkpt>
      <trkpt lat="47.17321" lon="5.35663">
        <ele>181.5</ele>
        <time>2026-05-15T10:18:01+02:00</time>
      </trkpt>
      <trkpt lat="47.17327" lon="5.35664">
        <ele>181.7002</ele>
        <time>2026-05-15T10:18:02+02:00</time>
      </trkpt>
      <trkpt lat="47.17333" lon="5.35664">
        <ele>181.7998</ele>
        <time>2026-05-15T10:18:03+02:00</time>
      </trkpt>
      <trkpt lat="47.17338" lon="5.35664">
        <ele>181.90039</ele>
        <time>2026-05-15T10:18:04+02:00</time>
      </trkpt>
      <trkpt lat="47.17344" lon="5.35665">
        <ele>182</ele>
        <time>2026-05-15T10:18:05+02:00</time>
      </trkpt>
      <trkpt lat="47.17347" lon="5.35665">
        <ele>182</ele>
        <time>2026-05-15T10:18:06+02:00</time>
      </trkpt>
      <trkpt lat="47.17357" lon="5.35665">
        <ele>182.2002</ele>
        <time>2026-05-15T10:18:07+02:00</time>
      </trkpt>
      <trkpt lat="47.17363" lon="5.35666">
        <ele>182.2002</ele>
        <time>2026-05-15T10:18:08+02:00</time>
      </trkpt>
      <trkpt lat="47.1737" lon="5.35665">
        <ele>182.2002</ele>
        <time>2026-05-15T10:18:09+02:00</time>
      </trkpt>
      <trkpt lat="47.17376" lon="5.35665">
        <ele>182.2002</ele>
        <time>2026-05-15T10:18:10+02:00</time>
      </trkpt>
      <trkpt lat="47.17382" lon="5.35666">
        <ele>182.10059</ele>
        <time>2026-05-15T10:18:11+02:00</time>
      </trkpt>
      <trkpt lat="47.17388" lon="5.35666">
        <ele>182.10059</ele>
        <time>2026-05-15T10:18:12+02:00</time>
      </trkpt>
      <trkpt lat="47.17393" lon="5.35666">
        <ele>182.10059</ele>
        <time>2026-05-15T10:18:13+02:00</time>
      </trkpt>
      <trkpt lat="47.17399" lon="5.35666">
        <ele>182.2002</ele>
        <time>2026-05-15T10:18:14+02:00</time>
      </trkpt>
      <trkpt lat="47.17405" lon="5.35666">
        <ele>182.40039</ele>
        <time>2026-05-15T10:18:15+02:00</time>
      </trkpt>
      <trkpt lat="47.1741" lon="5.35665">
        <ele>182.5</ele>
        <time>2026-05-15T10:18:16+02:00</time>
      </trkpt>
      <trkpt lat="47.17417" lon="5.35665">
        <ele>182.7998</ele>
        <time>2026-05-15T10:18:17+02:00</time>
      </trkpt>
      <trkpt lat="47.17422" lon="5.35664">
        <ele>183</ele>
        <time>2026-05-15T10:18:18+02:00</time>
      </trkpt>
      <trkpt lat="47.17428" lon="5.35663">
        <ele>183.40039</ele>
        <time>2026-05-15T10:18:19+02:00</time>
      </trkpt>
      <trkpt lat="47.17433" lon="5.35662">
        <ele>183.7998</ele>
        <time>2026-05-15T10:18:20+02:00</time>
      </trkpt>
      <trkpt lat="47.17439" lon="5.35662">
        <ele>184.2998</ele>
        <time>2026-05-15T10:18:21+02:00</time>
      </trkpt>
      <trkpt lat="47.17445" lon="5.35661">
        <ele>184.90039</ele>
        <time>2026-05-15T10:18:22+02:00</time>
      </trkpt>
      <trkpt lat="47.1745" lon="5.3566">
        <ele>185.10059</ele>
        <time>2026-05-15T10:18:23+02:00</time>
      </trkpt>
      <trkpt lat="47.17456" lon="5.35659">
        <ele>185.5</ele>
        <time>2026-05-15T10:18:24+02:00</time>
      </trkpt>
      <trkpt lat="47.17462" lon="5.35658">
        <ele>185.90039</ele>
        <time>2026-05-15T10:18:25+02:00</time>
      </trkpt>
      <trkpt lat="47.17467" lon="5.35657">
        <ele>186.2002</ele>
        <time>2026-05-15T10:18:26+02:00</time>
      </trkpt>
      <trkpt lat="47.17473" lon="5.35657">
        <ele>186.2998</ele>
        <time>2026-05-15T10:18:27+02:00</time>
      </trkpt>
      <trkpt lat="47.17479" lon="5.35657">
        <ele>186.2002</ele>
        <time>2026-05-15T10:18:28+02:00</time>
      </trkpt>
      <trkpt lat="47.17484" lon="5.35658">
        <ele>185.90039</ele>
        <time>2026-05-15T10:18:29+02:00</time>
      </trkpt>
      <trkpt lat="47.17489" lon="5.3566">
        <ele>185.90039</ele>
        <time>2026-05-15T10:18:30+02:00</time>
      </trkpt>
      <trkpt lat="47.17494" lon="5.35663">
        <ele>186.2002</ele>
        <time>2026-05-15T10:18:31+02:00</time>
      </trkpt>
      <trkpt lat="47.17499" lon="5.35667">
        <ele>185.90039</ele>
        <time>2026-05-15T10:18:32+02:00</time>
      </trkpt>
      <trkpt lat="47.17504" lon="5.35671">
        <ele>186.5</ele>
        <time>2026-05-15T10:18:33+02:00</time>
      </trkpt>
      <trkpt lat="47.17509" lon="5.35676">
        <ele>186.2998</ele>
        <time>2026-05-15T10:18:34+02:00</time>
      </trkpt>
      <trkpt lat="47.17513" lon="5.35681">
        <ele>186.7998</ele>
        <time>2026-05-15T10:18:35+02:00</time>
      </trkpt>
      <trkpt lat="47.17517" lon="5.35686">
        <ele>186.7998</ele>
        <time>2026-05-15T10:18:36+02:00</time>
      </trkpt>
      <trkpt lat="47.17521" lon="5.35692">
        <ele>186.7002</ele>
        <time>2026-05-15T10:18:37+02:00</time>
      </trkpt>
      <trkpt lat="47.17524" lon="5.35698">
        <ele>186.5</ele>
        <time>2026-05-15T10:18:38+02:00</time>
      </trkpt>
      <trkpt lat="47.17527" lon="5.35704">
        <ele>185.90039</ele>
        <time>2026-05-15T10:18:39+02:00</time>
      </trkpt>
      <trkpt lat="47.1753" lon="5.3571">
        <ele>185.90039</ele>
        <time>2026-05-15T10:18:40+02:00</time>
      </trkpt>
      <trkpt lat="47.17533" lon="5.35716">
        <ele>185.60059</ele>
        <time>2026-05-15T10:18:41+02:00</time>
      </trkpt>
      <trkpt lat="47.17536" lon="5.35722">
        <ele>185.5</ele>
        <time>2026-05-15T10:18:42+02:00</time>
      </trkpt>
      <trkpt lat="47.1754" lon="5.35728">
        <ele>185.40039</ele>
        <time>2026-05-15T10:18:43+02:00</time>
      </trkpt>
      <trkpt lat="47.17543" lon="5.35734">
        <ele>185</ele>
        <time>2026-05-15T10:18:44+02:00</time>
      </trkpt>
      <trkpt lat="47.17546" lon="5.3574">
        <ele>184.7002</ele>
        <time>2026-05-15T10:18:45+02:00</time>
      </trkpt>
      <trkpt lat="47.1755" lon="5.35745">
        <ele>184.5</ele>
        <time>2026-05-15T10:18:46+02:00</time>
      </trkpt>
      <trkpt lat="47.17553" lon="5.3575">
        <ele>184.40039</ele>
        <time>2026-05-15T10:18:47+02:00</time>
      </trkpt>
      <trkpt lat="47.17557" lon="5.35755">
        <ele>184.2002</ele>
        <time>2026-05-15T10:18:48+02:00</time>
      </trkpt>
      <trkpt lat="47.1756" lon="5.3576">
        <ele>184</ele>
        <time>2026-05-15T10:18:49+02:00</time>
      </trkpt>
      <trkpt lat="47.17562" lon="5.35765">
        <ele>183.7998</ele>
        <time>2026-05-15T10:18:50+02:00</time>
      </trkpt>
      <trkpt lat="47.17566" lon="5.35771">
        <ele>183.7002</ele>
        <time>2026-05-15T10:18:51+02:00</time>
      </trkpt>
      <trkpt lat="47.17569" lon="5.35775">
        <ele>183.5</ele>
        <time>2026-05-15T10:18:52+02:00</time>
      </trkpt>
      <trkpt lat="47.17572" lon="5.3578">
        <ele>183.5</ele>
        <time>2026-05-15T10:18:53+02:00</time>
      </trkpt>
      <trkpt lat="47.17576" lon="5.35785">
        <ele>183.40039</ele>
        <time>2026-05-15T10:18:54+02:00</time>
      </trkpt>
      <trkpt lat="47.17579" lon="5.3579">
        <ele>183.2998</ele>
        <time>2026-05-15T10:18:55+02:00</time>
      </trkpt>
      <trkpt lat="47.17582" lon="5.35794">
        <ele>183.2998</ele>
        <time>2026-05-15T10:18:56+02:00</time>
      </trkpt>
      <trkpt lat="47.17584" lon="5.35798">
        <ele>183.2998</ele>
        <time>2026-05-15T10:18:57+02:00</time>
      </trkpt>
      <trkpt lat="47.17587" lon="5.35801">
        <ele>183.2998</ele>
        <time>2026-05-15T10:18:58+02:00</time>
      </trkpt>
      <trkpt lat="47.17589" lon="5.35804">
        <ele>183.2998</ele>
        <time>2026-05-15T10:18:59+02:00</time>
      </trkpt>
      <trkpt lat="47.17592" lon="5.35808">
        <ele>183.2998</ele>
        <time>2026-05-15T10:19:00+02:00</time>
      </trkpt>
      <trkpt lat="47.17594" lon="5.35812">
        <ele>183.2998</ele>
        <time>2026-05-15T10:19:01+02:00</time>
      </trkpt>
      <trkpt lat="47.17597" lon="5.35816">
        <ele>183.2998</ele>
        <time>2026-05-15T10:19:02+02:00</time>
      </trkpt>
      <trkpt lat="47.17599" lon="5.35819">
        <ele>183.2998</ele>
        <time>2026-05-15T10:19:03+02:00</time>
      </trkpt>
      <trkpt lat="47.17602" lon="5.35823">
        <ele>183.40039</ele>
        <time>2026-05-15T10:19:04+02:00</time>
      </trkpt>
      <trkpt lat="47.17604" lon="5.35826">
        <ele>183.5</ele>
        <time>2026-05-15T10:19:05+02:00</time>
      </trkpt>
      <trkpt lat="47.17605" lon="5.35828">
        <ele>183.5</ele>
        <time>2026-05-15T10:19:06+02:00</time>
      </trkpt>
      <trkpt lat="47.17609" lon="5.35832">
        <ele>183.5</ele>
        <time>2026-05-15T10:19:07+02:00</time>
      </trkpt>
      <trkpt lat="47.17611" lon="5.35835">
        <ele>183.7002</ele>
        <time>2026-05-15T10:19:08+02:00</time>
      </trkpt>
      <trkpt lat="47.17612" lon="5.35838">
        <ele>183.7002</ele>
        <time>2026-05-15T10:19:09+02:00</time>
      </trkpt>
      <trkpt lat="47.17614" lon="5.35841">
        <ele>183.7998</ele>
        <time>2026-05-15T10:19:10+02:00</time>
      </trkpt>
      <trkpt lat="47.17615" lon="5.35844">
        <ele>183.7998</ele>
        <time>2026-05-15T10:19:11+02:00</time>
      </trkpt>
      <trkpt lat="47.17616" lon="5.35848">
        <ele>183.7998</ele>
        <time>2026-05-15T10:19:12+02:00</time>
      </trkpt>
      <trkpt lat="47.17616" lon="5.35851">
        <ele>183.90039</ele>
        <time>2026-05-15T10:19:13+02:00</time>
      </trkpt>
      <trkpt lat="47.17618" lon="5.35854">
        <ele>183.90039</ele>
        <time>2026-05-15T10:19:14+02:00</time>
      </trkpt>
      <trkpt lat="47.17619" lon="5.35856">
        <ele>183.90039</ele>
        <time>2026-05-15T10:19:15+02:00</time>
      </trkpt>
      <trkpt lat="47.1762" lon="5.35858">
        <ele>183.90039</ele>
        <time>2026-05-15T10:19:16+02:00</time>
      </trkpt>
      <trkpt lat="47.17621" lon="5.3586">
        <ele>184.10059</ele>
        <time>2026-05-15T10:19:17+02:00</time>
      </trkpt>
      <trkpt lat="47.17623" lon="5.35862">
        <ele>184.10059</ele>
        <time>2026-05-15T10:19:18+02:00</time>
      </trkpt>
      <trkpt lat="47.17624" lon="5.35864">
        <ele>184.10059</ele>
        <time>2026-05-15T10:19:19+02:00</time>
      </trkpt>
      <trkpt lat="47.17626" lon="5.35867">
        <ele>184.2002</ele>
        <time>2026-05-15T10:19:20+02:00</time>
      </trkpt>
      <trkpt lat="47.17627" lon="5.35869">
        <ele>184.2002</ele>
        <time>2026-05-15T10:19:21+02:00</time>
      </trkpt>
      <trkpt lat="47.17629" lon="5.35871">
        <ele>184.2002</ele>
        <time>2026-05-15T10:19:22+02:00</time>
      </trkpt>
      <trkpt lat="47.1763" lon="5.35874">
        <ele>184.2002</ele>
        <time>2026-05-15T10:19:23+02:00</time>
      </trkpt>
      <trkpt lat="47.17631" lon="5.35875">
        <ele>184.2002</ele>
        <time>2026-05-15T10:19:24+02:00</time>
      </trkpt>
      <trkpt lat="47.17632" lon="5.35877">
        <ele>184.2998</ele>
        <time>2026-05-15T10:19:25+02:00</time>
      </trkpt>
      <trkpt lat="47.17634" lon="5.35879">
        <ele>184.2998</ele>
        <time>2026-05-15T10:19:26+02:00</time>
      </trkpt>
      <trkpt lat="47.17635" lon="5.35881">
        <ele>184.2998</ele>
        <time>2026-05-15T10:19:27+02:00</time>
      </trkpt>
      <trkpt lat="47.17635" lon="5.35882">
        <ele>184.2998</ele>
        <time>2026-05-15T10:19:28+02:00</time>
      </trkpt>
      <trkpt lat="47.17636" lon="5.35884">
        <ele>184.2998</ele>
        <time>2026-05-15T10:19:29+02:00</time>
      </trkpt>
      <trkpt lat="47.17637" lon="5.35885">
        <ele>184.2998</ele>
        <time>2026-05-15T10:19:30+02:00</time>
      </trkpt>
      <trkpt lat="47.17638" lon="5.35886">
        <ele>184.2998</ele>
        <time>2026-05-15T10:19:31+02:00</time>
      </trkpt>
      <trkpt lat="47.17638" lon="5.35888">
        <ele>184.2998</ele>
        <time>2026-05-15T10:19:32+02:00</time>
      </trkpt>
      <trkpt lat="47.17639" lon="5.35889">
        <ele>184.2998</ele>
        <time>2026-05-15T10:19:33+02:00</time>
      </trkpt>
      <trkpt lat="47.17644" lon="5.35897">
        <ele>184.2998</ele>
        <time>2026-05-15T10:19:36+02:00</time>
      </trkpt>
      <trkpt lat="47.17647" lon="5.359">
        <ele>184.2998</ele>
        <time>2026-05-15T10:19:37+02:00</time>
      </trkpt>
      <trkpt lat="47.1765" lon="5.35904">
        <ele>184.40039</ele>
        <time>2026-05-15T10:19:38+02:00</time>
      </trkpt>
      <trkpt lat="47.17652" lon="5.35908">
        <ele>184.40039</ele>
        <time>2026-05-15T10:19:39+02:00</time>
      </trkpt>
      <trkpt lat="47.17655" lon="5.35911">
        <ele>184.40039</ele>
        <time>2026-05-15T10:19:40+02:00</time>
      </trkpt>
      <trkpt lat="47.17656" lon="5.35915">
        <ele>184.40039</ele>
        <time>2026-05-15T10:19:41+02:00</time>
      </trkpt>
      <trkpt lat="47.17658" lon="5.35917">
        <ele>184.40039</ele>
        <time>2026-05-15T10:19:42+02:00</time>
      </trkpt>
      <trkpt lat="47.1766" lon="5.3592">
        <ele>184.5</ele>
        <time>2026-05-15T10:19:43+02:00</time>
      </trkpt>
      <trkpt lat="47.17662" lon="5.35923">
        <ele>184.5</ele>
        <time>2026-05-15T10:19:44+02:00</time>
      </trkpt>
      <trkpt lat="47.17664" lon="5.35926">
        <ele>184.5</ele>
        <time>2026-05-15T10:19:45+02:00</time>
      </trkpt>
      <trkpt lat="47.17666" lon="5.35929">
        <ele>184.60059</ele>
        <time>2026-05-15T10:19:46+02:00</time>
      </trkpt>
      <trkpt lat="47.17669" lon="5.35933">
        <ele>184.60059</ele>
        <time>2026-05-15T10:19:47+02:00</time>
      </trkpt>
      <trkpt lat="47.17671" lon="5.35937">
        <ele>184.7998</ele>
        <time>2026-05-15T10:19:48+02:00</time>
      </trkpt>
      <trkpt lat="47.17674" lon="5.35942">
        <ele>184.7998</ele>
        <time>2026-05-15T10:19:49+02:00</time>
      </trkpt>
      <trkpt lat="47.17677" lon="5.35946">
        <ele>184.90039</ele>
        <time>2026-05-15T10:19:50+02:00</time>
      </trkpt>
      <trkpt lat="47.17679" lon="5.35951">
        <ele>184.90039</ele>
        <time>2026-05-15T10:19:51+02:00</time>
      </trkpt>
      <trkpt lat="47.17682" lon="5.35956">
        <ele>185.10059</ele>
        <time>2026-05-15T10:19:52+02:00</time>
      </trkpt>
      <trkpt lat="47.17685" lon="5.35961">
        <ele>185.10059</ele>
        <time>2026-05-15T10:19:53+02:00</time>
      </trkpt>
      <trkpt lat="47.17689" lon="5.35966">
        <ele>185.2002</ele>
        <time>2026-05-15T10:19:54+02:00</time>
      </trkpt>
      <trkpt lat="47.17692" lon="5.35971">
        <ele>185.40039</ele>
        <time>2026-05-15T10:19:55+02:00</time>
      </trkpt>
      <trkpt lat="47.17695" lon="5.35976">
        <ele>185.2998</ele>
        <time>2026-05-15T10:19:56+02:00</time>
      </trkpt>
      <trkpt lat="47.17698" lon="5.3598">
        <ele>185.5</ele>
        <time>2026-05-15T10:19:57+02:00</time>
      </trkpt>
      <trkpt lat="47.17701" lon="5.35985">
        <ele>185.40039</ele>
        <time>2026-05-15T10:19:58+02:00</time>
      </trkpt>
      <trkpt lat="47.17703" lon="5.3599">
        <ele>185.60059</ele>
        <time>2026-05-15T10:19:59+02:00</time>
      </trkpt>
      <trkpt lat="47.17706" lon="5.35995">
        <ele>185.5</ele>
        <time>2026-05-15T10:20:00+02:00</time>
      </trkpt>
      <trkpt lat="47.17709" lon="5.35999">
        <ele>185.60059</ele>
        <time>2026-05-15T10:20:01+02:00</time>
      </trkpt>
      <trkpt lat="47.17713" lon="5.36004">
        <ele>185.5</ele>
        <time>2026-05-15T10:20:02+02:00</time>
      </trkpt>
      <trkpt lat="47.17716" lon="5.36009">
        <ele>185.60059</ele>
        <time>2026-05-15T10:20:03+02:00</time>
      </trkpt>
      <trkpt lat="47.17718" lon="5.36014">
        <ele>185.60059</ele>
        <time>2026-05-15T10:20:04+02:00</time>
      </trkpt>
      <trkpt lat="47.17722" lon="5.36019">
        <ele>185.60059</ele>
        <time>2026-05-15T10:20:05+02:00</time>
      </trkpt>
      <trkpt lat="47.17725" lon="5.36025">
        <ele>185.40039</ele>
        <time>2026-05-15T10:20:06+02:00</time>
      </trkpt>
      <trkpt lat="47.17728" lon="5.3603">
        <ele>185.5</ele>
        <time>2026-05-15T10:20:07+02:00</time>
      </trkpt>
      <trkpt lat="47.17731" lon="5.36036">
        <ele>185.2998</ele>
        <time>2026-05-15T10:20:08+02:00</time>
      </trkpt>
      <trkpt lat="47.17734" lon="5.36041">
        <ele>185.2998</ele>
        <time>2026-05-15T10:20:09+02:00</time>
      </trkpt>
      <trkpt lat="47.17737" lon="5.36046">
        <ele>185.2002</ele>
        <time>2026-05-15T10:20:10+02:00</time>
      </trkpt>
      <trkpt lat="47.1774" lon="5.36052">
        <ele>185.2002</ele>
        <time>2026-05-15T10:20:11+02:00</time>
      </trkpt>
      <trkpt lat="47.17744" lon="5.36057">
        <ele>185.2002</ele>
        <time>2026-05-15T10:20:12+02:00</time>
      </trkpt>
      <trkpt lat="47.17747" lon="5.36063">
        <ele>185.10059</ele>
        <time>2026-05-15T10:20:13+02:00</time>
      </trkpt>
      <trkpt lat="47.17751" lon="5.36068">
        <ele>185.10059</ele>
        <time>2026-05-15T10:20:14+02:00</time>
      </trkpt>
      <trkpt lat="47.17754" lon="5.36074">
        <ele>185.10059</ele>
        <time>2026-05-15T10:20:15+02:00</time>
      </trkpt>
      <trkpt lat="47.17757" lon="5.36079">
        <ele>185.10059</ele>
        <time>2026-05-15T10:20:16+02:00</time>
      </trkpt>
      <trkpt lat="47.1776" lon="5.36085">
        <ele>185</ele>
        <time>2026-05-15T10:20:17+02:00</time>
      </trkpt>
      <trkpt lat="47.17764" lon="5.3609">
        <ele>185</ele>
        <time>2026-05-15T10:20:18+02:00</time>
      </trkpt>
      <trkpt lat="47.17767" lon="5.36096">
        <ele>185</ele>
        <time>2026-05-15T10:20:19+02:00</time>
      </trkpt>
      <trkpt lat="47.1777" lon="5.36101">
        <ele>185</ele>
        <time>2026-05-15T10:20:20+02:00</time>
      </trkpt>
      <trkpt lat="47.17774" lon="5.36107">
        <ele>185</ele>
        <time>2026-05-15T10:20:21+02:00</time>
      </trkpt>
      <trkpt lat="47.17777" lon="5.36112">
        <ele>185</ele>
        <time>2026-05-15T10:20:22+02:00</time>
      </trkpt>
      <trkpt lat="47.1778" lon="5.36118">
        <ele>185.10059</ele>
        <time>2026-05-15T10:20:23+02:00</time>
      </trkpt>
      <trkpt lat="47.17784" lon="5.36123">
        <ele>185</ele>
        <time>2026-05-15T10:20:24+02:00</time>
      </trkpt>
      <trkpt lat="47.17787" lon="5.36129">
        <ele>185</ele>
        <time>2026-05-15T10:20:25+02:00</time>
      </trkpt>
      <trkpt lat="47.17791" lon="5.36134">
        <ele>185.2002</ele>
        <time>2026-05-15T10:20:26+02:00</time>
      </trkpt>
      <trkpt lat="47.17794" lon="5.3614">
        <ele>185.10059</ele>
        <time>2026-05-15T10:20:27+02:00</time>
      </trkpt>
      <trkpt lat="47.17798" lon="5.36146">
        <ele>185.2002</ele>
        <time>2026-05-15T10:20:28+02:00</time>
      </trkpt>
      <trkpt lat="47.17801" lon="5.36152">
        <ele>185.2998</ele>
        <time>2026-05-15T10:20:29+02:00</time>
      </trkpt>
      <trkpt lat="47.17805" lon="5.36157">
        <ele>185.2002</ele>
        <time>2026-05-15T10:20:30+02:00</time>
      </trkpt>
      <trkpt lat="47.17808" lon="5.36163">
        <ele>185.40039</ele>
        <time>2026-05-15T10:20:31+02:00</time>
      </trkpt>
      <trkpt lat="47.17812" lon="5.36169">
        <ele>185.60059</ele>
        <time>2026-05-15T10:20:32+02:00</time>
      </trkpt>
      <trkpt lat="47.17816" lon="5.36175">
        <ele>185.60059</ele>
        <time>2026-05-15T10:20:33+02:00</time>
      </trkpt>
      <trkpt lat="47.17819" lon="5.36181">
        <ele>185.60059</ele>
        <time>2026-05-15T10:20:34+02:00</time>
      </trkpt>
      <trkpt lat="47.17822" lon="5.36186">
        <ele>185.90039</ele>
        <time>2026-05-15T10:20:35+02:00</time>
      </trkpt>
      <trkpt lat="47.17826" lon="5.36192">
        <ele>185.60059</ele>
        <time>2026-05-15T10:20:36+02:00</time>
      </trkpt>
      <trkpt lat="47.1783" lon="5.36198">
        <ele>185.7002</ele>
        <time>2026-05-15T10:20:37+02:00</time>
      </trkpt>
      <trkpt lat="47.17833" lon="5.36204">
        <ele>186</ele>
        <time>2026-05-15T10:20:38+02:00</time>
      </trkpt>
      <trkpt lat="47.17837" lon="5.3621">
        <ele>185.7998</ele>
        <time>2026-05-15T10:20:39+02:00</time>
      </trkpt>
      <trkpt lat="47.1784" lon="5.36216">
        <ele>185.7998</ele>
        <time>2026-05-15T10:20:40+02:00</time>
      </trkpt>
      <trkpt lat="47.17844" lon="5.36222">
        <ele>186</ele>
        <time>2026-05-15T10:20:41+02:00</time>
      </trkpt>
      <trkpt lat="47.17847" lon="5.36228">
        <ele>185.7998</ele>
        <time>2026-05-15T10:20:42+02:00</time>
      </trkpt>
      <trkpt lat="47.17851" lon="5.36234">
        <ele>185.7998</ele>
        <time>2026-05-15T10:20:43+02:00</time>
      </trkpt>
      <trkpt lat="47.17854" lon="5.36239">
        <ele>185.7002</ele>
        <time>2026-05-15T10:20:44+02:00</time>
      </trkpt>
      <trkpt lat="47.17857" lon="5.36245">
        <ele>185.90039</ele>
        <time>2026-05-15T10:20:45+02:00</time>
      </trkpt>
      <trkpt lat="47.17861" lon="5.36251">
        <ele>185.7002</ele>
        <time>2026-05-15T10:20:46+02:00</time>
      </trkpt>
      <trkpt lat="47.17864" lon="5.36257">
        <ele>185.60059</ele>
        <time>2026-05-15T10:20:47+02:00</time>
      </trkpt>
      <trkpt lat="47.17868" lon="5.36262">
        <ele>185.7002</ele>
        <time>2026-05-15T10:20:48+02:00</time>
      </trkpt>
      <trkpt lat="47.17872" lon="5.36268">
        <ele>185.5</ele>
        <time>2026-05-15T10:20:49+02:00</time>
      </trkpt>
      <trkpt lat="47.17875" lon="5.36274">
        <ele>185.2998</ele>
        <time>2026-05-15T10:20:50+02:00</time>
      </trkpt>
      <trkpt lat="47.17878" lon="5.3628">
        <ele>185.40039</ele>
        <time>2026-05-15T10:20:51+02:00</time>
      </trkpt>
      <trkpt lat="47.17882" lon="5.36286">
        <ele>185.2002</ele>
        <time>2026-05-15T10:20:52+02:00</time>
      </trkpt>
      <trkpt lat="47.17886" lon="5.36292">
        <ele>185.2998</ele>
        <time>2026-05-15T10:20:53+02:00</time>
      </trkpt>
      <trkpt lat="47.1789" lon="5.36298">
        <ele>185.2998</ele>
        <time>2026-05-15T10:20:54+02:00</time>
      </trkpt>
      <trkpt lat="47.17893" lon="5.36304">
        <ele>185.10059</ele>
        <time>2026-05-15T10:20:55+02:00</time>
      </trkpt>
      <trkpt lat="47.17897" lon="5.3631">
        <ele>185.2002</ele>
        <time>2026-05-15T10:20:56+02:00</time>
      </trkpt>
      <trkpt lat="47.17901" lon="5.36316">
        <ele>185.10059</ele>
        <time>2026-05-15T10:20:57+02:00</time>
      </trkpt>
      <trkpt lat="47.17904" lon="5.36322">
        <ele>185</ele>
        <time>2026-05-15T10:20:58+02:00</time>
      </trkpt>
      <trkpt lat="47.17908" lon="5.36328">
        <ele>185</ele>
        <time>2026-05-15T10:20:59+02:00</time>
      </trkpt>
      <trkpt lat="47.1791" lon="5.36331">
        <ele>184.90039</ele>
        <time>2026-05-15T10:21:00+02:00</time>
      </trkpt>
      <trkpt lat="47.17915" lon="5.3634">
        <ele>185</ele>
        <time>2026-05-15T10:21:01+02:00</time>
      </trkpt>
      <trkpt lat="47.17919" lon="5.36346">
        <ele>184.7998</ele>
        <time>2026-05-15T10:21:02+02:00</time>
      </trkpt>
      <trkpt lat="47.17923" lon="5.36352">
        <ele>184.7002</ele>
        <time>2026-05-15T10:21:03+02:00</time>
      </trkpt>
      <trkpt lat="47.17927" lon="5.36358">
        <ele>184.60059</ele>
        <time>2026-05-15T10:21:04+02:00</time>
      </trkpt>
      <trkpt lat="47.1793" lon="5.36364">
        <ele>184.60059</ele>
        <time>2026-05-15T10:21:05+02:00</time>
      </trkpt>
      <trkpt lat="47.17934" lon="5.3637">
        <ele>184.5</ele>
        <time>2026-05-15T10:21:06+02:00</time>
      </trkpt>
      <trkpt lat="47.17938" lon="5.36376">
        <ele>184.60059</ele>
        <time>2026-05-15T10:21:07+02:00</time>
      </trkpt>
      <trkpt lat="47.17941" lon="5.36382">
        <ele>184.5</ele>
        <time>2026-05-15T10:21:08+02:00</time>
      </trkpt>
      <trkpt lat="47.17944" lon="5.36388">
        <ele>184.5</ele>
        <time>2026-05-15T10:21:09+02:00</time>
      </trkpt>
      <trkpt lat="47.17948" lon="5.36393">
        <ele>184.40039</ele>
        <time>2026-05-15T10:21:10+02:00</time>
      </trkpt>
      <trkpt lat="47.17952" lon="5.36399">
        <ele>184.2998</ele>
        <time>2026-05-15T10:21:11+02:00</time>
      </trkpt>
      <trkpt lat="47.17956" lon="5.36405">
        <ele>184.2998</ele>
        <time>2026-05-15T10:21:12+02:00</time>
      </trkpt>
      <trkpt lat="47.17959" lon="5.36411">
        <ele>184.2002</ele>
        <time>2026-05-15T10:21:13+02:00</time>
      </trkpt>
      <trkpt lat="47.17962" lon="5.36417">
        <ele>184.2998</ele>
        <time>2026-05-15T10:21:14+02:00</time>
      </trkpt>
      <trkpt lat="47.17966" lon="5.36423">
        <ele>184.2002</ele>
        <time>2026-05-15T10:21:15+02:00</time>
      </trkpt>
      <trkpt lat="47.1797" lon="5.36429">
        <ele>184.2002</ele>
        <time>2026-05-15T10:21:16+02:00</time>
      </trkpt>
      <trkpt lat="47.17973" lon="5.36435">
        <ele>184.2998</ele>
        <time>2026-05-15T10:21:17+02:00</time>
      </trkpt>
      <trkpt lat="47.17977" lon="5.36441">
        <ele>184.10059</ele>
        <time>2026-05-15T10:21:18+02:00</time>
      </trkpt>
      <trkpt lat="47.1798" lon="5.36448">
        <ele>184.10059</ele>
        <time>2026-05-15T10:21:19+02:00</time>
      </trkpt>
      <trkpt lat="47.17984" lon="5.36454">
        <ele>184.10059</ele>
        <time>2026-05-15T10:21:20+02:00</time>
      </trkpt>
      <trkpt lat="47.17987" lon="5.3646">
        <ele>184.10059</ele>
        <time>2026-05-15T10:21:21+02:00</time>
      </trkpt>
      <trkpt lat="47.1799" lon="5.36466">
        <ele>184.10059</ele>
        <time>2026-05-15T10:21:22+02:00</time>
      </trkpt>
      <trkpt lat="47.17994" lon="5.36472">
        <ele>184.10059</ele>
        <time>2026-05-15T10:21:23+02:00</time>
      </trkpt>
      <trkpt lat="47.17998" lon="5.36478">
        <ele>184</ele>
        <time>2026-05-15T10:21:24+02:00</time>
      </trkpt>
      <trkpt lat="47.18002" lon="5.36484">
        <ele>184</ele>
        <time>2026-05-15T10:21:25+02:00</time>
      </trkpt>
      <trkpt lat="47.18006" lon="5.36491">
        <ele>183.90039</ele>
        <time>2026-05-15T10:21:26+02:00</time>
      </trkpt>
      <trkpt lat="47.18009" lon="5.36497">
        <ele>183.90039</ele>
        <time>2026-05-15T10:21:27+02:00</time>
      </trkpt>
      <trkpt lat="47.18013" lon="5.36503">
        <ele>183.7998</ele>
        <time>2026-05-15T10:21:28+02:00</time>
      </trkpt>
      <trkpt lat="47.18017" lon="5.36509">
        <ele>183.7998</ele>
        <time>2026-05-15T10:21:29+02:00</time>
      </trkpt>
      <trkpt lat="47.18021" lon="5.36515">
        <ele>183.7002</ele>
        <time>2026-05-15T10:21:30+02:00</time>
      </trkpt>
      <trkpt lat="47.18025" lon="5.36521">
        <ele>183.7002</ele>
        <time>2026-05-15T10:21:31+02:00</time>
      </trkpt>
      <trkpt lat="47.18028" lon="5.36527">
        <ele>183.60059</ele>
        <time>2026-05-15T10:21:32+02:00</time>
      </trkpt>
      <trkpt lat="47.18032" lon="5.36533">
        <ele>183.60059</ele>
        <time>2026-05-15T10:21:33+02:00</time>
      </trkpt>
      <trkpt lat="47.18036" lon="5.36538">
        <ele>183.60059</ele>
        <time>2026-05-15T10:21:34+02:00</time>
      </trkpt>
      <trkpt lat="47.18039" lon="5.36544">
        <ele>183.60059</ele>
        <time>2026-05-15T10:21:35+02:00</time>
      </trkpt>
      <trkpt lat="47.18043" lon="5.3655">
        <ele>183.60059</ele>
        <time>2026-05-15T10:21:36+02:00</time>
      </trkpt>
      <trkpt lat="47.18046" lon="5.36556">
        <ele>183.7002</ele>
        <time>2026-05-15T10:21:37+02:00</time>
      </trkpt>
      <trkpt lat="47.1805" lon="5.36561">
        <ele>183.7002</ele>
        <time>2026-05-15T10:21:38+02:00</time>
      </trkpt>
      <trkpt lat="47.18053" lon="5.36567">
        <ele>183.7998</ele>
        <time>2026-05-15T10:21:39+02:00</time>
      </trkpt>
      <trkpt lat="47.18056" lon="5.36573">
        <ele>183.90039</ele>
        <time>2026-05-15T10:21:40+02:00</time>
      </trkpt>
      <trkpt lat="47.18058" lon="5.36575">
        <ele>183.90039</ele>
        <time>2026-05-15T10:21:41+02:00</time>
      </trkpt>
      <trkpt lat="47.18063" lon="5.36584">
        <ele>184</ele>
        <time>2026-05-15T10:21:42+02:00</time>
      </trkpt>
      <trkpt lat="47.18067" lon="5.3659">
        <ele>184.2002</ele>
        <time>2026-05-15T10:21:43+02:00</time>
      </trkpt>
      <trkpt lat="47.18071" lon="5.36596">
        <ele>184.2002</ele>
        <time>2026-05-15T10:21:44+02:00</time>
      </trkpt>
      <trkpt lat="47.18074" lon="5.36602">
        <ele>184.2998</ele>
        <time>2026-05-15T10:21:45+02:00</time>
      </trkpt>
      <trkpt lat="47.18078" lon="5.36608">
        <ele>184.60059</ele>
        <time>2026-05-15T10:21:46+02:00</time>
      </trkpt>
      <trkpt lat="47.18081" lon="5.36614">
        <ele>184.7998</ele>
        <time>2026-05-15T10:21:47+02:00</time>
      </trkpt>
      <trkpt lat="47.18085" lon="5.36619">
        <ele>184.7998</ele>
        <time>2026-05-15T10:21:48+02:00</time>
      </trkpt>
      <trkpt lat="47.18089" lon="5.36625">
        <ele>185</ele>
        <time>2026-05-15T10:21:49+02:00</time>
      </trkpt>
      <trkpt lat="47.18092" lon="5.36631">
        <ele>185</ele>
        <time>2026-05-15T10:21:50+02:00</time>
      </trkpt>
      <trkpt lat="47.18096" lon="5.36636">
        <ele>185</ele>
        <time>2026-05-15T10:21:51+02:00</time>
      </trkpt>
      <trkpt lat="47.18099" lon="5.36642">
        <ele>185.10059</ele>
        <time>2026-05-15T10:21:52+02:00</time>
      </trkpt>
      <trkpt lat="47.18102" lon="5.36647">
        <ele>185.10059</ele>
        <time>2026-05-15T10:21:53+02:00</time>
      </trkpt>
      <trkpt lat="47.18105" lon="5.36653">
        <ele>185.10059</ele>
        <time>2026-05-15T10:21:54+02:00</time>
      </trkpt>
      <trkpt lat="47.18108" lon="5.36658">
        <ele>185.2002</ele>
        <time>2026-05-15T10:21:55+02:00</time>
      </trkpt>
      <trkpt lat="47.18112" lon="5.36663">
        <ele>185.2002</ele>
        <time>2026-05-15T10:21:56+02:00</time>
      </trkpt>
      <trkpt lat="47.18115" lon="5.36669">
        <ele>185.2998</ele>
        <time>2026-05-15T10:21:57+02:00</time>
      </trkpt>
      <trkpt lat="47.18118" lon="5.36674">
        <ele>185.40039</ele>
        <time>2026-05-15T10:21:58+02:00</time>
      </trkpt>
      <trkpt lat="47.18122" lon="5.3668">
        <ele>185.2998</ele>
        <time>2026-05-15T10:21:59+02:00</time>
      </trkpt>
      <trkpt lat="47.18126" lon="5.36685">
        <ele>185.2998</ele>
        <time>2026-05-15T10:22:00+02:00</time>
      </trkpt>
      <trkpt lat="47.18129" lon="5.36691">
        <ele>185.40039</ele>
        <time>2026-05-15T10:22:01+02:00</time>
      </trkpt>
      <trkpt lat="47.18133" lon="5.36697">
        <ele>185.2998</ele>
        <time>2026-05-15T10:22:02+02:00</time>
      </trkpt>
      <trkpt lat="47.18136" lon="5.36703">
        <ele>185.40039</ele>
        <time>2026-05-15T10:22:03+02:00</time>
      </trkpt>
      <trkpt lat="47.1814" lon="5.36709">
        <ele>185.40039</ele>
        <time>2026-05-15T10:22:04+02:00</time>
      </trkpt>
      <trkpt lat="47.18144" lon="5.36714">
        <ele>185.2998</ele>
        <time>2026-05-15T10:22:05+02:00</time>
      </trkpt>
      <trkpt lat="47.18147" lon="5.3672">
        <ele>185.2998</ele>
        <time>2026-05-15T10:22:06+02:00</time>
      </trkpt>
      <trkpt lat="47.18151" lon="5.36726">
        <ele>185.2998</ele>
        <time>2026-05-15T10:22:07+02:00</time>
      </trkpt>
      <trkpt lat="47.18155" lon="5.36732">
        <ele>185.2998</ele>
        <time>2026-05-15T10:22:08+02:00</time>
      </trkpt>
      <trkpt lat="47.18158" lon="5.36738">
        <ele>185.2998</ele>
        <time>2026-05-15T10:22:09+02:00</time>
      </trkpt>
      <trkpt lat="47.18162" lon="5.36744">
        <ele>185.2998</ele>
        <time>2026-05-15T10:22:10+02:00</time>
      </trkpt>
      <trkpt lat="47.18166" lon="5.3675">
        <ele>185.2998</ele>
        <time>2026-05-15T10:22:11+02:00</time>
      </trkpt>
      <trkpt lat="47.18169" lon="5.36756">
        <ele>185.2998</ele>
        <time>2026-05-15T10:22:12+02:00</time>
      </trkpt>
      <trkpt lat="47.18173" lon="5.36762">
        <ele>185.2998</ele>
        <time>2026-05-15T10:22:13+02:00</time>
      </trkpt>
      <trkpt lat="47.18176" lon="5.36768">
        <ele>185.2998</ele>
        <time>2026-05-15T10:22:14+02:00</time>
      </trkpt>
      <trkpt lat="47.1818" lon="5.36774">
        <ele>185.40039</ele>
        <time>2026-05-15T10:22:15+02:00</time>
      </trkpt>
      <trkpt lat="47.18184" lon="5.3678">
        <ele>185.40039</ele>
        <time>2026-05-15T10:22:16+02:00</time>
      </trkpt>
      <trkpt lat="47.18187" lon="5.36786">
        <ele>185.40039</ele>
        <time>2026-05-15T10:22:17+02:00</time>
      </trkpt>
      <trkpt lat="47.18191" lon="5.36792">
        <ele>185.5</ele>
        <time>2026-05-15T10:22:18+02:00</time>
      </trkpt>
      <trkpt lat="47.18194" lon="5.36798">
        <ele>185.5</ele>
        <time>2026-05-15T10:22:19+02:00</time>
      </trkpt>
      <trkpt lat="47.18198" lon="5.36803">
        <ele>185.5</ele>
        <time>2026-05-15T10:22:20+02:00</time>
      </trkpt>
      <trkpt lat="47.18202" lon="5.36809">
        <ele>185.60059</ele>
        <time>2026-05-15T10:22:21+02:00</time>
      </trkpt>
      <trkpt lat="47.18205" lon="5.36815">
        <ele>185.60059</ele>
        <time>2026-05-15T10:22:22+02:00</time>
      </trkpt>
      <trkpt lat="47.18208" lon="5.36821">
        <ele>185.60059</ele>
        <time>2026-05-15T10:22:23+02:00</time>
      </trkpt>
      <trkpt lat="47.18212" lon="5.36827">
        <ele>185.60059</ele>
        <time>2026-05-15T10:22:24+02:00</time>
      </trkpt>
      <trkpt lat="47.18216" lon="5.36833">
        <ele>185.60059</ele>
        <time>2026-05-15T10:22:25+02:00</time>
      </trkpt>
      <trkpt lat="47.18219" lon="5.36839">
        <ele>185.5</ele>
        <time>2026-05-15T10:22:26+02:00</time>
      </trkpt>
      <trkpt lat="47.18223" lon="5.36845">
        <ele>185.5</ele>
        <time>2026-05-15T10:22:27+02:00</time>
      </trkpt>
      <trkpt lat="47.18226" lon="5.3685">
        <ele>185.5</ele>
        <time>2026-05-15T10:22:28+02:00</time>
      </trkpt>
      <trkpt lat="47.1823" lon="5.36856">
        <ele>185.40039</ele>
        <time>2026-05-15T10:22:29+02:00</time>
      </trkpt>
      <trkpt lat="47.18233" lon="5.36861">
        <ele>185.40039</ele>
        <time>2026-05-15T10:22:30+02:00</time>
      </trkpt>
      <trkpt lat="47.18236" lon="5.36867">
        <ele>185.40039</ele>
        <time>2026-05-15T10:22:31+02:00</time>
      </trkpt>
      <trkpt lat="47.18239" lon="5.36872">
        <ele>185.2998</ele>
        <time>2026-05-15T10:22:32+02:00</time>
      </trkpt>
      <trkpt lat="47.18242" lon="5.36877">
        <ele>185.2998</ele>
        <time>2026-05-15T10:22:33+02:00</time>
      </trkpt>
      <trkpt lat="47.18246" lon="5.36882">
        <ele>185.2002</ele>
        <time>2026-05-15T10:22:34+02:00</time>
      </trkpt>
      <trkpt lat="47.18249" lon="5.36887">
        <ele>185.10059</ele>
        <time>2026-05-15T10:22:35+02:00</time>
      </trkpt>
      <trkpt lat="47.18252" lon="5.36893">
        <ele>185</ele>
        <time>2026-05-15T10:22:36+02:00</time>
      </trkpt>
      <trkpt lat="47.18255" lon="5.36898">
        <ele>184.90039</ele>
        <time>2026-05-15T10:22:37+02:00</time>
      </trkpt>
      <trkpt lat="47.18258" lon="5.36903">
        <ele>184.90039</ele>
        <time>2026-05-15T10:22:38+02:00</time>
      </trkpt>
      <trkpt lat="47.18261" lon="5.36909">
        <ele>184.7998</ele>
        <time>2026-05-15T10:22:39+02:00</time>
      </trkpt>
      <trkpt lat="47.18265" lon="5.36914">
        <ele>184.7002</ele>
        <time>2026-05-15T10:22:40+02:00</time>
      </trkpt>
      <trkpt lat="47.18268" lon="5.3692">
        <ele>184.60059</ele>
        <time>2026-05-15T10:22:41+02:00</time>
      </trkpt>
      <trkpt lat="47.18272" lon="5.36926">
        <ele>184.5</ele>
        <time>2026-05-15T10:22:42+02:00</time>
      </trkpt>
      <trkpt lat="47.18273" lon="5.36929">
        <ele>184.5</ele>
        <time>2026-05-15T10:22:43+02:00</time>
      </trkpt>
      <trkpt lat="47.18279" lon="5.36937">
        <ele>184.40039</ele>
        <time>2026-05-15T10:22:44+02:00</time>
      </trkpt>
      <trkpt lat="47.18282" lon="5.36943">
        <ele>184.2998</ele>
        <time>2026-05-15T10:22:45+02:00</time>
      </trkpt>
      <trkpt lat="47.18286" lon="5.36948">
        <ele>184.2002</ele>
        <time>2026-05-15T10:22:46+02:00</time>
      </trkpt>
      <trkpt lat="47.18289" lon="5.36954">
        <ele>184.10059</ele>
        <time>2026-05-15T10:22:47+02:00</time>
      </trkpt>
      <trkpt lat="47.18293" lon="5.3696">
        <ele>184</ele>
        <time>2026-05-15T10:22:48+02:00</time>
      </trkpt>
      <trkpt lat="47.18297" lon="5.36966">
        <ele>184</ele>
        <time>2026-05-15T10:22:49+02:00</time>
      </trkpt>
      <trkpt lat="47.183" lon="5.36972">
        <ele>184</ele>
        <time>2026-05-15T10:22:50+02:00</time>
      </trkpt>
      <trkpt lat="47.18304" lon="5.36977">
        <ele>183.90039</ele>
        <time>2026-05-15T10:22:51+02:00</time>
      </trkpt>
      <trkpt lat="47.18307" lon="5.36983">
        <ele>183.7998</ele>
        <time>2026-05-15T10:22:52+02:00</time>
      </trkpt>
      <trkpt lat="47.18311" lon="5.36989">
        <ele>183.7998</ele>
        <time>2026-05-15T10:22:53+02:00</time>
      </trkpt>
      <trkpt lat="47.18314" lon="5.36995">
        <ele>183.7002</ele>
        <time>2026-05-15T10:22:54+02:00</time>
      </trkpt>
      <trkpt lat="47.18318" lon="5.37">
        <ele>183.7002</ele>
        <time>2026-05-15T10:22:55+02:00</time>
      </trkpt>
      <trkpt lat="47.18321" lon="5.37006">
        <ele>183.7002</ele>
        <time>2026-05-15T10:22:56+02:00</time>
      </trkpt>
      <trkpt lat="47.18325" lon="5.37012">
        <ele>183.60059</ele>
        <time>2026-05-15T10:22:57+02:00</time>
      </trkpt>
      <trkpt lat="47.18329" lon="5.37018">
        <ele>183.60059</ele>
        <time>2026-05-15T10:22:58+02:00</time>
      </trkpt>
      <trkpt lat="47.18332" lon="5.37024">
        <ele>183.5</ele>
        <time>2026-05-15T10:22:59+02:00</time>
      </trkpt>
      <trkpt lat="47.18336" lon="5.3703">
        <ele>183.40039</ele>
        <time>2026-05-15T10:23:00+02:00</time>
      </trkpt>
      <trkpt lat="47.18339" lon="5.37036">
        <ele>183.40039</ele>
        <time>2026-05-15T10:23:01+02:00</time>
      </trkpt>
      <trkpt lat="47.18343" lon="5.37042">
        <ele>183.2998</ele>
        <time>2026-05-15T10:23:02+02:00</time>
      </trkpt>
      <trkpt lat="47.18347" lon="5.37048">
        <ele>183.2002</ele>
        <time>2026-05-15T10:23:03+02:00</time>
      </trkpt>
      <trkpt lat="47.1835" lon="5.37054">
        <ele>183.2002</ele>
        <time>2026-05-15T10:23:04+02:00</time>
      </trkpt>
      <trkpt lat="47.18354" lon="5.3706">
        <ele>183.10059</ele>
        <time>2026-05-15T10:23:05+02:00</time>
      </trkpt>
      <trkpt lat="47.18358" lon="5.37066">
        <ele>183.10059</ele>
        <time>2026-05-15T10:23:06+02:00</time>
      </trkpt>
      <trkpt lat="47.18362" lon="5.37072">
        <ele>182.90039</ele>
        <time>2026-05-15T10:23:07+02:00</time>
      </trkpt>
      <trkpt lat="47.18366" lon="5.37079">
        <ele>182.7998</ele>
        <time>2026-05-15T10:23:08+02:00</time>
      </trkpt>
      <trkpt lat="47.18369" lon="5.37085">
        <ele>182.7998</ele>
        <time>2026-05-15T10:23:09+02:00</time>
      </trkpt>
      <trkpt lat="47.18374" lon="5.37091">
        <ele>182.7002</ele>
        <time>2026-05-15T10:23:10+02:00</time>
      </trkpt>
      <trkpt lat="47.18377" lon="5.37098">
        <ele>182.60059</ele>
        <time>2026-05-15T10:23:11+02:00</time>
      </trkpt>
      <trkpt lat="47.18381" lon="5.37104">
        <ele>182.5</ele>
        <time>2026-05-15T10:23:12+02:00</time>
      </trkpt>
      <trkpt lat="47.18385" lon="5.3711">
        <ele>182.40039</ele>
        <time>2026-05-15T10:23:13+02:00</time>
      </trkpt>
      <trkpt lat="47.18388" lon="5.37117">
        <ele>182.2998</ele>
        <time>2026-05-15T10:23:14+02:00</time>
      </trkpt>
      <trkpt lat="47.18392" lon="5.37123">
        <ele>182.2998</ele>
        <time>2026-05-15T10:23:15+02:00</time>
      </trkpt>
      <trkpt lat="47.18396" lon="5.3713">
        <ele>182.2998</ele>
        <time>2026-05-15T10:23:16+02:00</time>
      </trkpt>
      <trkpt lat="47.184" lon="5.37136">
        <ele>182.2002</ele>
        <time>2026-05-15T10:23:17+02:00</time>
      </trkpt>
      <trkpt lat="47.18404" lon="5.37142">
        <ele>182.2998</ele>
        <time>2026-05-15T10:23:18+02:00</time>
      </trkpt>
      <trkpt lat="47.18408" lon="5.37148">
        <ele>182.2002</ele>
        <time>2026-05-15T10:23:19+02:00</time>
      </trkpt>
      <trkpt lat="47.18411" lon="5.37155">
        <ele>182.2998</ele>
        <time>2026-05-15T10:23:20+02:00</time>
      </trkpt>
      <trkpt lat="47.18415" lon="5.37161">
        <ele>182.2998</ele>
        <time>2026-05-15T10:23:21+02:00</time>
      </trkpt>
      <trkpt lat="47.18417" lon="5.37164">
        <ele>182.2998</ele>
        <time>2026-05-15T10:23:22+02:00</time>
      </trkpt>
      <trkpt lat="47.18422" lon="5.37174">
        <ele>182.2998</ele>
        <time>2026-05-15T10:23:23+02:00</time>
      </trkpt>
      <trkpt lat="47.18426" lon="5.3718">
        <ele>182.40039</ele>
        <time>2026-05-15T10:23:24+02:00</time>
      </trkpt>
      <trkpt lat="47.18429" lon="5.37186">
        <ele>182.40039</ele>
        <time>2026-05-15T10:23:25+02:00</time>
      </trkpt>
      <trkpt lat="47.18433" lon="5.37193">
        <ele>182.40039</ele>
        <time>2026-05-15T10:23:26+02:00</time>
      </trkpt>
      <trkpt lat="47.18437" lon="5.37199">
        <ele>182.40039</ele>
        <time>2026-05-15T10:23:27+02:00</time>
      </trkpt>
      <trkpt lat="47.18441" lon="5.37205">
        <ele>182.40039</ele>
        <time>2026-05-15T10:23:28+02:00</time>
      </trkpt>
      <trkpt lat="47.18445" lon="5.37211">
        <ele>182.40039</ele>
        <time>2026-05-15T10:23:29+02:00</time>
      </trkpt>
      <trkpt lat="47.18448" lon="5.37218">
        <ele>182.40039</ele>
        <time>2026-05-15T10:23:30+02:00</time>
      </trkpt>
      <trkpt lat="47.18452" lon="5.37224">
        <ele>182.40039</ele>
        <time>2026-05-15T10:23:31+02:00</time>
      </trkpt>
      <trkpt lat="47.18456" lon="5.3723">
        <ele>182.2998</ele>
        <time>2026-05-15T10:23:32+02:00</time>
      </trkpt>
      <trkpt lat="47.1846" lon="5.37236">
        <ele>182.2002</ele>
        <time>2026-05-15T10:23:33+02:00</time>
      </trkpt>
      <trkpt lat="47.18464" lon="5.37243">
        <ele>182.2002</ele>
        <time>2026-05-15T10:23:34+02:00</time>
      </trkpt>
      <trkpt lat="47.18467" lon="5.37249">
        <ele>182.2002</ele>
        <time>2026-05-15T10:23:35+02:00</time>
      </trkpt>
      <trkpt lat="47.18471" lon="5.37255">
        <ele>182.10059</ele>
        <time>2026-05-15T10:23:36+02:00</time>
      </trkpt>
      <trkpt lat="47.18475" lon="5.37262">
        <ele>182.10059</ele>
        <time>2026-05-15T10:23:37+02:00</time>
      </trkpt>
      <trkpt lat="47.18479" lon="5.37268">
        <ele>182.10059</ele>
        <time>2026-05-15T10:23:38+02:00</time>
      </trkpt>
      <trkpt lat="47.18483" lon="5.37274">
        <ele>182</ele>
        <time>2026-05-15T10:23:39+02:00</time>
      </trkpt>
      <trkpt lat="47.18487" lon="5.37281">
        <ele>182.10059</ele>
        <time>2026-05-15T10:23:40+02:00</time>
      </trkpt>
      <trkpt lat="47.18491" lon="5.37287">
        <ele>182.2002</ele>
        <time>2026-05-15T10:23:41+02:00</time>
      </trkpt>
      <trkpt lat="47.18495" lon="5.37294">
        <ele>182.2998</ele>
        <time>2026-05-15T10:23:42+02:00</time>
      </trkpt>
      <trkpt lat="47.18498" lon="5.37301">
        <ele>182.40039</ele>
        <time>2026-05-15T10:23:43+02:00</time>
      </trkpt>
      <trkpt lat="47.18503" lon="5.37307">
        <ele>182.40039</ele>
        <time>2026-05-15T10:23:44+02:00</time>
      </trkpt>
      <trkpt lat="47.18506" lon="5.37313">
        <ele>182.5</ele>
        <time>2026-05-15T10:23:45+02:00</time>
      </trkpt>
      <trkpt lat="47.18511" lon="5.3732">
        <ele>182.60059</ele>
        <time>2026-05-15T10:23:46+02:00</time>
      </trkpt>
      <trkpt lat="47.18514" lon="5.37326">
        <ele>182.7002</ele>
        <time>2026-05-15T10:23:47+02:00</time>
      </trkpt>
      <trkpt lat="47.18518" lon="5.37332">
        <ele>182.7998</ele>
        <time>2026-05-15T10:23:48+02:00</time>
      </trkpt>
      <trkpt lat="47.18522" lon="5.37339">
        <ele>182.90039</ele>
        <time>2026-05-15T10:23:49+02:00</time>
      </trkpt>
      <trkpt lat="47.18526" lon="5.37345">
        <ele>183</ele>
        <time>2026-05-15T10:23:50+02:00</time>
      </trkpt>
      <trkpt lat="47.1853" lon="5.37351">
        <ele>183</ele>
        <time>2026-05-15T10:23:51+02:00</time>
      </trkpt>
      <trkpt lat="47.18533" lon="5.37357">
        <ele>183</ele>
        <time>2026-05-15T10:23:52+02:00</time>
      </trkpt>
      <trkpt lat="47.18537" lon="5.37363">
        <ele>183.10059</ele>
        <time>2026-05-15T10:23:53+02:00</time>
      </trkpt>
      <trkpt lat="47.18541" lon="5.3737">
        <ele>183.2002</ele>
        <time>2026-05-15T10:23:54+02:00</time>
      </trkpt>
      <trkpt lat="47.18545" lon="5.37376">
        <ele>183.2002</ele>
        <time>2026-05-15T10:23:55+02:00</time>
      </trkpt>
      <trkpt lat="47.18549" lon="5.37383">
        <ele>183.2002</ele>
        <time>2026-05-15T10:23:56+02:00</time>
      </trkpt>
      <trkpt lat="47.18553" lon="5.3739">
        <ele>183.2002</ele>
        <time>2026-05-15T10:23:57+02:00</time>
      </trkpt>
      <trkpt lat="47.18557" lon="5.37396">
        <ele>183.10059</ele>
        <time>2026-05-15T10:23:58+02:00</time>
      </trkpt>
      <trkpt lat="47.18561" lon="5.37403">
        <ele>183.2002</ele>
        <time>2026-05-15T10:23:59+02:00</time>
      </trkpt>
      <trkpt lat="47.18565" lon="5.3741">
        <ele>183.2002</ele>
        <time>2026-05-15T10:24:00+02:00</time>
      </trkpt>
      <trkpt lat="47.18569" lon="5.37416">
        <ele>183.10059</ele>
        <time>2026-05-15T10:24:01+02:00</time>
      </trkpt>
      <trkpt lat="47.18574" lon="5.37423">
        <ele>183</ele>
        <time>2026-05-15T10:24:02+02:00</time>
      </trkpt>
      <trkpt lat="47.18577" lon="5.3743">
        <ele>182.90039</ele>
        <time>2026-05-15T10:24:03+02:00</time>
      </trkpt>
      <trkpt lat="47.18582" lon="5.37436">
        <ele>182.90039</ele>
        <time>2026-05-15T10:24:04+02:00</time>
      </trkpt>
      <trkpt lat="47.18585" lon="5.37442">
        <ele>182.7998</ele>
        <time>2026-05-15T10:24:05+02:00</time>
      </trkpt>
      <trkpt lat="47.1859" lon="5.37449">
        <ele>182.7998</ele>
        <time>2026-05-15T10:24:06+02:00</time>
      </trkpt>
      <trkpt lat="47.18593" lon="5.37455">
        <ele>182.7002</ele>
        <time>2026-05-15T10:24:07+02:00</time>
      </trkpt>
      <trkpt lat="47.18597" lon="5.37462">
        <ele>182.7002</ele>
        <time>2026-05-15T10:24:08+02:00</time>
      </trkpt>
      <trkpt lat="47.18601" lon="5.37469">
        <ele>182.5</ele>
        <time>2026-05-15T10:24:09+02:00</time>
      </trkpt>
      <trkpt lat="47.18605" lon="5.37475">
        <ele>182.40039</ele>
        <time>2026-05-15T10:24:10+02:00</time>
      </trkpt>
      <trkpt lat="47.18609" lon="5.37482">
        <ele>182.2998</ele>
        <time>2026-05-15T10:24:11+02:00</time>
      </trkpt>
      <trkpt lat="47.18612" lon="5.37489">
        <ele>182.10059</ele>
        <time>2026-05-15T10:24:12+02:00</time>
      </trkpt>
      <trkpt lat="47.18616" lon="5.37495">
        <ele>182.10059</ele>
        <time>2026-05-15T10:24:13+02:00</time>
      </trkpt>
      <trkpt lat="47.1862" lon="5.37502">
        <ele>182</ele>
        <time>2026-05-15T10:24:14+02:00</time>
      </trkpt>
      <trkpt lat="47.18624" lon="5.37509">
        <ele>181.90039</ele>
        <time>2026-05-15T10:24:15+02:00</time>
      </trkpt>
      <trkpt lat="47.18628" lon="5.37515">
        <ele>181.7002</ele>
        <time>2026-05-15T10:24:16+02:00</time>
      </trkpt>
      <trkpt lat="47.18633" lon="5.37522">
        <ele>181.7002</ele>
        <time>2026-05-15T10:24:17+02:00</time>
      </trkpt>
      <trkpt lat="47.18637" lon="5.37528">
        <ele>181.60059</ele>
        <time>2026-05-15T10:24:18+02:00</time>
      </trkpt>
      <trkpt lat="47.18641" lon="5.37535">
        <ele>181.60059</ele>
        <time>2026-05-15T10:24:19+02:00</time>
      </trkpt>
      <trkpt lat="47.18645" lon="5.37542">
        <ele>181.5</ele>
        <time>2026-05-15T10:24:20+02:00</time>
      </trkpt>
      <trkpt lat="47.18649" lon="5.37549">
        <ele>181.5</ele>
        <time>2026-05-15T10:24:21+02:00</time>
      </trkpt>
      <trkpt lat="47.18653" lon="5.37556">
        <ele>181.40039</ele>
        <time>2026-05-15T10:24:22+02:00</time>
      </trkpt>
      <trkpt lat="47.18658" lon="5.37563">
        <ele>181.40039</ele>
        <time>2026-05-15T10:24:23+02:00</time>
      </trkpt>
      <trkpt lat="47.18662" lon="5.3757">
        <ele>181.40039</ele>
        <time>2026-05-15T10:24:24+02:00</time>
      </trkpt>
      <trkpt lat="47.18667" lon="5.37577">
        <ele>181.2998</ele>
        <time>2026-05-15T10:24:25+02:00</time>
      </trkpt>
      <trkpt lat="47.18671" lon="5.37585">
        <ele>181.2998</ele>
        <time>2026-05-15T10:24:26+02:00</time>
      </trkpt>
      <trkpt lat="47.18676" lon="5.37592">
        <ele>181.2998</ele>
        <time>2026-05-15T10:24:27+02:00</time>
      </trkpt>
      <trkpt lat="47.1868" lon="5.37599">
        <ele>181.2002</ele>
        <time>2026-05-15T10:24:28+02:00</time>
      </trkpt>
      <trkpt lat="47.18685" lon="5.37606">
        <ele>181.2998</ele>
        <time>2026-05-15T10:24:29+02:00</time>
      </trkpt>
      <trkpt lat="47.18689" lon="5.37613">
        <ele>181.2998</ele>
        <time>2026-05-15T10:24:30+02:00</time>
      </trkpt>
      <trkpt lat="47.18693" lon="5.3762">
        <ele>181.40039</ele>
        <time>2026-05-15T10:24:31+02:00</time>
      </trkpt>
      <trkpt lat="47.18697" lon="5.37627">
        <ele>181.40039</ele>
        <time>2026-05-15T10:24:32+02:00</time>
      </trkpt>
      <trkpt lat="47.18702" lon="5.37634">
        <ele>181.40039</ele>
        <time>2026-05-15T10:24:33+02:00</time>
      </trkpt>
      <trkpt lat="47.18706" lon="5.37641">
        <ele>181.5</ele>
        <time>2026-05-15T10:24:34+02:00</time>
      </trkpt>
      <trkpt lat="47.1871" lon="5.37648">
        <ele>181.5</ele>
        <time>2026-05-15T10:24:35+02:00</time>
      </trkpt>
      <trkpt lat="47.18715" lon="5.37655">
        <ele>181.60059</ele>
        <time>2026-05-15T10:24:36+02:00</time>
      </trkpt>
      <trkpt lat="47.18717" lon="5.37658">
        <ele>181.60059</ele>
        <time>2026-05-15T10:24:37+02:00</time>
      </trkpt>
      <trkpt lat="47.18723" lon="5.37668">
        <ele>181.7002</ele>
        <time>2026-05-15T10:24:38+02:00</time>
      </trkpt>
      <trkpt lat="47.18727" lon="5.37674">
        <ele>181.7998</ele>
        <time>2026-05-15T10:24:39+02:00</time>
      </trkpt>
      <trkpt lat="47.18731" lon="5.37681">
        <ele>181.7998</ele>
        <time>2026-05-15T10:24:40+02:00</time>
      </trkpt>
      <trkpt lat="47.18734" lon="5.37688">
        <ele>181.7998</ele>
        <time>2026-05-15T10:24:41+02:00</time>
      </trkpt>
      <trkpt lat="47.18739" lon="5.37694">
        <ele>181.90039</ele>
        <time>2026-05-15T10:24:42+02:00</time>
      </trkpt>
      <trkpt lat="47.18743" lon="5.377">
        <ele>181.90039</ele>
        <time>2026-05-15T10:24:43+02:00</time>
      </trkpt>
      <trkpt lat="47.18746" lon="5.37706">
        <ele>181.90039</ele>
        <time>2026-05-15T10:24:44+02:00</time>
      </trkpt>
      <trkpt lat="47.1875" lon="5.37713">
        <ele>181.90039</ele>
        <time>2026-05-15T10:24:45+02:00</time>
      </trkpt>
      <trkpt lat="47.18754" lon="5.37719">
        <ele>181.90039</ele>
        <time>2026-05-15T10:24:46+02:00</time>
      </trkpt>
      <trkpt lat="47.18758" lon="5.37725">
        <ele>181.90039</ele>
        <time>2026-05-15T10:24:47+02:00</time>
      </trkpt>
      <trkpt lat="47.18762" lon="5.37731">
        <ele>182.10059</ele>
        <time>2026-05-15T10:24:48+02:00</time>
      </trkpt>
      <trkpt lat="47.18765" lon="5.37738">
        <ele>182.10059</ele>
        <time>2026-05-15T10:24:49+02:00</time>
      </trkpt>
      <trkpt lat="47.18769" lon="5.37744">
        <ele>182.2002</ele>
        <time>2026-05-15T10:24:50+02:00</time>
      </trkpt>
      <trkpt lat="47.18773" lon="5.3775">
        <ele>182.2002</ele>
        <time>2026-05-15T10:24:51+02:00</time>
      </trkpt>
      <trkpt lat="47.18777" lon="5.37757">
        <ele>182.2998</ele>
        <time>2026-05-15T10:24:52+02:00</time>
      </trkpt>
      <trkpt lat="47.18781" lon="5.37763">
        <ele>182.40039</ele>
        <time>2026-05-15T10:24:53+02:00</time>
      </trkpt>
      <trkpt lat="47.18784" lon="5.37769">
        <ele>182.5</ele>
        <time>2026-05-15T10:24:54+02:00</time>
      </trkpt>
      <trkpt lat="47.18789" lon="5.37775">
        <ele>182.7002</ele>
        <time>2026-05-15T10:24:55+02:00</time>
      </trkpt>
      <trkpt lat="47.18792" lon="5.37782">
        <ele>182.90039</ele>
        <time>2026-05-15T10:24:56+02:00</time>
      </trkpt>
      <trkpt lat="47.18796" lon="5.37788">
        <ele>182.90039</ele>
        <time>2026-05-15T10:24:57+02:00</time>
      </trkpt>
      <trkpt lat="47.188" lon="5.37795">
        <ele>183</ele>
        <time>2026-05-15T10:24:58+02:00</time>
      </trkpt>
      <trkpt lat="47.18804" lon="5.37801">
        <ele>183.10059</ele>
        <time>2026-05-15T10:24:59+02:00</time>
      </trkpt>
      <trkpt lat="47.18808" lon="5.37808">
        <ele>183.2998</ele>
        <time>2026-05-15T10:25:00+02:00</time>
      </trkpt>
      <trkpt lat="47.18812" lon="5.37814">
        <ele>183.2998</ele>
        <time>2026-05-15T10:25:01+02:00</time>
      </trkpt>
      <trkpt lat="47.18815" lon="5.3782">
        <ele>183.40039</ele>
        <time>2026-05-15T10:25:02+02:00</time>
      </trkpt>
      <trkpt lat="47.18819" lon="5.37826">
        <ele>183.5</ele>
        <time>2026-05-15T10:25:03+02:00</time>
      </trkpt>
      <trkpt lat="47.18823" lon="5.37832">
        <ele>183.60059</ele>
        <time>2026-05-15T10:25:04+02:00</time>
      </trkpt>
      <trkpt lat="47.18826" lon="5.37838">
        <ele>183.7002</ele>
        <time>2026-05-15T10:25:05+02:00</time>
      </trkpt>
      <trkpt lat="47.1883" lon="5.37845">
        <ele>183.7002</ele>
        <time>2026-05-15T10:25:06+02:00</time>
      </trkpt>
      <trkpt lat="47.18841" lon="5.37863">
        <ele>183.90039</ele>
        <time>2026-05-15T10:25:07+02:00</time>
      </trkpt>
      <trkpt lat="47.18845" lon="5.37869">
        <ele>184</ele>
        <time>2026-05-15T10:25:08+02:00</time>
      </trkpt>
      <trkpt lat="47.18849" lon="5.37875">
        <ele>184.10059</ele>
        <time>2026-05-15T10:25:09+02:00</time>
      </trkpt>
      <trkpt lat="47.18852" lon="5.3788">
        <ele>184.10059</ele>
        <time>2026-05-15T10:25:10+02:00</time>
      </trkpt>
      <trkpt lat="47.18855" lon="5.37886">
        <ele>184.2002</ele>
        <time>2026-05-15T10:25:11+02:00</time>
      </trkpt>
      <trkpt lat="47.18858" lon="5.37891">
        <ele>184.2002</ele>
        <time>2026-05-15T10:25:12+02:00</time>
      </trkpt>
      <trkpt lat="47.18862" lon="5.37897">
        <ele>184.2998</ele>
        <time>2026-05-15T10:25:13+02:00</time>
      </trkpt>
      <trkpt lat="47.18865" lon="5.37902">
        <ele>184.2998</ele>
        <time>2026-05-15T10:25:14+02:00</time>
      </trkpt>
      <trkpt lat="47.18868" lon="5.37908">
        <ele>184.5</ele>
        <time>2026-05-15T10:25:15+02:00</time>
      </trkpt>
      <trkpt lat="47.18871" lon="5.37913">
        <ele>184.5</ele>
        <time>2026-05-15T10:25:16+02:00</time>
      </trkpt>
      <trkpt lat="47.18874" lon="5.37919">
        <ele>184.40039</ele>
        <time>2026-05-15T10:25:17+02:00</time>
      </trkpt>
      <trkpt lat="47.18877" lon="5.37924">
        <ele>184.40039</ele>
        <time>2026-05-15T10:25:18+02:00</time>
      </trkpt>
      <trkpt lat="47.18879" lon="5.3793">
        <ele>184.2002</ele>
        <time>2026-05-15T10:25:19+02:00</time>
      </trkpt>
      <trkpt lat="47.18881" lon="5.37936">
        <ele>184.10059</ele>
        <time>2026-05-15T10:25:20+02:00</time>
      </trkpt>
      <trkpt lat="47.18884" lon="5.37942">
        <ele>184.2002</ele>
        <time>2026-05-15T10:25:21+02:00</time>
      </trkpt>
      <trkpt lat="47.18886" lon="5.37947">
        <ele>184.2998</ele>
        <time>2026-05-15T10:25:22+02:00</time>
      </trkpt>
      <trkpt lat="47.18889" lon="5.37951">
        <ele>184.2998</ele>
        <time>2026-05-15T10:25:23+02:00</time>
      </trkpt>
      <trkpt lat="47.18891" lon="5.37956">
        <ele>184.7002</ele>
        <time>2026-05-15T10:25:24+02:00</time>
      </trkpt>
      <trkpt lat="47.18894" lon="5.3796">
        <ele>184.7002</ele>
        <time>2026-05-15T10:25:25+02:00</time>
      </trkpt>
      <trkpt lat="47.18895" lon="5.37963">
        <ele>184.90039</ele>
        <time>2026-05-15T10:25:26+02:00</time>
      </trkpt>
      <trkpt lat="47.18898" lon="5.37966">
        <ele>185</ele>
        <time>2026-05-15T10:25:27+02:00</time>
      </trkpt>
      <trkpt lat="47.18901" lon="5.37968">
        <ele>185</ele>
        <time>2026-05-15T10:25:28+02:00</time>
      </trkpt>
      <trkpt lat="47.18903" lon="5.3797">
        <ele>185.2998</ele>
        <time>2026-05-15T10:25:29+02:00</time>
      </trkpt>
      <trkpt lat="47.18906" lon="5.37971">
        <ele>185.2998</ele>
        <time>2026-05-15T10:25:30+02:00</time>
      </trkpt>
      <trkpt lat="47.18908" lon="5.37973">
        <ele>185.40039</ele>
        <time>2026-05-15T10:25:31+02:00</time>
      </trkpt>
      <trkpt lat="47.1891" lon="5.37974">
        <ele>185.40039</ele>
        <time>2026-05-15T10:25:32+02:00</time>
      </trkpt>
      <trkpt lat="47.18911" lon="5.37975">
        <ele>185.40039</ele>
        <time>2026-05-15T10:25:33+02:00</time>
      </trkpt>
      <trkpt lat="47.18911" lon="5.37976">
        <ele>185.40039</ele>
        <time>2026-05-15T10:25:34+02:00</time>
      </trkpt>
      <trkpt lat="47.18912" lon="5.37977">
        <ele>185.40039</ele>
        <time>2026-05-15T10:25:35+02:00</time>
      </trkpt>
      <trkpt lat="47.18913" lon="5.37977">
        <ele>185.40039</ele>
        <time>2026-05-15T10:25:36+02:00</time>
      </trkpt>
      <trkpt lat="47.18913" lon="5.37977">
        <ele>185.40039</ele>
        <time>2026-05-15T10:25:37+02:00</time>
      </trkpt>
      <trkpt lat="47.18913" lon="5.37977">
        <ele>185.40039</ele>
        <time>2026-05-15T10:25:38+02:00</time>
      </trkpt>
      <trkpt lat="47.18921" lon="5.38002">
        <ele>186.10059</ele>
        <time>2026-05-15T10:28:23+02:00</time>
      </trkpt>
      <trkpt lat="47.18924" lon="5.38006">
        <ele>186.2002</ele>
        <time>2026-05-15T10:28:24+02:00</time>
      </trkpt>
      <trkpt lat="47.18927" lon="5.3801">
        <ele>186.2998</ele>
        <time>2026-05-15T10:28:25+02:00</time>
      </trkpt>
      <trkpt lat="47.18931" lon="5.38014">
        <ele>186.5</ele>
        <time>2026-05-15T10:28:26+02:00</time>
      </trkpt>
      <trkpt lat="47.18934" lon="5.38016">
        <ele>186.5</ele>
        <time>2026-05-15T10:28:27+02:00</time>
      </trkpt>
      <trkpt lat="47.18936" lon="5.38018">
        <ele>186.5</ele>
        <time>2026-05-15T10:28:28+02:00</time>
      </trkpt>
      <trkpt lat="47.18943" lon="5.38023">
        <ele>186.7998</ele>
        <time>2026-05-15T10:28:29+02:00</time>
      </trkpt>
      <trkpt lat="47.18947" lon="5.38028">
        <ele>186.7998</ele>
        <time>2026-05-15T10:28:30+02:00</time>
      </trkpt>
      <trkpt lat="47.18952" lon="5.38032">
        <ele>186.90039</ele>
        <time>2026-05-15T10:28:31+02:00</time>
      </trkpt>
      <trkpt lat="47.18957" lon="5.38037">
        <ele>186.90039</ele>
        <time>2026-05-15T10:28:32+02:00</time>
      </trkpt>
      <trkpt lat="47.18961" lon="5.38043">
        <ele>187</ele>
        <time>2026-05-15T10:28:33+02:00</time>
      </trkpt>
      <trkpt lat="47.18966" lon="5.38048">
        <ele>187.10059</ele>
        <time>2026-05-15T10:28:34+02:00</time>
      </trkpt>
      <trkpt lat="47.1897" lon="5.38053">
        <ele>187.10059</ele>
        <time>2026-05-15T10:28:35+02:00</time>
      </trkpt>
      <trkpt lat="47.18974" lon="5.38058">
        <ele>187</ele>
        <time>2026-05-15T10:28:36+02:00</time>
      </trkpt>
      <trkpt lat="47.18978" lon="5.38062">
        <ele>187</ele>
        <time>2026-05-15T10:28:37+02:00</time>
      </trkpt>
      <trkpt lat="47.18982" lon="5.38066">
        <ele>187</ele>
        <time>2026-05-15T10:28:38+02:00</time>
      </trkpt>
      <trkpt lat="47.18986" lon="5.38071">
        <ele>186.90039</ele>
        <time>2026-05-15T10:28:39+02:00</time>
      </trkpt>
      <trkpt lat="47.1899" lon="5.38074">
        <ele>186.7998</ele>
        <time>2026-05-15T10:28:40+02:00</time>
      </trkpt>
      <trkpt lat="47.18995" lon="5.38078">
        <ele>186.7002</ele>
        <time>2026-05-15T10:28:41+02:00</time>
      </trkpt>
      <trkpt lat="47.19" lon="5.38082">
        <ele>186.7002</ele>
        <time>2026-05-15T10:28:42+02:00</time>
      </trkpt>
      <trkpt lat="47.19004" lon="5.38086">
        <ele>186.60059</ele>
        <time>2026-05-15T10:28:43+02:00</time>
      </trkpt>
      <trkpt lat="47.19009" lon="5.3809">
        <ele>186.40039</ele>
        <time>2026-05-15T10:28:44+02:00</time>
      </trkpt>
      <trkpt lat="47.19014" lon="5.38092">
        <ele>186.2998</ele>
        <time>2026-05-15T10:28:45+02:00</time>
      </trkpt>
      <trkpt lat="47.19018" lon="5.38094">
        <ele>186.10059</ele>
        <time>2026-05-15T10:28:46+02:00</time>
      </trkpt>
      <trkpt lat="47.19023" lon="5.38094">
        <ele>186.10059</ele>
        <time>2026-05-15T10:28:47+02:00</time>
      </trkpt>
      <trkpt lat="47.19026" lon="5.38093">
        <ele>186</ele>
        <time>2026-05-15T10:28:48+02:00</time>
      </trkpt>
      <trkpt lat="47.19028" lon="5.38092">
        <ele>186</ele>
        <time>2026-05-15T10:28:49+02:00</time>
      </trkpt>
      <trkpt lat="47.19032" lon="5.38091">
        <ele>185.7998</ele>
        <time>2026-05-15T10:28:50+02:00</time>
      </trkpt>
      <trkpt lat="47.19035" lon="5.3809">
        <ele>185.7998</ele>
        <time>2026-05-15T10:28:51+02:00</time>
      </trkpt>
      <trkpt lat="47.19037" lon="5.38091">
        <ele>185.60059</ele>
        <time>2026-05-15T10:28:52+02:00</time>
      </trkpt>
      <trkpt lat="47.1904" lon="5.38092">
        <ele>185.60059</ele>
        <time>2026-05-15T10:28:53+02:00</time>
      </trkpt>
      <trkpt lat="47.19043" lon="5.38094">
        <ele>185.40039</ele>
        <time>2026-05-15T10:28:54+02:00</time>
      </trkpt>
      <trkpt lat="47.19044" lon="5.38097">
        <ele>185.40039</ele>
        <time>2026-05-15T10:28:55+02:00</time>
      </trkpt>
      <trkpt lat="47.19045" lon="5.38101">
        <ele>185.60059</ele>
        <time>2026-05-15T10:28:56+02:00</time>
      </trkpt>
      <trkpt lat="47.19046" lon="5.38106">
        <ele>185.60059</ele>
        <time>2026-05-15T10:28:57+02:00</time>
      </trkpt>
      <trkpt lat="47.19047" lon="5.3811">
        <ele>185.60059</ele>
        <time>2026-05-15T10:28:58+02:00</time>
      </trkpt>
      <trkpt lat="47.1905" lon="5.38115">
        <ele>185.60059</ele>
        <time>2026-05-15T10:28:59+02:00</time>
      </trkpt>
      <trkpt lat="47.19053" lon="5.38118">
        <ele>185.90039</ele>
        <time>2026-05-15T10:29:00+02:00</time>
      </trkpt>
      <trkpt lat="47.19057" lon="5.38122">
        <ele>185.7998</ele>
        <time>2026-05-15T10:29:01+02:00</time>
      </trkpt>
      <trkpt lat="47.19061" lon="5.38125">
        <ele>186</ele>
        <time>2026-05-15T10:29:02+02:00</time>
      </trkpt>
      <trkpt lat="47.19066" lon="5.38128">
        <ele>186</ele>
        <time>2026-05-15T10:29:03+02:00</time>
      </trkpt>
      <trkpt lat="47.19071" lon="5.38131">
        <ele>185.90039</ele>
        <time>2026-05-15T10:29:04+02:00</time>
      </trkpt>
      <trkpt lat="47.19075" lon="5.38134">
        <ele>186.40039</ele>
        <time>2026-05-15T10:29:05+02:00</time>
      </trkpt>
      <trkpt lat="47.1908" lon="5.38137">
        <ele>186.40039</ele>
        <time>2026-05-15T10:29:06+02:00</time>
      </trkpt>
      <trkpt lat="47.19085" lon="5.3814">
        <ele>186.2998</ele>
        <time>2026-05-15T10:29:07+02:00</time>
      </trkpt>
      <trkpt lat="47.19089" lon="5.38143">
        <ele>186.60059</ele>
        <time>2026-05-15T10:29:08+02:00</time>
      </trkpt>
      <trkpt lat="47.19093" lon="5.38146">
        <ele>186.60059</ele>
        <time>2026-05-15T10:29:09+02:00</time>
      </trkpt>
      <trkpt lat="47.19097" lon="5.38149">
        <ele>186.2998</ele>
        <time>2026-05-15T10:29:10+02:00</time>
      </trkpt>
      <trkpt lat="47.19101" lon="5.38151">
        <ele>186.40039</ele>
        <time>2026-05-15T10:29:11+02:00</time>
      </trkpt>
      <trkpt lat="47.19105" lon="5.38154">
        <ele>186.40039</ele>
        <time>2026-05-15T10:29:12+02:00</time>
      </trkpt>
      <trkpt lat="47.19108" lon="5.38156">
        <ele>186</ele>
        <time>2026-05-15T10:29:13+02:00</time>
      </trkpt>
      <trkpt lat="47.19112" lon="5.38158">
        <ele>185.5</ele>
        <time>2026-05-15T10:29:14+02:00</time>
      </trkpt>
      <trkpt lat="47.19116" lon="5.38161">
        <ele>186</ele>
        <time>2026-05-15T10:29:15+02:00</time>
      </trkpt>
      <trkpt lat="47.19119" lon="5.38163">
        <ele>185.5</ele>
        <time>2026-05-15T10:29:16+02:00</time>
      </trkpt>
      <trkpt lat="47.19122" lon="5.38166">
        <ele>185.5</ele>
        <time>2026-05-15T10:29:17+02:00</time>
      </trkpt>
      <trkpt lat="47.19126" lon="5.38169">
        <ele>185.60059</ele>
        <time>2026-05-15T10:29:18+02:00</time>
      </trkpt>
      <trkpt lat="47.19129" lon="5.38171">
        <ele>185.2002</ele>
        <time>2026-05-15T10:29:19+02:00</time>
      </trkpt>
      <trkpt lat="47.19133" lon="5.38173">
        <ele>185.2002</ele>
        <time>2026-05-15T10:29:20+02:00</time>
      </trkpt>
      <trkpt lat="47.19137" lon="5.38176">
        <ele>185.2998</ele>
        <time>2026-05-15T10:29:21+02:00</time>
      </trkpt>
      <trkpt lat="47.19141" lon="5.38178">
        <ele>184.7998</ele>
        <time>2026-05-15T10:29:22+02:00</time>
      </trkpt>
      <trkpt lat="47.19145" lon="5.3818">
        <ele>184.7998</ele>
        <time>2026-05-15T10:29:23+02:00</time>
      </trkpt>
      <trkpt lat="47.19148" lon="5.38183">
        <ele>184.10059</ele>
        <time>2026-05-15T10:29:24+02:00</time>
      </trkpt>
      <trkpt lat="47.19152" lon="5.38186">
        <ele>183.90039</ele>
        <time>2026-05-15T10:29:25+02:00</time>
      </trkpt>
      <trkpt lat="47.19155" lon="5.38188">
        <ele>183.90039</ele>
        <time>2026-05-15T10:29:26+02:00</time>
      </trkpt>
      <trkpt lat="47.19159" lon="5.38191">
        <ele>183.2998</ele>
        <time>2026-05-15T10:29:27+02:00</time>
      </trkpt>
      <trkpt lat="47.19162" lon="5.38193">
        <ele>184</ele>
        <time>2026-05-15T10:29:28+02:00</time>
      </trkpt>
      <trkpt lat="47.19166" lon="5.38196">
        <ele>183.60059</ele>
        <time>2026-05-15T10:29:29+02:00</time>
      </trkpt>
      <trkpt lat="47.1917" lon="5.38198">
        <ele>183.2998</ele>
        <time>2026-05-15T10:29:30+02:00</time>
      </trkpt>
      <trkpt lat="47.19174" lon="5.382">
        <ele>183.2998</ele>
        <time>2026-05-15T10:29:31+02:00</time>
      </trkpt>
      <trkpt lat="47.19178" lon="5.38202">
        <ele>183.60059</ele>
        <time>2026-05-15T10:29:32+02:00</time>
      </trkpt>
      <trkpt lat="47.19182" lon="5.38205">
        <ele>183.2998</ele>
        <time>2026-05-15T10:29:33+02:00</time>
      </trkpt>
      <trkpt lat="47.19186" lon="5.38208">
        <ele>183.2998</ele>
        <time>2026-05-15T10:29:34+02:00</time>
      </trkpt>
      <trkpt lat="47.1919" lon="5.3821">
        <ele>183.2998</ele>
        <time>2026-05-15T10:29:35+02:00</time>
      </trkpt>
      <trkpt lat="47.19193" lon="5.38213">
        <ele>183.2998</ele>
        <time>2026-05-15T10:29:36+02:00</time>
      </trkpt>
      <trkpt lat="47.19198" lon="5.38215">
        <ele>182.90039</ele>
        <time>2026-05-15T10:29:37+02:00</time>
      </trkpt>
      <trkpt lat="47.19201" lon="5.38218">
        <ele>182.60059</ele>
        <time>2026-05-15T10:29:38+02:00</time>
      </trkpt>
      <trkpt lat="47.19206" lon="5.3822">
        <ele>182.60059</ele>
        <time>2026-05-15T10:29:39+02:00</time>
      </trkpt>
      <trkpt lat="47.19209" lon="5.38223">
        <ele>182.60059</ele>
        <time>2026-05-15T10:29:40+02:00</time>
      </trkpt>
      <trkpt lat="47.19213" lon="5.38225">
        <ele>182.40039</ele>
        <time>2026-05-15T10:29:41+02:00</time>
      </trkpt>
      <trkpt lat="47.19217" lon="5.38228">
        <ele>182.7998</ele>
        <time>2026-05-15T10:29:42+02:00</time>
      </trkpt>
      <trkpt lat="47.19222" lon="5.3823">
        <ele>182.7998</ele>
        <time>2026-05-15T10:29:43+02:00</time>
      </trkpt>
      <trkpt lat="47.19225" lon="5.38233">
        <ele>182.7998</ele>
        <time>2026-05-15T10:29:44+02:00</time>
      </trkpt>
      <trkpt lat="47.1923" lon="5.38236">
        <ele>183.2002</ele>
        <time>2026-05-15T10:29:45+02:00</time>
      </trkpt>
      <trkpt lat="47.19233" lon="5.38238">
        <ele>183.2002</ele>
        <time>2026-05-15T10:29:46+02:00</time>
      </trkpt>
      <trkpt lat="47.19237" lon="5.38241">
        <ele>182.90039</ele>
        <time>2026-05-15T10:29:47+02:00</time>
      </trkpt>
      <trkpt lat="47.19241" lon="5.38245">
        <ele>183</ele>
        <time>2026-05-15T10:29:48+02:00</time>
      </trkpt>
      <trkpt lat="47.19245" lon="5.38248">
        <ele>183</ele>
        <time>2026-05-15T10:29:49+02:00</time>
      </trkpt>
      <trkpt lat="47.19249" lon="5.38253">
        <ele>183.10059</ele>
        <time>2026-05-15T10:29:50+02:00</time>
      </trkpt>
      <trkpt lat="47.19253" lon="5.38257">
        <ele>183</ele>
        <time>2026-05-15T10:29:51+02:00</time>
      </trkpt>
      <trkpt lat="47.19257" lon="5.3826">
        <ele>183</ele>
        <time>2026-05-15T10:29:52+02:00</time>
      </trkpt>
      <trkpt lat="47.19261" lon="5.38263">
        <ele>183.7002</ele>
        <time>2026-05-15T10:29:53+02:00</time>
      </trkpt>
      <trkpt lat="47.19265" lon="5.38266">
        <ele>183.7998</ele>
        <time>2026-05-15T10:29:54+02:00</time>
      </trkpt>
      <trkpt lat="47.19269" lon="5.38268">
        <ele>183.90039</ele>
        <time>2026-05-15T10:29:55+02:00</time>
      </trkpt>
      <trkpt lat="47.19272" lon="5.3827">
        <ele>184.5</ele>
        <time>2026-05-15T10:29:56+02:00</time>
      </trkpt>
      <trkpt lat="47.19275" lon="5.38273">
        <ele>184.5</ele>
        <time>2026-05-15T10:29:57+02:00</time>
      </trkpt>
      <trkpt lat="47.19279" lon="5.38275">
        <ele>184.5</ele>
        <time>2026-05-15T10:29:58+02:00</time>
      </trkpt>
      <trkpt lat="47.19282" lon="5.38278">
        <ele>184.40039</ele>
        <time>2026-05-15T10:29:59+02:00</time>
      </trkpt>
      <trkpt lat="47.19283" lon="5.38281">
        <ele>184.7998</ele>
        <time>2026-05-15T10:30:00+02:00</time>
      </trkpt>
      <trkpt lat="47.19283" lon="5.38284">
        <ele>184.7998</ele>
        <time>2026-05-15T10:30:01+02:00</time>
      </trkpt>
      <trkpt lat="47.19283" lon="5.38287">
        <ele>184.7998</ele>
        <time>2026-05-15T10:30:02+02:00</time>
      </trkpt>
      <trkpt lat="47.19282" lon="5.38291">
        <ele>185.2998</ele>
        <time>2026-05-15T10:30:03+02:00</time>
      </trkpt>
      <trkpt lat="47.19282" lon="5.38294">
        <ele>185.2998</ele>
        <time>2026-05-15T10:30:04+02:00</time>
      </trkpt>
      <trkpt lat="47.19281" lon="5.38298">
        <ele>185.60059</ele>
        <time>2026-05-15T10:30:05+02:00</time>
      </trkpt>
      <trkpt lat="47.19281" lon="5.38301">
        <ele>185.60059</ele>
        <time>2026-05-15T10:30:06+02:00</time>
      </trkpt>
      <trkpt lat="47.19281" lon="5.38304">
        <ele>185.60059</ele>
        <time>2026-05-15T10:30:07+02:00</time>
      </trkpt>
      <trkpt lat="47.1928" lon="5.38308">
        <ele>185.60059</ele>
        <time>2026-05-15T10:30:08+02:00</time>
      </trkpt>
      <trkpt lat="47.1928" lon="5.38311">
        <ele>185.60059</ele>
        <time>2026-05-15T10:30:09+02:00</time>
      </trkpt>
      <trkpt lat="47.1928" lon="5.38314">
        <ele>185.7998</ele>
        <time>2026-05-15T10:30:10+02:00</time>
      </trkpt>
      <trkpt lat="47.19279" lon="5.38317">
        <ele>185.7998</ele>
        <time>2026-05-15T10:30:11+02:00</time>
      </trkpt>
      <trkpt lat="47.19279" lon="5.3832">
        <ele>185.7998</ele>
        <time>2026-05-15T10:30:12+02:00</time>
      </trkpt>
      <trkpt lat="47.19278" lon="5.38324">
        <ele>186</ele>
        <time>2026-05-15T10:30:13+02:00</time>
      </trkpt>
      <trkpt lat="47.19279" lon="5.38327">
        <ele>186</ele>
        <time>2026-05-15T10:30:14+02:00</time>
      </trkpt>
      <trkpt lat="47.19279" lon="5.3833">
        <ele>186</ele>
        <time>2026-05-15T10:30:15+02:00</time>
      </trkpt>
      <trkpt lat="47.19279" lon="5.38332">
        <ele>186.2002</ele>
        <time>2026-05-15T10:30:16+02:00</time>
      </trkpt>
      <trkpt lat="47.1928" lon="5.38335">
        <ele>186.2002</ele>
        <time>2026-05-15T10:30:17+02:00</time>
      </trkpt>
      <trkpt lat="47.1928" lon="5.38337">
        <ele>186.2002</ele>
        <time>2026-05-15T10:30:18+02:00</time>
      </trkpt>
      <trkpt lat="47.1928" lon="5.38339">
        <ele>186.40039</ele>
        <time>2026-05-15T10:30:19+02:00</time>
      </trkpt>
      <trkpt lat="47.1928" lon="5.3834">
        <ele>186.40039</ele>
        <time>2026-05-15T10:30:20+02:00</time>
      </trkpt>
      <trkpt lat="47.1928" lon="5.3834">
        <ele>186.40039</ele>
        <time>2026-05-15T10:30:21+02:00</time>
      </trkpt>
      <trkpt lat="47.1928" lon="5.3834">
        <ele>186.40039</ele>
        <time>2026-05-15T10:30:22+02:00</time>
      </trkpt>
      <trkpt lat="47.1928" lon="5.3834">
        <ele>186.40039</ele>
        <time>2026-05-15T10:30:23+02:00</time>
      </trkpt>
      <trkpt lat="47.19267" lon="5.38354">
        <ele>186.40039</ele>
        <time>2026-05-15T10:30:50+02:00</time>
      </trkpt>
      <trkpt lat="47.19265" lon="5.38357">
        <ele>186.60059</ele>
        <time>2026-05-15T10:30:51+02:00</time>
      </trkpt>
      <trkpt lat="47.19262" lon="5.3836">
        <ele>186.60059</ele>
        <time>2026-05-15T10:30:52+02:00</time>
      </trkpt>
      <trkpt lat="47.19259" lon="5.38364">
        <ele>186.60059</ele>
        <time>2026-05-15T10:30:53+02:00</time>
      </trkpt>
      <trkpt lat="47.19257" lon="5.38368">
        <ele>186.7002</ele>
        <time>2026-05-15T10:30:54+02:00</time>
      </trkpt>
      <trkpt lat="47.19254" lon="5.38372">
        <ele>186.7002</ele>
        <time>2026-05-15T10:30:55+02:00</time>
      </trkpt>
      <trkpt lat="47.19252" lon="5.38377">
        <ele>186.7998</ele>
        <time>2026-05-15T10:30:56+02:00</time>
      </trkpt>
      <trkpt lat="47.19249" lon="5.38382">
        <ele>186.90039</ele>
        <time>2026-05-15T10:30:57+02:00</time>
      </trkpt>
      <trkpt lat="47.19247" lon="5.38386">
        <ele>186.90039</ele>
        <time>2026-05-15T10:30:58+02:00</time>
      </trkpt>
      <trkpt lat="47.19245" lon="5.38391">
        <ele>186.90039</ele>
        <time>2026-05-15T10:30:59+02:00</time>
      </trkpt>
      <trkpt lat="47.19242" lon="5.38396">
        <ele>186.90039</ele>
        <time>2026-05-15T10:31:00+02:00</time>
      </trkpt>
      <trkpt lat="47.19239" lon="5.38401">
        <ele>187</ele>
        <time>2026-05-15T10:31:01+02:00</time>
      </trkpt>
      <trkpt lat="47.19236" lon="5.38406">
        <ele>187</ele>
        <time>2026-05-15T10:31:02+02:00</time>
      </trkpt>
      <trkpt lat="47.19233" lon="5.3841">
        <ele>187</ele>
        <time>2026-05-15T10:31:03+02:00</time>
      </trkpt>
      <trkpt lat="47.19229" lon="5.38413">
        <ele>187</ele>
        <time>2026-05-15T10:31:04+02:00</time>
      </trkpt>
      <trkpt lat="47.19225" lon="5.38416">
        <ele>187.10059</ele>
        <time>2026-05-15T10:31:05+02:00</time>
      </trkpt>
      <trkpt lat="47.19221" lon="5.38418">
        <ele>187</ele>
        <time>2026-05-15T10:31:06+02:00</time>
      </trkpt>
      <trkpt lat="47.19217" lon="5.3842">
        <ele>187</ele>
        <time>2026-05-15T10:31:07+02:00</time>
      </trkpt>
      <trkpt lat="47.19213" lon="5.38422">
        <ele>187</ele>
        <time>2026-05-15T10:31:08+02:00</time>
      </trkpt>
      <trkpt lat="47.19208" lon="5.38424">
        <ele>187</ele>
        <time>2026-05-15T10:31:09+02:00</time>
      </trkpt>
      <trkpt lat="47.19204" lon="5.38425">
        <ele>187</ele>
        <time>2026-05-15T10:31:10+02:00</time>
      </trkpt>
      <trkpt lat="47.192" lon="5.38426">
        <ele>187</ele>
        <time>2026-05-15T10:31:11+02:00</time>
      </trkpt>
      <trkpt lat="47.19195" lon="5.38426">
        <ele>187</ele>
        <time>2026-05-15T10:31:12+02:00</time>
      </trkpt>
      <trkpt lat="47.1919" lon="5.38427">
        <ele>187</ele>
        <time>2026-05-15T10:31:13+02:00</time>
      </trkpt>
      <trkpt lat="47.19186" lon="5.38427">
        <ele>187</ele>
        <time>2026-05-15T10:31:14+02:00</time>
      </trkpt>
      <trkpt lat="47.19181" lon="5.38428">
        <ele>186.90039</ele>
        <time>2026-05-15T10:31:15+02:00</time>
      </trkpt>
      <trkpt lat="47.19176" lon="5.38429">
        <ele>186.90039</ele>
        <time>2026-05-15T10:31:16+02:00</time>
      </trkpt>
      <trkpt lat="47.19172" lon="5.3843">
        <ele>186.90039</ele>
        <time>2026-05-15T10:31:17+02:00</time>
      </trkpt>
      <trkpt lat="47.19167" lon="5.38431">
        <ele>186.7998</ele>
        <time>2026-05-15T10:31:18+02:00</time>
      </trkpt>
      <trkpt lat="47.19163" lon="5.38433">
        <ele>186.7002</ele>
        <time>2026-05-15T10:31:19+02:00</time>
      </trkpt>
      <trkpt lat="47.19159" lon="5.38436">
        <ele>186.7002</ele>
        <time>2026-05-15T10:31:20+02:00</time>
      </trkpt>
      <trkpt lat="47.19156" lon="5.38439">
        <ele>186.60059</ele>
        <time>2026-05-15T10:31:21+02:00</time>
      </trkpt>
      <trkpt lat="47.19153" lon="5.38443">
        <ele>186.60059</ele>
        <time>2026-05-15T10:31:22+02:00</time>
      </trkpt>
      <trkpt lat="47.1915" lon="5.38448">
        <ele>186.5</ele>
        <time>2026-05-15T10:31:23+02:00</time>
      </trkpt>
      <trkpt lat="47.19148" lon="5.38454">
        <ele>186.40039</ele>
        <time>2026-05-15T10:31:24+02:00</time>
      </trkpt>
      <trkpt lat="47.19147" lon="5.3846">
        <ele>186.2998</ele>
        <time>2026-05-15T10:31:25+02:00</time>
      </trkpt>
      <trkpt lat="47.19146" lon="5.38466">
        <ele>186.2002</ele>
        <time>2026-05-15T10:31:26+02:00</time>
      </trkpt>
      <trkpt lat="47.19145" lon="5.38472">
        <ele>186.2002</ele>
        <time>2026-05-15T10:31:27+02:00</time>
      </trkpt>
      <trkpt lat="47.19143" lon="5.38479">
        <ele>186.10059</ele>
        <time>2026-05-15T10:31:28+02:00</time>
      </trkpt>
      <trkpt lat="47.19142" lon="5.38485">
        <ele>186</ele>
        <time>2026-05-15T10:31:29+02:00</time>
      </trkpt>
      <trkpt lat="47.19141" lon="5.38492">
        <ele>186</ele>
        <time>2026-05-15T10:31:30+02:00</time>
      </trkpt>
      <trkpt lat="47.1914" lon="5.38495">
        <ele>185.90039</ele>
        <time>2026-05-15T10:31:31+02:00</time>
      </trkpt>
      <trkpt lat="47.19138" lon="5.38505">
        <ele>185.90039</ele>
        <time>2026-05-15T10:31:32+02:00</time>
      </trkpt>
      <trkpt lat="47.19137" lon="5.38512">
        <ele>185.90039</ele>
        <time>2026-05-15T10:31:33+02:00</time>
      </trkpt>
      <trkpt lat="47.19136" lon="5.38518">
        <ele>185.90039</ele>
        <time>2026-05-15T10:31:34+02:00</time>
      </trkpt>
      <trkpt lat="47.19134" lon="5.38525">
        <ele>185.7998</ele>
        <time>2026-05-15T10:31:35+02:00</time>
      </trkpt>
      <trkpt lat="47.19133" lon="5.38533">
        <ele>185.7998</ele>
        <time>2026-05-15T10:31:36+02:00</time>
      </trkpt>
      <trkpt lat="47.19132" lon="5.3854">
        <ele>185.7998</ele>
        <time>2026-05-15T10:31:37+02:00</time>
      </trkpt>
      <trkpt lat="47.19131" lon="5.38547">
        <ele>185.7998</ele>
        <time>2026-05-15T10:31:38+02:00</time>
      </trkpt>
      <trkpt lat="47.1913" lon="5.38555">
        <ele>185.7998</ele>
        <time>2026-05-15T10:31:39+02:00</time>
      </trkpt>
      <trkpt lat="47.19129" lon="5.38563">
        <ele>185.7998</ele>
        <time>2026-05-15T10:31:40+02:00</time>
      </trkpt>
      <trkpt lat="47.19128" lon="5.38567">
        <ele>185.7998</ele>
        <time>2026-05-15T10:31:41+02:00</time>
      </trkpt>
      <trkpt lat="47.19126" lon="5.38578">
        <ele>185.7998</ele>
        <time>2026-05-15T10:31:42+02:00</time>
      </trkpt>
      <trkpt lat="47.19125" lon="5.38586">
        <ele>185.90039</ele>
        <time>2026-05-15T10:31:43+02:00</time>
      </trkpt>
      <trkpt lat="47.19125" lon="5.38593">
        <ele>186.2002</ele>
        <time>2026-05-15T10:31:44+02:00</time>
      </trkpt>
      <trkpt lat="47.19124" lon="5.38601">
        <ele>186.5</ele>
        <time>2026-05-15T10:31:45+02:00</time>
      </trkpt>
      <trkpt lat="47.19124" lon="5.38608">
        <ele>186.7002</ele>
        <time>2026-05-15T10:31:46+02:00</time>
      </trkpt>
      <trkpt lat="47.19124" lon="5.38616">
        <ele>187</ele>
        <time>2026-05-15T10:31:47+02:00</time>
      </trkpt>
      <trkpt lat="47.19124" lon="5.38623">
        <ele>187.2002</ele>
        <time>2026-05-15T10:31:48+02:00</time>
      </trkpt>
      <trkpt lat="47.19124" lon="5.38631">
        <ele>187.2998</ele>
        <time>2026-05-15T10:31:49+02:00</time>
      </trkpt>
      <trkpt lat="47.19124" lon="5.38638">
        <ele>187.2998</ele>
        <time>2026-05-15T10:31:50+02:00</time>
      </trkpt>
      <trkpt lat="47.19124" lon="5.38646">
        <ele>187.5</ele>
        <time>2026-05-15T10:31:51+02:00</time>
      </trkpt>
      <trkpt lat="47.19124" lon="5.38653">
        <ele>187.60059</ele>
        <time>2026-05-15T10:31:52+02:00</time>
      </trkpt>
      <trkpt lat="47.19125" lon="5.38661">
        <ele>187.60059</ele>
        <time>2026-05-15T10:31:53+02:00</time>
      </trkpt>
      <trkpt lat="47.19125" lon="5.38668">
        <ele>187.7002</ele>
        <time>2026-05-15T10:31:54+02:00</time>
      </trkpt>
      <trkpt lat="47.19125" lon="5.38675">
        <ele>187.7002</ele>
        <time>2026-05-15T10:31:55+02:00</time>
      </trkpt>
      <trkpt lat="47.19125" lon="5.38682">
        <ele>187.7002</ele>
        <time>2026-05-15T10:31:56+02:00</time>
      </trkpt>
      <trkpt lat="47.19126" lon="5.38689">
        <ele>187.7002</ele>
        <time>2026-05-15T10:31:57+02:00</time>
      </trkpt>
      <trkpt lat="47.19126" lon="5.38696">
        <ele>187.7002</ele>
        <time>2026-05-15T10:31:58+02:00</time>
      </trkpt>
      <trkpt lat="47.19127" lon="5.38702">
        <ele>187.7002</ele>
        <time>2026-05-15T10:31:59+02:00</time>
      </trkpt>
      <trkpt lat="47.19127" lon="5.38709">
        <ele>187.7002</ele>
        <time>2026-05-15T10:32:00+02:00</time>
      </trkpt>
      <trkpt lat="47.19127" lon="5.38716">
        <ele>187.7002</ele>
        <time>2026-05-15T10:32:01+02:00</time>
      </trkpt>
      <trkpt lat="47.19127" lon="5.38722">
        <ele>187.7002</ele>
        <time>2026-05-15T10:32:02+02:00</time>
      </trkpt>
      <trkpt lat="47.19128" lon="5.38728">
        <ele>187.7002</ele>
        <time>2026-05-15T10:32:03+02:00</time>
      </trkpt>
      <trkpt lat="47.19128" lon="5.38734">
        <ele>187.7002</ele>
        <time>2026-05-15T10:32:04+02:00</time>
      </trkpt>
      <trkpt lat="47.19128" lon="5.38738">
        <ele>187.7002</ele>
        <time>2026-05-15T10:32:05+02:00</time>
      </trkpt>
      <trkpt lat="47.19127" lon="5.38742">
        <ele>187.7002</ele>
        <time>2026-05-15T10:32:06+02:00</time>
      </trkpt>
      <trkpt lat="47.19127" lon="5.38746">
        <ele>187.7998</ele>
        <time>2026-05-15T10:32:07+02:00</time>
      </trkpt>
      <trkpt lat="47.19127" lon="5.38751">
        <ele>187.7998</ele>
        <time>2026-05-15T10:32:08+02:00</time>
      </trkpt>
      <trkpt lat="47.19126" lon="5.38756">
        <ele>187.7998</ele>
        <time>2026-05-15T10:32:09+02:00</time>
      </trkpt>
      <trkpt lat="47.19126" lon="5.38759">
        <ele>187.7998</ele>
        <time>2026-05-15T10:32:10+02:00</time>
      </trkpt>
      <trkpt lat="47.19125" lon="5.38762">
        <ele>187.90039</ele>
        <time>2026-05-15T10:32:11+02:00</time>
      </trkpt>
      <trkpt lat="47.19124" lon="5.38765">
        <ele>187.90039</ele>
        <time>2026-05-15T10:32:12+02:00</time>
      </trkpt>
      <trkpt lat="47.19123" lon="5.38769">
        <ele>187.90039</ele>
        <time>2026-05-15T10:32:13+02:00</time>
      </trkpt>
      <trkpt lat="47.19121" lon="5.38773">
        <ele>187.7998</ele>
        <time>2026-05-15T10:32:14+02:00</time>
      </trkpt>
      <trkpt lat="47.19119" lon="5.38778">
        <ele>187.7998</ele>
        <time>2026-05-15T10:32:15+02:00</time>
      </trkpt>
      <trkpt lat="47.19118" lon="5.38783">
        <ele>187.7998</ele>
        <time>2026-05-15T10:32:16+02:00</time>
      </trkpt>
      <trkpt lat="47.19118" lon="5.38789">
        <ele>187.90039</ele>
        <time>2026-05-15T10:32:17+02:00</time>
      </trkpt>
      <trkpt lat="47.19119" lon="5.38795">
        <ele>187.90039</ele>
        <time>2026-05-15T10:32:18+02:00</time>
      </trkpt>
      <trkpt lat="47.19122" lon="5.388">
        <ele>187.90039</ele>
        <time>2026-05-15T10:32:19+02:00</time>
      </trkpt>
      <trkpt lat="47.19125" lon="5.38805">
        <ele>188.10059</ele>
        <time>2026-05-15T10:32:20+02:00</time>
      </trkpt>
      <trkpt lat="47.19127" lon="5.3881">
        <ele>188.10059</ele>
        <time>2026-05-15T10:32:21+02:00</time>
      </trkpt>
      <trkpt lat="47.1913" lon="5.38816">
        <ele>188.2002</ele>
        <time>2026-05-15T10:32:22+02:00</time>
      </trkpt>
      <trkpt lat="47.19132" lon="5.38823">
        <ele>188.2002</ele>
        <time>2026-05-15T10:32:23+02:00</time>
      </trkpt>
      <trkpt lat="47.19134" lon="5.38829">
        <ele>188.2002</ele>
        <time>2026-05-15T10:32:24+02:00</time>
      </trkpt>
      <trkpt lat="47.19136" lon="5.38836">
        <ele>188.40039</ele>
        <time>2026-05-15T10:32:25+02:00</time>
      </trkpt>
      <trkpt lat="47.19138" lon="5.38843">
        <ele>188.2998</ele>
        <time>2026-05-15T10:32:26+02:00</time>
      </trkpt>
      <trkpt lat="47.19139" lon="5.38849">
        <ele>188.2002</ele>
        <time>2026-05-15T10:32:27+02:00</time>
      </trkpt>
      <trkpt lat="47.19141" lon="5.38855">
        <ele>188.2002</ele>
        <time>2026-05-15T10:32:28+02:00</time>
      </trkpt>
      <trkpt lat="47.19142" lon="5.38859">
        <ele>188.2002</ele>
        <time>2026-05-15T10:32:29+02:00</time>
      </trkpt>
      <trkpt lat="47.19144" lon="5.38863">
        <ele>188.10059</ele>
        <time>2026-05-15T10:32:30+02:00</time>
      </trkpt>
      <trkpt lat="47.19145" lon="5.38866">
        <ele>188.10059</ele>
        <time>2026-05-15T10:32:31+02:00</time>
      </trkpt>
      <trkpt lat="47.19145" lon="5.38868">
        <ele>188.10059</ele>
        <time>2026-05-15T10:32:32+02:00</time>
      </trkpt>
      <trkpt lat="47.19146" lon="5.3887">
        <ele>188.10059</ele>
        <time>2026-05-15T10:32:33+02:00</time>
      </trkpt>
      <trkpt lat="47.19146" lon="5.3887">
        <ele>188.10059</ele>
        <time>2026-05-15T10:32:34+02:00</time>
      </trkpt>
      <trkpt lat="47.19146" lon="5.3887">
        <ele>188.10059</ele>
        <time>2026-05-15T10:32:35+02:00</time>
      </trkpt>
      <trkpt lat="47.19146" lon="5.3887">
        <ele>188.10059</ele>
        <time>2026-05-15T10:32:36+02:00</time>
      </trkpt>
      <trkpt lat="47.19146" lon="5.3887">
        <ele>188.10059</ele>
        <time>2026-05-15T10:32:37+02:00</time>
      </trkpt>
      <trkpt lat="47.19158" lon="5.38878">
        <ele>188.40039</ele>
        <time>2026-05-15T10:32:55+02:00</time>
      </trkpt>
      <trkpt lat="47.19161" lon="5.3888">
        <ele>188.2002</ele>
        <time>2026-05-15T10:32:56+02:00</time>
      </trkpt>
      <trkpt lat="47.19164" lon="5.38882">
        <ele>188.40039</ele>
        <time>2026-05-15T10:32:57+02:00</time>
      </trkpt>
      <trkpt lat="47.19168" lon="5.38885">
        <ele>188.40039</ele>
        <time>2026-05-15T10:32:58+02:00</time>
      </trkpt>
      <trkpt lat="47.19171" lon="5.38887">
        <ele>188.5</ele>
        <time>2026-05-15T10:32:59+02:00</time>
      </trkpt>
      <trkpt lat="47.19175" lon="5.38889">
        <ele>188.40039</ele>
        <time>2026-05-15T10:33:00+02:00</time>
      </trkpt>
      <trkpt lat="47.19178" lon="5.38891">
        <ele>188.5</ele>
        <time>2026-05-15T10:33:01+02:00</time>
      </trkpt>
      <trkpt lat="47.19182" lon="5.38893">
        <ele>188.60059</ele>
        <time>2026-05-15T10:33:02+02:00</time>
      </trkpt>
      <trkpt lat="47.19186" lon="5.38895">
        <ele>188.60059</ele>
        <time>2026-05-15T10:33:03+02:00</time>
      </trkpt>
      <trkpt lat="47.1919" lon="5.38897">
        <ele>188.60059</ele>
        <time>2026-05-15T10:33:04+02:00</time>
      </trkpt>
      <trkpt lat="47.19193" lon="5.38899">
        <ele>188.60059</ele>
        <time>2026-05-15T10:33:05+02:00</time>
      </trkpt>
      <trkpt lat="47.19197" lon="5.38902">
        <ele>188.7002</ele>
        <time>2026-05-15T10:33:06+02:00</time>
      </trkpt>
      <trkpt lat="47.19201" lon="5.38904">
        <ele>188.7998</ele>
        <time>2026-05-15T10:33:07+02:00</time>
      </trkpt>
      <trkpt lat="47.19205" lon="5.38906">
        <ele>188.7998</ele>
        <time>2026-05-15T10:33:08+02:00</time>
      </trkpt>
      <trkpt lat="47.19207" lon="5.38907">
        <ele>188.7998</ele>
        <time>2026-05-15T10:33:09+02:00</time>
      </trkpt>
      <trkpt lat="47.19212" lon="5.38911">
        <ele>188.7998</ele>
        <time>2026-05-15T10:33:10+02:00</time>
      </trkpt>
      <trkpt lat="47.19217" lon="5.38913">
        <ele>188.90039</ele>
        <time>2026-05-15T10:33:11+02:00</time>
      </trkpt>
      <trkpt lat="47.1922" lon="5.38915">
        <ele>188.7998</ele>
        <time>2026-05-15T10:33:12+02:00</time>
      </trkpt>
      <trkpt lat="47.19224" lon="5.38918">
        <ele>188.90039</ele>
        <time>2026-05-15T10:33:13+02:00</time>
      </trkpt>
      <trkpt lat="47.19227" lon="5.3892">
        <ele>188.90039</ele>
        <time>2026-05-15T10:33:14+02:00</time>
      </trkpt>
      <trkpt lat="47.19231" lon="5.38923">
        <ele>188.7998</ele>
        <time>2026-05-15T10:33:15+02:00</time>
      </trkpt>
      <trkpt lat="47.19233" lon="5.38926">
        <ele>188.7998</ele>
        <time>2026-05-15T10:33:16+02:00</time>
      </trkpt>
      <trkpt lat="47.19236" lon="5.38929">
        <ele>188.90039</ele>
        <time>2026-05-15T10:33:17+02:00</time>
      </trkpt>
      <trkpt lat="47.19238" lon="5.38932">
        <ele>188.7998</ele>
        <time>2026-05-15T10:33:18+02:00</time>
      </trkpt>
      <trkpt lat="47.19239" lon="5.38935">
        <ele>188.7998</ele>
        <time>2026-05-15T10:33:19+02:00</time>
      </trkpt>
      <trkpt lat="47.1924" lon="5.38937">
        <ele>188.7998</ele>
        <time>2026-05-15T10:33:20+02:00</time>
      </trkpt>
      <trkpt lat="47.1924" lon="5.38939">
        <ele>188.7998</ele>
        <time>2026-05-15T10:33:21+02:00</time>
      </trkpt>
      <trkpt lat="47.19241" lon="5.38942">
        <ele>188.7002</ele>
        <time>2026-05-15T10:33:22+02:00</time>
      </trkpt>
      <trkpt lat="47.19241" lon="5.38945">
        <ele>188.7002</ele>
        <time>2026-05-15T10:33:23+02:00</time>
      </trkpt>
      <trkpt lat="47.19242" lon="5.3895">
        <ele>188.7002</ele>
        <time>2026-05-15T10:33:24+02:00</time>
      </trkpt>
      <trkpt lat="47.19243" lon="5.38953">
        <ele>188.7002</ele>
        <time>2026-05-15T10:33:25+02:00</time>
      </trkpt>
      <trkpt lat="47.19245" lon="5.38956">
        <ele>188.7002</ele>
        <time>2026-05-15T10:33:26+02:00</time>
      </trkpt>
      <trkpt lat="47.19247" lon="5.3896">
        <ele>188.60059</ele>
        <time>2026-05-15T10:33:27+02:00</time>
      </trkpt>
      <trkpt lat="47.1925" lon="5.38962">
        <ele>188.60059</ele>
        <time>2026-05-15T10:33:28+02:00</time>
      </trkpt>
      <trkpt lat="47.19255" lon="5.38963">
        <ele>188.7002</ele>
        <time>2026-05-15T10:33:29+02:00</time>
      </trkpt>
      <trkpt lat="47.19259" lon="5.38962">
        <ele>188.7002</ele>
        <time>2026-05-15T10:33:30+02:00</time>
      </trkpt>
      <trkpt lat="47.19263" lon="5.3896">
        <ele>188.7002</ele>
        <time>2026-05-15T10:33:31+02:00</time>
      </trkpt>
      <trkpt lat="47.19267" lon="5.38955">
        <ele>188.7998</ele>
        <time>2026-05-15T10:33:32+02:00</time>
      </trkpt>
      <trkpt lat="47.19269" lon="5.3895">
        <ele>188.7998</ele>
        <time>2026-05-15T10:33:33+02:00</time>
      </trkpt>
      <trkpt lat="47.1927" lon="5.38943">
        <ele>188.90039</ele>
        <time>2026-05-15T10:33:34+02:00</time>
      </trkpt>
      <trkpt lat="47.19269" lon="5.38937">
        <ele>189</ele>
        <time>2026-05-15T10:33:35+02:00</time>
      </trkpt>
      <trkpt lat="47.19267" lon="5.38931">
        <ele>188.90039</ele>
        <time>2026-05-15T10:33:36+02:00</time>
      </trkpt>
      <trkpt lat="47.19265" lon="5.38926">
        <ele>189</ele>
        <time>2026-05-15T10:33:37+02:00</time>
      </trkpt>
      <trkpt lat="47.19263" lon="5.38921">
        <ele>189.10059</ele>
        <time>2026-05-15T10:33:38+02:00</time>
      </trkpt>
      <trkpt lat="47.19262" lon="5.38914">
        <ele>189.10059</ele>
        <time>2026-05-15T10:33:39+02:00</time>
      </trkpt>
      <trkpt lat="47.19262" lon="5.38908">
        <ele>189.2002</ele>
        <time>2026-05-15T10:33:40+02:00</time>
      </trkpt>
      <trkpt lat="47.19263" lon="5.38901">
        <ele>189.2998</ele>
        <time>2026-05-15T10:33:41+02:00</time>
      </trkpt>
      <trkpt lat="47.19264" lon="5.38895">
        <ele>189.40039</ele>
        <time>2026-05-15T10:33:42+02:00</time>
      </trkpt>
      <trkpt lat="47.19264" lon="5.38889">
        <ele>189.40039</ele>
        <time>2026-05-15T10:33:43+02:00</time>
      </trkpt>
      <trkpt lat="47.19265" lon="5.38884">
        <ele>189.5</ele>
        <time>2026-05-15T10:33:44+02:00</time>
      </trkpt>
      <trkpt lat="47.19265" lon="5.3888">
        <ele>189.5</ele>
        <time>2026-05-15T10:33:45+02:00</time>
      </trkpt>
      <trkpt lat="47.19266" lon="5.38877">
        <ele>189.60059</ele>
        <time>2026-05-15T10:33:46+02:00</time>
      </trkpt>
      <trkpt lat="47.19266" lon="5.38875">
        <ele>189.60059</ele>
        <time>2026-05-15T10:33:47+02:00</time>
      </trkpt>
      <trkpt lat="47.19267" lon="5.38873">
        <ele>189.60059</ele>
        <time>2026-05-15T10:33:48+02:00</time>
      </trkpt>
      <trkpt lat="47.19267" lon="5.38872">
        <ele>189.60059</ele>
        <time>2026-05-15T10:33:49+02:00</time>
      </trkpt>
      <trkpt lat="47.19267" lon="5.38872">
        <ele>189.60059</ele>
        <time>2026-05-15T10:33:50+02:00</time>
      </trkpt>
      <trkpt lat="47.19268" lon="5.38872">
        <ele>189.60059</ele>
        <time>2026-05-15T10:33:51+02:00</time>
      </trkpt>
      <trkpt lat="47.19268" lon="5.38872">
        <ele>189.60059</ele>
        <time>2026-05-15T10:33:52+02:00</time>
      </trkpt>
      <trkpt lat="47.19268" lon="5.38872">
        <ele>189.60059</ele>
        <time>2026-05-15T11:07:13+02:00</time>
      </trkpt>
      <trkpt lat="47.19268" lon="5.38872">
        <ele>189.60059</ele>
        <time>2026-05-15T11:07:14+02:00</time>
      </trkpt>
      <trkpt lat="47.19268" lon="5.38872">
        <ele>189.60059</ele>
        <time>2026-05-15T11:07:15+02:00</time>
      </trkpt>
      <trkpt lat="47.19268" lon="5.38872">
        <ele>189.60059</ele>
        <time>2026-05-15T11:07:16+02:00</time>
      </trkpt>
      <trkpt lat="47.19268" lon="5.38872">
        <ele>189.60059</ele>
        <time>2026-05-15T11:07:17+02:00</time>
      </trkpt>
      <trkpt lat="47.19268" lon="5.38872">
        <ele>189.60059</ele>
        <time>2026-05-15T11:07:18+02:00</time>
      </trkpt>
      <trkpt lat="47.19268" lon="5.38872">
        <ele>189.60059</ele>
        <time>2026-05-15T11:07:19+02:00</time>
      </trkpt>
      <trkpt lat="47.19268" lon="5.38872">
        <ele>189.60059</ele>
        <time>2026-05-15T11:07:20+02:00</time>
      </trkpt>
      <trkpt lat="47.19268" lon="5.38872">
        <ele>189.60059</ele>
        <time>2026-05-15T11:07:21+02:00</time>
      </trkpt>
      <trkpt lat="47.19268" lon="5.38872">
        <ele>189.60059</ele>
        <time>2026-05-15T11:07:22+02:00</time>
      </trkpt>
      <trkpt lat="47.19268" lon="5.38872">
        <ele>189.60059</ele>
        <time>2026-05-15T11:07:23+02:00</time>
      </trkpt>
      <trkpt lat="47.19268" lon="5.38872">
        <ele>189.60059</ele>
        <time>2026-05-15T11:07:24+02:00</time>
      </trkpt>
      <trkpt lat="47.19268" lon="5.38872">
        <ele>189.60059</ele>
        <time>2026-05-15T11:07:25+02:00</time>
      </trkpt>
      <trkpt lat="47.19268" lon="5.38872">
        <ele>189.60059</ele>
        <time>2026-05-15T11:07:26+02:00</time>
      </trkpt>
      <trkpt lat="47.19268" lon="5.38872">
        <ele>189.60059</ele>
        <time>2026-05-15T11:07:27+02:00</time>
      </trkpt>
      <trkpt lat="47.19268" lon="5.38872">
        <ele>189.60059</ele>
        <time>2026-05-15T11:07:28+02:00</time>
      </trkpt>
      <trkpt lat="47.19268" lon="5.38872">
        <ele>189.60059</ele>
        <time>2026-05-15T11:07:29+02:00</time>
      </trkpt>
      <trkpt lat="47.19268" lon="5.38872">
        <ele>189.60059</ele>
        <time>2026-05-15T11:07:30+02:00</time>
      </trkpt>
      <trkpt lat="47.19268" lon="5.38872">
        <ele>189.60059</ele>
        <time>2026-05-15T11:07:31+02:00</time>
      </trkpt>
      <trkpt lat="47.19268" lon="5.38872">
        <ele>189.60059</ele>
        <time>2026-05-15T11:07:32+02:00</time>
      </trkpt>
      <trkpt lat="47.19268" lon="5.38872">
        <ele>189.60059</ele>
        <time>2026-05-15T11:07:33+02:00</time>
      </trkpt>
      <trkpt lat="47.19268" lon="5.38872">
        <ele>189.60059</ele>
        <time>2026-05-15T11:07:34+02:00</time>
      </trkpt>
      <trkpt lat="47.19268" lon="5.38872">
        <ele>189.60059</ele>
        <time>2026-05-15T11:07:35+02:00</time>
      </trkpt>
      <trkpt lat="47.19268" lon="5.38872">
        <ele>189.60059</ele>
        <time>2026-05-15T11:07:36+02:00</time>
      </trkpt>
      <trkpt lat="47.19268" lon="5.38872">
        <ele>189.60059</ele>
        <time>2026-05-15T11:07:37+02:00</time>
      </trkpt>
      <trkpt lat="47.19268" lon="5.38872">
        <ele>189.60059</ele>
        <time>2026-05-15T11:07:38+02:00</time>
      </trkpt>
      <trkpt lat="47.19268" lon="5.38872">
        <ele>189.60059</ele>
        <time>2026-05-15T11:07:39+02:00</time>
      </trkpt>
      <trkpt lat="47.19268" lon="5.38872">
        <ele>189.60059</ele>
        <time>2026-05-15T11:07:40+02:00</time>
      </trkpt>
      <trkpt lat="47.19268" lon="5.38872">
        <ele>189.60059</ele>
        <time>2026-05-15T11:07:41+02:00</time>
      </trkpt>
      <trkpt lat="47.19268" lon="5.38872">
        <ele>189.60059</ele>
        <time>2026-05-15T11:07:42+02:00</time>
      </trkpt>
      <trkpt lat="47.19268" lon="5.38872">
        <ele>189.60059</ele>
        <time>2026-05-15T11:07:43+02:00</time>
      </trkpt>
      <trkpt lat="47.19268" lon="5.38872">
        <ele>189.60059</ele>
        <time>2026-05-15T11:07:44+02:00</time>
      </trkpt>
      <trkpt lat="47.19268" lon="5.38872">
        <ele>189.60059</ele>
        <time>2026-05-15T11:07:45+02:00</time>
      </trkpt>
      <trkpt lat="47.19268" lon="5.38872">
        <ele>189.60059</ele>
        <time>2026-05-15T11:07:46+02:00</time>
      </trkpt>
      <trkpt lat="47.19268" lon="5.38872">
        <ele>189.60059</ele>
        <time>2026-05-15T11:07:47+02:00</time>
      </trkpt>
      <trkpt lat="47.19268" lon="5.38872">
        <ele>189.60059</ele>
        <time>2026-05-15T11:07:48+02:00</time>
      </trkpt>
      <trkpt lat="47.19268" lon="5.38872">
        <ele>189.60059</ele>
        <time>2026-05-15T11:07:49+02:00</time>
      </trkpt>
      <trkpt lat="47.19268" lon="5.38872">
        <ele>189.60059</ele>
        <time>2026-05-15T11:07:50+02:00</time>
      </trkpt>
      <trkpt lat="47.19268" lon="5.38872">
        <ele>189.60059</ele>
        <time>2026-05-15T11:07:51+02:00</time>
      </trkpt>
      <trkpt lat="47.19268" lon="5.38872">
        <ele>189.60059</ele>
        <time>2026-05-15T11:07:52+02:00</time>
      </trkpt>
      <trkpt lat="47.19268" lon="5.38872">
        <ele>189.60059</ele>
        <time>2026-05-15T11:07:53+02:00</time>
      </trkpt>
      <trkpt lat="47.19268" lon="5.38872">
        <ele>189.60059</ele>
        <time>2026-05-15T11:07:54+02:00</time>
      </trkpt>
      <trkpt lat="47.19268" lon="5.38872">
        <ele>189.60059</ele>
        <time>2026-05-15T11:07:55+02:00</time>
      </trkpt>
      <trkpt lat="47.19268" lon="5.38872">
        <ele>189.60059</ele>
        <time>2026-05-15T11:07:56+02:00</time>
      </trkpt>
      <trkpt lat="47.19268" lon="5.38872">
        <ele>189.60059</ele>
        <time>2026-05-15T11:07:57+02:00</time>
      </trkpt>
      <trkpt lat="47.19268" lon="5.38872">
        <ele>189.60059</ele>
        <time>2026-05-15T11:07:58+02:00</time>
      </trkpt>
      <trkpt lat="47.19268" lon="5.38872">
        <ele>189.60059</ele>
        <time>2026-05-15T11:07:59+02:00</time>
      </trkpt>
      <trkpt lat="47.19268" lon="5.38872">
        <ele>189.60059</ele>
        <time>2026-05-15T11:08:00+02:00</time>
      </trkpt>
      <trkpt lat="47.19268" lon="5.38872">
        <ele>189.60059</ele>
        <time>2026-05-15T11:08:01+02:00</time>
      </trkpt>
      <trkpt lat="47.19268" lon="5.38872">
        <ele>189.60059</ele>
        <time>2026-05-15T11:08:02+02:00</time>
      </trkpt>
      <trkpt lat="47.19268" lon="5.38872">
        <ele>189.60059</ele>
        <time>2026-05-15T11:08:03+02:00</time>
      </trkpt>
      <trkpt lat="47.19268" lon="5.38872">
        <ele>189.60059</ele>
        <time>2026-05-15T11:08:04+02:00</time>
      </trkpt>
      <trkpt lat="47.19268" lon="5.38872">
        <ele>189.60059</ele>
        <time>2026-05-15T11:08:05+02:00</time>
      </trkpt>
      <trkpt lat="47.19268" lon="5.38872">
        <ele>189.60059</ele>
        <time>2026-05-15T11:08:06+02:00</time>
      </trkpt>
      <trkpt lat="47.19268" lon="5.38872">
        <ele>189.60059</ele>
        <time>2026-05-15T11:08:07+02:00</time>
      </trkpt>
      <trkpt lat="47.19268" lon="5.38872">
        <ele>189.60059</ele>
        <time>2026-05-15T11:08:08+02:00</time>
      </trkpt>
      <trkpt lat="47.19268" lon="5.38872">
        <ele>189.60059</ele>
        <time>2026-05-15T11:08:09+02:00</time>
      </trkpt>
      <trkpt lat="47.19268" lon="5.38872">
        <ele>189.60059</ele>
        <time>2026-05-15T11:08:10+02:00</time>
      </trkpt>
      <trkpt lat="47.19268" lon="5.38872">
        <ele>189.60059</ele>
        <time>2026-05-15T11:08:11+02:00</time>
      </trkpt>
      <trkpt lat="47.19268" lon="5.38872">
        <ele>189.60059</ele>
        <time>2026-05-15T11:08:12+02:00</time>
      </trkpt>
      <trkpt lat="47.19268" lon="5.38872">
        <ele>189.60059</ele>
        <time>2026-05-15T11:08:13+02:00</time>
      </trkpt>
      <trkpt lat="47.19268" lon="5.38872">
        <ele>189.60059</ele>
        <time>2026-05-15T11:08:14+02:00</time>
      </trkpt>
      <trkpt lat="47.19269" lon="5.3888">
        <ele>189.5</ele>
        <time>2026-05-15T11:08:15+02:00</time>
      </trkpt>
      <trkpt lat="47.1927" lon="5.38877">
        <ele>189.60059</ele>
        <time>2026-05-15T11:08:16+02:00</time>
      </trkpt>
      <trkpt lat="47.1927" lon="5.38875">
        <ele>189.60059</ele>
        <time>2026-05-15T11:08:17+02:00</time>
      </trkpt>
      <trkpt lat="47.1927" lon="5.38875">
        <ele>189.60059</ele>
        <time>2026-05-15T11:08:18+02:00</time>
      </trkpt>
      <trkpt lat="47.19269" lon="5.38874">
        <ele>189.60059</ele>
        <time>2026-05-15T11:08:19+02:00</time>
      </trkpt>
      <trkpt lat="47.19269" lon="5.38874">
        <ele>189.60059</ele>
        <time>2026-05-15T11:08:20+02:00</time>
      </trkpt>
      <trkpt lat="47.19269" lon="5.38874">
        <ele>189.60059</ele>
        <time>2026-05-15T11:08:21+02:00</time>
      </trkpt>
      <trkpt lat="47.19269" lon="5.38859">
        <ele>189.7998</ele>
        <time>2026-05-15T11:08:25+02:00</time>
      </trkpt>
      <trkpt lat="47.19269" lon="5.38855">
        <ele>189.7998</ele>
        <time>2026-05-15T11:08:26+02:00</time>
      </trkpt>
      <trkpt lat="47.1927" lon="5.38851">
        <ele>189.90039</ele>
        <time>2026-05-15T11:08:27+02:00</time>
      </trkpt>
      <trkpt lat="47.1927" lon="5.38851">
        <ele>189.90039</ele>
        <time>2026-05-15T11:08:28+02:00</time>
      </trkpt>
      <trkpt lat="47.19271" lon="5.38844">
        <ele>190</ele>
        <time>2026-05-15T11:08:29+02:00</time>
      </trkpt>
      <trkpt lat="47.19272" lon="5.38839">
        <ele>190</ele>
        <time>2026-05-15T11:08:30+02:00</time>
      </trkpt>
      <trkpt lat="47.19272" lon="5.38835">
        <ele>190.10059</ele>
        <time>2026-05-15T11:08:31+02:00</time>
      </trkpt>
      <trkpt lat="47.19273" lon="5.38831">
        <ele>190.10059</ele>
        <time>2026-05-15T11:08:32+02:00</time>
      </trkpt>
      <trkpt lat="47.19274" lon="5.38824">
        <ele>190.2998</ele>
        <time>2026-05-15T11:08:33+02:00</time>
      </trkpt>
      <trkpt lat="47.19275" lon="5.38822">
        <ele>190.2998</ele>
        <time>2026-05-15T11:08:34+02:00</time>
      </trkpt>
      <trkpt lat="47.19275" lon="5.38817">
        <ele>190.40039</ele>
        <time>2026-05-15T11:08:35+02:00</time>
      </trkpt>
      <trkpt lat="47.19276" lon="5.38813">
        <ele>190.40039</ele>
        <time>2026-05-15T11:08:36+02:00</time>
      </trkpt>
      <trkpt lat="47.19278" lon="5.38805">
        <ele>190.60059</ele>
        <time>2026-05-15T11:08:37+02:00</time>
      </trkpt>
      <trkpt lat="47.19278" lon="5.38803">
        <ele>190.60059</ele>
        <time>2026-05-15T11:08:38+02:00</time>
      </trkpt>
      <trkpt lat="47.19278" lon="5.38797">
        <ele>190.7002</ele>
        <time>2026-05-15T11:08:39+02:00</time>
      </trkpt>
      <trkpt lat="47.1928" lon="5.38791">
        <ele>190.7998</ele>
        <time>2026-05-15T11:08:40+02:00</time>
      </trkpt>
      <trkpt lat="47.1928" lon="5.38788">
        <ele>190.7998</ele>
        <time>2026-05-15T11:08:41+02:00</time>
      </trkpt>
      <trkpt lat="47.19282" lon="5.38784">
        <ele>191</ele>
        <time>2026-05-15T11:08:42+02:00</time>
      </trkpt>
      <trkpt lat="47.19283" lon="5.38779">
        <ele>191</ele>
        <time>2026-05-15T11:08:43+02:00</time>
      </trkpt>
      <trkpt lat="47.19286" lon="5.38772">
        <ele>191.2002</ele>
        <time>2026-05-15T11:08:44+02:00</time>
      </trkpt>
      <trkpt lat="47.19286" lon="5.3877">
        <ele>191.2002</ele>
        <time>2026-05-15T11:08:45+02:00</time>
      </trkpt>
      <trkpt lat="47.19287" lon="5.38766">
        <ele>191.2998</ele>
        <time>2026-05-15T11:08:46+02:00</time>
      </trkpt>
      <trkpt lat="47.19289" lon="5.38759">
        <ele>191.40039</ele>
        <time>2026-05-15T11:08:47+02:00</time>
      </trkpt>
      <trkpt lat="47.1929" lon="5.38757">
        <ele>191.40039</ele>
        <time>2026-05-15T11:08:48+02:00</time>
      </trkpt>
      <trkpt lat="47.19291" lon="5.38753">
        <ele>191.40039</ele>
        <time>2026-05-15T11:08:49+02:00</time>
      </trkpt>
      <trkpt lat="47.19293" lon="5.38749">
        <ele>191.60059</ele>
        <time>2026-05-15T11:08:50+02:00</time>
      </trkpt>
      <trkpt lat="47.19294" lon="5.38745">
        <ele>191.60059</ele>
        <time>2026-05-15T11:08:51+02:00</time>
      </trkpt>
      <trkpt lat="47.19296" lon="5.3874">
        <ele>191.60059</ele>
        <time>2026-05-15T11:08:52+02:00</time>
      </trkpt>
      <trkpt lat="47.19297" lon="5.38736">
        <ele>191.60059</ele>
        <time>2026-05-15T11:08:53+02:00</time>
      </trkpt>
      <trkpt lat="47.19299" lon="5.38732">
        <ele>191.7002</ele>
        <time>2026-05-15T11:08:54+02:00</time>
      </trkpt>
      <trkpt lat="47.19299" lon="5.38728">
        <ele>191.7002</ele>
        <time>2026-05-15T11:08:55+02:00</time>
      </trkpt>
      <trkpt lat="47.19301" lon="5.38724">
        <ele>191.7002</ele>
        <time>2026-05-15T11:08:56+02:00</time>
      </trkpt>
      <trkpt lat="47.19302" lon="5.38717">
        <ele>191.7002</ele>
        <time>2026-05-15T11:08:57+02:00</time>
      </trkpt>
      <trkpt lat="47.19303" lon="5.38715">
        <ele>191.7002</ele>
        <time>2026-05-15T11:08:58+02:00</time>
      </trkpt>
      <trkpt lat="47.19304" lon="5.3871">
        <ele>191.7998</ele>
        <time>2026-05-15T11:08:59+02:00</time>
      </trkpt>
      <trkpt lat="47.19306" lon="5.38706">
        <ele>191.7998</ele>
        <time>2026-05-15T11:09:00+02:00</time>
      </trkpt>
      <trkpt lat="47.19308" lon="5.38699">
        <ele>191.7002</ele>
        <time>2026-05-15T11:09:01+02:00</time>
      </trkpt>
      <trkpt lat="47.19309" lon="5.38697">
        <ele>191.7002</ele>
        <time>2026-05-15T11:09:02+02:00</time>
      </trkpt>
      <trkpt lat="47.1931" lon="5.38693">
        <ele>191.7998</ele>
        <time>2026-05-15T11:09:03+02:00</time>
      </trkpt>
      <trkpt lat="47.19311" lon="5.38685">
        <ele>191.7998</ele>
        <time>2026-05-15T11:09:04+02:00</time>
      </trkpt>
      <trkpt lat="47.19312" lon="5.38683">
        <ele>191.7998</ele>
        <time>2026-05-15T11:09:05+02:00</time>
      </trkpt>
      <trkpt lat="47.19313" lon="5.38678">
        <ele>191.7002</ele>
        <time>2026-05-15T11:09:06+02:00</time>
      </trkpt>
      <trkpt lat="47.19315" lon="5.38674">
        <ele>191.7002</ele>
        <time>2026-05-15T11:09:07+02:00</time>
      </trkpt>
      <trkpt lat="47.19315" lon="5.38668">
        <ele>191.60059</ele>
        <time>2026-05-15T11:09:08+02:00</time>
      </trkpt>
      <trkpt lat="47.19316" lon="5.38666">
        <ele>191.7002</ele>
        <time>2026-05-15T11:09:09+02:00</time>
      </trkpt>
      <trkpt lat="47.19317" lon="5.38663">
        <ele>191.5</ele>
        <time>2026-05-15T11:09:10+02:00</time>
      </trkpt>
      <trkpt lat="47.1932" lon="5.38658">
        <ele>191.5</ele>
        <time>2026-05-15T11:09:11+02:00</time>
      </trkpt>
      <trkpt lat="47.19321" lon="5.38656">
        <ele>191.2998</ele>
        <time>2026-05-15T11:09:12+02:00</time>
      </trkpt>
      <trkpt lat="47.19323" lon="5.38652">
        <ele>191.2998</ele>
        <time>2026-05-15T11:09:13+02:00</time>
      </trkpt>
      <trkpt lat="47.19327" lon="5.38647">
        <ele>191.10059</ele>
        <time>2026-05-15T11:09:14+02:00</time>
      </trkpt>
      <trkpt lat="47.1933" lon="5.38641">
        <ele>191.10059</ele>
        <time>2026-05-15T11:09:15+02:00</time>
      </trkpt>
      <trkpt lat="47.19332" lon="5.38638">
        <ele>190.90039</ele>
        <time>2026-05-15T11:09:16+02:00</time>
      </trkpt>
      <trkpt lat="47.19336" lon="5.38629">
        <ele>190.7002</ele>
        <time>2026-05-15T11:09:17+02:00</time>
      </trkpt>
      <trkpt lat="47.19339" lon="5.38623">
        <ele>190.60059</ele>
        <time>2026-05-15T11:09:18+02:00</time>
      </trkpt>
      <trkpt lat="47.19343" lon="5.38615">
        <ele>190.40039</ele>
        <time>2026-05-15T11:09:19+02:00</time>
      </trkpt>
      <trkpt lat="47.19344" lon="5.38612">
        <ele>190.2002</ele>
        <time>2026-05-15T11:09:20+02:00</time>
      </trkpt>
      <trkpt lat="47.19346" lon="5.38607">
        <ele>190.10059</ele>
        <time>2026-05-15T11:09:21+02:00</time>
      </trkpt>
      <trkpt lat="47.19348" lon="5.38603">
        <ele>189.90039</ele>
        <time>2026-05-15T11:09:22+02:00</time>
      </trkpt>
      <trkpt lat="47.19349" lon="5.386">
        <ele>189.90039</ele>
        <time>2026-05-15T11:09:23+02:00</time>
      </trkpt>
      <trkpt lat="47.19352" lon="5.386">
        <ele>189.90039</ele>
        <time>2026-05-15T11:09:24+02:00</time>
      </trkpt>
      <trkpt lat="47.19354" lon="5.38601">
        <ele>189.90039</ele>
        <time>2026-05-15T11:09:25+02:00</time>
      </trkpt>
      <trkpt lat="47.19357" lon="5.38603">
        <ele>189.7998</ele>
        <time>2026-05-15T11:09:26+02:00</time>
      </trkpt>
      <trkpt lat="47.19359" lon="5.38605">
        <ele>190</ele>
        <time>2026-05-15T11:09:27+02:00</time>
      </trkpt>
      <trkpt lat="47.1936" lon="5.38607">
        <ele>190</ele>
        <time>2026-05-15T11:09:28+02:00</time>
      </trkpt>
      <trkpt lat="47.19361" lon="5.38607">
        <ele>190</ele>
        <time>2026-05-15T11:09:29+02:00</time>
      </trkpt>
      <trkpt lat="47.19365" lon="5.38609">
        <ele>189.90039</ele>
        <time>2026-05-15T11:09:30+02:00</time>
      </trkpt>
      <trkpt lat="47.19368" lon="5.38609">
        <ele>189.7002</ele>
        <time>2026-05-15T11:09:31+02:00</time>
      </trkpt>
      <trkpt lat="47.1937" lon="5.3861">
        <ele>189.7002</ele>
        <time>2026-05-15T11:09:32+02:00</time>
      </trkpt>
      <trkpt lat="47.19373" lon="5.38612">
        <ele>189.7002</ele>
        <time>2026-05-15T11:09:33+02:00</time>
      </trkpt>
      <trkpt lat="47.19376" lon="5.38613">
        <ele>189.60059</ele>
        <time>2026-05-15T11:09:34+02:00</time>
      </trkpt>
      <trkpt lat="47.19379" lon="5.38615">
        <ele>189.7998</ele>
        <time>2026-05-15T11:09:35+02:00</time>
      </trkpt>
      <trkpt lat="47.19385" lon="5.38618">
        <ele>189.7002</ele>
        <time>2026-05-15T11:09:36+02:00</time>
      </trkpt>
      <trkpt lat="47.19386" lon="5.38619">
        <ele>189.60059</ele>
        <time>2026-05-15T11:09:37+02:00</time>
      </trkpt>
      <trkpt lat="47.1939" lon="5.38622">
        <ele>189.7002</ele>
        <time>2026-05-15T11:09:38+02:00</time>
      </trkpt>
      <trkpt lat="47.19395" lon="5.38626">
        <ele>189.60059</ele>
        <time>2026-05-15T11:09:39+02:00</time>
      </trkpt>
      <trkpt lat="47.19396" lon="5.38628">
        <ele>189.60059</ele>
        <time>2026-05-15T11:09:40+02:00</time>
      </trkpt>
      <trkpt lat="47.19399" lon="5.3863">
        <ele>189.5</ele>
        <time>2026-05-15T11:09:41+02:00</time>
      </trkpt>
      <trkpt lat="47.19401" lon="5.38631">
        <ele>189.60059</ele>
        <time>2026-05-15T11:09:42+02:00</time>
      </trkpt>
      <trkpt lat="47.19402" lon="5.38632">
        <ele>189.60059</ele>
        <time>2026-05-15T11:09:43+02:00</time>
      </trkpt>
      <trkpt lat="47.19402" lon="5.38632">
        <ele>189.60059</ele>
        <time>2026-05-15T11:09:44+02:00</time>
      </trkpt>
      <trkpt lat="47.19402" lon="5.38631">
        <ele>189.60059</ele>
        <time>2026-05-15T11:09:45+02:00</time>
      </trkpt>
      <trkpt lat="47.19402" lon="5.38631">
        <ele>189.60059</ele>
        <time>2026-05-15T11:09:46+02:00</time>
      </trkpt>
      <trkpt lat="47.19402" lon="5.38631">
        <ele>189.60059</ele>
        <time>2026-05-15T11:09:47+02:00</time>
      </trkpt>
      <trkpt lat="47.19417" lon="5.38644">
        <ele>189.2002</ele>
        <time>2026-05-15T11:10:31+02:00</time>
      </trkpt>
      <trkpt lat="47.19421" lon="5.38645">
        <ele>189</ele>
        <time>2026-05-15T11:10:32+02:00</time>
      </trkpt>
      <trkpt lat="47.19423" lon="5.38645">
        <ele>189</ele>
        <time>2026-05-15T11:10:33+02:00</time>
      </trkpt>
      <trkpt lat="47.19426" lon="5.38646">
        <ele>189</ele>
        <time>2026-05-15T11:10:34+02:00</time>
      </trkpt>
      <trkpt lat="47.1943" lon="5.38648">
        <ele>188.90039</ele>
        <time>2026-05-15T11:10:35+02:00</time>
      </trkpt>
      <trkpt lat="47.19431" lon="5.38649">
        <ele>188.90039</ele>
        <time>2026-05-15T11:10:36+02:00</time>
      </trkpt>
      <trkpt lat="47.19434" lon="5.38651">
        <ele>188.7002</ele>
        <time>2026-05-15T11:10:37+02:00</time>
      </trkpt>
      <trkpt lat="47.19438" lon="5.38652">
        <ele>188.5</ele>
        <time>2026-05-15T11:10:38+02:00</time>
      </trkpt>
      <trkpt lat="47.19439" lon="5.38652">
        <ele>188.5</ele>
        <time>2026-05-15T11:10:39+02:00</time>
      </trkpt>
      <trkpt lat="47.1944" lon="5.38649">
        <ele>188.5</ele>
        <time>2026-05-15T11:10:40+02:00</time>
      </trkpt>
      <trkpt lat="47.19441" lon="5.38645">
        <ele>188.2998</ele>
        <time>2026-05-15T11:10:41+02:00</time>
      </trkpt>
      <trkpt lat="47.19443" lon="5.38638">
        <ele>188.2002</ele>
        <time>2026-05-15T11:10:42+02:00</time>
      </trkpt>
      <trkpt lat="47.19444" lon="5.38635">
        <ele>187.90039</ele>
        <time>2026-05-15T11:10:43+02:00</time>
      </trkpt>
      <trkpt lat="47.19446" lon="5.3863">
        <ele>187.7998</ele>
        <time>2026-05-15T11:10:44+02:00</time>
      </trkpt>
      <trkpt lat="47.19447" lon="5.38624">
        <ele>187.7998</ele>
        <time>2026-05-15T11:10:45+02:00</time>
      </trkpt>
      <trkpt lat="47.19449" lon="5.38618">
        <ele>187.60059</ele>
        <time>2026-05-15T11:10:46+02:00</time>
      </trkpt>
      <trkpt lat="47.1945" lon="5.38612">
        <ele>187.2002</ele>
        <time>2026-05-15T11:10:47+02:00</time>
      </trkpt>
      <trkpt lat="47.19451" lon="5.38606">
        <ele>187.2002</ele>
        <time>2026-05-15T11:10:48+02:00</time>
      </trkpt>
      <trkpt lat="47.19453" lon="5.386">
        <ele>187</ele>
        <time>2026-05-15T11:10:49+02:00</time>
      </trkpt>
      <trkpt lat="47.19455" lon="5.38591">
        <ele>186.90039</ele>
        <time>2026-05-15T11:10:50+02:00</time>
      </trkpt>
      <trkpt lat="47.19456" lon="5.38589">
        <ele>186.60059</ele>
        <time>2026-05-15T11:10:51+02:00</time>
      </trkpt>
      <trkpt lat="47.19457" lon="5.38585">
        <ele>186.5</ele>
        <time>2026-05-15T11:10:52+02:00</time>
      </trkpt>
      <trkpt lat="47.19457" lon="5.38578">
        <ele>186.40039</ele>
        <time>2026-05-15T11:10:53+02:00</time>
      </trkpt>
      <trkpt lat="47.19456" lon="5.38576">
        <ele>186.40039</ele>
        <time>2026-05-15T11:10:54+02:00</time>
      </trkpt>
      <trkpt lat="47.19454" lon="5.38573">
        <ele>186.7002</ele>
        <time>2026-05-15T11:10:55+02:00</time>
      </trkpt>
      <trkpt lat="47.19452" lon="5.3857">
        <ele>186.7002</ele>
        <time>2026-05-15T11:10:56+02:00</time>
      </trkpt>
      <trkpt lat="47.19449" lon="5.38567">
        <ele>186.90039</ele>
        <time>2026-05-15T11:10:57+02:00</time>
      </trkpt>
      <trkpt lat="47.19447" lon="5.38567">
        <ele>186.90039</ele>
        <time>2026-05-15T11:10:58+02:00</time>
      </trkpt>
      <trkpt lat="47.19446" lon="5.38566">
        <ele>186.90039</ele>
        <time>2026-05-15T11:10:59+02:00</time>
      </trkpt>
      <trkpt lat="47.19443" lon="5.38564">
        <ele>187.2002</ele>
        <time>2026-05-15T11:11:00+02:00</time>
      </trkpt>
      <trkpt lat="47.19441" lon="5.38562">
        <ele>187.2002</ele>
        <time>2026-05-15T11:11:01+02:00</time>
      </trkpt>
      <trkpt lat="47.19438" lon="5.3856">
        <ele>187.10059</ele>
        <time>2026-05-15T11:11:02+02:00</time>
      </trkpt>
      <trkpt lat="47.19435" lon="5.38558">
        <ele>187.2998</ele>
        <time>2026-05-15T11:11:03+02:00</time>
      </trkpt>
      <trkpt lat="47.19431" lon="5.38554">
        <ele>187.60059</ele>
        <time>2026-05-15T11:11:04+02:00</time>
      </trkpt>
      <trkpt lat="47.1943" lon="5.38553">
        <ele>187.40039</ele>
        <time>2026-05-15T11:11:05+02:00</time>
      </trkpt>
      <trkpt lat="47.19426" lon="5.38552">
        <ele>187.60059</ele>
        <time>2026-05-15T11:11:06+02:00</time>
      </trkpt>
      <trkpt lat="47.19422" lon="5.38549">
        <ele>187.60059</ele>
        <time>2026-05-15T11:11:07+02:00</time>
      </trkpt>
      <trkpt lat="47.19421" lon="5.38548">
        <ele>187.60059</ele>
        <time>2026-05-15T11:11:08+02:00</time>
      </trkpt>
      <trkpt lat="47.19418" lon="5.38546">
        <ele>187.7998</ele>
        <time>2026-05-15T11:11:09+02:00</time>
      </trkpt>
      <trkpt lat="47.19415" lon="5.38545">
        <ele>187.7998</ele>
        <time>2026-05-15T11:11:10+02:00</time>
      </trkpt>
      <trkpt lat="47.19413" lon="5.38544">
        <ele>187.7002</ele>
        <time>2026-05-15T11:11:11+02:00</time>
      </trkpt>
      <trkpt lat="47.1941" lon="5.38541">
        <ele>187.7002</ele>
        <time>2026-05-15T11:11:12+02:00</time>
      </trkpt>
      <trkpt lat="47.19407" lon="5.38539">
        <ele>187.7998</ele>
        <time>2026-05-15T11:11:13+02:00</time>
      </trkpt>
      <trkpt lat="47.19402" lon="5.38536">
        <ele>187.7002</ele>
        <time>2026-05-15T11:11:14+02:00</time>
      </trkpt>
      <trkpt lat="47.19401" lon="5.38535">
        <ele>187.7002</ele>
        <time>2026-05-15T11:11:15+02:00</time>
      </trkpt>
      <trkpt lat="47.19398" lon="5.38533">
        <ele>187.7002</ele>
        <time>2026-05-15T11:11:16+02:00</time>
      </trkpt>
      <trkpt lat="47.19396" lon="5.3853">
        <ele>187.7998</ele>
        <time>2026-05-15T11:11:17+02:00</time>
      </trkpt>
      <trkpt lat="47.19391" lon="5.38527">
        <ele>187.7002</ele>
        <time>2026-05-15T11:11:18+02:00</time>
      </trkpt>
      <trkpt lat="47.1939" lon="5.38526">
        <ele>187.7002</ele>
        <time>2026-05-15T11:11:19+02:00</time>
      </trkpt>
      <trkpt lat="47.19387" lon="5.38525">
        <ele>187.7002</ele>
        <time>2026-05-15T11:11:20+02:00</time>
      </trkpt>
      <trkpt lat="47.19385" lon="5.38523">
        <ele>187.7002</ele>
        <time>2026-05-15T11:11:21+02:00</time>
      </trkpt>
      <trkpt lat="47.19384" lon="5.38519">
        <ele>187.7002</ele>
        <time>2026-05-15T11:11:22+02:00</time>
      </trkpt>
      <trkpt lat="47.19384" lon="5.38517">
        <ele>187.60059</ele>
        <time>2026-05-15T11:11:23+02:00</time>
      </trkpt>
      <trkpt lat="47.19384" lon="5.38514">
        <ele>187.60059</ele>
        <time>2026-05-15T11:11:24+02:00</time>
      </trkpt>
      <trkpt lat="47.19385" lon="5.3851">
        <ele>187.5</ele>
        <time>2026-05-15T11:11:25+02:00</time>
      </trkpt>
      <trkpt lat="47.19386" lon="5.38507">
        <ele>187.40039</ele>
        <time>2026-05-15T11:11:26+02:00</time>
      </trkpt>
      <trkpt lat="47.19388" lon="5.38504">
        <ele>187.40039</ele>
        <time>2026-05-15T11:11:27+02:00</time>
      </trkpt>
      <trkpt lat="47.19389" lon="5.385">
        <ele>187.40039</ele>
        <time>2026-05-15T11:11:28+02:00</time>
      </trkpt>
      <trkpt lat="47.19391" lon="5.38496">
        <ele>187.40039</ele>
        <time>2026-05-15T11:11:29+02:00</time>
      </trkpt>
      <trkpt lat="47.19391" lon="5.38495">
        <ele>187.40039</ele>
        <time>2026-05-15T11:11:30+02:00</time>
      </trkpt>
      <trkpt lat="47.19392" lon="5.38492">
        <ele>187.40039</ele>
        <time>2026-05-15T11:11:31+02:00</time>
      </trkpt>
      <trkpt lat="47.19392" lon="5.38489">
        <ele>187.40039</ele>
        <time>2026-05-15T11:11:32+02:00</time>
      </trkpt>
      <trkpt lat="47.19393" lon="5.38488">
        <ele>187.40039</ele>
        <time>2026-05-15T11:11:33+02:00</time>
      </trkpt>
      <trkpt lat="47.19393" lon="5.38486">
        <ele>187.40039</ele>
        <time>2026-05-15T11:11:34+02:00</time>
      </trkpt>
      <trkpt lat="47.19394" lon="5.38486">
        <ele>187.40039</ele>
        <time>2026-05-15T11:11:35+02:00</time>
      </trkpt>
      <trkpt lat="47.19394" lon="5.38485">
        <ele>187.40039</ele>
        <time>2026-05-15T11:11:36+02:00</time>
      </trkpt>
      <trkpt lat="47.19394" lon="5.38485">
        <ele>187.40039</ele>
        <time>2026-05-15T11:11:37+02:00</time>
      </trkpt>
      <trkpt lat="47.19394" lon="5.38485">
        <ele>187.40039</ele>
        <time>2026-05-15T11:11:38+02:00</time>
      </trkpt>
      <trkpt lat="47.19394" lon="5.38485">
        <ele>187.40039</ele>
        <time>2026-05-15T11:15:59+02:00</time>
      </trkpt>
      <trkpt lat="47.19394" lon="5.38485">
        <ele>187.40039</ele>
        <time>2026-05-15T11:16:00+02:00</time>
      </trkpt>
      <trkpt lat="47.19394" lon="5.38485">
        <ele>187.40039</ele>
        <time>2026-05-15T11:16:01+02:00</time>
      </trkpt>
      <trkpt lat="47.19394" lon="5.38485">
        <ele>187.40039</ele>
        <time>2026-05-15T11:16:02+02:00</time>
      </trkpt>
      <trkpt lat="47.19394" lon="5.38485">
        <ele>187.40039</ele>
        <time>2026-05-15T11:16:03+02:00</time>
      </trkpt>
      <trkpt lat="47.19394" lon="5.38485">
        <ele>187.40039</ele>
        <time>2026-05-15T11:16:04+02:00</time>
      </trkpt>
      <trkpt lat="47.19394" lon="5.38485">
        <ele>187.40039</ele>
        <time>2026-05-15T11:16:05+02:00</time>
      </trkpt>
      <trkpt lat="47.19394" lon="5.38485">
        <ele>187.40039</ele>
        <time>2026-05-15T11:22:52+02:00</time>
      </trkpt>
      <trkpt lat="47.19394" lon="5.38485">
        <ele>187.40039</ele>
        <time>2026-05-15T11:22:53+02:00</time>
      </trkpt>
      <trkpt lat="47.19394" lon="5.38485">
        <ele>187.40039</ele>
        <time>2026-05-15T11:22:54+02:00</time>
      </trkpt>
      <trkpt lat="47.19394" lon="5.38485">
        <ele>187.40039</ele>
        <time>2026-05-15T11:22:55+02:00</time>
      </trkpt>
      <trkpt lat="47.19394" lon="5.38485">
        <ele>187.40039</ele>
        <time>2026-05-15T11:22:56+02:00</time>
      </trkpt>
      <trkpt lat="47.19394" lon="5.38485">
        <ele>187.40039</ele>
        <time>2026-05-15T11:22:57+02:00</time>
      </trkpt>
      <trkpt lat="47.19394" lon="5.38485">
        <ele>187.40039</ele>
        <time>2026-05-15T11:22:58+02:00</time>
      </trkpt>
      <trkpt lat="47.19394" lon="5.38485">
        <ele>187.40039</ele>
        <time>2026-05-15T11:22:59+02:00</time>
      </trkpt>
      <trkpt lat="47.19394" lon="5.38485">
        <ele>187.40039</ele>
        <time>2026-05-15T11:23:00+02:00</time>
      </trkpt>
      <trkpt lat="47.19394" lon="5.38485">
        <ele>187.40039</ele>
        <time>2026-05-15T11:23:01+02:00</time>
      </trkpt>
      <trkpt lat="47.19394" lon="5.38485">
        <ele>187.40039</ele>
        <time>2026-05-15T11:23:02+02:00</time>
      </trkpt>
      <trkpt lat="47.19394" lon="5.38485">
        <ele>187.40039</ele>
        <time>2026-05-15T11:23:03+02:00</time>
      </trkpt>
      <trkpt lat="47.19394" lon="5.38485">
        <ele>187.40039</ele>
        <time>2026-05-15T11:23:04+02:00</time>
      </trkpt>
      <trkpt lat="47.19394" lon="5.38485">
        <ele>187.40039</ele>
        <time>2026-05-15T11:23:05+02:00</time>
      </trkpt>
      <trkpt lat="47.19386" lon="5.38486">
        <ele>187.40039</ele>
        <time>2026-05-15T11:23:06+02:00</time>
      </trkpt>
      <trkpt lat="47.19387" lon="5.38483">
        <ele>187.5</ele>
        <time>2026-05-15T11:23:07+02:00</time>
      </trkpt>
      <trkpt lat="47.19388" lon="5.38482">
        <ele>187.5</ele>
        <time>2026-05-15T11:23:08+02:00</time>
      </trkpt>
      <trkpt lat="47.19389" lon="5.38479">
        <ele>187.5</ele>
        <time>2026-05-15T11:23:09+02:00</time>
      </trkpt>
      <trkpt lat="47.1939" lon="5.38476">
        <ele>187.5</ele>
        <time>2026-05-15T11:23:10+02:00</time>
      </trkpt>
      <trkpt lat="47.19391" lon="5.38473">
        <ele>187.60059</ele>
        <time>2026-05-15T11:23:11+02:00</time>
      </trkpt>
      <trkpt lat="47.19393" lon="5.38471">
        <ele>187.60059</ele>
        <time>2026-05-15T11:23:12+02:00</time>
      </trkpt>
      <trkpt lat="47.19393" lon="5.38468">
        <ele>187.60059</ele>
        <time>2026-05-15T11:23:13+02:00</time>
      </trkpt>
      <trkpt lat="47.19394" lon="5.38464">
        <ele>187.7002</ele>
        <time>2026-05-15T11:23:14+02:00</time>
      </trkpt>
      <trkpt lat="47.19396" lon="5.3846">
        <ele>187.7002</ele>
        <time>2026-05-15T11:23:15+02:00</time>
      </trkpt>
      <trkpt lat="47.19398" lon="5.38456">
        <ele>187.90039</ele>
        <time>2026-05-15T11:23:16+02:00</time>
      </trkpt>
      <trkpt lat="47.194" lon="5.38451">
        <ele>187.90039</ele>
        <time>2026-05-15T11:23:17+02:00</time>
      </trkpt>
      <trkpt lat="47.19402" lon="5.38446">
        <ele>188</ele>
        <time>2026-05-15T11:23:18+02:00</time>
      </trkpt>
      <trkpt lat="47.19404" lon="5.3844">
        <ele>188.2002</ele>
        <time>2026-05-15T11:23:19+02:00</time>
      </trkpt>
      <trkpt lat="47.19406" lon="5.38436">
        <ele>188.2002</ele>
        <time>2026-05-15T11:23:20+02:00</time>
      </trkpt>
      <trkpt lat="47.19408" lon="5.38431">
        <ele>188.2998</ele>
        <time>2026-05-15T11:23:21+02:00</time>
      </trkpt>
      <trkpt lat="47.1941" lon="5.38425">
        <ele>188.2998</ele>
        <time>2026-05-15T11:23:22+02:00</time>
      </trkpt>
      <trkpt lat="47.19412" lon="5.3842">
        <ele>188.40039</ele>
        <time>2026-05-15T11:23:23+02:00</time>
      </trkpt>
      <trkpt lat="47.19414" lon="5.38415">
        <ele>188.2998</ele>
        <time>2026-05-15T11:23:24+02:00</time>
      </trkpt>
      <trkpt lat="47.19415" lon="5.38411">
        <ele>188.2998</ele>
        <time>2026-05-15T11:23:25+02:00</time>
      </trkpt>
      <trkpt lat="47.19417" lon="5.38406">
        <ele>188.2002</ele>
        <time>2026-05-15T11:23:26+02:00</time>
      </trkpt>
      <trkpt lat="47.19419" lon="5.38401">
        <ele>188.2002</ele>
        <time>2026-05-15T11:23:27+02:00</time>
      </trkpt>
      <trkpt lat="47.1942" lon="5.38396">
        <ele>188.10059</ele>
        <time>2026-05-15T11:23:28+02:00</time>
      </trkpt>
      <trkpt lat="47.19422" lon="5.38392">
        <ele>188</ele>
        <time>2026-05-15T11:23:29+02:00</time>
      </trkpt>
      <trkpt lat="47.19423" lon="5.38388">
        <ele>188</ele>
        <time>2026-05-15T11:23:30+02:00</time>
      </trkpt>
      <trkpt lat="47.19424" lon="5.38384">
        <ele>188</ele>
        <time>2026-05-15T11:23:31+02:00</time>
      </trkpt>
      <trkpt lat="47.19425" lon="5.38381">
        <ele>188</ele>
        <time>2026-05-15T11:23:32+02:00</time>
      </trkpt>
      <trkpt lat="47.19426" lon="5.38379">
        <ele>188</ele>
        <time>2026-05-15T11:23:33+02:00</time>
      </trkpt>
      <trkpt lat="47.19428" lon="5.38377">
        <ele>188</ele>
        <time>2026-05-15T11:23:34+02:00</time>
      </trkpt>
      <trkpt lat="47.1943" lon="5.38377">
        <ele>188</ele>
        <time>2026-05-15T11:23:35+02:00</time>
      </trkpt>
      <trkpt lat="47.1943" lon="5.38378">
        <ele>188</ele>
        <time>2026-05-15T11:23:36+02:00</time>
      </trkpt>
      <trkpt lat="47.19433" lon="5.3838">
        <ele>188</ele>
        <time>2026-05-15T11:23:37+02:00</time>
      </trkpt>
      <trkpt lat="47.19435" lon="5.38382">
        <ele>187.90039</ele>
        <time>2026-05-15T11:23:38+02:00</time>
      </trkpt>
      <trkpt lat="47.19438" lon="5.38383">
        <ele>187.7998</ele>
        <time>2026-05-15T11:23:39+02:00</time>
      </trkpt>
      <trkpt lat="47.19441" lon="5.38386">
        <ele>187.7998</ele>
        <time>2026-05-15T11:23:40+02:00</time>
      </trkpt>
      <trkpt lat="47.19444" lon="5.38388">
        <ele>187.7998</ele>
        <time>2026-05-15T11:23:41+02:00</time>
      </trkpt>
      <trkpt lat="47.19446" lon="5.3839">
        <ele>187.7998</ele>
        <time>2026-05-15T11:23:42+02:00</time>
      </trkpt>
      <trkpt lat="47.19449" lon="5.38392">
        <ele>187.90039</ele>
        <time>2026-05-15T11:23:43+02:00</time>
      </trkpt>
      <trkpt lat="47.19451" lon="5.38394">
        <ele>188.10059</ele>
        <time>2026-05-15T11:23:44+02:00</time>
      </trkpt>
      <trkpt lat="47.19453" lon="5.38396">
        <ele>188.10059</ele>
        <time>2026-05-15T11:23:45+02:00</time>
      </trkpt>
      <trkpt lat="47.19455" lon="5.38397">
        <ele>188.10059</ele>
        <time>2026-05-15T11:23:46+02:00</time>
      </trkpt>
      <trkpt lat="47.19456" lon="5.38397">
        <ele>188.10059</ele>
        <time>2026-05-15T11:23:47+02:00</time>
      </trkpt>
      <trkpt lat="47.19457" lon="5.38398">
        <ele>188.10059</ele>
        <time>2026-05-15T11:23:48+02:00</time>
      </trkpt>
      <trkpt lat="47.19458" lon="5.38398">
        <ele>188.10059</ele>
        <time>2026-05-15T11:23:49+02:00</time>
      </trkpt>
      <trkpt lat="47.19458" lon="5.38398">
        <ele>188.10059</ele>
        <time>2026-05-15T11:23:50+02:00</time>
      </trkpt>
      <trkpt lat="47.19458" lon="5.38398">
        <ele>188.10059</ele>
        <time>2026-05-15T11:23:51+02:00</time>
      </trkpt>
      <trkpt lat="47.19451" lon="5.38396">
        <ele>188.10059</ele>
        <time>2026-05-15T11:24:14+02:00</time>
      </trkpt>
      <trkpt lat="47.19448" lon="5.38394">
        <ele>187.90039</ele>
        <time>2026-05-15T11:24:15+02:00</time>
      </trkpt>
      <trkpt lat="47.19447" lon="5.38393">
        <ele>187.90039</ele>
        <time>2026-05-15T11:24:16+02:00</time>
      </trkpt>
      <trkpt lat="47.19446" lon="5.38391">
        <ele>187.90039</ele>
        <time>2026-05-15T11:24:17+02:00</time>
      </trkpt>
      <trkpt lat="47.19442" lon="5.38389">
        <ele>187.7998</ele>
        <time>2026-05-15T11:24:18+02:00</time>
      </trkpt>
      <trkpt lat="47.19441" lon="5.38388">
        <ele>187.7998</ele>
        <time>2026-05-15T11:24:19+02:00</time>
      </trkpt>
      <trkpt lat="47.19439" lon="5.38386">
        <ele>187.7998</ele>
        <time>2026-05-15T11:24:20+02:00</time>
      </trkpt>
      <trkpt lat="47.19437" lon="5.38384">
        <ele>187.90039</ele>
        <time>2026-05-15T11:24:21+02:00</time>
      </trkpt>
      <trkpt lat="47.19436" lon="5.38382">
        <ele>187.90039</ele>
        <time>2026-05-15T11:24:22+02:00</time>
      </trkpt>
      <trkpt lat="47.19434" lon="5.38379">
        <ele>188</ele>
        <time>2026-05-15T11:24:23+02:00</time>
      </trkpt>
      <trkpt lat="47.19434" lon="5.38376">
        <ele>188</ele>
        <time>2026-05-15T11:24:24+02:00</time>
      </trkpt>
      <trkpt lat="47.19434" lon="5.38373">
        <ele>188</ele>
        <time>2026-05-15T11:24:25+02:00</time>
      </trkpt>
      <trkpt lat="47.19435" lon="5.3837">
        <ele>188.10059</ele>
        <time>2026-05-15T11:24:26+02:00</time>
      </trkpt>
      <trkpt lat="47.19436" lon="5.38367">
        <ele>188.10059</ele>
        <time>2026-05-15T11:24:27+02:00</time>
      </trkpt>
      <trkpt lat="47.19436" lon="5.38364">
        <ele>187.90039</ele>
        <time>2026-05-15T11:24:28+02:00</time>
      </trkpt>
      <trkpt lat="47.19436" lon="5.38362">
        <ele>187.90039</ele>
        <time>2026-05-15T11:24:29+02:00</time>
      </trkpt>
      <trkpt lat="47.19435" lon="5.3836">
        <ele>187.90039</ele>
        <time>2026-05-15T11:24:30+02:00</time>
      </trkpt>
      <trkpt lat="47.19435" lon="5.3836">
        <ele>187.90039</ele>
        <time>2026-05-15T11:24:31+02:00</time>
      </trkpt>
      <trkpt lat="47.19435" lon="5.38359">
        <ele>187.90039</ele>
        <time>2026-05-15T11:24:32+02:00</time>
      </trkpt>
      <trkpt lat="47.19435" lon="5.38359">
        <ele>187.90039</ele>
        <time>2026-05-15T11:24:33+02:00</time>
      </trkpt>
      <trkpt lat="47.19422" lon="5.38356">
        <ele>187.7998</ele>
        <time>2026-05-15T11:24:37+02:00</time>
      </trkpt>
      <trkpt lat="47.19418" lon="5.38358">
        <ele>187.7002</ele>
        <time>2026-05-15T11:24:38+02:00</time>
      </trkpt>
      <trkpt lat="47.19414" lon="5.38359">
        <ele>187.7002</ele>
        <time>2026-05-15T11:24:39+02:00</time>
      </trkpt>
      <trkpt lat="47.1941" lon="5.38361">
        <ele>187.7002</ele>
        <time>2026-05-15T11:24:40+02:00</time>
      </trkpt>
      <trkpt lat="47.19406" lon="5.38363">
        <ele>187.60059</ele>
        <time>2026-05-15T11:24:41+02:00</time>
      </trkpt>
      <trkpt lat="47.19404" lon="5.38364">
        <ele>187.60059</ele>
        <time>2026-05-15T11:24:42+02:00</time>
      </trkpt>
      <trkpt lat="47.19397" lon="5.38366">
        <ele>187.7998</ele>
        <time>2026-05-15T11:24:43+02:00</time>
      </trkpt>
      <trkpt lat="47.19393" lon="5.38367">
        <ele>187.7998</ele>
        <time>2026-05-15T11:24:44+02:00</time>
      </trkpt>
      <trkpt lat="47.19388" lon="5.38366">
        <ele>187.7002</ele>
        <time>2026-05-15T11:24:45+02:00</time>
      </trkpt>
      <trkpt lat="47.19383" lon="5.38365">
        <ele>187.60059</ele>
        <time>2026-05-15T11:24:46+02:00</time>
      </trkpt>
      <trkpt lat="47.19378" lon="5.38363">
        <ele>187.40039</ele>
        <time>2026-05-15T11:24:47+02:00</time>
      </trkpt>
      <trkpt lat="47.19373" lon="5.38361">
        <ele>187.40039</ele>
        <time>2026-05-15T11:24:48+02:00</time>
      </trkpt>
      <trkpt lat="47.19368" lon="5.3836">
        <ele>187.40039</ele>
        <time>2026-05-15T11:24:49+02:00</time>
      </trkpt>
      <trkpt lat="47.19363" lon="5.38358">
        <ele>187.40039</ele>
        <time>2026-05-15T11:24:50+02:00</time>
      </trkpt>
      <trkpt lat="47.19358" lon="5.38357">
        <ele>187.2998</ele>
        <time>2026-05-15T11:24:51+02:00</time>
      </trkpt>
      <trkpt lat="47.19352" lon="5.38356">
        <ele>187.2998</ele>
        <time>2026-05-15T11:24:52+02:00</time>
      </trkpt>
      <trkpt lat="47.19348" lon="5.38356">
        <ele>187.2998</ele>
        <time>2026-05-15T11:24:53+02:00</time>
      </trkpt>
      <trkpt lat="47.19342" lon="5.38356">
        <ele>187.2002</ele>
        <time>2026-05-15T11:24:54+02:00</time>
      </trkpt>
      <trkpt lat="47.19337" lon="5.38356">
        <ele>187.2002</ele>
        <time>2026-05-15T11:24:55+02:00</time>
      </trkpt>
      <trkpt lat="47.19332" lon="5.38355">
        <ele>187.2002</ele>
        <time>2026-05-15T11:24:56+02:00</time>
      </trkpt>
      <trkpt lat="47.19328" lon="5.38354">
        <ele>187.2002</ele>
        <time>2026-05-15T11:24:57+02:00</time>
      </trkpt>
      <trkpt lat="47.19323" lon="5.38353">
        <ele>187.10059</ele>
        <time>2026-05-15T11:24:58+02:00</time>
      </trkpt>
      <trkpt lat="47.19319" lon="5.38352">
        <ele>187.10059</ele>
        <time>2026-05-15T11:24:59+02:00</time>
      </trkpt>
      <trkpt lat="47.19314" lon="5.38351">
        <ele>187</ele>
        <time>2026-05-15T11:25:00+02:00</time>
      </trkpt>
      <trkpt lat="47.1931" lon="5.3835">
        <ele>187</ele>
        <time>2026-05-15T11:25:01+02:00</time>
      </trkpt>
      <trkpt lat="47.19306" lon="5.38349">
        <ele>187</ele>
        <time>2026-05-15T11:25:02+02:00</time>
      </trkpt>
      <trkpt lat="47.19304" lon="5.38348">
        <ele>187</ele>
        <time>2026-05-15T11:25:03+02:00</time>
      </trkpt>
      <trkpt lat="47.19298" lon="5.38347">
        <ele>186.90039</ele>
        <time>2026-05-15T11:25:04+02:00</time>
      </trkpt>
      <trkpt lat="47.19295" lon="5.38346">
        <ele>186.7998</ele>
        <time>2026-05-15T11:25:05+02:00</time>
      </trkpt>
      <trkpt lat="47.19292" lon="5.38346">
        <ele>186.7998</ele>
        <time>2026-05-15T11:25:06+02:00</time>
      </trkpt>
      <trkpt lat="47.19289" lon="5.38347">
        <ele>186.60059</ele>
        <time>2026-05-15T11:25:07+02:00</time>
      </trkpt>
      <trkpt lat="47.19287" lon="5.38346">
        <ele>186.60059</ele>
        <time>2026-05-15T11:25:08+02:00</time>
      </trkpt>
      <trkpt lat="47.19285" lon="5.38345">
        <ele>186.5</ele>
        <time>2026-05-15T11:25:09+02:00</time>
      </trkpt>
      <trkpt lat="47.19284" lon="5.38344">
        <ele>186.5</ele>
        <time>2026-05-15T11:25:10+02:00</time>
      </trkpt>
      <trkpt lat="47.19283" lon="5.38343">
        <ele>186.5</ele>
        <time>2026-05-15T11:25:11+02:00</time>
      </trkpt>
      <trkpt lat="47.19282" lon="5.38342">
        <ele>186.5</ele>
        <time>2026-05-15T11:25:12+02:00</time>
      </trkpt>
      <trkpt lat="47.19281" lon="5.38338">
        <ele>186.40039</ele>
        <time>2026-05-15T11:25:13+02:00</time>
      </trkpt>
      <trkpt lat="47.1928" lon="5.38336">
        <ele>186.2002</ele>
        <time>2026-05-15T11:25:14+02:00</time>
      </trkpt>
      <trkpt lat="47.1928" lon="5.38333">
        <ele>186.2002</ele>
        <time>2026-05-15T11:25:15+02:00</time>
      </trkpt>
      <trkpt lat="47.1928" lon="5.38329">
        <ele>186</ele>
        <time>2026-05-15T11:25:16+02:00</time>
      </trkpt>
      <trkpt lat="47.19281" lon="5.38326">
        <ele>186.2002</ele>
        <time>2026-05-15T11:25:17+02:00</time>
      </trkpt>
      <trkpt lat="47.19282" lon="5.38323">
        <ele>186.2002</ele>
        <time>2026-05-15T11:25:18+02:00</time>
      </trkpt>
      <trkpt lat="47.19282" lon="5.3832">
        <ele>186</ele>
        <time>2026-05-15T11:25:19+02:00</time>
      </trkpt>
      <trkpt lat="47.19282" lon="5.38317">
        <ele>186</ele>
        <time>2026-05-15T11:25:20+02:00</time>
      </trkpt>
      <trkpt lat="47.19283" lon="5.38315">
        <ele>186</ele>
        <time>2026-05-15T11:25:21+02:00</time>
      </trkpt>
      <trkpt lat="47.19283" lon="5.38311">
        <ele>185.7998</ele>
        <time>2026-05-15T11:25:22+02:00</time>
      </trkpt>
      <trkpt lat="47.19284" lon="5.38308">
        <ele>185.7998</ele>
        <time>2026-05-15T11:25:23+02:00</time>
      </trkpt>
      <trkpt lat="47.19285" lon="5.38307">
        <ele>185.7998</ele>
        <time>2026-05-15T11:25:24+02:00</time>
      </trkpt>
      <trkpt lat="47.19286" lon="5.38303">
        <ele>185.60059</ele>
        <time>2026-05-15T11:25:25+02:00</time>
      </trkpt>
      <trkpt lat="47.19288" lon="5.38301">
        <ele>185.7998</ele>
        <time>2026-05-15T11:25:26+02:00</time>
      </trkpt>
      <trkpt lat="47.19289" lon="5.38299">
        <ele>185.7998</ele>
        <time>2026-05-15T11:25:27+02:00</time>
      </trkpt>
      <trkpt lat="47.19291" lon="5.38298">
        <ele>185.7998</ele>
        <time>2026-05-15T11:25:28+02:00</time>
      </trkpt>
      <trkpt lat="47.19292" lon="5.38298">
        <ele>186.10059</ele>
        <time>2026-05-15T11:25:29+02:00</time>
      </trkpt>
      <trkpt lat="47.19296" lon="5.38298">
        <ele>186.10059</ele>
        <time>2026-05-15T11:25:30+02:00</time>
      </trkpt>
      <trkpt lat="47.19299" lon="5.38299">
        <ele>186.2998</ele>
        <time>2026-05-15T11:25:31+02:00</time>
      </trkpt>
      <trkpt lat="47.19301" lon="5.383">
        <ele>186.2998</ele>
        <time>2026-05-15T11:25:32+02:00</time>
      </trkpt>
      <trkpt lat="47.19304" lon="5.38302">
        <ele>186.60059</ele>
        <time>2026-05-15T11:25:33+02:00</time>
      </trkpt>
      <trkpt lat="47.19307" lon="5.38303">
        <ele>186.60059</ele>
        <time>2026-05-15T11:25:34+02:00</time>
      </trkpt>
      <trkpt lat="47.19311" lon="5.38304">
        <ele>186.7998</ele>
        <time>2026-05-15T11:25:35+02:00</time>
      </trkpt>
      <trkpt lat="47.19314" lon="5.38305">
        <ele>187.2002</ele>
        <time>2026-05-15T11:25:36+02:00</time>
      </trkpt>
      <trkpt lat="47.19317" lon="5.38306">
        <ele>187.2998</ele>
        <time>2026-05-15T11:25:37+02:00</time>
      </trkpt>
      <trkpt lat="47.1932" lon="5.38308">
        <ele>187.2998</ele>
        <time>2026-05-15T11:25:38+02:00</time>
      </trkpt>
      <trkpt lat="47.19322" lon="5.38309">
        <ele>187.2002</ele>
        <time>2026-05-15T11:25:39+02:00</time>
      </trkpt>
      <trkpt lat="47.19327" lon="5.3831">
        <ele>186.90039</ele>
        <time>2026-05-15T11:25:40+02:00</time>
      </trkpt>
      <trkpt lat="47.1933" lon="5.38311">
        <ele>186.90039</ele>
        <time>2026-05-15T11:25:41+02:00</time>
      </trkpt>
      <trkpt lat="47.19332" lon="5.38311">
        <ele>186.90039</ele>
        <time>2026-05-15T11:25:42+02:00</time>
      </trkpt>
      <trkpt lat="47.19338" lon="5.38312">
        <ele>186.2002</ele>
        <time>2026-05-15T11:25:43+02:00</time>
      </trkpt>
      <trkpt lat="47.19341" lon="5.38313">
        <ele>186.40039</ele>
        <time>2026-05-15T11:25:44+02:00</time>
      </trkpt>
      <trkpt lat="47.19346" lon="5.38316">
        <ele>186.10059</ele>
        <time>2026-05-15T11:25:45+02:00</time>
      </trkpt>
      <trkpt lat="47.19352" lon="5.38318">
        <ele>186</ele>
        <time>2026-05-15T11:25:46+02:00</time>
      </trkpt>
      <trkpt lat="47.19358" lon="5.38321">
        <ele>186</ele>
        <time>2026-05-15T11:25:47+02:00</time>
      </trkpt>
      <trkpt lat="47.19364" lon="5.38324">
        <ele>187</ele>
        <time>2026-05-15T11:25:48+02:00</time>
      </trkpt>
      <trkpt lat="47.19369" lon="5.38326">
        <ele>186.7998</ele>
        <time>2026-05-15T11:25:49+02:00</time>
      </trkpt>
      <trkpt lat="47.19375" lon="5.38328">
        <ele>186.5</ele>
        <time>2026-05-15T11:25:50+02:00</time>
      </trkpt>
      <trkpt lat="47.1938" lon="5.38329">
        <ele>185.90039</ele>
        <time>2026-05-15T11:25:51+02:00</time>
      </trkpt>
      <trkpt lat="47.19385" lon="5.3833">
        <ele>185.90039</ele>
        <time>2026-05-15T11:25:52+02:00</time>
      </trkpt>
      <trkpt lat="47.1939" lon="5.38329">
        <ele>185.2998</ele>
        <time>2026-05-15T11:25:53+02:00</time>
      </trkpt>
      <trkpt lat="47.19395" lon="5.38328">
        <ele>184.7998</ele>
        <time>2026-05-15T11:25:54+02:00</time>
      </trkpt>
      <trkpt lat="47.194" lon="5.38328">
        <ele>184.2998</ele>
        <time>2026-05-15T11:25:55+02:00</time>
      </trkpt>
      <trkpt lat="47.19404" lon="5.38327">
        <ele>183.90039</ele>
        <time>2026-05-15T11:25:56+02:00</time>
      </trkpt>
      <trkpt lat="47.19409" lon="5.38327">
        <ele>183.5</ele>
        <time>2026-05-15T11:25:57+02:00</time>
      </trkpt>
      <trkpt lat="47.19413" lon="5.38328">
        <ele>183.5</ele>
        <time>2026-05-15T11:25:58+02:00</time>
      </trkpt>
      <trkpt lat="47.19418" lon="5.38329">
        <ele>183.10059</ele>
        <time>2026-05-15T11:25:59+02:00</time>
      </trkpt>
      <trkpt lat="47.19423" lon="5.38329">
        <ele>182.7998</ele>
        <time>2026-05-15T11:26:00+02:00</time>
      </trkpt>
      <trkpt lat="47.19428" lon="5.38329">
        <ele>182.5</ele>
        <time>2026-05-15T11:26:01+02:00</time>
      </trkpt>
      <trkpt lat="47.19432" lon="5.38329">
        <ele>182.2998</ele>
        <time>2026-05-15T11:26:02+02:00</time>
      </trkpt>
      <trkpt lat="47.19436" lon="5.38329">
        <ele>182.2998</ele>
        <time>2026-05-15T11:26:03+02:00</time>
      </trkpt>
      <trkpt lat="47.1944" lon="5.38329">
        <ele>181.90039</ele>
        <time>2026-05-15T11:26:04+02:00</time>
      </trkpt>
      <trkpt lat="47.19444" lon="5.3833">
        <ele>181.5</ele>
        <time>2026-05-15T11:26:05+02:00</time>
      </trkpt>
      <trkpt lat="47.19447" lon="5.38332">
        <ele>183.2002</ele>
        <time>2026-05-15T11:26:06+02:00</time>
      </trkpt>
      <trkpt lat="47.1945" lon="5.38333">
        <ele>182.2998</ele>
        <time>2026-05-15T11:26:07+02:00</time>
      </trkpt>
      <trkpt lat="47.19452" lon="5.38335">
        <ele>182.2998</ele>
        <time>2026-05-15T11:26:08+02:00</time>
      </trkpt>
      <trkpt lat="47.19454" lon="5.38336">
        <ele>182.2998</ele>
        <time>2026-05-15T11:26:09+02:00</time>
      </trkpt>
      <trkpt lat="47.19456" lon="5.38337">
        <ele>181.40039</ele>
        <time>2026-05-15T11:26:10+02:00</time>
      </trkpt>
      <trkpt lat="47.19459" lon="5.38339">
        <ele>182.40039</ele>
        <time>2026-05-15T11:26:11+02:00</time>
      </trkpt>
      <trkpt lat="47.1946" lon="5.3834">
        <ele>182.40039</ele>
        <time>2026-05-15T11:26:12+02:00</time>
      </trkpt>
      <trkpt lat="47.19462" lon="5.38343">
        <ele>181.60059</ele>
        <time>2026-05-15T11:26:13+02:00</time>
      </trkpt>
      <trkpt lat="47.19463" lon="5.38345">
        <ele>181.60059</ele>
        <time>2026-05-15T11:26:14+02:00</time>
      </trkpt>
      <trkpt lat="47.19466" lon="5.38349">
        <ele>182.40039</ele>
        <time>2026-05-15T11:26:15+02:00</time>
      </trkpt>
      <trkpt lat="47.19468" lon="5.38352">
        <ele>182</ele>
        <time>2026-05-15T11:26:16+02:00</time>
      </trkpt>
      <trkpt lat="47.1947" lon="5.38356">
        <ele>182.90039</ele>
        <time>2026-05-15T11:26:17+02:00</time>
      </trkpt>
      <trkpt lat="47.19472" lon="5.3836">
        <ele>182.90039</ele>
        <time>2026-05-15T11:26:18+02:00</time>
      </trkpt>
      <trkpt lat="47.19475" lon="5.38365">
        <ele>183.10059</ele>
        <time>2026-05-15T11:26:19+02:00</time>
      </trkpt>
      <trkpt lat="47.19477" lon="5.38369">
        <ele>183.10059</ele>
        <time>2026-05-15T11:26:20+02:00</time>
      </trkpt>
      <trkpt lat="47.19479" lon="5.38374">
        <ele>182.5</ele>
        <time>2026-05-15T11:26:21+02:00</time>
      </trkpt>
      <trkpt lat="47.19482" lon="5.38378">
        <ele>182.5</ele>
        <time>2026-05-15T11:26:22+02:00</time>
      </trkpt>
      <trkpt lat="47.19484" lon="5.38382">
        <ele>183.2002</ele>
        <time>2026-05-15T11:26:23+02:00</time>
      </trkpt>
      <trkpt lat="47.19487" lon="5.38386">
        <ele>182.2002</ele>
        <time>2026-05-15T11:26:24+02:00</time>
      </trkpt>
      <trkpt lat="47.19489" lon="5.3839">
        <ele>182.2002</ele>
        <time>2026-05-15T11:26:25+02:00</time>
      </trkpt>
      <trkpt lat="47.19492" lon="5.38394">
        <ele>183.40039</ele>
        <time>2026-05-15T11:26:26+02:00</time>
      </trkpt>
      <trkpt lat="47.19494" lon="5.38397">
        <ele>183.40039</ele>
        <time>2026-05-15T11:26:27+02:00</time>
      </trkpt>
      <trkpt lat="47.19496" lon="5.38401">
        <ele>184.90039</ele>
        <time>2026-05-15T11:26:28+02:00</time>
      </trkpt>
      <trkpt lat="47.19497" lon="5.38406">
        <ele>184.10059</ele>
        <time>2026-05-15T11:26:29+02:00</time>
      </trkpt>
      <trkpt lat="47.195" lon="5.38411">
        <ele>185.2998</ele>
        <time>2026-05-15T11:26:30+02:00</time>
      </trkpt>
      <trkpt lat="47.19502" lon="5.38417">
        <ele>185.7998</ele>
        <time>2026-05-15T11:26:31+02:00</time>
      </trkpt>
      <trkpt lat="47.19504" lon="5.38422">
        <ele>184.7002</ele>
        <time>2026-05-15T11:26:32+02:00</time>
      </trkpt>
      <trkpt lat="47.19507" lon="5.38427">
        <ele>185.5</ele>
        <time>2026-05-15T11:26:33+02:00</time>
      </trkpt>
      <trkpt lat="47.19509" lon="5.38431">
        <ele>184.90039</ele>
        <time>2026-05-15T11:26:34+02:00</time>
      </trkpt>
      <trkpt lat="47.19512" lon="5.38435">
        <ele>185.90039</ele>
        <time>2026-05-15T11:26:35+02:00</time>
      </trkpt>
      <trkpt lat="47.19515" lon="5.38438">
        <ele>185.2998</ele>
        <time>2026-05-15T11:26:36+02:00</time>
      </trkpt>
      <trkpt lat="47.19518" lon="5.38442">
        <ele>186</ele>
        <time>2026-05-15T11:26:37+02:00</time>
      </trkpt>
      <trkpt lat="47.19521" lon="5.38446">
        <ele>185.40039</ele>
        <time>2026-05-15T11:26:38+02:00</time>
      </trkpt>
      <trkpt lat="47.19524" lon="5.38449">
        <ele>185.40039</ele>
        <time>2026-05-15T11:26:39+02:00</time>
      </trkpt>
      <trkpt lat="47.19527" lon="5.38453">
        <ele>185.2002</ele>
        <time>2026-05-15T11:26:40+02:00</time>
      </trkpt>
      <trkpt lat="47.1953" lon="5.38457">
        <ele>185.2002</ele>
        <time>2026-05-15T11:26:41+02:00</time>
      </trkpt>
      <trkpt lat="47.19533" lon="5.38461">
        <ele>185</ele>
        <time>2026-05-15T11:26:42+02:00</time>
      </trkpt>
      <trkpt lat="47.19537" lon="5.38465">
        <ele>185</ele>
        <time>2026-05-15T11:26:43+02:00</time>
      </trkpt>
      <trkpt lat="47.1954" lon="5.38468">
        <ele>185.10059</ele>
        <time>2026-05-15T11:26:44+02:00</time>
      </trkpt>
      <trkpt lat="47.19544" lon="5.38472">
        <ele>184.90039</ele>
        <time>2026-05-15T11:26:45+02:00</time>
      </trkpt>
      <trkpt lat="47.19547" lon="5.38476">
        <ele>185.10059</ele>
        <time>2026-05-15T11:26:46+02:00</time>
      </trkpt>
      <trkpt lat="47.19551" lon="5.38479">
        <ele>184.90039</ele>
        <time>2026-05-15T11:26:47+02:00</time>
      </trkpt>
      <trkpt lat="47.19555" lon="5.38483">
        <ele>184.60059</ele>
        <time>2026-05-15T11:26:48+02:00</time>
      </trkpt>
      <trkpt lat="47.19558" lon="5.38486">
        <ele>184.7998</ele>
        <time>2026-05-15T11:26:49+02:00</time>
      </trkpt>
      <trkpt lat="47.19562" lon="5.38489">
        <ele>184.5</ele>
        <time>2026-05-15T11:26:50+02:00</time>
      </trkpt>
      <trkpt lat="47.19566" lon="5.38492">
        <ele>184.5</ele>
        <time>2026-05-15T11:26:51+02:00</time>
      </trkpt>
      <trkpt lat="47.19569" lon="5.38495">
        <ele>184.60059</ele>
        <time>2026-05-15T11:26:52+02:00</time>
      </trkpt>
      <trkpt lat="47.19573" lon="5.38497">
        <ele>184.40039</ele>
        <time>2026-05-15T11:26:53+02:00</time>
      </trkpt>
      <trkpt lat="47.19576" lon="5.385">
        <ele>184.40039</ele>
        <time>2026-05-15T11:26:54+02:00</time>
      </trkpt>
      <trkpt lat="47.1958" lon="5.38502">
        <ele>184.7002</ele>
        <time>2026-05-15T11:26:55+02:00</time>
      </trkpt>
      <trkpt lat="47.19583" lon="5.38504">
        <ele>184.7002</ele>
        <time>2026-05-15T11:26:56+02:00</time>
      </trkpt>
      <trkpt lat="47.19587" lon="5.38506">
        <ele>184.40039</ele>
        <time>2026-05-15T11:26:57+02:00</time>
      </trkpt>
      <trkpt lat="47.1959" lon="5.38508">
        <ele>183.7998</ele>
        <time>2026-05-15T11:26:58+02:00</time>
      </trkpt>
      <trkpt lat="47.19593" lon="5.38511">
        <ele>184.2998</ele>
        <time>2026-05-15T11:26:59+02:00</time>
      </trkpt>
      <trkpt lat="47.19596" lon="5.38513">
        <ele>183.7998</ele>
        <time>2026-05-15T11:27:00+02:00</time>
      </trkpt>
      <trkpt lat="47.196" lon="5.38516">
        <ele>183.7998</ele>
        <time>2026-05-15T11:27:01+02:00</time>
      </trkpt>
      <trkpt lat="47.19603" lon="5.38519">
        <ele>184.2998</ele>
        <time>2026-05-15T11:27:02+02:00</time>
      </trkpt>
      <trkpt lat="47.19605" lon="5.38522">
        <ele>184.2998</ele>
        <time>2026-05-15T11:27:03+02:00</time>
      </trkpt>
      <trkpt lat="47.19608" lon="5.38524">
        <ele>183.90039</ele>
        <time>2026-05-15T11:27:04+02:00</time>
      </trkpt>
      <trkpt lat="47.19611" lon="5.38526">
        <ele>183.90039</ele>
        <time>2026-05-15T11:27:05+02:00</time>
      </trkpt>
      <trkpt lat="47.19613" lon="5.38528">
        <ele>184.2002</ele>
        <time>2026-05-15T11:27:06+02:00</time>
      </trkpt>
      <trkpt lat="47.19615" lon="5.38531">
        <ele>184.2002</ele>
        <time>2026-05-15T11:27:07+02:00</time>
      </trkpt>
      <trkpt lat="47.19618" lon="5.38533">
        <ele>184.2002</ele>
        <time>2026-05-15T11:27:08+02:00</time>
      </trkpt>
      <trkpt lat="47.19621" lon="5.38536">
        <ele>183.2998</ele>
        <time>2026-05-15T11:27:09+02:00</time>
      </trkpt>
      <trkpt lat="47.19625" lon="5.38538">
        <ele>183.2002</ele>
        <time>2026-05-15T11:27:10+02:00</time>
      </trkpt>
      <trkpt lat="47.19628" lon="5.3854">
        <ele>183.2002</ele>
        <time>2026-05-15T11:27:11+02:00</time>
      </trkpt>
      <trkpt lat="47.19632" lon="5.38542">
        <ele>183</ele>
        <time>2026-05-15T11:27:12+02:00</time>
      </trkpt>
      <trkpt lat="47.19636" lon="5.38544">
        <ele>182.7998</ele>
        <time>2026-05-15T11:27:13+02:00</time>
      </trkpt>
      <trkpt lat="47.19639" lon="5.38546">
        <ele>183.60059</ele>
        <time>2026-05-15T11:27:14+02:00</time>
      </trkpt>
      <trkpt lat="47.19644" lon="5.38549">
        <ele>183.2998</ele>
        <time>2026-05-15T11:27:15+02:00</time>
      </trkpt>
      <trkpt lat="47.19648" lon="5.38551">
        <ele>183</ele>
        <time>2026-05-15T11:27:16+02:00</time>
      </trkpt>
      <trkpt lat="47.19652" lon="5.38554">
        <ele>183.7002</ele>
        <time>2026-05-15T11:27:17+02:00</time>
      </trkpt>
      <trkpt lat="47.19657" lon="5.38556">
        <ele>183.2998</ele>
        <time>2026-05-15T11:27:18+02:00</time>
      </trkpt>
      <trkpt lat="47.19661" lon="5.38558">
        <ele>183</ele>
        <time>2026-05-15T11:27:19+02:00</time>
      </trkpt>
      <trkpt lat="47.19666" lon="5.3856">
        <ele>182.7002</ele>
        <time>2026-05-15T11:27:20+02:00</time>
      </trkpt>
      <trkpt lat="47.19671" lon="5.38562">
        <ele>183.2002</ele>
        <time>2026-05-15T11:27:21+02:00</time>
      </trkpt>
      <trkpt lat="47.19676" lon="5.38564">
        <ele>183</ele>
        <time>2026-05-15T11:27:22+02:00</time>
      </trkpt>
      <trkpt lat="47.19681" lon="5.38566">
        <ele>182.90039</ele>
        <time>2026-05-15T11:27:23+02:00</time>
      </trkpt>
      <trkpt lat="47.19686" lon="5.38569">
        <ele>182.7998</ele>
        <time>2026-05-15T11:27:24+02:00</time>
      </trkpt>
      <trkpt lat="47.1969" lon="5.38571">
        <ele>183.7998</ele>
        <time>2026-05-15T11:27:25+02:00</time>
      </trkpt>
      <trkpt lat="47.19695" lon="5.38574">
        <ele>183.7998</ele>
        <time>2026-05-15T11:27:26+02:00</time>
      </trkpt>
      <trkpt lat="47.197" lon="5.38577">
        <ele>183.7998</ele>
        <time>2026-05-15T11:27:27+02:00</time>
      </trkpt>
      <trkpt lat="47.19705" lon="5.38579">
        <ele>183.7002</ele>
        <time>2026-05-15T11:27:28+02:00</time>
      </trkpt>
      <trkpt lat="47.1971" lon="5.38583">
        <ele>184.90039</ele>
        <time>2026-05-15T11:27:29+02:00</time>
      </trkpt>
      <trkpt lat="47.19714" lon="5.38586">
        <ele>184.7998</ele>
        <time>2026-05-15T11:27:30+02:00</time>
      </trkpt>
      <trkpt lat="47.19718" lon="5.38589">
        <ele>185.2998</ele>
        <time>2026-05-15T11:27:31+02:00</time>
      </trkpt>
      <trkpt lat="47.19723" lon="5.38592">
        <ele>185.2998</ele>
        <time>2026-05-15T11:27:32+02:00</time>
      </trkpt>
      <trkpt lat="47.19728" lon="5.38595">
        <ele>184.7998</ele>
        <time>2026-05-15T11:27:33+02:00</time>
      </trkpt>
      <trkpt lat="47.19732" lon="5.38598">
        <ele>184.2998</ele>
        <time>2026-05-15T11:27:34+02:00</time>
      </trkpt>
      <trkpt lat="47.19737" lon="5.38601">
        <ele>183.40039</ele>
        <time>2026-05-15T11:27:35+02:00</time>
      </trkpt>
      <trkpt lat="47.19742" lon="5.38603">
        <ele>182.90039</ele>
        <time>2026-05-15T11:27:36+02:00</time>
      </trkpt>
      <trkpt lat="47.19747" lon="5.38606">
        <ele>183.7002</ele>
        <time>2026-05-15T11:27:37+02:00</time>
      </trkpt>
      <trkpt lat="47.19751" lon="5.38609">
        <ele>183.7002</ele>
        <time>2026-05-15T11:27:38+02:00</time>
      </trkpt>
      <trkpt lat="47.19756" lon="5.38611">
        <ele>183.7998</ele>
        <time>2026-05-15T11:27:39+02:00</time>
      </trkpt>
      <trkpt lat="47.1976" lon="5.38614">
        <ele>184.5</ele>
        <time>2026-05-15T11:27:40+02:00</time>
      </trkpt>
      <trkpt lat="47.19764" lon="5.38618">
        <ele>184.5</ele>
        <time>2026-05-15T11:27:41+02:00</time>
      </trkpt>
      <trkpt lat="47.19768" lon="5.38623">
        <ele>184.5</ele>
        <time>2026-05-15T11:27:42+02:00</time>
      </trkpt>
      <trkpt lat="47.19769" lon="5.38626">
        <ele>184.5</ele>
        <time>2026-05-15T11:27:43+02:00</time>
      </trkpt>
      <trkpt lat="47.19771" lon="5.38637">
        <ele>184.2002</ele>
        <time>2026-05-15T11:27:44+02:00</time>
      </trkpt>
      <trkpt lat="47.1977" lon="5.38644">
        <ele>184.2998</ele>
        <time>2026-05-15T11:27:45+02:00</time>
      </trkpt>
      <trkpt lat="47.19769" lon="5.38651">
        <ele>184</ele>
        <time>2026-05-15T11:27:46+02:00</time>
      </trkpt>
      <trkpt lat="47.19766" lon="5.38657">
        <ele>183.7998</ele>
        <time>2026-05-15T11:27:47+02:00</time>
      </trkpt>
      <trkpt lat="47.19763" lon="5.38663">
        <ele>183.90039</ele>
        <time>2026-05-15T11:27:48+02:00</time>
      </trkpt>
      <trkpt lat="47.1976" lon="5.38668">
        <ele>183.7002</ele>
        <time>2026-05-15T11:27:49+02:00</time>
      </trkpt>
      <trkpt lat="47.19757" lon="5.38674">
        <ele>183.7002</ele>
        <time>2026-05-15T11:27:50+02:00</time>
      </trkpt>
      <trkpt lat="47.19753" lon="5.38679">
        <ele>183.7002</ele>
        <time>2026-05-15T11:27:51+02:00</time>
      </trkpt>
      <trkpt lat="47.1975" lon="5.38683">
        <ele>183.60059</ele>
        <time>2026-05-15T11:27:52+02:00</time>
      </trkpt>
      <trkpt lat="47.19747" lon="5.38688">
        <ele>183.60059</ele>
        <time>2026-05-15T11:27:53+02:00</time>
      </trkpt>
      <trkpt lat="47.19743" lon="5.38692">
        <ele>183.60059</ele>
        <time>2026-05-15T11:27:54+02:00</time>
      </trkpt>
      <trkpt lat="47.19739" lon="5.38696">
        <ele>183.7002</ele>
        <time>2026-05-15T11:27:55+02:00</time>
      </trkpt>
      <trkpt lat="47.19734" lon="5.38698">
        <ele>183.90039</ele>
        <time>2026-05-15T11:27:56+02:00</time>
      </trkpt>
      <trkpt lat="47.19731" lon="5.38701">
        <ele>183.7002</ele>
        <time>2026-05-15T11:27:57+02:00</time>
      </trkpt>
      <trkpt lat="47.19727" lon="5.38703">
        <ele>183.90039</ele>
        <time>2026-05-15T11:27:58+02:00</time>
      </trkpt>
      <trkpt lat="47.19724" lon="5.38705">
        <ele>183.90039</ele>
        <time>2026-05-15T11:27:59+02:00</time>
      </trkpt>
      <trkpt lat="47.1972" lon="5.38707">
        <ele>184.10059</ele>
        <time>2026-05-15T11:28:00+02:00</time>
      </trkpt>
      <trkpt lat="47.19716" lon="5.38709">
        <ele>184.2002</ele>
        <time>2026-05-15T11:28:01+02:00</time>
      </trkpt>
      <trkpt lat="47.19713" lon="5.38711">
        <ele>184.2002</ele>
        <time>2026-05-15T11:28:02+02:00</time>
      </trkpt>
      <trkpt lat="47.1971" lon="5.38713">
        <ele>184.40039</ele>
        <time>2026-05-15T11:28:03+02:00</time>
      </trkpt>
      <trkpt lat="47.19706" lon="5.38718">
        <ele>184.60059</ele>
        <time>2026-05-15T11:28:04+02:00</time>
      </trkpt>
      <trkpt lat="47.19705" lon="5.38723">
        <ele>184.60059</ele>
        <time>2026-05-15T11:28:05+02:00</time>
      </trkpt>
      <trkpt lat="47.19705" lon="5.38728">
        <ele>184.60059</ele>
        <time>2026-05-15T11:28:06+02:00</time>
      </trkpt>
      <trkpt lat="47.19707" lon="5.38734">
        <ele>184.40039</ele>
        <time>2026-05-15T11:28:07+02:00</time>
      </trkpt>
      <trkpt lat="47.19711" lon="5.38752">
        <ele>184.60059</ele>
        <time>2026-05-15T11:28:08+02:00</time>
      </trkpt>
      <trkpt lat="47.19713" lon="5.38758">
        <ele>184.2998</ele>
        <time>2026-05-15T11:28:09+02:00</time>
      </trkpt>
      <trkpt lat="47.19714" lon="5.38765">
        <ele>184.40039</ele>
        <time>2026-05-15T11:28:10+02:00</time>
      </trkpt>
      <trkpt lat="47.19716" lon="5.38771">
        <ele>184.60059</ele>
        <time>2026-05-15T11:28:11+02:00</time>
      </trkpt>
      <trkpt lat="47.19718" lon="5.38777">
        <ele>184.60059</ele>
        <time>2026-05-15T11:28:12+02:00</time>
      </trkpt>
      <trkpt lat="47.19719" lon="5.38783">
        <ele>184.60059</ele>
        <time>2026-05-15T11:28:13+02:00</time>
      </trkpt>
      <trkpt lat="47.19721" lon="5.38789">
        <ele>184.7002</ele>
        <time>2026-05-15T11:28:14+02:00</time>
      </trkpt>
      <trkpt lat="47.19722" lon="5.38795">
        <ele>184.90039</ele>
        <time>2026-05-15T11:28:15+02:00</time>
      </trkpt>
      <trkpt lat="47.19723" lon="5.388">
        <ele>184.90039</ele>
        <time>2026-05-15T11:28:16+02:00</time>
      </trkpt>
      <trkpt lat="47.19724" lon="5.38806">
        <ele>185</ele>
        <time>2026-05-15T11:28:17+02:00</time>
      </trkpt>
      <trkpt lat="47.19726" lon="5.38811">
        <ele>185.2002</ele>
        <time>2026-05-15T11:28:18+02:00</time>
      </trkpt>
      <trkpt lat="47.19727" lon="5.38816">
        <ele>185.2002</ele>
        <time>2026-05-15T11:28:19+02:00</time>
      </trkpt>
      <trkpt lat="47.1973" lon="5.3882">
        <ele>185.2998</ele>
        <time>2026-05-15T11:28:20+02:00</time>
      </trkpt>
      <trkpt lat="47.19733" lon="5.38823">
        <ele>185.2998</ele>
        <time>2026-05-15T11:28:21+02:00</time>
      </trkpt>
      <trkpt lat="47.19737" lon="5.38823">
        <ele>185.2002</ele>
        <time>2026-05-15T11:28:22+02:00</time>
      </trkpt>
      <trkpt lat="47.19742" lon="5.38821">
        <ele>185.2002</ele>
        <time>2026-05-15T11:28:23+02:00</time>
      </trkpt>
      <trkpt lat="47.19746" lon="5.3882">
        <ele>185.2002</ele>
        <time>2026-05-15T11:28:24+02:00</time>
      </trkpt>
      <trkpt lat="47.1975" lon="5.38818">
        <ele>184.7998</ele>
        <time>2026-05-15T11:28:25+02:00</time>
      </trkpt>
      <trkpt lat="47.19753" lon="5.38817">
        <ele>184.7998</ele>
        <time>2026-05-15T11:28:26+02:00</time>
      </trkpt>
      <trkpt lat="47.19757" lon="5.38815">
        <ele>184.7998</ele>
        <time>2026-05-15T11:28:27+02:00</time>
      </trkpt>
      <trkpt lat="47.19761" lon="5.38815">
        <ele>184.7002</ele>
        <time>2026-05-15T11:28:28+02:00</time>
      </trkpt>
      <trkpt lat="47.19764" lon="5.38817">
        <ele>184.7002</ele>
        <time>2026-05-15T11:28:29+02:00</time>
      </trkpt>
      <trkpt lat="47.19768" lon="5.38821">
        <ele>184.90039</ele>
        <time>2026-05-15T11:28:30+02:00</time>
      </trkpt>
      <trkpt lat="47.19771" lon="5.38826">
        <ele>184.90039</ele>
        <time>2026-05-15T11:28:31+02:00</time>
      </trkpt>
      <trkpt lat="47.19774" lon="5.3883">
        <ele>185.10059</ele>
        <time>2026-05-15T11:28:32+02:00</time>
      </trkpt>
      <trkpt lat="47.19777" lon="5.38834">
        <ele>185</ele>
        <time>2026-05-15T11:28:33+02:00</time>
      </trkpt>
      <trkpt lat="47.1978" lon="5.38839">
        <ele>185.2998</ele>
        <time>2026-05-15T11:28:34+02:00</time>
      </trkpt>
      <trkpt lat="47.19783" lon="5.38843">
        <ele>185.2002</ele>
        <time>2026-05-15T11:28:35+02:00</time>
      </trkpt>
      <trkpt lat="47.19787" lon="5.38847">
        <ele>185.40039</ele>
        <time>2026-05-15T11:28:36+02:00</time>
      </trkpt>
      <trkpt lat="47.1979" lon="5.38852">
        <ele>185.2998</ele>
        <time>2026-05-15T11:28:37+02:00</time>
      </trkpt>
      <trkpt lat="47.19793" lon="5.38856">
        <ele>185.5</ele>
        <time>2026-05-15T11:28:38+02:00</time>
      </trkpt>
      <trkpt lat="47.19796" lon="5.3886">
        <ele>185.40039</ele>
        <time>2026-05-15T11:28:39+02:00</time>
      </trkpt>
      <trkpt lat="47.19799" lon="5.38864">
        <ele>185.60059</ele>
        <time>2026-05-15T11:28:40+02:00</time>
      </trkpt>
      <trkpt lat="47.19802" lon="5.38868">
        <ele>185.5</ele>
        <time>2026-05-15T11:28:41+02:00</time>
      </trkpt>
      <trkpt lat="47.19805" lon="5.38872">
        <ele>185.7002</ele>
        <time>2026-05-15T11:28:42+02:00</time>
      </trkpt>
      <trkpt lat="47.19808" lon="5.38876">
        <ele>185.5</ele>
        <time>2026-05-15T11:28:43+02:00</time>
      </trkpt>
      <trkpt lat="47.19811" lon="5.3888">
        <ele>185.7002</ele>
        <time>2026-05-15T11:28:44+02:00</time>
      </trkpt>
      <trkpt lat="47.19814" lon="5.38884">
        <ele>185.60059</ele>
        <time>2026-05-15T11:28:45+02:00</time>
      </trkpt>
      <trkpt lat="47.19817" lon="5.38888">
        <ele>185.60059</ele>
        <time>2026-05-15T11:28:46+02:00</time>
      </trkpt>
      <trkpt lat="47.19819" lon="5.38893">
        <ele>185.60059</ele>
        <time>2026-05-15T11:28:47+02:00</time>
      </trkpt>
      <trkpt lat="47.19822" lon="5.38897">
        <ele>185.7998</ele>
        <time>2026-05-15T11:28:48+02:00</time>
      </trkpt>
      <trkpt lat="47.19824" lon="5.389">
        <ele>185.60059</ele>
        <time>2026-05-15T11:28:49+02:00</time>
      </trkpt>
      <trkpt lat="47.19827" lon="5.38902">
        <ele>185.60059</ele>
        <time>2026-05-15T11:28:50+02:00</time>
      </trkpt>
      <trkpt lat="47.1983" lon="5.38902">
        <ele>185.5</ele>
        <time>2026-05-15T11:28:51+02:00</time>
      </trkpt>
      <trkpt lat="47.19834" lon="5.38902">
        <ele>185.5</ele>
        <time>2026-05-15T11:28:52+02:00</time>
      </trkpt>
      <trkpt lat="47.19837" lon="5.389">
        <ele>185.2998</ele>
        <time>2026-05-15T11:28:53+02:00</time>
      </trkpt>
      <trkpt lat="47.1984" lon="5.38897">
        <ele>185.2998</ele>
        <time>2026-05-15T11:28:54+02:00</time>
      </trkpt>
      <trkpt lat="47.19843" lon="5.38893">
        <ele>185</ele>
        <time>2026-05-15T11:28:55+02:00</time>
      </trkpt>
      <trkpt lat="47.19846" lon="5.38889">
        <ele>185</ele>
        <time>2026-05-15T11:28:56+02:00</time>
      </trkpt>
      <trkpt lat="47.19848" lon="5.38884">
        <ele>184.7002</ele>
        <time>2026-05-15T11:28:57+02:00</time>
      </trkpt>
      <trkpt lat="47.19851" lon="5.38879">
        <ele>184.5</ele>
        <time>2026-05-15T11:28:58+02:00</time>
      </trkpt>
      <trkpt lat="47.19855" lon="5.38875">
        <ele>184.2998</ele>
        <time>2026-05-15T11:28:59+02:00</time>
      </trkpt>
      <trkpt lat="47.19858" lon="5.38871">
        <ele>184.2002</ele>
        <time>2026-05-15T11:29:00+02:00</time>
      </trkpt>
      <trkpt lat="47.19861" lon="5.38866">
        <ele>184</ele>
        <time>2026-05-15T11:29:01+02:00</time>
      </trkpt>
      <trkpt lat="47.19864" lon="5.38861">
        <ele>183.7998</ele>
        <time>2026-05-15T11:29:02+02:00</time>
      </trkpt>
      <trkpt lat="47.19867" lon="5.38857">
        <ele>183.7998</ele>
        <time>2026-05-15T11:29:03+02:00</time>
      </trkpt>
      <trkpt lat="47.19871" lon="5.38852">
        <ele>183.5</ele>
        <time>2026-05-15T11:29:04+02:00</time>
      </trkpt>
      <trkpt lat="47.19874" lon="5.38847">
        <ele>183.5</ele>
        <time>2026-05-15T11:29:05+02:00</time>
      </trkpt>
      <trkpt lat="47.19877" lon="5.38843">
        <ele>183.2002</ele>
        <time>2026-05-15T11:29:06+02:00</time>
      </trkpt>
      <trkpt lat="47.1988" lon="5.38838">
        <ele>183.2002</ele>
        <time>2026-05-15T11:29:07+02:00</time>
      </trkpt>
      <trkpt lat="47.19883" lon="5.38833">
        <ele>183</ele>
        <time>2026-05-15T11:29:08+02:00</time>
      </trkpt>
      <trkpt lat="47.19887" lon="5.38829">
        <ele>182.90039</ele>
        <time>2026-05-15T11:29:09+02:00</time>
      </trkpt>
      <trkpt lat="47.1989" lon="5.38824">
        <ele>182.7998</ele>
        <time>2026-05-15T11:29:10+02:00</time>
      </trkpt>
      <trkpt lat="47.19892" lon="5.38821">
        <ele>182.7998</ele>
        <time>2026-05-15T11:29:11+02:00</time>
      </trkpt>
      <trkpt lat="47.19893" lon="5.38819">
        <ele>182.60059</ele>
        <time>2026-05-15T11:29:12+02:00</time>
      </trkpt>
      <trkpt lat="47.19893" lon="5.38818">
        <ele>182.60059</ele>
        <time>2026-05-15T11:29:13+02:00</time>
      </trkpt>
      <trkpt lat="47.19893" lon="5.38818">
        <ele>182.60059</ele>
        <time>2026-05-15T11:29:14+02:00</time>
      </trkpt>
      <trkpt lat="47.19893" lon="5.38818">
        <ele>182.60059</ele>
        <time>2026-05-15T11:29:15+02:00</time>
      </trkpt>
      <trkpt lat="47.19893" lon="5.38818">
        <ele>182.60059</ele>
        <time>2026-05-15T11:29:16+02:00</time>
      </trkpt>
      <trkpt lat="47.19893" lon="5.38818">
        <ele>182.60059</ele>
        <time>2026-05-15T11:29:17+02:00</time>
      </trkpt>
      <trkpt lat="47.19904" lon="5.38801">
        <ele>182.40039</ele>
        <time>2026-05-15T11:29:25+02:00</time>
      </trkpt>
      <trkpt lat="47.19908" lon="5.38797">
        <ele>182.40039</ele>
        <time>2026-05-15T11:29:26+02:00</time>
      </trkpt>
      <trkpt lat="47.19911" lon="5.38792">
        <ele>182.40039</ele>
        <time>2026-05-15T11:29:27+02:00</time>
      </trkpt>
      <trkpt lat="47.19914" lon="5.38788">
        <ele>182.40039</ele>
        <time>2026-05-15T11:29:28+02:00</time>
      </trkpt>
      <trkpt lat="47.19917" lon="5.38783">
        <ele>182.40039</ele>
        <time>2026-05-15T11:29:29+02:00</time>
      </trkpt>
      <trkpt lat="47.19921" lon="5.38778">
        <ele>182.40039</ele>
        <time>2026-05-15T11:29:30+02:00</time>
      </trkpt>
      <trkpt lat="47.19925" lon="5.38773">
        <ele>182.40039</ele>
        <time>2026-05-15T11:29:31+02:00</time>
      </trkpt>
      <trkpt lat="47.19928" lon="5.38768">
        <ele>182.5</ele>
        <time>2026-05-15T11:29:32+02:00</time>
      </trkpt>
      <trkpt lat="47.19932" lon="5.38763">
        <ele>182.5</ele>
        <time>2026-05-15T11:29:33+02:00</time>
      </trkpt>
      <trkpt lat="47.19936" lon="5.38759">
        <ele>182.5</ele>
        <time>2026-05-15T11:29:34+02:00</time>
      </trkpt>
      <trkpt lat="47.1994" lon="5.38754">
        <ele>182.60059</ele>
        <time>2026-05-15T11:29:35+02:00</time>
      </trkpt>
      <trkpt lat="47.19944" lon="5.38749">
        <ele>182.60059</ele>
        <time>2026-05-15T11:29:36+02:00</time>
      </trkpt>
      <trkpt lat="47.19947" lon="5.38745">
        <ele>182.7002</ele>
        <time>2026-05-15T11:29:37+02:00</time>
      </trkpt>
      <trkpt lat="47.19951" lon="5.38742">
        <ele>182.60059</ele>
        <time>2026-05-15T11:29:38+02:00</time>
      </trkpt>
      <trkpt lat="47.19954" lon="5.3874">
        <ele>182.7002</ele>
        <time>2026-05-15T11:29:39+02:00</time>
      </trkpt>
      <trkpt lat="47.19958" lon="5.38738">
        <ele>182.7998</ele>
        <time>2026-05-15T11:29:40+02:00</time>
      </trkpt>
      <trkpt lat="47.19961" lon="5.38738">
        <ele>182.7998</ele>
        <time>2026-05-15T11:29:41+02:00</time>
      </trkpt>
      <trkpt lat="47.19965" lon="5.3874">
        <ele>182.90039</ele>
        <time>2026-05-15T11:29:42+02:00</time>
      </trkpt>
      <trkpt lat="47.19969" lon="5.38742">
        <ele>183</ele>
        <time>2026-05-15T11:29:43+02:00</time>
      </trkpt>
      <trkpt lat="47.19973" lon="5.38746">
        <ele>183.10059</ele>
        <time>2026-05-15T11:29:44+02:00</time>
      </trkpt>
      <trkpt lat="47.19977" lon="5.38748">
        <ele>183</ele>
        <time>2026-05-15T11:29:45+02:00</time>
      </trkpt>
      <trkpt lat="47.19981" lon="5.38751">
        <ele>183</ele>
        <time>2026-05-15T11:29:46+02:00</time>
      </trkpt>
      <trkpt lat="47.19985" lon="5.38754">
        <ele>183</ele>
        <time>2026-05-15T11:29:47+02:00</time>
      </trkpt>
      <trkpt lat="47.19988" lon="5.38757">
        <ele>182.7002</ele>
        <time>2026-05-15T11:29:48+02:00</time>
      </trkpt>
      <trkpt lat="47.19991" lon="5.3876">
        <ele>182.7998</ele>
        <time>2026-05-15T11:29:49+02:00</time>
      </trkpt>
      <trkpt lat="47.19994" lon="5.38764">
        <ele>182.7002</ele>
        <time>2026-05-15T11:29:50+02:00</time>
      </trkpt>
      <trkpt lat="47.19996" lon="5.38769">
        <ele>182.90039</ele>
        <time>2026-05-15T11:29:51+02:00</time>
      </trkpt>
      <trkpt lat="47.19996" lon="5.38774">
        <ele>182.90039</ele>
        <time>2026-05-15T11:29:52+02:00</time>
      </trkpt>
      <trkpt lat="47.19994" lon="5.38778">
        <ele>183.10059</ele>
        <time>2026-05-15T11:29:53+02:00</time>
      </trkpt>
      <trkpt lat="47.19991" lon="5.38782">
        <ele>183.2002</ele>
        <time>2026-05-15T11:29:54+02:00</time>
      </trkpt>
      <trkpt lat="47.19989" lon="5.38786">
        <ele>183.2998</ele>
        <time>2026-05-15T11:29:55+02:00</time>
      </trkpt>
      <trkpt lat="47.19986" lon="5.38791">
        <ele>183.40039</ele>
        <time>2026-05-15T11:29:56+02:00</time>
      </trkpt>
      <trkpt lat="47.19984" lon="5.38796">
        <ele>183.5</ele>
        <time>2026-05-15T11:29:57+02:00</time>
      </trkpt>
      <trkpt lat="47.19982" lon="5.38802">
        <ele>183.5</ele>
        <time>2026-05-15T11:29:58+02:00</time>
      </trkpt>
      <trkpt lat="47.1998" lon="5.38808">
        <ele>183.5</ele>
        <time>2026-05-15T11:29:59+02:00</time>
      </trkpt>
      <trkpt lat="47.19978" lon="5.38815">
        <ele>183.5</ele>
        <time>2026-05-15T11:30:00+02:00</time>
      </trkpt>
      <trkpt lat="47.19977" lon="5.38821">
        <ele>183.60059</ele>
        <time>2026-05-15T11:30:01+02:00</time>
      </trkpt>
      <trkpt lat="47.19977" lon="5.38828">
        <ele>183.60059</ele>
        <time>2026-05-15T11:30:02+02:00</time>
      </trkpt>
      <trkpt lat="47.19976" lon="5.38836">
        <ele>183.60059</ele>
        <time>2026-05-15T11:30:03+02:00</time>
      </trkpt>
      <trkpt lat="47.19976" lon="5.38843">
        <ele>183.60059</ele>
        <time>2026-05-15T11:30:04+02:00</time>
      </trkpt>
      <trkpt lat="47.19975" lon="5.3885">
        <ele>183.60059</ele>
        <time>2026-05-15T11:30:05+02:00</time>
      </trkpt>
      <trkpt lat="47.19975" lon="5.38857">
        <ele>183.60059</ele>
        <time>2026-05-15T11:30:06+02:00</time>
      </trkpt>
      <trkpt lat="47.19974" lon="5.38864">
        <ele>183.5</ele>
        <time>2026-05-15T11:30:07+02:00</time>
      </trkpt>
      <trkpt lat="47.19974" lon="5.38871">
        <ele>183.5</ele>
        <time>2026-05-15T11:30:08+02:00</time>
      </trkpt>
      <trkpt lat="47.19973" lon="5.38878">
        <ele>183.5</ele>
        <time>2026-05-15T11:30:09+02:00</time>
      </trkpt>
      <trkpt lat="47.19972" lon="5.38884">
        <ele>183.5</ele>
        <time>2026-05-15T11:30:10+02:00</time>
      </trkpt>
      <trkpt lat="47.19969" lon="5.3889">
        <ele>183.5</ele>
        <time>2026-05-15T11:30:11+02:00</time>
      </trkpt>
      <trkpt lat="47.19967" lon="5.38896">
        <ele>183.5</ele>
        <time>2026-05-15T11:30:12+02:00</time>
      </trkpt>
      <trkpt lat="47.19964" lon="5.38902">
        <ele>183.5</ele>
        <time>2026-05-15T11:30:13+02:00</time>
      </trkpt>
      <trkpt lat="47.19962" lon="5.38908">
        <ele>183.60059</ele>
        <time>2026-05-15T11:30:14+02:00</time>
      </trkpt>
      <trkpt lat="47.19959" lon="5.38913">
        <ele>183.60059</ele>
        <time>2026-05-15T11:30:15+02:00</time>
      </trkpt>
      <trkpt lat="47.19956" lon="5.38919">
        <ele>183.7998</ele>
        <time>2026-05-15T11:30:16+02:00</time>
      </trkpt>
      <trkpt lat="47.19954" lon="5.38924">
        <ele>183.90039</ele>
        <time>2026-05-15T11:30:17+02:00</time>
      </trkpt>
      <trkpt lat="47.19951" lon="5.3893">
        <ele>183.90039</ele>
        <time>2026-05-15T11:30:18+02:00</time>
      </trkpt>
      <trkpt lat="47.19948" lon="5.38936">
        <ele>184.10059</ele>
        <time>2026-05-15T11:30:19+02:00</time>
      </trkpt>
      <trkpt lat="47.19945" lon="5.38942">
        <ele>184.2998</ele>
        <time>2026-05-15T11:30:20+02:00</time>
      </trkpt>
      <trkpt lat="47.19943" lon="5.38947">
        <ele>184.2998</ele>
        <time>2026-05-15T11:30:21+02:00</time>
      </trkpt>
      <trkpt lat="47.1994" lon="5.38953">
        <ele>184.5</ele>
        <time>2026-05-15T11:30:22+02:00</time>
      </trkpt>
      <trkpt lat="47.19938" lon="5.38959">
        <ele>184.7998</ele>
        <time>2026-05-15T11:30:23+02:00</time>
      </trkpt>
      <trkpt lat="47.19935" lon="5.38966">
        <ele>185</ele>
        <time>2026-05-15T11:30:24+02:00</time>
      </trkpt>
      <trkpt lat="47.19933" lon="5.38972">
        <ele>185.2002</ele>
        <time>2026-05-15T11:30:25+02:00</time>
      </trkpt>
      <trkpt lat="47.19931" lon="5.38978">
        <ele>185.2998</ele>
        <time>2026-05-15T11:30:26+02:00</time>
      </trkpt>
      <trkpt lat="47.19929" lon="5.38985">
        <ele>185.5</ele>
        <time>2026-05-15T11:30:27+02:00</time>
      </trkpt>
      <trkpt lat="47.19928" lon="5.38991">
        <ele>185.60059</ele>
        <time>2026-05-15T11:30:28+02:00</time>
      </trkpt>
      <trkpt lat="47.19927" lon="5.38998">
        <ele>185.90039</ele>
        <time>2026-05-15T11:30:29+02:00</time>
      </trkpt>
      <trkpt lat="47.19926" lon="5.39005">
        <ele>185.90039</ele>
        <time>2026-05-15T11:30:30+02:00</time>
      </trkpt>
      <trkpt lat="47.19926" lon="5.39013">
        <ele>185.90039</ele>
        <time>2026-05-15T11:30:31+02:00</time>
      </trkpt>
      <trkpt lat="47.19925" lon="5.3902">
        <ele>185.7998</ele>
        <time>2026-05-15T11:30:32+02:00</time>
      </trkpt>
      <trkpt lat="47.19925" lon="5.39027">
        <ele>185.7002</ele>
        <time>2026-05-15T11:30:33+02:00</time>
      </trkpt>
      <trkpt lat="47.19925" lon="5.39034">
        <ele>185.60059</ele>
        <time>2026-05-15T11:30:34+02:00</time>
      </trkpt>
      <trkpt lat="47.19925" lon="5.39041">
        <ele>185.60059</ele>
        <time>2026-05-15T11:30:35+02:00</time>
      </trkpt>
      <trkpt lat="47.19925" lon="5.39049">
        <ele>185.5</ele>
        <time>2026-05-15T11:30:36+02:00</time>
      </trkpt>
      <trkpt lat="47.19925" lon="5.39056">
        <ele>185.2998</ele>
        <time>2026-05-15T11:30:37+02:00</time>
      </trkpt>
      <trkpt lat="47.19925" lon="5.39063">
        <ele>185.2002</ele>
        <time>2026-05-15T11:30:38+02:00</time>
      </trkpt>
      <trkpt lat="47.19925" lon="5.3907">
        <ele>185.10059</ele>
        <time>2026-05-15T11:30:39+02:00</time>
      </trkpt>
      <trkpt lat="47.19925" lon="5.39077">
        <ele>185</ele>
        <time>2026-05-15T11:30:40+02:00</time>
      </trkpt>
      <trkpt lat="47.19925" lon="5.39084">
        <ele>185</ele>
        <time>2026-05-15T11:30:41+02:00</time>
      </trkpt>
      <trkpt lat="47.19925" lon="5.39091">
        <ele>184.90039</ele>
        <time>2026-05-15T11:30:42+02:00</time>
      </trkpt>
      <trkpt lat="47.19924" lon="5.39098">
        <ele>184.90039</ele>
        <time>2026-05-15T11:30:43+02:00</time>
      </trkpt>
      <trkpt lat="47.19924" lon="5.39105">
        <ele>184.90039</ele>
        <time>2026-05-15T11:30:44+02:00</time>
      </trkpt>
      <trkpt lat="47.19924" lon="5.39112">
        <ele>184.90039</ele>
        <time>2026-05-15T11:30:45+02:00</time>
      </trkpt>
      <trkpt lat="47.19924" lon="5.39119">
        <ele>184.90039</ele>
        <time>2026-05-15T11:30:46+02:00</time>
      </trkpt>
      <trkpt lat="47.19924" lon="5.39126">
        <ele>185</ele>
        <time>2026-05-15T11:30:47+02:00</time>
      </trkpt>
      <trkpt lat="47.19924" lon="5.39133">
        <ele>185</ele>
        <time>2026-05-15T11:30:48+02:00</time>
      </trkpt>
      <trkpt lat="47.19924" lon="5.3914">
        <ele>185.10059</ele>
        <time>2026-05-15T11:30:49+02:00</time>
      </trkpt>
      <trkpt lat="47.19924" lon="5.39147">
        <ele>185.2002</ele>
        <time>2026-05-15T11:30:50+02:00</time>
      </trkpt>
      <trkpt lat="47.19924" lon="5.39153">
        <ele>185.2002</ele>
        <time>2026-05-15T11:30:51+02:00</time>
      </trkpt>
      <trkpt lat="47.19924" lon="5.3916">
        <ele>185.2998</ele>
        <time>2026-05-15T11:30:52+02:00</time>
      </trkpt>
      <trkpt lat="47.19924" lon="5.39166">
        <ele>185.5</ele>
        <time>2026-05-15T11:30:53+02:00</time>
      </trkpt>
      <trkpt lat="47.19924" lon="5.39173">
        <ele>185.7002</ele>
        <time>2026-05-15T11:30:54+02:00</time>
      </trkpt>
      <trkpt lat="47.19924" lon="5.39179">
        <ele>185.7002</ele>
        <time>2026-05-15T11:30:55+02:00</time>
      </trkpt>
      <trkpt lat="47.19924" lon="5.39185">
        <ele>185.7998</ele>
        <time>2026-05-15T11:30:56+02:00</time>
      </trkpt>
      <trkpt lat="47.19924" lon="5.39192">
        <ele>186</ele>
        <time>2026-05-15T11:30:57+02:00</time>
      </trkpt>
      <trkpt lat="47.19923" lon="5.39198">
        <ele>186.2002</ele>
        <time>2026-05-15T11:30:58+02:00</time>
      </trkpt>
      <trkpt lat="47.19923" lon="5.39205">
        <ele>186.2002</ele>
        <time>2026-05-15T11:30:59+02:00</time>
      </trkpt>
      <trkpt lat="47.19923" lon="5.39211">
        <ele>186.40039</ele>
        <time>2026-05-15T11:31:00+02:00</time>
      </trkpt>
      <trkpt lat="47.19922" lon="5.39217">
        <ele>186.7002</ele>
        <time>2026-05-15T11:31:01+02:00</time>
      </trkpt>
      <trkpt lat="47.19922" lon="5.39223">
        <ele>186.7998</ele>
        <time>2026-05-15T11:31:02+02:00</time>
      </trkpt>
      <trkpt lat="47.19921" lon="5.39228">
        <ele>186.7998</ele>
        <time>2026-05-15T11:31:03+02:00</time>
      </trkpt>
      <trkpt lat="47.19921" lon="5.39233">
        <ele>186.90039</ele>
        <time>2026-05-15T11:31:04+02:00</time>
      </trkpt>
      <trkpt lat="47.1992" lon="5.39238">
        <ele>186.90039</ele>
        <time>2026-05-15T11:31:05+02:00</time>
      </trkpt>
      <trkpt lat="47.1992" lon="5.39242">
        <ele>187</ele>
        <time>2026-05-15T11:31:06+02:00</time>
      </trkpt>
      <trkpt lat="47.1992" lon="5.39246">
        <ele>187</ele>
        <time>2026-05-15T11:31:07+02:00</time>
      </trkpt>
      <trkpt lat="47.19922" lon="5.39249">
        <ele>187.10059</ele>
        <time>2026-05-15T11:31:08+02:00</time>
      </trkpt>
      <trkpt lat="47.19925" lon="5.39249">
        <ele>187</ele>
        <time>2026-05-15T11:31:09+02:00</time>
      </trkpt>
      <trkpt lat="47.19927" lon="5.39248">
        <ele>186.90039</ele>
        <time>2026-05-15T11:31:10+02:00</time>
      </trkpt>
      <trkpt lat="47.1993" lon="5.39247">
        <ele>186.7998</ele>
        <time>2026-05-15T11:31:11+02:00</time>
      </trkpt>
      <trkpt lat="47.19933" lon="5.39244">
        <ele>186.7998</ele>
        <time>2026-05-15T11:31:12+02:00</time>
      </trkpt>
      <trkpt lat="47.19936" lon="5.3924">
        <ele>186.7002</ele>
        <time>2026-05-15T11:31:13+02:00</time>
      </trkpt>
      <trkpt lat="47.19939" lon="5.39237">
        <ele>186.60059</ele>
        <time>2026-05-15T11:31:14+02:00</time>
      </trkpt>
      <trkpt lat="47.19943" lon="5.39233">
        <ele>186.5</ele>
        <time>2026-05-15T11:31:15+02:00</time>
      </trkpt>
      <trkpt lat="47.19946" lon="5.3923">
        <ele>186.2998</ele>
        <time>2026-05-15T11:31:16+02:00</time>
      </trkpt>
      <trkpt lat="47.1995" lon="5.39225">
        <ele>186.2998</ele>
        <time>2026-05-15T11:31:17+02:00</time>
      </trkpt>
      <trkpt lat="47.19953" lon="5.39221">
        <ele>186</ele>
        <time>2026-05-15T11:31:18+02:00</time>
      </trkpt>
      <trkpt lat="47.19957" lon="5.39216">
        <ele>186</ele>
        <time>2026-05-15T11:31:19+02:00</time>
      </trkpt>
      <trkpt lat="47.19961" lon="5.39212">
        <ele>185.7998</ele>
        <time>2026-05-15T11:31:20+02:00</time>
      </trkpt>
      <trkpt lat="47.19965" lon="5.39208">
        <ele>185.7002</ele>
        <time>2026-05-15T11:31:21+02:00</time>
      </trkpt>
      <trkpt lat="47.19969" lon="5.39204">
        <ele>185.40039</ele>
        <time>2026-05-15T11:31:22+02:00</time>
      </trkpt>
      <trkpt lat="47.19974" lon="5.392">
        <ele>185.40039</ele>
        <time>2026-05-15T11:31:23+02:00</time>
      </trkpt>
      <trkpt lat="47.19978" lon="5.39196">
        <ele>185.2002</ele>
        <time>2026-05-15T11:31:24+02:00</time>
      </trkpt>
      <trkpt lat="47.19983" lon="5.39193">
        <ele>185.10059</ele>
        <time>2026-05-15T11:31:25+02:00</time>
      </trkpt>
      <trkpt lat="47.19987" lon="5.3919">
        <ele>185</ele>
        <time>2026-05-15T11:31:26+02:00</time>
      </trkpt>
      <trkpt lat="47.19992" lon="5.39187">
        <ele>184.7002</ele>
        <time>2026-05-15T11:31:27+02:00</time>
      </trkpt>
      <trkpt lat="47.19997" lon="5.39186">
        <ele>184.7002</ele>
        <time>2026-05-15T11:31:28+02:00</time>
      </trkpt>
      <trkpt lat="47.20002" lon="5.39184">
        <ele>184.60059</ele>
        <time>2026-05-15T11:31:29+02:00</time>
      </trkpt>
      <trkpt lat="47.20006" lon="5.39183">
        <ele>184.5</ele>
        <time>2026-05-15T11:31:30+02:00</time>
      </trkpt>
      <trkpt lat="47.20011" lon="5.39182">
        <ele>184.40039</ele>
        <time>2026-05-15T11:31:31+02:00</time>
      </trkpt>
      <trkpt lat="47.20016" lon="5.39181">
        <ele>184.2998</ele>
        <time>2026-05-15T11:31:32+02:00</time>
      </trkpt>
      <trkpt lat="47.20022" lon="5.3918">
        <ele>184.2002</ele>
        <time>2026-05-15T11:31:33+02:00</time>
      </trkpt>
      <trkpt lat="47.20027" lon="5.39178">
        <ele>183.90039</ele>
        <time>2026-05-15T11:31:34+02:00</time>
      </trkpt>
      <trkpt lat="47.20031" lon="5.39177">
        <ele>183.90039</ele>
        <time>2026-05-15T11:31:35+02:00</time>
      </trkpt>
      <trkpt lat="47.20036" lon="5.39176">
        <ele>183.7998</ele>
        <time>2026-05-15T11:31:36+02:00</time>
      </trkpt>
      <trkpt lat="47.20041" lon="5.39175">
        <ele>183.7002</ele>
        <time>2026-05-15T11:31:37+02:00</time>
      </trkpt>
      <trkpt lat="47.20046" lon="5.39175">
        <ele>183.60059</ele>
        <time>2026-05-15T11:31:38+02:00</time>
      </trkpt>
      <trkpt lat="47.20051" lon="5.39174">
        <ele>183.5</ele>
        <time>2026-05-15T11:31:39+02:00</time>
      </trkpt>
      <trkpt lat="47.20056" lon="5.39173">
        <ele>183.40039</ele>
        <time>2026-05-15T11:31:40+02:00</time>
      </trkpt>
      <trkpt lat="47.20061" lon="5.39172">
        <ele>183.40039</ele>
        <time>2026-05-15T11:31:41+02:00</time>
      </trkpt>
      <trkpt lat="47.20066" lon="5.39171">
        <ele>183.10059</ele>
        <time>2026-05-15T11:31:42+02:00</time>
      </trkpt>
      <trkpt lat="47.20071" lon="5.3917">
        <ele>183</ele>
        <time>2026-05-15T11:31:43+02:00</time>
      </trkpt>
      <trkpt lat="47.20076" lon="5.39169">
        <ele>182.90039</ele>
        <time>2026-05-15T11:31:44+02:00</time>
      </trkpt>
      <trkpt lat="47.2008" lon="5.39168">
        <ele>182.7998</ele>
        <time>2026-05-15T11:31:45+02:00</time>
      </trkpt>
      <trkpt lat="47.20085" lon="5.39167">
        <ele>182.7998</ele>
        <time>2026-05-15T11:31:46+02:00</time>
      </trkpt>
      <trkpt lat="47.20089" lon="5.39166">
        <ele>182.7998</ele>
        <time>2026-05-15T11:31:47+02:00</time>
      </trkpt>
      <trkpt lat="47.20094" lon="5.39165">
        <ele>182.7998</ele>
        <time>2026-05-15T11:31:48+02:00</time>
      </trkpt>
      <trkpt lat="47.20098" lon="5.39164">
        <ele>182.7998</ele>
        <time>2026-05-15T11:31:49+02:00</time>
      </trkpt>
      <trkpt lat="47.20103" lon="5.39163">
        <ele>182.7998</ele>
        <time>2026-05-15T11:31:50+02:00</time>
      </trkpt>
      <trkpt lat="47.20108" lon="5.39163">
        <ele>182.7998</ele>
        <time>2026-05-15T11:31:51+02:00</time>
      </trkpt>
      <trkpt lat="47.20112" lon="5.39163">
        <ele>182.7002</ele>
        <time>2026-05-15T11:31:52+02:00</time>
      </trkpt>
      <trkpt lat="47.20117" lon="5.39164">
        <ele>182.60059</ele>
        <time>2026-05-15T11:31:53+02:00</time>
      </trkpt>
      <trkpt lat="47.20121" lon="5.39165">
        <ele>182.5</ele>
        <time>2026-05-15T11:31:54+02:00</time>
      </trkpt>
      <trkpt lat="47.20125" lon="5.39166">
        <ele>182.5</ele>
        <time>2026-05-15T11:31:55+02:00</time>
      </trkpt>
      <trkpt lat="47.2013" lon="5.39167">
        <ele>182.5</ele>
        <time>2026-05-15T11:31:56+02:00</time>
      </trkpt>
      <trkpt lat="47.20134" lon="5.39169">
        <ele>182.40039</ele>
        <time>2026-05-15T11:31:57+02:00</time>
      </trkpt>
      <trkpt lat="47.20139" lon="5.39171">
        <ele>182.40039</ele>
        <time>2026-05-15T11:31:58+02:00</time>
      </trkpt>
      <trkpt lat="47.20144" lon="5.39173">
        <ele>182.2998</ele>
        <time>2026-05-15T11:31:59+02:00</time>
      </trkpt>
      <trkpt lat="47.20148" lon="5.39175">
        <ele>182.2998</ele>
        <time>2026-05-15T11:32:00+02:00</time>
      </trkpt>
      <trkpt lat="47.20153" lon="5.39177">
        <ele>182.2998</ele>
        <time>2026-05-15T11:32:01+02:00</time>
      </trkpt>
      <trkpt lat="47.20158" lon="5.39179">
        <ele>182.2002</ele>
        <time>2026-05-15T11:32:02+02:00</time>
      </trkpt>
      <trkpt lat="47.20162" lon="5.39182">
        <ele>182.2002</ele>
        <time>2026-05-15T11:32:03+02:00</time>
      </trkpt>
      <trkpt lat="47.20167" lon="5.39184">
        <ele>182.10059</ele>
        <time>2026-05-15T11:32:04+02:00</time>
      </trkpt>
      <trkpt lat="47.20172" lon="5.39186">
        <ele>182.10059</ele>
        <time>2026-05-15T11:32:05+02:00</time>
      </trkpt>
      <trkpt lat="47.20176" lon="5.39189">
        <ele>182.10059</ele>
        <time>2026-05-15T11:32:06+02:00</time>
      </trkpt>
      <trkpt lat="47.20181" lon="5.39192">
        <ele>182.10059</ele>
        <time>2026-05-15T11:32:07+02:00</time>
      </trkpt>
      <trkpt lat="47.20186" lon="5.39195">
        <ele>182.2002</ele>
        <time>2026-05-15T11:32:08+02:00</time>
      </trkpt>
      <trkpt lat="47.2019" lon="5.39198">
        <ele>182.10059</ele>
        <time>2026-05-15T11:32:09+02:00</time>
      </trkpt>
      <trkpt lat="47.20195" lon="5.39201">
        <ele>182.2002</ele>
        <time>2026-05-15T11:32:10+02:00</time>
      </trkpt>
      <trkpt lat="47.202" lon="5.39204">
        <ele>182.2998</ele>
        <time>2026-05-15T11:32:11+02:00</time>
      </trkpt>
      <trkpt lat="47.20205" lon="5.39207">
        <ele>182.2998</ele>
        <time>2026-05-15T11:32:12+02:00</time>
      </trkpt>
      <trkpt lat="47.20209" lon="5.39211">
        <ele>182.5</ele>
        <time>2026-05-15T11:32:13+02:00</time>
      </trkpt>
      <trkpt lat="47.20214" lon="5.39215">
        <ele>182.5</ele>
        <time>2026-05-15T11:32:14+02:00</time>
      </trkpt>
      <trkpt lat="47.20218" lon="5.39219">
        <ele>182.5</ele>
        <time>2026-05-15T11:32:15+02:00</time>
      </trkpt>
      <trkpt lat="47.20223" lon="5.39223">
        <ele>182.60059</ele>
        <time>2026-05-15T11:32:16+02:00</time>
      </trkpt>
      <trkpt lat="47.20226" lon="5.39227">
        <ele>182.7002</ele>
        <time>2026-05-15T11:32:17+02:00</time>
      </trkpt>
      <trkpt lat="47.20231" lon="5.39231">
        <ele>182.7002</ele>
        <time>2026-05-15T11:32:18+02:00</time>
      </trkpt>
      <trkpt lat="47.20235" lon="5.39235">
        <ele>182.7998</ele>
        <time>2026-05-15T11:32:19+02:00</time>
      </trkpt>
      <trkpt lat="47.20239" lon="5.39239">
        <ele>182.7998</ele>
        <time>2026-05-15T11:32:20+02:00</time>
      </trkpt>
      <trkpt lat="47.20243" lon="5.39243">
        <ele>182.7998</ele>
        <time>2026-05-15T11:32:21+02:00</time>
      </trkpt>
      <trkpt lat="47.20247" lon="5.39247">
        <ele>182.7998</ele>
        <time>2026-05-15T11:32:22+02:00</time>
      </trkpt>
      <trkpt lat="47.2025" lon="5.39251">
        <ele>182.7998</ele>
        <time>2026-05-15T11:32:23+02:00</time>
      </trkpt>
      <trkpt lat="47.20254" lon="5.39255">
        <ele>182.7998</ele>
        <time>2026-05-15T11:32:24+02:00</time>
      </trkpt>
      <trkpt lat="47.20258" lon="5.39259">
        <ele>182.7002</ele>
        <time>2026-05-15T11:32:25+02:00</time>
      </trkpt>
      <trkpt lat="47.20262" lon="5.39263">
        <ele>182.7002</ele>
        <time>2026-05-15T11:32:26+02:00</time>
      </trkpt>
      <trkpt lat="47.20265" lon="5.39267">
        <ele>182.7002</ele>
        <time>2026-05-15T11:32:27+02:00</time>
      </trkpt>
      <trkpt lat="47.20269" lon="5.39271">
        <ele>182.60059</ele>
        <time>2026-05-15T11:32:28+02:00</time>
      </trkpt>
      <trkpt lat="47.20273" lon="5.39275">
        <ele>182.5</ele>
        <time>2026-05-15T11:32:29+02:00</time>
      </trkpt>
      <trkpt lat="47.20276" lon="5.39279">
        <ele>182.5</ele>
        <time>2026-05-15T11:32:30+02:00</time>
      </trkpt>
      <trkpt lat="47.2028" lon="5.39283">
        <ele>182.40039</ele>
        <time>2026-05-15T11:32:31+02:00</time>
      </trkpt>
      <trkpt lat="47.20284" lon="5.39287">
        <ele>182.40039</ele>
        <time>2026-05-15T11:32:32+02:00</time>
      </trkpt>
      <trkpt lat="47.20287" lon="5.39292">
        <ele>182.2998</ele>
        <time>2026-05-15T11:32:33+02:00</time>
      </trkpt>
      <trkpt lat="47.20291" lon="5.39296">
        <ele>182.2998</ele>
        <time>2026-05-15T11:32:34+02:00</time>
      </trkpt>
      <trkpt lat="47.20295" lon="5.393">
        <ele>182.2998</ele>
        <time>2026-05-15T11:32:35+02:00</time>
      </trkpt>
      <trkpt lat="47.20298" lon="5.39304">
        <ele>182.2998</ele>
        <time>2026-05-15T11:32:36+02:00</time>
      </trkpt>
      <trkpt lat="47.20302" lon="5.39308">
        <ele>182.2002</ele>
        <time>2026-05-15T11:32:37+02:00</time>
      </trkpt>
      <trkpt lat="47.20306" lon="5.39312">
        <ele>182.2002</ele>
        <time>2026-05-15T11:32:38+02:00</time>
      </trkpt>
      <trkpt lat="47.20309" lon="5.39316">
        <ele>182.2002</ele>
        <time>2026-05-15T11:32:39+02:00</time>
      </trkpt>
      <trkpt lat="47.20313" lon="5.3932">
        <ele>182.2002</ele>
        <time>2026-05-15T11:32:40+02:00</time>
      </trkpt>
      <trkpt lat="47.20316" lon="5.39324">
        <ele>182.2002</ele>
        <time>2026-05-15T11:32:41+02:00</time>
      </trkpt>
      <trkpt lat="47.2032" lon="5.39328">
        <ele>182.2998</ele>
        <time>2026-05-15T11:32:42+02:00</time>
      </trkpt>
      <trkpt lat="47.20324" lon="5.39332">
        <ele>182.2998</ele>
        <time>2026-05-15T11:32:43+02:00</time>
      </trkpt>
      <trkpt lat="47.20328" lon="5.39336">
        <ele>182.2998</ele>
        <time>2026-05-15T11:32:44+02:00</time>
      </trkpt>
      <trkpt lat="47.20331" lon="5.39341">
        <ele>182.40039</ele>
        <time>2026-05-15T11:32:45+02:00</time>
      </trkpt>
      <trkpt lat="47.20335" lon="5.39345">
        <ele>182.40039</ele>
        <time>2026-05-15T11:32:46+02:00</time>
      </trkpt>
      <trkpt lat="47.20339" lon="5.39349">
        <ele>182.5</ele>
        <time>2026-05-15T11:32:47+02:00</time>
      </trkpt>
      <trkpt lat="47.20343" lon="5.39353">
        <ele>182.60059</ele>
        <time>2026-05-15T11:32:48+02:00</time>
      </trkpt>
      <trkpt lat="47.20346" lon="5.39357">
        <ele>182.60059</ele>
        <time>2026-05-15T11:32:49+02:00</time>
      </trkpt>
      <trkpt lat="47.2035" lon="5.39361">
        <ele>182.7002</ele>
        <time>2026-05-15T11:32:50+02:00</time>
      </trkpt>
      <trkpt lat="47.20354" lon="5.39365">
        <ele>182.7002</ele>
        <time>2026-05-15T11:32:51+02:00</time>
      </trkpt>
      <trkpt lat="47.20358" lon="5.39369">
        <ele>182.7998</ele>
        <time>2026-05-15T11:32:52+02:00</time>
      </trkpt>
      <trkpt lat="47.20362" lon="5.39373">
        <ele>182.7998</ele>
        <time>2026-05-15T11:32:53+02:00</time>
      </trkpt>
      <trkpt lat="47.20365" lon="5.39377">
        <ele>182.90039</ele>
        <time>2026-05-15T11:32:54+02:00</time>
      </trkpt>
      <trkpt lat="47.20369" lon="5.39381">
        <ele>183</ele>
        <time>2026-05-15T11:32:55+02:00</time>
      </trkpt>
      <trkpt lat="47.20373" lon="5.39386">
        <ele>183</ele>
        <time>2026-05-15T11:32:56+02:00</time>
      </trkpt>
      <trkpt lat="47.20377" lon="5.3939">
        <ele>183</ele>
        <time>2026-05-15T11:32:57+02:00</time>
      </trkpt>
      <trkpt lat="47.20381" lon="5.39394">
        <ele>183</ele>
        <time>2026-05-15T11:32:58+02:00</time>
      </trkpt>
      <trkpt lat="47.20384" lon="5.39399">
        <ele>183</ele>
        <time>2026-05-15T11:32:59+02:00</time>
      </trkpt>
      <trkpt lat="47.20388" lon="5.39403">
        <ele>183</ele>
        <time>2026-05-15T11:33:00+02:00</time>
      </trkpt>
      <trkpt lat="47.20392" lon="5.39407">
        <ele>183</ele>
        <time>2026-05-15T11:33:01+02:00</time>
      </trkpt>
      <trkpt lat="47.20396" lon="5.39411">
        <ele>183.10059</ele>
        <time>2026-05-15T11:33:02+02:00</time>
      </trkpt>
      <trkpt lat="47.204" lon="5.39416">
        <ele>183</ele>
        <time>2026-05-15T11:33:03+02:00</time>
      </trkpt>
      <trkpt lat="47.20404" lon="5.39421">
        <ele>183</ele>
        <time>2026-05-15T11:33:04+02:00</time>
      </trkpt>
      <trkpt lat="47.20408" lon="5.39425">
        <ele>183</ele>
        <time>2026-05-15T11:33:05+02:00</time>
      </trkpt>
      <trkpt lat="47.20411" lon="5.3943">
        <ele>182.90039</ele>
        <time>2026-05-15T11:33:06+02:00</time>
      </trkpt>
      <trkpt lat="47.20415" lon="5.39435">
        <ele>183</ele>
        <time>2026-05-15T11:33:07+02:00</time>
      </trkpt>
      <trkpt lat="47.20419" lon="5.3944">
        <ele>182.90039</ele>
        <time>2026-05-15T11:33:08+02:00</time>
      </trkpt>
      <trkpt lat="47.20423" lon="5.39444">
        <ele>182.90039</ele>
        <time>2026-05-15T11:33:09+02:00</time>
      </trkpt>
      <trkpt lat="47.20427" lon="5.39448">
        <ele>182.7998</ele>
        <time>2026-05-15T11:33:10+02:00</time>
      </trkpt>
      <trkpt lat="47.2043" lon="5.39452">
        <ele>182.90039</ele>
        <time>2026-05-15T11:33:11+02:00</time>
      </trkpt>
      <trkpt lat="47.20434" lon="5.39456">
        <ele>182.7998</ele>
        <time>2026-05-15T11:33:12+02:00</time>
      </trkpt>
      <trkpt lat="47.20437" lon="5.39461">
        <ele>182.90039</ele>
        <time>2026-05-15T11:33:13+02:00</time>
      </trkpt>
      <trkpt lat="47.2044" lon="5.39465">
        <ele>182.7998</ele>
        <time>2026-05-15T11:33:14+02:00</time>
      </trkpt>
      <trkpt lat="47.20444" lon="5.3947">
        <ele>182.7998</ele>
        <time>2026-05-15T11:33:15+02:00</time>
      </trkpt>
      <trkpt lat="47.20447" lon="5.39474">
        <ele>182.7998</ele>
        <time>2026-05-15T11:33:16+02:00</time>
      </trkpt>
      <trkpt lat="47.20451" lon="5.39479">
        <ele>182.7998</ele>
        <time>2026-05-15T11:33:17+02:00</time>
      </trkpt>
      <trkpt lat="47.20455" lon="5.39484">
        <ele>182.7002</ele>
        <time>2026-05-15T11:33:18+02:00</time>
      </trkpt>
      <trkpt lat="47.20458" lon="5.39489">
        <ele>182.60059</ele>
        <time>2026-05-15T11:33:19+02:00</time>
      </trkpt>
      <trkpt lat="47.20462" lon="5.39493">
        <ele>182.7002</ele>
        <time>2026-05-15T11:33:20+02:00</time>
      </trkpt>
      <trkpt lat="47.20466" lon="5.39498">
        <ele>182.60059</ele>
        <time>2026-05-15T11:33:21+02:00</time>
      </trkpt>
      <trkpt lat="47.2047" lon="5.39502">
        <ele>182.60059</ele>
        <time>2026-05-15T11:33:22+02:00</time>
      </trkpt>
      <trkpt lat="47.20475" lon="5.39507">
        <ele>182.60059</ele>
        <time>2026-05-15T11:33:23+02:00</time>
      </trkpt>
      <trkpt lat="47.20479" lon="5.39511">
        <ele>182.60059</ele>
        <time>2026-05-15T11:33:24+02:00</time>
      </trkpt>
      <trkpt lat="47.20483" lon="5.39516">
        <ele>182.5</ele>
        <time>2026-05-15T11:33:25+02:00</time>
      </trkpt>
      <trkpt lat="47.20487" lon="5.39521">
        <ele>182.5</ele>
        <time>2026-05-15T11:33:26+02:00</time>
      </trkpt>
      <trkpt lat="47.20491" lon="5.39526">
        <ele>182.40039</ele>
        <time>2026-05-15T11:33:27+02:00</time>
      </trkpt>
      <trkpt lat="47.20495" lon="5.39531">
        <ele>182.40039</ele>
        <time>2026-05-15T11:33:28+02:00</time>
      </trkpt>
      <trkpt lat="47.20498" lon="5.39536">
        <ele>182.2002</ele>
        <time>2026-05-15T11:33:29+02:00</time>
      </trkpt>
      <trkpt lat="47.20502" lon="5.39541">
        <ele>182</ele>
        <time>2026-05-15T11:33:30+02:00</time>
      </trkpt>
      <trkpt lat="47.20505" lon="5.39547">
        <ele>182.10059</ele>
        <time>2026-05-15T11:33:31+02:00</time>
      </trkpt>
      <trkpt lat="47.20509" lon="5.39552">
        <ele>181.90039</ele>
        <time>2026-05-15T11:33:32+02:00</time>
      </trkpt>
      <trkpt lat="47.20512" lon="5.39558">
        <ele>181.7998</ele>
        <time>2026-05-15T11:33:33+02:00</time>
      </trkpt>
      <trkpt lat="47.20516" lon="5.39564">
        <ele>181.7998</ele>
        <time>2026-05-15T11:33:34+02:00</time>
      </trkpt>
      <trkpt lat="47.20519" lon="5.39569">
        <ele>181.7002</ele>
        <time>2026-05-15T11:33:35+02:00</time>
      </trkpt>
      <trkpt lat="47.20522" lon="5.39574">
        <ele>181.7002</ele>
        <time>2026-05-15T11:33:36+02:00</time>
      </trkpt>
      <trkpt lat="47.20526" lon="5.39579">
        <ele>181.60059</ele>
        <time>2026-05-15T11:33:37+02:00</time>
      </trkpt>
      <trkpt lat="47.20529" lon="5.39585">
        <ele>181.5</ele>
        <time>2026-05-15T11:33:38+02:00</time>
      </trkpt>
      <trkpt lat="47.20533" lon="5.3959">
        <ele>181.5</ele>
        <time>2026-05-15T11:33:39+02:00</time>
      </trkpt>
      <trkpt lat="47.20536" lon="5.39595">
        <ele>181.40039</ele>
        <time>2026-05-15T11:33:40+02:00</time>
      </trkpt>
      <trkpt lat="47.2054" lon="5.396">
        <ele>181.40039</ele>
        <time>2026-05-15T11:33:41+02:00</time>
      </trkpt>
      <trkpt lat="47.20543" lon="5.39606">
        <ele>181.40039</ele>
        <time>2026-05-15T11:33:42+02:00</time>
      </trkpt>
      <trkpt lat="47.20546" lon="5.39611">
        <ele>181.2998</ele>
        <time>2026-05-15T11:33:43+02:00</time>
      </trkpt>
      <trkpt lat="47.2055" lon="5.39616">
        <ele>181.2998</ele>
        <time>2026-05-15T11:33:44+02:00</time>
      </trkpt>
      <trkpt lat="47.20553" lon="5.39621">
        <ele>181.2998</ele>
        <time>2026-05-15T11:33:45+02:00</time>
      </trkpt>
      <trkpt lat="47.20556" lon="5.39627">
        <ele>181.2998</ele>
        <time>2026-05-15T11:33:46+02:00</time>
      </trkpt>
      <trkpt lat="47.20559" lon="5.39632">
        <ele>181.2998</ele>
        <time>2026-05-15T11:33:47+02:00</time>
      </trkpt>
      <trkpt lat="47.20562" lon="5.39637">
        <ele>181.2998</ele>
        <time>2026-05-15T11:33:48+02:00</time>
      </trkpt>
      <trkpt lat="47.20566" lon="5.39642">
        <ele>181.40039</ele>
        <time>2026-05-15T11:33:49+02:00</time>
      </trkpt>
      <trkpt lat="47.20569" lon="5.39647">
        <ele>181.2998</ele>
        <time>2026-05-15T11:33:50+02:00</time>
      </trkpt>
      <trkpt lat="47.20572" lon="5.39652">
        <ele>181.40039</ele>
        <time>2026-05-15T11:33:51+02:00</time>
      </trkpt>
      <trkpt lat="47.20575" lon="5.39657">
        <ele>181.40039</ele>
        <time>2026-05-15T11:33:52+02:00</time>
      </trkpt>
      <trkpt lat="47.20579" lon="5.39663">
        <ele>181.5</ele>
        <time>2026-05-15T11:33:53+02:00</time>
      </trkpt>
      <trkpt lat="47.20582" lon="5.39668">
        <ele>181.5</ele>
        <time>2026-05-15T11:33:54+02:00</time>
      </trkpt>
      <trkpt lat="47.20585" lon="5.39673">
        <ele>181.5</ele>
        <time>2026-05-15T11:33:55+02:00</time>
      </trkpt>
      <trkpt lat="47.20588" lon="5.39678">
        <ele>181.60059</ele>
        <time>2026-05-15T11:33:56+02:00</time>
      </trkpt>
      <trkpt lat="47.20591" lon="5.39683">
        <ele>181.60059</ele>
        <time>2026-05-15T11:33:57+02:00</time>
      </trkpt>
      <trkpt lat="47.20595" lon="5.39688">
        <ele>181.7002</ele>
        <time>2026-05-15T11:33:58+02:00</time>
      </trkpt>
      <trkpt lat="47.20598" lon="5.39692">
        <ele>181.7002</ele>
        <time>2026-05-15T11:33:59+02:00</time>
      </trkpt>
      <trkpt lat="47.20601" lon="5.39697">
        <ele>181.7998</ele>
        <time>2026-05-15T11:34:00+02:00</time>
      </trkpt>
      <trkpt lat="47.20605" lon="5.39702">
        <ele>181.7998</ele>
        <time>2026-05-15T11:34:01+02:00</time>
      </trkpt>
      <trkpt lat="47.20609" lon="5.39706">
        <ele>181.90039</ele>
        <time>2026-05-15T11:34:02+02:00</time>
      </trkpt>
      <trkpt lat="47.20612" lon="5.39711">
        <ele>181.90039</ele>
        <time>2026-05-15T11:34:03+02:00</time>
      </trkpt>
      <trkpt lat="47.20616" lon="5.39715">
        <ele>182</ele>
        <time>2026-05-15T11:34:04+02:00</time>
      </trkpt>
      <trkpt lat="47.2062" lon="5.3972">
        <ele>182</ele>
        <time>2026-05-15T11:34:05+02:00</time>
      </trkpt>
      <trkpt lat="47.20623" lon="5.39724">
        <ele>182.10059</ele>
        <time>2026-05-15T11:34:06+02:00</time>
      </trkpt>
      <trkpt lat="47.20627" lon="5.39729">
        <ele>182.10059</ele>
        <time>2026-05-15T11:34:07+02:00</time>
      </trkpt>
      <trkpt lat="47.20631" lon="5.39733">
        <ele>182.2002</ele>
        <time>2026-05-15T11:34:08+02:00</time>
      </trkpt>
      <trkpt lat="47.20635" lon="5.39738">
        <ele>182.2002</ele>
        <time>2026-05-15T11:34:09+02:00</time>
      </trkpt>
      <trkpt lat="47.20638" lon="5.39742">
        <ele>182.2002</ele>
        <time>2026-05-15T11:34:10+02:00</time>
      </trkpt>
      <trkpt lat="47.20642" lon="5.39747">
        <ele>182.2998</ele>
        <time>2026-05-15T11:34:11+02:00</time>
      </trkpt>
      <trkpt lat="47.20645" lon="5.39751">
        <ele>182.2998</ele>
        <time>2026-05-15T11:34:12+02:00</time>
      </trkpt>
      <trkpt lat="47.20649" lon="5.39755">
        <ele>182.2998</ele>
        <time>2026-05-15T11:34:13+02:00</time>
      </trkpt>
      <trkpt lat="47.20652" lon="5.3976">
        <ele>182.2998</ele>
        <time>2026-05-15T11:34:14+02:00</time>
      </trkpt>
      <trkpt lat="47.20656" lon="5.39764">
        <ele>182.40039</ele>
        <time>2026-05-15T11:34:15+02:00</time>
      </trkpt>
      <trkpt lat="47.20659" lon="5.39768">
        <ele>182.40039</ele>
        <time>2026-05-15T11:34:16+02:00</time>
      </trkpt>
      <trkpt lat="47.20662" lon="5.39773">
        <ele>182.5</ele>
        <time>2026-05-15T11:34:17+02:00</time>
      </trkpt>
      <trkpt lat="47.20666" lon="5.39777">
        <ele>182.5</ele>
        <time>2026-05-15T11:34:18+02:00</time>
      </trkpt>
      <trkpt lat="47.2067" lon="5.39782">
        <ele>182.60059</ele>
        <time>2026-05-15T11:34:19+02:00</time>
      </trkpt>
      <trkpt lat="47.20673" lon="5.39786">
        <ele>182.60059</ele>
        <time>2026-05-15T11:34:20+02:00</time>
      </trkpt>
      <trkpt lat="47.20677" lon="5.39791">
        <ele>182.7002</ele>
        <time>2026-05-15T11:34:21+02:00</time>
      </trkpt>
      <trkpt lat="47.2068" lon="5.39795">
        <ele>182.7002</ele>
        <time>2026-05-15T11:34:22+02:00</time>
      </trkpt>
      <trkpt lat="47.20684" lon="5.398">
        <ele>182.7002</ele>
        <time>2026-05-15T11:34:23+02:00</time>
      </trkpt>
      <trkpt lat="47.20688" lon="5.39804">
        <ele>182.7002</ele>
        <time>2026-05-15T11:34:24+02:00</time>
      </trkpt>
      <trkpt lat="47.20691" lon="5.39808">
        <ele>182.7002</ele>
        <time>2026-05-15T11:34:25+02:00</time>
      </trkpt>
      <trkpt lat="47.20694" lon="5.39813">
        <ele>182.7002</ele>
        <time>2026-05-15T11:34:26+02:00</time>
      </trkpt>
      <trkpt lat="47.20698" lon="5.39817">
        <ele>182.7002</ele>
        <time>2026-05-15T11:34:27+02:00</time>
      </trkpt>
      <trkpt lat="47.20701" lon="5.39822">
        <ele>182.7002</ele>
        <time>2026-05-15T11:34:28+02:00</time>
      </trkpt>
      <trkpt lat="47.20704" lon="5.39826">
        <ele>182.60059</ele>
        <time>2026-05-15T11:34:29+02:00</time>
      </trkpt>
      <trkpt lat="47.20708" lon="5.39831">
        <ele>182.60059</ele>
        <time>2026-05-15T11:34:30+02:00</time>
      </trkpt>
      <trkpt lat="47.20712" lon="5.39835">
        <ele>182.5</ele>
        <time>2026-05-15T11:34:31+02:00</time>
      </trkpt>
      <trkpt lat="47.20715" lon="5.39839">
        <ele>182.5</ele>
        <time>2026-05-15T11:34:32+02:00</time>
      </trkpt>
      <trkpt lat="47.20719" lon="5.39844">
        <ele>182.5</ele>
        <time>2026-05-15T11:34:33+02:00</time>
      </trkpt>
      <trkpt lat="47.20722" lon="5.39848">
        <ele>182.40039</ele>
        <time>2026-05-15T11:34:34+02:00</time>
      </trkpt>
      <trkpt lat="47.20726" lon="5.39853">
        <ele>182.40039</ele>
        <time>2026-05-15T11:34:35+02:00</time>
      </trkpt>
      <trkpt lat="47.2073" lon="5.39857">
        <ele>182.40039</ele>
        <time>2026-05-15T11:34:36+02:00</time>
      </trkpt>
      <trkpt lat="47.20733" lon="5.39861">
        <ele>182.40039</ele>
        <time>2026-05-15T11:34:37+02:00</time>
      </trkpt>
      <trkpt lat="47.20736" lon="5.39865">
        <ele>182.40039</ele>
        <time>2026-05-15T11:34:38+02:00</time>
      </trkpt>
      <trkpt lat="47.2074" lon="5.3987">
        <ele>182.40039</ele>
        <time>2026-05-15T11:34:39+02:00</time>
      </trkpt>
      <trkpt lat="47.20743" lon="5.39874">
        <ele>182.40039</ele>
        <time>2026-05-15T11:34:40+02:00</time>
      </trkpt>
      <trkpt lat="47.20746" lon="5.39879">
        <ele>182.40039</ele>
        <time>2026-05-15T11:34:41+02:00</time>
      </trkpt>
      <trkpt lat="47.20749" lon="5.39883">
        <ele>182.40039</ele>
        <time>2026-05-15T11:34:42+02:00</time>
      </trkpt>
      <trkpt lat="47.20752" lon="5.39887">
        <ele>182.5</ele>
        <time>2026-05-15T11:34:43+02:00</time>
      </trkpt>
      <trkpt lat="47.20756" lon="5.39892">
        <ele>182.5</ele>
        <time>2026-05-15T11:34:44+02:00</time>
      </trkpt>
      <trkpt lat="47.20759" lon="5.39896">
        <ele>182.5</ele>
        <time>2026-05-15T11:34:45+02:00</time>
      </trkpt>
      <trkpt lat="47.20762" lon="5.399">
        <ele>182.60059</ele>
        <time>2026-05-15T11:34:46+02:00</time>
      </trkpt>
      <trkpt lat="47.20765" lon="5.39905">
        <ele>182.60059</ele>
        <time>2026-05-15T11:34:47+02:00</time>
      </trkpt>
      <trkpt lat="47.20768" lon="5.39909">
        <ele>182.7002</ele>
        <time>2026-05-15T11:34:48+02:00</time>
      </trkpt>
      <trkpt lat="47.20771" lon="5.39914">
        <ele>182.7002</ele>
        <time>2026-05-15T11:34:49+02:00</time>
      </trkpt>
      <trkpt lat="47.20774" lon="5.39918">
        <ele>182.7998</ele>
        <time>2026-05-15T11:34:50+02:00</time>
      </trkpt>
      <trkpt lat="47.20777" lon="5.39923">
        <ele>182.7998</ele>
        <time>2026-05-15T11:34:51+02:00</time>
      </trkpt>
      <trkpt lat="47.2078" lon="5.39928">
        <ele>182.90039</ele>
        <time>2026-05-15T11:34:52+02:00</time>
      </trkpt>
      <trkpt lat="47.20784" lon="5.39932">
        <ele>182.90039</ele>
        <time>2026-05-15T11:34:53+02:00</time>
      </trkpt>
      <trkpt lat="47.20787" lon="5.39937">
        <ele>183</ele>
        <time>2026-05-15T11:34:54+02:00</time>
      </trkpt>
      <trkpt lat="47.2079" lon="5.39942">
        <ele>183</ele>
        <time>2026-05-15T11:34:55+02:00</time>
      </trkpt>
      <trkpt lat="47.20793" lon="5.39946">
        <ele>183.10059</ele>
        <time>2026-05-15T11:34:56+02:00</time>
      </trkpt>
      <trkpt lat="47.20796" lon="5.39951">
        <ele>183.10059</ele>
        <time>2026-05-15T11:34:57+02:00</time>
      </trkpt>
      <trkpt lat="47.208" lon="5.39955">
        <ele>183.10059</ele>
        <time>2026-05-15T11:34:58+02:00</time>
      </trkpt>
      <trkpt lat="47.20803" lon="5.3996">
        <ele>183.2002</ele>
        <time>2026-05-15T11:34:59+02:00</time>
      </trkpt>
      <trkpt lat="47.20806" lon="5.39964">
        <ele>183.10059</ele>
        <time>2026-05-15T11:35:00+02:00</time>
      </trkpt>
      <trkpt lat="47.20809" lon="5.39969">
        <ele>183.2002</ele>
        <time>2026-05-15T11:35:01+02:00</time>
      </trkpt>
      <trkpt lat="47.20813" lon="5.39974">
        <ele>183.10059</ele>
        <time>2026-05-15T11:35:02+02:00</time>
      </trkpt>
      <trkpt lat="47.20816" lon="5.39978">
        <ele>183.2002</ele>
        <time>2026-05-15T11:35:03+02:00</time>
      </trkpt>
      <trkpt lat="47.20819" lon="5.39983">
        <ele>183.10059</ele>
        <time>2026-05-15T11:35:04+02:00</time>
      </trkpt>
      <trkpt lat="47.20822" lon="5.39988">
        <ele>183</ele>
        <time>2026-05-15T11:35:05+02:00</time>
      </trkpt>
      <trkpt lat="47.20826" lon="5.39992">
        <ele>183</ele>
        <time>2026-05-15T11:35:06+02:00</time>
      </trkpt>
      <trkpt lat="47.20829" lon="5.39997">
        <ele>182.90039</ele>
        <time>2026-05-15T11:35:07+02:00</time>
      </trkpt>
      <trkpt lat="47.20833" lon="5.40002">
        <ele>182.90039</ele>
        <time>2026-05-15T11:35:08+02:00</time>
      </trkpt>
      <trkpt lat="47.20836" lon="5.40006">
        <ele>182.7998</ele>
        <time>2026-05-15T11:35:09+02:00</time>
      </trkpt>
      <trkpt lat="47.20839" lon="5.40011">
        <ele>182.7998</ele>
        <time>2026-05-15T11:35:10+02:00</time>
      </trkpt>
      <trkpt lat="47.20842" lon="5.40016">
        <ele>182.60059</ele>
        <time>2026-05-15T11:35:11+02:00</time>
      </trkpt>
      <trkpt lat="47.20846" lon="5.40021">
        <ele>182.40039</ele>
        <time>2026-05-15T11:35:12+02:00</time>
      </trkpt>
      <trkpt lat="47.20849" lon="5.40025">
        <ele>182.40039</ele>
        <time>2026-05-15T11:35:13+02:00</time>
      </trkpt>
      <trkpt lat="47.20852" lon="5.4003">
        <ele>182.2002</ele>
        <time>2026-05-15T11:35:14+02:00</time>
      </trkpt>
      <trkpt lat="47.20855" lon="5.40035">
        <ele>182.2002</ele>
        <time>2026-05-15T11:35:15+02:00</time>
      </trkpt>
      <trkpt lat="47.20859" lon="5.40039">
        <ele>182</ele>
        <time>2026-05-15T11:35:16+02:00</time>
      </trkpt>
      <trkpt lat="47.20862" lon="5.40044">
        <ele>182</ele>
        <time>2026-05-15T11:35:17+02:00</time>
      </trkpt>
      <trkpt lat="47.20865" lon="5.40049">
        <ele>181.7998</ele>
        <time>2026-05-15T11:35:18+02:00</time>
      </trkpt>
      <trkpt lat="47.20868" lon="5.40053">
        <ele>181.7998</ele>
        <time>2026-05-15T11:35:19+02:00</time>
      </trkpt>
      <trkpt lat="47.20871" lon="5.40058">
        <ele>181.7002</ele>
        <time>2026-05-15T11:35:20+02:00</time>
      </trkpt>
      <trkpt lat="47.20875" lon="5.40062">
        <ele>181.7002</ele>
        <time>2026-05-15T11:35:21+02:00</time>
      </trkpt>
      <trkpt lat="47.20878" lon="5.40067">
        <ele>181.5</ele>
        <time>2026-05-15T11:35:22+02:00</time>
      </trkpt>
      <trkpt lat="47.20881" lon="5.40071">
        <ele>181.5</ele>
        <time>2026-05-15T11:35:23+02:00</time>
      </trkpt>
      <trkpt lat="47.20884" lon="5.40076">
        <ele>181.40039</ele>
        <time>2026-05-15T11:35:24+02:00</time>
      </trkpt>
      <trkpt lat="47.20888" lon="5.4008">
        <ele>181.40039</ele>
        <time>2026-05-15T11:35:25+02:00</time>
      </trkpt>
      <trkpt lat="47.20891" lon="5.40085">
        <ele>181.2998</ele>
        <time>2026-05-15T11:35:26+02:00</time>
      </trkpt>
      <trkpt lat="47.20894" lon="5.40089">
        <ele>181.2998</ele>
        <time>2026-05-15T11:35:27+02:00</time>
      </trkpt>
      <trkpt lat="47.20897" lon="5.40094">
        <ele>181.2998</ele>
        <time>2026-05-15T11:35:28+02:00</time>
      </trkpt>
      <trkpt lat="47.209" lon="5.40098">
        <ele>181.2998</ele>
        <time>2026-05-15T11:35:29+02:00</time>
      </trkpt>
      <trkpt lat="47.20903" lon="5.40103">
        <ele>181.40039</ele>
        <time>2026-05-15T11:35:30+02:00</time>
      </trkpt>
      <trkpt lat="47.20906" lon="5.40107">
        <ele>181.5</ele>
        <time>2026-05-15T11:35:31+02:00</time>
      </trkpt>
      <trkpt lat="47.20909" lon="5.40111">
        <ele>181.5</ele>
        <time>2026-05-15T11:35:32+02:00</time>
      </trkpt>
      <trkpt lat="47.20912" lon="5.40116">
        <ele>181.60059</ele>
        <time>2026-05-15T11:35:33+02:00</time>
      </trkpt>
      <trkpt lat="47.20915" lon="5.4012">
        <ele>181.60059</ele>
        <time>2026-05-15T11:35:34+02:00</time>
      </trkpt>
      <trkpt lat="47.20918" lon="5.40125">
        <ele>181.7002</ele>
        <time>2026-05-15T11:35:35+02:00</time>
      </trkpt>
      <trkpt lat="47.20921" lon="5.40129">
        <ele>181.7998</ele>
        <time>2026-05-15T11:35:36+02:00</time>
      </trkpt>
      <trkpt lat="47.20924" lon="5.40134">
        <ele>181.90039</ele>
        <time>2026-05-15T11:35:37+02:00</time>
      </trkpt>
      <trkpt lat="47.20926" lon="5.40138">
        <ele>181.90039</ele>
        <time>2026-05-15T11:35:38+02:00</time>
      </trkpt>
      <trkpt lat="47.20929" lon="5.40143">
        <ele>182</ele>
        <time>2026-05-15T11:35:39+02:00</time>
      </trkpt>
      <trkpt lat="47.20932" lon="5.40147">
        <ele>182.10059</ele>
        <time>2026-05-15T11:35:40+02:00</time>
      </trkpt>
      <trkpt lat="47.20935" lon="5.40152">
        <ele>182.2002</ele>
        <time>2026-05-15T11:35:41+02:00</time>
      </trkpt>
      <trkpt lat="47.20938" lon="5.40157">
        <ele>182.2998</ele>
        <time>2026-05-15T11:35:42+02:00</time>
      </trkpt>
      <trkpt lat="47.20941" lon="5.40162">
        <ele>182.2998</ele>
        <time>2026-05-15T11:35:43+02:00</time>
      </trkpt>
      <trkpt lat="47.20944" lon="5.40167">
        <ele>182.5</ele>
        <time>2026-05-15T11:35:44+02:00</time>
      </trkpt>
      <trkpt lat="47.20947" lon="5.40172">
        <ele>182.5</ele>
        <time>2026-05-15T11:35:45+02:00</time>
      </trkpt>
      <trkpt lat="47.20951" lon="5.40177">
        <ele>182.60059</ele>
        <time>2026-05-15T11:35:46+02:00</time>
      </trkpt>
      <trkpt lat="47.20954" lon="5.40182">
        <ele>182.7002</ele>
        <time>2026-05-15T11:35:47+02:00</time>
      </trkpt>
      <trkpt lat="47.20957" lon="5.40186">
        <ele>182.7002</ele>
        <time>2026-05-15T11:35:48+02:00</time>
      </trkpt>
      <trkpt lat="47.2096" lon="5.40191">
        <ele>182.7002</ele>
        <time>2026-05-15T11:35:49+02:00</time>
      </trkpt>
      <trkpt lat="47.20963" lon="5.40196">
        <ele>182.7998</ele>
        <time>2026-05-15T11:35:50+02:00</time>
      </trkpt>
      <trkpt lat="47.20967" lon="5.40201">
        <ele>182.7998</ele>
        <time>2026-05-15T11:35:51+02:00</time>
      </trkpt>
      <trkpt lat="47.2097" lon="5.40206">
        <ele>182.7998</ele>
        <time>2026-05-15T11:35:52+02:00</time>
      </trkpt>
      <trkpt lat="47.20973" lon="5.40211">
        <ele>182.7998</ele>
        <time>2026-05-15T11:35:53+02:00</time>
      </trkpt>
      <trkpt lat="47.20976" lon="5.40216">
        <ele>182.7998</ele>
        <time>2026-05-15T11:35:54+02:00</time>
      </trkpt>
      <trkpt lat="47.20979" lon="5.40221">
        <ele>182.90039</ele>
        <time>2026-05-15T11:35:55+02:00</time>
      </trkpt>
      <trkpt lat="47.20983" lon="5.40226">
        <ele>182.90039</ele>
        <time>2026-05-15T11:35:56+02:00</time>
      </trkpt>
      <trkpt lat="47.20986" lon="5.40231">
        <ele>182.90039</ele>
        <time>2026-05-15T11:35:57+02:00</time>
      </trkpt>
      <trkpt lat="47.20989" lon="5.40236">
        <ele>182.90039</ele>
        <time>2026-05-15T11:35:58+02:00</time>
      </trkpt>
      <trkpt lat="47.20992" lon="5.40241">
        <ele>182.90039</ele>
        <time>2026-05-15T11:35:59+02:00</time>
      </trkpt>
      <trkpt lat="47.20995" lon="5.40246">
        <ele>182.90039</ele>
        <time>2026-05-15T11:36:00+02:00</time>
      </trkpt>
      <trkpt lat="47.20999" lon="5.40251">
        <ele>182.90039</ele>
        <time>2026-05-15T11:36:01+02:00</time>
      </trkpt>
      <trkpt lat="47.21002" lon="5.40256">
        <ele>182.7998</ele>
        <time>2026-05-15T11:36:02+02:00</time>
      </trkpt>
      <trkpt lat="47.21005" lon="5.40261">
        <ele>182.7998</ele>
        <time>2026-05-15T11:36:03+02:00</time>
      </trkpt>
      <trkpt lat="47.21008" lon="5.40266">
        <ele>182.7998</ele>
        <time>2026-05-15T11:36:04+02:00</time>
      </trkpt>
      <trkpt lat="47.21011" lon="5.40271">
        <ele>182.7998</ele>
        <time>2026-05-15T11:36:05+02:00</time>
      </trkpt>
      <trkpt lat="47.21014" lon="5.40276">
        <ele>182.7998</ele>
        <time>2026-05-15T11:36:06+02:00</time>
      </trkpt>
      <trkpt lat="47.21018" lon="5.40281">
        <ele>182.7998</ele>
        <time>2026-05-15T11:36:07+02:00</time>
      </trkpt>
      <trkpt lat="47.21021" lon="5.40286">
        <ele>182.7998</ele>
        <time>2026-05-15T11:36:08+02:00</time>
      </trkpt>
      <trkpt lat="47.21024" lon="5.40291">
        <ele>182.7998</ele>
        <time>2026-05-15T11:36:09+02:00</time>
      </trkpt>
      <trkpt lat="47.21028" lon="5.40296">
        <ele>182.90039</ele>
        <time>2026-05-15T11:36:10+02:00</time>
      </trkpt>
      <trkpt lat="47.21031" lon="5.40301">
        <ele>182.7998</ele>
        <time>2026-05-15T11:36:11+02:00</time>
      </trkpt>
      <trkpt lat="47.21034" lon="5.40306">
        <ele>182.90039</ele>
        <time>2026-05-15T11:36:12+02:00</time>
      </trkpt>
      <trkpt lat="47.21037" lon="5.40311">
        <ele>182.90039</ele>
        <time>2026-05-15T11:36:13+02:00</time>
      </trkpt>
      <trkpt lat="47.2104" lon="5.40316">
        <ele>182.90039</ele>
        <time>2026-05-15T11:36:14+02:00</time>
      </trkpt>
      <trkpt lat="47.21043" lon="5.40321">
        <ele>182.90039</ele>
        <time>2026-05-15T11:36:15+02:00</time>
      </trkpt>
      <trkpt lat="47.21046" lon="5.40325">
        <ele>183</ele>
        <time>2026-05-15T11:36:16+02:00</time>
      </trkpt>
      <trkpt lat="47.21049" lon="5.4033">
        <ele>183</ele>
        <time>2026-05-15T11:36:17+02:00</time>
      </trkpt>
      <trkpt lat="47.21052" lon="5.40335">
        <ele>183</ele>
        <time>2026-05-15T11:36:18+02:00</time>
      </trkpt>
      <trkpt lat="47.21055" lon="5.4034">
        <ele>183</ele>
        <time>2026-05-15T11:36:19+02:00</time>
      </trkpt>
      <trkpt lat="47.21058" lon="5.40344">
        <ele>183</ele>
        <time>2026-05-15T11:36:20+02:00</time>
      </trkpt>
      <trkpt lat="47.21061" lon="5.40349">
        <ele>183.10059</ele>
        <time>2026-05-15T11:36:21+02:00</time>
      </trkpt>
      <trkpt lat="47.21064" lon="5.40353">
        <ele>183.10059</ele>
        <time>2026-05-15T11:36:22+02:00</time>
      </trkpt>
      <trkpt lat="47.21068" lon="5.40357">
        <ele>183.10059</ele>
        <time>2026-05-15T11:36:23+02:00</time>
      </trkpt>
      <trkpt lat="47.21071" lon="5.40361">
        <ele>183.10059</ele>
        <time>2026-05-15T11:36:24+02:00</time>
      </trkpt>
      <trkpt lat="47.21074" lon="5.40365">
        <ele>183.10059</ele>
        <time>2026-05-15T11:36:25+02:00</time>
      </trkpt>
      <trkpt lat="47.21078" lon="5.40368">
        <ele>183.10059</ele>
        <time>2026-05-15T11:36:26+02:00</time>
      </trkpt>
      <trkpt lat="47.21082" lon="5.40372">
        <ele>183.10059</ele>
        <time>2026-05-15T11:36:27+02:00</time>
      </trkpt>
      <trkpt lat="47.21085" lon="5.40376">
        <ele>183</ele>
        <time>2026-05-15T11:36:28+02:00</time>
      </trkpt>
      <trkpt lat="47.21089" lon="5.40379">
        <ele>183</ele>
        <time>2026-05-15T11:36:29+02:00</time>
      </trkpt>
      <trkpt lat="47.21093" lon="5.40383">
        <ele>183</ele>
        <time>2026-05-15T11:36:30+02:00</time>
      </trkpt>
      <trkpt lat="47.21096" lon="5.40387">
        <ele>183</ele>
        <time>2026-05-15T11:36:31+02:00</time>
      </trkpt>
      <trkpt lat="47.211" lon="5.4039">
        <ele>182.90039</ele>
        <time>2026-05-15T11:36:32+02:00</time>
      </trkpt>
      <trkpt lat="47.21103" lon="5.40394">
        <ele>182.90039</ele>
        <time>2026-05-15T11:36:33+02:00</time>
      </trkpt>
      <trkpt lat="47.21107" lon="5.40398">
        <ele>182.90039</ele>
        <time>2026-05-15T11:36:34+02:00</time>
      </trkpt>
      <trkpt lat="47.21111" lon="5.40402">
        <ele>182.7998</ele>
        <time>2026-05-15T11:36:35+02:00</time>
      </trkpt>
      <trkpt lat="47.21114" lon="5.40405">
        <ele>182.7998</ele>
        <time>2026-05-15T11:36:36+02:00</time>
      </trkpt>
      <trkpt lat="47.21119" lon="5.40409">
        <ele>182.7002</ele>
        <time>2026-05-15T11:36:37+02:00</time>
      </trkpt>
      <trkpt lat="47.21122" lon="5.40413">
        <ele>182.7002</ele>
        <time>2026-05-15T11:36:38+02:00</time>
      </trkpt>
      <trkpt lat="47.21126" lon="5.40417">
        <ele>182.60059</ele>
        <time>2026-05-15T11:36:39+02:00</time>
      </trkpt>
      <trkpt lat="47.2113" lon="5.40421">
        <ele>182.5</ele>
        <time>2026-05-15T11:36:40+02:00</time>
      </trkpt>
      <trkpt lat="47.21134" lon="5.40425">
        <ele>182.5</ele>
        <time>2026-05-15T11:36:41+02:00</time>
      </trkpt>
      <trkpt lat="47.21137" lon="5.40429">
        <ele>182.40039</ele>
        <time>2026-05-15T11:36:42+02:00</time>
      </trkpt>
      <trkpt lat="47.21141" lon="5.40433">
        <ele>182.40039</ele>
        <time>2026-05-15T11:36:43+02:00</time>
      </trkpt>
      <trkpt lat="47.21145" lon="5.40436">
        <ele>182.40039</ele>
        <time>2026-05-15T11:36:44+02:00</time>
      </trkpt>
      <trkpt lat="47.21148" lon="5.4044">
        <ele>182.2998</ele>
        <time>2026-05-15T11:36:45+02:00</time>
      </trkpt>
      <trkpt lat="47.21152" lon="5.40444">
        <ele>182.2998</ele>
        <time>2026-05-15T11:36:46+02:00</time>
      </trkpt>
      <trkpt lat="47.21156" lon="5.40448">
        <ele>182.2002</ele>
        <time>2026-05-15T11:36:47+02:00</time>
      </trkpt>
      <trkpt lat="47.2116" lon="5.40451">
        <ele>182.10059</ele>
        <time>2026-05-15T11:36:48+02:00</time>
      </trkpt>
      <trkpt lat="47.21163" lon="5.40455">
        <ele>182.10059</ele>
        <time>2026-05-15T11:36:49+02:00</time>
      </trkpt>
      <trkpt lat="47.21167" lon="5.40459">
        <ele>182</ele>
        <time>2026-05-15T11:36:50+02:00</time>
      </trkpt>
      <trkpt lat="47.21171" lon="5.40462">
        <ele>181.90039</ele>
        <time>2026-05-15T11:36:51+02:00</time>
      </trkpt>
      <trkpt lat="47.21174" lon="5.40466">
        <ele>181.90039</ele>
        <time>2026-05-15T11:36:52+02:00</time>
      </trkpt>
      <trkpt lat="47.21178" lon="5.4047">
        <ele>181.90039</ele>
        <time>2026-05-15T11:36:53+02:00</time>
      </trkpt>
      <trkpt lat="47.21182" lon="5.40474">
        <ele>181.7998</ele>
        <time>2026-05-15T11:36:54+02:00</time>
      </trkpt>
      <trkpt lat="47.21185" lon="5.40478">
        <ele>181.7998</ele>
        <time>2026-05-15T11:36:55+02:00</time>
      </trkpt>
      <trkpt lat="47.21189" lon="5.40482">
        <ele>181.7002</ele>
        <time>2026-05-15T11:36:56+02:00</time>
      </trkpt>
      <trkpt lat="47.21193" lon="5.40486">
        <ele>181.7998</ele>
        <time>2026-05-15T11:36:57+02:00</time>
      </trkpt>
      <trkpt lat="47.21197" lon="5.4049">
        <ele>181.7002</ele>
        <time>2026-05-15T11:36:58+02:00</time>
      </trkpt>
      <trkpt lat="47.21201" lon="5.40494">
        <ele>181.60059</ele>
        <time>2026-05-15T11:36:59+02:00</time>
      </trkpt>
      <trkpt lat="47.21204" lon="5.40498">
        <ele>181.60059</ele>
        <time>2026-05-15T11:37:00+02:00</time>
      </trkpt>
      <trkpt lat="47.21208" lon="5.40501">
        <ele>181.5</ele>
        <time>2026-05-15T11:37:01+02:00</time>
      </trkpt>
      <trkpt lat="47.21212" lon="5.40505">
        <ele>181.5</ele>
        <time>2026-05-15T11:37:02+02:00</time>
      </trkpt>
      <trkpt lat="47.21216" lon="5.40509">
        <ele>181.5</ele>
        <time>2026-05-15T11:37:03+02:00</time>
      </trkpt>
      <trkpt lat="47.2122" lon="5.40513">
        <ele>181.40039</ele>
        <time>2026-05-15T11:37:04+02:00</time>
      </trkpt>
      <trkpt lat="47.21224" lon="5.40517">
        <ele>181.40039</ele>
        <time>2026-05-15T11:37:05+02:00</time>
      </trkpt>
      <trkpt lat="47.21227" lon="5.40522">
        <ele>181.40039</ele>
        <time>2026-05-15T11:37:06+02:00</time>
      </trkpt>
      <trkpt lat="47.21231" lon="5.40526">
        <ele>181.2998</ele>
        <time>2026-05-15T11:37:07+02:00</time>
      </trkpt>
      <trkpt lat="47.21235" lon="5.4053">
        <ele>181.2998</ele>
        <time>2026-05-15T11:37:08+02:00</time>
      </trkpt>
      <trkpt lat="47.21239" lon="5.40534">
        <ele>181.2998</ele>
        <time>2026-05-15T11:37:09+02:00</time>
      </trkpt>
      <trkpt lat="47.21243" lon="5.40538">
        <ele>181.2998</ele>
        <time>2026-05-15T11:37:10+02:00</time>
      </trkpt>
      <trkpt lat="47.21247" lon="5.40542">
        <ele>181.2998</ele>
        <time>2026-05-15T11:37:11+02:00</time>
      </trkpt>
      <trkpt lat="47.21251" lon="5.40546">
        <ele>181.2998</ele>
        <time>2026-05-15T11:37:12+02:00</time>
      </trkpt>
      <trkpt lat="47.21255" lon="5.4055">
        <ele>181.2998</ele>
        <time>2026-05-15T11:37:13+02:00</time>
      </trkpt>
      <trkpt lat="47.21259" lon="5.40554">
        <ele>181.2998</ele>
        <time>2026-05-15T11:37:14+02:00</time>
      </trkpt>
      <trkpt lat="47.21263" lon="5.40557">
        <ele>181.40039</ele>
        <time>2026-05-15T11:37:15+02:00</time>
      </trkpt>
      <trkpt lat="47.21266" lon="5.40561">
        <ele>181.40039</ele>
        <time>2026-05-15T11:37:16+02:00</time>
      </trkpt>
      <trkpt lat="47.2127" lon="5.40565">
        <ele>181.40039</ele>
        <time>2026-05-15T11:37:17+02:00</time>
      </trkpt>
      <trkpt lat="47.21274" lon="5.40568">
        <ele>181.40039</ele>
        <time>2026-05-15T11:37:18+02:00</time>
      </trkpt>
      <trkpt lat="47.21277" lon="5.40572">
        <ele>181.5</ele>
        <time>2026-05-15T11:37:19+02:00</time>
      </trkpt>
      <trkpt lat="47.2128" lon="5.40576">
        <ele>181.5</ele>
        <time>2026-05-15T11:37:20+02:00</time>
      </trkpt>
      <trkpt lat="47.21283" lon="5.4058">
        <ele>181.7002</ele>
        <time>2026-05-15T11:37:21+02:00</time>
      </trkpt>
      <trkpt lat="47.21286" lon="5.40583">
        <ele>181.7002</ele>
        <time>2026-05-15T11:37:22+02:00</time>
      </trkpt>
      <trkpt lat="47.2129" lon="5.40586">
        <ele>181.7002</ele>
        <time>2026-05-15T11:37:23+02:00</time>
      </trkpt>
      <trkpt lat="47.21293" lon="5.40586">
        <ele>181.7998</ele>
        <time>2026-05-15T11:37:24+02:00</time>
      </trkpt>
      <trkpt lat="47.21298" lon="5.40585">
        <ele>181.7998</ele>
        <time>2026-05-15T11:37:25+02:00</time>
      </trkpt>
      <trkpt lat="47.21301" lon="5.40582">
        <ele>181.90039</ele>
        <time>2026-05-15T11:37:26+02:00</time>
      </trkpt>
      <trkpt lat="47.21305" lon="5.40579">
        <ele>181.90039</ele>
        <time>2026-05-15T11:37:27+02:00</time>
      </trkpt>
      <trkpt lat="47.21309" lon="5.40576">
        <ele>181.7998</ele>
        <time>2026-05-15T11:37:28+02:00</time>
      </trkpt>
      <trkpt lat="47.21313" lon="5.40572">
        <ele>181.90039</ele>
        <time>2026-05-15T11:37:29+02:00</time>
      </trkpt>
      <trkpt lat="47.21317" lon="5.40568">
        <ele>181.90039</ele>
        <time>2026-05-15T11:37:30+02:00</time>
      </trkpt>
      <trkpt lat="47.21321" lon="5.40564">
        <ele>181.90039</ele>
        <time>2026-05-15T11:37:31+02:00</time>
      </trkpt>
      <trkpt lat="47.21325" lon="5.40559">
        <ele>181.7998</ele>
        <time>2026-05-15T11:37:32+02:00</time>
      </trkpt>
      <trkpt lat="47.21328" lon="5.40554">
        <ele>181.90039</ele>
        <time>2026-05-15T11:37:33+02:00</time>
      </trkpt>
      <trkpt lat="47.21332" lon="5.40549">
        <ele>181.7998</ele>
        <time>2026-05-15T11:37:34+02:00</time>
      </trkpt>
      <trkpt lat="47.21335" lon="5.40543">
        <ele>181.7002</ele>
        <time>2026-05-15T11:37:35+02:00</time>
      </trkpt>
      <trkpt lat="47.21337" lon="5.40538">
        <ele>181.7002</ele>
        <time>2026-05-15T11:37:36+02:00</time>
      </trkpt>
      <trkpt lat="47.2134" lon="5.40532">
        <ele>181.60059</ele>
        <time>2026-05-15T11:37:37+02:00</time>
      </trkpt>
      <trkpt lat="47.21343" lon="5.40527">
        <ele>181.5</ele>
        <time>2026-05-15T11:37:38+02:00</time>
      </trkpt>
      <trkpt lat="47.21345" lon="5.40521">
        <ele>181.5</ele>
        <time>2026-05-15T11:37:39+02:00</time>
      </trkpt>
      <trkpt lat="47.21348" lon="5.40515">
        <ele>181.40039</ele>
        <time>2026-05-15T11:37:40+02:00</time>
      </trkpt>
      <trkpt lat="47.2135" lon="5.40509">
        <ele>181.40039</ele>
        <time>2026-05-15T11:37:41+02:00</time>
      </trkpt>
      <trkpt lat="47.21352" lon="5.40504">
        <ele>181.40039</ele>
        <time>2026-05-15T11:37:42+02:00</time>
      </trkpt>
      <trkpt lat="47.21355" lon="5.40498">
        <ele>181.2998</ele>
        <time>2026-05-15T11:37:43+02:00</time>
      </trkpt>
      <trkpt lat="47.21357" lon="5.40492">
        <ele>181.2998</ele>
        <time>2026-05-15T11:37:44+02:00</time>
      </trkpt>
      <trkpt lat="47.2136" lon="5.40486">
        <ele>181.2998</ele>
        <time>2026-05-15T11:37:45+02:00</time>
      </trkpt>
      <trkpt lat="47.21362" lon="5.4048">
        <ele>181.2998</ele>
        <time>2026-05-15T11:37:46+02:00</time>
      </trkpt>
      <trkpt lat="47.21365" lon="5.40474">
        <ele>181.2998</ele>
        <time>2026-05-15T11:37:47+02:00</time>
      </trkpt>
      <trkpt lat="47.21368" lon="5.40468">
        <ele>181.2998</ele>
        <time>2026-05-15T11:37:48+02:00</time>
      </trkpt>
      <trkpt lat="47.21371" lon="5.40461">
        <ele>181.2998</ele>
        <time>2026-05-15T11:37:49+02:00</time>
      </trkpt>
      <trkpt lat="47.21374" lon="5.40455">
        <ele>181.2998</ele>
        <time>2026-05-15T11:37:50+02:00</time>
      </trkpt>
      <trkpt lat="47.21377" lon="5.40449">
        <ele>181.40039</ele>
        <time>2026-05-15T11:37:51+02:00</time>
      </trkpt>
      <trkpt lat="47.2138" lon="5.40443">
        <ele>181.40039</ele>
        <time>2026-05-15T11:37:52+02:00</time>
      </trkpt>
      <trkpt lat="47.21382" lon="5.40437">
        <ele>181.40039</ele>
        <time>2026-05-15T11:37:53+02:00</time>
      </trkpt>
      <trkpt lat="47.21385" lon="5.40431">
        <ele>181.40039</ele>
        <time>2026-05-15T11:37:54+02:00</time>
      </trkpt>
      <trkpt lat="47.21388" lon="5.40425">
        <ele>181.40039</ele>
        <time>2026-05-15T11:37:55+02:00</time>
      </trkpt>
      <trkpt lat="47.2139" lon="5.40419">
        <ele>181.40039</ele>
        <time>2026-05-15T11:37:56+02:00</time>
      </trkpt>
      <trkpt lat="47.21393" lon="5.40413">
        <ele>181.40039</ele>
        <time>2026-05-15T11:37:57+02:00</time>
      </trkpt>
      <trkpt lat="47.21396" lon="5.40407">
        <ele>181.40039</ele>
        <time>2026-05-15T11:37:58+02:00</time>
      </trkpt>
      <trkpt lat="47.21398" lon="5.40401">
        <ele>181.2998</ele>
        <time>2026-05-15T11:37:59+02:00</time>
      </trkpt>
      <trkpt lat="47.21401" lon="5.40395">
        <ele>181.2998</ele>
        <time>2026-05-15T11:38:00+02:00</time>
      </trkpt>
      <trkpt lat="47.21404" lon="5.40389">
        <ele>181.2998</ele>
        <time>2026-05-15T11:38:01+02:00</time>
      </trkpt>
      <trkpt lat="47.21407" lon="5.40383">
        <ele>181.2998</ele>
        <time>2026-05-15T11:38:02+02:00</time>
      </trkpt>
      <trkpt lat="47.2141" lon="5.40377">
        <ele>181.2998</ele>
        <time>2026-05-15T11:38:03+02:00</time>
      </trkpt>
      <trkpt lat="47.21412" lon="5.40372">
        <ele>181.2998</ele>
        <time>2026-05-15T11:38:04+02:00</time>
      </trkpt>
      <trkpt lat="47.21415" lon="5.40366">
        <ele>181.2998</ele>
        <time>2026-05-15T11:38:05+02:00</time>
      </trkpt>
      <trkpt lat="47.21419" lon="5.4036">
        <ele>181.2998</ele>
        <time>2026-05-15T11:38:06+02:00</time>
      </trkpt>
      <trkpt lat="47.21421" lon="5.40354">
        <ele>181.2998</ele>
        <time>2026-05-15T11:38:07+02:00</time>
      </trkpt>
      <trkpt lat="47.21424" lon="5.40348">
        <ele>181.2998</ele>
        <time>2026-05-15T11:38:08+02:00</time>
      </trkpt>
      <trkpt lat="47.21427" lon="5.40343">
        <ele>181.40039</ele>
        <time>2026-05-15T11:38:09+02:00</time>
      </trkpt>
      <trkpt lat="47.2143" lon="5.40337">
        <ele>181.40039</ele>
        <time>2026-05-15T11:38:10+02:00</time>
      </trkpt>
      <trkpt lat="47.21433" lon="5.40332">
        <ele>181.5</ele>
        <time>2026-05-15T11:38:11+02:00</time>
      </trkpt>
      <trkpt lat="47.21436" lon="5.40327">
        <ele>181.5</ele>
        <time>2026-05-15T11:38:12+02:00</time>
      </trkpt>
      <trkpt lat="47.2144" lon="5.40322">
        <ele>181.60059</ele>
        <time>2026-05-15T11:38:13+02:00</time>
      </trkpt>
      <trkpt lat="47.21444" lon="5.40318">
        <ele>181.7002</ele>
        <time>2026-05-15T11:38:14+02:00</time>
      </trkpt>
      <trkpt lat="47.21447" lon="5.40313">
        <ele>181.7002</ele>
        <time>2026-05-15T11:38:15+02:00</time>
      </trkpt>
      <trkpt lat="47.21451" lon="5.40309">
        <ele>181.90039</ele>
        <time>2026-05-15T11:38:16+02:00</time>
      </trkpt>
      <trkpt lat="47.21455" lon="5.40306">
        <ele>181.90039</ele>
        <time>2026-05-15T11:38:17+02:00</time>
      </trkpt>
      <trkpt lat="47.21459" lon="5.40302">
        <ele>182.10059</ele>
        <time>2026-05-15T11:38:18+02:00</time>
      </trkpt>
      <trkpt lat="47.21463" lon="5.40298">
        <ele>182.10059</ele>
        <time>2026-05-15T11:38:19+02:00</time>
      </trkpt>
      <trkpt lat="47.21467" lon="5.40295">
        <ele>182.2002</ele>
        <time>2026-05-15T11:38:20+02:00</time>
      </trkpt>
      <trkpt lat="47.21471" lon="5.40291">
        <ele>182.2998</ele>
        <time>2026-05-15T11:38:21+02:00</time>
      </trkpt>
      <trkpt lat="47.21475" lon="5.40288">
        <ele>182.40039</ele>
        <time>2026-05-15T11:38:22+02:00</time>
      </trkpt>
      <trkpt lat="47.21478" lon="5.40284">
        <ele>182.5</ele>
        <time>2026-05-15T11:38:23+02:00</time>
      </trkpt>
      <trkpt lat="47.21483" lon="5.4028">
        <ele>182.5</ele>
        <time>2026-05-15T11:38:24+02:00</time>
      </trkpt>
      <trkpt lat="47.21486" lon="5.40276">
        <ele>182.7002</ele>
        <time>2026-05-15T11:38:25+02:00</time>
      </trkpt>
      <trkpt lat="47.2149" lon="5.40273">
        <ele>182.7002</ele>
        <time>2026-05-15T11:38:26+02:00</time>
      </trkpt>
      <trkpt lat="47.21494" lon="5.40269">
        <ele>182.7002</ele>
        <time>2026-05-15T11:38:27+02:00</time>
      </trkpt>
      <trkpt lat="47.21498" lon="5.40265">
        <ele>182.7998</ele>
        <time>2026-05-15T11:38:28+02:00</time>
      </trkpt>
      <trkpt lat="47.21502" lon="5.40262">
        <ele>182.7998</ele>
        <time>2026-05-15T11:38:29+02:00</time>
      </trkpt>
      <trkpt lat="47.21506" lon="5.40259">
        <ele>182.7998</ele>
        <time>2026-05-15T11:38:30+02:00</time>
      </trkpt>
      <trkpt lat="47.2151" lon="5.40255">
        <ele>182.7998</ele>
        <time>2026-05-15T11:38:31+02:00</time>
      </trkpt>
      <trkpt lat="47.21514" lon="5.40252">
        <ele>182.7998</ele>
        <time>2026-05-15T11:38:32+02:00</time>
      </trkpt>
      <trkpt lat="47.21518" lon="5.40249">
        <ele>182.7998</ele>
        <time>2026-05-15T11:38:33+02:00</time>
      </trkpt>
      <trkpt lat="47.21522" lon="5.40246">
        <ele>182.7002</ele>
        <time>2026-05-15T11:38:34+02:00</time>
      </trkpt>
      <trkpt lat="47.21526" lon="5.40244">
        <ele>182.7002</ele>
        <time>2026-05-15T11:38:35+02:00</time>
      </trkpt>
      <trkpt lat="47.2153" lon="5.40241">
        <ele>182.7002</ele>
        <time>2026-05-15T11:38:36+02:00</time>
      </trkpt>
      <trkpt lat="47.21534" lon="5.40238">
        <ele>182.60059</ele>
        <time>2026-05-15T11:38:37+02:00</time>
      </trkpt>
      <trkpt lat="47.21538" lon="5.40236">
        <ele>182.60059</ele>
        <time>2026-05-15T11:38:38+02:00</time>
      </trkpt>
      <trkpt lat="47.21542" lon="5.40234">
        <ele>182.5</ele>
        <time>2026-05-15T11:38:39+02:00</time>
      </trkpt>
      <trkpt lat="47.21547" lon="5.40232">
        <ele>182.5</ele>
        <time>2026-05-15T11:38:40+02:00</time>
      </trkpt>
      <trkpt lat="47.21551" lon="5.40231">
        <ele>182.40039</ele>
        <time>2026-05-15T11:38:41+02:00</time>
      </trkpt>
      <trkpt lat="47.21556" lon="5.40229">
        <ele>182.40039</ele>
        <time>2026-05-15T11:38:42+02:00</time>
      </trkpt>
      <trkpt lat="47.2156" lon="5.40227">
        <ele>182.40039</ele>
        <time>2026-05-15T11:38:43+02:00</time>
      </trkpt>
      <trkpt lat="47.21565" lon="5.40225">
        <ele>182.2998</ele>
        <time>2026-05-15T11:38:44+02:00</time>
      </trkpt>
      <trkpt lat="47.21569" lon="5.40223">
        <ele>182.2998</ele>
        <time>2026-05-15T11:38:45+02:00</time>
      </trkpt>
      <trkpt lat="47.21573" lon="5.40222">
        <ele>182.2002</ele>
        <time>2026-05-15T11:38:46+02:00</time>
      </trkpt>
      <trkpt lat="47.21578" lon="5.4022">
        <ele>182.2002</ele>
        <time>2026-05-15T11:38:47+02:00</time>
      </trkpt>
      <trkpt lat="47.21582" lon="5.40218">
        <ele>182.2002</ele>
        <time>2026-05-15T11:38:48+02:00</time>
      </trkpt>
      <trkpt lat="47.21587" lon="5.40217">
        <ele>182.10059</ele>
        <time>2026-05-15T11:38:49+02:00</time>
      </trkpt>
      <trkpt lat="47.21591" lon="5.40215">
        <ele>182.10059</ele>
        <time>2026-05-15T11:38:50+02:00</time>
      </trkpt>
      <trkpt lat="47.21596" lon="5.40214">
        <ele>182</ele>
        <time>2026-05-15T11:38:51+02:00</time>
      </trkpt>
      <trkpt lat="47.216" lon="5.40212">
        <ele>182</ele>
        <time>2026-05-15T11:38:52+02:00</time>
      </trkpt>
      <trkpt lat="47.21605" lon="5.40211">
        <ele>182</ele>
        <time>2026-05-15T11:38:53+02:00</time>
      </trkpt>
      <trkpt lat="47.21609" lon="5.40209">
        <ele>182</ele>
        <time>2026-05-15T11:38:54+02:00</time>
      </trkpt>
      <trkpt lat="47.21613" lon="5.40208">
        <ele>181.90039</ele>
        <time>2026-05-15T11:38:55+02:00</time>
      </trkpt>
      <trkpt lat="47.21618" lon="5.40207">
        <ele>181.90039</ele>
        <time>2026-05-15T11:38:56+02:00</time>
      </trkpt>
      <trkpt lat="47.21623" lon="5.40206">
        <ele>181.90039</ele>
        <time>2026-05-15T11:38:57+02:00</time>
      </trkpt>
      <trkpt lat="47.21628" lon="5.40205">
        <ele>181.90039</ele>
        <time>2026-05-15T11:38:58+02:00</time>
      </trkpt>
      <trkpt lat="47.21632" lon="5.40205">
        <ele>181.7998</ele>
        <time>2026-05-15T11:38:59+02:00</time>
      </trkpt>
      <trkpt lat="47.21637" lon="5.40206">
        <ele>181.7998</ele>
        <time>2026-05-15T11:39:00+02:00</time>
      </trkpt>
      <trkpt lat="47.21642" lon="5.40207">
        <ele>181.7998</ele>
        <time>2026-05-15T11:39:01+02:00</time>
      </trkpt>
      <trkpt lat="47.21646" lon="5.4021">
        <ele>181.7998</ele>
        <time>2026-05-15T11:39:02+02:00</time>
      </trkpt>
      <trkpt lat="47.2165" lon="5.40212">
        <ele>181.7998</ele>
        <time>2026-05-15T11:39:03+02:00</time>
      </trkpt>
      <trkpt lat="47.21654" lon="5.40215">
        <ele>181.90039</ele>
        <time>2026-05-15T11:39:04+02:00</time>
      </trkpt>
      <trkpt lat="47.21658" lon="5.40219">
        <ele>181.7998</ele>
        <time>2026-05-15T11:39:05+02:00</time>
      </trkpt>
      <trkpt lat="47.21662" lon="5.40223">
        <ele>181.7002</ele>
        <time>2026-05-15T11:39:06+02:00</time>
      </trkpt>
      <trkpt lat="47.21666" lon="5.40227">
        <ele>181.60059</ele>
        <time>2026-05-15T11:39:07+02:00</time>
      </trkpt>
      <trkpt lat="47.2167" lon="5.40231">
        <ele>181.60059</ele>
        <time>2026-05-15T11:39:08+02:00</time>
      </trkpt>
      <trkpt lat="47.21674" lon="5.40235">
        <ele>181.60059</ele>
        <time>2026-05-15T11:39:09+02:00</time>
      </trkpt>
      <trkpt lat="47.21678" lon="5.40239">
        <ele>181.7002</ele>
        <time>2026-05-15T11:39:10+02:00</time>
      </trkpt>
      <trkpt lat="47.21682" lon="5.40242">
        <ele>181.7002</ele>
        <time>2026-05-15T11:39:11+02:00</time>
      </trkpt>
      <trkpt lat="47.21686" lon="5.40246">
        <ele>181.7002</ele>
        <time>2026-05-15T11:39:12+02:00</time>
      </trkpt>
      <trkpt lat="47.2169" lon="5.4025">
        <ele>181.7002</ele>
        <time>2026-05-15T11:39:13+02:00</time>
      </trkpt>
      <trkpt lat="47.21694" lon="5.40254">
        <ele>181.7998</ele>
        <time>2026-05-15T11:39:14+02:00</time>
      </trkpt>
      <trkpt lat="47.21699" lon="5.40258">
        <ele>181.7002</ele>
        <time>2026-05-15T11:39:15+02:00</time>
      </trkpt>
      <trkpt lat="47.21703" lon="5.40261">
        <ele>181.7002</ele>
        <time>2026-05-15T11:39:16+02:00</time>
      </trkpt>
      <trkpt lat="47.21707" lon="5.40265">
        <ele>181.7998</ele>
        <time>2026-05-15T11:39:17+02:00</time>
      </trkpt>
      <trkpt lat="47.21711" lon="5.40269">
        <ele>181.7998</ele>
        <time>2026-05-15T11:39:18+02:00</time>
      </trkpt>
      <trkpt lat="47.21715" lon="5.40273">
        <ele>181.90039</ele>
        <time>2026-05-15T11:39:19+02:00</time>
      </trkpt>
      <trkpt lat="47.21719" lon="5.40276">
        <ele>181.90039</ele>
        <time>2026-05-15T11:39:20+02:00</time>
      </trkpt>
      <trkpt lat="47.21723" lon="5.4028">
        <ele>182</ele>
        <time>2026-05-15T11:39:21+02:00</time>
      </trkpt>
      <trkpt lat="47.21727" lon="5.40284">
        <ele>182</ele>
        <time>2026-05-15T11:39:22+02:00</time>
      </trkpt>
      <trkpt lat="47.21731" lon="5.40288">
        <ele>182.2002</ele>
        <time>2026-05-15T11:39:23+02:00</time>
      </trkpt>
      <trkpt lat="47.21736" lon="5.40292">
        <ele>182.10059</ele>
        <time>2026-05-15T11:39:24+02:00</time>
      </trkpt>
      <trkpt lat="47.2174" lon="5.40296">
        <ele>182.2002</ele>
        <time>2026-05-15T11:39:25+02:00</time>
      </trkpt>
      <trkpt lat="47.21744" lon="5.403">
        <ele>182.10059</ele>
        <time>2026-05-15T11:39:26+02:00</time>
      </trkpt>
      <trkpt lat="47.21748" lon="5.40304">
        <ele>181.90039</ele>
        <time>2026-05-15T11:39:27+02:00</time>
      </trkpt>
      <trkpt lat="47.21752" lon="5.40307">
        <ele>181.90039</ele>
        <time>2026-05-15T11:39:28+02:00</time>
      </trkpt>
      <trkpt lat="47.21757" lon="5.40311">
        <ele>181.7998</ele>
        <time>2026-05-15T11:39:29+02:00</time>
      </trkpt>
      <trkpt lat="47.21761" lon="5.40315">
        <ele>181.7998</ele>
        <time>2026-05-15T11:39:30+02:00</time>
      </trkpt>
      <trkpt lat="47.21765" lon="5.40319">
        <ele>181.7002</ele>
        <time>2026-05-15T11:39:31+02:00</time>
      </trkpt>
      <trkpt lat="47.21769" lon="5.40323">
        <ele>181.7002</ele>
        <time>2026-05-15T11:39:32+02:00</time>
      </trkpt>
      <trkpt lat="47.21773" lon="5.40327">
        <ele>181.60059</ele>
        <time>2026-05-15T11:39:33+02:00</time>
      </trkpt>
      <trkpt lat="47.21777" lon="5.40331">
        <ele>181.5</ele>
        <time>2026-05-15T11:39:34+02:00</time>
      </trkpt>
      <trkpt lat="47.21782" lon="5.40335">
        <ele>181.5</ele>
        <time>2026-05-15T11:39:35+02:00</time>
      </trkpt>
      <trkpt lat="47.21786" lon="5.40339">
        <ele>181.5</ele>
        <time>2026-05-15T11:39:36+02:00</time>
      </trkpt>
      <trkpt lat="47.2179" lon="5.40343">
        <ele>181.40039</ele>
        <time>2026-05-15T11:39:37+02:00</time>
      </trkpt>
      <trkpt lat="47.21794" lon="5.40347">
        <ele>181.40039</ele>
        <time>2026-05-15T11:39:38+02:00</time>
      </trkpt>
      <trkpt lat="47.21798" lon="5.40351">
        <ele>181.40039</ele>
        <time>2026-05-15T11:39:39+02:00</time>
      </trkpt>
      <trkpt lat="47.21802" lon="5.40355">
        <ele>181.40039</ele>
        <time>2026-05-15T11:39:40+02:00</time>
      </trkpt>
      <trkpt lat="47.21806" lon="5.40358">
        <ele>181.2998</ele>
        <time>2026-05-15T11:39:41+02:00</time>
      </trkpt>
      <trkpt lat="47.2181" lon="5.40362">
        <ele>181.2998</ele>
        <time>2026-05-15T11:39:42+02:00</time>
      </trkpt>
      <trkpt lat="47.21814" lon="5.40365">
        <ele>181.2998</ele>
        <time>2026-05-15T11:39:43+02:00</time>
      </trkpt>
      <trkpt lat="47.21819" lon="5.40369">
        <ele>181.2998</ele>
        <time>2026-05-15T11:39:44+02:00</time>
      </trkpt>
      <trkpt lat="47.21823" lon="5.40372">
        <ele>181.2998</ele>
        <time>2026-05-15T11:39:45+02:00</time>
      </trkpt>
      <trkpt lat="47.21827" lon="5.40376">
        <ele>181.2998</ele>
        <time>2026-05-15T11:39:46+02:00</time>
      </trkpt>
      <trkpt lat="47.21831" lon="5.40379">
        <ele>181.2998</ele>
        <time>2026-05-15T11:39:47+02:00</time>
      </trkpt>
      <trkpt lat="47.21835" lon="5.40382">
        <ele>181.2998</ele>
        <time>2026-05-15T11:39:48+02:00</time>
      </trkpt>
      <trkpt lat="47.2184" lon="5.40384">
        <ele>181.2998</ele>
        <time>2026-05-15T11:39:49+02:00</time>
      </trkpt>
      <trkpt lat="47.21844" lon="5.40387">
        <ele>181.2998</ele>
        <time>2026-05-15T11:39:50+02:00</time>
      </trkpt>
      <trkpt lat="47.21848" lon="5.40389">
        <ele>181.2998</ele>
        <time>2026-05-15T11:39:51+02:00</time>
      </trkpt>
      <trkpt lat="47.21853" lon="5.40392">
        <ele>181.2998</ele>
        <time>2026-05-15T11:39:52+02:00</time>
      </trkpt>
      <trkpt lat="47.21857" lon="5.40394">
        <ele>181.2998</ele>
        <time>2026-05-15T11:39:53+02:00</time>
      </trkpt>
      <trkpt lat="47.21861" lon="5.40397">
        <ele>181.2998</ele>
        <time>2026-05-15T11:39:54+02:00</time>
      </trkpt>
      <trkpt lat="47.21865" lon="5.40399">
        <ele>181.2998</ele>
        <time>2026-05-15T11:39:55+02:00</time>
      </trkpt>
      <trkpt lat="47.2187" lon="5.40401">
        <ele>181.2998</ele>
        <time>2026-05-15T11:39:56+02:00</time>
      </trkpt>
      <trkpt lat="47.21874" lon="5.40404">
        <ele>181.2998</ele>
        <time>2026-05-15T11:39:57+02:00</time>
      </trkpt>
      <trkpt lat="47.21879" lon="5.40406">
        <ele>181.2998</ele>
        <time>2026-05-15T11:39:58+02:00</time>
      </trkpt>
      <trkpt lat="47.21883" lon="5.40409">
        <ele>181.40039</ele>
        <time>2026-05-15T11:39:59+02:00</time>
      </trkpt>
      <trkpt lat="47.21888" lon="5.40411">
        <ele>181.2998</ele>
        <time>2026-05-15T11:40:00+02:00</time>
      </trkpt>
      <trkpt lat="47.21892" lon="5.40413">
        <ele>181.2998</ele>
        <time>2026-05-15T11:40:01+02:00</time>
      </trkpt>
      <trkpt lat="47.21897" lon="5.40416">
        <ele>181.40039</ele>
        <time>2026-05-15T11:40:02+02:00</time>
      </trkpt>
      <trkpt lat="47.21901" lon="5.40418">
        <ele>181.5</ele>
        <time>2026-05-15T11:40:03+02:00</time>
      </trkpt>
      <trkpt lat="47.21906" lon="5.4042">
        <ele>181.5</ele>
        <time>2026-05-15T11:40:04+02:00</time>
      </trkpt>
      <trkpt lat="47.21911" lon="5.40422">
        <ele>181.60059</ele>
        <time>2026-05-15T11:40:05+02:00</time>
      </trkpt>
      <trkpt lat="47.21916" lon="5.40424">
        <ele>181.60059</ele>
        <time>2026-05-15T11:40:06+02:00</time>
      </trkpt>
      <trkpt lat="47.2192" lon="5.40426">
        <ele>181.7998</ele>
        <time>2026-05-15T11:40:07+02:00</time>
      </trkpt>
      <trkpt lat="47.21925" lon="5.40428">
        <ele>181.7998</ele>
        <time>2026-05-15T11:40:08+02:00</time>
      </trkpt>
      <trkpt lat="47.21929" lon="5.4043">
        <ele>181.7998</ele>
        <time>2026-05-15T11:40:09+02:00</time>
      </trkpt>
      <trkpt lat="47.21934" lon="5.40432">
        <ele>181.90039</ele>
        <time>2026-05-15T11:40:10+02:00</time>
      </trkpt>
      <trkpt lat="47.21938" lon="5.40433">
        <ele>182.10059</ele>
        <time>2026-05-15T11:40:11+02:00</time>
      </trkpt>
      <trkpt lat="47.21943" lon="5.40435">
        <ele>182.10059</ele>
        <time>2026-05-15T11:40:12+02:00</time>
      </trkpt>
      <trkpt lat="47.21948" lon="5.40436">
        <ele>182.2002</ele>
        <time>2026-05-15T11:40:13+02:00</time>
      </trkpt>
      <trkpt lat="47.21953" lon="5.40438">
        <ele>182.2998</ele>
        <time>2026-05-15T11:40:14+02:00</time>
      </trkpt>
      <trkpt lat="47.21957" lon="5.40439">
        <ele>182.40039</ele>
        <time>2026-05-15T11:40:15+02:00</time>
      </trkpt>
      <trkpt lat="47.21962" lon="5.4044">
        <ele>182.40039</ele>
        <time>2026-05-15T11:40:16+02:00</time>
      </trkpt>
      <trkpt lat="47.21967" lon="5.40441">
        <ele>182.40039</ele>
        <time>2026-05-15T11:40:17+02:00</time>
      </trkpt>
      <trkpt lat="47.21971" lon="5.40442">
        <ele>182.2998</ele>
        <time>2026-05-15T11:40:18+02:00</time>
      </trkpt>
      <trkpt lat="47.21976" lon="5.40443">
        <ele>182</ele>
        <time>2026-05-15T11:40:19+02:00</time>
      </trkpt>
      <trkpt lat="47.21981" lon="5.40443">
        <ele>181.7002</ele>
        <time>2026-05-15T11:40:20+02:00</time>
      </trkpt>
      <trkpt lat="47.21986" lon="5.40444">
        <ele>181.60059</ele>
        <time>2026-05-15T11:40:21+02:00</time>
      </trkpt>
      <trkpt lat="47.2199" lon="5.40444">
        <ele>181.60059</ele>
        <time>2026-05-15T11:40:22+02:00</time>
      </trkpt>
      <trkpt lat="47.21995" lon="5.40445">
        <ele>181.5</ele>
        <time>2026-05-15T11:40:23+02:00</time>
      </trkpt>
      <trkpt lat="47.21999" lon="5.40445">
        <ele>181.40039</ele>
        <time>2026-05-15T11:40:24+02:00</time>
      </trkpt>
      <trkpt lat="47.22004" lon="5.40445">
        <ele>181.40039</ele>
        <time>2026-05-15T11:40:25+02:00</time>
      </trkpt>
      <trkpt lat="47.22008" lon="5.40445">
        <ele>181.40039</ele>
        <time>2026-05-15T11:40:26+02:00</time>
      </trkpt>
      <trkpt lat="47.22013" lon="5.40446">
        <ele>181.40039</ele>
        <time>2026-05-15T11:40:27+02:00</time>
      </trkpt>
      <trkpt lat="47.22017" lon="5.40447">
        <ele>181.40039</ele>
        <time>2026-05-15T11:40:28+02:00</time>
      </trkpt>
      <trkpt lat="47.22022" lon="5.40447">
        <ele>181.40039</ele>
        <time>2026-05-15T11:40:29+02:00</time>
      </trkpt>
      <trkpt lat="47.22027" lon="5.40447">
        <ele>181.5</ele>
        <time>2026-05-15T11:40:30+02:00</time>
      </trkpt>
      <trkpt lat="47.22032" lon="5.40447">
        <ele>181.5</ele>
        <time>2026-05-15T11:40:31+02:00</time>
      </trkpt>
      <trkpt lat="47.22036" lon="5.40447">
        <ele>181.7002</ele>
        <time>2026-05-15T11:40:32+02:00</time>
      </trkpt>
      <trkpt lat="47.22041" lon="5.40447">
        <ele>182</ele>
        <time>2026-05-15T11:40:33+02:00</time>
      </trkpt>
      <trkpt lat="47.22045" lon="5.40447">
        <ele>182.2998</ele>
        <time>2026-05-15T11:40:34+02:00</time>
      </trkpt>
      <trkpt lat="47.2205" lon="5.40447">
        <ele>182.5</ele>
        <time>2026-05-15T11:40:35+02:00</time>
      </trkpt>
      <trkpt lat="47.22055" lon="5.40446">
        <ele>182.5</ele>
        <time>2026-05-15T11:40:36+02:00</time>
      </trkpt>
      <trkpt lat="47.2206" lon="5.40446">
        <ele>182.5</ele>
        <time>2026-05-15T11:40:37+02:00</time>
      </trkpt>
      <trkpt lat="47.22064" lon="5.40445">
        <ele>182.40039</ele>
        <time>2026-05-15T11:40:38+02:00</time>
      </trkpt>
      <trkpt lat="47.22069" lon="5.40444">
        <ele>182.40039</ele>
        <time>2026-05-15T11:40:39+02:00</time>
      </trkpt>
      <trkpt lat="47.22073" lon="5.40444">
        <ele>182.40039</ele>
        <time>2026-05-15T11:40:40+02:00</time>
      </trkpt>
      <trkpt lat="47.22078" lon="5.40443">
        <ele>182.2998</ele>
        <time>2026-05-15T11:40:41+02:00</time>
      </trkpt>
      <trkpt lat="47.22082" lon="5.40442">
        <ele>182.2998</ele>
        <time>2026-05-15T11:40:42+02:00</time>
      </trkpt>
      <trkpt lat="47.22087" lon="5.40442">
        <ele>182.2002</ele>
        <time>2026-05-15T11:40:43+02:00</time>
      </trkpt>
      <trkpt lat="47.22091" lon="5.40441">
        <ele>182.2002</ele>
        <time>2026-05-15T11:40:44+02:00</time>
      </trkpt>
      <trkpt lat="47.22096" lon="5.40441">
        <ele>182.2002</ele>
        <time>2026-05-15T11:40:45+02:00</time>
      </trkpt>
      <trkpt lat="47.221" lon="5.4044">
        <ele>182.2002</ele>
        <time>2026-05-15T11:40:46+02:00</time>
      </trkpt>
      <trkpt lat="47.22104" lon="5.4044">
        <ele>182.10059</ele>
        <time>2026-05-15T11:40:47+02:00</time>
      </trkpt>
      <trkpt lat="47.22109" lon="5.40439">
        <ele>182.10059</ele>
        <time>2026-05-15T11:40:48+02:00</time>
      </trkpt>
      <trkpt lat="47.22113" lon="5.40438">
        <ele>182.10059</ele>
        <time>2026-05-15T11:40:49+02:00</time>
      </trkpt>
      <trkpt lat="47.22117" lon="5.40438">
        <ele>182</ele>
        <time>2026-05-15T11:40:50+02:00</time>
      </trkpt>
      <trkpt lat="47.22122" lon="5.40437">
        <ele>182</ele>
        <time>2026-05-15T11:40:51+02:00</time>
      </trkpt>
      <trkpt lat="47.22126" lon="5.40436">
        <ele>182</ele>
        <time>2026-05-15T11:40:52+02:00</time>
      </trkpt>
      <trkpt lat="47.2213" lon="5.40435">
        <ele>182</ele>
        <time>2026-05-15T11:40:53+02:00</time>
      </trkpt>
      <trkpt lat="47.22135" lon="5.40434">
        <ele>181.90039</ele>
        <time>2026-05-15T11:40:54+02:00</time>
      </trkpt>
      <trkpt lat="47.22139" lon="5.40433">
        <ele>181.90039</ele>
        <time>2026-05-15T11:40:55+02:00</time>
      </trkpt>
      <trkpt lat="47.22143" lon="5.40432">
        <ele>181.7998</ele>
        <time>2026-05-15T11:40:56+02:00</time>
      </trkpt>
      <trkpt lat="47.22148" lon="5.4043">
        <ele>181.7998</ele>
        <time>2026-05-15T11:40:57+02:00</time>
      </trkpt>
      <trkpt lat="47.22152" lon="5.40429">
        <ele>181.7002</ele>
        <time>2026-05-15T11:40:58+02:00</time>
      </trkpt>
      <trkpt lat="47.22156" lon="5.40427">
        <ele>181.7002</ele>
        <time>2026-05-15T11:40:59+02:00</time>
      </trkpt>
      <trkpt lat="47.22161" lon="5.40425">
        <ele>181.7002</ele>
        <time>2026-05-15T11:41:00+02:00</time>
      </trkpt>
      <trkpt lat="47.22165" lon="5.40424">
        <ele>181.60059</ele>
        <time>2026-05-15T11:41:01+02:00</time>
      </trkpt>
      <trkpt lat="47.2217" lon="5.40422">
        <ele>181.60059</ele>
        <time>2026-05-15T11:41:02+02:00</time>
      </trkpt>
      <trkpt lat="47.22175" lon="5.4042">
        <ele>181.7002</ele>
        <time>2026-05-15T11:41:03+02:00</time>
      </trkpt>
      <trkpt lat="47.22179" lon="5.40418">
        <ele>181.7998</ele>
        <time>2026-05-15T11:41:04+02:00</time>
      </trkpt>
      <trkpt lat="47.22184" lon="5.40416">
        <ele>181.7998</ele>
        <time>2026-05-15T11:41:05+02:00</time>
      </trkpt>
      <trkpt lat="47.22188" lon="5.40414">
        <ele>181.7002</ele>
        <time>2026-05-15T11:41:06+02:00</time>
      </trkpt>
      <trkpt lat="47.22193" lon="5.40413">
        <ele>181.7002</ele>
        <time>2026-05-15T11:41:07+02:00</time>
      </trkpt>
      <trkpt lat="47.22197" lon="5.40411">
        <ele>181.7002</ele>
        <time>2026-05-15T11:41:08+02:00</time>
      </trkpt>
      <trkpt lat="47.22202" lon="5.40409">
        <ele>181.60059</ele>
        <time>2026-05-15T11:41:09+02:00</time>
      </trkpt>
      <trkpt lat="47.22206" lon="5.40408">
        <ele>181.60059</ele>
        <time>2026-05-15T11:41:10+02:00</time>
      </trkpt>
      <trkpt lat="47.2221" lon="5.40406">
        <ele>181.5</ele>
        <time>2026-05-15T11:41:11+02:00</time>
      </trkpt>
      <trkpt lat="47.22214" lon="5.40404">
        <ele>181.5</ele>
        <time>2026-05-15T11:41:12+02:00</time>
      </trkpt>
      <trkpt lat="47.22218" lon="5.40403">
        <ele>181.5</ele>
        <time>2026-05-15T11:41:13+02:00</time>
      </trkpt>
      <trkpt lat="47.22223" lon="5.40401">
        <ele>181.40039</ele>
        <time>2026-05-15T11:41:14+02:00</time>
      </trkpt>
      <trkpt lat="47.22228" lon="5.40399">
        <ele>181.40039</ele>
        <time>2026-05-15T11:41:15+02:00</time>
      </trkpt>
      <trkpt lat="47.22232" lon="5.40397">
        <ele>181.2998</ele>
        <time>2026-05-15T11:41:16+02:00</time>
      </trkpt>
      <trkpt lat="47.22237" lon="5.40396">
        <ele>181.2998</ele>
        <time>2026-05-15T11:41:17+02:00</time>
      </trkpt>
      <trkpt lat="47.22241" lon="5.40394">
        <ele>181.2998</ele>
        <time>2026-05-15T11:41:18+02:00</time>
      </trkpt>
      <trkpt lat="47.22246" lon="5.40392">
        <ele>181.2998</ele>
        <time>2026-05-15T11:41:19+02:00</time>
      </trkpt>
      <trkpt lat="47.2225" lon="5.40391">
        <ele>181.2998</ele>
        <time>2026-05-15T11:41:20+02:00</time>
      </trkpt>
      <trkpt lat="47.22254" lon="5.40389">
        <ele>181.2998</ele>
        <time>2026-05-15T11:41:21+02:00</time>
      </trkpt>
      <trkpt lat="47.22258" lon="5.40387">
        <ele>181.2998</ele>
        <time>2026-05-15T11:41:22+02:00</time>
      </trkpt>
      <trkpt lat="47.22262" lon="5.40385">
        <ele>181.2998</ele>
        <time>2026-05-15T11:41:23+02:00</time>
      </trkpt>
      <trkpt lat="47.22267" lon="5.40383">
        <ele>181.2002</ele>
        <time>2026-05-15T11:41:24+02:00</time>
      </trkpt>
      <trkpt lat="47.22271" lon="5.40381">
        <ele>181.2002</ele>
        <time>2026-05-15T11:41:25+02:00</time>
      </trkpt>
      <trkpt lat="47.22275" lon="5.4038">
        <ele>181.2002</ele>
        <time>2026-05-15T11:41:26+02:00</time>
      </trkpt>
      <trkpt lat="47.22279" lon="5.40378">
        <ele>181.2002</ele>
        <time>2026-05-15T11:41:27+02:00</time>
      </trkpt>
      <trkpt lat="47.22284" lon="5.40376">
        <ele>181.2998</ele>
        <time>2026-05-15T11:41:28+02:00</time>
      </trkpt>
      <trkpt lat="47.22288" lon="5.40374">
        <ele>181.2998</ele>
        <time>2026-05-15T11:41:29+02:00</time>
      </trkpt>
      <trkpt lat="47.22292" lon="5.40372">
        <ele>181.2998</ele>
        <time>2026-05-15T11:41:30+02:00</time>
      </trkpt>
      <trkpt lat="47.22296" lon="5.4037">
        <ele>181.2998</ele>
        <time>2026-05-15T11:41:31+02:00</time>
      </trkpt>
      <trkpt lat="47.22301" lon="5.40368">
        <ele>181.2998</ele>
        <time>2026-05-15T11:41:32+02:00</time>
      </trkpt>
      <trkpt lat="47.22305" lon="5.40366">
        <ele>181.2998</ele>
        <time>2026-05-15T11:41:33+02:00</time>
      </trkpt>
      <trkpt lat="47.22309" lon="5.40364">
        <ele>181.2998</ele>
        <time>2026-05-15T11:41:34+02:00</time>
      </trkpt>
      <trkpt lat="47.22313" lon="5.40362">
        <ele>181.2998</ele>
        <time>2026-05-15T11:41:35+02:00</time>
      </trkpt>
      <trkpt lat="47.22318" lon="5.4036">
        <ele>181.2998</ele>
        <time>2026-05-15T11:41:36+02:00</time>
      </trkpt>
      <trkpt lat="47.22322" lon="5.40358">
        <ele>181.2998</ele>
        <time>2026-05-15T11:41:37+02:00</time>
      </trkpt>
      <trkpt lat="47.22326" lon="5.40356">
        <ele>181.2998</ele>
        <time>2026-05-15T11:41:38+02:00</time>
      </trkpt>
      <trkpt lat="47.22331" lon="5.40354">
        <ele>181.2998</ele>
        <time>2026-05-15T11:41:39+02:00</time>
      </trkpt>
      <trkpt lat="47.22335" lon="5.40352">
        <ele>181.2998</ele>
        <time>2026-05-15T11:41:40+02:00</time>
      </trkpt>
      <trkpt lat="47.22339" lon="5.40349">
        <ele>181.2998</ele>
        <time>2026-05-15T11:41:41+02:00</time>
      </trkpt>
      <trkpt lat="47.22344" lon="5.40348">
        <ele>181.2998</ele>
        <time>2026-05-15T11:41:42+02:00</time>
      </trkpt>
      <trkpt lat="47.22348" lon="5.40346">
        <ele>181.2998</ele>
        <time>2026-05-15T11:41:43+02:00</time>
      </trkpt>
      <trkpt lat="47.22352" lon="5.40344">
        <ele>181.2998</ele>
        <time>2026-05-15T11:41:44+02:00</time>
      </trkpt>
      <trkpt lat="47.22356" lon="5.40342">
        <ele>181.2998</ele>
        <time>2026-05-15T11:41:45+02:00</time>
      </trkpt>
      <trkpt lat="47.2236" lon="5.4034">
        <ele>181.2998</ele>
        <time>2026-05-15T11:41:46+02:00</time>
      </trkpt>
      <trkpt lat="47.22364" lon="5.40338">
        <ele>181.2998</ele>
        <time>2026-05-15T11:41:47+02:00</time>
      </trkpt>
      <trkpt lat="47.22368" lon="5.40336">
        <ele>181.2998</ele>
        <time>2026-05-15T11:41:48+02:00</time>
      </trkpt>
      <trkpt lat="47.22373" lon="5.40335">
        <ele>181.2998</ele>
        <time>2026-05-15T11:41:49+02:00</time>
      </trkpt>
      <trkpt lat="47.22377" lon="5.40333">
        <ele>181.2998</ele>
        <time>2026-05-15T11:41:50+02:00</time>
      </trkpt>
      <trkpt lat="47.22381" lon="5.40331">
        <ele>181.2998</ele>
        <time>2026-05-15T11:41:51+02:00</time>
      </trkpt>
      <trkpt lat="47.22385" lon="5.40329">
        <ele>181.2998</ele>
        <time>2026-05-15T11:41:52+02:00</time>
      </trkpt>
      <trkpt lat="47.22389" lon="5.40326">
        <ele>181.2998</ele>
        <time>2026-05-15T11:41:53+02:00</time>
      </trkpt>
      <trkpt lat="47.22393" lon="5.40324">
        <ele>181.2998</ele>
        <time>2026-05-15T11:41:54+02:00</time>
      </trkpt>
      <trkpt lat="47.22397" lon="5.40322">
        <ele>181.2998</ele>
        <time>2026-05-15T11:41:55+02:00</time>
      </trkpt>
      <trkpt lat="47.22401" lon="5.4032">
        <ele>181.2998</ele>
        <time>2026-05-15T11:41:56+02:00</time>
      </trkpt>
      <trkpt lat="47.22405" lon="5.40318">
        <ele>181.2998</ele>
        <time>2026-05-15T11:41:57+02:00</time>
      </trkpt>
      <trkpt lat="47.2241" lon="5.40316">
        <ele>181.2998</ele>
        <time>2026-05-15T11:41:58+02:00</time>
      </trkpt>
      <trkpt lat="47.22414" lon="5.40314">
        <ele>181.2998</ele>
        <time>2026-05-15T11:41:59+02:00</time>
      </trkpt>
      <trkpt lat="47.22418" lon="5.40312">
        <ele>181.2998</ele>
        <time>2026-05-15T11:42:00+02:00</time>
      </trkpt>
      <trkpt lat="47.22422" lon="5.4031">
        <ele>181.2998</ele>
        <time>2026-05-15T11:42:01+02:00</time>
      </trkpt>
      <trkpt lat="47.22426" lon="5.40307">
        <ele>181.2998</ele>
        <time>2026-05-15T11:42:02+02:00</time>
      </trkpt>
      <trkpt lat="47.22431" lon="5.40305">
        <ele>181.2002</ele>
        <time>2026-05-15T11:42:03+02:00</time>
      </trkpt>
      <trkpt lat="47.22435" lon="5.40302">
        <ele>181.2002</ele>
        <time>2026-05-15T11:42:04+02:00</time>
      </trkpt>
      <trkpt lat="47.22439" lon="5.403">
        <ele>181.2002</ele>
        <time>2026-05-15T11:42:05+02:00</time>
      </trkpt>
      <trkpt lat="47.22443" lon="5.40297">
        <ele>181.2002</ele>
        <time>2026-05-15T11:42:06+02:00</time>
      </trkpt>
      <trkpt lat="47.22447" lon="5.40296">
        <ele>181.2002</ele>
        <time>2026-05-15T11:42:07+02:00</time>
      </trkpt>
      <trkpt lat="47.22451" lon="5.40294">
        <ele>181.2002</ele>
        <time>2026-05-15T11:42:08+02:00</time>
      </trkpt>
      <trkpt lat="47.22455" lon="5.40293">
        <ele>181.2002</ele>
        <time>2026-05-15T11:42:09+02:00</time>
      </trkpt>
      <trkpt lat="47.2246" lon="5.40292">
        <ele>181.2002</ele>
        <time>2026-05-15T11:42:10+02:00</time>
      </trkpt>
      <trkpt lat="47.22463" lon="5.40291">
        <ele>181.2002</ele>
        <time>2026-05-15T11:42:11+02:00</time>
      </trkpt>
      <trkpt lat="47.22476" lon="5.40288">
        <ele>181.2002</ele>
        <time>2026-05-15T11:42:12+02:00</time>
      </trkpt>
      <trkpt lat="47.2248" lon="5.40288">
        <ele>181.2002</ele>
        <time>2026-05-15T11:42:13+02:00</time>
      </trkpt>
      <trkpt lat="47.22484" lon="5.4029">
        <ele>181.2998</ele>
        <time>2026-05-15T11:42:14+02:00</time>
      </trkpt>
      <trkpt lat="47.22488" lon="5.40292">
        <ele>181.2998</ele>
        <time>2026-05-15T11:42:15+02:00</time>
      </trkpt>
      <trkpt lat="47.22492" lon="5.40295">
        <ele>181.2998</ele>
        <time>2026-05-15T11:42:16+02:00</time>
      </trkpt>
      <trkpt lat="47.22495" lon="5.40298">
        <ele>181.40039</ele>
        <time>2026-05-15T11:42:17+02:00</time>
      </trkpt>
      <trkpt lat="47.22499" lon="5.403">
        <ele>181.40039</ele>
        <time>2026-05-15T11:42:18+02:00</time>
      </trkpt>
      <trkpt lat="47.22503" lon="5.40304">
        <ele>181.40039</ele>
        <time>2026-05-15T11:42:19+02:00</time>
      </trkpt>
      <trkpt lat="47.22506" lon="5.40307">
        <ele>181.2002</ele>
        <time>2026-05-15T11:42:20+02:00</time>
      </trkpt>
      <trkpt lat="47.2251" lon="5.40309">
        <ele>181.2002</ele>
        <time>2026-05-15T11:42:21+02:00</time>
      </trkpt>
      <trkpt lat="47.22513" lon="5.40311">
        <ele>181.2002</ele>
        <time>2026-05-15T11:42:22+02:00</time>
      </trkpt>
      <trkpt lat="47.22516" lon="5.40313">
        <ele>181</ele>
        <time>2026-05-15T11:42:23+02:00</time>
      </trkpt>
      <trkpt lat="47.2252" lon="5.40314">
        <ele>181</ele>
        <time>2026-05-15T11:42:24+02:00</time>
      </trkpt>
      <trkpt lat="47.22523" lon="5.40314">
        <ele>180.90039</ele>
        <time>2026-05-15T11:42:25+02:00</time>
      </trkpt>
      <trkpt lat="47.22527" lon="5.40314">
        <ele>180.90039</ele>
        <time>2026-05-15T11:42:26+02:00</time>
      </trkpt>
      <trkpt lat="47.2253" lon="5.40314">
        <ele>180.90039</ele>
        <time>2026-05-15T11:42:27+02:00</time>
      </trkpt>
      <trkpt lat="47.22534" lon="5.40313">
        <ele>180.90039</ele>
        <time>2026-05-15T11:42:28+02:00</time>
      </trkpt>
      <trkpt lat="47.22538" lon="5.4031">
        <ele>181.10059</ele>
        <time>2026-05-15T11:42:29+02:00</time>
      </trkpt>
      <trkpt lat="47.22542" lon="5.40308">
        <ele>181.2002</ele>
        <time>2026-05-15T11:42:30+02:00</time>
      </trkpt>
      <trkpt lat="47.22545" lon="5.40306">
        <ele>181.2002</ele>
        <time>2026-05-15T11:42:31+02:00</time>
      </trkpt>
      <trkpt lat="47.22549" lon="5.40305">
        <ele>181.2002</ele>
        <time>2026-05-15T11:42:32+02:00</time>
      </trkpt>
      <trkpt lat="47.22553" lon="5.40304">
        <ele>181.40039</ele>
        <time>2026-05-15T11:42:33+02:00</time>
      </trkpt>
      <trkpt lat="47.22558" lon="5.40305">
        <ele>181.40039</ele>
        <time>2026-05-15T11:42:34+02:00</time>
      </trkpt>
      <trkpt lat="47.22562" lon="5.40306">
        <ele>181.40039</ele>
        <time>2026-05-15T11:42:35+02:00</time>
      </trkpt>
      <trkpt lat="47.22566" lon="5.40309">
        <ele>181.5</ele>
        <time>2026-05-15T11:42:36+02:00</time>
      </trkpt>
      <trkpt lat="47.2257" lon="5.40311">
        <ele>181.60059</ele>
        <time>2026-05-15T11:42:37+02:00</time>
      </trkpt>
      <trkpt lat="47.22574" lon="5.40314">
        <ele>181.7002</ele>
        <time>2026-05-15T11:42:38+02:00</time>
      </trkpt>
      <trkpt lat="47.22579" lon="5.40316">
        <ele>181.7998</ele>
        <time>2026-05-15T11:42:39+02:00</time>
      </trkpt>
      <trkpt lat="47.22583" lon="5.40319">
        <ele>182</ele>
        <time>2026-05-15T11:42:40+02:00</time>
      </trkpt>
      <trkpt lat="47.22587" lon="5.40321">
        <ele>182.10059</ele>
        <time>2026-05-15T11:42:41+02:00</time>
      </trkpt>
      <trkpt lat="47.22592" lon="5.40323">
        <ele>182.2002</ele>
        <time>2026-05-15T11:42:42+02:00</time>
      </trkpt>
      <trkpt lat="47.22596" lon="5.40325">
        <ele>182.2998</ele>
        <time>2026-05-15T11:42:43+02:00</time>
      </trkpt>
      <trkpt lat="47.226" lon="5.40328">
        <ele>182.40039</ele>
        <time>2026-05-15T11:42:44+02:00</time>
      </trkpt>
      <trkpt lat="47.22604" lon="5.4033">
        <ele>182.5</ele>
        <time>2026-05-15T11:42:45+02:00</time>
      </trkpt>
      <trkpt lat="47.22609" lon="5.40332">
        <ele>182.5</ele>
        <time>2026-05-15T11:42:46+02:00</time>
      </trkpt>
      <trkpt lat="47.22613" lon="5.40335">
        <ele>182.5</ele>
        <time>2026-05-15T11:42:47+02:00</time>
      </trkpt>
      <trkpt lat="47.22617" lon="5.40338">
        <ele>182.40039</ele>
        <time>2026-05-15T11:42:48+02:00</time>
      </trkpt>
      <trkpt lat="47.22621" lon="5.4034">
        <ele>182.60059</ele>
        <time>2026-05-15T11:42:49+02:00</time>
      </trkpt>
      <trkpt lat="47.22626" lon="5.40343">
        <ele>182.60059</ele>
        <time>2026-05-15T11:42:50+02:00</time>
      </trkpt>
      <trkpt lat="47.2263" lon="5.40345">
        <ele>182.5</ele>
        <time>2026-05-15T11:42:51+02:00</time>
      </trkpt>
      <trkpt lat="47.22635" lon="5.40348">
        <ele>182.7998</ele>
        <time>2026-05-15T11:42:52+02:00</time>
      </trkpt>
      <trkpt lat="47.22639" lon="5.4035">
        <ele>182.90039</ele>
        <time>2026-05-15T11:42:53+02:00</time>
      </trkpt>
      <trkpt lat="47.22643" lon="5.40353">
        <ele>182.90039</ele>
        <time>2026-05-15T11:42:54+02:00</time>
      </trkpt>
      <trkpt lat="47.22648" lon="5.40356">
        <ele>183.2002</ele>
        <time>2026-05-15T11:42:55+02:00</time>
      </trkpt>
      <trkpt lat="47.22653" lon="5.40359">
        <ele>183.2998</ele>
        <time>2026-05-15T11:42:56+02:00</time>
      </trkpt>
      <trkpt lat="47.22658" lon="5.40361">
        <ele>183.40039</ele>
        <time>2026-05-15T11:42:57+02:00</time>
      </trkpt>
      <trkpt lat="47.22662" lon="5.40364">
        <ele>183.40039</ele>
        <time>2026-05-15T11:42:58+02:00</time>
      </trkpt>
      <trkpt lat="47.22666" lon="5.40366">
        <ele>183.60059</ele>
        <time>2026-05-15T11:42:59+02:00</time>
      </trkpt>
      <trkpt lat="47.2267" lon="5.40368">
        <ele>183.60059</ele>
        <time>2026-05-15T11:43:00+02:00</time>
      </trkpt>
      <trkpt lat="47.22674" lon="5.40369">
        <ele>183.60059</ele>
        <time>2026-05-15T11:43:01+02:00</time>
      </trkpt>
      <trkpt lat="47.22677" lon="5.4037">
        <ele>183.60059</ele>
        <time>2026-05-15T11:43:02+02:00</time>
      </trkpt>
      <trkpt lat="47.2268" lon="5.40371">
        <ele>183.60059</ele>
        <time>2026-05-15T11:43:03+02:00</time>
      </trkpt>
      <trkpt lat="47.22683" lon="5.40373">
        <ele>184.10059</ele>
        <time>2026-05-15T11:43:04+02:00</time>
      </trkpt>
      <trkpt lat="47.22687" lon="5.40374">
        <ele>184.2998</ele>
        <time>2026-05-15T11:43:05+02:00</time>
      </trkpt>
      <trkpt lat="47.22691" lon="5.40376">
        <ele>184.2998</ele>
        <time>2026-05-15T11:43:06+02:00</time>
      </trkpt>
      <trkpt lat="47.22696" lon="5.40378">
        <ele>184.7002</ele>
        <time>2026-05-15T11:43:07+02:00</time>
      </trkpt>
      <trkpt lat="47.22701" lon="5.4038">
        <ele>185</ele>
        <time>2026-05-15T11:43:08+02:00</time>
      </trkpt>
      <trkpt lat="47.22706" lon="5.40382">
        <ele>185.5</ele>
        <time>2026-05-15T11:43:09+02:00</time>
      </trkpt>
      <trkpt lat="47.2271" lon="5.40384">
        <ele>185.2998</ele>
        <time>2026-05-15T11:43:10+02:00</time>
      </trkpt>
      <trkpt lat="47.22715" lon="5.40386">
        <ele>185.10059</ele>
        <time>2026-05-15T11:43:11+02:00</time>
      </trkpt>
      <trkpt lat="47.22719" lon="5.40388">
        <ele>185.10059</ele>
        <time>2026-05-15T11:43:12+02:00</time>
      </trkpt>
      <trkpt lat="47.22724" lon="5.40391">
        <ele>185.40039</ele>
        <time>2026-05-15T11:43:13+02:00</time>
      </trkpt>
      <trkpt lat="47.22729" lon="5.40393">
        <ele>185.2998</ele>
        <time>2026-05-15T11:43:14+02:00</time>
      </trkpt>
      <trkpt lat="47.22734" lon="5.40396">
        <ele>185.2002</ele>
        <time>2026-05-15T11:43:15+02:00</time>
      </trkpt>
      <trkpt lat="47.22738" lon="5.40398">
        <ele>185.2002</ele>
        <time>2026-05-15T11:43:16+02:00</time>
      </trkpt>
      <trkpt lat="47.22743" lon="5.40401">
        <ele>185.90039</ele>
        <time>2026-05-15T11:43:17+02:00</time>
      </trkpt>
      <trkpt lat="47.22748" lon="5.40403">
        <ele>185.7998</ele>
        <time>2026-05-15T11:43:18+02:00</time>
      </trkpt>
      <trkpt lat="47.22752" lon="5.40406">
        <ele>185.60059</ele>
        <time>2026-05-15T11:43:19+02:00</time>
      </trkpt>
      <trkpt lat="47.22756" lon="5.40408">
        <ele>185.2998</ele>
        <time>2026-05-15T11:43:20+02:00</time>
      </trkpt>
      <trkpt lat="47.22761" lon="5.4041">
        <ele>185.2998</ele>
        <time>2026-05-15T11:43:21+02:00</time>
      </trkpt>
      <trkpt lat="47.22765" lon="5.40412">
        <ele>184.7002</ele>
        <time>2026-05-15T11:43:22+02:00</time>
      </trkpt>
      <trkpt lat="47.2277" lon="5.40414">
        <ele>184</ele>
        <time>2026-05-15T11:43:23+02:00</time>
      </trkpt>
      <trkpt lat="47.22774" lon="5.40415">
        <ele>183.5</ele>
        <time>2026-05-15T11:43:24+02:00</time>
      </trkpt>
      <trkpt lat="47.22778" lon="5.40417">
        <ele>183.60059</ele>
        <time>2026-05-15T11:43:25+02:00</time>
      </trkpt>
      <trkpt lat="47.22783" lon="5.40418">
        <ele>183.2002</ele>
        <time>2026-05-15T11:43:26+02:00</time>
      </trkpt>
      <trkpt lat="47.22787" lon="5.40419">
        <ele>182.7998</ele>
        <time>2026-05-15T11:43:27+02:00</time>
      </trkpt>
      <trkpt lat="47.22792" lon="5.4042">
        <ele>182.5</ele>
        <time>2026-05-15T11:43:28+02:00</time>
      </trkpt>
      <trkpt lat="47.22796" lon="5.4042">
        <ele>182.5</ele>
        <time>2026-05-15T11:43:29+02:00</time>
      </trkpt>
      <trkpt lat="47.22801" lon="5.40421">
        <ele>182.2002</ele>
        <time>2026-05-15T11:43:30+02:00</time>
      </trkpt>
      <trkpt lat="47.22806" lon="5.40421">
        <ele>182.10059</ele>
        <time>2026-05-15T11:43:31+02:00</time>
      </trkpt>
      <trkpt lat="47.2281" lon="5.40421">
        <ele>182</ele>
        <time>2026-05-15T11:43:32+02:00</time>
      </trkpt>
      <trkpt lat="47.22815" lon="5.4042">
        <ele>181.90039</ele>
        <time>2026-05-15T11:43:33+02:00</time>
      </trkpt>
      <trkpt lat="47.22819" lon="5.4042">
        <ele>181.90039</ele>
        <time>2026-05-15T11:43:34+02:00</time>
      </trkpt>
      <trkpt lat="47.22824" lon="5.40419">
        <ele>181.7998</ele>
        <time>2026-05-15T11:43:35+02:00</time>
      </trkpt>
      <trkpt lat="47.22829" lon="5.40419">
        <ele>181.7998</ele>
        <time>2026-05-15T11:43:36+02:00</time>
      </trkpt>
      <trkpt lat="47.22833" lon="5.40419">
        <ele>181.7002</ele>
        <time>2026-05-15T11:43:37+02:00</time>
      </trkpt>
      <trkpt lat="47.22838" lon="5.40418">
        <ele>181.7002</ele>
        <time>2026-05-15T11:43:38+02:00</time>
      </trkpt>
      <trkpt lat="47.22843" lon="5.40418">
        <ele>181.7002</ele>
        <time>2026-05-15T11:43:39+02:00</time>
      </trkpt>
      <trkpt lat="47.22847" lon="5.40417">
        <ele>181.7002</ele>
        <time>2026-05-15T11:43:40+02:00</time>
      </trkpt>
      <trkpt lat="47.22852" lon="5.40417">
        <ele>181.7002</ele>
        <time>2026-05-15T11:43:41+02:00</time>
      </trkpt>
      <trkpt lat="47.22856" lon="5.40416">
        <ele>181.7002</ele>
        <time>2026-05-15T11:43:42+02:00</time>
      </trkpt>
      <trkpt lat="47.22861" lon="5.40416">
        <ele>181.7002</ele>
        <time>2026-05-15T11:43:43+02:00</time>
      </trkpt>
      <trkpt lat="47.22865" lon="5.40415">
        <ele>181.60059</ele>
        <time>2026-05-15T11:43:44+02:00</time>
      </trkpt>
      <trkpt lat="47.2287" lon="5.40415">
        <ele>181.60059</ele>
        <time>2026-05-15T11:43:45+02:00</time>
      </trkpt>
      <trkpt lat="47.22875" lon="5.40414">
        <ele>181.7002</ele>
        <time>2026-05-15T11:43:46+02:00</time>
      </trkpt>
      <trkpt lat="47.22879" lon="5.40413">
        <ele>181.7002</ele>
        <time>2026-05-15T11:43:47+02:00</time>
      </trkpt>
      <trkpt lat="47.22884" lon="5.40412">
        <ele>181.7002</ele>
        <time>2026-05-15T11:43:48+02:00</time>
      </trkpt>
      <trkpt lat="47.22888" lon="5.40411">
        <ele>181.7002</ele>
        <time>2026-05-15T11:43:49+02:00</time>
      </trkpt>
      <trkpt lat="47.22893" lon="5.4041">
        <ele>181.7002</ele>
        <time>2026-05-15T11:43:50+02:00</time>
      </trkpt>
      <trkpt lat="47.22897" lon="5.40409">
        <ele>181.7002</ele>
        <time>2026-05-15T11:43:51+02:00</time>
      </trkpt>
      <trkpt lat="47.22901" lon="5.40408">
        <ele>181.7002</ele>
        <time>2026-05-15T11:43:52+02:00</time>
      </trkpt>
      <trkpt lat="47.22906" lon="5.40407">
        <ele>181.60059</ele>
        <time>2026-05-15T11:43:53+02:00</time>
      </trkpt>
      <trkpt lat="47.2291" lon="5.40406">
        <ele>181.60059</ele>
        <time>2026-05-15T11:43:54+02:00</time>
      </trkpt>
      <trkpt lat="47.22915" lon="5.40405">
        <ele>181.60059</ele>
        <time>2026-05-15T11:43:55+02:00</time>
      </trkpt>
      <trkpt lat="47.22919" lon="5.40404">
        <ele>181.5</ele>
        <time>2026-05-15T11:43:56+02:00</time>
      </trkpt>
      <trkpt lat="47.22923" lon="5.40402">
        <ele>181.5</ele>
        <time>2026-05-15T11:43:57+02:00</time>
      </trkpt>
      <trkpt lat="47.22928" lon="5.40401">
        <ele>181.5</ele>
        <time>2026-05-15T11:43:58+02:00</time>
      </trkpt>
      <trkpt lat="47.22932" lon="5.404">
        <ele>181.5</ele>
        <time>2026-05-15T11:43:59+02:00</time>
      </trkpt>
      <trkpt lat="47.22937" lon="5.40399">
        <ele>181.40039</ele>
        <time>2026-05-15T11:44:00+02:00</time>
      </trkpt>
      <trkpt lat="47.22941" lon="5.40397">
        <ele>181.40039</ele>
        <time>2026-05-15T11:44:01+02:00</time>
      </trkpt>
      <trkpt lat="47.22946" lon="5.40396">
        <ele>181.40039</ele>
        <time>2026-05-15T11:44:02+02:00</time>
      </trkpt>
      <trkpt lat="47.22951" lon="5.40395">
        <ele>181.2998</ele>
        <time>2026-05-15T11:44:03+02:00</time>
      </trkpt>
      <trkpt lat="47.22955" lon="5.40393">
        <ele>181.2998</ele>
        <time>2026-05-15T11:44:04+02:00</time>
      </trkpt>
      <trkpt lat="47.2296" lon="5.40392">
        <ele>181.2998</ele>
        <time>2026-05-15T11:44:05+02:00</time>
      </trkpt>
      <trkpt lat="47.22965" lon="5.4039">
        <ele>181.2998</ele>
        <time>2026-05-15T11:44:06+02:00</time>
      </trkpt>
      <trkpt lat="47.22969" lon="5.40388">
        <ele>181.2998</ele>
        <time>2026-05-15T11:44:07+02:00</time>
      </trkpt>
      <trkpt lat="47.22973" lon="5.40386">
        <ele>181.2998</ele>
        <time>2026-05-15T11:44:08+02:00</time>
      </trkpt>
      <trkpt lat="47.22978" lon="5.40384">
        <ele>181.2998</ele>
        <time>2026-05-15T11:44:09+02:00</time>
      </trkpt>
      <trkpt lat="47.22982" lon="5.40381">
        <ele>181.2998</ele>
        <time>2026-05-15T11:44:10+02:00</time>
      </trkpt>
      <trkpt lat="47.22986" lon="5.40378">
        <ele>181.2998</ele>
        <time>2026-05-15T11:44:11+02:00</time>
      </trkpt>
      <trkpt lat="47.22991" lon="5.40375">
        <ele>181.2998</ele>
        <time>2026-05-15T11:44:12+02:00</time>
      </trkpt>
      <trkpt lat="47.22995" lon="5.40372">
        <ele>181.2998</ele>
        <time>2026-05-15T11:44:13+02:00</time>
      </trkpt>
      <trkpt lat="47.22999" lon="5.40368">
        <ele>181.2998</ele>
        <time>2026-05-15T11:44:14+02:00</time>
      </trkpt>
      <trkpt lat="47.23003" lon="5.40365">
        <ele>181.2998</ele>
        <time>2026-05-15T11:44:15+02:00</time>
      </trkpt>
      <trkpt lat="47.23007" lon="5.40361">
        <ele>181.40039</ele>
        <time>2026-05-15T11:44:16+02:00</time>
      </trkpt>
      <trkpt lat="47.23011" lon="5.40357">
        <ele>181.40039</ele>
        <time>2026-05-15T11:44:17+02:00</time>
      </trkpt>
      <trkpt lat="47.23015" lon="5.40352">
        <ele>181.40039</ele>
        <time>2026-05-15T11:44:18+02:00</time>
      </trkpt>
      <trkpt lat="47.23019" lon="5.40348">
        <ele>181.5</ele>
        <time>2026-05-15T11:44:19+02:00</time>
      </trkpt>
      <trkpt lat="47.23023" lon="5.40345">
        <ele>181.5</ele>
        <time>2026-05-15T11:44:20+02:00</time>
      </trkpt>
      <trkpt lat="47.23026" lon="5.40341">
        <ele>181.5</ele>
        <time>2026-05-15T11:44:21+02:00</time>
      </trkpt>
      <trkpt lat="47.2303" lon="5.40337">
        <ele>181.40039</ele>
        <time>2026-05-15T11:44:22+02:00</time>
      </trkpt>
      <trkpt lat="47.23034" lon="5.40333">
        <ele>181.40039</ele>
        <time>2026-05-15T11:44:23+02:00</time>
      </trkpt>
      <trkpt lat="47.23039" lon="5.40331">
        <ele>181.5</ele>
        <time>2026-05-15T11:44:24+02:00</time>
      </trkpt>
      <trkpt lat="47.23043" lon="5.40329">
        <ele>181.5</ele>
        <time>2026-05-15T11:44:25+02:00</time>
      </trkpt>
      <trkpt lat="47.23047" lon="5.40327">
        <ele>181.60059</ele>
        <time>2026-05-15T11:44:26+02:00</time>
      </trkpt>
      <trkpt lat="47.23052" lon="5.40325">
        <ele>181.60059</ele>
        <time>2026-05-15T11:44:27+02:00</time>
      </trkpt>
      <trkpt lat="47.23056" lon="5.40325">
        <ele>181.90039</ele>
        <time>2026-05-15T11:44:28+02:00</time>
      </trkpt>
      <trkpt lat="47.2306" lon="5.40325">
        <ele>182.10059</ele>
        <time>2026-05-15T11:44:29+02:00</time>
      </trkpt>
      <trkpt lat="47.23065" lon="5.40325">
        <ele>182.40039</ele>
        <time>2026-05-15T11:44:30+02:00</time>
      </trkpt>
      <trkpt lat="47.23069" lon="5.40325">
        <ele>182.40039</ele>
        <time>2026-05-15T11:44:31+02:00</time>
      </trkpt>
      <trkpt lat="47.23073" lon="5.40325">
        <ele>182.7002</ele>
        <time>2026-05-15T11:44:32+02:00</time>
      </trkpt>
      <trkpt lat="47.23077" lon="5.40326">
        <ele>183.10059</ele>
        <time>2026-05-15T11:44:33+02:00</time>
      </trkpt>
      <trkpt lat="47.23081" lon="5.40326">
        <ele>183.10059</ele>
        <time>2026-05-15T11:44:34+02:00</time>
      </trkpt>
      <trkpt lat="47.23086" lon="5.40327">
        <ele>183.40039</ele>
        <time>2026-05-15T11:44:35+02:00</time>
      </trkpt>
      <trkpt lat="47.2309" lon="5.40327">
        <ele>183.60059</ele>
        <time>2026-05-15T11:44:36+02:00</time>
      </trkpt>
      <trkpt lat="47.23095" lon="5.40327">
        <ele>183.7998</ele>
        <time>2026-05-15T11:44:37+02:00</time>
      </trkpt>
      <trkpt lat="47.23099" lon="5.40327">
        <ele>183.7998</ele>
        <time>2026-05-15T11:44:38+02:00</time>
      </trkpt>
      <trkpt lat="47.23104" lon="5.40328">
        <ele>183.90039</ele>
        <time>2026-05-15T11:44:39+02:00</time>
      </trkpt>
      <trkpt lat="47.23108" lon="5.40328">
        <ele>184.10059</ele>
        <time>2026-05-15T11:44:40+02:00</time>
      </trkpt>
      <trkpt lat="47.23113" lon="5.40329">
        <ele>184.2998</ele>
        <time>2026-05-15T11:44:41+02:00</time>
      </trkpt>
      <trkpt lat="47.23118" lon="5.4033">
        <ele>184.90039</ele>
        <time>2026-05-15T11:44:42+02:00</time>
      </trkpt>
      <trkpt lat="47.23122" lon="5.40331">
        <ele>184.90039</ele>
        <time>2026-05-15T11:44:43+02:00</time>
      </trkpt>
      <trkpt lat="47.23127" lon="5.40331">
        <ele>185.10059</ele>
        <time>2026-05-15T11:44:44+02:00</time>
      </trkpt>
      <trkpt lat="47.23131" lon="5.40332">
        <ele>185.2998</ele>
        <time>2026-05-15T11:44:45+02:00</time>
      </trkpt>
      <trkpt lat="47.23135" lon="5.40333">
        <ele>185.40039</ele>
        <time>2026-05-15T11:44:46+02:00</time>
      </trkpt>
      <trkpt lat="47.2314" lon="5.40335">
        <ele>185.40039</ele>
        <time>2026-05-15T11:44:47+02:00</time>
      </trkpt>
      <trkpt lat="47.23144" lon="5.40336">
        <ele>185.5</ele>
        <time>2026-05-15T11:44:48+02:00</time>
      </trkpt>
      <trkpt lat="47.23148" lon="5.40337">
        <ele>185.5</ele>
        <time>2026-05-15T11:44:49+02:00</time>
      </trkpt>
      <trkpt lat="47.23153" lon="5.40338">
        <ele>185.5</ele>
        <time>2026-05-15T11:44:50+02:00</time>
      </trkpt>
      <trkpt lat="47.23157" lon="5.40339">
        <ele>185.5</ele>
        <time>2026-05-15T11:44:51+02:00</time>
      </trkpt>
      <trkpt lat="47.23161" lon="5.4034">
        <ele>185.5</ele>
        <time>2026-05-15T11:44:52+02:00</time>
      </trkpt>
      <trkpt lat="47.23164" lon="5.40342">
        <ele>185.5</ele>
        <time>2026-05-15T11:44:53+02:00</time>
      </trkpt>
      <trkpt lat="47.23168" lon="5.40343">
        <ele>185.5</ele>
        <time>2026-05-15T11:44:54+02:00</time>
      </trkpt>
      <trkpt lat="47.23172" lon="5.40344">
        <ele>185.5</ele>
        <time>2026-05-15T11:44:55+02:00</time>
      </trkpt>
      <trkpt lat="47.23175" lon="5.40344">
        <ele>185.40039</ele>
        <time>2026-05-15T11:44:56+02:00</time>
      </trkpt>
      <trkpt lat="47.23178" lon="5.40345">
        <ele>185.40039</ele>
        <time>2026-05-15T11:44:57+02:00</time>
      </trkpt>
      <trkpt lat="47.23182" lon="5.40345">
        <ele>185.2998</ele>
        <time>2026-05-15T11:44:58+02:00</time>
      </trkpt>
      <trkpt lat="47.23185" lon="5.40346">
        <ele>185.2998</ele>
        <time>2026-05-15T11:44:59+02:00</time>
      </trkpt>
      <trkpt lat="47.23188" lon="5.40346">
        <ele>185.2002</ele>
        <time>2026-05-15T11:45:00+02:00</time>
      </trkpt>
      <trkpt lat="47.23192" lon="5.40347">
        <ele>185.2002</ele>
        <time>2026-05-15T11:45:01+02:00</time>
      </trkpt>
      <trkpt lat="47.23195" lon="5.40347">
        <ele>185.10059</ele>
        <time>2026-05-15T11:45:02+02:00</time>
      </trkpt>
      <trkpt lat="47.23198" lon="5.40347">
        <ele>185.10059</ele>
        <time>2026-05-15T11:45:03+02:00</time>
      </trkpt>
      <trkpt lat="47.23201" lon="5.40347">
        <ele>185</ele>
        <time>2026-05-15T11:45:04+02:00</time>
      </trkpt>
      <trkpt lat="47.23204" lon="5.40346">
        <ele>185</ele>
        <time>2026-05-15T11:45:05+02:00</time>
      </trkpt>
      <trkpt lat="47.23206" lon="5.40345">
        <ele>184.90039</ele>
        <time>2026-05-15T11:45:06+02:00</time>
      </trkpt>
      <trkpt lat="47.23208" lon="5.40345">
        <ele>184.90039</ele>
        <time>2026-05-15T11:45:07+02:00</time>
      </trkpt>
      <trkpt lat="47.2321" lon="5.40345">
        <ele>184.7002</ele>
        <time>2026-05-15T11:45:08+02:00</time>
      </trkpt>
      <trkpt lat="47.23211" lon="5.40345">
        <ele>184.7002</ele>
        <time>2026-05-15T11:45:09+02:00</time>
      </trkpt>
      <trkpt lat="47.23212" lon="5.40345">
        <ele>184.7002</ele>
        <time>2026-05-15T11:45:10+02:00</time>
      </trkpt>
      <trkpt lat="47.23213" lon="5.40345">
        <ele>184.7002</ele>
        <time>2026-05-15T11:45:11+02:00</time>
      </trkpt>
      <trkpt lat="47.23213" lon="5.40345">
        <ele>184.7002</ele>
        <time>2026-05-15T11:45:12+02:00</time>
      </trkpt>
      <trkpt lat="47.23213" lon="5.40345">
        <ele>184.7002</ele>
        <time>2026-05-15T11:45:13+02:00</time>
      </trkpt>
      <trkpt lat="47.23232" lon="5.40342">
        <ele>184.5</ele>
        <time>2026-05-15T11:46:09+02:00</time>
      </trkpt>
      <trkpt lat="47.23235" lon="5.40341">
        <ele>184.5</ele>
        <time>2026-05-15T11:46:10+02:00</time>
      </trkpt>
      <trkpt lat="47.23239" lon="5.4034">
        <ele>184.5</ele>
        <time>2026-05-15T11:46:11+02:00</time>
      </trkpt>
      <trkpt lat="47.23242" lon="5.40339">
        <ele>184.40039</ele>
        <time>2026-05-15T11:46:12+02:00</time>
      </trkpt>
      <trkpt lat="47.23244" lon="5.40339">
        <ele>184.40039</ele>
        <time>2026-05-15T11:46:13+02:00</time>
      </trkpt>
      <trkpt lat="47.23247" lon="5.4034">
        <ele>184.40039</ele>
        <time>2026-05-15T11:46:14+02:00</time>
      </trkpt>
      <trkpt lat="47.23249" lon="5.40341">
        <ele>184.40039</ele>
        <time>2026-05-15T11:46:15+02:00</time>
      </trkpt>
      <trkpt lat="47.23251" lon="5.4034">
        <ele>184.40039</ele>
        <time>2026-05-15T11:46:16+02:00</time>
      </trkpt>
      <trkpt lat="47.23252" lon="5.40338">
        <ele>184.5</ele>
        <time>2026-05-15T11:46:17+02:00</time>
      </trkpt>
      <trkpt lat="47.23254" lon="5.40338">
        <ele>184.5</ele>
        <time>2026-05-15T11:46:18+02:00</time>
      </trkpt>
      <trkpt lat="47.23256" lon="5.40338">
        <ele>184.5</ele>
        <time>2026-05-15T11:46:19+02:00</time>
      </trkpt>
      <trkpt lat="47.23258" lon="5.40339">
        <ele>184.5</ele>
        <time>2026-05-15T11:46:20+02:00</time>
      </trkpt>
      <trkpt lat="47.2326" lon="5.4034">
        <ele>184.5</ele>
        <time>2026-05-15T11:46:21+02:00</time>
      </trkpt>
      <trkpt lat="47.23263" lon="5.40341">
        <ele>184.5</ele>
        <time>2026-05-15T11:46:22+02:00</time>
      </trkpt>
      <trkpt lat="47.23266" lon="5.40342">
        <ele>184.5</ele>
        <time>2026-05-15T11:46:23+02:00</time>
      </trkpt>
      <trkpt lat="47.2327" lon="5.40342">
        <ele>184.5</ele>
        <time>2026-05-15T11:46:24+02:00</time>
      </trkpt>
      <trkpt lat="47.23273" lon="5.40343">
        <ele>184.5</ele>
        <time>2026-05-15T11:46:25+02:00</time>
      </trkpt>
      <trkpt lat="47.23277" lon="5.40344">
        <ele>184.60059</ele>
        <time>2026-05-15T11:46:26+02:00</time>
      </trkpt>
      <trkpt lat="47.2328" lon="5.40345">
        <ele>184.60059</ele>
        <time>2026-05-15T11:46:27+02:00</time>
      </trkpt>
      <trkpt lat="47.23285" lon="5.40346">
        <ele>184.60059</ele>
        <time>2026-05-15T11:46:28+02:00</time>
      </trkpt>
      <trkpt lat="47.23289" lon="5.40347">
        <ele>184.7002</ele>
        <time>2026-05-15T11:46:29+02:00</time>
      </trkpt>
      <trkpt lat="47.23293" lon="5.40348">
        <ele>184.7002</ele>
        <time>2026-05-15T11:46:30+02:00</time>
      </trkpt>
      <trkpt lat="47.23297" lon="5.40349">
        <ele>184.7002</ele>
        <time>2026-05-15T11:46:31+02:00</time>
      </trkpt>
      <trkpt lat="47.23301" lon="5.4035">
        <ele>184.7998</ele>
        <time>2026-05-15T11:46:32+02:00</time>
      </trkpt>
      <trkpt lat="47.23306" lon="5.40351">
        <ele>184.90039</ele>
        <time>2026-05-15T11:46:33+02:00</time>
      </trkpt>
      <trkpt lat="47.2331" lon="5.40352">
        <ele>184.90039</ele>
        <time>2026-05-15T11:46:34+02:00</time>
      </trkpt>
      <trkpt lat="47.23315" lon="5.40353">
        <ele>185</ele>
        <time>2026-05-15T11:46:35+02:00</time>
      </trkpt>
      <trkpt lat="47.2332" lon="5.40354">
        <ele>185</ele>
        <time>2026-05-15T11:46:36+02:00</time>
      </trkpt>
      <trkpt lat="47.23324" lon="5.40355">
        <ele>185.10059</ele>
        <time>2026-05-15T11:46:37+02:00</time>
      </trkpt>
      <trkpt lat="47.23328" lon="5.40356">
        <ele>185.10059</ele>
        <time>2026-05-15T11:46:38+02:00</time>
      </trkpt>
      <trkpt lat="47.23333" lon="5.40357">
        <ele>185.2002</ele>
        <time>2026-05-15T11:46:39+02:00</time>
      </trkpt>
      <trkpt lat="47.23338" lon="5.40358">
        <ele>185.2002</ele>
        <time>2026-05-15T11:46:40+02:00</time>
      </trkpt>
      <trkpt lat="47.23342" lon="5.40359">
        <ele>185.2002</ele>
        <time>2026-05-15T11:46:41+02:00</time>
      </trkpt>
      <trkpt lat="47.23346" lon="5.4036">
        <ele>185.2002</ele>
        <time>2026-05-15T11:46:42+02:00</time>
      </trkpt>
      <trkpt lat="47.23351" lon="5.4036">
        <ele>185.2002</ele>
        <time>2026-05-15T11:46:43+02:00</time>
      </trkpt>
      <trkpt lat="47.23356" lon="5.40361">
        <ele>185.2998</ele>
        <time>2026-05-15T11:46:44+02:00</time>
      </trkpt>
      <trkpt lat="47.23361" lon="5.40361">
        <ele>185.2998</ele>
        <time>2026-05-15T11:46:45+02:00</time>
      </trkpt>
      <trkpt lat="47.23365" lon="5.40362">
        <ele>185.2998</ele>
        <time>2026-05-15T11:46:46+02:00</time>
      </trkpt>
      <trkpt lat="47.2337" lon="5.40362">
        <ele>185.2998</ele>
        <time>2026-05-15T11:46:47+02:00</time>
      </trkpt>
      <trkpt lat="47.23375" lon="5.40363">
        <ele>185.40039</ele>
        <time>2026-05-15T11:46:48+02:00</time>
      </trkpt>
      <trkpt lat="47.23379" lon="5.40363">
        <ele>185.40039</ele>
        <time>2026-05-15T11:46:49+02:00</time>
      </trkpt>
      <trkpt lat="47.23384" lon="5.40364">
        <ele>185.40039</ele>
        <time>2026-05-15T11:46:50+02:00</time>
      </trkpt>
      <trkpt lat="47.23389" lon="5.40364">
        <ele>185.40039</ele>
        <time>2026-05-15T11:46:51+02:00</time>
      </trkpt>
      <trkpt lat="47.23394" lon="5.40364">
        <ele>185.40039</ele>
        <time>2026-05-15T11:46:52+02:00</time>
      </trkpt>
      <trkpt lat="47.23399" lon="5.40365">
        <ele>185.5</ele>
        <time>2026-05-15T11:46:53+02:00</time>
      </trkpt>
      <trkpt lat="47.23404" lon="5.40366">
        <ele>185.5</ele>
        <time>2026-05-15T11:46:54+02:00</time>
      </trkpt>
      <trkpt lat="47.23408" lon="5.40367">
        <ele>185.5</ele>
        <time>2026-05-15T11:46:55+02:00</time>
      </trkpt>
      <trkpt lat="47.23413" lon="5.40367">
        <ele>185.40039</ele>
        <time>2026-05-15T11:46:56+02:00</time>
      </trkpt>
      <trkpt lat="47.23419" lon="5.40368">
        <ele>185.40039</ele>
        <time>2026-05-15T11:46:57+02:00</time>
      </trkpt>
      <trkpt lat="47.23424" lon="5.40368">
        <ele>185.40039</ele>
        <time>2026-05-15T11:46:58+02:00</time>
      </trkpt>
      <trkpt lat="47.23429" lon="5.40368">
        <ele>185.2998</ele>
        <time>2026-05-15T11:46:59+02:00</time>
      </trkpt>
      <trkpt lat="47.23434" lon="5.40368">
        <ele>185.2002</ele>
        <time>2026-05-15T11:47:00+02:00</time>
      </trkpt>
      <trkpt lat="47.2344" lon="5.40369">
        <ele>185.10059</ele>
        <time>2026-05-15T11:47:01+02:00</time>
      </trkpt>
      <trkpt lat="47.23445" lon="5.4037">
        <ele>185.10059</ele>
        <time>2026-05-15T11:47:02+02:00</time>
      </trkpt>
      <trkpt lat="47.2345" lon="5.4037">
        <ele>185</ele>
        <time>2026-05-15T11:47:03+02:00</time>
      </trkpt>
      <trkpt lat="47.23455" lon="5.40371">
        <ele>184.90039</ele>
        <time>2026-05-15T11:47:04+02:00</time>
      </trkpt>
      <trkpt lat="47.2346" lon="5.40371">
        <ele>184.90039</ele>
        <time>2026-05-15T11:47:05+02:00</time>
      </trkpt>
      <trkpt lat="47.23465" lon="5.40372">
        <ele>184.7998</ele>
        <time>2026-05-15T11:47:06+02:00</time>
      </trkpt>
      <trkpt lat="47.2347" lon="5.40373">
        <ele>184.60059</ele>
        <time>2026-05-15T11:47:07+02:00</time>
      </trkpt>
      <trkpt lat="47.23476" lon="5.40374">
        <ele>184.5</ele>
        <time>2026-05-15T11:47:08+02:00</time>
      </trkpt>
      <trkpt lat="47.23481" lon="5.40374">
        <ele>184.40039</ele>
        <time>2026-05-15T11:47:09+02:00</time>
      </trkpt>
      <trkpt lat="47.23486" lon="5.40375">
        <ele>184.2998</ele>
        <time>2026-05-15T11:47:10+02:00</time>
      </trkpt>
      <trkpt lat="47.23492" lon="5.40375">
        <ele>184.2998</ele>
        <time>2026-05-15T11:47:11+02:00</time>
      </trkpt>
      <trkpt lat="47.23497" lon="5.40376">
        <ele>184.2998</ele>
        <time>2026-05-15T11:47:12+02:00</time>
      </trkpt>
      <trkpt lat="47.23502" lon="5.40376">
        <ele>184.2998</ele>
        <time>2026-05-15T11:47:13+02:00</time>
      </trkpt>
      <trkpt lat="47.23507" lon="5.40377">
        <ele>184.2998</ele>
        <time>2026-05-15T11:47:14+02:00</time>
      </trkpt>
      <trkpt lat="47.23512" lon="5.40378">
        <ele>184.2998</ele>
        <time>2026-05-15T11:47:15+02:00</time>
      </trkpt>
      <trkpt lat="47.23518" lon="5.40378">
        <ele>184.2998</ele>
        <time>2026-05-15T11:47:16+02:00</time>
      </trkpt>
      <trkpt lat="47.23523" lon="5.40379">
        <ele>184.2998</ele>
        <time>2026-05-15T11:47:17+02:00</time>
      </trkpt>
      <trkpt lat="47.23528" lon="5.40379">
        <ele>184.40039</ele>
        <time>2026-05-15T11:47:18+02:00</time>
      </trkpt>
      <trkpt lat="47.23533" lon="5.40379">
        <ele>184.40039</ele>
        <time>2026-05-15T11:47:19+02:00</time>
      </trkpt>
      <trkpt lat="47.23538" lon="5.4038">
        <ele>184.40039</ele>
        <time>2026-05-15T11:47:20+02:00</time>
      </trkpt>
      <trkpt lat="47.23543" lon="5.4038">
        <ele>184.40039</ele>
        <time>2026-05-15T11:47:21+02:00</time>
      </trkpt>
      <trkpt lat="47.23548" lon="5.40381">
        <ele>184.40039</ele>
        <time>2026-05-15T11:47:22+02:00</time>
      </trkpt>
      <trkpt lat="47.23553" lon="5.40381">
        <ele>184.40039</ele>
        <time>2026-05-15T11:47:23+02:00</time>
      </trkpt>
      <trkpt lat="47.23558" lon="5.40381">
        <ele>184.2998</ele>
        <time>2026-05-15T11:47:24+02:00</time>
      </trkpt>
      <trkpt lat="47.23564" lon="5.40382">
        <ele>184.2998</ele>
        <time>2026-05-15T11:47:25+02:00</time>
      </trkpt>
      <trkpt lat="47.23569" lon="5.40383">
        <ele>184.2998</ele>
        <time>2026-05-15T11:47:26+02:00</time>
      </trkpt>
      <trkpt lat="47.23574" lon="5.40384">
        <ele>184.40039</ele>
        <time>2026-05-15T11:47:27+02:00</time>
      </trkpt>
      <trkpt lat="47.2358" lon="5.40384">
        <ele>184.5</ele>
        <time>2026-05-15T11:47:28+02:00</time>
      </trkpt>
      <trkpt lat="47.23584" lon="5.40385">
        <ele>184.60059</ele>
        <time>2026-05-15T11:47:29+02:00</time>
      </trkpt>
      <trkpt lat="47.2359" lon="5.40385">
        <ele>184.60059</ele>
        <time>2026-05-15T11:47:30+02:00</time>
      </trkpt>
      <trkpt lat="47.23596" lon="5.40386">
        <ele>184.7002</ele>
        <time>2026-05-15T11:47:31+02:00</time>
      </trkpt>
      <trkpt lat="47.23601" lon="5.40387">
        <ele>184.7998</ele>
        <time>2026-05-15T11:47:32+02:00</time>
      </trkpt>
      <trkpt lat="47.23606" lon="5.40387">
        <ele>184.7998</ele>
        <time>2026-05-15T11:47:33+02:00</time>
      </trkpt>
      <trkpt lat="47.23612" lon="5.40388">
        <ele>184.90039</ele>
        <time>2026-05-15T11:47:34+02:00</time>
      </trkpt>
      <trkpt lat="47.23617" lon="5.40389">
        <ele>185.10059</ele>
        <time>2026-05-15T11:47:35+02:00</time>
      </trkpt>
      <trkpt lat="47.23622" lon="5.40389">
        <ele>185.2998</ele>
        <time>2026-05-15T11:47:36+02:00</time>
      </trkpt>
      <trkpt lat="47.23627" lon="5.4039">
        <ele>185.7998</ele>
        <time>2026-05-15T11:47:37+02:00</time>
      </trkpt>
      <trkpt lat="47.23633" lon="5.40391">
        <ele>186</ele>
        <time>2026-05-15T11:47:38+02:00</time>
      </trkpt>
      <trkpt lat="47.23638" lon="5.40391">
        <ele>186.10059</ele>
        <time>2026-05-15T11:47:39+02:00</time>
      </trkpt>
      <trkpt lat="47.23643" lon="5.40392">
        <ele>186.2998</ele>
        <time>2026-05-15T11:47:40+02:00</time>
      </trkpt>
      <trkpt lat="47.23649" lon="5.40393">
        <ele>186.40039</ele>
        <time>2026-05-15T11:47:41+02:00</time>
      </trkpt>
      <trkpt lat="47.23654" lon="5.40393">
        <ele>186.5</ele>
        <time>2026-05-15T11:47:42+02:00</time>
      </trkpt>
      <trkpt lat="47.23659" lon="5.40394">
        <ele>186.5</ele>
        <time>2026-05-15T11:47:43+02:00</time>
      </trkpt>
      <trkpt lat="47.23664" lon="5.40395">
        <ele>186.5</ele>
        <time>2026-05-15T11:47:44+02:00</time>
      </trkpt>
      <trkpt lat="47.23669" lon="5.40395">
        <ele>186.5</ele>
        <time>2026-05-15T11:47:45+02:00</time>
      </trkpt>
      <trkpt lat="47.23675" lon="5.40395">
        <ele>186.5</ele>
        <time>2026-05-15T11:47:46+02:00</time>
      </trkpt>
      <trkpt lat="47.23679" lon="5.40395">
        <ele>186.2998</ele>
        <time>2026-05-15T11:47:47+02:00</time>
      </trkpt>
      <trkpt lat="47.23685" lon="5.40396">
        <ele>185.90039</ele>
        <time>2026-05-15T11:47:48+02:00</time>
      </trkpt>
      <trkpt lat="47.2369" lon="5.40397">
        <ele>185.60059</ele>
        <time>2026-05-15T11:47:49+02:00</time>
      </trkpt>
      <trkpt lat="47.23696" lon="5.40397">
        <ele>185.2998</ele>
        <time>2026-05-15T11:47:50+02:00</time>
      </trkpt>
      <trkpt lat="47.237" lon="5.40398">
        <ele>185.2002</ele>
        <time>2026-05-15T11:47:51+02:00</time>
      </trkpt>
      <trkpt lat="47.23705" lon="5.40399">
        <ele>185.40039</ele>
        <time>2026-05-15T11:47:52+02:00</time>
      </trkpt>
      <trkpt lat="47.23711" lon="5.404">
        <ele>185.2998</ele>
        <time>2026-05-15T11:47:53+02:00</time>
      </trkpt>
      <trkpt lat="47.23715" lon="5.404">
        <ele>185.2002</ele>
        <time>2026-05-15T11:47:54+02:00</time>
      </trkpt>
      <trkpt lat="47.23721" lon="5.404">
        <ele>185.10059</ele>
        <time>2026-05-15T11:47:55+02:00</time>
      </trkpt>
      <trkpt lat="47.23725" lon="5.40401">
        <ele>185</ele>
        <time>2026-05-15T11:47:56+02:00</time>
      </trkpt>
      <trkpt lat="47.23731" lon="5.40402">
        <ele>185</ele>
        <time>2026-05-15T11:47:57+02:00</time>
      </trkpt>
      <trkpt lat="47.23736" lon="5.40403">
        <ele>184.90039</ele>
        <time>2026-05-15T11:47:58+02:00</time>
      </trkpt>
      <trkpt lat="47.2374" lon="5.40404">
        <ele>184.90039</ele>
        <time>2026-05-15T11:47:59+02:00</time>
      </trkpt>
      <trkpt lat="47.23745" lon="5.40405">
        <ele>184.90039</ele>
        <time>2026-05-15T11:48:00+02:00</time>
      </trkpt>
      <trkpt lat="47.2375" lon="5.40406">
        <ele>184.7998</ele>
        <time>2026-05-15T11:48:01+02:00</time>
      </trkpt>
      <trkpt lat="47.23755" lon="5.40407">
        <ele>184.7998</ele>
        <time>2026-05-15T11:48:02+02:00</time>
      </trkpt>
      <trkpt lat="47.2376" lon="5.40408">
        <ele>185</ele>
        <time>2026-05-15T11:48:03+02:00</time>
      </trkpt>
      <trkpt lat="47.23765" lon="5.4041">
        <ele>185</ele>
        <time>2026-05-15T11:48:04+02:00</time>
      </trkpt>
      <trkpt lat="47.2377" lon="5.40411">
        <ele>185</ele>
        <time>2026-05-15T11:48:05+02:00</time>
      </trkpt>
      <trkpt lat="47.23775" lon="5.40412">
        <ele>185</ele>
        <time>2026-05-15T11:48:06+02:00</time>
      </trkpt>
      <trkpt lat="47.2378" lon="5.40413">
        <ele>185</ele>
        <time>2026-05-15T11:48:07+02:00</time>
      </trkpt>
      <trkpt lat="47.23785" lon="5.40414">
        <ele>185</ele>
        <time>2026-05-15T11:48:08+02:00</time>
      </trkpt>
      <trkpt lat="47.2379" lon="5.40415">
        <ele>185</ele>
        <time>2026-05-15T11:48:09+02:00</time>
      </trkpt>
      <trkpt lat="47.23794" lon="5.40416">
        <ele>185.2002</ele>
        <time>2026-05-15T11:48:10+02:00</time>
      </trkpt>
      <trkpt lat="47.23799" lon="5.40418">
        <ele>185.2002</ele>
        <time>2026-05-15T11:48:11+02:00</time>
      </trkpt>
      <trkpt lat="47.23803" lon="5.40419">
        <ele>185.2002</ele>
        <time>2026-05-15T11:48:12+02:00</time>
      </trkpt>
      <trkpt lat="47.23807" lon="5.40421">
        <ele>185.2002</ele>
        <time>2026-05-15T11:48:13+02:00</time>
      </trkpt>
      <trkpt lat="47.23811" lon="5.40422">
        <ele>185.2002</ele>
        <time>2026-05-15T11:48:14+02:00</time>
      </trkpt>
      <trkpt lat="47.23815" lon="5.40423">
        <ele>185.2002</ele>
        <time>2026-05-15T11:48:15+02:00</time>
      </trkpt>
      <trkpt lat="47.23819" lon="5.40425">
        <ele>185.2002</ele>
        <time>2026-05-15T11:48:16+02:00</time>
      </trkpt>
      <trkpt lat="47.23824" lon="5.40426">
        <ele>185.10059</ele>
        <time>2026-05-15T11:48:17+02:00</time>
      </trkpt>
      <trkpt lat="47.23828" lon="5.40428">
        <ele>185</ele>
        <time>2026-05-15T11:48:18+02:00</time>
      </trkpt>
      <trkpt lat="47.23832" lon="5.40429">
        <ele>185</ele>
        <time>2026-05-15T11:48:19+02:00</time>
      </trkpt>
      <trkpt lat="47.23836" lon="5.40431">
        <ele>185</ele>
        <time>2026-05-15T11:48:20+02:00</time>
      </trkpt>
      <trkpt lat="47.2384" lon="5.40432">
        <ele>184.90039</ele>
        <time>2026-05-15T11:48:21+02:00</time>
      </trkpt>
      <trkpt lat="47.23845" lon="5.40434">
        <ele>185.10059</ele>
        <time>2026-05-15T11:48:22+02:00</time>
      </trkpt>
      <trkpt lat="47.23849" lon="5.40435">
        <ele>185.10059</ele>
        <time>2026-05-15T11:48:23+02:00</time>
      </trkpt>
      <trkpt lat="47.23853" lon="5.40437">
        <ele>185</ele>
        <time>2026-05-15T11:48:24+02:00</time>
      </trkpt>
      <trkpt lat="47.23857" lon="5.40439">
        <ele>184.90039</ele>
        <time>2026-05-15T11:48:25+02:00</time>
      </trkpt>
      <trkpt lat="47.23861" lon="5.4044">
        <ele>184.90039</ele>
        <time>2026-05-15T11:48:26+02:00</time>
      </trkpt>
      <trkpt lat="47.23865" lon="5.40442">
        <ele>184.90039</ele>
        <time>2026-05-15T11:48:27+02:00</time>
      </trkpt>
      <trkpt lat="47.23869" lon="5.40444">
        <ele>184.7002</ele>
        <time>2026-05-15T11:48:28+02:00</time>
      </trkpt>
      <trkpt lat="47.23873" lon="5.40446">
        <ele>184.7002</ele>
        <time>2026-05-15T11:48:29+02:00</time>
      </trkpt>
      <trkpt lat="47.23876" lon="5.40447">
        <ele>184.60059</ele>
        <time>2026-05-15T11:48:30+02:00</time>
      </trkpt>
      <trkpt lat="47.23881" lon="5.40449">
        <ele>184.5</ele>
        <time>2026-05-15T11:48:31+02:00</time>
      </trkpt>
      <trkpt lat="47.23885" lon="5.40452">
        <ele>184.60059</ele>
        <time>2026-05-15T11:48:32+02:00</time>
      </trkpt>
      <trkpt lat="47.23889" lon="5.40454">
        <ele>184.5</ele>
        <time>2026-05-15T11:48:33+02:00</time>
      </trkpt>
      <trkpt lat="47.23894" lon="5.40455">
        <ele>184.40039</ele>
        <time>2026-05-15T11:48:34+02:00</time>
      </trkpt>
      <trkpt lat="47.23898" lon="5.40457">
        <ele>184.2998</ele>
        <time>2026-05-15T11:48:35+02:00</time>
      </trkpt>
      <trkpt lat="47.23903" lon="5.40459">
        <ele>184.40039</ele>
        <time>2026-05-15T11:48:36+02:00</time>
      </trkpt>
      <trkpt lat="47.23908" lon="5.40461">
        <ele>184.2998</ele>
        <time>2026-05-15T11:48:37+02:00</time>
      </trkpt>
      <trkpt lat="47.23913" lon="5.40463">
        <ele>184.2002</ele>
        <time>2026-05-15T11:48:38+02:00</time>
      </trkpt>
      <trkpt lat="47.23917" lon="5.40465">
        <ele>184.2002</ele>
        <time>2026-05-15T11:48:39+02:00</time>
      </trkpt>
      <trkpt lat="47.23922" lon="5.40467">
        <ele>184.10059</ele>
        <time>2026-05-15T11:48:40+02:00</time>
      </trkpt>
      <trkpt lat="47.23926" lon="5.4047">
        <ele>184.2002</ele>
        <time>2026-05-15T11:48:41+02:00</time>
      </trkpt>
      <trkpt lat="47.2393" lon="5.40472">
        <ele>184.10059</ele>
        <time>2026-05-15T11:48:42+02:00</time>
      </trkpt>
      <trkpt lat="47.23935" lon="5.40475">
        <ele>184.10059</ele>
        <time>2026-05-15T11:48:43+02:00</time>
      </trkpt>
      <trkpt lat="47.23939" lon="5.40477">
        <ele>184.10059</ele>
        <time>2026-05-15T11:48:44+02:00</time>
      </trkpt>
      <trkpt lat="47.23943" lon="5.40479">
        <ele>184.10059</ele>
        <time>2026-05-15T11:48:45+02:00</time>
      </trkpt>
      <trkpt lat="47.23948" lon="5.40481">
        <ele>184.10059</ele>
        <time>2026-05-15T11:48:46+02:00</time>
      </trkpt>
      <trkpt lat="47.23951" lon="5.40484">
        <ele>184.10059</ele>
        <time>2026-05-15T11:48:47+02:00</time>
      </trkpt>
      <trkpt lat="47.23956" lon="5.40486">
        <ele>184.10059</ele>
        <time>2026-05-15T11:48:48+02:00</time>
      </trkpt>
      <trkpt lat="47.2396" lon="5.40489">
        <ele>184.10059</ele>
        <time>2026-05-15T11:48:49+02:00</time>
      </trkpt>
      <trkpt lat="47.23964" lon="5.40491">
        <ele>184.10059</ele>
        <time>2026-05-15T11:48:50+02:00</time>
      </trkpt>
      <trkpt lat="47.23969" lon="5.40494">
        <ele>184.10059</ele>
        <time>2026-05-15T11:48:51+02:00</time>
      </trkpt>
      <trkpt lat="47.23973" lon="5.40496">
        <ele>184.10059</ele>
        <time>2026-05-15T11:48:52+02:00</time>
      </trkpt>
      <trkpt lat="47.23977" lon="5.40499">
        <ele>184.10059</ele>
        <time>2026-05-15T11:48:53+02:00</time>
      </trkpt>
      <trkpt lat="47.23982" lon="5.40502">
        <ele>184.10059</ele>
        <time>2026-05-15T11:48:54+02:00</time>
      </trkpt>
      <trkpt lat="47.23986" lon="5.40505">
        <ele>184.10059</ele>
        <time>2026-05-15T11:48:55+02:00</time>
      </trkpt>
      <trkpt lat="47.2399" lon="5.40508">
        <ele>184.10059</ele>
        <time>2026-05-15T11:48:56+02:00</time>
      </trkpt>
      <trkpt lat="47.23995" lon="5.40511">
        <ele>184.2002</ele>
        <time>2026-05-15T11:48:57+02:00</time>
      </trkpt>
      <trkpt lat="47.23999" lon="5.40514">
        <ele>184.2002</ele>
        <time>2026-05-15T11:48:58+02:00</time>
      </trkpt>
      <trkpt lat="47.24003" lon="5.40516">
        <ele>184.2002</ele>
        <time>2026-05-15T11:48:59+02:00</time>
      </trkpt>
      <trkpt lat="47.24008" lon="5.40519">
        <ele>184.2002</ele>
        <time>2026-05-15T11:49:00+02:00</time>
      </trkpt>
      <trkpt lat="47.24012" lon="5.40522">
        <ele>184.2998</ele>
        <time>2026-05-15T11:49:01+02:00</time>
      </trkpt>
      <trkpt lat="47.24017" lon="5.40524">
        <ele>184.2998</ele>
        <time>2026-05-15T11:49:02+02:00</time>
      </trkpt>
      <trkpt lat="47.24022" lon="5.40527">
        <ele>184.2998</ele>
        <time>2026-05-15T11:49:03+02:00</time>
      </trkpt>
      <trkpt lat="47.24026" lon="5.4053">
        <ele>184.2998</ele>
        <time>2026-05-15T11:49:04+02:00</time>
      </trkpt>
      <trkpt lat="47.24031" lon="5.40533">
        <ele>184.2998</ele>
        <time>2026-05-15T11:49:05+02:00</time>
      </trkpt>
      <trkpt lat="47.24036" lon="5.40536">
        <ele>184.2998</ele>
        <time>2026-05-15T11:49:06+02:00</time>
      </trkpt>
      <trkpt lat="47.24041" lon="5.40539">
        <ele>184.2998</ele>
        <time>2026-05-15T11:49:07+02:00</time>
      </trkpt>
      <trkpt lat="47.24045" lon="5.40542">
        <ele>184.2998</ele>
        <time>2026-05-15T11:49:08+02:00</time>
      </trkpt>
      <trkpt lat="47.2405" lon="5.40544">
        <ele>184.2998</ele>
        <time>2026-05-15T11:49:09+02:00</time>
      </trkpt>
      <trkpt lat="47.24055" lon="5.40547">
        <ele>184.2998</ele>
        <time>2026-05-15T11:49:10+02:00</time>
      </trkpt>
      <trkpt lat="47.24059" lon="5.4055">
        <ele>184.2998</ele>
        <time>2026-05-15T11:49:11+02:00</time>
      </trkpt>
      <trkpt lat="47.24064" lon="5.40553">
        <ele>184.40039</ele>
        <time>2026-05-15T11:49:12+02:00</time>
      </trkpt>
      <trkpt lat="47.24069" lon="5.40556">
        <ele>184.40039</ele>
        <time>2026-05-15T11:49:13+02:00</time>
      </trkpt>
      <trkpt lat="47.24073" lon="5.40558">
        <ele>184.2998</ele>
        <time>2026-05-15T11:49:14+02:00</time>
      </trkpt>
      <trkpt lat="47.24077" lon="5.40561">
        <ele>184.2998</ele>
        <time>2026-05-15T11:49:15+02:00</time>
      </trkpt>
      <trkpt lat="47.24082" lon="5.40564">
        <ele>184.2998</ele>
        <time>2026-05-15T11:49:16+02:00</time>
      </trkpt>
      <trkpt lat="47.24087" lon="5.40567">
        <ele>184.2998</ele>
        <time>2026-05-15T11:49:17+02:00</time>
      </trkpt>
      <trkpt lat="47.24091" lon="5.4057">
        <ele>184.2998</ele>
        <time>2026-05-15T11:49:18+02:00</time>
      </trkpt>
      <trkpt lat="47.24095" lon="5.40572">
        <ele>184.2998</ele>
        <time>2026-05-15T11:49:19+02:00</time>
      </trkpt>
      <trkpt lat="47.241" lon="5.40575">
        <ele>184.2998</ele>
        <time>2026-05-15T11:49:20+02:00</time>
      </trkpt>
      <trkpt lat="47.24104" lon="5.40578">
        <ele>184.40039</ele>
        <time>2026-05-15T11:49:21+02:00</time>
      </trkpt>
      <trkpt lat="47.24108" lon="5.4058">
        <ele>184.5</ele>
        <time>2026-05-15T11:49:22+02:00</time>
      </trkpt>
      <trkpt lat="47.24113" lon="5.40583">
        <ele>184.5</ele>
        <time>2026-05-15T11:49:23+02:00</time>
      </trkpt>
      <trkpt lat="47.24117" lon="5.40585">
        <ele>184.5</ele>
        <time>2026-05-15T11:49:24+02:00</time>
      </trkpt>
      <trkpt lat="47.24122" lon="5.40588">
        <ele>184.5</ele>
        <time>2026-05-15T11:49:25+02:00</time>
      </trkpt>
      <trkpt lat="47.24126" lon="5.4059">
        <ele>184.5</ele>
        <time>2026-05-15T11:49:26+02:00</time>
      </trkpt>
      <trkpt lat="47.2413" lon="5.40593">
        <ele>184.5</ele>
        <time>2026-05-15T11:49:27+02:00</time>
      </trkpt>
      <trkpt lat="47.24134" lon="5.40596">
        <ele>184.60059</ele>
        <time>2026-05-15T11:49:28+02:00</time>
      </trkpt>
      <trkpt lat="47.24138" lon="5.40598">
        <ele>184.60059</ele>
        <time>2026-05-15T11:49:29+02:00</time>
      </trkpt>
      <trkpt lat="47.24143" lon="5.406">
        <ele>184.7002</ele>
        <time>2026-05-15T11:49:30+02:00</time>
      </trkpt>
      <trkpt lat="47.24147" lon="5.40603">
        <ele>184.7002</ele>
        <time>2026-05-15T11:49:31+02:00</time>
      </trkpt>
      <trkpt lat="47.24151" lon="5.40605">
        <ele>184.90039</ele>
        <time>2026-05-15T11:49:32+02:00</time>
      </trkpt>
      <trkpt lat="47.24156" lon="5.40608">
        <ele>184.90039</ele>
        <time>2026-05-15T11:49:33+02:00</time>
      </trkpt>
      <trkpt lat="47.24159" lon="5.40611">
        <ele>184.90039</ele>
        <time>2026-05-15T11:49:34+02:00</time>
      </trkpt>
      <trkpt lat="47.24164" lon="5.40613">
        <ele>184.90039</ele>
        <time>2026-05-15T11:49:35+02:00</time>
      </trkpt>
      <trkpt lat="47.24167" lon="5.40616">
        <ele>184.90039</ele>
        <time>2026-05-15T11:49:36+02:00</time>
      </trkpt>
      <trkpt lat="47.24172" lon="5.40619">
        <ele>184.7998</ele>
        <time>2026-05-15T11:49:37+02:00</time>
      </trkpt>
      <trkpt lat="47.24176" lon="5.40621">
        <ele>184.7998</ele>
        <time>2026-05-15T11:49:38+02:00</time>
      </trkpt>
      <trkpt lat="47.2418" lon="5.40624">
        <ele>184.7998</ele>
        <time>2026-05-15T11:49:39+02:00</time>
      </trkpt>
      <trkpt lat="47.24185" lon="5.40626">
        <ele>184.7998</ele>
        <time>2026-05-15T11:49:40+02:00</time>
      </trkpt>
      <trkpt lat="47.24189" lon="5.40628">
        <ele>184.7998</ele>
        <time>2026-05-15T11:49:41+02:00</time>
      </trkpt>
      <trkpt lat="47.24193" lon="5.40631">
        <ele>184.7998</ele>
        <time>2026-05-15T11:49:42+02:00</time>
      </trkpt>
      <trkpt lat="47.24197" lon="5.40634">
        <ele>184.7998</ele>
        <time>2026-05-15T11:49:43+02:00</time>
      </trkpt>
      <trkpt lat="47.24202" lon="5.40636">
        <ele>184.7998</ele>
        <time>2026-05-15T11:49:44+02:00</time>
      </trkpt>
      <trkpt lat="47.24206" lon="5.40639">
        <ele>184.7998</ele>
        <time>2026-05-15T11:49:45+02:00</time>
      </trkpt>
      <trkpt lat="47.2421" lon="5.40642">
        <ele>184.7002</ele>
        <time>2026-05-15T11:49:46+02:00</time>
      </trkpt>
      <trkpt lat="47.24215" lon="5.40644">
        <ele>184.7002</ele>
        <time>2026-05-15T11:49:47+02:00</time>
      </trkpt>
      <trkpt lat="47.24219" lon="5.40647">
        <ele>184.60059</ele>
        <time>2026-05-15T11:49:48+02:00</time>
      </trkpt>
      <trkpt lat="47.24223" lon="5.4065">
        <ele>184.60059</ele>
        <time>2026-05-15T11:49:49+02:00</time>
      </trkpt>
      <trkpt lat="47.24228" lon="5.40652">
        <ele>184.60059</ele>
        <time>2026-05-15T11:49:50+02:00</time>
      </trkpt>
      <trkpt lat="47.24232" lon="5.40655">
        <ele>184.60059</ele>
        <time>2026-05-15T11:49:51+02:00</time>
      </trkpt>
      <trkpt lat="47.24236" lon="5.40658">
        <ele>184.60059</ele>
        <time>2026-05-15T11:49:52+02:00</time>
      </trkpt>
      <trkpt lat="47.2424" lon="5.4066">
        <ele>184.60059</ele>
        <time>2026-05-15T11:49:53+02:00</time>
      </trkpt>
      <trkpt lat="47.24245" lon="5.40663">
        <ele>184.60059</ele>
        <time>2026-05-15T11:49:54+02:00</time>
      </trkpt>
      <trkpt lat="47.24249" lon="5.40666">
        <ele>184.7002</ele>
        <time>2026-05-15T11:49:55+02:00</time>
      </trkpt>
      <trkpt lat="47.24254" lon="5.40669">
        <ele>184.7998</ele>
        <time>2026-05-15T11:49:56+02:00</time>
      </trkpt>
      <trkpt lat="47.24258" lon="5.40672">
        <ele>184.7998</ele>
        <time>2026-05-15T11:49:57+02:00</time>
      </trkpt>
      <trkpt lat="47.24263" lon="5.40674">
        <ele>184.90039</ele>
        <time>2026-05-15T11:49:58+02:00</time>
      </trkpt>
      <trkpt lat="47.24267" lon="5.40678">
        <ele>185</ele>
        <time>2026-05-15T11:49:59+02:00</time>
      </trkpt>
      <trkpt lat="47.24272" lon="5.40681">
        <ele>185.10059</ele>
        <time>2026-05-15T11:50:00+02:00</time>
      </trkpt>
      <trkpt lat="47.24276" lon="5.40684">
        <ele>185.10059</ele>
        <time>2026-05-15T11:50:01+02:00</time>
      </trkpt>
      <trkpt lat="47.2428" lon="5.40687">
        <ele>185.2002</ele>
        <time>2026-05-15T11:50:02+02:00</time>
      </trkpt>
      <trkpt lat="47.24285" lon="5.4069">
        <ele>185.2998</ele>
        <time>2026-05-15T11:50:03+02:00</time>
      </trkpt>
      <trkpt lat="47.2429" lon="5.40693">
        <ele>185.5</ele>
        <time>2026-05-15T11:50:04+02:00</time>
      </trkpt>
      <trkpt lat="47.24294" lon="5.40696">
        <ele>185.5</ele>
        <time>2026-05-15T11:50:05+02:00</time>
      </trkpt>
      <trkpt lat="47.24299" lon="5.407">
        <ele>185.60059</ele>
        <time>2026-05-15T11:50:06+02:00</time>
      </trkpt>
      <trkpt lat="47.24304" lon="5.40703">
        <ele>185.60059</ele>
        <time>2026-05-15T11:50:07+02:00</time>
      </trkpt>
      <trkpt lat="47.24309" lon="5.40707">
        <ele>185.5</ele>
        <time>2026-05-15T11:50:08+02:00</time>
      </trkpt>
      <trkpt lat="47.24313" lon="5.4071">
        <ele>185.5</ele>
        <time>2026-05-15T11:50:09+02:00</time>
      </trkpt>
      <trkpt lat="47.24318" lon="5.40713">
        <ele>185.5</ele>
        <time>2026-05-15T11:50:10+02:00</time>
      </trkpt>
      <trkpt lat="47.24323" lon="5.40717">
        <ele>185.5</ele>
        <time>2026-05-15T11:50:11+02:00</time>
      </trkpt>
      <trkpt lat="47.24328" lon="5.40719">
        <ele>185.60059</ele>
        <time>2026-05-15T11:50:12+02:00</time>
      </trkpt>
      <trkpt lat="47.24333" lon="5.40722">
        <ele>185.60059</ele>
        <time>2026-05-15T11:50:13+02:00</time>
      </trkpt>
      <trkpt lat="47.24338" lon="5.40725">
        <ele>185.7998</ele>
        <time>2026-05-15T11:50:14+02:00</time>
      </trkpt>
      <trkpt lat="47.24342" lon="5.40727">
        <ele>185.7998</ele>
        <time>2026-05-15T11:50:15+02:00</time>
      </trkpt>
      <trkpt lat="47.24347" lon="5.4073">
        <ele>185.7998</ele>
        <time>2026-05-15T11:50:16+02:00</time>
      </trkpt>
      <trkpt lat="47.24351" lon="5.40731">
        <ele>185.7998</ele>
        <time>2026-05-15T11:50:17+02:00</time>
      </trkpt>
      <trkpt lat="47.24355" lon="5.40733">
        <ele>185.7002</ele>
        <time>2026-05-15T11:50:18+02:00</time>
      </trkpt>
      <trkpt lat="47.24358" lon="5.40736">
        <ele>185.7002</ele>
        <time>2026-05-15T11:50:19+02:00</time>
      </trkpt>
      <trkpt lat="47.2436" lon="5.40738">
        <ele>185.7002</ele>
        <time>2026-05-15T11:50:20+02:00</time>
      </trkpt>
      <trkpt lat="47.24362" lon="5.40739">
        <ele>185.7002</ele>
        <time>2026-05-15T11:50:21+02:00</time>
      </trkpt>
      <trkpt lat="47.24364" lon="5.4074">
        <ele>185.7002</ele>
        <time>2026-05-15T11:50:22+02:00</time>
      </trkpt>
      <trkpt lat="47.24367" lon="5.4074">
        <ele>185.7002</ele>
        <time>2026-05-15T11:50:23+02:00</time>
      </trkpt>
      <trkpt lat="47.2437" lon="5.4074">
        <ele>185.7002</ele>
        <time>2026-05-15T11:50:24+02:00</time>
      </trkpt>
      <trkpt lat="47.24372" lon="5.40742">
        <ele>185.7998</ele>
        <time>2026-05-15T11:50:25+02:00</time>
      </trkpt>
      <trkpt lat="47.24375" lon="5.40744">
        <ele>185.7998</ele>
        <time>2026-05-15T11:50:26+02:00</time>
      </trkpt>
      <trkpt lat="47.24378" lon="5.40746">
        <ele>185.90039</ele>
        <time>2026-05-15T11:50:27+02:00</time>
      </trkpt>
      <trkpt lat="47.24381" lon="5.40748">
        <ele>185.90039</ele>
        <time>2026-05-15T11:50:28+02:00</time>
      </trkpt>
      <trkpt lat="47.24385" lon="5.40749">
        <ele>186</ele>
        <time>2026-05-15T11:50:29+02:00</time>
      </trkpt>
      <trkpt lat="47.24389" lon="5.40751">
        <ele>186.2998</ele>
        <time>2026-05-15T11:50:30+02:00</time>
      </trkpt>
      <trkpt lat="47.24392" lon="5.40753">
        <ele>186.2998</ele>
        <time>2026-05-15T11:50:31+02:00</time>
      </trkpt>
      <trkpt lat="47.24396" lon="5.40756">
        <ele>186.40039</ele>
        <time>2026-05-15T11:50:32+02:00</time>
      </trkpt>
      <trkpt lat="47.244" lon="5.40759">
        <ele>186.5</ele>
        <time>2026-05-15T11:50:33+02:00</time>
      </trkpt>
      <trkpt lat="47.24405" lon="5.40761">
        <ele>186.60059</ele>
        <time>2026-05-15T11:50:34+02:00</time>
      </trkpt>
      <trkpt lat="47.2441" lon="5.40764">
        <ele>186.60059</ele>
        <time>2026-05-15T11:50:35+02:00</time>
      </trkpt>
      <trkpt lat="47.24415" lon="5.40767">
        <ele>186.40039</ele>
        <time>2026-05-15T11:50:36+02:00</time>
      </trkpt>
      <trkpt lat="47.24421" lon="5.4077">
        <ele>186</ele>
        <time>2026-05-15T11:50:37+02:00</time>
      </trkpt>
      <trkpt lat="47.24426" lon="5.40773">
        <ele>185.7002</ele>
        <time>2026-05-15T11:50:38+02:00</time>
      </trkpt>
      <trkpt lat="47.24432" lon="5.40777">
        <ele>185.7002</ele>
        <time>2026-05-15T11:50:39+02:00</time>
      </trkpt>
      <trkpt lat="47.24438" lon="5.4078">
        <ele>185.2998</ele>
        <time>2026-05-15T11:50:40+02:00</time>
      </trkpt>
      <trkpt lat="47.24444" lon="5.40783">
        <ele>184.7998</ele>
        <time>2026-05-15T11:50:41+02:00</time>
      </trkpt>
      <trkpt lat="47.2445" lon="5.40787">
        <ele>184.5</ele>
        <time>2026-05-15T11:50:42+02:00</time>
      </trkpt>
      <trkpt lat="47.24456" lon="5.40791">
        <ele>183.7002</ele>
        <time>2026-05-15T11:50:43+02:00</time>
      </trkpt>
      <trkpt lat="47.24461" lon="5.40795">
        <ele>183.40039</ele>
        <time>2026-05-15T11:50:44+02:00</time>
      </trkpt>
      <trkpt lat="47.24467" lon="5.40799">
        <ele>183.10059</ele>
        <time>2026-05-15T11:50:45+02:00</time>
      </trkpt>
      <trkpt lat="47.24472" lon="5.40803">
        <ele>183</ele>
        <time>2026-05-15T11:50:46+02:00</time>
      </trkpt>
      <trkpt lat="47.24477" lon="5.40808">
        <ele>182.7002</ele>
        <time>2026-05-15T11:50:47+02:00</time>
      </trkpt>
      <trkpt lat="47.24481" lon="5.40812">
        <ele>182.5</ele>
        <time>2026-05-15T11:50:48+02:00</time>
      </trkpt>
      <trkpt lat="47.24486" lon="5.40816">
        <ele>182.5</ele>
        <time>2026-05-15T11:50:49+02:00</time>
      </trkpt>
      <trkpt lat="47.2449" lon="5.40821">
        <ele>182.40039</ele>
        <time>2026-05-15T11:50:50+02:00</time>
      </trkpt>
      <trkpt lat="47.24494" lon="5.40825">
        <ele>182.2998</ele>
        <time>2026-05-15T11:50:51+02:00</time>
      </trkpt>
      <trkpt lat="47.24498" lon="5.40829">
        <ele>182.2002</ele>
        <time>2026-05-15T11:50:52+02:00</time>
      </trkpt>
      <trkpt lat="47.24501" lon="5.40833">
        <ele>182.2002</ele>
        <time>2026-05-15T11:50:53+02:00</time>
      </trkpt>
      <trkpt lat="47.24504" lon="5.40838">
        <ele>182.2002</ele>
        <time>2026-05-15T11:50:54+02:00</time>
      </trkpt>
      <trkpt lat="47.24507" lon="5.40843">
        <ele>182.2002</ele>
        <time>2026-05-15T11:50:55+02:00</time>
      </trkpt>
      <trkpt lat="47.2451" lon="5.40848">
        <ele>182.2002</ele>
        <time>2026-05-15T11:50:56+02:00</time>
      </trkpt>
      <trkpt lat="47.24512" lon="5.40852">
        <ele>182.2002</ele>
        <time>2026-05-15T11:50:57+02:00</time>
      </trkpt>
      <trkpt lat="47.24515" lon="5.40857">
        <ele>182.2998</ele>
        <time>2026-05-15T11:50:58+02:00</time>
      </trkpt>
      <trkpt lat="47.24517" lon="5.40861">
        <ele>182.2002</ele>
        <time>2026-05-15T11:50:59+02:00</time>
      </trkpt>
      <trkpt lat="47.24519" lon="5.40865">
        <ele>182.2998</ele>
        <time>2026-05-15T11:51:00+02:00</time>
      </trkpt>
      <trkpt lat="47.2452" lon="5.40869">
        <ele>182.2998</ele>
        <time>2026-05-15T11:51:01+02:00</time>
      </trkpt>
      <trkpt lat="47.24521" lon="5.40872">
        <ele>182.5</ele>
        <time>2026-05-15T11:51:02+02:00</time>
      </trkpt>
      <trkpt lat="47.24522" lon="5.40874">
        <ele>182.40039</ele>
        <time>2026-05-15T11:51:03+02:00</time>
      </trkpt>
      <trkpt lat="47.24523" lon="5.40875">
        <ele>182.40039</ele>
        <time>2026-05-15T11:51:04+02:00</time>
      </trkpt>
      <trkpt lat="47.24523" lon="5.40875">
        <ele>182.40039</ele>
        <time>2026-05-15T11:51:05+02:00</time>
      </trkpt>
      <trkpt lat="47.24523" lon="5.40875">
        <ele>182.40039</ele>
        <time>2026-05-15T11:51:06+02:00</time>
      </trkpt>
      <trkpt lat="47.24523" lon="5.40875">
        <ele>182.40039</ele>
        <time>2026-05-15T11:51:07+02:00</time>
      </trkpt>
      <trkpt lat="47.24526" lon="5.40883">
        <ele>182.5</ele>
        <time>2026-05-15T11:51:25+02:00</time>
      </trkpt>
      <trkpt lat="47.24526" lon="5.40883">
        <ele>182.5</ele>
        <time>2026-05-15T11:51:26+02:00</time>
      </trkpt>
      <trkpt lat="47.24518" lon="5.40895">
        <ele>182.7002</ele>
        <time>2026-05-15T11:52:10+02:00</time>
      </trkpt>
      <trkpt lat="47.24518" lon="5.40899">
        <ele>182.7002</ele>
        <time>2026-05-15T11:52:11+02:00</time>
      </trkpt>
      <trkpt lat="47.24517" lon="5.40903">
        <ele>182.7002</ele>
        <time>2026-05-15T11:52:12+02:00</time>
      </trkpt>
      <trkpt lat="47.24516" lon="5.40908">
        <ele>182.7998</ele>
        <time>2026-05-15T11:52:13+02:00</time>
      </trkpt>
      <trkpt lat="47.24516" lon="5.40913">
        <ele>182.7998</ele>
        <time>2026-05-15T11:52:14+02:00</time>
      </trkpt>
      <trkpt lat="47.24515" lon="5.40918">
        <ele>182.90039</ele>
        <time>2026-05-15T11:52:15+02:00</time>
      </trkpt>
      <trkpt lat="47.24514" lon="5.40924">
        <ele>182.90039</ele>
        <time>2026-05-15T11:52:16+02:00</time>
      </trkpt>
      <trkpt lat="47.24513" lon="5.4093">
        <ele>182.90039</ele>
        <time>2026-05-15T11:52:17+02:00</time>
      </trkpt>
      <trkpt lat="47.24511" lon="5.40936">
        <ele>183</ele>
        <time>2026-05-15T11:52:18+02:00</time>
      </trkpt>
      <trkpt lat="47.2451" lon="5.40942">
        <ele>183</ele>
        <time>2026-05-15T11:52:19+02:00</time>
      </trkpt>
      <trkpt lat="47.24508" lon="5.40949">
        <ele>183</ele>
        <time>2026-05-15T11:52:20+02:00</time>
      </trkpt>
      <trkpt lat="47.24507" lon="5.40955">
        <ele>183</ele>
        <time>2026-05-15T11:52:21+02:00</time>
      </trkpt>
      <trkpt lat="47.24506" lon="5.40962">
        <ele>183</ele>
        <time>2026-05-15T11:52:22+02:00</time>
      </trkpt>
      <trkpt lat="47.24505" lon="5.40969">
        <ele>183</ele>
        <time>2026-05-15T11:52:23+02:00</time>
      </trkpt>
      <trkpt lat="47.24503" lon="5.40977">
        <ele>183.10059</ele>
        <time>2026-05-15T11:52:24+02:00</time>
      </trkpt>
      <trkpt lat="47.24503" lon="5.40984">
        <ele>183.10059</ele>
        <time>2026-05-15T11:52:25+02:00</time>
      </trkpt>
      <trkpt lat="47.24502" lon="5.40991">
        <ele>183.10059</ele>
        <time>2026-05-15T11:52:26+02:00</time>
      </trkpt>
      <trkpt lat="47.245" lon="5.40999">
        <ele>183.10059</ele>
        <time>2026-05-15T11:52:27+02:00</time>
      </trkpt>
      <trkpt lat="47.24499" lon="5.41006">
        <ele>183.10059</ele>
        <time>2026-05-15T11:52:28+02:00</time>
      </trkpt>
      <trkpt lat="47.24498" lon="5.41013">
        <ele>183.10059</ele>
        <time>2026-05-15T11:52:29+02:00</time>
      </trkpt>
      <trkpt lat="47.24498" lon="5.4102">
        <ele>183.10059</ele>
        <time>2026-05-15T11:52:30+02:00</time>
      </trkpt>
      <trkpt lat="47.24497" lon="5.41027">
        <ele>183.2002</ele>
        <time>2026-05-15T11:52:31+02:00</time>
      </trkpt>
      <trkpt lat="47.24496" lon="5.41034">
        <ele>183.2002</ele>
        <time>2026-05-15T11:52:32+02:00</time>
      </trkpt>
      <trkpt lat="47.24495" lon="5.41041">
        <ele>183.2002</ele>
        <time>2026-05-15T11:52:33+02:00</time>
      </trkpt>
      <trkpt lat="47.24495" lon="5.41048">
        <ele>183.2002</ele>
        <time>2026-05-15T11:52:34+02:00</time>
      </trkpt>
      <trkpt lat="47.24494" lon="5.41055">
        <ele>183.2002</ele>
        <time>2026-05-15T11:52:35+02:00</time>
      </trkpt>
      <trkpt lat="47.24493" lon="5.41062">
        <ele>183.10059</ele>
        <time>2026-05-15T11:52:36+02:00</time>
      </trkpt>
      <trkpt lat="47.24492" lon="5.4107">
        <ele>183.10059</ele>
        <time>2026-05-15T11:52:37+02:00</time>
      </trkpt>
      <trkpt lat="47.2449" lon="5.41076">
        <ele>183.10059</ele>
        <time>2026-05-15T11:52:38+02:00</time>
      </trkpt>
      <trkpt lat="47.24487" lon="5.41083">
        <ele>183</ele>
        <time>2026-05-15T11:52:39+02:00</time>
      </trkpt>
      <trkpt lat="47.24484" lon="5.41089">
        <ele>182.90039</ele>
        <time>2026-05-15T11:52:40+02:00</time>
      </trkpt>
      <trkpt lat="47.2448" lon="5.41095">
        <ele>182.7002</ele>
        <time>2026-05-15T11:52:41+02:00</time>
      </trkpt>
      <trkpt lat="47.24476" lon="5.41098">
        <ele>182.7002</ele>
        <time>2026-05-15T11:52:42+02:00</time>
      </trkpt>
      <trkpt lat="47.2447" lon="5.41101">
        <ele>182.7002</ele>
        <time>2026-05-15T11:52:43+02:00</time>
      </trkpt>
      <trkpt lat="47.24465" lon="5.41102">
        <ele>182.7002</ele>
        <time>2026-05-15T11:52:44+02:00</time>
      </trkpt>
      <trkpt lat="47.2446" lon="5.41103">
        <ele>182.5</ele>
        <time>2026-05-15T11:52:45+02:00</time>
      </trkpt>
      <trkpt lat="47.24454" lon="5.41103">
        <ele>182.5</ele>
        <time>2026-05-15T11:52:46+02:00</time>
      </trkpt>
      <trkpt lat="47.24449" lon="5.41103">
        <ele>182.5</ele>
        <time>2026-05-15T11:52:47+02:00</time>
      </trkpt>
      <trkpt lat="47.24443" lon="5.41102">
        <ele>182.7002</ele>
        <time>2026-05-15T11:52:48+02:00</time>
      </trkpt>
      <trkpt lat="47.24437" lon="5.41103">
        <ele>182.5</ele>
        <time>2026-05-15T11:52:49+02:00</time>
      </trkpt>
      <trkpt lat="47.24432" lon="5.41103">
        <ele>182.5</ele>
        <time>2026-05-15T11:52:50+02:00</time>
      </trkpt>
      <trkpt lat="47.24426" lon="5.41103">
        <ele>182.5</ele>
        <time>2026-05-15T11:52:51+02:00</time>
      </trkpt>
      <trkpt lat="47.2442" lon="5.41103">
        <ele>182.5</ele>
        <time>2026-05-15T11:52:52+02:00</time>
      </trkpt>
      <trkpt lat="47.24415" lon="5.41103">
        <ele>182.5</ele>
        <time>2026-05-15T11:52:53+02:00</time>
      </trkpt>
      <trkpt lat="47.24409" lon="5.41104">
        <ele>182.5</ele>
        <time>2026-05-15T11:52:54+02:00</time>
      </trkpt>
      <trkpt lat="47.24404" lon="5.41104">
        <ele>182.5</ele>
        <time>2026-05-15T11:52:55+02:00</time>
      </trkpt>
      <trkpt lat="47.24398" lon="5.41105">
        <ele>182.40039</ele>
        <time>2026-05-15T11:52:56+02:00</time>
      </trkpt>
      <trkpt lat="47.24392" lon="5.41105">
        <ele>182.40039</ele>
        <time>2026-05-15T11:52:57+02:00</time>
      </trkpt>
      <trkpt lat="47.24387" lon="5.41105">
        <ele>182.40039</ele>
        <time>2026-05-15T11:52:58+02:00</time>
      </trkpt>
      <trkpt lat="47.24381" lon="5.41105">
        <ele>182.40039</ele>
        <time>2026-05-15T11:52:59+02:00</time>
      </trkpt>
      <trkpt lat="47.24376" lon="5.41105">
        <ele>182.40039</ele>
        <time>2026-05-15T11:53:00+02:00</time>
      </trkpt>
      <trkpt lat="47.2437" lon="5.41106">
        <ele>182.40039</ele>
        <time>2026-05-15T11:53:01+02:00</time>
      </trkpt>
      <trkpt lat="47.24365" lon="5.41106">
        <ele>182.2998</ele>
        <time>2026-05-15T11:53:02+02:00</time>
      </trkpt>
      <trkpt lat="47.24358" lon="5.41107">
        <ele>182.2998</ele>
        <time>2026-05-15T11:53:03+02:00</time>
      </trkpt>
      <trkpt lat="47.24353" lon="5.41107">
        <ele>182.2998</ele>
        <time>2026-05-15T11:53:04+02:00</time>
      </trkpt>
      <trkpt lat="47.24347" lon="5.41108">
        <ele>182.2998</ele>
        <time>2026-05-15T11:53:05+02:00</time>
      </trkpt>
      <trkpt lat="47.24341" lon="5.41108">
        <ele>182.2002</ele>
        <time>2026-05-15T11:53:06+02:00</time>
      </trkpt>
      <trkpt lat="47.24335" lon="5.41109">
        <ele>182.2002</ele>
        <time>2026-05-15T11:53:07+02:00</time>
      </trkpt>
      <trkpt lat="47.24329" lon="5.41109">
        <ele>182.2002</ele>
        <time>2026-05-15T11:53:08+02:00</time>
      </trkpt>
      <trkpt lat="47.24323" lon="5.4111">
        <ele>182.2002</ele>
        <time>2026-05-15T11:53:09+02:00</time>
      </trkpt>
      <trkpt lat="47.24317" lon="5.4111">
        <ele>182.2002</ele>
        <time>2026-05-15T11:53:10+02:00</time>
      </trkpt>
      <trkpt lat="47.24311" lon="5.41111">
        <ele>182.2998</ele>
        <time>2026-05-15T11:53:11+02:00</time>
      </trkpt>
      <trkpt lat="47.24305" lon="5.41111">
        <ele>182.2998</ele>
        <time>2026-05-15T11:53:12+02:00</time>
      </trkpt>
      <trkpt lat="47.24299" lon="5.41112">
        <ele>182.2998</ele>
        <time>2026-05-15T11:53:13+02:00</time>
      </trkpt>
      <trkpt lat="47.24293" lon="5.41113">
        <ele>182.2998</ele>
        <time>2026-05-15T11:53:14+02:00</time>
      </trkpt>
      <trkpt lat="47.24286" lon="5.41114">
        <ele>182.2998</ele>
        <time>2026-05-15T11:53:15+02:00</time>
      </trkpt>
      <trkpt lat="47.2428" lon="5.41114">
        <ele>182.2998</ele>
        <time>2026-05-15T11:53:16+02:00</time>
      </trkpt>
      <trkpt lat="47.24274" lon="5.41115">
        <ele>182.40039</ele>
        <time>2026-05-15T11:53:17+02:00</time>
      </trkpt>
      <trkpt lat="47.24268" lon="5.41115">
        <ele>182.40039</ele>
        <time>2026-05-15T11:53:18+02:00</time>
      </trkpt>
      <trkpt lat="47.24262" lon="5.41116">
        <ele>182.40039</ele>
        <time>2026-05-15T11:53:19+02:00</time>
      </trkpt>
      <trkpt lat="47.24256" lon="5.41116">
        <ele>182.40039</ele>
        <time>2026-05-15T11:53:20+02:00</time>
      </trkpt>
      <trkpt lat="47.24251" lon="5.41117">
        <ele>182.40039</ele>
        <time>2026-05-15T11:53:21+02:00</time>
      </trkpt>
      <trkpt lat="47.24245" lon="5.41117">
        <ele>182.40039</ele>
        <time>2026-05-15T11:53:22+02:00</time>
      </trkpt>
      <trkpt lat="47.24239" lon="5.41118">
        <ele>182.40039</ele>
        <time>2026-05-15T11:53:23+02:00</time>
      </trkpt>
      <trkpt lat="47.24233" lon="5.41118">
        <ele>182.40039</ele>
        <time>2026-05-15T11:53:24+02:00</time>
      </trkpt>
      <trkpt lat="47.24227" lon="5.41119">
        <ele>182.40039</ele>
        <time>2026-05-15T11:53:25+02:00</time>
      </trkpt>
      <trkpt lat="47.24222" lon="5.41119">
        <ele>182.40039</ele>
        <time>2026-05-15T11:53:26+02:00</time>
      </trkpt>
      <trkpt lat="47.24216" lon="5.4112">
        <ele>182.5</ele>
        <time>2026-05-15T11:53:27+02:00</time>
      </trkpt>
      <trkpt lat="47.2421" lon="5.4112">
        <ele>182.5</ele>
        <time>2026-05-15T11:53:28+02:00</time>
      </trkpt>
      <trkpt lat="47.24205" lon="5.4112">
        <ele>182.5</ele>
        <time>2026-05-15T11:53:29+02:00</time>
      </trkpt>
      <trkpt lat="47.24199" lon="5.41121">
        <ele>182.40039</ele>
        <time>2026-05-15T11:53:30+02:00</time>
      </trkpt>
      <trkpt lat="47.24193" lon="5.41121">
        <ele>182.40039</ele>
        <time>2026-05-15T11:53:31+02:00</time>
      </trkpt>
      <trkpt lat="47.24188" lon="5.41122">
        <ele>182.2998</ele>
        <time>2026-05-15T11:53:32+02:00</time>
      </trkpt>
      <trkpt lat="47.24182" lon="5.41122">
        <ele>182.2998</ele>
        <time>2026-05-15T11:53:33+02:00</time>
      </trkpt>
      <trkpt lat="47.24176" lon="5.41122">
        <ele>182.2998</ele>
        <time>2026-05-15T11:53:34+02:00</time>
      </trkpt>
      <trkpt lat="47.24171" lon="5.41123">
        <ele>182.2998</ele>
        <time>2026-05-15T11:53:35+02:00</time>
      </trkpt>
      <trkpt lat="47.24165" lon="5.41123">
        <ele>182.2998</ele>
        <time>2026-05-15T11:53:36+02:00</time>
      </trkpt>
      <trkpt lat="47.24159" lon="5.41124">
        <ele>182.2998</ele>
        <time>2026-05-15T11:53:37+02:00</time>
      </trkpt>
      <trkpt lat="47.24154" lon="5.41124">
        <ele>182.2998</ele>
        <time>2026-05-15T11:53:38+02:00</time>
      </trkpt>
      <trkpt lat="47.24148" lon="5.41124">
        <ele>182.2998</ele>
        <time>2026-05-15T11:53:39+02:00</time>
      </trkpt>
      <trkpt lat="47.24143" lon="5.41125">
        <ele>182.2998</ele>
        <time>2026-05-15T11:53:40+02:00</time>
      </trkpt>
      <trkpt lat="47.24137" lon="5.41125">
        <ele>182.2998</ele>
        <time>2026-05-15T11:53:41+02:00</time>
      </trkpt>
      <trkpt lat="47.24132" lon="5.41125">
        <ele>182.2998</ele>
        <time>2026-05-15T11:53:42+02:00</time>
      </trkpt>
      <trkpt lat="47.24126" lon="5.41126">
        <ele>182.2998</ele>
        <time>2026-05-15T11:53:43+02:00</time>
      </trkpt>
      <trkpt lat="47.2412" lon="5.41126">
        <ele>182.40039</ele>
        <time>2026-05-15T11:53:44+02:00</time>
      </trkpt>
      <trkpt lat="47.24115" lon="5.41126">
        <ele>182.40039</ele>
        <time>2026-05-15T11:53:45+02:00</time>
      </trkpt>
      <trkpt lat="47.24109" lon="5.41126">
        <ele>182.5</ele>
        <time>2026-05-15T11:53:46+02:00</time>
      </trkpt>
      <trkpt lat="47.24104" lon="5.41126">
        <ele>182.5</ele>
        <time>2026-05-15T11:53:47+02:00</time>
      </trkpt>
      <trkpt lat="47.24098" lon="5.41126">
        <ele>182.5</ele>
        <time>2026-05-15T11:53:48+02:00</time>
      </trkpt>
      <trkpt lat="47.24093" lon="5.41126">
        <ele>182.5</ele>
        <time>2026-05-15T11:53:49+02:00</time>
      </trkpt>
      <trkpt lat="47.24088" lon="5.41126">
        <ele>182.60059</ele>
        <time>2026-05-15T11:53:50+02:00</time>
      </trkpt>
      <trkpt lat="47.24083" lon="5.41127">
        <ele>182.60059</ele>
        <time>2026-05-15T11:53:51+02:00</time>
      </trkpt>
      <trkpt lat="47.24078" lon="5.41128">
        <ele>182.60059</ele>
        <time>2026-05-15T11:53:52+02:00</time>
      </trkpt>
      <trkpt lat="47.24073" lon="5.41132">
        <ele>182.5</ele>
        <time>2026-05-15T11:53:53+02:00</time>
      </trkpt>
      <trkpt lat="47.24069" lon="5.41137">
        <ele>182.5</ele>
        <time>2026-05-15T11:53:54+02:00</time>
      </trkpt>
      <trkpt lat="47.24066" lon="5.41143">
        <ele>182.5</ele>
        <time>2026-05-15T11:53:55+02:00</time>
      </trkpt>
      <trkpt lat="47.24064" lon="5.41151">
        <ele>182.5</ele>
        <time>2026-05-15T11:53:56+02:00</time>
      </trkpt>
      <trkpt lat="47.24062" lon="5.41158">
        <ele>182.40039</ele>
        <time>2026-05-15T11:53:57+02:00</time>
      </trkpt>
      <trkpt lat="47.24061" lon="5.41166">
        <ele>182.40039</ele>
        <time>2026-05-15T11:53:58+02:00</time>
      </trkpt>
      <trkpt lat="47.2406" lon="5.41174">
        <ele>182.40039</ele>
        <time>2026-05-15T11:53:59+02:00</time>
      </trkpt>
      <trkpt lat="47.24059" lon="5.41182">
        <ele>182.40039</ele>
        <time>2026-05-15T11:54:00+02:00</time>
      </trkpt>
      <trkpt lat="47.24058" lon="5.4119">
        <ele>182.40039</ele>
        <time>2026-05-15T11:54:01+02:00</time>
      </trkpt>
      <trkpt lat="47.24057" lon="5.41198">
        <ele>182.40039</ele>
        <time>2026-05-15T11:54:02+02:00</time>
      </trkpt>
      <trkpt lat="47.24056" lon="5.41206">
        <ele>182.40039</ele>
        <time>2026-05-15T11:54:03+02:00</time>
      </trkpt>
      <trkpt lat="47.24055" lon="5.41214">
        <ele>182.40039</ele>
        <time>2026-05-15T11:54:04+02:00</time>
      </trkpt>
      <trkpt lat="47.24054" lon="5.41222">
        <ele>182.5</ele>
        <time>2026-05-15T11:54:05+02:00</time>
      </trkpt>
      <trkpt lat="47.24053" lon="5.4123">
        <ele>182.5</ele>
        <time>2026-05-15T11:54:06+02:00</time>
      </trkpt>
      <trkpt lat="47.24051" lon="5.41238">
        <ele>182.5</ele>
        <time>2026-05-15T11:54:07+02:00</time>
      </trkpt>
      <trkpt lat="47.2405" lon="5.41246">
        <ele>182.40039</ele>
        <time>2026-05-15T11:54:08+02:00</time>
      </trkpt>
      <trkpt lat="47.2405" lon="5.41254">
        <ele>182.40039</ele>
        <time>2026-05-15T11:54:09+02:00</time>
      </trkpt>
      <trkpt lat="47.24048" lon="5.41262">
        <ele>182.5</ele>
        <time>2026-05-15T11:54:10+02:00</time>
      </trkpt>
      <trkpt lat="47.24048" lon="5.4127">
        <ele>182.40039</ele>
        <time>2026-05-15T11:54:11+02:00</time>
      </trkpt>
      <trkpt lat="47.24046" lon="5.41278">
        <ele>182.40039</ele>
        <time>2026-05-15T11:54:12+02:00</time>
      </trkpt>
      <trkpt lat="47.24045" lon="5.41286">
        <ele>182.2998</ele>
        <time>2026-05-15T11:54:13+02:00</time>
      </trkpt>
      <trkpt lat="47.24044" lon="5.41295">
        <ele>182.2998</ele>
        <time>2026-05-15T11:54:14+02:00</time>
      </trkpt>
      <trkpt lat="47.24043" lon="5.41303">
        <ele>182.2998</ele>
        <time>2026-05-15T11:54:15+02:00</time>
      </trkpt>
      <trkpt lat="47.24043" lon="5.41312">
        <ele>182.2002</ele>
        <time>2026-05-15T11:54:16+02:00</time>
      </trkpt>
      <trkpt lat="47.24042" lon="5.4132">
        <ele>182.2002</ele>
        <time>2026-05-15T11:54:17+02:00</time>
      </trkpt>
      <trkpt lat="47.24041" lon="5.41329">
        <ele>182.10059</ele>
        <time>2026-05-15T11:54:18+02:00</time>
      </trkpt>
      <trkpt lat="47.2404" lon="5.41337">
        <ele>182.10059</ele>
        <time>2026-05-15T11:54:19+02:00</time>
      </trkpt>
      <trkpt lat="47.2404" lon="5.41346">
        <ele>182</ele>
        <time>2026-05-15T11:54:20+02:00</time>
      </trkpt>
      <trkpt lat="47.2404" lon="5.41354">
        <ele>182</ele>
        <time>2026-05-15T11:54:21+02:00</time>
      </trkpt>
      <trkpt lat="47.24039" lon="5.41362">
        <ele>181.90039</ele>
        <time>2026-05-15T11:54:22+02:00</time>
      </trkpt>
      <trkpt lat="47.24038" lon="5.4137">
        <ele>181.90039</ele>
        <time>2026-05-15T11:54:23+02:00</time>
      </trkpt>
      <trkpt lat="47.24038" lon="5.41378">
        <ele>181.90039</ele>
        <time>2026-05-15T11:54:24+02:00</time>
      </trkpt>
      <trkpt lat="47.24038" lon="5.41386">
        <ele>181.7998</ele>
        <time>2026-05-15T11:54:25+02:00</time>
      </trkpt>
      <trkpt lat="47.24037" lon="5.41394">
        <ele>181.7998</ele>
        <time>2026-05-15T11:54:26+02:00</time>
      </trkpt>
      <trkpt lat="47.24037" lon="5.41402">
        <ele>181.7002</ele>
        <time>2026-05-15T11:54:27+02:00</time>
      </trkpt>
      <trkpt lat="47.24036" lon="5.4141">
        <ele>181.7002</ele>
        <time>2026-05-15T11:54:28+02:00</time>
      </trkpt>
      <trkpt lat="47.24035" lon="5.41418">
        <ele>181.7002</ele>
        <time>2026-05-15T11:54:29+02:00</time>
      </trkpt>
      <trkpt lat="47.24034" lon="5.41425">
        <ele>181.7998</ele>
        <time>2026-05-15T11:54:30+02:00</time>
      </trkpt>
      <trkpt lat="47.24033" lon="5.41433">
        <ele>181.90039</ele>
        <time>2026-05-15T11:54:31+02:00</time>
      </trkpt>
      <trkpt lat="47.24032" lon="5.41441">
        <ele>182</ele>
        <time>2026-05-15T11:54:32+02:00</time>
      </trkpt>
      <trkpt lat="47.2403" lon="5.41449">
        <ele>182.10059</ele>
        <time>2026-05-15T11:54:33+02:00</time>
      </trkpt>
      <trkpt lat="47.24029" lon="5.41457">
        <ele>182.2002</ele>
        <time>2026-05-15T11:54:34+02:00</time>
      </trkpt>
      <trkpt lat="47.24027" lon="5.41465">
        <ele>182.2998</ele>
        <time>2026-05-15T11:54:35+02:00</time>
      </trkpt>
      <trkpt lat="47.24025" lon="5.41472">
        <ele>182.40039</ele>
        <time>2026-05-15T11:54:36+02:00</time>
      </trkpt>
      <trkpt lat="47.24023" lon="5.4148">
        <ele>182.40039</ele>
        <time>2026-05-15T11:54:37+02:00</time>
      </trkpt>
      <trkpt lat="47.24021" lon="5.41487">
        <ele>182.60059</ele>
        <time>2026-05-15T11:54:38+02:00</time>
      </trkpt>
      <trkpt lat="47.2402" lon="5.41495">
        <ele>182.7002</ele>
        <time>2026-05-15T11:54:39+02:00</time>
      </trkpt>
      <trkpt lat="47.24017" lon="5.41502">
        <ele>182.7002</ele>
        <time>2026-05-15T11:54:40+02:00</time>
      </trkpt>
      <trkpt lat="47.24016" lon="5.4151">
        <ele>182.7998</ele>
        <time>2026-05-15T11:54:41+02:00</time>
      </trkpt>
      <trkpt lat="47.24014" lon="5.41517">
        <ele>182.7998</ele>
        <time>2026-05-15T11:54:42+02:00</time>
      </trkpt>
      <trkpt lat="47.24012" lon="5.41524">
        <ele>182.7998</ele>
        <time>2026-05-15T11:54:43+02:00</time>
      </trkpt>
      <trkpt lat="47.24009" lon="5.41532">
        <ele>182.7998</ele>
        <time>2026-05-15T11:54:44+02:00</time>
      </trkpt>
      <trkpt lat="47.24008" lon="5.41539">
        <ele>182.90039</ele>
        <time>2026-05-15T11:54:45+02:00</time>
      </trkpt>
      <trkpt lat="47.24005" lon="5.41546">
        <ele>182.90039</ele>
        <time>2026-05-15T11:54:46+02:00</time>
      </trkpt>
      <trkpt lat="47.24003" lon="5.41554">
        <ele>182.90039</ele>
        <time>2026-05-15T11:54:47+02:00</time>
      </trkpt>
      <trkpt lat="47.24" lon="5.41561">
        <ele>182.90039</ele>
        <time>2026-05-15T11:54:48+02:00</time>
      </trkpt>
      <trkpt lat="47.23997" lon="5.41568">
        <ele>183</ele>
        <time>2026-05-15T11:54:49+02:00</time>
      </trkpt>
      <trkpt lat="47.23995" lon="5.41576">
        <ele>183.10059</ele>
        <time>2026-05-15T11:54:50+02:00</time>
      </trkpt>
      <trkpt lat="47.23992" lon="5.41584">
        <ele>183.2002</ele>
        <time>2026-05-15T11:54:51+02:00</time>
      </trkpt>
      <trkpt lat="47.2399" lon="5.41591">
        <ele>183.2998</ele>
        <time>2026-05-15T11:54:52+02:00</time>
      </trkpt>
      <trkpt lat="47.23987" lon="5.41598">
        <ele>183.40039</ele>
        <time>2026-05-15T11:54:53+02:00</time>
      </trkpt>
      <trkpt lat="47.23985" lon="5.41606">
        <ele>183.60059</ele>
        <time>2026-05-15T11:54:54+02:00</time>
      </trkpt>
      <trkpt lat="47.23982" lon="5.41613">
        <ele>183.7002</ele>
        <time>2026-05-15T11:54:55+02:00</time>
      </trkpt>
      <trkpt lat="47.23979" lon="5.4162">
        <ele>183.90039</ele>
        <time>2026-05-15T11:54:56+02:00</time>
      </trkpt>
      <trkpt lat="47.23976" lon="5.41627">
        <ele>184</ele>
        <time>2026-05-15T11:54:57+02:00</time>
      </trkpt>
      <trkpt lat="47.23973" lon="5.41633">
        <ele>184</ele>
        <time>2026-05-15T11:54:58+02:00</time>
      </trkpt>
      <trkpt lat="47.23969" lon="5.4164">
        <ele>184.10059</ele>
        <time>2026-05-15T11:54:59+02:00</time>
      </trkpt>
      <trkpt lat="47.23966" lon="5.41646">
        <ele>184.10059</ele>
        <time>2026-05-15T11:55:00+02:00</time>
      </trkpt>
      <trkpt lat="47.23962" lon="5.41652">
        <ele>184.2002</ele>
        <time>2026-05-15T11:55:01+02:00</time>
      </trkpt>
      <trkpt lat="47.23959" lon="5.41658">
        <ele>184.10059</ele>
        <time>2026-05-15T11:55:02+02:00</time>
      </trkpt>
      <trkpt lat="47.23955" lon="5.41664">
        <ele>184</ele>
        <time>2026-05-15T11:55:03+02:00</time>
      </trkpt>
      <trkpt lat="47.23951" lon="5.41671">
        <ele>184</ele>
        <time>2026-05-15T11:55:04+02:00</time>
      </trkpt>
      <trkpt lat="47.23947" lon="5.41677">
        <ele>183.90039</ele>
        <time>2026-05-15T11:55:05+02:00</time>
      </trkpt>
      <trkpt lat="47.23943" lon="5.41683">
        <ele>183.7998</ele>
        <time>2026-05-15T11:55:06+02:00</time>
      </trkpt>
      <trkpt lat="47.2394" lon="5.41689">
        <ele>183.7998</ele>
        <time>2026-05-15T11:55:07+02:00</time>
      </trkpt>
      <trkpt lat="47.23936" lon="5.41696">
        <ele>183.60059</ele>
        <time>2026-05-15T11:55:08+02:00</time>
      </trkpt>
      <trkpt lat="47.23932" lon="5.41702">
        <ele>183.60059</ele>
        <time>2026-05-15T11:55:09+02:00</time>
      </trkpt>
      <trkpt lat="47.23929" lon="5.41709">
        <ele>183.5</ele>
        <time>2026-05-15T11:55:10+02:00</time>
      </trkpt>
      <trkpt lat="47.23925" lon="5.41717">
        <ele>183.5</ele>
        <time>2026-05-15T11:55:11+02:00</time>
      </trkpt>
      <trkpt lat="47.23921" lon="5.41724">
        <ele>183.5</ele>
        <time>2026-05-15T11:55:12+02:00</time>
      </trkpt>
      <trkpt lat="47.23918" lon="5.41731">
        <ele>183.5</ele>
        <time>2026-05-15T11:55:13+02:00</time>
      </trkpt>
      <trkpt lat="47.23915" lon="5.41739">
        <ele>183.5</ele>
        <time>2026-05-15T11:55:14+02:00</time>
      </trkpt>
      <trkpt lat="47.23912" lon="5.41747">
        <ele>183.40039</ele>
        <time>2026-05-15T11:55:15+02:00</time>
      </trkpt>
      <trkpt lat="47.23909" lon="5.41755">
        <ele>183.40039</ele>
        <time>2026-05-15T11:55:16+02:00</time>
      </trkpt>
      <trkpt lat="47.23906" lon="5.41763">
        <ele>183.40039</ele>
        <time>2026-05-15T11:55:17+02:00</time>
      </trkpt>
      <trkpt lat="47.23904" lon="5.41771">
        <ele>183.2998</ele>
        <time>2026-05-15T11:55:18+02:00</time>
      </trkpt>
      <trkpt lat="47.23901" lon="5.41779">
        <ele>183.2998</ele>
        <time>2026-05-15T11:55:19+02:00</time>
      </trkpt>
      <trkpt lat="47.23899" lon="5.41787">
        <ele>183.2002</ele>
        <time>2026-05-15T11:55:20+02:00</time>
      </trkpt>
      <trkpt lat="47.23897" lon="5.41795">
        <ele>183.10059</ele>
        <time>2026-05-15T11:55:21+02:00</time>
      </trkpt>
      <trkpt lat="47.23894" lon="5.41803">
        <ele>183</ele>
        <time>2026-05-15T11:55:22+02:00</time>
      </trkpt>
      <trkpt lat="47.23892" lon="5.41811">
        <ele>183.10059</ele>
        <time>2026-05-15T11:55:23+02:00</time>
      </trkpt>
      <trkpt lat="47.23889" lon="5.41819">
        <ele>183</ele>
        <time>2026-05-15T11:55:24+02:00</time>
      </trkpt>
      <trkpt lat="47.23887" lon="5.41827">
        <ele>182.90039</ele>
        <time>2026-05-15T11:55:25+02:00</time>
      </trkpt>
      <trkpt lat="47.23884" lon="5.41834">
        <ele>182.90039</ele>
        <time>2026-05-15T11:55:26+02:00</time>
      </trkpt>
      <trkpt lat="47.23882" lon="5.41842">
        <ele>182.90039</ele>
        <time>2026-05-15T11:55:27+02:00</time>
      </trkpt>
      <trkpt lat="47.23879" lon="5.4185">
        <ele>182.90039</ele>
        <time>2026-05-15T11:55:28+02:00</time>
      </trkpt>
      <trkpt lat="47.23876" lon="5.41857">
        <ele>182.90039</ele>
        <time>2026-05-15T11:55:29+02:00</time>
      </trkpt>
      <trkpt lat="47.23873" lon="5.41865">
        <ele>182.90039</ele>
        <time>2026-05-15T11:55:30+02:00</time>
      </trkpt>
      <trkpt lat="47.2387" lon="5.41872">
        <ele>182.90039</ele>
        <time>2026-05-15T11:55:31+02:00</time>
      </trkpt>
      <trkpt lat="47.23867" lon="5.4188">
        <ele>182.7998</ele>
        <time>2026-05-15T11:55:32+02:00</time>
      </trkpt>
      <trkpt lat="47.23864" lon="5.41888">
        <ele>182.7998</ele>
        <time>2026-05-15T11:55:33+02:00</time>
      </trkpt>
      <trkpt lat="47.23861" lon="5.41895">
        <ele>182.7002</ele>
        <time>2026-05-15T11:55:34+02:00</time>
      </trkpt>
      <trkpt lat="47.23857" lon="5.41902">
        <ele>182.60059</ele>
        <time>2026-05-15T11:55:35+02:00</time>
      </trkpt>
      <trkpt lat="47.23854" lon="5.41909">
        <ele>182.60059</ele>
        <time>2026-05-15T11:55:36+02:00</time>
      </trkpt>
      <trkpt lat="47.23851" lon="5.41915">
        <ele>182.5</ele>
        <time>2026-05-15T11:55:37+02:00</time>
      </trkpt>
      <trkpt lat="47.23848" lon="5.41922">
        <ele>182.40039</ele>
        <time>2026-05-15T11:55:38+02:00</time>
      </trkpt>
      <trkpt lat="47.23845" lon="5.41928">
        <ele>182.2998</ele>
        <time>2026-05-15T11:55:39+02:00</time>
      </trkpt>
      <trkpt lat="47.23842" lon="5.41935">
        <ele>182.2002</ele>
        <time>2026-05-15T11:55:40+02:00</time>
      </trkpt>
      <trkpt lat="47.23839" lon="5.41941">
        <ele>182.2002</ele>
        <time>2026-05-15T11:55:41+02:00</time>
      </trkpt>
      <trkpt lat="47.23836" lon="5.41948">
        <ele>182.10059</ele>
        <time>2026-05-15T11:55:42+02:00</time>
      </trkpt>
      <trkpt lat="47.23832" lon="5.41954">
        <ele>181.90039</ele>
        <time>2026-05-15T11:55:43+02:00</time>
      </trkpt>
      <trkpt lat="47.23829" lon="5.4196">
        <ele>181.90039</ele>
        <time>2026-05-15T11:55:44+02:00</time>
      </trkpt>
      <trkpt lat="47.23826" lon="5.41966">
        <ele>181.7998</ele>
        <time>2026-05-15T11:55:45+02:00</time>
      </trkpt>
      <trkpt lat="47.23822" lon="5.41972">
        <ele>181.7002</ele>
        <time>2026-05-15T11:55:46+02:00</time>
      </trkpt>
      <trkpt lat="47.23819" lon="5.41978">
        <ele>181.7002</ele>
        <time>2026-05-15T11:55:47+02:00</time>
      </trkpt>
      <trkpt lat="47.23816" lon="5.41984">
        <ele>181.7002</ele>
        <time>2026-05-15T11:55:48+02:00</time>
      </trkpt>
      <trkpt lat="47.23813" lon="5.41989">
        <ele>181.7002</ele>
        <time>2026-05-15T11:55:49+02:00</time>
      </trkpt>
      <trkpt lat="47.2381" lon="5.41994">
        <ele>181.7998</ele>
        <time>2026-05-15T11:55:50+02:00</time>
      </trkpt>
      <trkpt lat="47.23807" lon="5.41999">
        <ele>181.7998</ele>
        <time>2026-05-15T11:55:51+02:00</time>
      </trkpt>
      <trkpt lat="47.23805" lon="5.42005">
        <ele>181.7998</ele>
        <time>2026-05-15T11:55:52+02:00</time>
      </trkpt>
      <trkpt lat="47.23802" lon="5.4201">
        <ele>181.7998</ele>
        <time>2026-05-15T11:55:53+02:00</time>
      </trkpt>
      <trkpt lat="47.23799" lon="5.42016">
        <ele>181.7998</ele>
        <time>2026-05-15T11:55:54+02:00</time>
      </trkpt>
      <trkpt lat="47.23796" lon="5.42022">
        <ele>181.7998</ele>
        <time>2026-05-15T11:55:55+02:00</time>
      </trkpt>
      <trkpt lat="47.23792" lon="5.42029">
        <ele>181.7998</ele>
        <time>2026-05-15T11:55:56+02:00</time>
      </trkpt>
      <trkpt lat="47.23789" lon="5.42035">
        <ele>181.7998</ele>
        <time>2026-05-15T11:55:57+02:00</time>
      </trkpt>
      <trkpt lat="47.23786" lon="5.42042">
        <ele>181.90039</ele>
        <time>2026-05-15T11:55:58+02:00</time>
      </trkpt>
      <trkpt lat="47.23782" lon="5.42049">
        <ele>181.90039</ele>
        <time>2026-05-15T11:55:59+02:00</time>
      </trkpt>
      <trkpt lat="47.23779" lon="5.42055">
        <ele>182</ele>
        <time>2026-05-15T11:56:00+02:00</time>
      </trkpt>
      <trkpt lat="47.23775" lon="5.42061">
        <ele>182</ele>
        <time>2026-05-15T11:56:01+02:00</time>
      </trkpt>
      <trkpt lat="47.23771" lon="5.42068">
        <ele>182.10059</ele>
        <time>2026-05-15T11:56:02+02:00</time>
      </trkpt>
      <trkpt lat="47.23768" lon="5.42075">
        <ele>182.10059</ele>
        <time>2026-05-15T11:56:03+02:00</time>
      </trkpt>
      <trkpt lat="47.23765" lon="5.42082">
        <ele>182.10059</ele>
        <time>2026-05-15T11:56:04+02:00</time>
      </trkpt>
      <trkpt lat="47.23761" lon="5.4209">
        <ele>182.10059</ele>
        <time>2026-05-15T11:56:05+02:00</time>
      </trkpt>
      <trkpt lat="47.23758" lon="5.42097">
        <ele>182.10059</ele>
        <time>2026-05-15T11:56:06+02:00</time>
      </trkpt>
      <trkpt lat="47.23755" lon="5.42105">
        <ele>182.10059</ele>
        <time>2026-05-15T11:56:07+02:00</time>
      </trkpt>
      <trkpt lat="47.23752" lon="5.42113">
        <ele>182.2002</ele>
        <time>2026-05-15T11:56:08+02:00</time>
      </trkpt>
      <trkpt lat="47.23749" lon="5.42121">
        <ele>182.2002</ele>
        <time>2026-05-15T11:56:09+02:00</time>
      </trkpt>
      <trkpt lat="47.23747" lon="5.42129">
        <ele>182.2002</ele>
        <time>2026-05-15T11:56:10+02:00</time>
      </trkpt>
      <trkpt lat="47.23745" lon="5.42138">
        <ele>182.2002</ele>
        <time>2026-05-15T11:56:11+02:00</time>
      </trkpt>
      <trkpt lat="47.23744" lon="5.42146">
        <ele>182.2002</ele>
        <time>2026-05-15T11:56:12+02:00</time>
      </trkpt>
      <trkpt lat="47.23741" lon="5.42154">
        <ele>182.2998</ele>
        <time>2026-05-15T11:56:13+02:00</time>
      </trkpt>
      <trkpt lat="47.2374" lon="5.42163">
        <ele>182.2998</ele>
        <time>2026-05-15T11:56:14+02:00</time>
      </trkpt>
      <trkpt lat="47.23737" lon="5.42171">
        <ele>182.40039</ele>
        <time>2026-05-15T11:56:15+02:00</time>
      </trkpt>
      <trkpt lat="47.23736" lon="5.42179">
        <ele>182.5</ele>
        <time>2026-05-15T11:56:16+02:00</time>
      </trkpt>
      <trkpt lat="47.23734" lon="5.42187">
        <ele>182.60059</ele>
        <time>2026-05-15T11:56:17+02:00</time>
      </trkpt>
      <trkpt lat="47.23732" lon="5.42196">
        <ele>182.7002</ele>
        <time>2026-05-15T11:56:18+02:00</time>
      </trkpt>
      <trkpt lat="47.2373" lon="5.42204">
        <ele>182.7002</ele>
        <time>2026-05-15T11:56:19+02:00</time>
      </trkpt>
      <trkpt lat="47.23728" lon="5.42212">
        <ele>182.7998</ele>
        <time>2026-05-15T11:56:20+02:00</time>
      </trkpt>
      <trkpt lat="47.23726" lon="5.42221">
        <ele>182.90039</ele>
        <time>2026-05-15T11:56:21+02:00</time>
      </trkpt>
      <trkpt lat="47.23724" lon="5.42229">
        <ele>183</ele>
        <time>2026-05-15T11:56:22+02:00</time>
      </trkpt>
      <trkpt lat="47.23723" lon="5.42237">
        <ele>183</ele>
        <time>2026-05-15T11:56:23+02:00</time>
      </trkpt>
      <trkpt lat="47.2372" lon="5.42246">
        <ele>183</ele>
        <time>2026-05-15T11:56:24+02:00</time>
      </trkpt>
      <trkpt lat="47.23719" lon="5.42254">
        <ele>183</ele>
        <time>2026-05-15T11:56:25+02:00</time>
      </trkpt>
      <trkpt lat="47.23717" lon="5.42262">
        <ele>183</ele>
        <time>2026-05-15T11:56:26+02:00</time>
      </trkpt>
      <trkpt lat="47.23715" lon="5.42271">
        <ele>183</ele>
        <time>2026-05-15T11:56:27+02:00</time>
      </trkpt>
      <trkpt lat="47.23713" lon="5.42279">
        <ele>183</ele>
        <time>2026-05-15T11:56:28+02:00</time>
      </trkpt>
      <trkpt lat="47.23711" lon="5.42287">
        <ele>182.90039</ele>
        <time>2026-05-15T11:56:29+02:00</time>
      </trkpt>
      <trkpt lat="47.23709" lon="5.42295">
        <ele>182.90039</ele>
        <time>2026-05-15T11:56:30+02:00</time>
      </trkpt>
      <trkpt lat="47.23707" lon="5.42303">
        <ele>182.90039</ele>
        <time>2026-05-15T11:56:31+02:00</time>
      </trkpt>
      <trkpt lat="47.23705" lon="5.42311">
        <ele>182.7998</ele>
        <time>2026-05-15T11:56:32+02:00</time>
      </trkpt>
      <trkpt lat="47.23703" lon="5.4232">
        <ele>182.7002</ele>
        <time>2026-05-15T11:56:33+02:00</time>
      </trkpt>
      <trkpt lat="47.23701" lon="5.42328">
        <ele>182.7002</ele>
        <time>2026-05-15T11:56:34+02:00</time>
      </trkpt>
      <trkpt lat="47.23699" lon="5.42336">
        <ele>182.60059</ele>
        <time>2026-05-15T11:56:35+02:00</time>
      </trkpt>
      <trkpt lat="47.23697" lon="5.42345">
        <ele>182.60059</ele>
        <time>2026-05-15T11:56:36+02:00</time>
      </trkpt>
      <trkpt lat="47.23695" lon="5.42353">
        <ele>182.60059</ele>
        <time>2026-05-15T11:56:37+02:00</time>
      </trkpt>
      <trkpt lat="47.23693" lon="5.42361">
        <ele>182.60059</ele>
        <time>2026-05-15T11:56:38+02:00</time>
      </trkpt>
      <trkpt lat="47.23691" lon="5.4237">
        <ele>182.60059</ele>
        <time>2026-05-15T11:56:39+02:00</time>
      </trkpt>
      <trkpt lat="47.23689" lon="5.42378">
        <ele>182.60059</ele>
        <time>2026-05-15T11:56:40+02:00</time>
      </trkpt>
      <trkpt lat="47.23687" lon="5.42386">
        <ele>182.7002</ele>
        <time>2026-05-15T11:56:41+02:00</time>
      </trkpt>
      <trkpt lat="47.23685" lon="5.42395">
        <ele>182.7998</ele>
        <time>2026-05-15T11:56:42+02:00</time>
      </trkpt>
      <trkpt lat="47.23683" lon="5.42403">
        <ele>182.90039</ele>
        <time>2026-05-15T11:56:43+02:00</time>
      </trkpt>
      <trkpt lat="47.23681" lon="5.42411">
        <ele>183</ele>
        <time>2026-05-15T11:56:44+02:00</time>
      </trkpt>
      <trkpt lat="47.23679" lon="5.42419">
        <ele>183.2002</ele>
        <time>2026-05-15T11:56:45+02:00</time>
      </trkpt>
      <trkpt lat="47.23677" lon="5.42427">
        <ele>183.40039</ele>
        <time>2026-05-15T11:56:46+02:00</time>
      </trkpt>
      <trkpt lat="47.23675" lon="5.42435">
        <ele>183.60059</ele>
        <time>2026-05-15T11:56:47+02:00</time>
      </trkpt>
      <trkpt lat="47.23674" lon="5.42444">
        <ele>183.7002</ele>
        <time>2026-05-15T11:56:48+02:00</time>
      </trkpt>
      <trkpt lat="47.23672" lon="5.42452">
        <ele>183.90039</ele>
        <time>2026-05-15T11:56:49+02:00</time>
      </trkpt>
      <trkpt lat="47.2367" lon="5.4246">
        <ele>184.10059</ele>
        <time>2026-05-15T11:56:50+02:00</time>
      </trkpt>
      <trkpt lat="47.23668" lon="5.42468">
        <ele>184.2998</ele>
        <time>2026-05-15T11:56:51+02:00</time>
      </trkpt>
      <trkpt lat="47.23667" lon="5.42475">
        <ele>184.2998</ele>
        <time>2026-05-15T11:56:52+02:00</time>
      </trkpt>
      <trkpt lat="47.23665" lon="5.42483">
        <ele>184.40039</ele>
        <time>2026-05-15T11:56:53+02:00</time>
      </trkpt>
      <trkpt lat="47.23663" lon="5.42491">
        <ele>184.60059</ele>
        <time>2026-05-15T11:56:54+02:00</time>
      </trkpt>
      <trkpt lat="47.23661" lon="5.425">
        <ele>184.7002</ele>
        <time>2026-05-15T11:56:55+02:00</time>
      </trkpt>
      <trkpt lat="47.23659" lon="5.42508">
        <ele>184.90039</ele>
        <time>2026-05-15T11:56:56+02:00</time>
      </trkpt>
      <trkpt lat="47.23657" lon="5.42516">
        <ele>185.10059</ele>
        <time>2026-05-15T11:56:57+02:00</time>
      </trkpt>
      <trkpt lat="47.23655" lon="5.42524">
        <ele>185.40039</ele>
        <time>2026-05-15T11:56:58+02:00</time>
      </trkpt>
      <trkpt lat="47.23653" lon="5.42532">
        <ele>185.60059</ele>
        <time>2026-05-15T11:56:59+02:00</time>
      </trkpt>
      <trkpt lat="47.23651" lon="5.4254">
        <ele>185.7998</ele>
        <time>2026-05-15T11:57:00+02:00</time>
      </trkpt>
      <trkpt lat="47.23649" lon="5.42548">
        <ele>186.10059</ele>
        <time>2026-05-15T11:57:01+02:00</time>
      </trkpt>
      <trkpt lat="47.23647" lon="5.42556">
        <ele>186.2998</ele>
        <time>2026-05-15T11:57:02+02:00</time>
      </trkpt>
      <trkpt lat="47.23646" lon="5.42564">
        <ele>186.5</ele>
        <time>2026-05-15T11:57:03+02:00</time>
      </trkpt>
      <trkpt lat="47.23644" lon="5.42571">
        <ele>186.7002</ele>
        <time>2026-05-15T11:57:04+02:00</time>
      </trkpt>
      <trkpt lat="47.23642" lon="5.42579">
        <ele>187</ele>
        <time>2026-05-15T11:57:05+02:00</time>
      </trkpt>
      <trkpt lat="47.2364" lon="5.42587">
        <ele>186.90039</ele>
        <time>2026-05-15T11:57:06+02:00</time>
      </trkpt>
      <trkpt lat="47.23638" lon="5.42595">
        <ele>187.10059</ele>
        <time>2026-05-15T11:57:07+02:00</time>
      </trkpt>
      <trkpt lat="47.23636" lon="5.42602">
        <ele>187.2998</ele>
        <time>2026-05-15T11:57:08+02:00</time>
      </trkpt>
      <trkpt lat="47.23635" lon="5.4261">
        <ele>187.40039</ele>
        <time>2026-05-15T11:57:09+02:00</time>
      </trkpt>
      <trkpt lat="47.23633" lon="5.42617">
        <ele>187.60059</ele>
        <time>2026-05-15T11:57:10+02:00</time>
      </trkpt>
      <trkpt lat="47.23631" lon="5.42625">
        <ele>187.7002</ele>
        <time>2026-05-15T11:57:11+02:00</time>
      </trkpt>
      <trkpt lat="47.2363" lon="5.42632">
        <ele>187.90039</ele>
        <time>2026-05-15T11:57:12+02:00</time>
      </trkpt>
      <trkpt lat="47.23628" lon="5.4264">
        <ele>187.90039</ele>
        <time>2026-05-15T11:57:13+02:00</time>
      </trkpt>
      <trkpt lat="47.23626" lon="5.42648">
        <ele>188</ele>
        <time>2026-05-15T11:57:14+02:00</time>
      </trkpt>
      <trkpt lat="47.23624" lon="5.42655">
        <ele>188</ele>
        <time>2026-05-15T11:57:15+02:00</time>
      </trkpt>
      <trkpt lat="47.23622" lon="5.42663">
        <ele>187.90039</ele>
        <time>2026-05-15T11:57:16+02:00</time>
      </trkpt>
      <trkpt lat="47.2362" lon="5.42671">
        <ele>187.7998</ele>
        <time>2026-05-15T11:57:17+02:00</time>
      </trkpt>
      <trkpt lat="47.23618" lon="5.42678">
        <ele>187.60059</ele>
        <time>2026-05-15T11:57:18+02:00</time>
      </trkpt>
      <trkpt lat="47.23617" lon="5.42686">
        <ele>187.40039</ele>
        <time>2026-05-15T11:57:19+02:00</time>
      </trkpt>
      <trkpt lat="47.23615" lon="5.42694">
        <ele>187.2002</ele>
        <time>2026-05-15T11:57:20+02:00</time>
      </trkpt>
      <trkpt lat="47.23613" lon="5.42702">
        <ele>186.90039</ele>
        <time>2026-05-15T11:57:21+02:00</time>
      </trkpt>
      <trkpt lat="47.23612" lon="5.42709">
        <ele>186.5</ele>
        <time>2026-05-15T11:57:22+02:00</time>
      </trkpt>
      <trkpt lat="47.2361" lon="5.42717">
        <ele>186.2002</ele>
        <time>2026-05-15T11:57:23+02:00</time>
      </trkpt>
      <trkpt lat="47.23608" lon="5.42725">
        <ele>185.90039</ele>
        <time>2026-05-15T11:57:24+02:00</time>
      </trkpt>
      <trkpt lat="47.23606" lon="5.42732">
        <ele>185.7002</ele>
        <time>2026-05-15T11:57:25+02:00</time>
      </trkpt>
      <trkpt lat="47.23605" lon="5.4274">
        <ele>185.40039</ele>
        <time>2026-05-15T11:57:26+02:00</time>
      </trkpt>
      <trkpt lat="47.23603" lon="5.42748">
        <ele>185.10059</ele>
        <time>2026-05-15T11:57:27+02:00</time>
      </trkpt>
      <trkpt lat="47.23601" lon="5.42755">
        <ele>184.7998</ele>
        <time>2026-05-15T11:57:28+02:00</time>
      </trkpt>
      <trkpt lat="47.23599" lon="5.42763">
        <ele>184.5</ele>
        <time>2026-05-15T11:57:29+02:00</time>
      </trkpt>
      <trkpt lat="47.23597" lon="5.42771">
        <ele>184.2998</ele>
        <time>2026-05-15T11:57:30+02:00</time>
      </trkpt>
      <trkpt lat="47.23596" lon="5.42778">
        <ele>184.2002</ele>
        <time>2026-05-15T11:57:31+02:00</time>
      </trkpt>
      <trkpt lat="47.23594" lon="5.42786">
        <ele>184.10059</ele>
        <time>2026-05-15T11:57:32+02:00</time>
      </trkpt>
      <trkpt lat="47.23592" lon="5.42794">
        <ele>184.10059</ele>
        <time>2026-05-15T11:57:33+02:00</time>
      </trkpt>
      <trkpt lat="47.2359" lon="5.42801">
        <ele>184.10059</ele>
        <time>2026-05-15T11:57:34+02:00</time>
      </trkpt>
      <trkpt lat="47.23588" lon="5.42809">
        <ele>184.10059</ele>
        <time>2026-05-15T11:57:35+02:00</time>
      </trkpt>
      <trkpt lat="47.23586" lon="5.42817">
        <ele>184.10059</ele>
        <time>2026-05-15T11:57:36+02:00</time>
      </trkpt>
      <trkpt lat="47.23584" lon="5.42825">
        <ele>184.10059</ele>
        <time>2026-05-15T11:57:37+02:00</time>
      </trkpt>
      <trkpt lat="47.23582" lon="5.42833">
        <ele>184.10059</ele>
        <time>2026-05-15T11:57:38+02:00</time>
      </trkpt>
      <trkpt lat="47.2358" lon="5.42842">
        <ele>184.10059</ele>
        <time>2026-05-15T11:57:39+02:00</time>
      </trkpt>
      <trkpt lat="47.23578" lon="5.4285">
        <ele>184.10059</ele>
        <time>2026-05-15T11:57:40+02:00</time>
      </trkpt>
      <trkpt lat="47.23576" lon="5.42858">
        <ele>184.2002</ele>
        <time>2026-05-15T11:57:41+02:00</time>
      </trkpt>
      <trkpt lat="47.23574" lon="5.42866">
        <ele>184.2002</ele>
        <time>2026-05-15T11:57:42+02:00</time>
      </trkpt>
      <trkpt lat="47.23572" lon="5.42874">
        <ele>184.2002</ele>
        <time>2026-05-15T11:57:43+02:00</time>
      </trkpt>
      <trkpt lat="47.2357" lon="5.42882">
        <ele>184.2002</ele>
        <time>2026-05-15T11:57:44+02:00</time>
      </trkpt>
      <trkpt lat="47.23568" lon="5.4289">
        <ele>184.2002</ele>
        <time>2026-05-15T11:57:45+02:00</time>
      </trkpt>
      <trkpt lat="47.23566" lon="5.42898">
        <ele>184.2002</ele>
        <time>2026-05-15T11:57:46+02:00</time>
      </trkpt>
      <trkpt lat="47.23564" lon="5.42906">
        <ele>184.2002</ele>
        <time>2026-05-15T11:57:47+02:00</time>
      </trkpt>
      <trkpt lat="47.23563" lon="5.42914">
        <ele>184.10059</ele>
        <time>2026-05-15T11:57:48+02:00</time>
      </trkpt>
      <trkpt lat="47.23561" lon="5.42922">
        <ele>184.10059</ele>
        <time>2026-05-15T11:57:49+02:00</time>
      </trkpt>
      <trkpt lat="47.23559" lon="5.4293">
        <ele>184.10059</ele>
        <time>2026-05-15T11:57:50+02:00</time>
      </trkpt>
      <trkpt lat="47.23557" lon="5.42937">
        <ele>184.10059</ele>
        <time>2026-05-15T11:57:51+02:00</time>
      </trkpt>
      <trkpt lat="47.23556" lon="5.42945">
        <ele>184</ele>
        <time>2026-05-15T11:57:52+02:00</time>
      </trkpt>
      <trkpt lat="47.23554" lon="5.42953">
        <ele>184</ele>
        <time>2026-05-15T11:57:53+02:00</time>
      </trkpt>
      <trkpt lat="47.23552" lon="5.4296">
        <ele>183.90039</ele>
        <time>2026-05-15T11:57:54+02:00</time>
      </trkpt>
      <trkpt lat="47.2355" lon="5.42968">
        <ele>183.90039</ele>
        <time>2026-05-15T11:57:55+02:00</time>
      </trkpt>
      <trkpt lat="47.23548" lon="5.42975">
        <ele>183.90039</ele>
        <time>2026-05-15T11:57:56+02:00</time>
      </trkpt>
      <trkpt lat="47.23547" lon="5.42983">
        <ele>183.7998</ele>
        <time>2026-05-15T11:57:57+02:00</time>
      </trkpt>
      <trkpt lat="47.23545" lon="5.42991">
        <ele>183.7002</ele>
        <time>2026-05-15T11:57:58+02:00</time>
      </trkpt>
      <trkpt lat="47.23543" lon="5.42998">
        <ele>183.7002</ele>
        <time>2026-05-15T11:57:59+02:00</time>
      </trkpt>
      <trkpt lat="47.23541" lon="5.43006">
        <ele>183.60059</ele>
        <time>2026-05-15T11:58:00+02:00</time>
      </trkpt>
      <trkpt lat="47.23539" lon="5.43014">
        <ele>183.60059</ele>
        <time>2026-05-15T11:58:01+02:00</time>
      </trkpt>
      <trkpt lat="47.23538" lon="5.43022">
        <ele>183.60059</ele>
        <time>2026-05-15T11:58:02+02:00</time>
      </trkpt>
      <trkpt lat="47.23536" lon="5.4303">
        <ele>183.60059</ele>
        <time>2026-05-15T11:58:03+02:00</time>
      </trkpt>
      <trkpt lat="47.2353" lon="5.43054">
        <ele>183.7002</ele>
        <time>2026-05-15T11:58:04+02:00</time>
      </trkpt>
      <trkpt lat="47.23528" lon="5.43062">
        <ele>183.7002</ele>
        <time>2026-05-15T11:58:05+02:00</time>
      </trkpt>
      <trkpt lat="47.23526" lon="5.4307">
        <ele>183.7002</ele>
        <time>2026-05-15T11:58:06+02:00</time>
      </trkpt>
      <trkpt lat="47.23524" lon="5.43078">
        <ele>183.7002</ele>
        <time>2026-05-15T11:58:07+02:00</time>
      </trkpt>
      <trkpt lat="47.23522" lon="5.43085">
        <ele>183.7002</ele>
        <time>2026-05-15T11:58:08+02:00</time>
      </trkpt>
      <trkpt lat="47.2352" lon="5.43093">
        <ele>183.7002</ele>
        <time>2026-05-15T11:58:09+02:00</time>
      </trkpt>
      <trkpt lat="47.23518" lon="5.43101">
        <ele>183.7002</ele>
        <time>2026-05-15T11:58:10+02:00</time>
      </trkpt>
      <trkpt lat="47.23516" lon="5.43109">
        <ele>183.60059</ele>
        <time>2026-05-15T11:58:11+02:00</time>
      </trkpt>
      <trkpt lat="47.23514" lon="5.43117">
        <ele>183.60059</ele>
        <time>2026-05-15T11:58:12+02:00</time>
      </trkpt>
      <trkpt lat="47.23512" lon="5.43125">
        <ele>183.5</ele>
        <time>2026-05-15T11:58:13+02:00</time>
      </trkpt>
      <trkpt lat="47.2351" lon="5.43133">
        <ele>183.40039</ele>
        <time>2026-05-15T11:58:14+02:00</time>
      </trkpt>
      <trkpt lat="47.23509" lon="5.4314">
        <ele>183.40039</ele>
        <time>2026-05-15T11:58:15+02:00</time>
      </trkpt>
      <trkpt lat="47.23507" lon="5.43148">
        <ele>183.2998</ele>
        <time>2026-05-15T11:58:16+02:00</time>
      </trkpt>
      <trkpt lat="47.23505" lon="5.43156">
        <ele>183.2002</ele>
        <time>2026-05-15T11:58:17+02:00</time>
      </trkpt>
      <trkpt lat="47.23503" lon="5.43164">
        <ele>183.10059</ele>
        <time>2026-05-15T11:58:18+02:00</time>
      </trkpt>
      <trkpt lat="47.23501" lon="5.43171">
        <ele>183.10059</ele>
        <time>2026-05-15T11:58:19+02:00</time>
      </trkpt>
      <trkpt lat="47.23499" lon="5.43179">
        <ele>183.10059</ele>
        <time>2026-05-15T11:58:20+02:00</time>
      </trkpt>
      <trkpt lat="47.23498" lon="5.43187">
        <ele>183</ele>
        <time>2026-05-15T11:58:21+02:00</time>
      </trkpt>
      <trkpt lat="47.23496" lon="5.43194">
        <ele>182.90039</ele>
        <time>2026-05-15T11:58:22+02:00</time>
      </trkpt>
      <trkpt lat="47.23494" lon="5.43202">
        <ele>182.7998</ele>
        <time>2026-05-15T11:58:23+02:00</time>
      </trkpt>
      <trkpt lat="47.23493" lon="5.4321">
        <ele>182.60059</ele>
        <time>2026-05-15T11:58:24+02:00</time>
      </trkpt>
      <trkpt lat="47.23491" lon="5.43217">
        <ele>182.5</ele>
        <time>2026-05-15T11:58:25+02:00</time>
      </trkpt>
      <trkpt lat="47.23489" lon="5.43225">
        <ele>182.40039</ele>
        <time>2026-05-15T11:58:26+02:00</time>
      </trkpt>
      <trkpt lat="47.23487" lon="5.43232">
        <ele>182.2998</ele>
        <time>2026-05-15T11:58:27+02:00</time>
      </trkpt>
      <trkpt lat="47.23485" lon="5.4324">
        <ele>182.2002</ele>
        <time>2026-05-15T11:58:28+02:00</time>
      </trkpt>
      <trkpt lat="47.23483" lon="5.43248">
        <ele>182.2002</ele>
        <time>2026-05-15T11:58:29+02:00</time>
      </trkpt>
      <trkpt lat="47.23481" lon="5.43256">
        <ele>182.10059</ele>
        <time>2026-05-15T11:58:30+02:00</time>
      </trkpt>
      <trkpt lat="47.2348" lon="5.43263">
        <ele>182.10059</ele>
        <time>2026-05-15T11:58:31+02:00</time>
      </trkpt>
      <trkpt lat="47.23478" lon="5.43271">
        <ele>182</ele>
        <time>2026-05-15T11:58:32+02:00</time>
      </trkpt>
      <trkpt lat="47.23476" lon="5.43278">
        <ele>181.90039</ele>
        <time>2026-05-15T11:58:33+02:00</time>
      </trkpt>
      <trkpt lat="47.23474" lon="5.43286">
        <ele>181.90039</ele>
        <time>2026-05-15T11:58:34+02:00</time>
      </trkpt>
      <trkpt lat="47.23472" lon="5.43294">
        <ele>181.90039</ele>
        <time>2026-05-15T11:58:35+02:00</time>
      </trkpt>
      <trkpt lat="47.2347" lon="5.43302">
        <ele>181.90039</ele>
        <time>2026-05-15T11:58:36+02:00</time>
      </trkpt>
      <trkpt lat="47.23469" lon="5.4331">
        <ele>181.7998</ele>
        <time>2026-05-15T11:58:37+02:00</time>
      </trkpt>
      <trkpt lat="47.23467" lon="5.43317">
        <ele>181.7998</ele>
        <time>2026-05-15T11:58:38+02:00</time>
      </trkpt>
      <trkpt lat="47.23465" lon="5.43325">
        <ele>181.90039</ele>
        <time>2026-05-15T11:58:39+02:00</time>
      </trkpt>
      <trkpt lat="47.23463" lon="5.43333">
        <ele>181.90039</ele>
        <time>2026-05-15T11:58:40+02:00</time>
      </trkpt>
      <trkpt lat="47.23462" lon="5.43341">
        <ele>181.90039</ele>
        <time>2026-05-15T11:58:41+02:00</time>
      </trkpt>
      <trkpt lat="47.2346" lon="5.43348">
        <ele>182</ele>
        <time>2026-05-15T11:58:42+02:00</time>
      </trkpt>
      <trkpt lat="47.23458" lon="5.43356">
        <ele>182</ele>
        <time>2026-05-15T11:58:43+02:00</time>
      </trkpt>
      <trkpt lat="47.23456" lon="5.43364">
        <ele>182</ele>
        <time>2026-05-15T11:58:44+02:00</time>
      </trkpt>
      <trkpt lat="47.23454" lon="5.43372">
        <ele>182.2002</ele>
        <time>2026-05-15T11:58:45+02:00</time>
      </trkpt>
      <trkpt lat="47.23452" lon="5.4338">
        <ele>182.2002</ele>
        <time>2026-05-15T11:58:46+02:00</time>
      </trkpt>
      <trkpt lat="47.2345" lon="5.43388">
        <ele>182.2002</ele>
        <time>2026-05-15T11:58:47+02:00</time>
      </trkpt>
      <trkpt lat="47.23448" lon="5.43395">
        <ele>182.40039</ele>
        <time>2026-05-15T11:58:48+02:00</time>
      </trkpt>
      <trkpt lat="47.23447" lon="5.43403">
        <ele>182.40039</ele>
        <time>2026-05-15T11:58:49+02:00</time>
      </trkpt>
      <trkpt lat="47.23445" lon="5.43411">
        <ele>182.40039</ele>
        <time>2026-05-15T11:58:50+02:00</time>
      </trkpt>
      <trkpt lat="47.23443" lon="5.43418">
        <ele>182.60059</ele>
        <time>2026-05-15T11:58:51+02:00</time>
      </trkpt>
      <trkpt lat="47.23441" lon="5.43426">
        <ele>182.60059</ele>
        <time>2026-05-15T11:58:52+02:00</time>
      </trkpt>
      <trkpt lat="47.2344" lon="5.43433">
        <ele>182.7002</ele>
        <time>2026-05-15T11:58:53+02:00</time>
      </trkpt>
      <trkpt lat="47.23438" lon="5.43441">
        <ele>182.7998</ele>
        <time>2026-05-15T11:58:54+02:00</time>
      </trkpt>
      <trkpt lat="47.23436" lon="5.43449">
        <ele>183</ele>
        <time>2026-05-15T11:58:55+02:00</time>
      </trkpt>
      <trkpt lat="47.23434" lon="5.43457">
        <ele>183.10059</ele>
        <time>2026-05-15T11:58:56+02:00</time>
      </trkpt>
      <trkpt lat="47.23432" lon="5.43465">
        <ele>183.2002</ele>
        <time>2026-05-15T11:58:57+02:00</time>
      </trkpt>
      <trkpt lat="47.2343" lon="5.43473">
        <ele>183.40039</ele>
        <time>2026-05-15T11:58:58+02:00</time>
      </trkpt>
      <trkpt lat="47.23428" lon="5.43481">
        <ele>183.40039</ele>
        <time>2026-05-15T11:58:59+02:00</time>
      </trkpt>
      <trkpt lat="47.23427" lon="5.43489">
        <ele>183.5</ele>
        <time>2026-05-15T11:59:00+02:00</time>
      </trkpt>
      <trkpt lat="47.23424" lon="5.43497">
        <ele>183.7002</ele>
        <time>2026-05-15T11:59:01+02:00</time>
      </trkpt>
      <trkpt lat="47.23422" lon="5.43505">
        <ele>183.7002</ele>
        <time>2026-05-15T11:59:02+02:00</time>
      </trkpt>
      <trkpt lat="47.2342" lon="5.43513">
        <ele>183.7998</ele>
        <time>2026-05-15T11:59:03+02:00</time>
      </trkpt>
      <trkpt lat="47.23417" lon="5.4352">
        <ele>184.10059</ele>
        <time>2026-05-15T11:59:04+02:00</time>
      </trkpt>
      <trkpt lat="47.23415" lon="5.43527">
        <ele>184.2002</ele>
        <time>2026-05-15T11:59:05+02:00</time>
      </trkpt>
      <trkpt lat="47.23411" lon="5.43534">
        <ele>184.5</ele>
        <time>2026-05-15T11:59:06+02:00</time>
      </trkpt>
      <trkpt lat="47.23408" lon="5.4354">
        <ele>184.7998</ele>
        <time>2026-05-15T11:59:07+02:00</time>
      </trkpt>
      <trkpt lat="47.23404" lon="5.43546">
        <ele>184.7998</ele>
        <time>2026-05-15T11:59:08+02:00</time>
      </trkpt>
      <trkpt lat="47.234" lon="5.43552">
        <ele>185.2002</ele>
        <time>2026-05-15T11:59:09+02:00</time>
      </trkpt>
      <trkpt lat="47.23396" lon="5.43558">
        <ele>185.5</ele>
        <time>2026-05-15T11:59:10+02:00</time>
      </trkpt>
      <trkpt lat="47.23393" lon="5.43563">
        <ele>185.5</ele>
        <time>2026-05-15T11:59:11+02:00</time>
      </trkpt>
      <trkpt lat="47.23389" lon="5.43569">
        <ele>185.90039</ele>
        <time>2026-05-15T11:59:12+02:00</time>
      </trkpt>
      <trkpt lat="47.23385" lon="5.43574">
        <ele>185.90039</ele>
        <time>2026-05-15T11:59:13+02:00</time>
      </trkpt>
      <trkpt lat="47.23381" lon="5.43579">
        <ele>186.2002</ele>
        <time>2026-05-15T11:59:14+02:00</time>
      </trkpt>
      <trkpt lat="47.23377" lon="5.43584">
        <ele>186.60059</ele>
        <time>2026-05-15T11:59:15+02:00</time>
      </trkpt>
      <trkpt lat="47.23374" lon="5.43589">
        <ele>186.60059</ele>
        <time>2026-05-15T11:59:16+02:00</time>
      </trkpt>
      <trkpt lat="47.2337" lon="5.43594">
        <ele>186.90039</ele>
        <time>2026-05-15T11:59:17+02:00</time>
      </trkpt>
      <trkpt lat="47.23366" lon="5.43599">
        <ele>187.10059</ele>
        <time>2026-05-15T11:59:18+02:00</time>
      </trkpt>
      <trkpt lat="47.23362" lon="5.43603">
        <ele>187.2998</ele>
        <time>2026-05-15T11:59:19+02:00</time>
      </trkpt>
      <trkpt lat="47.23359" lon="5.43608">
        <ele>187.5</ele>
        <time>2026-05-15T11:59:20+02:00</time>
      </trkpt>
      <trkpt lat="47.23355" lon="5.43613">
        <ele>187.90039</ele>
        <time>2026-05-15T11:59:21+02:00</time>
      </trkpt>
      <trkpt lat="47.23351" lon="5.43617">
        <ele>187.90039</ele>
        <time>2026-05-15T11:59:22+02:00</time>
      </trkpt>
      <trkpt lat="47.23348" lon="5.43622">
        <ele>188.2998</ele>
        <time>2026-05-15T11:59:23+02:00</time>
      </trkpt>
      <trkpt lat="47.23345" lon="5.43627">
        <ele>188.5</ele>
        <time>2026-05-15T11:59:24+02:00</time>
      </trkpt>
      <trkpt lat="47.23341" lon="5.43632">
        <ele>188.7998</ele>
        <time>2026-05-15T11:59:25+02:00</time>
      </trkpt>
      <trkpt lat="47.23337" lon="5.43636">
        <ele>189.2002</ele>
        <time>2026-05-15T11:59:26+02:00</time>
      </trkpt>
      <trkpt lat="47.23334" lon="5.4364">
        <ele>189.2002</ele>
        <time>2026-05-15T11:59:27+02:00</time>
      </trkpt>
      <trkpt lat="47.2333" lon="5.43645">
        <ele>189.60059</ele>
        <time>2026-05-15T11:59:28+02:00</time>
      </trkpt>
      <trkpt lat="47.23327" lon="5.4365">
        <ele>189.60059</ele>
        <time>2026-05-15T11:59:29+02:00</time>
      </trkpt>
      <trkpt lat="47.23324" lon="5.43654">
        <ele>190</ele>
        <time>2026-05-15T11:59:30+02:00</time>
      </trkpt>
      <trkpt lat="47.2332" lon="5.43659">
        <ele>190.2002</ele>
        <time>2026-05-15T11:59:31+02:00</time>
      </trkpt>
      <trkpt lat="47.23317" lon="5.43664">
        <ele>190.2998</ele>
        <time>2026-05-15T11:59:32+02:00</time>
      </trkpt>
      <trkpt lat="47.23314" lon="5.43669">
        <ele>190.60059</ele>
        <time>2026-05-15T11:59:33+02:00</time>
      </trkpt>
      <trkpt lat="47.23311" lon="5.43673">
        <ele>190.60059</ele>
        <time>2026-05-15T11:59:34+02:00</time>
      </trkpt>
      <trkpt lat="47.23308" lon="5.43679">
        <ele>190.90039</ele>
        <time>2026-05-15T11:59:35+02:00</time>
      </trkpt>
      <trkpt lat="47.23305" lon="5.43683">
        <ele>190.90039</ele>
        <time>2026-05-15T11:59:36+02:00</time>
      </trkpt>
      <trkpt lat="47.23301" lon="5.43688">
        <ele>191.2002</ele>
        <time>2026-05-15T11:59:37+02:00</time>
      </trkpt>
      <trkpt lat="47.23299" lon="5.43693">
        <ele>191.2002</ele>
        <time>2026-05-15T11:59:38+02:00</time>
      </trkpt>
      <trkpt lat="47.23296" lon="5.43698">
        <ele>191.40039</ele>
        <time>2026-05-15T11:59:39+02:00</time>
      </trkpt>
      <trkpt lat="47.23293" lon="5.43703">
        <ele>191.40039</ele>
        <time>2026-05-15T11:59:40+02:00</time>
      </trkpt>
      <trkpt lat="47.23291" lon="5.43708">
        <ele>191.7002</ele>
        <time>2026-05-15T11:59:41+02:00</time>
      </trkpt>
      <trkpt lat="47.23288" lon="5.43713">
        <ele>191.7002</ele>
        <time>2026-05-15T11:59:42+02:00</time>
      </trkpt>
      <trkpt lat="47.23285" lon="5.43719">
        <ele>191.90039</ele>
        <time>2026-05-15T11:59:43+02:00</time>
      </trkpt>
      <trkpt lat="47.23283" lon="5.43724">
        <ele>192</ele>
        <time>2026-05-15T11:59:44+02:00</time>
      </trkpt>
      <trkpt lat="47.2328" lon="5.4373">
        <ele>192</ele>
        <time>2026-05-15T11:59:45+02:00</time>
      </trkpt>
      <trkpt lat="47.23278" lon="5.43737">
        <ele>192.2002</ele>
        <time>2026-05-15T11:59:46+02:00</time>
      </trkpt>
      <trkpt lat="47.23276" lon="5.43743">
        <ele>192.2002</ele>
        <time>2026-05-15T11:59:47+02:00</time>
      </trkpt>
      <trkpt lat="47.23273" lon="5.4375">
        <ele>192.40039</ele>
        <time>2026-05-15T11:59:48+02:00</time>
      </trkpt>
      <trkpt lat="47.23271" lon="5.43756">
        <ele>192.40039</ele>
        <time>2026-05-15T11:59:49+02:00</time>
      </trkpt>
      <trkpt lat="47.23268" lon="5.43762">
        <ele>192.5</ele>
        <time>2026-05-15T11:59:50+02:00</time>
      </trkpt>
      <trkpt lat="47.23265" lon="5.43768">
        <ele>192.40039</ele>
        <time>2026-05-15T11:59:51+02:00</time>
      </trkpt>
      <trkpt lat="47.23263" lon="5.43775">
        <ele>192.40039</ele>
        <time>2026-05-15T11:59:52+02:00</time>
      </trkpt>
      <trkpt lat="47.2326" lon="5.43781">
        <ele>192.40039</ele>
        <time>2026-05-15T11:59:53+02:00</time>
      </trkpt>
      <trkpt lat="47.23258" lon="5.43788">
        <ele>192.40039</ele>
        <time>2026-05-15T11:59:54+02:00</time>
      </trkpt>
      <trkpt lat="47.23255" lon="5.43795">
        <ele>192.40039</ele>
        <time>2026-05-15T11:59:55+02:00</time>
      </trkpt>
      <trkpt lat="47.23252" lon="5.43802">
        <ele>192.2998</ele>
        <time>2026-05-15T11:59:56+02:00</time>
      </trkpt>
      <trkpt lat="47.23249" lon="5.43809">
        <ele>192.2998</ele>
        <time>2026-05-15T11:59:57+02:00</time>
      </trkpt>
      <trkpt lat="47.23246" lon="5.43816">
        <ele>192.2002</ele>
        <time>2026-05-15T11:59:58+02:00</time>
      </trkpt>
      <trkpt lat="47.23243" lon="5.43823">
        <ele>192.2998</ele>
        <time>2026-05-15T11:59:59+02:00</time>
      </trkpt>
      <trkpt lat="47.2324" lon="5.43831">
        <ele>192.2998</ele>
        <time>2026-05-15T12:00:00+02:00</time>
      </trkpt>
      <trkpt lat="47.23238" lon="5.43838">
        <ele>192.2998</ele>
        <time>2026-05-15T12:00:01+02:00</time>
      </trkpt>
      <trkpt lat="47.23235" lon="5.43845">
        <ele>192.2998</ele>
        <time>2026-05-15T12:00:02+02:00</time>
      </trkpt>
      <trkpt lat="47.23232" lon="5.43853">
        <ele>192.40039</ele>
        <time>2026-05-15T12:00:03+02:00</time>
      </trkpt>
      <trkpt lat="47.2323" lon="5.4386">
        <ele>192.5</ele>
        <time>2026-05-15T12:00:04+02:00</time>
      </trkpt>
      <trkpt lat="47.23227" lon="5.43867">
        <ele>192.60059</ele>
        <time>2026-05-15T12:00:05+02:00</time>
      </trkpt>
      <trkpt lat="47.23224" lon="5.43874">
        <ele>192.60059</ele>
        <time>2026-05-15T12:00:06+02:00</time>
      </trkpt>
      <trkpt lat="47.23221" lon="5.4388">
        <ele>192.7998</ele>
        <time>2026-05-15T12:00:07+02:00</time>
      </trkpt>
      <trkpt lat="47.23219" lon="5.43887">
        <ele>192.7998</ele>
        <time>2026-05-15T12:00:08+02:00</time>
      </trkpt>
      <trkpt lat="47.23216" lon="5.43894">
        <ele>192.90039</ele>
        <time>2026-05-15T12:00:09+02:00</time>
      </trkpt>
      <trkpt lat="47.23213" lon="5.43901">
        <ele>193.10059</ele>
        <time>2026-05-15T12:00:10+02:00</time>
      </trkpt>
      <trkpt lat="47.2321" lon="5.43908">
        <ele>193.10059</ele>
        <time>2026-05-15T12:00:11+02:00</time>
      </trkpt>
      <trkpt lat="47.23208" lon="5.43915">
        <ele>193.2002</ele>
        <time>2026-05-15T12:00:12+02:00</time>
      </trkpt>
      <trkpt lat="47.23205" lon="5.43923">
        <ele>193.2002</ele>
        <time>2026-05-15T12:00:13+02:00</time>
      </trkpt>
      <trkpt lat="47.23203" lon="5.4393">
        <ele>193.40039</ele>
        <time>2026-05-15T12:00:14+02:00</time>
      </trkpt>
      <trkpt lat="47.232" lon="5.43937">
        <ele>193.40039</ele>
        <time>2026-05-15T12:00:15+02:00</time>
      </trkpt>
      <trkpt lat="47.23197" lon="5.43944">
        <ele>193.5</ele>
        <time>2026-05-15T12:00:16+02:00</time>
      </trkpt>
      <trkpt lat="47.23195" lon="5.43951">
        <ele>193.5</ele>
        <time>2026-05-15T12:00:17+02:00</time>
      </trkpt>
      <trkpt lat="47.23192" lon="5.43958">
        <ele>193.7998</ele>
        <time>2026-05-15T12:00:18+02:00</time>
      </trkpt>
      <trkpt lat="47.2319" lon="5.43965">
        <ele>193.7998</ele>
        <time>2026-05-15T12:00:19+02:00</time>
      </trkpt>
      <trkpt lat="47.23187" lon="5.43972">
        <ele>193.7998</ele>
        <time>2026-05-15T12:00:20+02:00</time>
      </trkpt>
      <trkpt lat="47.23185" lon="5.43979">
        <ele>194</ele>
        <time>2026-05-15T12:00:21+02:00</time>
      </trkpt>
      <trkpt lat="47.23182" lon="5.43986">
        <ele>194</ele>
        <time>2026-05-15T12:00:22+02:00</time>
      </trkpt>
      <trkpt lat="47.2318" lon="5.43993">
        <ele>194.2998</ele>
        <time>2026-05-15T12:00:23+02:00</time>
      </trkpt>
      <trkpt lat="47.23177" lon="5.43999">
        <ele>194.40039</ele>
        <time>2026-05-15T12:00:24+02:00</time>
      </trkpt>
      <trkpt lat="47.23175" lon="5.44006">
        <ele>194.60059</ele>
        <time>2026-05-15T12:00:25+02:00</time>
      </trkpt>
      <trkpt lat="47.23173" lon="5.44012">
        <ele>194.7998</ele>
        <time>2026-05-15T12:00:26+02:00</time>
      </trkpt>
      <trkpt lat="47.2317" lon="5.44019">
        <ele>195</ele>
        <time>2026-05-15T12:00:27+02:00</time>
      </trkpt>
      <trkpt lat="47.23168" lon="5.44025">
        <ele>195.40039</ele>
        <time>2026-05-15T12:00:28+02:00</time>
      </trkpt>
      <trkpt lat="47.23165" lon="5.44031">
        <ele>195.60059</ele>
        <time>2026-05-15T12:00:29+02:00</time>
      </trkpt>
      <trkpt lat="47.23163" lon="5.44037">
        <ele>195.7998</ele>
        <time>2026-05-15T12:00:30+02:00</time>
      </trkpt>
      <trkpt lat="47.23161" lon="5.44042">
        <ele>196</ele>
        <time>2026-05-15T12:00:31+02:00</time>
      </trkpt>
      <trkpt lat="47.23158" lon="5.44047">
        <ele>196.10059</ele>
        <time>2026-05-15T12:00:32+02:00</time>
      </trkpt>
      <trkpt lat="47.23156" lon="5.44052">
        <ele>196.2998</ele>
        <time>2026-05-15T12:00:33+02:00</time>
      </trkpt>
      <trkpt lat="47.23155" lon="5.44057">
        <ele>196.5</ele>
        <time>2026-05-15T12:00:34+02:00</time>
      </trkpt>
      <trkpt lat="47.23152" lon="5.44061">
        <ele>196.5</ele>
        <time>2026-05-15T12:00:35+02:00</time>
      </trkpt>
      <trkpt lat="47.2315" lon="5.44066">
        <ele>196.7998</ele>
        <time>2026-05-15T12:00:36+02:00</time>
      </trkpt>
      <trkpt lat="47.23148" lon="5.4407">
        <ele>196.7998</ele>
        <time>2026-05-15T12:00:37+02:00</time>
      </trkpt>
      <trkpt lat="47.23147" lon="5.44074">
        <ele>197</ele>
        <time>2026-05-15T12:00:38+02:00</time>
      </trkpt>
      <trkpt lat="47.23145" lon="5.44079">
        <ele>197.10059</ele>
        <time>2026-05-15T12:00:39+02:00</time>
      </trkpt>
      <trkpt lat="47.23143" lon="5.44082">
        <ele>197.2998</ele>
        <time>2026-05-15T12:00:40+02:00</time>
      </trkpt>
      <trkpt lat="47.23142" lon="5.44086">
        <ele>197.2998</ele>
        <time>2026-05-15T12:00:41+02:00</time>
      </trkpt>
      <trkpt lat="47.2314" lon="5.4409">
        <ele>197.5</ele>
        <time>2026-05-15T12:00:42+02:00</time>
      </trkpt>
      <trkpt lat="47.23139" lon="5.44094">
        <ele>197.5</ele>
        <time>2026-05-15T12:00:43+02:00</time>
      </trkpt>
      <trkpt lat="47.23137" lon="5.44097">
        <ele>197.5</ele>
        <time>2026-05-15T12:00:44+02:00</time>
      </trkpt>
      <trkpt lat="47.23136" lon="5.441">
        <ele>197.7002</ele>
        <time>2026-05-15T12:00:45+02:00</time>
      </trkpt>
      <trkpt lat="47.23135" lon="5.44104">
        <ele>197.7002</ele>
        <time>2026-05-15T12:00:46+02:00</time>
      </trkpt>
      <trkpt lat="47.23134" lon="5.44107">
        <ele>197.90039</ele>
        <time>2026-05-15T12:00:47+02:00</time>
      </trkpt>
      <trkpt lat="47.23132" lon="5.44111">
        <ele>197.90039</ele>
        <time>2026-05-15T12:00:48+02:00</time>
      </trkpt>
      <trkpt lat="47.23131" lon="5.44114">
        <ele>197.90039</ele>
        <time>2026-05-15T12:00:49+02:00</time>
      </trkpt>
      <trkpt lat="47.2313" lon="5.44118">
        <ele>198</ele>
        <time>2026-05-15T12:00:50+02:00</time>
      </trkpt>
      <trkpt lat="47.23129" lon="5.44121">
        <ele>198</ele>
        <time>2026-05-15T12:00:51+02:00</time>
      </trkpt>
      <trkpt lat="47.23128" lon="5.44125">
        <ele>198.2002</ele>
        <time>2026-05-15T12:00:52+02:00</time>
      </trkpt>
      <trkpt lat="47.23127" lon="5.44128">
        <ele>198.2002</ele>
        <time>2026-05-15T12:00:53+02:00</time>
      </trkpt>
      <trkpt lat="47.23126" lon="5.44132">
        <ele>198.2002</ele>
        <time>2026-05-15T12:00:54+02:00</time>
      </trkpt>
      <trkpt lat="47.23125" lon="5.44135">
        <ele>198.2998</ele>
        <time>2026-05-15T12:00:55+02:00</time>
      </trkpt>
      <trkpt lat="47.23124" lon="5.44138">
        <ele>198.2998</ele>
        <time>2026-05-15T12:00:56+02:00</time>
      </trkpt>
      <trkpt lat="47.23124" lon="5.44142">
        <ele>198.40039</ele>
        <time>2026-05-15T12:00:57+02:00</time>
      </trkpt>
      <trkpt lat="47.23124" lon="5.44145">
        <ele>198.40039</ele>
        <time>2026-05-15T12:00:58+02:00</time>
      </trkpt>
      <trkpt lat="47.23123" lon="5.44148">
        <ele>198.40039</ele>
        <time>2026-05-15T12:00:59+02:00</time>
      </trkpt>
      <trkpt lat="47.23123" lon="5.44151">
        <ele>198.5</ele>
        <time>2026-05-15T12:01:00+02:00</time>
      </trkpt>
      <trkpt lat="47.23122" lon="5.44154">
        <ele>198.5</ele>
        <time>2026-05-15T12:01:01+02:00</time>
      </trkpt>
      <trkpt lat="47.23122" lon="5.44158">
        <ele>198.60059</ele>
        <time>2026-05-15T12:01:02+02:00</time>
      </trkpt>
      <trkpt lat="47.23122" lon="5.44161">
        <ele>198.60059</ele>
        <time>2026-05-15T12:01:03+02:00</time>
      </trkpt>
      <trkpt lat="47.23122" lon="5.44164">
        <ele>198.60059</ele>
        <time>2026-05-15T12:01:04+02:00</time>
      </trkpt>
      <trkpt lat="47.23121" lon="5.44167">
        <ele>198.7002</ele>
        <time>2026-05-15T12:01:05+02:00</time>
      </trkpt>
      <trkpt lat="47.23121" lon="5.4417">
        <ele>198.7002</ele>
        <time>2026-05-15T12:01:06+02:00</time>
      </trkpt>
      <trkpt lat="47.23121" lon="5.44174">
        <ele>198.7002</ele>
        <time>2026-05-15T12:01:07+02:00</time>
      </trkpt>
      <trkpt lat="47.23122" lon="5.44177">
        <ele>198.7998</ele>
        <time>2026-05-15T12:01:08+02:00</time>
      </trkpt>
      <trkpt lat="47.23122" lon="5.4418">
        <ele>198.7998</ele>
        <time>2026-05-15T12:01:09+02:00</time>
      </trkpt>
      <trkpt lat="47.23122" lon="5.44183">
        <ele>198.7998</ele>
        <time>2026-05-15T12:01:10+02:00</time>
      </trkpt>
      <trkpt lat="47.23122" lon="5.44187">
        <ele>198.90039</ele>
        <time>2026-05-15T12:01:11+02:00</time>
      </trkpt>
      <trkpt lat="47.23122" lon="5.4419">
        <ele>198.90039</ele>
        <time>2026-05-15T12:01:12+02:00</time>
      </trkpt>
      <trkpt lat="47.23122" lon="5.44194">
        <ele>199.10059</ele>
        <time>2026-05-15T12:01:13+02:00</time>
      </trkpt>
      <trkpt lat="47.23122" lon="5.44197">
        <ele>199.10059</ele>
        <time>2026-05-15T12:01:14+02:00</time>
      </trkpt>
      <trkpt lat="47.23122" lon="5.442">
        <ele>199.10059</ele>
        <time>2026-05-15T12:01:15+02:00</time>
      </trkpt>
      <trkpt lat="47.23123" lon="5.44204">
        <ele>199.10059</ele>
        <time>2026-05-15T12:01:16+02:00</time>
      </trkpt>
      <trkpt lat="47.23123" lon="5.44208">
        <ele>199.10059</ele>
        <time>2026-05-15T12:01:17+02:00</time>
      </trkpt>
      <trkpt lat="47.23123" lon="5.44212">
        <ele>199.2002</ele>
        <time>2026-05-15T12:01:18+02:00</time>
      </trkpt>
      <trkpt lat="47.23123" lon="5.44215">
        <ele>199.2002</ele>
        <time>2026-05-15T12:01:19+02:00</time>
      </trkpt>
      <trkpt lat="47.23123" lon="5.44219">
        <ele>199.2998</ele>
        <time>2026-05-15T12:01:20+02:00</time>
      </trkpt>
      <trkpt lat="47.23123" lon="5.44223">
        <ele>199.2998</ele>
        <time>2026-05-15T12:01:21+02:00</time>
      </trkpt>
      <trkpt lat="47.23123" lon="5.44227">
        <ele>199.40039</ele>
        <time>2026-05-15T12:01:22+02:00</time>
      </trkpt>
      <trkpt lat="47.23123" lon="5.44232">
        <ele>199.40039</ele>
        <time>2026-05-15T12:01:23+02:00</time>
      </trkpt>
      <trkpt lat="47.23122" lon="5.44236">
        <ele>199.5</ele>
        <time>2026-05-15T12:01:24+02:00</time>
      </trkpt>
      <trkpt lat="47.23122" lon="5.44241">
        <ele>199.5</ele>
        <time>2026-05-15T12:01:25+02:00</time>
      </trkpt>
      <trkpt lat="47.23122" lon="5.44246">
        <ele>199.5</ele>
        <time>2026-05-15T12:01:26+02:00</time>
      </trkpt>
      <trkpt lat="47.23121" lon="5.44251">
        <ele>199.5</ele>
        <time>2026-05-15T12:01:27+02:00</time>
      </trkpt>
      <trkpt lat="47.2312" lon="5.44256">
        <ele>199.5</ele>
        <time>2026-05-15T12:01:28+02:00</time>
      </trkpt>
      <trkpt lat="47.23119" lon="5.44262">
        <ele>199.5</ele>
        <time>2026-05-15T12:01:29+02:00</time>
      </trkpt>
      <trkpt lat="47.23119" lon="5.44267">
        <ele>199.5</ele>
        <time>2026-05-15T12:01:30+02:00</time>
      </trkpt>
      <trkpt lat="47.23118" lon="5.44272">
        <ele>199.5</ele>
        <time>2026-05-15T12:01:31+02:00</time>
      </trkpt>
      <trkpt lat="47.23116" lon="5.44277">
        <ele>199.5</ele>
        <time>2026-05-15T12:01:32+02:00</time>
      </trkpt>
      <trkpt lat="47.23115" lon="5.44282">
        <ele>199.5</ele>
        <time>2026-05-15T12:01:33+02:00</time>
      </trkpt>
      <trkpt lat="47.23114" lon="5.44287">
        <ele>199.40039</ele>
        <time>2026-05-15T12:01:34+02:00</time>
      </trkpt>
      <trkpt lat="47.23113" lon="5.44292">
        <ele>199.40039</ele>
        <time>2026-05-15T12:01:35+02:00</time>
      </trkpt>
      <trkpt lat="47.23112" lon="5.44297">
        <ele>199.40039</ele>
        <time>2026-05-15T12:01:36+02:00</time>
      </trkpt>
      <trkpt lat="47.23111" lon="5.44302">
        <ele>199.40039</ele>
        <time>2026-05-15T12:01:37+02:00</time>
      </trkpt>
      <trkpt lat="47.23109" lon="5.44306">
        <ele>199.2998</ele>
        <time>2026-05-15T12:01:38+02:00</time>
      </trkpt>
      <trkpt lat="47.23107" lon="5.44311">
        <ele>199.2998</ele>
        <time>2026-05-15T12:01:39+02:00</time>
      </trkpt>
      <trkpt lat="47.23106" lon="5.44316">
        <ele>199.2002</ele>
        <time>2026-05-15T12:01:40+02:00</time>
      </trkpt>
      <trkpt lat="47.23104" lon="5.44321">
        <ele>199.2002</ele>
        <time>2026-05-15T12:01:41+02:00</time>
      </trkpt>
      <trkpt lat="47.23103" lon="5.44327">
        <ele>199.2002</ele>
        <time>2026-05-15T12:01:42+02:00</time>
      </trkpt>
      <trkpt lat="47.23102" lon="5.44332">
        <ele>199.10059</ele>
        <time>2026-05-15T12:01:43+02:00</time>
      </trkpt>
      <trkpt lat="47.231" lon="5.44337">
        <ele>199.10059</ele>
        <time>2026-05-15T12:01:44+02:00</time>
      </trkpt>
      <trkpt lat="47.23098" lon="5.44342">
        <ele>199.10059</ele>
        <time>2026-05-15T12:01:45+02:00</time>
      </trkpt>
      <trkpt lat="47.23096" lon="5.44348">
        <ele>199</ele>
        <time>2026-05-15T12:01:46+02:00</time>
      </trkpt>
      <trkpt lat="47.23095" lon="5.44353">
        <ele>199</ele>
        <time>2026-05-15T12:01:47+02:00</time>
      </trkpt>
      <trkpt lat="47.23093" lon="5.44358">
        <ele>199</ele>
        <time>2026-05-15T12:01:48+02:00</time>
      </trkpt>
      <trkpt lat="47.23091" lon="5.44364">
        <ele>199</ele>
        <time>2026-05-15T12:01:49+02:00</time>
      </trkpt>
      <trkpt lat="47.2309" lon="5.44369">
        <ele>199</ele>
        <time>2026-05-15T12:01:50+02:00</time>
      </trkpt>
      <trkpt lat="47.23088" lon="5.44375">
        <ele>199</ele>
        <time>2026-05-15T12:01:51+02:00</time>
      </trkpt>
      <trkpt lat="47.23086" lon="5.44381">
        <ele>199</ele>
        <time>2026-05-15T12:01:52+02:00</time>
      </trkpt>
      <trkpt lat="47.23084" lon="5.44386">
        <ele>199</ele>
        <time>2026-05-15T12:01:53+02:00</time>
      </trkpt>
      <trkpt lat="47.23082" lon="5.44392">
        <ele>198.90039</ele>
        <time>2026-05-15T12:01:54+02:00</time>
      </trkpt>
      <trkpt lat="47.23081" lon="5.44398">
        <ele>198.90039</ele>
        <time>2026-05-15T12:01:55+02:00</time>
      </trkpt>
      <trkpt lat="47.23078" lon="5.44404">
        <ele>198.90039</ele>
        <time>2026-05-15T12:01:56+02:00</time>
      </trkpt>
      <trkpt lat="47.23076" lon="5.4441">
        <ele>198.90039</ele>
        <time>2026-05-15T12:01:57+02:00</time>
      </trkpt>
      <trkpt lat="47.23074" lon="5.44416">
        <ele>198.7998</ele>
        <time>2026-05-15T12:01:58+02:00</time>
      </trkpt>
      <trkpt lat="47.23072" lon="5.44421">
        <ele>198.7998</ele>
        <time>2026-05-15T12:01:59+02:00</time>
      </trkpt>
      <trkpt lat="47.2307" lon="5.44427">
        <ele>198.7998</ele>
        <time>2026-05-15T12:02:00+02:00</time>
      </trkpt>
      <trkpt lat="47.23067" lon="5.44433">
        <ele>198.7002</ele>
        <time>2026-05-15T12:02:01+02:00</time>
      </trkpt>
      <trkpt lat="47.23065" lon="5.44439">
        <ele>198.7002</ele>
        <time>2026-05-15T12:02:02+02:00</time>
      </trkpt>
      <trkpt lat="47.23063" lon="5.44445">
        <ele>198.7002</ele>
        <time>2026-05-15T12:02:03+02:00</time>
      </trkpt>
      <trkpt lat="47.2306" lon="5.44451">
        <ele>198.60059</ele>
        <time>2026-05-15T12:02:04+02:00</time>
      </trkpt>
      <trkpt lat="47.23058" lon="5.44457">
        <ele>198.60059</ele>
        <time>2026-05-15T12:02:05+02:00</time>
      </trkpt>
      <trkpt lat="47.23055" lon="5.44464">
        <ele>198.60059</ele>
        <time>2026-05-15T12:02:06+02:00</time>
      </trkpt>
      <trkpt lat="47.23053" lon="5.4447">
        <ele>198.5</ele>
        <time>2026-05-15T12:02:07+02:00</time>
      </trkpt>
      <trkpt lat="47.2305" lon="5.44476">
        <ele>198.5</ele>
        <time>2026-05-15T12:02:08+02:00</time>
      </trkpt>
      <trkpt lat="47.23048" lon="5.44482">
        <ele>198.5</ele>
        <time>2026-05-15T12:02:09+02:00</time>
      </trkpt>
      <trkpt lat="47.23045" lon="5.44489">
        <ele>198.5</ele>
        <time>2026-05-15T12:02:10+02:00</time>
      </trkpt>
      <trkpt lat="47.23042" lon="5.44496">
        <ele>198.5</ele>
        <time>2026-05-15T12:02:11+02:00</time>
      </trkpt>
      <trkpt lat="47.2304" lon="5.44503">
        <ele>198.5</ele>
        <time>2026-05-15T12:02:12+02:00</time>
      </trkpt>
      <trkpt lat="47.23037" lon="5.4451">
        <ele>198.5</ele>
        <time>2026-05-15T12:02:13+02:00</time>
      </trkpt>
      <trkpt lat="47.23034" lon="5.44517">
        <ele>198.60059</ele>
        <time>2026-05-15T12:02:14+02:00</time>
      </trkpt>
      <trkpt lat="47.23031" lon="5.44525">
        <ele>198.5</ele>
        <time>2026-05-15T12:02:15+02:00</time>
      </trkpt>
      <trkpt lat="47.23029" lon="5.44532">
        <ele>198.60059</ele>
        <time>2026-05-15T12:02:16+02:00</time>
      </trkpt>
      <trkpt lat="47.23027" lon="5.44539">
        <ele>198.60059</ele>
        <time>2026-05-15T12:02:17+02:00</time>
      </trkpt>
      <trkpt lat="47.23024" lon="5.44546">
        <ele>198.5</ele>
        <time>2026-05-15T12:02:18+02:00</time>
      </trkpt>
      <trkpt lat="47.23022" lon="5.44552">
        <ele>198.60059</ele>
        <time>2026-05-15T12:02:19+02:00</time>
      </trkpt>
      <trkpt lat="47.2302" lon="5.44559">
        <ele>198.60059</ele>
        <time>2026-05-15T12:02:20+02:00</time>
      </trkpt>
      <trkpt lat="47.23018" lon="5.44565">
        <ele>198.60059</ele>
        <time>2026-05-15T12:02:21+02:00</time>
      </trkpt>
      <trkpt lat="47.23016" lon="5.4457">
        <ele>198.7002</ele>
        <time>2026-05-15T12:02:22+02:00</time>
      </trkpt>
      <trkpt lat="47.23015" lon="5.44576">
        <ele>198.7002</ele>
        <time>2026-05-15T12:02:23+02:00</time>
      </trkpt>
      <trkpt lat="47.23015" lon="5.44581">
        <ele>198.7002</ele>
        <time>2026-05-15T12:02:24+02:00</time>
      </trkpt>
      <trkpt lat="47.23016" lon="5.44587">
        <ele>198.7002</ele>
        <time>2026-05-15T12:02:25+02:00</time>
      </trkpt>
      <trkpt lat="47.23018" lon="5.44593">
        <ele>198.5</ele>
        <time>2026-05-15T12:02:26+02:00</time>
      </trkpt>
      <trkpt lat="47.2302" lon="5.44598">
        <ele>198.5</ele>
        <time>2026-05-15T12:02:27+02:00</time>
      </trkpt>
      <trkpt lat="47.23024" lon="5.44603">
        <ele>198.40039</ele>
        <time>2026-05-15T12:02:28+02:00</time>
      </trkpt>
      <trkpt lat="47.23027" lon="5.44608">
        <ele>198.40039</ele>
        <time>2026-05-15T12:02:29+02:00</time>
      </trkpt>
      <trkpt lat="47.23031" lon="5.44613">
        <ele>198.2002</ele>
        <time>2026-05-15T12:02:30+02:00</time>
      </trkpt>
      <trkpt lat="47.23034" lon="5.44619">
        <ele>198.2002</ele>
        <time>2026-05-15T12:02:31+02:00</time>
      </trkpt>
      <trkpt lat="47.23037" lon="5.44625">
        <ele>198.10059</ele>
        <time>2026-05-15T12:02:32+02:00</time>
      </trkpt>
      <trkpt lat="47.2304" lon="5.44631">
        <ele>198</ele>
        <time>2026-05-15T12:02:33+02:00</time>
      </trkpt>
      <trkpt lat="47.23044" lon="5.44637">
        <ele>197.90039</ele>
        <time>2026-05-15T12:02:34+02:00</time>
      </trkpt>
      <trkpt lat="47.23047" lon="5.44643">
        <ele>197.7002</ele>
        <time>2026-05-15T12:02:35+02:00</time>
      </trkpt>
      <trkpt lat="47.2305" lon="5.4465">
        <ele>197.7002</ele>
        <time>2026-05-15T12:02:36+02:00</time>
      </trkpt>
      <trkpt lat="47.23054" lon="5.44657">
        <ele>197.5</ele>
        <time>2026-05-15T12:02:37+02:00</time>
      </trkpt>
      <trkpt lat="47.23057" lon="5.44663">
        <ele>197.5</ele>
        <time>2026-05-15T12:02:38+02:00</time>
      </trkpt>
      <trkpt lat="47.23061" lon="5.4467">
        <ele>197.2998</ele>
        <time>2026-05-15T12:02:39+02:00</time>
      </trkpt>
      <trkpt lat="47.23064" lon="5.44677">
        <ele>197.2998</ele>
        <time>2026-05-15T12:02:40+02:00</time>
      </trkpt>
      <trkpt lat="47.23067" lon="5.44683">
        <ele>197</ele>
        <time>2026-05-15T12:02:41+02:00</time>
      </trkpt>
      <trkpt lat="47.2307" lon="5.4469">
        <ele>196.7998</ele>
        <time>2026-05-15T12:02:42+02:00</time>
      </trkpt>
      <trkpt lat="47.23073" lon="5.44697">
        <ele>196.7998</ele>
        <time>2026-05-15T12:02:43+02:00</time>
      </trkpt>
      <trkpt lat="47.23076" lon="5.44704">
        <ele>196.7002</ele>
        <time>2026-05-15T12:02:44+02:00</time>
      </trkpt>
      <trkpt lat="47.2308" lon="5.44711">
        <ele>196.5</ele>
        <time>2026-05-15T12:02:45+02:00</time>
      </trkpt>
      <trkpt lat="47.23083" lon="5.44718">
        <ele>196.2002</ele>
        <time>2026-05-15T12:02:46+02:00</time>
      </trkpt>
      <trkpt lat="47.23086" lon="5.44724">
        <ele>196.2002</ele>
        <time>2026-05-15T12:02:47+02:00</time>
      </trkpt>
      <trkpt lat="47.23089" lon="5.4473">
        <ele>195.7998</ele>
        <time>2026-05-15T12:02:48+02:00</time>
      </trkpt>
      <trkpt lat="47.23092" lon="5.44736">
        <ele>195.7998</ele>
        <time>2026-05-15T12:02:49+02:00</time>
      </trkpt>
      <trkpt lat="47.23095" lon="5.44741">
        <ele>195.5</ele>
        <time>2026-05-15T12:02:50+02:00</time>
      </trkpt>
      <trkpt lat="47.231" lon="5.44745">
        <ele>195.2002</ele>
        <time>2026-05-15T12:02:51+02:00</time>
      </trkpt>
      <trkpt lat="47.23104" lon="5.44749">
        <ele>195.2002</ele>
        <time>2026-05-15T12:02:52+02:00</time>
      </trkpt>
      <trkpt lat="47.23109" lon="5.44753">
        <ele>194.7998</ele>
        <time>2026-05-15T12:02:53+02:00</time>
      </trkpt>
      <trkpt lat="47.23113" lon="5.44758">
        <ele>194.5</ele>
        <time>2026-05-15T12:02:54+02:00</time>
      </trkpt>
      <trkpt lat="47.23118" lon="5.44763">
        <ele>194.2002</ele>
        <time>2026-05-15T12:02:55+02:00</time>
      </trkpt>
      <trkpt lat="47.23123" lon="5.44768">
        <ele>193.90039</ele>
        <time>2026-05-15T12:02:56+02:00</time>
      </trkpt>
      <trkpt lat="47.23127" lon="5.44773">
        <ele>193.90039</ele>
        <time>2026-05-15T12:02:57+02:00</time>
      </trkpt>
      <trkpt lat="47.23132" lon="5.44779">
        <ele>193.60059</ele>
        <time>2026-05-15T12:02:58+02:00</time>
      </trkpt>
      <trkpt lat="47.23136" lon="5.44785">
        <ele>193.2998</ele>
        <time>2026-05-15T12:02:59+02:00</time>
      </trkpt>
      <trkpt lat="47.23141" lon="5.44791">
        <ele>193</ele>
        <time>2026-05-15T12:03:00+02:00</time>
      </trkpt>
      <trkpt lat="47.23146" lon="5.44798">
        <ele>192.7002</ele>
        <time>2026-05-15T12:03:01+02:00</time>
      </trkpt>
      <trkpt lat="47.23151" lon="5.44805">
        <ele>192.7002</ele>
        <time>2026-05-15T12:03:02+02:00</time>
      </trkpt>
      <trkpt lat="47.23156" lon="5.44812">
        <ele>192.2998</ele>
        <time>2026-05-15T12:03:03+02:00</time>
      </trkpt>
      <trkpt lat="47.23161" lon="5.44819">
        <ele>192.10059</ele>
        <time>2026-05-15T12:03:04+02:00</time>
      </trkpt>
      <trkpt lat="47.23166" lon="5.44827">
        <ele>191.7998</ele>
        <time>2026-05-15T12:03:05+02:00</time>
      </trkpt>
      <trkpt lat="47.23172" lon="5.44835">
        <ele>191.60059</ele>
        <time>2026-05-15T12:03:06+02:00</time>
      </trkpt>
      <trkpt lat="47.23177" lon="5.44842">
        <ele>191.5</ele>
        <time>2026-05-15T12:03:07+02:00</time>
      </trkpt>
      <trkpt lat="47.23183" lon="5.44849">
        <ele>191.2998</ele>
        <time>2026-05-15T12:03:08+02:00</time>
      </trkpt>
      <trkpt lat="47.23189" lon="5.44856">
        <ele>191.2002</ele>
        <time>2026-05-15T12:03:09+02:00</time>
      </trkpt>
      <trkpt lat="47.23195" lon="5.44863">
        <ele>191</ele>
        <time>2026-05-15T12:03:10+02:00</time>
      </trkpt>
      <trkpt lat="47.232" lon="5.4487">
        <ele>190.7998</ele>
        <time>2026-05-15T12:03:11+02:00</time>
      </trkpt>
      <trkpt lat="47.23206" lon="5.44876">
        <ele>190.7002</ele>
        <time>2026-05-15T12:03:12+02:00</time>
      </trkpt>
      <trkpt lat="47.23211" lon="5.44883">
        <ele>190.60059</ele>
        <time>2026-05-15T12:03:13+02:00</time>
      </trkpt>
      <trkpt lat="47.23216" lon="5.44889">
        <ele>190.5</ele>
        <time>2026-05-15T12:03:14+02:00</time>
      </trkpt>
      <trkpt lat="47.23222" lon="5.44895">
        <ele>190.40039</ele>
        <time>2026-05-15T12:03:15+02:00</time>
      </trkpt>
      <trkpt lat="47.23227" lon="5.44899">
        <ele>190.5</ele>
        <time>2026-05-15T12:03:16+02:00</time>
      </trkpt>
      <trkpt lat="47.23234" lon="5.44901">
        <ele>190.2998</ele>
        <time>2026-05-15T12:03:17+02:00</time>
      </trkpt>
      <trkpt lat="47.23239" lon="5.44901">
        <ele>190.2998</ele>
        <time>2026-05-15T12:03:18+02:00</time>
      </trkpt>
      <trkpt lat="47.23245" lon="5.44898">
        <ele>190.2002</ele>
        <time>2026-05-15T12:03:19+02:00</time>
      </trkpt>
      <trkpt lat="47.23249" lon="5.44894">
        <ele>190.10059</ele>
        <time>2026-05-15T12:03:20+02:00</time>
      </trkpt>
      <trkpt lat="47.23253" lon="5.44888">
        <ele>190</ele>
        <time>2026-05-15T12:03:21+02:00</time>
      </trkpt>
      <trkpt lat="47.23257" lon="5.44882">
        <ele>189.90039</ele>
        <time>2026-05-15T12:03:22+02:00</time>
      </trkpt>
      <trkpt lat="47.2326" lon="5.44875">
        <ele>189.7002</ele>
        <time>2026-05-15T12:03:23+02:00</time>
      </trkpt>
      <trkpt lat="47.23263" lon="5.44868">
        <ele>189.5</ele>
        <time>2026-05-15T12:03:24+02:00</time>
      </trkpt>
      <trkpt lat="47.23266" lon="5.44861">
        <ele>189.40039</ele>
        <time>2026-05-15T12:03:25+02:00</time>
      </trkpt>
      <trkpt lat="47.23268" lon="5.44853">
        <ele>189.2002</ele>
        <time>2026-05-15T12:03:26+02:00</time>
      </trkpt>
      <trkpt lat="47.2327" lon="5.44845">
        <ele>189.2002</ele>
        <time>2026-05-15T12:03:27+02:00</time>
      </trkpt>
      <trkpt lat="47.23272" lon="5.44837">
        <ele>189</ele>
        <time>2026-05-15T12:03:28+02:00</time>
      </trkpt>
      <trkpt lat="47.23274" lon="5.44829">
        <ele>188.90039</ele>
        <time>2026-05-15T12:03:29+02:00</time>
      </trkpt>
      <trkpt lat="47.23275" lon="5.44821">
        <ele>188.60059</ele>
        <time>2026-05-15T12:03:30+02:00</time>
      </trkpt>
      <trkpt lat="47.23276" lon="5.44813">
        <ele>188.40039</ele>
        <time>2026-05-15T12:03:31+02:00</time>
      </trkpt>
      <trkpt lat="47.23277" lon="5.44804">
        <ele>188.2998</ele>
        <time>2026-05-15T12:03:32+02:00</time>
      </trkpt>
      <trkpt lat="47.23279" lon="5.44796">
        <ele>188.10059</ele>
        <time>2026-05-15T12:03:33+02:00</time>
      </trkpt>
      <trkpt lat="47.2328" lon="5.44788">
        <ele>187.90039</ele>
        <time>2026-05-15T12:03:34+02:00</time>
      </trkpt>
      <trkpt lat="47.23281" lon="5.4478">
        <ele>187.7002</ele>
        <time>2026-05-15T12:03:35+02:00</time>
      </trkpt>
      <trkpt lat="47.23283" lon="5.44771">
        <ele>187.60059</ele>
        <time>2026-05-15T12:03:36+02:00</time>
      </trkpt>
      <trkpt lat="47.23284" lon="5.44763">
        <ele>187.5</ele>
        <time>2026-05-15T12:03:37+02:00</time>
      </trkpt>
      <trkpt lat="47.23286" lon="5.44756">
        <ele>187.2998</ele>
        <time>2026-05-15T12:03:38+02:00</time>
      </trkpt>
      <trkpt lat="47.23288" lon="5.44748">
        <ele>187.2002</ele>
        <time>2026-05-15T12:03:39+02:00</time>
      </trkpt>
      <trkpt lat="47.23291" lon="5.44741">
        <ele>187.2002</ele>
        <time>2026-05-15T12:03:40+02:00</time>
      </trkpt>
      <trkpt lat="47.23293" lon="5.44734">
        <ele>187.10059</ele>
        <time>2026-05-15T12:03:41+02:00</time>
      </trkpt>
      <trkpt lat="47.23296" lon="5.44727">
        <ele>187.10059</ele>
        <time>2026-05-15T12:03:42+02:00</time>
      </trkpt>
      <trkpt lat="47.23299" lon="5.44721">
        <ele>186.90039</ele>
        <time>2026-05-15T12:03:43+02:00</time>
      </trkpt>
      <trkpt lat="47.23302" lon="5.44715">
        <ele>186.90039</ele>
        <time>2026-05-15T12:03:44+02:00</time>
      </trkpt>
      <trkpt lat="47.23305" lon="5.44709">
        <ele>186.7998</ele>
        <time>2026-05-15T12:03:45+02:00</time>
      </trkpt>
      <trkpt lat="47.23309" lon="5.44703">
        <ele>186.7998</ele>
        <time>2026-05-15T12:03:46+02:00</time>
      </trkpt>
      <trkpt lat="47.23312" lon="5.44697">
        <ele>186.7002</ele>
        <time>2026-05-15T12:03:47+02:00</time>
      </trkpt>
      <trkpt lat="47.23316" lon="5.44692">
        <ele>186.60059</ele>
        <time>2026-05-15T12:03:48+02:00</time>
      </trkpt>
      <trkpt lat="47.23319" lon="5.44686">
        <ele>186.60059</ele>
        <time>2026-05-15T12:03:49+02:00</time>
      </trkpt>
      <trkpt lat="47.23323" lon="5.44681">
        <ele>186.60059</ele>
        <time>2026-05-15T12:03:50+02:00</time>
      </trkpt>
      <trkpt lat="47.23327" lon="5.44675">
        <ele>186.5</ele>
        <time>2026-05-15T12:03:51+02:00</time>
      </trkpt>
      <trkpt lat="47.2333" lon="5.4467">
        <ele>186.60059</ele>
        <time>2026-05-15T12:03:52+02:00</time>
      </trkpt>
      <trkpt lat="47.23334" lon="5.44665">
        <ele>186.5</ele>
        <time>2026-05-15T12:03:53+02:00</time>
      </trkpt>
      <trkpt lat="47.23338" lon="5.44659">
        <ele>186.60059</ele>
        <time>2026-05-15T12:03:54+02:00</time>
      </trkpt>
      <trkpt lat="47.23342" lon="5.44654">
        <ele>186.60059</ele>
        <time>2026-05-15T12:03:55+02:00</time>
      </trkpt>
      <trkpt lat="47.23345" lon="5.44648">
        <ele>186.60059</ele>
        <time>2026-05-15T12:03:56+02:00</time>
      </trkpt>
      <trkpt lat="47.23349" lon="5.44643">
        <ele>186.7002</ele>
        <time>2026-05-15T12:03:57+02:00</time>
      </trkpt>
      <trkpt lat="47.23353" lon="5.44638">
        <ele>186.7998</ele>
        <time>2026-05-15T12:03:58+02:00</time>
      </trkpt>
      <trkpt lat="47.23356" lon="5.44633">
        <ele>186.7998</ele>
        <time>2026-05-15T12:03:59+02:00</time>
      </trkpt>
      <trkpt lat="47.2336" lon="5.44628">
        <ele>186.90039</ele>
        <time>2026-05-15T12:04:00+02:00</time>
      </trkpt>
      <trkpt lat="47.23364" lon="5.44622">
        <ele>186.90039</ele>
        <time>2026-05-15T12:04:01+02:00</time>
      </trkpt>
      <trkpt lat="47.23367" lon="5.44617">
        <ele>187</ele>
        <time>2026-05-15T12:04:02+02:00</time>
      </trkpt>
      <trkpt lat="47.23371" lon="5.44612">
        <ele>187.10059</ele>
        <time>2026-05-15T12:04:03+02:00</time>
      </trkpt>
      <trkpt lat="47.23375" lon="5.44606">
        <ele>186.90039</ele>
        <time>2026-05-15T12:04:04+02:00</time>
      </trkpt>
      <trkpt lat="47.23379" lon="5.44601">
        <ele>186.90039</ele>
        <time>2026-05-15T12:04:05+02:00</time>
      </trkpt>
      <trkpt lat="47.23383" lon="5.44596">
        <ele>186.90039</ele>
        <time>2026-05-15T12:04:06+02:00</time>
      </trkpt>
      <trkpt lat="47.23387" lon="5.4459">
        <ele>186.90039</ele>
        <time>2026-05-15T12:04:07+02:00</time>
      </trkpt>
      <trkpt lat="47.2339" lon="5.44585">
        <ele>187</ele>
        <time>2026-05-15T12:04:08+02:00</time>
      </trkpt>
      <trkpt lat="47.23394" lon="5.4458">
        <ele>186.7998</ele>
        <time>2026-05-15T12:04:09+02:00</time>
      </trkpt>
      <trkpt lat="47.23398" lon="5.44575">
        <ele>186.7998</ele>
        <time>2026-05-15T12:04:10+02:00</time>
      </trkpt>
      <trkpt lat="47.23402" lon="5.44569">
        <ele>187</ele>
        <time>2026-05-15T12:04:11+02:00</time>
      </trkpt>
      <trkpt lat="47.23406" lon="5.44564">
        <ele>186.7998</ele>
        <time>2026-05-15T12:04:12+02:00</time>
      </trkpt>
      <trkpt lat="47.23409" lon="5.44559">
        <ele>186.7998</ele>
        <time>2026-05-15T12:04:13+02:00</time>
      </trkpt>
      <trkpt lat="47.23413" lon="5.44554">
        <ele>186.7998</ele>
        <time>2026-05-15T12:04:14+02:00</time>
      </trkpt>
      <trkpt lat="47.23417" lon="5.44548">
        <ele>186.7998</ele>
        <time>2026-05-15T12:04:15+02:00</time>
      </trkpt>
      <trkpt lat="47.2342" lon="5.44543">
        <ele>186.7002</ele>
        <time>2026-05-15T12:04:16+02:00</time>
      </trkpt>
      <trkpt lat="47.23424" lon="5.44538">
        <ele>186.7002</ele>
        <time>2026-05-15T12:04:17+02:00</time>
      </trkpt>
      <trkpt lat="47.23428" lon="5.44533">
        <ele>186.7002</ele>
        <time>2026-05-15T12:04:18+02:00</time>
      </trkpt>
      <trkpt lat="47.23432" lon="5.44528">
        <ele>186.5</ele>
        <time>2026-05-15T12:04:19+02:00</time>
      </trkpt>
      <trkpt lat="47.23435" lon="5.44522">
        <ele>186.7002</ele>
        <time>2026-05-15T12:04:20+02:00</time>
      </trkpt>
      <trkpt lat="47.23439" lon="5.44517">
        <ele>186.60059</ele>
        <time>2026-05-15T12:04:21+02:00</time>
      </trkpt>
      <trkpt lat="47.23443" lon="5.44512">
        <ele>186.60059</ele>
        <time>2026-05-15T12:04:22+02:00</time>
      </trkpt>
      <trkpt lat="47.23447" lon="5.44506">
        <ele>186.5</ele>
        <time>2026-05-15T12:04:23+02:00</time>
      </trkpt>
      <trkpt lat="47.23451" lon="5.44501">
        <ele>186.5</ele>
        <time>2026-05-15T12:04:24+02:00</time>
      </trkpt>
      <trkpt lat="47.23455" lon="5.44496">
        <ele>186.2998</ele>
        <time>2026-05-15T12:04:25+02:00</time>
      </trkpt>
      <trkpt lat="47.23459" lon="5.44491">
        <ele>186.40039</ele>
        <time>2026-05-15T12:04:26+02:00</time>
      </trkpt>
      <trkpt lat="47.23462" lon="5.44486">
        <ele>186.2002</ele>
        <time>2026-05-15T12:04:27+02:00</time>
      </trkpt>
      <trkpt lat="47.23466" lon="5.4448">
        <ele>186.40039</ele>
        <time>2026-05-15T12:04:28+02:00</time>
      </trkpt>
      <trkpt lat="47.2347" lon="5.44475">
        <ele>186.40039</ele>
        <time>2026-05-15T12:04:29+02:00</time>
      </trkpt>
      <trkpt lat="47.23473" lon="5.4447">
        <ele>186.2002</ele>
        <time>2026-05-15T12:04:30+02:00</time>
      </trkpt>
      <trkpt lat="47.23477" lon="5.44466">
        <ele>186.2998</ele>
        <time>2026-05-15T12:04:31+02:00</time>
      </trkpt>
      <trkpt lat="47.23481" lon="5.44461">
        <ele>186.10059</ele>
        <time>2026-05-15T12:04:32+02:00</time>
      </trkpt>
      <trkpt lat="47.23485" lon="5.44456">
        <ele>186.10059</ele>
        <time>2026-05-15T12:04:33+02:00</time>
      </trkpt>
      <trkpt lat="47.23488" lon="5.4445">
        <ele>186.10059</ele>
        <time>2026-05-15T12:04:34+02:00</time>
      </trkpt>
      <trkpt lat="47.23492" lon="5.44445">
        <ele>186.10059</ele>
        <time>2026-05-15T12:04:35+02:00</time>
      </trkpt>
      <trkpt lat="47.23496" lon="5.4444">
        <ele>186.2002</ele>
        <time>2026-05-15T12:04:36+02:00</time>
      </trkpt>
      <trkpt lat="47.23499" lon="5.44435">
        <ele>186.2002</ele>
        <time>2026-05-15T12:04:37+02:00</time>
      </trkpt>
      <trkpt lat="47.23503" lon="5.4443">
        <ele>186.2998</ele>
        <time>2026-05-15T12:04:38+02:00</time>
      </trkpt>
      <trkpt lat="47.23507" lon="5.44425">
        <ele>186.2998</ele>
        <time>2026-05-15T12:04:39+02:00</time>
      </trkpt>
      <trkpt lat="47.23511" lon="5.44419">
        <ele>186.40039</ele>
        <time>2026-05-15T12:04:40+02:00</time>
      </trkpt>
      <trkpt lat="47.23515" lon="5.44414">
        <ele>186.5</ele>
        <time>2026-05-15T12:04:41+02:00</time>
      </trkpt>
      <trkpt lat="47.23519" lon="5.44409">
        <ele>186.5</ele>
        <time>2026-05-15T12:04:42+02:00</time>
      </trkpt>
      <trkpt lat="47.23522" lon="5.44404">
        <ele>186.60059</ele>
        <time>2026-05-15T12:04:43+02:00</time>
      </trkpt>
      <trkpt lat="47.23526" lon="5.44399">
        <ele>186.60059</ele>
        <time>2026-05-15T12:04:44+02:00</time>
      </trkpt>
      <trkpt lat="47.2353" lon="5.44394">
        <ele>186.7002</ele>
        <time>2026-05-15T12:04:45+02:00</time>
      </trkpt>
      <trkpt lat="47.23533" lon="5.4439">
        <ele>186.7002</ele>
        <time>2026-05-15T12:04:46+02:00</time>
      </trkpt>
      <trkpt lat="47.23536" lon="5.44386">
        <ele>186.7002</ele>
        <time>2026-05-15T12:04:47+02:00</time>
      </trkpt>
      <trkpt lat="47.23539" lon="5.44381">
        <ele>186.7998</ele>
        <time>2026-05-15T12:04:48+02:00</time>
      </trkpt>
      <trkpt lat="47.23542" lon="5.44376">
        <ele>186.7998</ele>
        <time>2026-05-15T12:04:49+02:00</time>
      </trkpt>
      <trkpt lat="47.23546" lon="5.44372">
        <ele>186.7998</ele>
        <time>2026-05-15T12:04:50+02:00</time>
      </trkpt>
      <trkpt lat="47.23549" lon="5.44367">
        <ele>186.7998</ele>
        <time>2026-05-15T12:04:51+02:00</time>
      </trkpt>
      <trkpt lat="47.23552" lon="5.44363">
        <ele>186.7998</ele>
        <time>2026-05-15T12:04:52+02:00</time>
      </trkpt>
      <trkpt lat="47.23556" lon="5.44358">
        <ele>186.7002</ele>
        <time>2026-05-15T12:04:53+02:00</time>
      </trkpt>
      <trkpt lat="47.23559" lon="5.44353">
        <ele>186.7002</ele>
        <time>2026-05-15T12:04:54+02:00</time>
      </trkpt>
      <trkpt lat="47.23563" lon="5.44349">
        <ele>186.60059</ele>
        <time>2026-05-15T12:04:55+02:00</time>
      </trkpt>
      <trkpt lat="47.23566" lon="5.44344">
        <ele>186.5</ele>
        <time>2026-05-15T12:04:56+02:00</time>
      </trkpt>
      <trkpt lat="47.2357" lon="5.44339">
        <ele>186.5</ele>
        <time>2026-05-15T12:04:57+02:00</time>
      </trkpt>
      <trkpt lat="47.23573" lon="5.44334">
        <ele>186.40039</ele>
        <time>2026-05-15T12:04:58+02:00</time>
      </trkpt>
      <trkpt lat="47.23577" lon="5.44329">
        <ele>186.2998</ele>
        <time>2026-05-15T12:04:59+02:00</time>
      </trkpt>
      <trkpt lat="47.2358" lon="5.44324">
        <ele>186.2998</ele>
        <time>2026-05-15T12:05:00+02:00</time>
      </trkpt>
      <trkpt lat="47.23584" lon="5.44319">
        <ele>186.10059</ele>
        <time>2026-05-15T12:05:01+02:00</time>
      </trkpt>
      <trkpt lat="47.23588" lon="5.44315">
        <ele>186.10059</ele>
        <time>2026-05-15T12:05:02+02:00</time>
      </trkpt>
      <trkpt lat="47.23591" lon="5.4431">
        <ele>186</ele>
        <time>2026-05-15T12:05:03+02:00</time>
      </trkpt>
      <trkpt lat="47.23594" lon="5.44305">
        <ele>186</ele>
        <time>2026-05-15T12:05:04+02:00</time>
      </trkpt>
      <trkpt lat="47.23598" lon="5.443">
        <ele>186</ele>
        <time>2026-05-15T12:05:05+02:00</time>
      </trkpt>
      <trkpt lat="47.23601" lon="5.44296">
        <ele>186</ele>
        <time>2026-05-15T12:05:06+02:00</time>
      </trkpt>
      <trkpt lat="47.23605" lon="5.44291">
        <ele>185.90039</ele>
        <time>2026-05-15T12:05:07+02:00</time>
      </trkpt>
      <trkpt lat="47.23609" lon="5.44286">
        <ele>185.90039</ele>
        <time>2026-05-15T12:05:08+02:00</time>
      </trkpt>
      <trkpt lat="47.23612" lon="5.44281">
        <ele>185.90039</ele>
        <time>2026-05-15T12:05:09+02:00</time>
      </trkpt>
      <trkpt lat="47.23615" lon="5.44276">
        <ele>186</ele>
        <time>2026-05-15T12:05:10+02:00</time>
      </trkpt>
      <trkpt lat="47.23619" lon="5.44271">
        <ele>186.10059</ele>
        <time>2026-05-15T12:05:11+02:00</time>
      </trkpt>
      <trkpt lat="47.23623" lon="5.44267">
        <ele>186.10059</ele>
        <time>2026-05-15T12:05:12+02:00</time>
      </trkpt>
      <trkpt lat="47.23626" lon="5.44262">
        <ele>186.2002</ele>
        <time>2026-05-15T12:05:13+02:00</time>
      </trkpt>
      <trkpt lat="47.2363" lon="5.44257">
        <ele>186.2998</ele>
        <time>2026-05-15T12:05:14+02:00</time>
      </trkpt>
      <trkpt lat="47.23633" lon="5.44253">
        <ele>186.2998</ele>
        <time>2026-05-15T12:05:15+02:00</time>
      </trkpt>
      <trkpt lat="47.23637" lon="5.44248">
        <ele>186.40039</ele>
        <time>2026-05-15T12:05:16+02:00</time>
      </trkpt>
      <trkpt lat="47.23641" lon="5.44244">
        <ele>186.40039</ele>
        <time>2026-05-15T12:05:17+02:00</time>
      </trkpt>
      <trkpt lat="47.23645" lon="5.44239">
        <ele>186.40039</ele>
        <time>2026-05-15T12:05:18+02:00</time>
      </trkpt>
      <trkpt lat="47.23648" lon="5.44235">
        <ele>186.2998</ele>
        <time>2026-05-15T12:05:19+02:00</time>
      </trkpt>
      <trkpt lat="47.23652" lon="5.44231">
        <ele>186.2998</ele>
        <time>2026-05-15T12:05:20+02:00</time>
      </trkpt>
      <trkpt lat="47.23656" lon="5.44228">
        <ele>186.2998</ele>
        <time>2026-05-15T12:05:21+02:00</time>
      </trkpt>
      <trkpt lat="47.2366" lon="5.44224">
        <ele>186.2002</ele>
        <time>2026-05-15T12:05:22+02:00</time>
      </trkpt>
      <trkpt lat="47.23664" lon="5.44221">
        <ele>186.2002</ele>
        <time>2026-05-15T12:05:23+02:00</time>
      </trkpt>
      <trkpt lat="47.23668" lon="5.44219">
        <ele>186.10059</ele>
        <time>2026-05-15T12:05:24+02:00</time>
      </trkpt>
      <trkpt lat="47.23673" lon="5.44216">
        <ele>185.90039</ele>
        <time>2026-05-15T12:05:25+02:00</time>
      </trkpt>
      <trkpt lat="47.23678" lon="5.44214">
        <ele>185.90039</ele>
        <time>2026-05-15T12:05:26+02:00</time>
      </trkpt>
      <trkpt lat="47.23683" lon="5.44212">
        <ele>185.7998</ele>
        <time>2026-05-15T12:05:27+02:00</time>
      </trkpt>
      <trkpt lat="47.23687" lon="5.4421">
        <ele>185.7998</ele>
        <time>2026-05-15T12:05:28+02:00</time>
      </trkpt>
      <trkpt lat="47.23692" lon="5.44209">
        <ele>185.60059</ele>
        <time>2026-05-15T12:05:29+02:00</time>
      </trkpt>
      <trkpt lat="47.23697" lon="5.44208">
        <ele>185.5</ele>
        <time>2026-05-15T12:05:30+02:00</time>
      </trkpt>
      <trkpt lat="47.23702" lon="5.44208">
        <ele>185.40039</ele>
        <time>2026-05-15T12:05:31+02:00</time>
      </trkpt>
      <trkpt lat="47.23707" lon="5.44208">
        <ele>185.2998</ele>
        <time>2026-05-15T12:05:32+02:00</time>
      </trkpt>
      <trkpt lat="47.23712" lon="5.44208">
        <ele>185.2002</ele>
        <time>2026-05-15T12:05:33+02:00</time>
      </trkpt>
      <trkpt lat="47.23717" lon="5.44208">
        <ele>185.10059</ele>
        <time>2026-05-15T12:05:34+02:00</time>
      </trkpt>
      <trkpt lat="47.23721" lon="5.44209">
        <ele>185.10059</ele>
        <time>2026-05-15T12:05:35+02:00</time>
      </trkpt>
      <trkpt lat="47.23726" lon="5.4421">
        <ele>185</ele>
        <time>2026-05-15T12:05:36+02:00</time>
      </trkpt>
      <trkpt lat="47.23731" lon="5.44212">
        <ele>184.90039</ele>
        <time>2026-05-15T12:05:37+02:00</time>
      </trkpt>
      <trkpt lat="47.23736" lon="5.44214">
        <ele>184.7998</ele>
        <time>2026-05-15T12:05:38+02:00</time>
      </trkpt>
      <trkpt lat="47.23741" lon="5.44217">
        <ele>184.7002</ele>
        <time>2026-05-15T12:05:39+02:00</time>
      </trkpt>
      <trkpt lat="47.23745" lon="5.4422">
        <ele>184.60059</ele>
        <time>2026-05-15T12:05:40+02:00</time>
      </trkpt>
      <trkpt lat="47.23749" lon="5.44223">
        <ele>184.5</ele>
        <time>2026-05-15T12:05:41+02:00</time>
      </trkpt>
      <trkpt lat="47.23753" lon="5.44228">
        <ele>184.40039</ele>
        <time>2026-05-15T12:05:42+02:00</time>
      </trkpt>
      <trkpt lat="47.23757" lon="5.44233">
        <ele>184.40039</ele>
        <time>2026-05-15T12:05:43+02:00</time>
      </trkpt>
      <trkpt lat="47.23761" lon="5.44238">
        <ele>184.2998</ele>
        <time>2026-05-15T12:05:44+02:00</time>
      </trkpt>
      <trkpt lat="47.23765" lon="5.44243">
        <ele>184.2998</ele>
        <time>2026-05-15T12:05:45+02:00</time>
      </trkpt>
      <trkpt lat="47.23769" lon="5.44248">
        <ele>184.2002</ele>
        <time>2026-05-15T12:05:46+02:00</time>
      </trkpt>
      <trkpt lat="47.23773" lon="5.44253">
        <ele>184.2002</ele>
        <time>2026-05-15T12:05:47+02:00</time>
      </trkpt>
      <trkpt lat="47.23777" lon="5.44257">
        <ele>184.2002</ele>
        <time>2026-05-15T12:05:48+02:00</time>
      </trkpt>
      <trkpt lat="47.23781" lon="5.44262">
        <ele>184.2002</ele>
        <time>2026-05-15T12:05:49+02:00</time>
      </trkpt>
      <trkpt lat="47.23786" lon="5.44266">
        <ele>184.2002</ele>
        <time>2026-05-15T12:05:50+02:00</time>
      </trkpt>
      <trkpt lat="47.2379" lon="5.44271">
        <ele>184.2998</ele>
        <time>2026-05-15T12:05:51+02:00</time>
      </trkpt>
      <trkpt lat="47.23794" lon="5.44275">
        <ele>184.2998</ele>
        <time>2026-05-15T12:05:52+02:00</time>
      </trkpt>
      <trkpt lat="47.23799" lon="5.44279">
        <ele>184.40039</ele>
        <time>2026-05-15T12:05:53+02:00</time>
      </trkpt>
      <trkpt lat="47.23804" lon="5.44283">
        <ele>184.40039</ele>
        <time>2026-05-15T12:05:54+02:00</time>
      </trkpt>
      <trkpt lat="47.23808" lon="5.44287">
        <ele>184.5</ele>
        <time>2026-05-15T12:05:55+02:00</time>
      </trkpt>
      <trkpt lat="47.23813" lon="5.4429">
        <ele>184.5</ele>
        <time>2026-05-15T12:05:56+02:00</time>
      </trkpt>
      <trkpt lat="47.23818" lon="5.44294">
        <ele>184.60059</ele>
        <time>2026-05-15T12:05:57+02:00</time>
      </trkpt>
      <trkpt lat="47.23823" lon="5.44297">
        <ele>184.7002</ele>
        <time>2026-05-15T12:05:58+02:00</time>
      </trkpt>
      <trkpt lat="47.23827" lon="5.44301">
        <ele>184.7002</ele>
        <time>2026-05-15T12:05:59+02:00</time>
      </trkpt>
      <trkpt lat="47.23832" lon="5.44305">
        <ele>184.7998</ele>
        <time>2026-05-15T12:06:00+02:00</time>
      </trkpt>
      <trkpt lat="47.23837" lon="5.44308">
        <ele>184.7998</ele>
        <time>2026-05-15T12:06:01+02:00</time>
      </trkpt>
      <trkpt lat="47.23842" lon="5.44312">
        <ele>184.7998</ele>
        <time>2026-05-15T12:06:02+02:00</time>
      </trkpt>
      <trkpt lat="47.23847" lon="5.44316">
        <ele>184.90039</ele>
        <time>2026-05-15T12:06:03+02:00</time>
      </trkpt>
      <trkpt lat="47.23852" lon="5.44319">
        <ele>184.90039</ele>
        <time>2026-05-15T12:06:04+02:00</time>
      </trkpt>
      <trkpt lat="47.23856" lon="5.44323">
        <ele>185</ele>
        <time>2026-05-15T12:06:05+02:00</time>
      </trkpt>
      <trkpt lat="47.23861" lon="5.44327">
        <ele>185</ele>
        <time>2026-05-15T12:06:06+02:00</time>
      </trkpt>
      <trkpt lat="47.23866" lon="5.44331">
        <ele>185.10059</ele>
        <time>2026-05-15T12:06:07+02:00</time>
      </trkpt>
      <trkpt lat="47.23871" lon="5.44335">
        <ele>185.10059</ele>
        <time>2026-05-15T12:06:08+02:00</time>
      </trkpt>
      <trkpt lat="47.23876" lon="5.4434">
        <ele>185.2002</ele>
        <time>2026-05-15T12:06:09+02:00</time>
      </trkpt>
      <trkpt lat="47.2388" lon="5.44344">
        <ele>185.2002</ele>
        <time>2026-05-15T12:06:10+02:00</time>
      </trkpt>
      <trkpt lat="47.23885" lon="5.44349">
        <ele>185.2998</ele>
        <time>2026-05-15T12:06:11+02:00</time>
      </trkpt>
      <trkpt lat="47.23889" lon="5.44354">
        <ele>185.2998</ele>
        <time>2026-05-15T12:06:12+02:00</time>
      </trkpt>
      <trkpt lat="47.23894" lon="5.44359">
        <ele>185.40039</ele>
        <time>2026-05-15T12:06:13+02:00</time>
      </trkpt>
      <trkpt lat="47.23898" lon="5.44364">
        <ele>185.40039</ele>
        <time>2026-05-15T12:06:14+02:00</time>
      </trkpt>
      <trkpt lat="47.23903" lon="5.44369">
        <ele>185.40039</ele>
        <time>2026-05-15T12:06:15+02:00</time>
      </trkpt>
      <trkpt lat="47.23907" lon="5.44374">
        <ele>185.5</ele>
        <time>2026-05-15T12:06:16+02:00</time>
      </trkpt>
      <trkpt lat="47.23911" lon="5.4438">
        <ele>185.5</ele>
        <time>2026-05-15T12:06:17+02:00</time>
      </trkpt>
      <trkpt lat="47.23915" lon="5.44385">
        <ele>185.60059</ele>
        <time>2026-05-15T12:06:18+02:00</time>
      </trkpt>
      <trkpt lat="47.23919" lon="5.4439">
        <ele>185.60059</ele>
        <time>2026-05-15T12:06:19+02:00</time>
      </trkpt>
      <trkpt lat="47.23923" lon="5.44396">
        <ele>185.5</ele>
        <time>2026-05-15T12:06:20+02:00</time>
      </trkpt>
      <trkpt lat="47.23927" lon="5.44401">
        <ele>185.5</ele>
        <time>2026-05-15T12:06:21+02:00</time>
      </trkpt>
      <trkpt lat="47.23931" lon="5.44407">
        <ele>185.5</ele>
        <time>2026-05-15T12:06:22+02:00</time>
      </trkpt>
      <trkpt lat="47.23935" lon="5.44412">
        <ele>185.40039</ele>
        <time>2026-05-15T12:06:23+02:00</time>
      </trkpt>
      <trkpt lat="47.23939" lon="5.44418">
        <ele>185.2998</ele>
        <time>2026-05-15T12:06:24+02:00</time>
      </trkpt>
      <trkpt lat="47.23943" lon="5.44424">
        <ele>185.2998</ele>
        <time>2026-05-15T12:06:25+02:00</time>
      </trkpt>
      <trkpt lat="47.23947" lon="5.44429">
        <ele>185.10059</ele>
        <time>2026-05-15T12:06:26+02:00</time>
      </trkpt>
      <trkpt lat="47.2395" lon="5.44435">
        <ele>185.10059</ele>
        <time>2026-05-15T12:06:27+02:00</time>
      </trkpt>
      <trkpt lat="47.23954" lon="5.44441">
        <ele>185</ele>
        <time>2026-05-15T12:06:28+02:00</time>
      </trkpt>
      <trkpt lat="47.23958" lon="5.44447">
        <ele>184.7998</ele>
        <time>2026-05-15T12:06:29+02:00</time>
      </trkpt>
      <trkpt lat="47.23961" lon="5.44453">
        <ele>184.7998</ele>
        <time>2026-05-15T12:06:30+02:00</time>
      </trkpt>
      <trkpt lat="47.23965" lon="5.44459">
        <ele>184.60059</ele>
        <time>2026-05-15T12:06:31+02:00</time>
      </trkpt>
      <trkpt lat="47.23968" lon="5.44466">
        <ele>184.5</ele>
        <time>2026-05-15T12:06:32+02:00</time>
      </trkpt>
      <trkpt lat="47.23972" lon="5.44472">
        <ele>184.5</ele>
        <time>2026-05-15T12:06:33+02:00</time>
      </trkpt>
      <trkpt lat="47.23976" lon="5.44478">
        <ele>184.40039</ele>
        <time>2026-05-15T12:06:34+02:00</time>
      </trkpt>
      <trkpt lat="47.23979" lon="5.44483">
        <ele>184.40039</ele>
        <time>2026-05-15T12:06:35+02:00</time>
      </trkpt>
      <trkpt lat="47.23983" lon="5.44489">
        <ele>184.2998</ele>
        <time>2026-05-15T12:06:36+02:00</time>
      </trkpt>
      <trkpt lat="47.23987" lon="5.44495">
        <ele>184.2002</ele>
        <time>2026-05-15T12:06:37+02:00</time>
      </trkpt>
      <trkpt lat="47.23991" lon="5.445">
        <ele>184.10059</ele>
        <time>2026-05-15T12:06:38+02:00</time>
      </trkpt>
      <trkpt lat="47.23995" lon="5.44505">
        <ele>184.10059</ele>
        <time>2026-05-15T12:06:39+02:00</time>
      </trkpt>
      <trkpt lat="47.23999" lon="5.4451">
        <ele>184.10059</ele>
        <time>2026-05-15T12:06:40+02:00</time>
      </trkpt>
      <trkpt lat="47.24003" lon="5.44515">
        <ele>184</ele>
        <time>2026-05-15T12:06:41+02:00</time>
      </trkpt>
      <trkpt lat="47.24008" lon="5.44519">
        <ele>184</ele>
        <time>2026-05-15T12:06:42+02:00</time>
      </trkpt>
      <trkpt lat="47.24012" lon="5.44522">
        <ele>184</ele>
        <time>2026-05-15T12:06:43+02:00</time>
      </trkpt>
      <trkpt lat="47.24017" lon="5.44525">
        <ele>183.90039</ele>
        <time>2026-05-15T12:06:44+02:00</time>
      </trkpt>
      <trkpt lat="47.24022" lon="5.44528">
        <ele>183.90039</ele>
        <time>2026-05-15T12:06:45+02:00</time>
      </trkpt>
      <trkpt lat="47.24027" lon="5.44531">
        <ele>183.90039</ele>
        <time>2026-05-15T12:06:46+02:00</time>
      </trkpt>
      <trkpt lat="47.24032" lon="5.44534">
        <ele>183.7998</ele>
        <time>2026-05-15T12:06:47+02:00</time>
      </trkpt>
      <trkpt lat="47.24037" lon="5.44536">
        <ele>183.90039</ele>
        <time>2026-05-15T12:06:48+02:00</time>
      </trkpt>
      <trkpt lat="47.24042" lon="5.44539">
        <ele>183.90039</ele>
        <time>2026-05-15T12:06:49+02:00</time>
      </trkpt>
      <trkpt lat="47.24047" lon="5.44541">
        <ele>183.7998</ele>
        <time>2026-05-15T12:06:50+02:00</time>
      </trkpt>
      <trkpt lat="47.24052" lon="5.44544">
        <ele>183.7998</ele>
        <time>2026-05-15T12:06:51+02:00</time>
      </trkpt>
      <trkpt lat="47.24058" lon="5.44546">
        <ele>183.7998</ele>
        <time>2026-05-15T12:06:52+02:00</time>
      </trkpt>
      <trkpt lat="47.24062" lon="5.44549">
        <ele>183.7998</ele>
        <time>2026-05-15T12:06:53+02:00</time>
      </trkpt>
      <trkpt lat="47.24067" lon="5.44551">
        <ele>183.7998</ele>
        <time>2026-05-15T12:06:54+02:00</time>
      </trkpt>
      <trkpt lat="47.24072" lon="5.44554">
        <ele>183.90039</ele>
        <time>2026-05-15T12:06:55+02:00</time>
      </trkpt>
      <trkpt lat="47.24077" lon="5.44557">
        <ele>183.90039</ele>
        <time>2026-05-15T12:06:56+02:00</time>
      </trkpt>
      <trkpt lat="47.24082" lon="5.4456">
        <ele>183.90039</ele>
        <time>2026-05-15T12:06:57+02:00</time>
      </trkpt>
      <trkpt lat="47.24087" lon="5.44563">
        <ele>184</ele>
        <time>2026-05-15T12:06:58+02:00</time>
      </trkpt>
      <trkpt lat="47.24092" lon="5.44566">
        <ele>184.10059</ele>
        <time>2026-05-15T12:06:59+02:00</time>
      </trkpt>
      <trkpt lat="47.24096" lon="5.44569">
        <ele>184.10059</ele>
        <time>2026-05-15T12:07:00+02:00</time>
      </trkpt>
      <trkpt lat="47.24101" lon="5.44572">
        <ele>184.2002</ele>
        <time>2026-05-15T12:07:01+02:00</time>
      </trkpt>
      <trkpt lat="47.24106" lon="5.44576">
        <ele>184.2002</ele>
        <time>2026-05-15T12:07:02+02:00</time>
      </trkpt>
      <trkpt lat="47.24111" lon="5.4458">
        <ele>184.2998</ele>
        <time>2026-05-15T12:07:03+02:00</time>
      </trkpt>
      <trkpt lat="47.24115" lon="5.44583">
        <ele>184.2998</ele>
        <time>2026-05-15T12:07:04+02:00</time>
      </trkpt>
      <trkpt lat="47.2412" lon="5.44586">
        <ele>184.40039</ele>
        <time>2026-05-15T12:07:05+02:00</time>
      </trkpt>
      <trkpt lat="47.24124" lon="5.4459">
        <ele>184.40039</ele>
        <time>2026-05-15T12:07:06+02:00</time>
      </trkpt>
      <trkpt lat="47.24129" lon="5.44593">
        <ele>184.5</ele>
        <time>2026-05-15T12:07:07+02:00</time>
      </trkpt>
      <trkpt lat="47.24133" lon="5.44596">
        <ele>184.5</ele>
        <time>2026-05-15T12:07:08+02:00</time>
      </trkpt>
      <trkpt lat="47.24138" lon="5.44598">
        <ele>184.60059</ele>
        <time>2026-05-15T12:07:09+02:00</time>
      </trkpt>
      <trkpt lat="47.24143" lon="5.446">
        <ele>184.7002</ele>
        <time>2026-05-15T12:07:10+02:00</time>
      </trkpt>
      <trkpt lat="47.24148" lon="5.44602">
        <ele>184.7002</ele>
        <time>2026-05-15T12:07:11+02:00</time>
      </trkpt>
      <trkpt lat="47.24153" lon="5.44604">
        <ele>184.7002</ele>
        <time>2026-05-15T12:07:12+02:00</time>
      </trkpt>
      <trkpt lat="47.24158" lon="5.44605">
        <ele>184.60059</ele>
        <time>2026-05-15T12:07:13+02:00</time>
      </trkpt>
      <trkpt lat="47.24164" lon="5.44607">
        <ele>184.60059</ele>
        <time>2026-05-15T12:07:14+02:00</time>
      </trkpt>
      <trkpt lat="47.24169" lon="5.44609">
        <ele>184.7002</ele>
        <time>2026-05-15T12:07:15+02:00</time>
      </trkpt>
      <trkpt lat="47.24175" lon="5.44611">
        <ele>184.7002</ele>
        <time>2026-05-15T12:07:16+02:00</time>
      </trkpt>
      <trkpt lat="47.24181" lon="5.44613">
        <ele>184.7998</ele>
        <time>2026-05-15T12:07:17+02:00</time>
      </trkpt>
      <trkpt lat="47.24187" lon="5.44614">
        <ele>184.7998</ele>
        <time>2026-05-15T12:07:18+02:00</time>
      </trkpt>
      <trkpt lat="47.24193" lon="5.44616">
        <ele>184.90039</ele>
        <time>2026-05-15T12:07:19+02:00</time>
      </trkpt>
      <trkpt lat="47.24199" lon="5.44618">
        <ele>184.90039</ele>
        <time>2026-05-15T12:07:20+02:00</time>
      </trkpt>
      <trkpt lat="47.24205" lon="5.4462">
        <ele>185</ele>
        <time>2026-05-15T12:07:21+02:00</time>
      </trkpt>
      <trkpt lat="47.2421" lon="5.44621">
        <ele>185</ele>
        <time>2026-05-15T12:07:22+02:00</time>
      </trkpt>
      <trkpt lat="47.24216" lon="5.44623">
        <ele>185</ele>
        <time>2026-05-15T12:07:23+02:00</time>
      </trkpt>
      <trkpt lat="47.24222" lon="5.44624">
        <ele>185</ele>
        <time>2026-05-15T12:07:24+02:00</time>
      </trkpt>
      <trkpt lat="47.24227" lon="5.44625">
        <ele>185</ele>
        <time>2026-05-15T12:07:25+02:00</time>
      </trkpt>
      <trkpt lat="47.24232" lon="5.44627">
        <ele>185</ele>
        <time>2026-05-15T12:07:26+02:00</time>
      </trkpt>
      <trkpt lat="47.24238" lon="5.44628">
        <ele>185.10059</ele>
        <time>2026-05-15T12:07:27+02:00</time>
      </trkpt>
      <trkpt lat="47.24243" lon="5.44629">
        <ele>185.10059</ele>
        <time>2026-05-15T12:07:28+02:00</time>
      </trkpt>
      <trkpt lat="47.24248" lon="5.4463">
        <ele>185.10059</ele>
        <time>2026-05-15T12:07:29+02:00</time>
      </trkpt>
      <trkpt lat="47.24254" lon="5.44631">
        <ele>185.10059</ele>
        <time>2026-05-15T12:07:30+02:00</time>
      </trkpt>
      <trkpt lat="47.24259" lon="5.44632">
        <ele>185</ele>
        <time>2026-05-15T12:07:31+02:00</time>
      </trkpt>
      <trkpt lat="47.24265" lon="5.44633">
        <ele>185</ele>
        <time>2026-05-15T12:07:32+02:00</time>
      </trkpt>
      <trkpt lat="47.2427" lon="5.44635">
        <ele>185</ele>
        <time>2026-05-15T12:07:33+02:00</time>
      </trkpt>
      <trkpt lat="47.24275" lon="5.44636">
        <ele>185</ele>
        <time>2026-05-15T12:07:34+02:00</time>
      </trkpt>
      <trkpt lat="47.24281" lon="5.44637">
        <ele>185</ele>
        <time>2026-05-15T12:07:35+02:00</time>
      </trkpt>
      <trkpt lat="47.24286" lon="5.44638">
        <ele>185</ele>
        <time>2026-05-15T12:07:36+02:00</time>
      </trkpt>
      <trkpt lat="47.24291" lon="5.44639">
        <ele>185</ele>
        <time>2026-05-15T12:07:37+02:00</time>
      </trkpt>
      <trkpt lat="47.24297" lon="5.4464">
        <ele>185</ele>
        <time>2026-05-15T12:07:38+02:00</time>
      </trkpt>
      <trkpt lat="47.24302" lon="5.44641">
        <ele>185</ele>
        <time>2026-05-15T12:07:39+02:00</time>
      </trkpt>
      <trkpt lat="47.24307" lon="5.44642">
        <ele>184.90039</ele>
        <time>2026-05-15T12:07:40+02:00</time>
      </trkpt>
      <trkpt lat="47.24313" lon="5.44643">
        <ele>184.90039</ele>
        <time>2026-05-15T12:07:41+02:00</time>
      </trkpt>
      <trkpt lat="47.24318" lon="5.44643">
        <ele>184.90039</ele>
        <time>2026-05-15T12:07:42+02:00</time>
      </trkpt>
      <trkpt lat="47.24323" lon="5.44644">
        <ele>184.90039</ele>
        <time>2026-05-15T12:07:43+02:00</time>
      </trkpt>
      <trkpt lat="47.24329" lon="5.44645">
        <ele>184.7998</ele>
        <time>2026-05-15T12:07:44+02:00</time>
      </trkpt>
      <trkpt lat="47.24334" lon="5.44646">
        <ele>184.7998</ele>
        <time>2026-05-15T12:07:45+02:00</time>
      </trkpt>
      <trkpt lat="47.24339" lon="5.44647">
        <ele>184.7998</ele>
        <time>2026-05-15T12:07:46+02:00</time>
      </trkpt>
      <trkpt lat="47.24344" lon="5.44648">
        <ele>184.7998</ele>
        <time>2026-05-15T12:07:47+02:00</time>
      </trkpt>
      <trkpt lat="47.2435" lon="5.44649">
        <ele>184.7002</ele>
        <time>2026-05-15T12:07:48+02:00</time>
      </trkpt>
      <trkpt lat="47.24355" lon="5.4465">
        <ele>184.7002</ele>
        <time>2026-05-15T12:07:49+02:00</time>
      </trkpt>
      <trkpt lat="47.24361" lon="5.44651">
        <ele>184.60059</ele>
        <time>2026-05-15T12:07:50+02:00</time>
      </trkpt>
      <trkpt lat="47.24366" lon="5.44652">
        <ele>184.60059</ele>
        <time>2026-05-15T12:07:51+02:00</time>
      </trkpt>
      <trkpt lat="47.24372" lon="5.44653">
        <ele>184.5</ele>
        <time>2026-05-15T12:07:52+02:00</time>
      </trkpt>
      <trkpt lat="47.24377" lon="5.44654">
        <ele>184.5</ele>
        <time>2026-05-15T12:07:53+02:00</time>
      </trkpt>
      <trkpt lat="47.24383" lon="5.44655">
        <ele>184.40039</ele>
        <time>2026-05-15T12:07:54+02:00</time>
      </trkpt>
      <trkpt lat="47.24388" lon="5.44656">
        <ele>184.40039</ele>
        <time>2026-05-15T12:07:55+02:00</time>
      </trkpt>
      <trkpt lat="47.24394" lon="5.44658">
        <ele>184.2998</ele>
        <time>2026-05-15T12:07:56+02:00</time>
      </trkpt>
      <trkpt lat="47.24399" lon="5.44659">
        <ele>184.2998</ele>
        <time>2026-05-15T12:07:57+02:00</time>
      </trkpt>
      <trkpt lat="47.24405" lon="5.4466">
        <ele>184.2002</ele>
        <time>2026-05-15T12:07:58+02:00</time>
      </trkpt>
      <trkpt lat="47.2441" lon="5.44661">
        <ele>184.2002</ele>
        <time>2026-05-15T12:07:59+02:00</time>
      </trkpt>
      <trkpt lat="47.24416" lon="5.44661">
        <ele>184.2002</ele>
        <time>2026-05-15T12:08:00+02:00</time>
      </trkpt>
      <trkpt lat="47.24421" lon="5.44662">
        <ele>184.2002</ele>
        <time>2026-05-15T12:08:01+02:00</time>
      </trkpt>
      <trkpt lat="47.24427" lon="5.44663">
        <ele>184.2002</ele>
        <time>2026-05-15T12:08:02+02:00</time>
      </trkpt>
      <trkpt lat="47.24433" lon="5.44663">
        <ele>184.2002</ele>
        <time>2026-05-15T12:08:03+02:00</time>
      </trkpt>
      <trkpt lat="47.24438" lon="5.44664">
        <ele>184.10059</ele>
        <time>2026-05-15T12:08:04+02:00</time>
      </trkpt>
      <trkpt lat="47.24444" lon="5.44664">
        <ele>184.10059</ele>
        <time>2026-05-15T12:08:05+02:00</time>
      </trkpt>
      <trkpt lat="47.24449" lon="5.44664">
        <ele>184.10059</ele>
        <time>2026-05-15T12:08:06+02:00</time>
      </trkpt>
      <trkpt lat="47.24455" lon="5.44664">
        <ele>184.10059</ele>
        <time>2026-05-15T12:08:07+02:00</time>
      </trkpt>
      <trkpt lat="47.2446" lon="5.44664">
        <ele>184.10059</ele>
        <time>2026-05-15T12:08:08+02:00</time>
      </trkpt>
      <trkpt lat="47.24466" lon="5.44664">
        <ele>184.10059</ele>
        <time>2026-05-15T12:08:09+02:00</time>
      </trkpt>
      <trkpt lat="47.24471" lon="5.44663">
        <ele>184.10059</ele>
        <time>2026-05-15T12:08:10+02:00</time>
      </trkpt>
      <trkpt lat="47.24477" lon="5.44663">
        <ele>184.10059</ele>
        <time>2026-05-15T12:08:11+02:00</time>
      </trkpt>
      <trkpt lat="47.24482" lon="5.44663">
        <ele>184.10059</ele>
        <time>2026-05-15T12:08:12+02:00</time>
      </trkpt>
      <trkpt lat="47.24488" lon="5.44662">
        <ele>184.10059</ele>
        <time>2026-05-15T12:08:13+02:00</time>
      </trkpt>
      <trkpt lat="47.24494" lon="5.44662">
        <ele>184.10059</ele>
        <time>2026-05-15T12:08:14+02:00</time>
      </trkpt>
      <trkpt lat="47.24499" lon="5.44662">
        <ele>184</ele>
        <time>2026-05-15T12:08:15+02:00</time>
      </trkpt>
      <trkpt lat="47.24504" lon="5.44662">
        <ele>184</ele>
        <time>2026-05-15T12:08:16+02:00</time>
      </trkpt>
      <trkpt lat="47.2451" lon="5.44663">
        <ele>183.90039</ele>
        <time>2026-05-15T12:08:17+02:00</time>
      </trkpt>
      <trkpt lat="47.24515" lon="5.44663">
        <ele>183.90039</ele>
        <time>2026-05-15T12:08:18+02:00</time>
      </trkpt>
      <trkpt lat="47.2452" lon="5.44664">
        <ele>183.7998</ele>
        <time>2026-05-15T12:08:19+02:00</time>
      </trkpt>
      <trkpt lat="47.24526" lon="5.44664">
        <ele>183.7998</ele>
        <time>2026-05-15T12:08:20+02:00</time>
      </trkpt>
      <trkpt lat="47.24531" lon="5.44665">
        <ele>183.7002</ele>
        <time>2026-05-15T12:08:21+02:00</time>
      </trkpt>
      <trkpt lat="47.24537" lon="5.44665">
        <ele>183.60059</ele>
        <time>2026-05-15T12:08:22+02:00</time>
      </trkpt>
      <trkpt lat="47.24542" lon="5.44666">
        <ele>183.60059</ele>
        <time>2026-05-15T12:08:23+02:00</time>
      </trkpt>
      <trkpt lat="47.24547" lon="5.44667">
        <ele>183.5</ele>
        <time>2026-05-15T12:08:24+02:00</time>
      </trkpt>
      <trkpt lat="47.24553" lon="5.44667">
        <ele>183.40039</ele>
        <time>2026-05-15T12:08:25+02:00</time>
      </trkpt>
      <trkpt lat="47.24558" lon="5.44668">
        <ele>183.40039</ele>
        <time>2026-05-15T12:08:26+02:00</time>
      </trkpt>
      <trkpt lat="47.24563" lon="5.44669">
        <ele>183.2998</ele>
        <time>2026-05-15T12:08:27+02:00</time>
      </trkpt>
      <trkpt lat="47.24568" lon="5.4467">
        <ele>183.2998</ele>
        <time>2026-05-15T12:08:28+02:00</time>
      </trkpt>
      <trkpt lat="47.24574" lon="5.44671">
        <ele>183.2998</ele>
        <time>2026-05-15T12:08:29+02:00</time>
      </trkpt>
      <trkpt lat="47.24579" lon="5.44671">
        <ele>183.2998</ele>
        <time>2026-05-15T12:08:30+02:00</time>
      </trkpt>
      <trkpt lat="47.24585" lon="5.44672">
        <ele>183.2998</ele>
        <time>2026-05-15T12:08:31+02:00</time>
      </trkpt>
      <trkpt lat="47.2459" lon="5.44673">
        <ele>183.2998</ele>
        <time>2026-05-15T12:08:32+02:00</time>
      </trkpt>
      <trkpt lat="47.24595" lon="5.44674">
        <ele>183.40039</ele>
        <time>2026-05-15T12:08:33+02:00</time>
      </trkpt>
      <trkpt lat="47.24601" lon="5.44674">
        <ele>183.40039</ele>
        <time>2026-05-15T12:08:34+02:00</time>
      </trkpt>
      <trkpt lat="47.24606" lon="5.44675">
        <ele>183.5</ele>
        <time>2026-05-15T12:08:35+02:00</time>
      </trkpt>
      <trkpt lat="47.24611" lon="5.44676">
        <ele>183.5</ele>
        <time>2026-05-15T12:08:36+02:00</time>
      </trkpt>
      <trkpt lat="47.24617" lon="5.44677">
        <ele>183.60059</ele>
        <time>2026-05-15T12:08:37+02:00</time>
      </trkpt>
      <trkpt lat="47.24622" lon="5.44677">
        <ele>183.7002</ele>
        <time>2026-05-15T12:08:38+02:00</time>
      </trkpt>
      <trkpt lat="47.24627" lon="5.44678">
        <ele>183.7002</ele>
        <time>2026-05-15T12:08:39+02:00</time>
      </trkpt>
      <trkpt lat="47.24633" lon="5.44679">
        <ele>183.7998</ele>
        <time>2026-05-15T12:08:40+02:00</time>
      </trkpt>
      <trkpt lat="47.24638" lon="5.4468">
        <ele>183.90039</ele>
        <time>2026-05-15T12:08:41+02:00</time>
      </trkpt>
      <trkpt lat="47.24644" lon="5.44681">
        <ele>184</ele>
        <time>2026-05-15T12:08:42+02:00</time>
      </trkpt>
      <trkpt lat="47.24649" lon="5.44682">
        <ele>184</ele>
        <time>2026-05-15T12:08:43+02:00</time>
      </trkpt>
      <trkpt lat="47.24655" lon="5.44682">
        <ele>184</ele>
        <time>2026-05-15T12:08:44+02:00</time>
      </trkpt>
      <trkpt lat="47.24659" lon="5.44683">
        <ele>184.10059</ele>
        <time>2026-05-15T12:08:45+02:00</time>
      </trkpt>
      <trkpt lat="47.24664" lon="5.44684">
        <ele>184.2002</ele>
        <time>2026-05-15T12:08:46+02:00</time>
      </trkpt>
      <trkpt lat="47.24669" lon="5.44685">
        <ele>184.2998</ele>
        <time>2026-05-15T12:08:47+02:00</time>
      </trkpt>
      <trkpt lat="47.24674" lon="5.44685">
        <ele>184.40039</ele>
        <time>2026-05-15T12:08:48+02:00</time>
      </trkpt>
      <trkpt lat="47.24679" lon="5.44686">
        <ele>184.40039</ele>
        <time>2026-05-15T12:08:49+02:00</time>
      </trkpt>
      <trkpt lat="47.24684" lon="5.44687">
        <ele>184.40039</ele>
        <time>2026-05-15T12:08:50+02:00</time>
      </trkpt>
      <trkpt lat="47.24689" lon="5.44688">
        <ele>184.5</ele>
        <time>2026-05-15T12:08:51+02:00</time>
      </trkpt>
      <trkpt lat="47.24694" lon="5.44689">
        <ele>184.60059</ele>
        <time>2026-05-15T12:08:52+02:00</time>
      </trkpt>
      <trkpt lat="47.24699" lon="5.4469">
        <ele>184.7002</ele>
        <time>2026-05-15T12:08:53+02:00</time>
      </trkpt>
      <trkpt lat="47.24704" lon="5.44691">
        <ele>184.90039</ele>
        <time>2026-05-15T12:08:54+02:00</time>
      </trkpt>
      <trkpt lat="47.24709" lon="5.44692">
        <ele>185</ele>
        <time>2026-05-15T12:08:55+02:00</time>
      </trkpt>
      <trkpt lat="47.24714" lon="5.44693">
        <ele>185.10059</ele>
        <time>2026-05-15T12:08:56+02:00</time>
      </trkpt>
      <trkpt lat="47.24719" lon="5.44694">
        <ele>185.10059</ele>
        <time>2026-05-15T12:08:57+02:00</time>
      </trkpt>
      <trkpt lat="47.24724" lon="5.44695">
        <ele>185.10059</ele>
        <time>2026-05-15T12:08:58+02:00</time>
      </trkpt>
      <trkpt lat="47.24729" lon="5.44696">
        <ele>185.2002</ele>
        <time>2026-05-15T12:08:59+02:00</time>
      </trkpt>
      <trkpt lat="47.24733" lon="5.44698">
        <ele>185.2998</ele>
        <time>2026-05-15T12:09:00+02:00</time>
      </trkpt>
      <trkpt lat="47.24738" lon="5.44699">
        <ele>185.40039</ele>
        <time>2026-05-15T12:09:01+02:00</time>
      </trkpt>
      <trkpt lat="47.24743" lon="5.447">
        <ele>185.40039</ele>
        <time>2026-05-15T12:09:02+02:00</time>
      </trkpt>
      <trkpt lat="47.24748" lon="5.44701">
        <ele>185.40039</ele>
        <time>2026-05-15T12:09:03+02:00</time>
      </trkpt>
      <trkpt lat="47.24753" lon="5.44703">
        <ele>185.40039</ele>
        <time>2026-05-15T12:09:04+02:00</time>
      </trkpt>
      <trkpt lat="47.24758" lon="5.44704">
        <ele>185.40039</ele>
        <time>2026-05-15T12:09:05+02:00</time>
      </trkpt>
      <trkpt lat="47.24762" lon="5.44705">
        <ele>185.40039</ele>
        <time>2026-05-15T12:09:06+02:00</time>
      </trkpt>
      <trkpt lat="47.24767" lon="5.44707">
        <ele>185.2998</ele>
        <time>2026-05-15T12:09:07+02:00</time>
      </trkpt>
      <trkpt lat="47.24772" lon="5.44709">
        <ele>185.40039</ele>
        <time>2026-05-15T12:09:08+02:00</time>
      </trkpt>
      <trkpt lat="47.24777" lon="5.4471">
        <ele>185.40039</ele>
        <time>2026-05-15T12:09:09+02:00</time>
      </trkpt>
      <trkpt lat="47.24782" lon="5.44712">
        <ele>185.40039</ele>
        <time>2026-05-15T12:09:10+02:00</time>
      </trkpt>
      <trkpt lat="47.24787" lon="5.44713">
        <ele>185.2998</ele>
        <time>2026-05-15T12:09:11+02:00</time>
      </trkpt>
      <trkpt lat="47.24791" lon="5.44715">
        <ele>185.2002</ele>
        <time>2026-05-15T12:09:12+02:00</time>
      </trkpt>
      <trkpt lat="47.24796" lon="5.44717">
        <ele>185.40039</ele>
        <time>2026-05-15T12:09:13+02:00</time>
      </trkpt>
      <trkpt lat="47.248" lon="5.44718">
        <ele>185.40039</ele>
        <time>2026-05-15T12:09:14+02:00</time>
      </trkpt>
      <trkpt lat="47.24804" lon="5.4472">
        <ele>185.40039</ele>
        <time>2026-05-15T12:09:15+02:00</time>
      </trkpt>
      <trkpt lat="47.24809" lon="5.44722">
        <ele>185.2998</ele>
        <time>2026-05-15T12:09:16+02:00</time>
      </trkpt>
      <trkpt lat="47.24814" lon="5.44723">
        <ele>185.2998</ele>
        <time>2026-05-15T12:09:17+02:00</time>
      </trkpt>
      <trkpt lat="47.24819" lon="5.44725">
        <ele>185.40039</ele>
        <time>2026-05-15T12:09:18+02:00</time>
      </trkpt>
      <trkpt lat="47.24823" lon="5.44727">
        <ele>185.40039</ele>
        <time>2026-05-15T12:09:19+02:00</time>
      </trkpt>
      <trkpt lat="47.24828" lon="5.44729">
        <ele>185.40039</ele>
        <time>2026-05-15T12:09:20+02:00</time>
      </trkpt>
      <trkpt lat="47.24833" lon="5.44731">
        <ele>185.40039</ele>
        <time>2026-05-15T12:09:21+02:00</time>
      </trkpt>
      <trkpt lat="47.24837" lon="5.44733">
        <ele>185.2998</ele>
        <time>2026-05-15T12:09:22+02:00</time>
      </trkpt>
      <trkpt lat="47.24842" lon="5.44735">
        <ele>185.5</ele>
        <time>2026-05-15T12:09:23+02:00</time>
      </trkpt>
      <trkpt lat="47.24846" lon="5.44736">
        <ele>185.5</ele>
        <time>2026-05-15T12:09:24+02:00</time>
      </trkpt>
      <trkpt lat="47.24851" lon="5.44738">
        <ele>185.5</ele>
        <time>2026-05-15T12:09:25+02:00</time>
      </trkpt>
      <trkpt lat="47.24856" lon="5.44741">
        <ele>185.40039</ele>
        <time>2026-05-15T12:09:26+02:00</time>
      </trkpt>
      <trkpt lat="47.2486" lon="5.44742">
        <ele>185.5</ele>
        <time>2026-05-15T12:09:27+02:00</time>
      </trkpt>
      <trkpt lat="47.24865" lon="5.44744">
        <ele>185.5</ele>
        <time>2026-05-15T12:09:28+02:00</time>
      </trkpt>
      <trkpt lat="47.24869" lon="5.44746">
        <ele>185.5</ele>
        <time>2026-05-15T12:09:29+02:00</time>
      </trkpt>
      <trkpt lat="47.24874" lon="5.44748">
        <ele>185.40039</ele>
        <time>2026-05-15T12:09:30+02:00</time>
      </trkpt>
      <trkpt lat="47.24879" lon="5.4475">
        <ele>185.40039</ele>
        <time>2026-05-15T12:09:31+02:00</time>
      </trkpt>
      <trkpt lat="47.24883" lon="5.44752">
        <ele>185.5</ele>
        <time>2026-05-15T12:09:32+02:00</time>
      </trkpt>
      <trkpt lat="47.24888" lon="5.44753">
        <ele>185.5</ele>
        <time>2026-05-15T12:09:33+02:00</time>
      </trkpt>
      <trkpt lat="47.24893" lon="5.44755">
        <ele>185.40039</ele>
        <time>2026-05-15T12:09:34+02:00</time>
      </trkpt>
      <trkpt lat="47.24898" lon="5.44757">
        <ele>185.40039</ele>
        <time>2026-05-15T12:09:35+02:00</time>
      </trkpt>
      <trkpt lat="47.24902" lon="5.44759">
        <ele>185.40039</ele>
        <time>2026-05-15T12:09:36+02:00</time>
      </trkpt>
      <trkpt lat="47.24907" lon="5.44761">
        <ele>185.40039</ele>
        <time>2026-05-15T12:09:37+02:00</time>
      </trkpt>
      <trkpt lat="47.24912" lon="5.44763">
        <ele>185.40039</ele>
        <time>2026-05-15T12:09:38+02:00</time>
      </trkpt>
      <trkpt lat="47.24917" lon="5.44765">
        <ele>185.40039</ele>
        <time>2026-05-15T12:09:39+02:00</time>
      </trkpt>
      <trkpt lat="47.24922" lon="5.44767">
        <ele>185.40039</ele>
        <time>2026-05-15T12:09:40+02:00</time>
      </trkpt>
      <trkpt lat="47.24927" lon="5.44769">
        <ele>185.5</ele>
        <time>2026-05-15T12:09:41+02:00</time>
      </trkpt>
      <trkpt lat="47.24932" lon="5.44771">
        <ele>185.5</ele>
        <time>2026-05-15T12:09:42+02:00</time>
      </trkpt>
      <trkpt lat="47.24937" lon="5.44773">
        <ele>185.5</ele>
        <time>2026-05-15T12:09:43+02:00</time>
      </trkpt>
      <trkpt lat="47.24943" lon="5.44775">
        <ele>185.5</ele>
        <time>2026-05-15T12:09:44+02:00</time>
      </trkpt>
      <trkpt lat="47.24947" lon="5.44777">
        <ele>185.60059</ele>
        <time>2026-05-15T12:09:45+02:00</time>
      </trkpt>
      <trkpt lat="47.24953" lon="5.44779">
        <ele>185.5</ele>
        <time>2026-05-15T12:09:46+02:00</time>
      </trkpt>
      <trkpt lat="47.24958" lon="5.44781">
        <ele>185.5</ele>
        <time>2026-05-15T12:09:47+02:00</time>
      </trkpt>
      <trkpt lat="47.24964" lon="5.44783">
        <ele>185.60059</ele>
        <time>2026-05-15T12:09:48+02:00</time>
      </trkpt>
      <trkpt lat="47.24969" lon="5.44785">
        <ele>185.60059</ele>
        <time>2026-05-15T12:09:49+02:00</time>
      </trkpt>
      <trkpt lat="47.24974" lon="5.44787">
        <ele>185.7002</ele>
        <time>2026-05-15T12:09:50+02:00</time>
      </trkpt>
      <trkpt lat="47.2498" lon="5.44789">
        <ele>185.7002</ele>
        <time>2026-05-15T12:09:51+02:00</time>
      </trkpt>
      <trkpt lat="47.24985" lon="5.4479">
        <ele>185.7002</ele>
        <time>2026-05-15T12:09:52+02:00</time>
      </trkpt>
      <trkpt lat="47.2499" lon="5.44792">
        <ele>185.7002</ele>
        <time>2026-05-15T12:09:53+02:00</time>
      </trkpt>
      <trkpt lat="47.24996" lon="5.44793">
        <ele>185.7998</ele>
        <time>2026-05-15T12:09:54+02:00</time>
      </trkpt>
      <trkpt lat="47.25001" lon="5.44793">
        <ele>185.90039</ele>
        <time>2026-05-15T12:09:55+02:00</time>
      </trkpt>
      <trkpt lat="47.25006" lon="5.44794">
        <ele>186</ele>
        <time>2026-05-15T12:09:56+02:00</time>
      </trkpt>
      <trkpt lat="47.25012" lon="5.44793">
        <ele>186</ele>
        <time>2026-05-15T12:09:57+02:00</time>
      </trkpt>
      <trkpt lat="47.25017" lon="5.44793">
        <ele>186.10059</ele>
        <time>2026-05-15T12:09:58+02:00</time>
      </trkpt>
      <trkpt lat="47.25022" lon="5.44792">
        <ele>186.10059</ele>
        <time>2026-05-15T12:09:59+02:00</time>
      </trkpt>
      <trkpt lat="47.25027" lon="5.44791">
        <ele>186.2002</ele>
        <time>2026-05-15T12:10:00+02:00</time>
      </trkpt>
      <trkpt lat="47.25032" lon="5.4479">
        <ele>186.2998</ele>
        <time>2026-05-15T12:10:01+02:00</time>
      </trkpt>
      <trkpt lat="47.25037" lon="5.44788">
        <ele>186.40039</ele>
        <time>2026-05-15T12:10:02+02:00</time>
      </trkpt>
      <trkpt lat="47.25042" lon="5.44787">
        <ele>186.5</ele>
        <time>2026-05-15T12:10:03+02:00</time>
      </trkpt>
      <trkpt lat="47.25046" lon="5.44785">
        <ele>186.60059</ele>
        <time>2026-05-15T12:10:04+02:00</time>
      </trkpt>
      <trkpt lat="47.25051" lon="5.44783">
        <ele>186.7002</ele>
        <time>2026-05-15T12:10:05+02:00</time>
      </trkpt>
      <trkpt lat="47.25056" lon="5.44781">
        <ele>186.7998</ele>
        <time>2026-05-15T12:10:06+02:00</time>
      </trkpt>
      <trkpt lat="47.2506" lon="5.4478">
        <ele>186.90039</ele>
        <time>2026-05-15T12:10:07+02:00</time>
      </trkpt>
      <trkpt lat="47.25065" lon="5.44778">
        <ele>187</ele>
        <time>2026-05-15T12:10:08+02:00</time>
      </trkpt>
      <trkpt lat="47.2507" lon="5.44776">
        <ele>187.10059</ele>
        <time>2026-05-15T12:10:09+02:00</time>
      </trkpt>
      <trkpt lat="47.25075" lon="5.44775">
        <ele>187.2998</ele>
        <time>2026-05-15T12:10:10+02:00</time>
      </trkpt>
      <trkpt lat="47.25079" lon="5.44773">
        <ele>187.2998</ele>
        <time>2026-05-15T12:10:11+02:00</time>
      </trkpt>
      <trkpt lat="47.25084" lon="5.44772">
        <ele>187.40039</ele>
        <time>2026-05-15T12:10:12+02:00</time>
      </trkpt>
      <trkpt lat="47.25089" lon="5.4477">
        <ele>187.40039</ele>
        <time>2026-05-15T12:10:13+02:00</time>
      </trkpt>
      <trkpt lat="47.25094" lon="5.44769">
        <ele>187.5</ele>
        <time>2026-05-15T12:10:14+02:00</time>
      </trkpt>
      <trkpt lat="47.25099" lon="5.44768">
        <ele>187.5</ele>
        <time>2026-05-15T12:10:15+02:00</time>
      </trkpt>
      <trkpt lat="47.25104" lon="5.44767">
        <ele>187.7002</ele>
        <time>2026-05-15T12:10:16+02:00</time>
      </trkpt>
      <trkpt lat="47.25108" lon="5.44767">
        <ele>187.7002</ele>
        <time>2026-05-15T12:10:17+02:00</time>
      </trkpt>
      <trkpt lat="47.25113" lon="5.44766">
        <ele>187.7002</ele>
        <time>2026-05-15T12:10:18+02:00</time>
      </trkpt>
      <trkpt lat="47.25119" lon="5.44766">
        <ele>187.7002</ele>
        <time>2026-05-15T12:10:19+02:00</time>
      </trkpt>
      <trkpt lat="47.25123" lon="5.44766">
        <ele>187.7002</ele>
        <time>2026-05-15T12:10:20+02:00</time>
      </trkpt>
      <trkpt lat="47.25128" lon="5.44766">
        <ele>187.7002</ele>
        <time>2026-05-15T12:10:21+02:00</time>
      </trkpt>
      <trkpt lat="47.25133" lon="5.44766">
        <ele>187.7002</ele>
        <time>2026-05-15T12:10:22+02:00</time>
      </trkpt>
      <trkpt lat="47.25138" lon="5.44767">
        <ele>187.7002</ele>
        <time>2026-05-15T12:10:23+02:00</time>
      </trkpt>
      <trkpt lat="47.25143" lon="5.44767">
        <ele>187.7002</ele>
        <time>2026-05-15T12:10:24+02:00</time>
      </trkpt>
      <trkpt lat="47.25148" lon="5.44768">
        <ele>187.5</ele>
        <time>2026-05-15T12:10:25+02:00</time>
      </trkpt>
      <trkpt lat="47.25152" lon="5.44768">
        <ele>187.5</ele>
        <time>2026-05-15T12:10:26+02:00</time>
      </trkpt>
      <trkpt lat="47.25157" lon="5.44769">
        <ele>187.5</ele>
        <time>2026-05-15T12:10:27+02:00</time>
      </trkpt>
      <trkpt lat="47.25162" lon="5.4477">
        <ele>187.5</ele>
        <time>2026-05-15T12:10:28+02:00</time>
      </trkpt>
      <trkpt lat="47.25166" lon="5.44771">
        <ele>187.5</ele>
        <time>2026-05-15T12:10:29+02:00</time>
      </trkpt>
      <trkpt lat="47.25171" lon="5.44772">
        <ele>187.60059</ele>
        <time>2026-05-15T12:10:30+02:00</time>
      </trkpt>
      <trkpt lat="47.25176" lon="5.44773">
        <ele>187.60059</ele>
        <time>2026-05-15T12:10:31+02:00</time>
      </trkpt>
      <trkpt lat="47.25181" lon="5.44774">
        <ele>187.60059</ele>
        <time>2026-05-15T12:10:32+02:00</time>
      </trkpt>
      <trkpt lat="47.25186" lon="5.44774">
        <ele>187.60059</ele>
        <time>2026-05-15T12:10:33+02:00</time>
      </trkpt>
      <trkpt lat="47.2519" lon="5.44775">
        <ele>187.60059</ele>
        <time>2026-05-15T12:10:34+02:00</time>
      </trkpt>
      <trkpt lat="47.25195" lon="5.44775">
        <ele>187.60059</ele>
        <time>2026-05-15T12:10:35+02:00</time>
      </trkpt>
      <trkpt lat="47.252" lon="5.44775">
        <ele>187.7002</ele>
        <time>2026-05-15T12:10:36+02:00</time>
      </trkpt>
      <trkpt lat="47.25204" lon="5.44775">
        <ele>187.7002</ele>
        <time>2026-05-15T12:10:37+02:00</time>
      </trkpt>
      <trkpt lat="47.25209" lon="5.44775">
        <ele>187.7002</ele>
        <time>2026-05-15T12:10:38+02:00</time>
      </trkpt>
      <trkpt lat="47.25213" lon="5.44775">
        <ele>187.7002</ele>
        <time>2026-05-15T12:10:39+02:00</time>
      </trkpt>
      <trkpt lat="47.25218" lon="5.44775">
        <ele>187.7002</ele>
        <time>2026-05-15T12:10:40+02:00</time>
      </trkpt>
      <trkpt lat="47.25222" lon="5.44775">
        <ele>187.7002</ele>
        <time>2026-05-15T12:10:41+02:00</time>
      </trkpt>
      <trkpt lat="47.25227" lon="5.44774">
        <ele>187.7002</ele>
        <time>2026-05-15T12:10:42+02:00</time>
      </trkpt>
      <trkpt lat="47.25231" lon="5.44774">
        <ele>187.7002</ele>
        <time>2026-05-15T12:10:43+02:00</time>
      </trkpt>
      <trkpt lat="47.25236" lon="5.44774">
        <ele>187.7002</ele>
        <time>2026-05-15T12:10:44+02:00</time>
      </trkpt>
      <trkpt lat="47.2524" lon="5.44774">
        <ele>187.60059</ele>
        <time>2026-05-15T12:10:45+02:00</time>
      </trkpt>
      <trkpt lat="47.25245" lon="5.44773">
        <ele>187.60059</ele>
        <time>2026-05-15T12:10:46+02:00</time>
      </trkpt>
      <trkpt lat="47.25249" lon="5.44773">
        <ele>187.60059</ele>
        <time>2026-05-15T12:10:47+02:00</time>
      </trkpt>
      <trkpt lat="47.25254" lon="5.44773">
        <ele>187.5</ele>
        <time>2026-05-15T12:10:48+02:00</time>
      </trkpt>
      <trkpt lat="47.25258" lon="5.44773">
        <ele>187.40039</ele>
        <time>2026-05-15T12:10:49+02:00</time>
      </trkpt>
      <trkpt lat="47.25263" lon="5.44773">
        <ele>187.2998</ele>
        <time>2026-05-15T12:10:50+02:00</time>
      </trkpt>
      <trkpt lat="47.25267" lon="5.44773">
        <ele>187.10059</ele>
        <time>2026-05-15T12:10:51+02:00</time>
      </trkpt>
      <trkpt lat="47.25271" lon="5.44773">
        <ele>187.10059</ele>
        <time>2026-05-15T12:10:52+02:00</time>
      </trkpt>
      <trkpt lat="47.25276" lon="5.44773">
        <ele>187</ele>
        <time>2026-05-15T12:10:53+02:00</time>
      </trkpt>
      <trkpt lat="47.2528" lon="5.44773">
        <ele>186.7998</ele>
        <time>2026-05-15T12:10:54+02:00</time>
      </trkpt>
      <trkpt lat="47.25284" lon="5.44774">
        <ele>186.7998</ele>
        <time>2026-05-15T12:10:55+02:00</time>
      </trkpt>
      <trkpt lat="47.25289" lon="5.44774">
        <ele>186.60059</ele>
        <time>2026-05-15T12:10:56+02:00</time>
      </trkpt>
      <trkpt lat="47.25293" lon="5.44774">
        <ele>186.40039</ele>
        <time>2026-05-15T12:10:57+02:00</time>
      </trkpt>
      <trkpt lat="47.25298" lon="5.44775">
        <ele>186.2002</ele>
        <time>2026-05-15T12:10:58+02:00</time>
      </trkpt>
      <trkpt lat="47.25302" lon="5.44775">
        <ele>186</ele>
        <time>2026-05-15T12:10:59+02:00</time>
      </trkpt>
      <trkpt lat="47.25306" lon="5.44776">
        <ele>186.10059</ele>
        <time>2026-05-15T12:11:00+02:00</time>
      </trkpt>
      <trkpt lat="47.25311" lon="5.44776">
        <ele>186</ele>
        <time>2026-05-15T12:11:01+02:00</time>
      </trkpt>
      <trkpt lat="47.25315" lon="5.44777">
        <ele>185.90039</ele>
        <time>2026-05-15T12:11:02+02:00</time>
      </trkpt>
      <trkpt lat="47.25319" lon="5.44778">
        <ele>185.90039</ele>
        <time>2026-05-15T12:11:03+02:00</time>
      </trkpt>
      <trkpt lat="47.25323" lon="5.44779">
        <ele>185.7002</ele>
        <time>2026-05-15T12:11:04+02:00</time>
      </trkpt>
      <trkpt lat="47.25327" lon="5.4478">
        <ele>185.60059</ele>
        <time>2026-05-15T12:11:05+02:00</time>
      </trkpt>
      <trkpt lat="47.25332" lon="5.4478">
        <ele>185.5</ele>
        <time>2026-05-15T12:11:06+02:00</time>
      </trkpt>
      <trkpt lat="47.25336" lon="5.44781">
        <ele>185.5</ele>
        <time>2026-05-15T12:11:07+02:00</time>
      </trkpt>
      <trkpt lat="47.2534" lon="5.44782">
        <ele>185.40039</ele>
        <time>2026-05-15T12:11:08+02:00</time>
      </trkpt>
      <trkpt lat="47.25344" lon="5.44784">
        <ele>185.40039</ele>
        <time>2026-05-15T12:11:09+02:00</time>
      </trkpt>
      <trkpt lat="47.25348" lon="5.44785">
        <ele>185.5</ele>
        <time>2026-05-15T12:11:10+02:00</time>
      </trkpt>
      <trkpt lat="47.25352" lon="5.44786">
        <ele>185.40039</ele>
        <time>2026-05-15T12:11:11+02:00</time>
      </trkpt>
      <trkpt lat="47.25356" lon="5.44788">
        <ele>185.2998</ele>
        <time>2026-05-15T12:11:12+02:00</time>
      </trkpt>
      <trkpt lat="47.25361" lon="5.4479">
        <ele>185.2002</ele>
        <time>2026-05-15T12:11:13+02:00</time>
      </trkpt>
      <trkpt lat="47.25365" lon="5.44792">
        <ele>185.2002</ele>
        <time>2026-05-15T12:11:14+02:00</time>
      </trkpt>
      <trkpt lat="47.25369" lon="5.44793">
        <ele>185.10059</ele>
        <time>2026-05-15T12:11:15+02:00</time>
      </trkpt>
      <trkpt lat="47.25373" lon="5.44795">
        <ele>185.2002</ele>
        <time>2026-05-15T12:11:16+02:00</time>
      </trkpt>
      <trkpt lat="47.25377" lon="5.44797">
        <ele>185.2002</ele>
        <time>2026-05-15T12:11:17+02:00</time>
      </trkpt>
      <trkpt lat="47.25382" lon="5.44799">
        <ele>185.10059</ele>
        <time>2026-05-15T12:11:18+02:00</time>
      </trkpt>
      <trkpt lat="47.25386" lon="5.44802">
        <ele>185.2002</ele>
        <time>2026-05-15T12:11:19+02:00</time>
      </trkpt>
      <trkpt lat="47.25391" lon="5.44804">
        <ele>185.10059</ele>
        <time>2026-05-15T12:11:20+02:00</time>
      </trkpt>
      <trkpt lat="47.25395" lon="5.44806">
        <ele>185.10059</ele>
        <time>2026-05-15T12:11:21+02:00</time>
      </trkpt>
      <trkpt lat="47.25399" lon="5.44808">
        <ele>185.10059</ele>
        <time>2026-05-15T12:11:22+02:00</time>
      </trkpt>
      <trkpt lat="47.25404" lon="5.44811">
        <ele>185.2002</ele>
        <time>2026-05-15T12:11:23+02:00</time>
      </trkpt>
      <trkpt lat="47.25408" lon="5.44813">
        <ele>185.2002</ele>
        <time>2026-05-15T12:11:24+02:00</time>
      </trkpt>
      <trkpt lat="47.25412" lon="5.44815">
        <ele>185.2002</ele>
        <time>2026-05-15T12:11:25+02:00</time>
      </trkpt>
      <trkpt lat="47.25416" lon="5.44818">
        <ele>185.2002</ele>
        <time>2026-05-15T12:11:26+02:00</time>
      </trkpt>
      <trkpt lat="47.25421" lon="5.4482">
        <ele>185.40039</ele>
        <time>2026-05-15T12:11:27+02:00</time>
      </trkpt>
      <trkpt lat="47.25425" lon="5.44823">
        <ele>185.40039</ele>
        <time>2026-05-15T12:11:28+02:00</time>
      </trkpt>
      <trkpt lat="47.2543" lon="5.44825">
        <ele>185.40039</ele>
        <time>2026-05-15T12:11:29+02:00</time>
      </trkpt>
      <trkpt lat="47.25434" lon="5.44827">
        <ele>185.40039</ele>
        <time>2026-05-15T12:11:30+02:00</time>
      </trkpt>
      <trkpt lat="47.25438" lon="5.4483">
        <ele>185.7002</ele>
        <time>2026-05-15T12:11:31+02:00</time>
      </trkpt>
      <trkpt lat="47.25443" lon="5.44832">
        <ele>185.7002</ele>
        <time>2026-05-15T12:11:32+02:00</time>
      </trkpt>
      <trkpt lat="47.25447" lon="5.44834">
        <ele>185.7002</ele>
        <time>2026-05-15T12:11:33+02:00</time>
      </trkpt>
      <trkpt lat="47.25451" lon="5.44837">
        <ele>186</ele>
        <time>2026-05-15T12:11:34+02:00</time>
      </trkpt>
      <trkpt lat="47.25455" lon="5.44839">
        <ele>186.10059</ele>
        <time>2026-05-15T12:11:35+02:00</time>
      </trkpt>
      <trkpt lat="47.2546" lon="5.44842">
        <ele>186.10059</ele>
        <time>2026-05-15T12:11:36+02:00</time>
      </trkpt>
      <trkpt lat="47.25464" lon="5.44844">
        <ele>186.10059</ele>
        <time>2026-05-15T12:11:37+02:00</time>
      </trkpt>
      <trkpt lat="47.25469" lon="5.44847">
        <ele>186.5</ele>
        <time>2026-05-15T12:11:38+02:00</time>
      </trkpt>
      <trkpt lat="47.25473" lon="5.44849">
        <ele>186.5</ele>
        <time>2026-05-15T12:11:39+02:00</time>
      </trkpt>
      <trkpt lat="47.25478" lon="5.44852">
        <ele>186.60059</ele>
        <time>2026-05-15T12:11:40+02:00</time>
      </trkpt>
      <trkpt lat="47.25482" lon="5.44854">
        <ele>186.90039</ele>
        <time>2026-05-15T12:11:41+02:00</time>
      </trkpt>
      <trkpt lat="47.25487" lon="5.44857">
        <ele>187</ele>
        <time>2026-05-15T12:11:42+02:00</time>
      </trkpt>
      <trkpt lat="47.25491" lon="5.44859">
        <ele>187.10059</ele>
        <time>2026-05-15T12:11:43+02:00</time>
      </trkpt>
      <trkpt lat="47.25496" lon="5.44861">
        <ele>187.10059</ele>
        <time>2026-05-15T12:11:44+02:00</time>
      </trkpt>
      <trkpt lat="47.255" lon="5.44864">
        <ele>187.5</ele>
        <time>2026-05-15T12:11:45+02:00</time>
      </trkpt>
      <trkpt lat="47.25504" lon="5.44866">
        <ele>187.5</ele>
        <time>2026-05-15T12:11:46+02:00</time>
      </trkpt>
      <trkpt lat="47.25509" lon="5.44868">
        <ele>187.60059</ele>
        <time>2026-05-15T12:11:47+02:00</time>
      </trkpt>
      <trkpt lat="47.25513" lon="5.44871">
        <ele>188</ele>
        <time>2026-05-15T12:11:48+02:00</time>
      </trkpt>
      <trkpt lat="47.25517" lon="5.44874">
        <ele>188</ele>
        <time>2026-05-15T12:11:49+02:00</time>
      </trkpt>
      <trkpt lat="47.25522" lon="5.44876">
        <ele>188.10059</ele>
        <time>2026-05-15T12:11:50+02:00</time>
      </trkpt>
      <trkpt lat="47.25526" lon="5.44878">
        <ele>188.2002</ele>
        <time>2026-05-15T12:11:51+02:00</time>
      </trkpt>
      <trkpt lat="47.25531" lon="5.44881">
        <ele>188.5</ele>
        <time>2026-05-15T12:11:52+02:00</time>
      </trkpt>
      <trkpt lat="47.25535" lon="5.44883">
        <ele>188.5</ele>
        <time>2026-05-15T12:11:53+02:00</time>
      </trkpt>
      <trkpt lat="47.2554" lon="5.44886">
        <ele>188.60059</ele>
        <time>2026-05-15T12:11:54+02:00</time>
      </trkpt>
      <trkpt lat="47.25544" lon="5.44888">
        <ele>189</ele>
        <time>2026-05-15T12:11:55+02:00</time>
      </trkpt>
      <trkpt lat="47.25549" lon="5.4489">
        <ele>189</ele>
        <time>2026-05-15T12:11:56+02:00</time>
      </trkpt>
      <trkpt lat="47.25553" lon="5.44893">
        <ele>189.10059</ele>
        <time>2026-05-15T12:11:57+02:00</time>
      </trkpt>
      <trkpt lat="47.25558" lon="5.44895">
        <ele>189.10059</ele>
        <time>2026-05-15T12:11:58+02:00</time>
      </trkpt>
      <trkpt lat="47.25562" lon="5.44897">
        <ele>189.40039</ele>
        <time>2026-05-15T12:11:59+02:00</time>
      </trkpt>
      <trkpt lat="47.25566" lon="5.44899">
        <ele>189.40039</ele>
        <time>2026-05-15T12:12:00+02:00</time>
      </trkpt>
      <trkpt lat="47.25579" lon="5.44906">
        <ele>189.7002</ele>
        <time>2026-05-15T12:12:01+02:00</time>
      </trkpt>
      <trkpt lat="47.25584" lon="5.44908">
        <ele>189.60059</ele>
        <time>2026-05-15T12:12:02+02:00</time>
      </trkpt>
      <trkpt lat="47.25588" lon="5.4491">
        <ele>189.60059</ele>
        <time>2026-05-15T12:12:03+02:00</time>
      </trkpt>
      <trkpt lat="47.25592" lon="5.44911">
        <ele>189.60059</ele>
        <time>2026-05-15T12:12:04+02:00</time>
      </trkpt>
      <trkpt lat="47.25597" lon="5.44912">
        <ele>189.60059</ele>
        <time>2026-05-15T12:12:05+02:00</time>
      </trkpt>
      <trkpt lat="47.25601" lon="5.44913">
        <ele>189.5</ele>
        <time>2026-05-15T12:12:06+02:00</time>
      </trkpt>
      <trkpt lat="47.25606" lon="5.44914">
        <ele>189.7998</ele>
        <time>2026-05-15T12:12:07+02:00</time>
      </trkpt>
      <trkpt lat="47.2561" lon="5.44914">
        <ele>189.7998</ele>
        <time>2026-05-15T12:12:08+02:00</time>
      </trkpt>
      <trkpt lat="47.25614" lon="5.44915">
        <ele>189.7002</ele>
        <time>2026-05-15T12:12:09+02:00</time>
      </trkpt>
      <trkpt lat="47.25618" lon="5.44915">
        <ele>189.60059</ele>
        <time>2026-05-15T12:12:10+02:00</time>
      </trkpt>
      <trkpt lat="47.25621" lon="5.44914">
        <ele>189.60059</ele>
        <time>2026-05-15T12:12:11+02:00</time>
      </trkpt>
      <trkpt lat="47.25623" lon="5.44909">
        <ele>189.2998</ele>
        <time>2026-05-15T12:12:12+02:00</time>
      </trkpt>
      <trkpt lat="47.25624" lon="5.44904">
        <ele>189</ele>
        <time>2026-05-15T12:12:13+02:00</time>
      </trkpt>
      <trkpt lat="47.25625" lon="5.44899">
        <ele>189</ele>
        <time>2026-05-15T12:12:14+02:00</time>
      </trkpt>
      <trkpt lat="47.25626" lon="5.44894">
        <ele>188.7002</ele>
        <time>2026-05-15T12:12:15+02:00</time>
      </trkpt>
      <trkpt lat="47.25628" lon="5.44889">
        <ele>188.7002</ele>
        <time>2026-05-15T12:12:16+02:00</time>
      </trkpt>
      <trkpt lat="47.25629" lon="5.44884">
        <ele>188.2998</ele>
        <time>2026-05-15T12:12:17+02:00</time>
      </trkpt>
      <trkpt lat="47.25631" lon="5.44879">
        <ele>188.2998</ele>
        <time>2026-05-15T12:12:18+02:00</time>
      </trkpt>
      <trkpt lat="47.25634" lon="5.44875">
        <ele>187.90039</ele>
        <time>2026-05-15T12:12:19+02:00</time>
      </trkpt>
      <trkpt lat="47.25637" lon="5.44871">
        <ele>187.90039</ele>
        <time>2026-05-15T12:12:20+02:00</time>
      </trkpt>
      <trkpt lat="47.25641" lon="5.44867">
        <ele>187.5</ele>
        <time>2026-05-15T12:12:21+02:00</time>
      </trkpt>
      <trkpt lat="47.25645" lon="5.44865">
        <ele>187.5</ele>
        <time>2026-05-15T12:12:22+02:00</time>
      </trkpt>
      <trkpt lat="47.25649" lon="5.44864">
        <ele>187.40039</ele>
        <time>2026-05-15T12:12:23+02:00</time>
      </trkpt>
      <trkpt lat="47.25654" lon="5.44864">
        <ele>187.2998</ele>
        <time>2026-05-15T12:12:24+02:00</time>
      </trkpt>
      <trkpt lat="47.25658" lon="5.44863">
        <ele>187.10059</ele>
        <time>2026-05-15T12:12:25+02:00</time>
      </trkpt>
      <trkpt lat="47.25662" lon="5.44864">
        <ele>187.10059</ele>
        <time>2026-05-15T12:12:26+02:00</time>
      </trkpt>
      <trkpt lat="47.25667" lon="5.44864">
        <ele>187</ele>
        <time>2026-05-15T12:12:27+02:00</time>
      </trkpt>
      <trkpt lat="47.25671" lon="5.44865">
        <ele>186.90039</ele>
        <time>2026-05-15T12:12:28+02:00</time>
      </trkpt>
      <trkpt lat="47.25675" lon="5.44866">
        <ele>186.7998</ele>
        <time>2026-05-15T12:12:29+02:00</time>
      </trkpt>
      <trkpt lat="47.2568" lon="5.44868">
        <ele>186.7998</ele>
        <time>2026-05-15T12:12:30+02:00</time>
      </trkpt>
      <trkpt lat="47.25684" lon="5.44869">
        <ele>186.7002</ele>
        <time>2026-05-15T12:12:31+02:00</time>
      </trkpt>
      <trkpt lat="47.25688" lon="5.4487">
        <ele>186.60059</ele>
        <time>2026-05-15T12:12:32+02:00</time>
      </trkpt>
      <trkpt lat="47.25692" lon="5.44872">
        <ele>186.90039</ele>
        <time>2026-05-15T12:12:33+02:00</time>
      </trkpt>
      <trkpt lat="47.25696" lon="5.44875">
        <ele>186.7998</ele>
        <time>2026-05-15T12:12:34+02:00</time>
      </trkpt>
      <trkpt lat="47.257" lon="5.44878">
        <ele>186.7002</ele>
        <time>2026-05-15T12:12:35+02:00</time>
      </trkpt>
      <trkpt lat="47.25703" lon="5.44882">
        <ele>187</ele>
        <time>2026-05-15T12:12:36+02:00</time>
      </trkpt>
      <trkpt lat="47.25706" lon="5.44886">
        <ele>186.90039</ele>
        <time>2026-05-15T12:12:37+02:00</time>
      </trkpt>
      <trkpt lat="47.2571" lon="5.44891">
        <ele>187.10059</ele>
        <time>2026-05-15T12:12:38+02:00</time>
      </trkpt>
      <trkpt lat="47.25713" lon="5.44895">
        <ele>187.10059</ele>
        <time>2026-05-15T12:12:39+02:00</time>
      </trkpt>
      <trkpt lat="47.25715" lon="5.449">
        <ele>187.40039</ele>
        <time>2026-05-15T12:12:40+02:00</time>
      </trkpt>
      <trkpt lat="47.25718" lon="5.44905">
        <ele>187.60059</ele>
        <time>2026-05-15T12:12:41+02:00</time>
      </trkpt>
      <trkpt lat="47.25721" lon="5.4491">
        <ele>187.60059</ele>
        <time>2026-05-15T12:12:42+02:00</time>
      </trkpt>
      <trkpt lat="47.25723" lon="5.44915">
        <ele>187.7998</ele>
        <time>2026-05-15T12:12:43+02:00</time>
      </trkpt>
      <trkpt lat="47.25726" lon="5.4492">
        <ele>187.7998</ele>
        <time>2026-05-15T12:12:44+02:00</time>
      </trkpt>
      <trkpt lat="47.25729" lon="5.44925">
        <ele>187.90039</ele>
        <time>2026-05-15T12:12:45+02:00</time>
      </trkpt>
      <trkpt lat="47.25731" lon="5.4493">
        <ele>187.90039</ele>
        <time>2026-05-15T12:12:46+02:00</time>
      </trkpt>
      <trkpt lat="47.25734" lon="5.44935">
        <ele>188</ele>
        <time>2026-05-15T12:12:47+02:00</time>
      </trkpt>
      <trkpt lat="47.25737" lon="5.4494">
        <ele>188.2998</ele>
        <time>2026-05-15T12:12:48+02:00</time>
      </trkpt>
      <trkpt lat="47.25739" lon="5.44945">
        <ele>188.2002</ele>
        <time>2026-05-15T12:12:49+02:00</time>
      </trkpt>
      <trkpt lat="47.25742" lon="5.4495">
        <ele>188.40039</ele>
        <time>2026-05-15T12:12:50+02:00</time>
      </trkpt>
      <trkpt lat="47.25745" lon="5.44954">
        <ele>188.2002</ele>
        <time>2026-05-15T12:12:51+02:00</time>
      </trkpt>
      <trkpt lat="47.25748" lon="5.44959">
        <ele>188.40039</ele>
        <time>2026-05-15T12:12:52+02:00</time>
      </trkpt>
      <trkpt lat="47.25751" lon="5.44963">
        <ele>188.2998</ele>
        <time>2026-05-15T12:12:53+02:00</time>
      </trkpt>
      <trkpt lat="47.25754" lon="5.44968">
        <ele>188.5</ele>
        <time>2026-05-15T12:12:54+02:00</time>
      </trkpt>
      <trkpt lat="47.25758" lon="5.44972">
        <ele>188.40039</ele>
        <time>2026-05-15T12:12:55+02:00</time>
      </trkpt>
      <trkpt lat="47.25761" lon="5.44976">
        <ele>188.60059</ele>
        <time>2026-05-15T12:12:56+02:00</time>
      </trkpt>
      <trkpt lat="47.25764" lon="5.4498">
        <ele>188.40039</ele>
        <time>2026-05-15T12:12:57+02:00</time>
      </trkpt>
      <trkpt lat="47.25767" lon="5.44984">
        <ele>188.60059</ele>
        <time>2026-05-15T12:12:58+02:00</time>
      </trkpt>
      <trkpt lat="47.25771" lon="5.44988">
        <ele>188.5</ele>
        <time>2026-05-15T12:12:59+02:00</time>
      </trkpt>
      <trkpt lat="47.25774" lon="5.44992">
        <ele>188.60059</ele>
        <time>2026-05-15T12:13:00+02:00</time>
      </trkpt>
      <trkpt lat="47.25778" lon="5.44996">
        <ele>188.60059</ele>
        <time>2026-05-15T12:13:01+02:00</time>
      </trkpt>
      <trkpt lat="47.25781" lon="5.45">
        <ele>188.7998</ele>
        <time>2026-05-15T12:13:02+02:00</time>
      </trkpt>
      <trkpt lat="47.25784" lon="5.45004">
        <ele>188.7998</ele>
        <time>2026-05-15T12:13:03+02:00</time>
      </trkpt>
      <trkpt lat="47.25787" lon="5.45008">
        <ele>189</ele>
        <time>2026-05-15T12:13:04+02:00</time>
      </trkpt>
      <trkpt lat="47.25791" lon="5.45012">
        <ele>189</ele>
        <time>2026-05-15T12:13:05+02:00</time>
      </trkpt>
      <trkpt lat="47.25794" lon="5.45016">
        <ele>188.90039</ele>
        <time>2026-05-15T12:13:06+02:00</time>
      </trkpt>
      <trkpt lat="47.25797" lon="5.4502">
        <ele>189.10059</ele>
        <time>2026-05-15T12:13:07+02:00</time>
      </trkpt>
      <trkpt lat="47.258" lon="5.45024">
        <ele>189</ele>
        <time>2026-05-15T12:13:08+02:00</time>
      </trkpt>
      <trkpt lat="47.25804" lon="5.45028">
        <ele>189.10059</ele>
        <time>2026-05-15T12:13:09+02:00</time>
      </trkpt>
      <trkpt lat="47.25807" lon="5.45032">
        <ele>189.10059</ele>
        <time>2026-05-15T12:13:10+02:00</time>
      </trkpt>
      <trkpt lat="47.2581" lon="5.45035">
        <ele>189.2002</ele>
        <time>2026-05-15T12:13:11+02:00</time>
      </trkpt>
      <trkpt lat="47.25813" lon="5.45039">
        <ele>189.2002</ele>
        <time>2026-05-15T12:13:12+02:00</time>
      </trkpt>
      <trkpt lat="47.25816" lon="5.45043">
        <ele>189.2998</ele>
        <time>2026-05-15T12:13:13+02:00</time>
      </trkpt>
      <trkpt lat="47.2582" lon="5.45047">
        <ele>189.2998</ele>
        <time>2026-05-15T12:13:14+02:00</time>
      </trkpt>
      <trkpt lat="47.25823" lon="5.45051">
        <ele>189.2998</ele>
        <time>2026-05-15T12:13:15+02:00</time>
      </trkpt>
      <trkpt lat="47.25826" lon="5.45054">
        <ele>189.2998</ele>
        <time>2026-05-15T12:13:16+02:00</time>
      </trkpt>
      <trkpt lat="47.2583" lon="5.45058">
        <ele>189.2002</ele>
        <time>2026-05-15T12:13:17+02:00</time>
      </trkpt>
      <trkpt lat="47.25833" lon="5.45062">
        <ele>189.2998</ele>
        <time>2026-05-15T12:13:18+02:00</time>
      </trkpt>
      <trkpt lat="47.25836" lon="5.45066">
        <ele>189.2998</ele>
        <time>2026-05-15T12:13:19+02:00</time>
      </trkpt>
      <trkpt lat="47.2584" lon="5.4507">
        <ele>189.40039</ele>
        <time>2026-05-15T12:13:20+02:00</time>
      </trkpt>
      <trkpt lat="47.25843" lon="5.45073">
        <ele>189.40039</ele>
        <time>2026-05-15T12:13:21+02:00</time>
      </trkpt>
      <trkpt lat="47.25846" lon="5.45077">
        <ele>189.60059</ele>
        <time>2026-05-15T12:13:22+02:00</time>
      </trkpt>
      <trkpt lat="47.25849" lon="5.45081">
        <ele>189.60059</ele>
        <time>2026-05-15T12:13:23+02:00</time>
      </trkpt>
      <trkpt lat="47.25852" lon="5.45085">
        <ele>189.7998</ele>
        <time>2026-05-15T12:13:24+02:00</time>
      </trkpt>
      <trkpt lat="47.25856" lon="5.45088">
        <ele>189.7998</ele>
        <time>2026-05-15T12:13:25+02:00</time>
      </trkpt>
      <trkpt lat="47.25859" lon="5.45092">
        <ele>189.7998</ele>
        <time>2026-05-15T12:13:26+02:00</time>
      </trkpt>
      <trkpt lat="47.25862" lon="5.45096">
        <ele>190.10059</ele>
        <time>2026-05-15T12:13:27+02:00</time>
      </trkpt>
      <trkpt lat="47.25865" lon="5.451">
        <ele>190.10059</ele>
        <time>2026-05-15T12:13:28+02:00</time>
      </trkpt>
      <trkpt lat="47.25869" lon="5.45103">
        <ele>190.2998</ele>
        <time>2026-05-15T12:13:29+02:00</time>
      </trkpt>
      <trkpt lat="47.25872" lon="5.45107">
        <ele>190.2998</ele>
        <time>2026-05-15T12:13:30+02:00</time>
      </trkpt>
      <trkpt lat="47.25875" lon="5.45111">
        <ele>190.60059</ele>
        <time>2026-05-15T12:13:31+02:00</time>
      </trkpt>
      <trkpt lat="47.25878" lon="5.45115">
        <ele>190.60059</ele>
        <time>2026-05-15T12:13:32+02:00</time>
      </trkpt>
      <trkpt lat="47.25881" lon="5.45119">
        <ele>190.5</ele>
        <time>2026-05-15T12:13:33+02:00</time>
      </trkpt>
      <trkpt lat="47.25884" lon="5.45122">
        <ele>190.7998</ele>
        <time>2026-05-15T12:13:34+02:00</time>
      </trkpt>
      <trkpt lat="47.25887" lon="5.45126">
        <ele>190.7998</ele>
        <time>2026-05-15T12:13:35+02:00</time>
      </trkpt>
      <trkpt lat="47.25891" lon="5.45129">
        <ele>191.10059</ele>
        <time>2026-05-15T12:13:36+02:00</time>
      </trkpt>
      <trkpt lat="47.25894" lon="5.45133">
        <ele>191.10059</ele>
        <time>2026-05-15T12:13:37+02:00</time>
      </trkpt>
      <trkpt lat="47.25897" lon="5.45137">
        <ele>191.2998</ele>
        <time>2026-05-15T12:13:38+02:00</time>
      </trkpt>
      <trkpt lat="47.259" lon="5.4514">
        <ele>191.2998</ele>
        <time>2026-05-15T12:13:39+02:00</time>
      </trkpt>
      <trkpt lat="47.25904" lon="5.45144">
        <ele>191.2002</ele>
        <time>2026-05-15T12:13:40+02:00</time>
      </trkpt>
      <trkpt lat="47.25907" lon="5.45147">
        <ele>191.5</ele>
        <time>2026-05-15T12:13:41+02:00</time>
      </trkpt>
      <trkpt lat="47.25911" lon="5.45149">
        <ele>191.40039</ele>
        <time>2026-05-15T12:13:42+02:00</time>
      </trkpt>
      <trkpt lat="47.25914" lon="5.45152">
        <ele>191.40039</ele>
        <time>2026-05-15T12:13:43+02:00</time>
      </trkpt>
      <trkpt lat="47.25918" lon="5.45155">
        <ele>191.7002</ele>
        <time>2026-05-15T12:13:44+02:00</time>
      </trkpt>
      <trkpt lat="47.25921" lon="5.45157">
        <ele>191.60059</ele>
        <time>2026-05-15T12:13:45+02:00</time>
      </trkpt>
      <trkpt lat="47.25924" lon="5.45159">
        <ele>191.60059</ele>
        <time>2026-05-15T12:13:46+02:00</time>
      </trkpt>
      <trkpt lat="47.25928" lon="5.45161">
        <ele>191.5</ele>
        <time>2026-05-15T12:13:47+02:00</time>
      </trkpt>
      <trkpt lat="47.25932" lon="5.45163">
        <ele>191.7998</ele>
        <time>2026-05-15T12:13:48+02:00</time>
      </trkpt>
      <trkpt lat="47.25935" lon="5.45165">
        <ele>191.7998</ele>
        <time>2026-05-15T12:13:49+02:00</time>
      </trkpt>
      <trkpt lat="47.25939" lon="5.45167">
        <ele>191.7002</ele>
        <time>2026-05-15T12:13:50+02:00</time>
      </trkpt>
      <trkpt lat="47.25943" lon="5.45169">
        <ele>191.60059</ele>
        <time>2026-05-15T12:13:51+02:00</time>
      </trkpt>
      <trkpt lat="47.25947" lon="5.45171">
        <ele>191.90039</ele>
        <time>2026-05-15T12:13:52+02:00</time>
      </trkpt>
      <trkpt lat="47.25951" lon="5.45174">
        <ele>191.7998</ele>
        <time>2026-05-15T12:13:53+02:00</time>
      </trkpt>
      <trkpt lat="47.25955" lon="5.45176">
        <ele>191.7002</ele>
        <time>2026-05-15T12:13:54+02:00</time>
      </trkpt>
      <trkpt lat="47.25959" lon="5.45178">
        <ele>191.7002</ele>
        <time>2026-05-15T12:13:55+02:00</time>
      </trkpt>
      <trkpt lat="47.25963" lon="5.45181">
        <ele>192</ele>
        <time>2026-05-15T12:13:56+02:00</time>
      </trkpt>
      <trkpt lat="47.25967" lon="5.45184">
        <ele>191.7998</ele>
        <time>2026-05-15T12:13:57+02:00</time>
      </trkpt>
      <trkpt lat="47.25971" lon="5.45187">
        <ele>191.7998</ele>
        <time>2026-05-15T12:13:58+02:00</time>
      </trkpt>
      <trkpt lat="47.25975" lon="5.45189">
        <ele>192</ele>
        <time>2026-05-15T12:13:59+02:00</time>
      </trkpt>
      <trkpt lat="47.25979" lon="5.4519">
        <ele>191.90039</ele>
        <time>2026-05-15T12:14:00+02:00</time>
      </trkpt>
      <trkpt lat="47.25983" lon="5.45193">
        <ele>191.90039</ele>
        <time>2026-05-15T12:14:01+02:00</time>
      </trkpt>
      <trkpt lat="47.25987" lon="5.45195">
        <ele>191.7998</ele>
        <time>2026-05-15T12:14:02+02:00</time>
      </trkpt>
      <trkpt lat="47.25991" lon="5.45197">
        <ele>191.90039</ele>
        <time>2026-05-15T12:14:03+02:00</time>
      </trkpt>
      <trkpt lat="47.25995" lon="5.45199">
        <ele>191.90039</ele>
        <time>2026-05-15T12:14:04+02:00</time>
      </trkpt>
      <trkpt lat="47.25999" lon="5.45201">
        <ele>191.7998</ele>
        <time>2026-05-15T12:14:05+02:00</time>
      </trkpt>
      <trkpt lat="47.26003" lon="5.45203">
        <ele>191.7002</ele>
        <time>2026-05-15T12:14:06+02:00</time>
      </trkpt>
      <trkpt lat="47.26007" lon="5.45205">
        <ele>191.7002</ele>
        <time>2026-05-15T12:14:07+02:00</time>
      </trkpt>
      <trkpt lat="47.26011" lon="5.45207">
        <ele>192</ele>
        <time>2026-05-15T12:14:08+02:00</time>
      </trkpt>
      <trkpt lat="47.26016" lon="5.45209">
        <ele>191.90039</ele>
        <time>2026-05-15T12:14:09+02:00</time>
      </trkpt>
      <trkpt lat="47.2602" lon="5.45211">
        <ele>191.7002</ele>
        <time>2026-05-15T12:14:10+02:00</time>
      </trkpt>
      <trkpt lat="47.26024" lon="5.45213">
        <ele>191.7002</ele>
        <time>2026-05-15T12:14:11+02:00</time>
      </trkpt>
      <trkpt lat="47.26028" lon="5.45215">
        <ele>191.90039</ele>
        <time>2026-05-15T12:14:12+02:00</time>
      </trkpt>
      <trkpt lat="47.26032" lon="5.45217">
        <ele>191.7998</ele>
        <time>2026-05-15T12:14:13+02:00</time>
      </trkpt>
      <trkpt lat="47.26036" lon="5.4522">
        <ele>191.60059</ele>
        <time>2026-05-15T12:14:14+02:00</time>
      </trkpt>
      <trkpt lat="47.2604" lon="5.45222">
        <ele>191.60059</ele>
        <time>2026-05-15T12:14:15+02:00</time>
      </trkpt>
      <trkpt lat="47.26043" lon="5.45223">
        <ele>191.7002</ele>
        <time>2026-05-15T12:14:16+02:00</time>
      </trkpt>
      <trkpt lat="47.26047" lon="5.45225">
        <ele>191.7002</ele>
        <time>2026-05-15T12:14:17+02:00</time>
      </trkpt>
      <trkpt lat="47.26051" lon="5.45227">
        <ele>191.60059</ele>
        <time>2026-05-15T12:14:18+02:00</time>
      </trkpt>
      <trkpt lat="47.26055" lon="5.4523">
        <ele>191.40039</ele>
        <time>2026-05-15T12:14:19+02:00</time>
      </trkpt>
      <trkpt lat="47.26059" lon="5.45232">
        <ele>191.7002</ele>
        <time>2026-05-15T12:14:20+02:00</time>
      </trkpt>
      <trkpt lat="47.26063" lon="5.45234">
        <ele>191.60059</ele>
        <time>2026-05-15T12:14:21+02:00</time>
      </trkpt>
      <trkpt lat="47.26067" lon="5.45236">
        <ele>191.40039</ele>
        <time>2026-05-15T12:14:22+02:00</time>
      </trkpt>
      <trkpt lat="47.26071" lon="5.45237">
        <ele>191.2002</ele>
        <time>2026-05-15T12:14:23+02:00</time>
      </trkpt>
      <trkpt lat="47.26075" lon="5.4524">
        <ele>191.5</ele>
        <time>2026-05-15T12:14:24+02:00</time>
      </trkpt>
      <trkpt lat="47.26079" lon="5.45241">
        <ele>191.40039</ele>
        <time>2026-05-15T12:14:25+02:00</time>
      </trkpt>
      <trkpt lat="47.26083" lon="5.45243">
        <ele>191.2002</ele>
        <time>2026-05-15T12:14:26+02:00</time>
      </trkpt>
      <trkpt lat="47.26087" lon="5.45245">
        <ele>191.2002</ele>
        <time>2026-05-15T12:14:27+02:00</time>
      </trkpt>
      <trkpt lat="47.26092" lon="5.45247">
        <ele>191.10059</ele>
        <time>2026-05-15T12:14:28+02:00</time>
      </trkpt>
      <trkpt lat="47.26096" lon="5.45249">
        <ele>191.2002</ele>
        <time>2026-05-15T12:14:29+02:00</time>
      </trkpt>
      <trkpt lat="47.261" lon="5.4525">
        <ele>191</ele>
        <time>2026-05-15T12:14:30+02:00</time>
      </trkpt>
      <trkpt lat="47.26104" lon="5.45253">
        <ele>191</ele>
        <time>2026-05-15T12:14:31+02:00</time>
      </trkpt>
      <trkpt lat="47.26108" lon="5.45255">
        <ele>190.90039</ele>
        <time>2026-05-15T12:14:32+02:00</time>
      </trkpt>
      <trkpt lat="47.26112" lon="5.45257">
        <ele>190.90039</ele>
        <time>2026-05-15T12:14:33+02:00</time>
      </trkpt>
      <trkpt lat="47.26116" lon="5.45259">
        <ele>190.90039</ele>
        <time>2026-05-15T12:14:34+02:00</time>
      </trkpt>
      <trkpt lat="47.26119" lon="5.45261">
        <ele>190.7998</ele>
        <time>2026-05-15T12:14:35+02:00</time>
      </trkpt>
      <trkpt lat="47.26123" lon="5.45263">
        <ele>190.7998</ele>
        <time>2026-05-15T12:14:36+02:00</time>
      </trkpt>
      <trkpt lat="47.26127" lon="5.45265">
        <ele>190.60059</ele>
        <time>2026-05-15T12:14:37+02:00</time>
      </trkpt>
      <trkpt lat="47.2613" lon="5.45266">
        <ele>190.7002</ele>
        <time>2026-05-15T12:14:38+02:00</time>
      </trkpt>
      <trkpt lat="47.26134" lon="5.45268">
        <ele>190.7002</ele>
        <time>2026-05-15T12:14:39+02:00</time>
      </trkpt>
      <trkpt lat="47.26138" lon="5.4527">
        <ele>190.5</ele>
        <time>2026-05-15T12:14:40+02:00</time>
      </trkpt>
      <trkpt lat="47.26141" lon="5.45272">
        <ele>190.40039</ele>
        <time>2026-05-15T12:14:41+02:00</time>
      </trkpt>
      <trkpt lat="47.26146" lon="5.45273">
        <ele>190.40039</ele>
        <time>2026-05-15T12:14:42+02:00</time>
      </trkpt>
      <trkpt lat="47.26149" lon="5.45275">
        <ele>190.60059</ele>
        <time>2026-05-15T12:14:43+02:00</time>
      </trkpt>
      <trkpt lat="47.26154" lon="5.45276">
        <ele>190.40039</ele>
        <time>2026-05-15T12:14:44+02:00</time>
      </trkpt>
      <trkpt lat="47.26158" lon="5.45277">
        <ele>190.40039</ele>
        <time>2026-05-15T12:14:45+02:00</time>
      </trkpt>
      <trkpt lat="47.26162" lon="5.45278">
        <ele>190.2998</ele>
        <time>2026-05-15T12:14:46+02:00</time>
      </trkpt>
      <trkpt lat="47.26166" lon="5.45279">
        <ele>190.2998</ele>
        <time>2026-05-15T12:14:47+02:00</time>
      </trkpt>
      <trkpt lat="47.2617" lon="5.45279">
        <ele>190.2002</ele>
        <time>2026-05-15T12:14:48+02:00</time>
      </trkpt>
      <trkpt lat="47.26174" lon="5.4528">
        <ele>190.2002</ele>
        <time>2026-05-15T12:14:49+02:00</time>
      </trkpt>
      <trkpt lat="47.26178" lon="5.45281">
        <ele>190.10059</ele>
        <time>2026-05-15T12:14:50+02:00</time>
      </trkpt>
      <trkpt lat="47.26182" lon="5.45282">
        <ele>190</ele>
        <time>2026-05-15T12:14:51+02:00</time>
      </trkpt>
      <trkpt lat="47.26185" lon="5.45282">
        <ele>190</ele>
        <time>2026-05-15T12:14:52+02:00</time>
      </trkpt>
      <trkpt lat="47.26188" lon="5.45283">
        <ele>190.2002</ele>
        <time>2026-05-15T12:14:53+02:00</time>
      </trkpt>
      <trkpt lat="47.26192" lon="5.45283">
        <ele>190.2002</ele>
        <time>2026-05-15T12:14:54+02:00</time>
      </trkpt>
      <trkpt lat="47.26195" lon="5.45283">
        <ele>190.10059</ele>
        <time>2026-05-15T12:14:55+02:00</time>
      </trkpt>
      <trkpt lat="47.26198" lon="5.45284">
        <ele>190.10059</ele>
        <time>2026-05-15T12:14:56+02:00</time>
      </trkpt>
      <trkpt lat="47.262" lon="5.45285">
        <ele>190.10059</ele>
        <time>2026-05-15T12:14:57+02:00</time>
      </trkpt>
      <trkpt lat="47.26203" lon="5.45284">
        <ele>190.10059</ele>
        <time>2026-05-15T12:14:58+02:00</time>
      </trkpt>
      <trkpt lat="47.26205" lon="5.45284">
        <ele>190</ele>
        <time>2026-05-15T12:14:59+02:00</time>
      </trkpt>
      <trkpt lat="47.26208" lon="5.45285">
        <ele>190</ele>
        <time>2026-05-15T12:15:00+02:00</time>
      </trkpt>
      <trkpt lat="47.26211" lon="5.45285">
        <ele>190</ele>
        <time>2026-05-15T12:15:01+02:00</time>
      </trkpt>
      <trkpt lat="47.26214" lon="5.45284">
        <ele>190</ele>
        <time>2026-05-15T12:15:02+02:00</time>
      </trkpt>
      <trkpt lat="47.26217" lon="5.45283">
        <ele>189.90039</ele>
        <time>2026-05-15T12:15:03+02:00</time>
      </trkpt>
      <trkpt lat="47.26221" lon="5.45282">
        <ele>189.7002</ele>
        <time>2026-05-15T12:15:04+02:00</time>
      </trkpt>
      <trkpt lat="47.26225" lon="5.45281">
        <ele>189.7002</ele>
        <time>2026-05-15T12:15:05+02:00</time>
      </trkpt>
      <trkpt lat="47.26228" lon="5.45279">
        <ele>189.7002</ele>
        <time>2026-05-15T12:15:06+02:00</time>
      </trkpt>
      <trkpt lat="47.26232" lon="5.45278">
        <ele>189.7002</ele>
        <time>2026-05-15T12:15:07+02:00</time>
      </trkpt>
      <trkpt lat="47.26236" lon="5.45276">
        <ele>189.60059</ele>
        <time>2026-05-15T12:15:08+02:00</time>
      </trkpt>
      <trkpt lat="47.2624" lon="5.45274">
        <ele>189.60059</ele>
        <time>2026-05-15T12:15:09+02:00</time>
      </trkpt>
      <trkpt lat="47.26244" lon="5.45272">
        <ele>189.5</ele>
        <time>2026-05-15T12:15:10+02:00</time>
      </trkpt>
      <trkpt lat="47.26248" lon="5.4527">
        <ele>189.5</ele>
        <time>2026-05-15T12:15:11+02:00</time>
      </trkpt>
      <trkpt lat="47.26253" lon="5.45268">
        <ele>189.40039</ele>
        <time>2026-05-15T12:15:12+02:00</time>
      </trkpt>
      <trkpt lat="47.26257" lon="5.45266">
        <ele>189.40039</ele>
        <time>2026-05-15T12:15:13+02:00</time>
      </trkpt>
      <trkpt lat="47.26261" lon="5.45264">
        <ele>189.2998</ele>
        <time>2026-05-15T12:15:14+02:00</time>
      </trkpt>
      <trkpt lat="47.26266" lon="5.45262">
        <ele>189.2998</ele>
        <time>2026-05-15T12:15:15+02:00</time>
      </trkpt>
      <trkpt lat="47.2627" lon="5.4526">
        <ele>189.2998</ele>
        <time>2026-05-15T12:15:16+02:00</time>
      </trkpt>
      <trkpt lat="47.26275" lon="5.45258">
        <ele>189.2002</ele>
        <time>2026-05-15T12:15:17+02:00</time>
      </trkpt>
      <trkpt lat="47.2628" lon="5.45256">
        <ele>189.2002</ele>
        <time>2026-05-15T12:15:18+02:00</time>
      </trkpt>
      <trkpt lat="47.26284" lon="5.45254">
        <ele>189.10059</ele>
        <time>2026-05-15T12:15:19+02:00</time>
      </trkpt>
      <trkpt lat="47.26289" lon="5.45252">
        <ele>189.10059</ele>
        <time>2026-05-15T12:15:20+02:00</time>
      </trkpt>
      <trkpt lat="47.26293" lon="5.45251">
        <ele>189.10059</ele>
        <time>2026-05-15T12:15:21+02:00</time>
      </trkpt>
      <trkpt lat="47.26298" lon="5.45249">
        <ele>189.10059</ele>
        <time>2026-05-15T12:15:22+02:00</time>
      </trkpt>
      <trkpt lat="47.26302" lon="5.45248">
        <ele>189</ele>
        <time>2026-05-15T12:15:23+02:00</time>
      </trkpt>
      <trkpt lat="47.26307" lon="5.45246">
        <ele>189</ele>
        <time>2026-05-15T12:15:24+02:00</time>
      </trkpt>
      <trkpt lat="47.26311" lon="5.45245">
        <ele>188.90039</ele>
        <time>2026-05-15T12:15:25+02:00</time>
      </trkpt>
      <trkpt lat="47.26315" lon="5.45244">
        <ele>188.90039</ele>
        <time>2026-05-15T12:15:26+02:00</time>
      </trkpt>
      <trkpt lat="47.2632" lon="5.45242">
        <ele>188.90039</ele>
        <time>2026-05-15T12:15:27+02:00</time>
      </trkpt>
      <trkpt lat="47.26325" lon="5.45241">
        <ele>188.90039</ele>
        <time>2026-05-15T12:15:28+02:00</time>
      </trkpt>
      <trkpt lat="47.26329" lon="5.4524">
        <ele>188.90039</ele>
        <time>2026-05-15T12:15:29+02:00</time>
      </trkpt>
      <trkpt lat="47.26334" lon="5.4524">
        <ele>188.7998</ele>
        <time>2026-05-15T12:15:30+02:00</time>
      </trkpt>
      <trkpt lat="47.26339" lon="5.45239">
        <ele>188.7002</ele>
        <time>2026-05-15T12:15:31+02:00</time>
      </trkpt>
      <trkpt lat="47.26343" lon="5.45238">
        <ele>188.7002</ele>
        <time>2026-05-15T12:15:32+02:00</time>
      </trkpt>
      <trkpt lat="47.26348" lon="5.45237">
        <ele>188.60059</ele>
        <time>2026-05-15T12:15:33+02:00</time>
      </trkpt>
      <trkpt lat="47.26353" lon="5.45236">
        <ele>188.60059</ele>
        <time>2026-05-15T12:15:34+02:00</time>
      </trkpt>
      <trkpt lat="47.26357" lon="5.45236">
        <ele>188.5</ele>
        <time>2026-05-15T12:15:35+02:00</time>
      </trkpt>
      <trkpt lat="47.26362" lon="5.45235">
        <ele>188.5</ele>
        <time>2026-05-15T12:15:36+02:00</time>
      </trkpt>
      <trkpt lat="47.26367" lon="5.45234">
        <ele>188.5</ele>
        <time>2026-05-15T12:15:37+02:00</time>
      </trkpt>
      <trkpt lat="47.26372" lon="5.45233">
        <ele>188.40039</ele>
        <time>2026-05-15T12:15:38+02:00</time>
      </trkpt>
      <trkpt lat="47.26377" lon="5.45233">
        <ele>188.40039</ele>
        <time>2026-05-15T12:15:39+02:00</time>
      </trkpt>
      <trkpt lat="47.26382" lon="5.45232">
        <ele>188.2998</ele>
        <time>2026-05-15T12:15:40+02:00</time>
      </trkpt>
      <trkpt lat="47.26387" lon="5.45232">
        <ele>188.2002</ele>
        <time>2026-05-15T12:15:41+02:00</time>
      </trkpt>
      <trkpt lat="47.26392" lon="5.45231">
        <ele>188.2002</ele>
        <time>2026-05-15T12:15:42+02:00</time>
      </trkpt>
      <trkpt lat="47.26396" lon="5.45231">
        <ele>188.2002</ele>
        <time>2026-05-15T12:15:43+02:00</time>
      </trkpt>
      <trkpt lat="47.26401" lon="5.4523">
        <ele>188</ele>
        <time>2026-05-15T12:15:44+02:00</time>
      </trkpt>
      <trkpt lat="47.26406" lon="5.4523">
        <ele>188</ele>
        <time>2026-05-15T12:15:45+02:00</time>
      </trkpt>
      <trkpt lat="47.2641" lon="5.45229">
        <ele>187.90039</ele>
        <time>2026-05-15T12:15:46+02:00</time>
      </trkpt>
      <trkpt lat="47.26415" lon="5.45229">
        <ele>187.90039</ele>
        <time>2026-05-15T12:15:47+02:00</time>
      </trkpt>
      <trkpt lat="47.2642" lon="5.45228">
        <ele>187.90039</ele>
        <time>2026-05-15T12:15:48+02:00</time>
      </trkpt>
      <trkpt lat="47.26425" lon="5.45228">
        <ele>187.7998</ele>
        <time>2026-05-15T12:15:49+02:00</time>
      </trkpt>
      <trkpt lat="47.26429" lon="5.45227">
        <ele>187.7998</ele>
        <time>2026-05-15T12:15:50+02:00</time>
      </trkpt>
      <trkpt lat="47.26434" lon="5.45226">
        <ele>187.7998</ele>
        <time>2026-05-15T12:15:51+02:00</time>
      </trkpt>
      <trkpt lat="47.26439" lon="5.45225">
        <ele>187.7002</ele>
        <time>2026-05-15T12:15:52+02:00</time>
      </trkpt>
      <trkpt lat="47.26443" lon="5.45223">
        <ele>187.7002</ele>
        <time>2026-05-15T12:15:53+02:00</time>
      </trkpt>
      <trkpt lat="47.26448" lon="5.45222">
        <ele>187.7002</ele>
        <time>2026-05-15T12:15:54+02:00</time>
      </trkpt>
      <trkpt lat="47.26452" lon="5.45221">
        <ele>187.7002</ele>
        <time>2026-05-15T12:15:55+02:00</time>
      </trkpt>
      <trkpt lat="47.26457" lon="5.45219">
        <ele>187.60059</ele>
        <time>2026-05-15T12:15:56+02:00</time>
      </trkpt>
      <trkpt lat="47.26462" lon="5.45217">
        <ele>187.60059</ele>
        <time>2026-05-15T12:15:57+02:00</time>
      </trkpt>
      <trkpt lat="47.26467" lon="5.45215">
        <ele>187.60059</ele>
        <time>2026-05-15T12:15:58+02:00</time>
      </trkpt>
      <trkpt lat="47.26471" lon="5.45213">
        <ele>187.60059</ele>
        <time>2026-05-15T12:15:59+02:00</time>
      </trkpt>
      <trkpt lat="47.26476" lon="5.4521">
        <ele>187.60059</ele>
        <time>2026-05-15T12:16:00+02:00</time>
      </trkpt>
      <trkpt lat="47.2648" lon="5.45208">
        <ele>187.60059</ele>
        <time>2026-05-15T12:16:01+02:00</time>
      </trkpt>
      <trkpt lat="47.26484" lon="5.45205">
        <ele>187.7002</ele>
        <time>2026-05-15T12:16:02+02:00</time>
      </trkpt>
      <trkpt lat="47.26489" lon="5.45202">
        <ele>187.7002</ele>
        <time>2026-05-15T12:16:03+02:00</time>
      </trkpt>
      <trkpt lat="47.26493" lon="5.45198">
        <ele>187.60059</ele>
        <time>2026-05-15T12:16:04+02:00</time>
      </trkpt>
      <trkpt lat="47.26497" lon="5.45195">
        <ele>187.7002</ele>
        <time>2026-05-15T12:16:05+02:00</time>
      </trkpt>
      <trkpt lat="47.26501" lon="5.4519">
        <ele>187.7002</ele>
        <time>2026-05-15T12:16:06+02:00</time>
      </trkpt>
      <trkpt lat="47.26505" lon="5.45186">
        <ele>187.7998</ele>
        <time>2026-05-15T12:16:07+02:00</time>
      </trkpt>
      <trkpt lat="47.26509" lon="5.45182">
        <ele>187.7002</ele>
        <time>2026-05-15T12:16:08+02:00</time>
      </trkpt>
      <trkpt lat="47.26513" lon="5.45178">
        <ele>187.7998</ele>
        <time>2026-05-15T12:16:09+02:00</time>
      </trkpt>
      <trkpt lat="47.26517" lon="5.45175">
        <ele>187.7002</ele>
        <time>2026-05-15T12:16:10+02:00</time>
      </trkpt>
      <trkpt lat="47.26521" lon="5.45172">
        <ele>187.7002</ele>
        <time>2026-05-15T12:16:11+02:00</time>
      </trkpt>
      <trkpt lat="47.26524" lon="5.45169">
        <ele>187.7002</ele>
        <time>2026-05-15T12:16:12+02:00</time>
      </trkpt>
      <trkpt lat="47.26528" lon="5.45166">
        <ele>187.7002</ele>
        <time>2026-05-15T12:16:13+02:00</time>
      </trkpt>
      <trkpt lat="47.2653" lon="5.45163">
        <ele>187.7002</ele>
        <time>2026-05-15T12:16:14+02:00</time>
      </trkpt>
      <trkpt lat="47.26532" lon="5.45159">
        <ele>187.60059</ele>
        <time>2026-05-15T12:16:15+02:00</time>
      </trkpt>
      <trkpt lat="47.26532" lon="5.45156">
        <ele>187.60059</ele>
        <time>2026-05-15T12:16:16+02:00</time>
      </trkpt>
      <trkpt lat="47.26533" lon="5.45152">
        <ele>187.7002</ele>
        <time>2026-05-15T12:16:17+02:00</time>
      </trkpt>
      <trkpt lat="47.26533" lon="5.45148">
        <ele>187.7002</ele>
        <time>2026-05-15T12:16:18+02:00</time>
      </trkpt>
      <trkpt lat="47.26533" lon="5.45145">
        <ele>187.7002</ele>
        <time>2026-05-15T12:16:19+02:00</time>
      </trkpt>
      <trkpt lat="47.26533" lon="5.45141">
        <ele>187.7002</ele>
        <time>2026-05-15T12:16:20+02:00</time>
      </trkpt>
      <trkpt lat="47.26533" lon="5.45138">
        <ele>187.7002</ele>
        <time>2026-05-15T12:16:21+02:00</time>
      </trkpt>
      <trkpt lat="47.26533" lon="5.45134">
        <ele>187.7002</ele>
        <time>2026-05-15T12:16:22+02:00</time>
      </trkpt>
      <trkpt lat="47.26534" lon="5.4513">
        <ele>187.7002</ele>
        <time>2026-05-15T12:16:23+02:00</time>
      </trkpt>
      <trkpt lat="47.26535" lon="5.45125">
        <ele>187.7002</ele>
        <time>2026-05-15T12:16:24+02:00</time>
      </trkpt>
      <trkpt lat="47.26537" lon="5.4512">
        <ele>187.60059</ele>
        <time>2026-05-15T12:16:25+02:00</time>
      </trkpt>
      <trkpt lat="47.26538" lon="5.45116">
        <ele>187.60059</ele>
        <time>2026-05-15T12:16:26+02:00</time>
      </trkpt>
      <trkpt lat="47.2654" lon="5.45111">
        <ele>187.60059</ele>
        <time>2026-05-15T12:16:27+02:00</time>
      </trkpt>
      <trkpt lat="47.26542" lon="5.45106">
        <ele>187.60059</ele>
        <time>2026-05-15T12:16:28+02:00</time>
      </trkpt>
      <trkpt lat="47.26544" lon="5.45101">
        <ele>187.5</ele>
        <time>2026-05-15T12:16:29+02:00</time>
      </trkpt>
      <trkpt lat="47.26545" lon="5.45096">
        <ele>187.5</ele>
        <time>2026-05-15T12:16:30+02:00</time>
      </trkpt>
      <trkpt lat="47.26545" lon="5.4509">
        <ele>187.5</ele>
        <time>2026-05-15T12:16:31+02:00</time>
      </trkpt>
      <trkpt lat="47.26544" lon="5.45085">
        <ele>187.5</ele>
        <time>2026-05-15T12:16:32+02:00</time>
      </trkpt>
      <trkpt lat="47.26543" lon="5.45079">
        <ele>187.5</ele>
        <time>2026-05-15T12:16:33+02:00</time>
      </trkpt>
      <trkpt lat="47.26541" lon="5.45075">
        <ele>187.5</ele>
        <time>2026-05-15T12:16:34+02:00</time>
      </trkpt>
      <trkpt lat="47.26538" lon="5.45071">
        <ele>187.5</ele>
        <time>2026-05-15T12:16:35+02:00</time>
      </trkpt>
      <trkpt lat="47.26536" lon="5.45066">
        <ele>187.60059</ele>
        <time>2026-05-15T12:16:36+02:00</time>
      </trkpt>
      <trkpt lat="47.26533" lon="5.45061">
        <ele>187.60059</ele>
        <time>2026-05-15T12:16:37+02:00</time>
      </trkpt>
      <trkpt lat="47.26531" lon="5.45056">
        <ele>187.7002</ele>
        <time>2026-05-15T12:16:38+02:00</time>
      </trkpt>
      <trkpt lat="47.2653" lon="5.4505">
        <ele>187.60059</ele>
        <time>2026-05-15T12:16:39+02:00</time>
      </trkpt>
      <trkpt lat="47.2653" lon="5.45044">
        <ele>187.60059</ele>
        <time>2026-05-15T12:16:40+02:00</time>
      </trkpt>
      <trkpt lat="47.26531" lon="5.45038">
        <ele>187.60059</ele>
        <time>2026-05-15T12:16:41+02:00</time>
      </trkpt>
      <trkpt lat="47.26531" lon="5.45032">
        <ele>187.5</ele>
        <time>2026-05-15T12:16:42+02:00</time>
      </trkpt>
      <trkpt lat="47.26532" lon="5.45027">
        <ele>187.40039</ele>
        <time>2026-05-15T12:16:43+02:00</time>
      </trkpt>
      <trkpt lat="47.26533" lon="5.45021">
        <ele>187.40039</ele>
        <time>2026-05-15T12:16:44+02:00</time>
      </trkpt>
      <trkpt lat="47.26534" lon="5.45015">
        <ele>187.2998</ele>
        <time>2026-05-15T12:16:45+02:00</time>
      </trkpt>
      <trkpt lat="47.26536" lon="5.45009">
        <ele>187.2998</ele>
        <time>2026-05-15T12:16:46+02:00</time>
      </trkpt>
      <trkpt lat="47.26537" lon="5.45003">
        <ele>187</ele>
        <time>2026-05-15T12:16:47+02:00</time>
      </trkpt>
      <trkpt lat="47.26539" lon="5.44997">
        <ele>186.90039</ele>
        <time>2026-05-15T12:16:48+02:00</time>
      </trkpt>
      <trkpt lat="47.26541" lon="5.4499">
        <ele>186.7998</ele>
        <time>2026-05-15T12:16:49+02:00</time>
      </trkpt>
      <trkpt lat="47.26542" lon="5.44984">
        <ele>186.7998</ele>
        <time>2026-05-15T12:16:50+02:00</time>
      </trkpt>
      <trkpt lat="47.26544" lon="5.44977">
        <ele>186.5</ele>
        <time>2026-05-15T12:16:51+02:00</time>
      </trkpt>
      <trkpt lat="47.26545" lon="5.4497">
        <ele>186.2998</ele>
        <time>2026-05-15T12:16:52+02:00</time>
      </trkpt>
      <trkpt lat="47.26547" lon="5.44964">
        <ele>186.2002</ele>
        <time>2026-05-15T12:16:53+02:00</time>
      </trkpt>
      <trkpt lat="47.26549" lon="5.44957">
        <ele>186.10059</ele>
        <time>2026-05-15T12:16:54+02:00</time>
      </trkpt>
      <trkpt lat="47.2655" lon="5.4495">
        <ele>185.90039</ele>
        <time>2026-05-15T12:16:55+02:00</time>
      </trkpt>
      <trkpt lat="47.26552" lon="5.44943">
        <ele>185.7002</ele>
        <time>2026-05-15T12:16:56+02:00</time>
      </trkpt>
      <trkpt lat="47.26553" lon="5.44936">
        <ele>185.60059</ele>
        <time>2026-05-15T12:16:57+02:00</time>
      </trkpt>
      <trkpt lat="47.26554" lon="5.4493">
        <ele>185.5</ele>
        <time>2026-05-15T12:16:58+02:00</time>
      </trkpt>
      <trkpt lat="47.26555" lon="5.44923">
        <ele>185.40039</ele>
        <time>2026-05-15T12:16:59+02:00</time>
      </trkpt>
      <trkpt lat="47.26557" lon="5.44917">
        <ele>185.2998</ele>
        <time>2026-05-15T12:17:00+02:00</time>
      </trkpt>
      <trkpt lat="47.2656" lon="5.44911">
        <ele>185.2002</ele>
        <time>2026-05-15T12:17:01+02:00</time>
      </trkpt>
      <trkpt lat="47.26562" lon="5.44905">
        <ele>185.2002</ele>
        <time>2026-05-15T12:17:02+02:00</time>
      </trkpt>
      <trkpt lat="47.26565" lon="5.449">
        <ele>185.2002</ele>
        <time>2026-05-15T12:17:03+02:00</time>
      </trkpt>
      <trkpt lat="47.26567" lon="5.44895">
        <ele>185.10059</ele>
        <time>2026-05-15T12:17:04+02:00</time>
      </trkpt>
      <trkpt lat="47.26569" lon="5.4489">
        <ele>185.10059</ele>
        <time>2026-05-15T12:17:05+02:00</time>
      </trkpt>
      <trkpt lat="47.26571" lon="5.44886">
        <ele>185.10059</ele>
        <time>2026-05-15T12:17:06+02:00</time>
      </trkpt>
      <trkpt lat="47.26573" lon="5.44881">
        <ele>185.10059</ele>
        <time>2026-05-15T12:17:07+02:00</time>
      </trkpt>
      <trkpt lat="47.26574" lon="5.44878">
        <ele>185.10059</ele>
        <time>2026-05-15T12:17:08+02:00</time>
      </trkpt>
      <trkpt lat="47.26576" lon="5.44874">
        <ele>185.10059</ele>
        <time>2026-05-15T12:17:09+02:00</time>
      </trkpt>
      <trkpt lat="47.26577" lon="5.4487">
        <ele>185.10059</ele>
        <time>2026-05-15T12:17:10+02:00</time>
      </trkpt>
      <trkpt lat="47.26578" lon="5.44865">
        <ele>185.10059</ele>
        <time>2026-05-15T12:17:11+02:00</time>
      </trkpt>
      <trkpt lat="47.26577" lon="5.44861">
        <ele>185.10059</ele>
        <time>2026-05-15T12:17:12+02:00</time>
      </trkpt>
      <trkpt lat="47.26575" lon="5.44857">
        <ele>185.10059</ele>
        <time>2026-05-15T12:17:13+02:00</time>
      </trkpt>
      <trkpt lat="47.26573" lon="5.44853">
        <ele>185.10059</ele>
        <time>2026-05-15T12:17:14+02:00</time>
      </trkpt>
      <trkpt lat="47.2657" lon="5.44849">
        <ele>185</ele>
        <time>2026-05-15T12:17:15+02:00</time>
      </trkpt>
      <trkpt lat="47.26567" lon="5.44845">
        <ele>185</ele>
        <time>2026-05-15T12:17:16+02:00</time>
      </trkpt>
      <trkpt lat="47.26563" lon="5.44841">
        <ele>185</ele>
        <time>2026-05-15T12:17:17+02:00</time>
      </trkpt>
      <trkpt lat="47.26561" lon="5.44837">
        <ele>185</ele>
        <time>2026-05-15T12:17:18+02:00</time>
      </trkpt>
      <trkpt lat="47.26557" lon="5.44832">
        <ele>185</ele>
        <time>2026-05-15T12:17:19+02:00</time>
      </trkpt>
      <trkpt lat="47.26554" lon="5.44827">
        <ele>184.90039</ele>
        <time>2026-05-15T12:17:20+02:00</time>
      </trkpt>
      <trkpt lat="47.2655" lon="5.44822">
        <ele>184.90039</ele>
        <time>2026-05-15T12:17:21+02:00</time>
      </trkpt>
      <trkpt lat="47.26547" lon="5.44817">
        <ele>184.90039</ele>
        <time>2026-05-15T12:17:22+02:00</time>
      </trkpt>
      <trkpt lat="47.26543" lon="5.44811">
        <ele>184.90039</ele>
        <time>2026-05-15T12:17:23+02:00</time>
      </trkpt>
      <trkpt lat="47.2654" lon="5.44806">
        <ele>185</ele>
        <time>2026-05-15T12:17:24+02:00</time>
      </trkpt>
      <trkpt lat="47.26536" lon="5.448">
        <ele>185</ele>
        <time>2026-05-15T12:17:25+02:00</time>
      </trkpt>
      <trkpt lat="47.26532" lon="5.44795">
        <ele>185</ele>
        <time>2026-05-15T12:17:26+02:00</time>
      </trkpt>
      <trkpt lat="47.26529" lon="5.4479">
        <ele>185.2002</ele>
        <time>2026-05-15T12:17:27+02:00</time>
      </trkpt>
      <trkpt lat="47.26525" lon="5.44785">
        <ele>185.10059</ele>
        <time>2026-05-15T12:17:28+02:00</time>
      </trkpt>
      <trkpt lat="47.26522" lon="5.44779">
        <ele>185.2998</ele>
        <time>2026-05-15T12:17:29+02:00</time>
      </trkpt>
      <trkpt lat="47.26518" lon="5.44773">
        <ele>185.40039</ele>
        <time>2026-05-15T12:17:30+02:00</time>
      </trkpt>
      <trkpt lat="47.26515" lon="5.44768">
        <ele>185.40039</ele>
        <time>2026-05-15T12:17:31+02:00</time>
      </trkpt>
      <trkpt lat="47.26511" lon="5.44762">
        <ele>185.60059</ele>
        <time>2026-05-15T12:17:32+02:00</time>
      </trkpt>
      <trkpt lat="47.26508" lon="5.44756">
        <ele>185.7002</ele>
        <time>2026-05-15T12:17:33+02:00</time>
      </trkpt>
      <trkpt lat="47.26505" lon="5.44749">
        <ele>185.7998</ele>
        <time>2026-05-15T12:17:34+02:00</time>
      </trkpt>
      <trkpt lat="47.26502" lon="5.44743">
        <ele>185.7998</ele>
        <time>2026-05-15T12:17:35+02:00</time>
      </trkpt>
      <trkpt lat="47.265" lon="5.44736">
        <ele>186</ele>
        <time>2026-05-15T12:17:36+02:00</time>
      </trkpt>
      <trkpt lat="47.26497" lon="5.4473">
        <ele>186.10059</ele>
        <time>2026-05-15T12:17:37+02:00</time>
      </trkpt>
      <trkpt lat="47.26496" lon="5.44723">
        <ele>186.2002</ele>
        <time>2026-05-15T12:17:38+02:00</time>
      </trkpt>
      <trkpt lat="47.26494" lon="5.44716">
        <ele>186.10059</ele>
        <time>2026-05-15T12:17:39+02:00</time>
      </trkpt>
      <trkpt lat="47.26493" lon="5.44709">
        <ele>186.2002</ele>
        <time>2026-05-15T12:17:40+02:00</time>
      </trkpt>
      <trkpt lat="47.26492" lon="5.44703">
        <ele>186.2998</ele>
        <time>2026-05-15T12:17:41+02:00</time>
      </trkpt>
      <trkpt lat="47.26492" lon="5.44696">
        <ele>186.40039</ele>
        <time>2026-05-15T12:17:42+02:00</time>
      </trkpt>
      <trkpt lat="47.26492" lon="5.44689">
        <ele>186.40039</ele>
        <time>2026-05-15T12:17:43+02:00</time>
      </trkpt>
      <trkpt lat="47.26492" lon="5.44682">
        <ele>186.40039</ele>
        <time>2026-05-15T12:17:44+02:00</time>
      </trkpt>
      <trkpt lat="47.26493" lon="5.44674">
        <ele>186.40039</ele>
        <time>2026-05-15T12:17:45+02:00</time>
      </trkpt>
      <trkpt lat="47.26494" lon="5.44667">
        <ele>186.40039</ele>
        <time>2026-05-15T12:17:46+02:00</time>
      </trkpt>
      <trkpt lat="47.26494" lon="5.44659">
        <ele>186.2998</ele>
        <time>2026-05-15T12:17:47+02:00</time>
      </trkpt>
      <trkpt lat="47.26494" lon="5.44651">
        <ele>186.10059</ele>
        <time>2026-05-15T12:17:48+02:00</time>
      </trkpt>
      <trkpt lat="47.26494" lon="5.44644">
        <ele>185.90039</ele>
        <time>2026-05-15T12:17:49+02:00</time>
      </trkpt>
      <trkpt lat="47.26494" lon="5.44637">
        <ele>185.7002</ele>
        <time>2026-05-15T12:17:50+02:00</time>
      </trkpt>
      <trkpt lat="47.26494" lon="5.44629">
        <ele>185.40039</ele>
        <time>2026-05-15T12:17:51+02:00</time>
      </trkpt>
      <trkpt lat="47.26494" lon="5.44622">
        <ele>185.40039</ele>
        <time>2026-05-15T12:17:52+02:00</time>
      </trkpt>
      <trkpt lat="47.26492" lon="5.44615">
        <ele>185.10059</ele>
        <time>2026-05-15T12:17:53+02:00</time>
      </trkpt>
      <trkpt lat="47.26491" lon="5.44608">
        <ele>184.90039</ele>
        <time>2026-05-15T12:17:54+02:00</time>
      </trkpt>
      <trkpt lat="47.2649" lon="5.446">
        <ele>184.60059</ele>
        <time>2026-05-15T12:17:55+02:00</time>
      </trkpt>
      <trkpt lat="47.26488" lon="5.44593">
        <ele>184.40039</ele>
        <time>2026-05-15T12:17:56+02:00</time>
      </trkpt>
      <trkpt lat="47.26487" lon="5.44585">
        <ele>184.2002</ele>
        <time>2026-05-15T12:17:57+02:00</time>
      </trkpt>
      <trkpt lat="47.26485" lon="5.44578">
        <ele>184.2002</ele>
        <time>2026-05-15T12:17:58+02:00</time>
      </trkpt>
      <trkpt lat="47.26484" lon="5.4457">
        <ele>184.10059</ele>
        <time>2026-05-15T12:17:59+02:00</time>
      </trkpt>
      <trkpt lat="47.26482" lon="5.44562">
        <ele>184</ele>
        <time>2026-05-15T12:18:00+02:00</time>
      </trkpt>
      <trkpt lat="47.2648" lon="5.44555">
        <ele>184.10059</ele>
        <time>2026-05-15T12:18:01+02:00</time>
      </trkpt>
      <trkpt lat="47.26478" lon="5.44547">
        <ele>184</ele>
        <time>2026-05-15T12:18:02+02:00</time>
      </trkpt>
      <trkpt lat="47.26476" lon="5.44539">
        <ele>184.10059</ele>
        <time>2026-05-15T12:18:03+02:00</time>
      </trkpt>
      <trkpt lat="47.26475" lon="5.44532">
        <ele>184.2002</ele>
        <time>2026-05-15T12:18:04+02:00</time>
      </trkpt>
      <trkpt lat="47.26473" lon="5.44524">
        <ele>184.2998</ele>
        <time>2026-05-15T12:18:05+02:00</time>
      </trkpt>
      <trkpt lat="47.26471" lon="5.44516">
        <ele>184.2998</ele>
        <time>2026-05-15T12:18:06+02:00</time>
      </trkpt>
      <trkpt lat="47.26469" lon="5.44509">
        <ele>184.40039</ele>
        <time>2026-05-15T12:18:07+02:00</time>
      </trkpt>
      <trkpt lat="47.26467" lon="5.44501">
        <ele>184.5</ele>
        <time>2026-05-15T12:18:08+02:00</time>
      </trkpt>
      <trkpt lat="47.26465" lon="5.44493">
        <ele>184.40039</ele>
        <time>2026-05-15T12:18:09+02:00</time>
      </trkpt>
      <trkpt lat="47.26463" lon="5.44485">
        <ele>184.5</ele>
        <time>2026-05-15T12:18:10+02:00</time>
      </trkpt>
      <trkpt lat="47.26461" lon="5.44478">
        <ele>184.5</ele>
        <time>2026-05-15T12:18:11+02:00</time>
      </trkpt>
      <trkpt lat="47.26459" lon="5.4447">
        <ele>184.60059</ele>
        <time>2026-05-15T12:18:12+02:00</time>
      </trkpt>
      <trkpt lat="47.26457" lon="5.44462">
        <ele>184.7002</ele>
        <time>2026-05-15T12:18:13+02:00</time>
      </trkpt>
      <trkpt lat="47.26455" lon="5.44454">
        <ele>184.7002</ele>
        <time>2026-05-15T12:18:14+02:00</time>
      </trkpt>
      <trkpt lat="47.26453" lon="5.44446">
        <ele>184.7998</ele>
        <time>2026-05-15T12:18:15+02:00</time>
      </trkpt>
      <trkpt lat="47.26451" lon="5.44439">
        <ele>184.90039</ele>
        <time>2026-05-15T12:18:16+02:00</time>
      </trkpt>
      <trkpt lat="47.26449" lon="5.44431">
        <ele>184.7998</ele>
        <time>2026-05-15T12:18:17+02:00</time>
      </trkpt>
      <trkpt lat="47.26447" lon="5.44424">
        <ele>184.90039</ele>
        <time>2026-05-15T12:18:18+02:00</time>
      </trkpt>
      <trkpt lat="47.26445" lon="5.44416">
        <ele>184.90039</ele>
        <time>2026-05-15T12:18:19+02:00</time>
      </trkpt>
      <trkpt lat="47.26442" lon="5.44408">
        <ele>184.7998</ele>
        <time>2026-05-15T12:18:20+02:00</time>
      </trkpt>
      <trkpt lat="47.26441" lon="5.44401">
        <ele>184.90039</ele>
        <time>2026-05-15T12:18:21+02:00</time>
      </trkpt>
      <trkpt lat="47.26438" lon="5.44393">
        <ele>184.90039</ele>
        <time>2026-05-15T12:18:22+02:00</time>
      </trkpt>
      <trkpt lat="47.26436" lon="5.44385">
        <ele>184.7998</ele>
        <time>2026-05-15T12:18:23+02:00</time>
      </trkpt>
      <trkpt lat="47.26434" lon="5.44378">
        <ele>184.90039</ele>
        <time>2026-05-15T12:18:24+02:00</time>
      </trkpt>
      <trkpt lat="47.26432" lon="5.4437">
        <ele>184.90039</ele>
        <time>2026-05-15T12:18:25+02:00</time>
      </trkpt>
      <trkpt lat="47.2643" lon="5.44363">
        <ele>184.90039</ele>
        <time>2026-05-15T12:18:26+02:00</time>
      </trkpt>
      <trkpt lat="47.26428" lon="5.44356">
        <ele>184.90039</ele>
        <time>2026-05-15T12:18:27+02:00</time>
      </trkpt>
      <trkpt lat="47.26426" lon="5.44348">
        <ele>184.90039</ele>
        <time>2026-05-15T12:18:28+02:00</time>
      </trkpt>
      <trkpt lat="47.26424" lon="5.44341">
        <ele>184.90039</ele>
        <time>2026-05-15T12:18:29+02:00</time>
      </trkpt>
      <trkpt lat="47.26422" lon="5.44334">
        <ele>184.90039</ele>
        <time>2026-05-15T12:18:30+02:00</time>
      </trkpt>
      <trkpt lat="47.2642" lon="5.44326">
        <ele>184.7998</ele>
        <time>2026-05-15T12:18:31+02:00</time>
      </trkpt>
      <trkpt lat="47.26418" lon="5.44319">
        <ele>184.7002</ele>
        <time>2026-05-15T12:18:32+02:00</time>
      </trkpt>
      <trkpt lat="47.26417" lon="5.44312">
        <ele>184.5</ele>
        <time>2026-05-15T12:18:33+02:00</time>
      </trkpt>
      <trkpt lat="47.26415" lon="5.44305">
        <ele>184.5</ele>
        <time>2026-05-15T12:18:34+02:00</time>
      </trkpt>
      <trkpt lat="47.26413" lon="5.44297">
        <ele>184.2998</ele>
        <time>2026-05-15T12:18:35+02:00</time>
      </trkpt>
      <trkpt lat="47.2641" lon="5.4429">
        <ele>184.10059</ele>
        <time>2026-05-15T12:18:36+02:00</time>
      </trkpt>
      <trkpt lat="47.26408" lon="5.44283">
        <ele>183.90039</ele>
        <time>2026-05-15T12:18:37+02:00</time>
      </trkpt>
      <trkpt lat="47.26406" lon="5.44276">
        <ele>183.7002</ele>
        <time>2026-05-15T12:18:38+02:00</time>
      </trkpt>
      <trkpt lat="47.26404" lon="5.44268">
        <ele>183.60059</ele>
        <time>2026-05-15T12:18:39+02:00</time>
      </trkpt>
      <trkpt lat="47.26402" lon="5.44261">
        <ele>183.60059</ele>
        <time>2026-05-15T12:18:40+02:00</time>
      </trkpt>
      <trkpt lat="47.26399" lon="5.44254">
        <ele>183.40039</ele>
        <time>2026-05-15T12:18:41+02:00</time>
      </trkpt>
      <trkpt lat="47.26397" lon="5.44247">
        <ele>183.40039</ele>
        <time>2026-05-15T12:18:42+02:00</time>
      </trkpt>
      <trkpt lat="47.26395" lon="5.4424">
        <ele>183.40039</ele>
        <time>2026-05-15T12:18:43+02:00</time>
      </trkpt>
      <trkpt lat="47.26392" lon="5.44233">
        <ele>183.40039</ele>
        <time>2026-05-15T12:18:44+02:00</time>
      </trkpt>
      <trkpt lat="47.2639" lon="5.44226">
        <ele>183.5</ele>
        <time>2026-05-15T12:18:45+02:00</time>
      </trkpt>
      <trkpt lat="47.26388" lon="5.44219">
        <ele>183.5</ele>
        <time>2026-05-15T12:18:46+02:00</time>
      </trkpt>
      <trkpt lat="47.26385" lon="5.44212">
        <ele>183.60059</ele>
        <time>2026-05-15T12:18:47+02:00</time>
      </trkpt>
      <trkpt lat="47.26383" lon="5.44205">
        <ele>183.7002</ele>
        <time>2026-05-15T12:18:48+02:00</time>
      </trkpt>
      <trkpt lat="47.2638" lon="5.44198">
        <ele>183.7998</ele>
        <time>2026-05-15T12:18:49+02:00</time>
      </trkpt>
      <trkpt lat="47.26377" lon="5.44191">
        <ele>183.90039</ele>
        <time>2026-05-15T12:18:50+02:00</time>
      </trkpt>
      <trkpt lat="47.26375" lon="5.44185">
        <ele>183.90039</ele>
        <time>2026-05-15T12:18:51+02:00</time>
      </trkpt>
      <trkpt lat="47.26372" lon="5.44178">
        <ele>184</ele>
        <time>2026-05-15T12:18:52+02:00</time>
      </trkpt>
      <trkpt lat="47.26369" lon="5.44171">
        <ele>184.10059</ele>
        <time>2026-05-15T12:18:53+02:00</time>
      </trkpt>
      <trkpt lat="47.26367" lon="5.44164">
        <ele>184.2002</ele>
        <time>2026-05-15T12:18:54+02:00</time>
      </trkpt>
      <trkpt lat="47.26364" lon="5.44157">
        <ele>184.2998</ele>
        <time>2026-05-15T12:18:55+02:00</time>
      </trkpt>
      <trkpt lat="47.26361" lon="5.4415">
        <ele>184.2002</ele>
        <time>2026-05-15T12:18:56+02:00</time>
      </trkpt>
      <trkpt lat="47.26359" lon="5.44143">
        <ele>184.2998</ele>
        <time>2026-05-15T12:18:57+02:00</time>
      </trkpt>
      <trkpt lat="47.26356" lon="5.44136">
        <ele>184.40039</ele>
        <time>2026-05-15T12:18:58+02:00</time>
      </trkpt>
      <trkpt lat="47.26354" lon="5.44129">
        <ele>184.40039</ele>
        <time>2026-05-15T12:18:59+02:00</time>
      </trkpt>
      <trkpt lat="47.26351" lon="5.44122">
        <ele>184.5</ele>
        <time>2026-05-15T12:19:00+02:00</time>
      </trkpt>
      <trkpt lat="47.26348" lon="5.44115">
        <ele>184.5</ele>
        <time>2026-05-15T12:19:01+02:00</time>
      </trkpt>
      <trkpt lat="47.26346" lon="5.44108">
        <ele>184.5</ele>
        <time>2026-05-15T12:19:02+02:00</time>
      </trkpt>
      <trkpt lat="47.26344" lon="5.44101">
        <ele>184.40039</ele>
        <time>2026-05-15T12:19:03+02:00</time>
      </trkpt>
      <trkpt lat="47.26343" lon="5.44093">
        <ele>184.40039</ele>
        <time>2026-05-15T12:19:04+02:00</time>
      </trkpt>
      <trkpt lat="47.26341" lon="5.44086">
        <ele>184.40039</ele>
        <time>2026-05-15T12:19:05+02:00</time>
      </trkpt>
      <trkpt lat="47.26339" lon="5.44078">
        <ele>184.40039</ele>
        <time>2026-05-15T12:19:06+02:00</time>
      </trkpt>
      <trkpt lat="47.26338" lon="5.44071">
        <ele>184.2002</ele>
        <time>2026-05-15T12:19:07+02:00</time>
      </trkpt>
      <trkpt lat="47.26336" lon="5.44063">
        <ele>184.10059</ele>
        <time>2026-05-15T12:19:08+02:00</time>
      </trkpt>
      <trkpt lat="47.26336" lon="5.44055">
        <ele>184.10059</ele>
        <time>2026-05-15T12:19:09+02:00</time>
      </trkpt>
      <trkpt lat="47.26335" lon="5.44047">
        <ele>184</ele>
        <time>2026-05-15T12:19:10+02:00</time>
      </trkpt>
      <trkpt lat="47.26334" lon="5.4404">
        <ele>183.90039</ele>
        <time>2026-05-15T12:19:11+02:00</time>
      </trkpt>
      <trkpt lat="47.26334" lon="5.44032">
        <ele>183.7998</ele>
        <time>2026-05-15T12:19:12+02:00</time>
      </trkpt>
      <trkpt lat="47.26333" lon="5.44025">
        <ele>183.7002</ele>
        <time>2026-05-15T12:19:13+02:00</time>
      </trkpt>
      <trkpt lat="47.26333" lon="5.44017">
        <ele>183.60059</ele>
        <time>2026-05-15T12:19:14+02:00</time>
      </trkpt>
      <trkpt lat="47.26333" lon="5.4401">
        <ele>183.5</ele>
        <time>2026-05-15T12:19:15+02:00</time>
      </trkpt>
      <trkpt lat="47.26332" lon="5.44002">
        <ele>183.5</ele>
        <time>2026-05-15T12:19:16+02:00</time>
      </trkpt>
      <trkpt lat="47.26331" lon="5.43994">
        <ele>183.5</ele>
        <time>2026-05-15T12:19:17+02:00</time>
      </trkpt>
      <trkpt lat="47.26331" lon="5.43987">
        <ele>183.5</ele>
        <time>2026-05-15T12:19:18+02:00</time>
      </trkpt>
      <trkpt lat="47.26331" lon="5.43979">
        <ele>183.5</ele>
        <time>2026-05-15T12:19:19+02:00</time>
      </trkpt>
      <trkpt lat="47.2633" lon="5.43971">
        <ele>183.5</ele>
        <time>2026-05-15T12:19:20+02:00</time>
      </trkpt>
      <trkpt lat="47.2633" lon="5.43963">
        <ele>183.60059</ele>
        <time>2026-05-15T12:19:21+02:00</time>
      </trkpt>
      <trkpt lat="47.26329" lon="5.43955">
        <ele>183.60059</ele>
        <time>2026-05-15T12:19:22+02:00</time>
      </trkpt>
      <trkpt lat="47.26329" lon="5.43948">
        <ele>183.7002</ele>
        <time>2026-05-15T12:19:23+02:00</time>
      </trkpt>
      <trkpt lat="47.26328" lon="5.4394">
        <ele>183.7998</ele>
        <time>2026-05-15T12:19:24+02:00</time>
      </trkpt>
      <trkpt lat="47.26328" lon="5.43932">
        <ele>183.7998</ele>
        <time>2026-05-15T12:19:25+02:00</time>
      </trkpt>
      <trkpt lat="47.26328" lon="5.43925">
        <ele>183.90039</ele>
        <time>2026-05-15T12:19:26+02:00</time>
      </trkpt>
      <trkpt lat="47.26327" lon="5.43917">
        <ele>183.90039</ele>
        <time>2026-05-15T12:19:27+02:00</time>
      </trkpt>
      <trkpt lat="47.26327" lon="5.43909">
        <ele>183.90039</ele>
        <time>2026-05-15T12:19:28+02:00</time>
      </trkpt>
      <trkpt lat="47.26326" lon="5.43902">
        <ele>183.90039</ele>
        <time>2026-05-15T12:19:29+02:00</time>
      </trkpt>
      <trkpt lat="47.26326" lon="5.43894">
        <ele>184</ele>
        <time>2026-05-15T12:19:30+02:00</time>
      </trkpt>
      <trkpt lat="47.26326" lon="5.43886">
        <ele>184</ele>
        <time>2026-05-15T12:19:31+02:00</time>
      </trkpt>
      <trkpt lat="47.26325" lon="5.43879">
        <ele>184</ele>
        <time>2026-05-15T12:19:32+02:00</time>
      </trkpt>
      <trkpt lat="47.26325" lon="5.43871">
        <ele>184</ele>
        <time>2026-05-15T12:19:33+02:00</time>
      </trkpt>
      <trkpt lat="47.26325" lon="5.43864">
        <ele>184</ele>
        <time>2026-05-15T12:19:34+02:00</time>
      </trkpt>
      <trkpt lat="47.26324" lon="5.43856">
        <ele>184</ele>
        <time>2026-05-15T12:19:35+02:00</time>
      </trkpt>
      <trkpt lat="47.26324" lon="5.43849">
        <ele>184</ele>
        <time>2026-05-15T12:19:36+02:00</time>
      </trkpt>
      <trkpt lat="47.26323" lon="5.43841">
        <ele>184</ele>
        <time>2026-05-15T12:19:37+02:00</time>
      </trkpt>
      <trkpt lat="47.26323" lon="5.43834">
        <ele>183.90039</ele>
        <time>2026-05-15T12:19:38+02:00</time>
      </trkpt>
      <trkpt lat="47.26323" lon="5.43826">
        <ele>183.90039</ele>
        <time>2026-05-15T12:19:39+02:00</time>
      </trkpt>
      <trkpt lat="47.26322" lon="5.43819">
        <ele>183.7998</ele>
        <time>2026-05-15T12:19:40+02:00</time>
      </trkpt>
      <trkpt lat="47.26322" lon="5.43811">
        <ele>183.7998</ele>
        <time>2026-05-15T12:19:41+02:00</time>
      </trkpt>
      <trkpt lat="47.26322" lon="5.43804">
        <ele>183.7002</ele>
        <time>2026-05-15T12:19:42+02:00</time>
      </trkpt>
      <trkpt lat="47.26322" lon="5.43796">
        <ele>183.60059</ele>
        <time>2026-05-15T12:19:43+02:00</time>
      </trkpt>
      <trkpt lat="47.26322" lon="5.43789">
        <ele>183.60059</ele>
        <time>2026-05-15T12:19:44+02:00</time>
      </trkpt>
      <trkpt lat="47.26322" lon="5.43781">
        <ele>183.5</ele>
        <time>2026-05-15T12:19:45+02:00</time>
      </trkpt>
      <trkpt lat="47.26323" lon="5.43774">
        <ele>183.40039</ele>
        <time>2026-05-15T12:19:46+02:00</time>
      </trkpt>
      <trkpt lat="47.26324" lon="5.43766">
        <ele>183.2998</ele>
        <time>2026-05-15T12:19:47+02:00</time>
      </trkpt>
      <trkpt lat="47.26326" lon="5.43759">
        <ele>183.2998</ele>
        <time>2026-05-15T12:19:48+02:00</time>
      </trkpt>
      <trkpt lat="47.26327" lon="5.43752">
        <ele>183.2998</ele>
        <time>2026-05-15T12:19:49+02:00</time>
      </trkpt>
      <trkpt lat="47.2633" lon="5.43745">
        <ele>183.2002</ele>
        <time>2026-05-15T12:19:50+02:00</time>
      </trkpt>
      <trkpt lat="47.26332" lon="5.43738">
        <ele>183.2002</ele>
        <time>2026-05-15T12:19:51+02:00</time>
      </trkpt>
      <trkpt lat="47.26335" lon="5.43731">
        <ele>183.2002</ele>
        <time>2026-05-15T12:19:52+02:00</time>
      </trkpt>
      <trkpt lat="47.26338" lon="5.43725">
        <ele>183.2998</ele>
        <time>2026-05-15T12:19:53+02:00</time>
      </trkpt>
      <trkpt lat="47.26341" lon="5.43719">
        <ele>183.2998</ele>
        <time>2026-05-15T12:19:54+02:00</time>
      </trkpt>
      <trkpt lat="47.26344" lon="5.43713">
        <ele>183.2998</ele>
        <time>2026-05-15T12:19:55+02:00</time>
      </trkpt>
      <trkpt lat="47.26347" lon="5.43707">
        <ele>183.2998</ele>
        <time>2026-05-15T12:19:56+02:00</time>
      </trkpt>
      <trkpt lat="47.2635" lon="5.43701">
        <ele>183.40039</ele>
        <time>2026-05-15T12:19:57+02:00</time>
      </trkpt>
      <trkpt lat="47.26353" lon="5.43695">
        <ele>183.2998</ele>
        <time>2026-05-15T12:19:58+02:00</time>
      </trkpt>
      <trkpt lat="47.26356" lon="5.4369">
        <ele>183.2998</ele>
        <time>2026-05-15T12:19:59+02:00</time>
      </trkpt>
      <trkpt lat="47.26359" lon="5.43684">
        <ele>183.2998</ele>
        <time>2026-05-15T12:20:00+02:00</time>
      </trkpt>
      <trkpt lat="47.26362" lon="5.43678">
        <ele>183.2998</ele>
        <time>2026-05-15T12:20:01+02:00</time>
      </trkpt>
      <trkpt lat="47.26365" lon="5.43673">
        <ele>183.2998</ele>
        <time>2026-05-15T12:20:02+02:00</time>
      </trkpt>
      <trkpt lat="47.26368" lon="5.43667">
        <ele>183.2998</ele>
        <time>2026-05-15T12:20:03+02:00</time>
      </trkpt>
      <trkpt lat="47.26372" lon="5.43661">
        <ele>183.2998</ele>
        <time>2026-05-15T12:20:04+02:00</time>
      </trkpt>
      <trkpt lat="47.26375" lon="5.43656">
        <ele>183.2998</ele>
        <time>2026-05-15T12:20:05+02:00</time>
      </trkpt>
      <trkpt lat="47.26377" lon="5.4365">
        <ele>183.40039</ele>
        <time>2026-05-15T12:20:06+02:00</time>
      </trkpt>
      <trkpt lat="47.2638" lon="5.43644">
        <ele>183.2002</ele>
        <time>2026-05-15T12:20:07+02:00</time>
      </trkpt>
      <trkpt lat="47.26384" lon="5.43638">
        <ele>183.40039</ele>
        <time>2026-05-15T12:20:08+02:00</time>
      </trkpt>
      <trkpt lat="47.26387" lon="5.43632">
        <ele>183.2998</ele>
        <time>2026-05-15T12:20:09+02:00</time>
      </trkpt>
      <trkpt lat="47.26389" lon="5.43627">
        <ele>183.2998</ele>
        <time>2026-05-15T12:20:10+02:00</time>
      </trkpt>
      <trkpt lat="47.26392" lon="5.43621">
        <ele>183.2998</ele>
        <time>2026-05-15T12:20:11+02:00</time>
      </trkpt>
      <trkpt lat="47.26396" lon="5.43615">
        <ele>183.5</ele>
        <time>2026-05-15T12:20:12+02:00</time>
      </trkpt>
      <trkpt lat="47.26399" lon="5.4361">
        <ele>183.40039</ele>
        <time>2026-05-15T12:20:13+02:00</time>
      </trkpt>
      <trkpt lat="47.26401" lon="5.43604">
        <ele>183.5</ele>
        <time>2026-05-15T12:20:14+02:00</time>
      </trkpt>
      <trkpt lat="47.26404" lon="5.43598">
        <ele>183.60059</ele>
        <time>2026-05-15T12:20:15+02:00</time>
      </trkpt>
      <trkpt lat="47.26407" lon="5.43593">
        <ele>183.60059</ele>
        <time>2026-05-15T12:20:16+02:00</time>
      </trkpt>
      <trkpt lat="47.2641" lon="5.43587">
        <ele>183.7002</ele>
        <time>2026-05-15T12:20:17+02:00</time>
      </trkpt>
      <trkpt lat="47.26413" lon="5.43582">
        <ele>183.90039</ele>
        <time>2026-05-15T12:20:18+02:00</time>
      </trkpt>
      <trkpt lat="47.26416" lon="5.43576">
        <ele>183.7998</ele>
        <time>2026-05-15T12:20:19+02:00</time>
      </trkpt>
      <trkpt lat="47.26418" lon="5.4357">
        <ele>184.10059</ele>
        <time>2026-05-15T12:20:20+02:00</time>
      </trkpt>
      <trkpt lat="47.26421" lon="5.43564">
        <ele>184.2002</ele>
        <time>2026-05-15T12:20:21+02:00</time>
      </trkpt>
      <trkpt lat="47.26424" lon="5.43559">
        <ele>184.2002</ele>
        <time>2026-05-15T12:20:22+02:00</time>
      </trkpt>
      <trkpt lat="47.26426" lon="5.43553">
        <ele>184.5</ele>
        <time>2026-05-15T12:20:23+02:00</time>
      </trkpt>
      <trkpt lat="47.26429" lon="5.43547">
        <ele>184.60059</ele>
        <time>2026-05-15T12:20:24+02:00</time>
      </trkpt>
      <trkpt lat="47.26432" lon="5.43541">
        <ele>184.60059</ele>
        <time>2026-05-15T12:20:25+02:00</time>
      </trkpt>
      <trkpt lat="47.26434" lon="5.43535">
        <ele>184.90039</ele>
        <time>2026-05-15T12:20:26+02:00</time>
      </trkpt>
      <trkpt lat="47.26437" lon="5.43529">
        <ele>185.2002</ele>
        <time>2026-05-15T12:20:27+02:00</time>
      </trkpt>
      <trkpt lat="47.26439" lon="5.43524">
        <ele>185.10059</ele>
        <time>2026-05-15T12:20:28+02:00</time>
      </trkpt>
      <trkpt lat="47.26442" lon="5.43518">
        <ele>185.40039</ele>
        <time>2026-05-15T12:20:29+02:00</time>
      </trkpt>
      <trkpt lat="47.26444" lon="5.43512">
        <ele>185.7002</ele>
        <time>2026-05-15T12:20:30+02:00</time>
      </trkpt>
      <trkpt lat="47.26447" lon="5.43506">
        <ele>185.7002</ele>
        <time>2026-05-15T12:20:31+02:00</time>
      </trkpt>
      <trkpt lat="47.26449" lon="5.43501">
        <ele>186.10059</ele>
        <time>2026-05-15T12:20:32+02:00</time>
      </trkpt>
      <trkpt lat="47.2645" lon="5.43496">
        <ele>186.2998</ele>
        <time>2026-05-15T12:20:33+02:00</time>
      </trkpt>
      <trkpt lat="47.26453" lon="5.4349">
        <ele>186.2998</ele>
        <time>2026-05-15T12:20:34+02:00</time>
      </trkpt>
      <trkpt lat="47.26454" lon="5.43485">
        <ele>186.60059</ele>
        <time>2026-05-15T12:20:35+02:00</time>
      </trkpt>
      <trkpt lat="47.26456" lon="5.43479">
        <ele>186.7002</ele>
        <time>2026-05-15T12:20:36+02:00</time>
      </trkpt>
      <trkpt lat="47.26458" lon="5.43474">
        <ele>186.7002</ele>
        <time>2026-05-15T12:20:37+02:00</time>
      </trkpt>
      <trkpt lat="47.2646" lon="5.43468">
        <ele>186.7998</ele>
        <time>2026-05-15T12:20:38+02:00</time>
      </trkpt>
      <trkpt lat="47.26462" lon="5.43462">
        <ele>186.90039</ele>
        <time>2026-05-15T12:20:39+02:00</time>
      </trkpt>
      <trkpt lat="47.26465" lon="5.43456">
        <ele>186.90039</ele>
        <time>2026-05-15T12:20:40+02:00</time>
      </trkpt>
      <trkpt lat="47.26467" lon="5.4345">
        <ele>186.90039</ele>
        <time>2026-05-15T12:20:41+02:00</time>
      </trkpt>
      <trkpt lat="47.2647" lon="5.43443">
        <ele>187</ele>
        <time>2026-05-15T12:20:42+02:00</time>
      </trkpt>
      <trkpt lat="47.26473" lon="5.43437">
        <ele>186.90039</ele>
        <time>2026-05-15T12:20:43+02:00</time>
      </trkpt>
      <trkpt lat="47.26475" lon="5.4343">
        <ele>187</ele>
        <time>2026-05-15T12:20:44+02:00</time>
      </trkpt>
      <trkpt lat="47.26478" lon="5.43424">
        <ele>187</ele>
        <time>2026-05-15T12:20:45+02:00</time>
      </trkpt>
      <trkpt lat="47.26481" lon="5.43418">
        <ele>187</ele>
        <time>2026-05-15T12:20:46+02:00</time>
      </trkpt>
      <trkpt lat="47.26484" lon="5.43412">
        <ele>187</ele>
        <time>2026-05-15T12:20:47+02:00</time>
      </trkpt>
      <trkpt lat="47.26487" lon="5.43406">
        <ele>187.10059</ele>
        <time>2026-05-15T12:20:48+02:00</time>
      </trkpt>
      <trkpt lat="47.2649" lon="5.434">
        <ele>187.10059</ele>
        <time>2026-05-15T12:20:49+02:00</time>
      </trkpt>
      <trkpt lat="47.26493" lon="5.43394">
        <ele>187.10059</ele>
        <time>2026-05-15T12:20:50+02:00</time>
      </trkpt>
      <trkpt lat="47.26496" lon="5.43388">
        <ele>187.10059</ele>
        <time>2026-05-15T12:20:51+02:00</time>
      </trkpt>
      <trkpt lat="47.26499" lon="5.43382">
        <ele>187.10059</ele>
        <time>2026-05-15T12:20:52+02:00</time>
      </trkpt>
      <trkpt lat="47.26502" lon="5.43377">
        <ele>187.10059</ele>
        <time>2026-05-15T12:20:53+02:00</time>
      </trkpt>
      <trkpt lat="47.26504" lon="5.43371">
        <ele>187.10059</ele>
        <time>2026-05-15T12:20:54+02:00</time>
      </trkpt>
      <trkpt lat="47.26508" lon="5.43365">
        <ele>186.90039</ele>
        <time>2026-05-15T12:20:55+02:00</time>
      </trkpt>
      <trkpt lat="47.26511" lon="5.4336">
        <ele>186.90039</ele>
        <time>2026-05-15T12:20:56+02:00</time>
      </trkpt>
      <trkpt lat="47.26514" lon="5.43354">
        <ele>186.7998</ele>
        <time>2026-05-15T12:20:57+02:00</time>
      </trkpt>
      <trkpt lat="47.26517" lon="5.43348">
        <ele>186.7998</ele>
        <time>2026-05-15T12:20:58+02:00</time>
      </trkpt>
      <trkpt lat="47.2652" lon="5.43342">
        <ele>186.60059</ele>
        <time>2026-05-15T12:20:59+02:00</time>
      </trkpt>
      <trkpt lat="47.26523" lon="5.43337">
        <ele>186.60059</ele>
        <time>2026-05-15T12:21:00+02:00</time>
      </trkpt>
      <trkpt lat="47.26526" lon="5.43331">
        <ele>186.40039</ele>
        <time>2026-05-15T12:21:01+02:00</time>
      </trkpt>
      <trkpt lat="47.26529" lon="5.43326">
        <ele>186.40039</ele>
        <time>2026-05-15T12:21:02+02:00</time>
      </trkpt>
      <trkpt lat="47.26532" lon="5.4332">
        <ele>186.2002</ele>
        <time>2026-05-15T12:21:03+02:00</time>
      </trkpt>
      <trkpt lat="47.26536" lon="5.43315">
        <ele>186.2002</ele>
        <time>2026-05-15T12:21:04+02:00</time>
      </trkpt>
      <trkpt lat="47.26539" lon="5.43309">
        <ele>185.90039</ele>
        <time>2026-05-15T12:21:05+02:00</time>
      </trkpt>
      <trkpt lat="47.26542" lon="5.43304">
        <ele>186</ele>
        <time>2026-05-15T12:21:06+02:00</time>
      </trkpt>
      <trkpt lat="47.26545" lon="5.43298">
        <ele>185.7998</ele>
        <time>2026-05-15T12:21:07+02:00</time>
      </trkpt>
      <trkpt lat="47.26548" lon="5.43292">
        <ele>185.7998</ele>
        <time>2026-05-15T12:21:08+02:00</time>
      </trkpt>
      <trkpt lat="47.26551" lon="5.43287">
        <ele>185.60059</ele>
        <time>2026-05-15T12:21:09+02:00</time>
      </trkpt>
      <trkpt lat="47.26554" lon="5.43281">
        <ele>185.60059</ele>
        <time>2026-05-15T12:21:10+02:00</time>
      </trkpt>
      <trkpt lat="47.26557" lon="5.43276">
        <ele>185.40039</ele>
        <time>2026-05-15T12:21:11+02:00</time>
      </trkpt>
      <trkpt lat="47.2656" lon="5.4327">
        <ele>185.40039</ele>
        <time>2026-05-15T12:21:12+02:00</time>
      </trkpt>
      <trkpt lat="47.26563" lon="5.43264">
        <ele>185.2998</ele>
        <time>2026-05-15T12:21:13+02:00</time>
      </trkpt>
      <trkpt lat="47.26566" lon="5.43258">
        <ele>185.2998</ele>
        <time>2026-05-15T12:21:14+02:00</time>
      </trkpt>
      <trkpt lat="47.26569" lon="5.43252">
        <ele>185.2002</ele>
        <time>2026-05-15T12:21:15+02:00</time>
      </trkpt>
      <trkpt lat="47.26572" lon="5.43246">
        <ele>185.2002</ele>
        <time>2026-05-15T12:21:16+02:00</time>
      </trkpt>
      <trkpt lat="47.26576" lon="5.43241">
        <ele>185.2002</ele>
        <time>2026-05-15T12:21:17+02:00</time>
      </trkpt>
      <trkpt lat="47.26579" lon="5.43235">
        <ele>185.2002</ele>
        <time>2026-05-15T12:21:18+02:00</time>
      </trkpt>
      <trkpt lat="47.26582" lon="5.43229">
        <ele>185.2998</ele>
        <time>2026-05-15T12:21:19+02:00</time>
      </trkpt>
      <trkpt lat="47.26585" lon="5.43223">
        <ele>185.2002</ele>
        <time>2026-05-15T12:21:20+02:00</time>
      </trkpt>
      <trkpt lat="47.26588" lon="5.43218">
        <ele>185.2998</ele>
        <time>2026-05-15T12:21:21+02:00</time>
      </trkpt>
      <trkpt lat="47.26591" lon="5.43212">
        <ele>185.40039</ele>
        <time>2026-05-15T12:21:22+02:00</time>
      </trkpt>
      <trkpt lat="47.26594" lon="5.43206">
        <ele>185.40039</ele>
        <time>2026-05-15T12:21:23+02:00</time>
      </trkpt>
      <trkpt lat="47.26598" lon="5.43201">
        <ele>185.5</ele>
        <time>2026-05-15T12:21:24+02:00</time>
      </trkpt>
      <trkpt lat="47.266" lon="5.43195">
        <ele>185.7998</ele>
        <time>2026-05-15T12:21:25+02:00</time>
      </trkpt>
      <trkpt lat="47.26604" lon="5.43189">
        <ele>185.60059</ele>
        <time>2026-05-15T12:21:26+02:00</time>
      </trkpt>
      <trkpt lat="47.26607" lon="5.43183">
        <ele>185.7002</ele>
        <time>2026-05-15T12:21:27+02:00</time>
      </trkpt>
      <trkpt lat="47.2661" lon="5.43178">
        <ele>186</ele>
        <time>2026-05-15T12:21:28+02:00</time>
      </trkpt>
      <trkpt lat="47.26613" lon="5.43172">
        <ele>185.7998</ele>
        <time>2026-05-15T12:21:29+02:00</time>
      </trkpt>
      <trkpt lat="47.26616" lon="5.43166">
        <ele>186.10059</ele>
        <time>2026-05-15T12:21:30+02:00</time>
      </trkpt>
      <trkpt lat="47.26619" lon="5.43161">
        <ele>186.2002</ele>
        <time>2026-05-15T12:21:31+02:00</time>
      </trkpt>
      <trkpt lat="47.26623" lon="5.43155">
        <ele>186.2002</ele>
        <time>2026-05-15T12:21:32+02:00</time>
      </trkpt>
      <trkpt lat="47.26626" lon="5.4315">
        <ele>186.2998</ele>
        <time>2026-05-15T12:21:33+02:00</time>
      </trkpt>
      <trkpt lat="47.26629" lon="5.43144">
        <ele>186.40039</ele>
        <time>2026-05-15T12:21:34+02:00</time>
      </trkpt>
      <trkpt lat="47.26632" lon="5.43139">
        <ele>186.2998</ele>
        <time>2026-05-15T12:21:35+02:00</time>
      </trkpt>
      <trkpt lat="47.26636" lon="5.43134">
        <ele>186.2998</ele>
        <time>2026-05-15T12:21:36+02:00</time>
      </trkpt>
      <trkpt lat="47.26639" lon="5.43129">
        <ele>186.2998</ele>
        <time>2026-05-15T12:21:37+02:00</time>
      </trkpt>
      <trkpt lat="47.26643" lon="5.43125">
        <ele>186.40039</ele>
        <time>2026-05-15T12:21:38+02:00</time>
      </trkpt>
      <trkpt lat="47.26647" lon="5.4312">
        <ele>186.40039</ele>
        <time>2026-05-15T12:21:39+02:00</time>
      </trkpt>
      <trkpt lat="47.26651" lon="5.43116">
        <ele>186.40039</ele>
        <time>2026-05-15T12:21:40+02:00</time>
      </trkpt>
      <trkpt lat="47.26654" lon="5.43112">
        <ele>186.40039</ele>
        <time>2026-05-15T12:21:41+02:00</time>
      </trkpt>
      <trkpt lat="47.26658" lon="5.43108">
        <ele>186.5</ele>
        <time>2026-05-15T12:21:42+02:00</time>
      </trkpt>
      <trkpt lat="47.26662" lon="5.43105">
        <ele>186.40039</ele>
        <time>2026-05-15T12:21:43+02:00</time>
      </trkpt>
      <trkpt lat="47.26666" lon="5.43102">
        <ele>186.5</ele>
        <time>2026-05-15T12:21:44+02:00</time>
      </trkpt>
      <trkpt lat="47.2667" lon="5.43099">
        <ele>186.5</ele>
        <time>2026-05-15T12:21:45+02:00</time>
      </trkpt>
      <trkpt lat="47.26674" lon="5.43096">
        <ele>186.40039</ele>
        <time>2026-05-15T12:21:46+02:00</time>
      </trkpt>
      <trkpt lat="47.26678" lon="5.43093">
        <ele>186.2998</ele>
        <time>2026-05-15T12:21:47+02:00</time>
      </trkpt>
      <trkpt lat="47.26682" lon="5.4309">
        <ele>186.2998</ele>
        <time>2026-05-15T12:21:48+02:00</time>
      </trkpt>
      <trkpt lat="47.26686" lon="5.43087">
        <ele>186.2002</ele>
        <time>2026-05-15T12:21:49+02:00</time>
      </trkpt>
      <trkpt lat="47.2669" lon="5.43084">
        <ele>186</ele>
        <time>2026-05-15T12:21:50+02:00</time>
      </trkpt>
      <trkpt lat="47.26695" lon="5.43082">
        <ele>185.90039</ele>
        <time>2026-05-15T12:21:51+02:00</time>
      </trkpt>
      <trkpt lat="47.26699" lon="5.43079">
        <ele>185.90039</ele>
        <time>2026-05-15T12:21:52+02:00</time>
      </trkpt>
      <trkpt lat="47.26703" lon="5.43076">
        <ele>185.7002</ele>
        <time>2026-05-15T12:21:53+02:00</time>
      </trkpt>
      <trkpt lat="47.26708" lon="5.43073">
        <ele>185.5</ele>
        <time>2026-05-15T12:21:54+02:00</time>
      </trkpt>
      <trkpt lat="47.26712" lon="5.4307">
        <ele>185.2998</ele>
        <time>2026-05-15T12:21:55+02:00</time>
      </trkpt>
      <trkpt lat="47.26716" lon="5.43068">
        <ele>185.2998</ele>
        <time>2026-05-15T12:21:56+02:00</time>
      </trkpt>
      <trkpt lat="47.2672" lon="5.43065">
        <ele>185.2998</ele>
        <time>2026-05-15T12:21:57+02:00</time>
      </trkpt>
      <trkpt lat="47.26724" lon="5.43062">
        <ele>185.2002</ele>
        <time>2026-05-15T12:21:58+02:00</time>
      </trkpt>
      <trkpt lat="47.26729" lon="5.43059">
        <ele>185.2998</ele>
        <time>2026-05-15T12:21:59+02:00</time>
      </trkpt>
      <trkpt lat="47.26732" lon="5.43056">
        <ele>185.2998</ele>
        <time>2026-05-15T12:22:00+02:00</time>
      </trkpt>
      <trkpt lat="47.26736" lon="5.43052">
        <ele>185.40039</ele>
        <time>2026-05-15T12:22:01+02:00</time>
      </trkpt>
      <trkpt lat="47.2674" lon="5.43048">
        <ele>185.5</ele>
        <time>2026-05-15T12:22:02+02:00</time>
      </trkpt>
      <trkpt lat="47.26743" lon="5.43043">
        <ele>185.5</ele>
        <time>2026-05-15T12:22:03+02:00</time>
      </trkpt>
      <trkpt lat="47.26745" lon="5.43037">
        <ele>185.7002</ele>
        <time>2026-05-15T12:22:04+02:00</time>
      </trkpt>
      <trkpt lat="47.26746" lon="5.43031">
        <ele>185.7998</ele>
        <time>2026-05-15T12:22:05+02:00</time>
      </trkpt>
      <trkpt lat="47.26747" lon="5.43024">
        <ele>186</ele>
        <time>2026-05-15T12:22:06+02:00</time>
      </trkpt>
      <trkpt lat="47.26748" lon="5.43018">
        <ele>186</ele>
        <time>2026-05-15T12:22:07+02:00</time>
      </trkpt>
      <trkpt lat="47.26749" lon="5.43012">
        <ele>186.10059</ele>
        <time>2026-05-15T12:22:08+02:00</time>
      </trkpt>
      <trkpt lat="47.2675" lon="5.43005">
        <ele>186.2998</ele>
        <time>2026-05-15T12:22:09+02:00</time>
      </trkpt>
      <trkpt lat="47.26751" lon="5.42998">
        <ele>186.40039</ele>
        <time>2026-05-15T12:22:10+02:00</time>
      </trkpt>
      <trkpt lat="47.26752" lon="5.4299">
        <ele>186.5</ele>
        <time>2026-05-15T12:22:11+02:00</time>
      </trkpt>
      <trkpt lat="47.26753" lon="5.42983">
        <ele>186.60059</ele>
        <time>2026-05-15T12:22:12+02:00</time>
      </trkpt>
      <trkpt lat="47.26755" lon="5.42976">
        <ele>186.7002</ele>
        <time>2026-05-15T12:22:13+02:00</time>
      </trkpt>
      <trkpt lat="47.26756" lon="5.42968">
        <ele>186.7998</ele>
        <time>2026-05-15T12:22:14+02:00</time>
      </trkpt>
      <trkpt lat="47.26757" lon="5.42961">
        <ele>186.90039</ele>
        <time>2026-05-15T12:22:15+02:00</time>
      </trkpt>
      <trkpt lat="47.26758" lon="5.42954">
        <ele>187</ele>
        <time>2026-05-15T12:22:16+02:00</time>
      </trkpt>
      <trkpt lat="47.26759" lon="5.42947">
        <ele>187.10059</ele>
        <time>2026-05-15T12:22:17+02:00</time>
      </trkpt>
      <trkpt lat="47.2676" lon="5.4294">
        <ele>187.10059</ele>
        <time>2026-05-15T12:22:18+02:00</time>
      </trkpt>
      <trkpt lat="47.26761" lon="5.42933">
        <ele>187.2002</ele>
        <time>2026-05-15T12:22:19+02:00</time>
      </trkpt>
      <trkpt lat="47.26763" lon="5.42925">
        <ele>187.2002</ele>
        <time>2026-05-15T12:22:20+02:00</time>
      </trkpt>
      <trkpt lat="47.26764" lon="5.42918">
        <ele>187.2002</ele>
        <time>2026-05-15T12:22:21+02:00</time>
      </trkpt>
      <trkpt lat="47.26764" lon="5.42911">
        <ele>187.2002</ele>
        <time>2026-05-15T12:22:22+02:00</time>
      </trkpt>
      <trkpt lat="47.26766" lon="5.42904">
        <ele>187.2002</ele>
        <time>2026-05-15T12:22:23+02:00</time>
      </trkpt>
      <trkpt lat="47.26766" lon="5.42897">
        <ele>187.2002</ele>
        <time>2026-05-15T12:22:24+02:00</time>
      </trkpt>
      <trkpt lat="47.26767" lon="5.4289">
        <ele>187.10059</ele>
        <time>2026-05-15T12:22:25+02:00</time>
      </trkpt>
      <trkpt lat="47.26768" lon="5.42883">
        <ele>187.10059</ele>
        <time>2026-05-15T12:22:26+02:00</time>
      </trkpt>
      <trkpt lat="47.26769" lon="5.42876">
        <ele>187</ele>
        <time>2026-05-15T12:22:27+02:00</time>
      </trkpt>
      <trkpt lat="47.2677" lon="5.42869">
        <ele>186.7998</ele>
        <time>2026-05-15T12:22:28+02:00</time>
      </trkpt>
      <trkpt lat="47.26771" lon="5.42862">
        <ele>186.7998</ele>
        <time>2026-05-15T12:22:29+02:00</time>
      </trkpt>
      <trkpt lat="47.26772" lon="5.42856">
        <ele>186.7998</ele>
        <time>2026-05-15T12:22:30+02:00</time>
      </trkpt>
      <trkpt lat="47.26773" lon="5.42849">
        <ele>186.7002</ele>
        <time>2026-05-15T12:22:31+02:00</time>
      </trkpt>
      <trkpt lat="47.26774" lon="5.42842">
        <ele>186.60059</ele>
        <time>2026-05-15T12:22:32+02:00</time>
      </trkpt>
      <trkpt lat="47.26775" lon="5.42835">
        <ele>186.5</ele>
        <time>2026-05-15T12:22:33+02:00</time>
      </trkpt>
      <trkpt lat="47.26775" lon="5.42828">
        <ele>186.5</ele>
        <time>2026-05-15T12:22:34+02:00</time>
      </trkpt>
      <trkpt lat="47.26776" lon="5.42822">
        <ele>186.2998</ele>
        <time>2026-05-15T12:22:35+02:00</time>
      </trkpt>
      <trkpt lat="47.26777" lon="5.42815">
        <ele>186.2998</ele>
        <time>2026-05-15T12:22:36+02:00</time>
      </trkpt>
      <trkpt lat="47.26778" lon="5.42808">
        <ele>186.2002</ele>
        <time>2026-05-15T12:22:37+02:00</time>
      </trkpt>
      <trkpt lat="47.26779" lon="5.42801">
        <ele>186.2002</ele>
        <time>2026-05-15T12:22:38+02:00</time>
      </trkpt>
      <trkpt lat="47.2678" lon="5.42795">
        <ele>186.2002</ele>
        <time>2026-05-15T12:22:39+02:00</time>
      </trkpt>
      <trkpt lat="47.26781" lon="5.42788">
        <ele>186.10059</ele>
        <time>2026-05-15T12:22:40+02:00</time>
      </trkpt>
      <trkpt lat="47.26782" lon="5.42781">
        <ele>186</ele>
        <time>2026-05-15T12:22:41+02:00</time>
      </trkpt>
      <trkpt lat="47.26783" lon="5.42773">
        <ele>185.90039</ele>
        <time>2026-05-15T12:22:42+02:00</time>
      </trkpt>
      <trkpt lat="47.26784" lon="5.42766">
        <ele>185.90039</ele>
        <time>2026-05-15T12:22:43+02:00</time>
      </trkpt>
      <trkpt lat="47.26785" lon="5.42758">
        <ele>185.7998</ele>
        <time>2026-05-15T12:22:44+02:00</time>
      </trkpt>
      <trkpt lat="47.26786" lon="5.42751">
        <ele>185.7998</ele>
        <time>2026-05-15T12:22:45+02:00</time>
      </trkpt>
      <trkpt lat="47.26787" lon="5.42743">
        <ele>185.7998</ele>
        <time>2026-05-15T12:22:46+02:00</time>
      </trkpt>
      <trkpt lat="47.26788" lon="5.42736">
        <ele>185.60059</ele>
        <time>2026-05-15T12:22:47+02:00</time>
      </trkpt>
      <trkpt lat="47.26789" lon="5.42729">
        <ele>185.60059</ele>
        <time>2026-05-15T12:22:48+02:00</time>
      </trkpt>
      <trkpt lat="47.2679" lon="5.42721">
        <ele>185.5</ele>
        <time>2026-05-15T12:22:49+02:00</time>
      </trkpt>
      <trkpt lat="47.26792" lon="5.42714">
        <ele>185.5</ele>
        <time>2026-05-15T12:22:50+02:00</time>
      </trkpt>
      <trkpt lat="47.26792" lon="5.42707">
        <ele>185.40039</ele>
        <time>2026-05-15T12:22:51+02:00</time>
      </trkpt>
      <trkpt lat="47.26793" lon="5.427">
        <ele>185.40039</ele>
        <time>2026-05-15T12:22:52+02:00</time>
      </trkpt>
      <trkpt lat="47.26794" lon="5.42693">
        <ele>185.2998</ele>
        <time>2026-05-15T12:22:53+02:00</time>
      </trkpt>
      <trkpt lat="47.26795" lon="5.42686">
        <ele>185.2998</ele>
        <time>2026-05-15T12:22:54+02:00</time>
      </trkpt>
      <trkpt lat="47.26796" lon="5.42678">
        <ele>185.2998</ele>
        <time>2026-05-15T12:22:55+02:00</time>
      </trkpt>
      <trkpt lat="47.26797" lon="5.42671">
        <ele>185.2998</ele>
        <time>2026-05-15T12:22:56+02:00</time>
      </trkpt>
      <trkpt lat="47.26798" lon="5.42664">
        <ele>185.2998</ele>
        <time>2026-05-15T12:22:57+02:00</time>
      </trkpt>
      <trkpt lat="47.268" lon="5.42657">
        <ele>185.2998</ele>
        <time>2026-05-15T12:22:58+02:00</time>
      </trkpt>
      <trkpt lat="47.268" lon="5.4265">
        <ele>185.2998</ele>
        <time>2026-05-15T12:22:59+02:00</time>
      </trkpt>
      <trkpt lat="47.26801" lon="5.42643">
        <ele>185.40039</ele>
        <time>2026-05-15T12:23:00+02:00</time>
      </trkpt>
      <trkpt lat="47.26803" lon="5.42636">
        <ele>185.40039</ele>
        <time>2026-05-15T12:23:01+02:00</time>
      </trkpt>
      <trkpt lat="47.26803" lon="5.42628">
        <ele>185.5</ele>
        <time>2026-05-15T12:23:02+02:00</time>
      </trkpt>
      <trkpt lat="47.26804" lon="5.42621">
        <ele>185.5</ele>
        <time>2026-05-15T12:23:03+02:00</time>
      </trkpt>
      <trkpt lat="47.26805" lon="5.42614">
        <ele>185.5</ele>
        <time>2026-05-15T12:23:04+02:00</time>
      </trkpt>
      <trkpt lat="47.26806" lon="5.42607">
        <ele>185.60059</ele>
        <time>2026-05-15T12:23:05+02:00</time>
      </trkpt>
      <trkpt lat="47.26807" lon="5.426">
        <ele>185.7002</ele>
        <time>2026-05-15T12:23:06+02:00</time>
      </trkpt>
      <trkpt lat="47.26808" lon="5.42593">
        <ele>185.7998</ele>
        <time>2026-05-15T12:23:07+02:00</time>
      </trkpt>
      <trkpt lat="47.26809" lon="5.42586">
        <ele>185.90039</ele>
        <time>2026-05-15T12:23:08+02:00</time>
      </trkpt>
      <trkpt lat="47.2681" lon="5.42579">
        <ele>185.90039</ele>
        <time>2026-05-15T12:23:09+02:00</time>
      </trkpt>
      <trkpt lat="47.26811" lon="5.42573">
        <ele>186</ele>
        <time>2026-05-15T12:23:10+02:00</time>
      </trkpt>
      <trkpt lat="47.26812" lon="5.42566">
        <ele>186.10059</ele>
        <time>2026-05-15T12:23:11+02:00</time>
      </trkpt>
      <trkpt lat="47.26813" lon="5.42559">
        <ele>186.2002</ele>
        <time>2026-05-15T12:23:12+02:00</time>
      </trkpt>
      <trkpt lat="47.26814" lon="5.42552">
        <ele>186.2998</ele>
        <time>2026-05-15T12:23:13+02:00</time>
      </trkpt>
      <trkpt lat="47.26814" lon="5.42546">
        <ele>186.2998</ele>
        <time>2026-05-15T12:23:14+02:00</time>
      </trkpt>
      <trkpt lat="47.26815" lon="5.42539">
        <ele>186.40039</ele>
        <time>2026-05-15T12:23:15+02:00</time>
      </trkpt>
      <trkpt lat="47.26816" lon="5.42532">
        <ele>186.5</ele>
        <time>2026-05-15T12:23:16+02:00</time>
      </trkpt>
      <trkpt lat="47.26817" lon="5.42525">
        <ele>186.5</ele>
        <time>2026-05-15T12:23:17+02:00</time>
      </trkpt>
      <trkpt lat="47.26818" lon="5.42519">
        <ele>186.5</ele>
        <time>2026-05-15T12:23:18+02:00</time>
      </trkpt>
      <trkpt lat="47.26819" lon="5.42512">
        <ele>186.60059</ele>
        <time>2026-05-15T12:23:19+02:00</time>
      </trkpt>
      <trkpt lat="47.2682" lon="5.42505">
        <ele>186.60059</ele>
        <time>2026-05-15T12:23:20+02:00</time>
      </trkpt>
      <trkpt lat="47.26821" lon="5.42499">
        <ele>186.5</ele>
        <time>2026-05-15T12:23:21+02:00</time>
      </trkpt>
      <trkpt lat="47.26822" lon="5.42492">
        <ele>186.5</ele>
        <time>2026-05-15T12:23:22+02:00</time>
      </trkpt>
      <trkpt lat="47.26823" lon="5.42485">
        <ele>186.40039</ele>
        <time>2026-05-15T12:23:23+02:00</time>
      </trkpt>
      <trkpt lat="47.26824" lon="5.42478">
        <ele>186.2002</ele>
        <time>2026-05-15T12:23:24+02:00</time>
      </trkpt>
      <trkpt lat="47.26825" lon="5.42471">
        <ele>186.10059</ele>
        <time>2026-05-15T12:23:25+02:00</time>
      </trkpt>
      <trkpt lat="47.26826" lon="5.42464">
        <ele>186</ele>
        <time>2026-05-15T12:23:26+02:00</time>
      </trkpt>
      <trkpt lat="47.26827" lon="5.42456">
        <ele>185.7998</ele>
        <time>2026-05-15T12:23:27+02:00</time>
      </trkpt>
      <trkpt lat="47.26828" lon="5.42449">
        <ele>185.7002</ele>
        <time>2026-05-15T12:23:28+02:00</time>
      </trkpt>
      <trkpt lat="47.26829" lon="5.42442">
        <ele>185.5</ele>
        <time>2026-05-15T12:23:29+02:00</time>
      </trkpt>
      <trkpt lat="47.2683" lon="5.42435">
        <ele>185.40039</ele>
        <time>2026-05-15T12:23:30+02:00</time>
      </trkpt>
      <trkpt lat="47.26831" lon="5.42427">
        <ele>185.2002</ele>
        <time>2026-05-15T12:23:31+02:00</time>
      </trkpt>
      <trkpt lat="47.26832" lon="5.4242">
        <ele>185</ele>
        <time>2026-05-15T12:23:32+02:00</time>
      </trkpt>
      <trkpt lat="47.26833" lon="5.42413">
        <ele>184.90039</ele>
        <time>2026-05-15T12:23:33+02:00</time>
      </trkpt>
      <trkpt lat="47.26834" lon="5.42406">
        <ele>184.60059</ele>
        <time>2026-05-15T12:23:34+02:00</time>
      </trkpt>
      <trkpt lat="47.26835" lon="5.42399">
        <ele>184.60059</ele>
        <time>2026-05-15T12:23:35+02:00</time>
      </trkpt>
      <trkpt lat="47.26836" lon="5.42391">
        <ele>184.5</ele>
        <time>2026-05-15T12:23:36+02:00</time>
      </trkpt>
      <trkpt lat="47.26837" lon="5.42384">
        <ele>184.2998</ele>
        <time>2026-05-15T12:23:37+02:00</time>
      </trkpt>
      <trkpt lat="47.26838" lon="5.42376">
        <ele>184.10059</ele>
        <time>2026-05-15T12:23:38+02:00</time>
      </trkpt>
      <trkpt lat="47.26839" lon="5.42369">
        <ele>183.90039</ele>
        <time>2026-05-15T12:23:39+02:00</time>
      </trkpt>
      <trkpt lat="47.2684" lon="5.42361">
        <ele>183.7002</ele>
        <time>2026-05-15T12:23:40+02:00</time>
      </trkpt>
      <trkpt lat="47.26841" lon="5.42354">
        <ele>183.5</ele>
        <time>2026-05-15T12:23:41+02:00</time>
      </trkpt>
      <trkpt lat="47.26842" lon="5.42346">
        <ele>183.2998</ele>
        <time>2026-05-15T12:23:42+02:00</time>
      </trkpt>
      <trkpt lat="47.26843" lon="5.42339">
        <ele>183.2998</ele>
        <time>2026-05-15T12:23:43+02:00</time>
      </trkpt>
      <trkpt lat="47.26845" lon="5.42331">
        <ele>183.2002</ele>
        <time>2026-05-15T12:23:44+02:00</time>
      </trkpt>
      <trkpt lat="47.26845" lon="5.42324">
        <ele>183.10059</ele>
        <time>2026-05-15T12:23:45+02:00</time>
      </trkpt>
      <trkpt lat="47.26846" lon="5.42316">
        <ele>182.90039</ele>
        <time>2026-05-15T12:23:46+02:00</time>
      </trkpt>
      <trkpt lat="47.26848" lon="5.42308">
        <ele>182.7998</ele>
        <time>2026-05-15T12:23:47+02:00</time>
      </trkpt>
      <trkpt lat="47.26849" lon="5.42301">
        <ele>182.7002</ele>
        <time>2026-05-15T12:23:48+02:00</time>
      </trkpt>
      <trkpt lat="47.2685" lon="5.42293">
        <ele>182.60059</ele>
        <time>2026-05-15T12:23:49+02:00</time>
      </trkpt>
      <trkpt lat="47.26851" lon="5.42286">
        <ele>182.5</ele>
        <time>2026-05-15T12:23:50+02:00</time>
      </trkpt>
      <trkpt lat="47.26852" lon="5.42278">
        <ele>182.40039</ele>
        <time>2026-05-15T12:23:51+02:00</time>
      </trkpt>
      <trkpt lat="47.26853" lon="5.42271">
        <ele>182.40039</ele>
        <time>2026-05-15T12:23:52+02:00</time>
      </trkpt>
      <trkpt lat="47.26854" lon="5.42263">
        <ele>182.40039</ele>
        <time>2026-05-15T12:23:53+02:00</time>
      </trkpt>
      <trkpt lat="47.26855" lon="5.42256">
        <ele>182.40039</ele>
        <time>2026-05-15T12:23:54+02:00</time>
      </trkpt>
      <trkpt lat="47.26856" lon="5.42249">
        <ele>182.40039</ele>
        <time>2026-05-15T12:23:55+02:00</time>
      </trkpt>
      <trkpt lat="47.26858" lon="5.42241">
        <ele>182.40039</ele>
        <time>2026-05-15T12:23:56+02:00</time>
      </trkpt>
      <trkpt lat="47.26858" lon="5.42234">
        <ele>182.5</ele>
        <time>2026-05-15T12:23:57+02:00</time>
      </trkpt>
      <trkpt lat="47.26859" lon="5.42227">
        <ele>182.5</ele>
        <time>2026-05-15T12:23:58+02:00</time>
      </trkpt>
      <trkpt lat="47.26861" lon="5.42219">
        <ele>182.60059</ele>
        <time>2026-05-15T12:23:59+02:00</time>
      </trkpt>
      <trkpt lat="47.26862" lon="5.42212">
        <ele>182.7002</ele>
        <time>2026-05-15T12:24:00+02:00</time>
      </trkpt>
      <trkpt lat="47.26863" lon="5.42205">
        <ele>182.7002</ele>
        <time>2026-05-15T12:24:01+02:00</time>
      </trkpt>
      <trkpt lat="47.26864" lon="5.42197">
        <ele>182.90039</ele>
        <time>2026-05-15T12:24:02+02:00</time>
      </trkpt>
      <trkpt lat="47.26865" lon="5.4219">
        <ele>183</ele>
        <time>2026-05-15T12:24:03+02:00</time>
      </trkpt>
      <trkpt lat="47.26866" lon="5.42183">
        <ele>183</ele>
        <time>2026-05-15T12:24:04+02:00</time>
      </trkpt>
      <trkpt lat="47.26867" lon="5.42176">
        <ele>183</ele>
        <time>2026-05-15T12:24:05+02:00</time>
      </trkpt>
      <trkpt lat="47.26868" lon="5.42168">
        <ele>183.2002</ele>
        <time>2026-05-15T12:24:06+02:00</time>
      </trkpt>
      <trkpt lat="47.26869" lon="5.42161">
        <ele>183.2998</ele>
        <time>2026-05-15T12:24:07+02:00</time>
      </trkpt>
      <trkpt lat="47.2687" lon="5.42154">
        <ele>183.2998</ele>
        <time>2026-05-15T12:24:08+02:00</time>
      </trkpt>
      <trkpt lat="47.26871" lon="5.42146">
        <ele>183.40039</ele>
        <time>2026-05-15T12:24:09+02:00</time>
      </trkpt>
      <trkpt lat="47.26872" lon="5.42139">
        <ele>183.60059</ele>
        <time>2026-05-15T12:24:10+02:00</time>
      </trkpt>
      <trkpt lat="47.26873" lon="5.42132">
        <ele>183.7998</ele>
        <time>2026-05-15T12:24:11+02:00</time>
      </trkpt>
      <trkpt lat="47.26874" lon="5.42124">
        <ele>183.7998</ele>
        <time>2026-05-15T12:24:12+02:00</time>
      </trkpt>
      <trkpt lat="47.26875" lon="5.42117">
        <ele>183.90039</ele>
        <time>2026-05-15T12:24:13+02:00</time>
      </trkpt>
      <trkpt lat="47.26876" lon="5.4211">
        <ele>184.10059</ele>
        <time>2026-05-15T12:24:14+02:00</time>
      </trkpt>
      <trkpt lat="47.26877" lon="5.42102">
        <ele>184.2998</ele>
        <time>2026-05-15T12:24:15+02:00</time>
      </trkpt>
      <trkpt lat="47.26878" lon="5.42095">
        <ele>184.5</ele>
        <time>2026-05-15T12:24:16+02:00</time>
      </trkpt>
      <trkpt lat="47.26879" lon="5.42088">
        <ele>184.60059</ele>
        <time>2026-05-15T12:24:17+02:00</time>
      </trkpt>
      <trkpt lat="47.2688" lon="5.4208">
        <ele>184.7002</ele>
        <time>2026-05-15T12:24:18+02:00</time>
      </trkpt>
      <trkpt lat="47.26882" lon="5.42073">
        <ele>184.60059</ele>
        <time>2026-05-15T12:24:19+02:00</time>
      </trkpt>
      <trkpt lat="47.26882" lon="5.42066">
        <ele>184.60059</ele>
        <time>2026-05-15T12:24:20+02:00</time>
      </trkpt>
      <trkpt lat="47.26883" lon="5.42059">
        <ele>184.5</ele>
        <time>2026-05-15T12:24:21+02:00</time>
      </trkpt>
      <trkpt lat="47.26885" lon="5.42052">
        <ele>184.40039</ele>
        <time>2026-05-15T12:24:22+02:00</time>
      </trkpt>
      <trkpt lat="47.26885" lon="5.42045">
        <ele>184.2002</ele>
        <time>2026-05-15T12:24:23+02:00</time>
      </trkpt>
      <trkpt lat="47.26886" lon="5.42038">
        <ele>184.2002</ele>
        <time>2026-05-15T12:24:24+02:00</time>
      </trkpt>
      <trkpt lat="47.26887" lon="5.42031">
        <ele>184</ele>
        <time>2026-05-15T12:24:25+02:00</time>
      </trkpt>
      <trkpt lat="47.26888" lon="5.42024">
        <ele>183.90039</ele>
        <time>2026-05-15T12:24:26+02:00</time>
      </trkpt>
      <trkpt lat="47.2689" lon="5.42017">
        <ele>183.7998</ele>
        <time>2026-05-15T12:24:27+02:00</time>
      </trkpt>
      <trkpt lat="47.2689" lon="5.4201">
        <ele>183.60059</ele>
        <time>2026-05-15T12:24:28+02:00</time>
      </trkpt>
      <trkpt lat="47.26891" lon="5.42003">
        <ele>183.5</ele>
        <time>2026-05-15T12:24:29+02:00</time>
      </trkpt>
      <trkpt lat="47.26893" lon="5.41995">
        <ele>183.2998</ele>
        <time>2026-05-15T12:24:30+02:00</time>
      </trkpt>
      <trkpt lat="47.26894" lon="5.41988">
        <ele>183.2998</ele>
        <time>2026-05-15T12:24:31+02:00</time>
      </trkpt>
      <trkpt lat="47.26895" lon="5.41981">
        <ele>183.2002</ele>
        <time>2026-05-15T12:24:32+02:00</time>
      </trkpt>
      <trkpt lat="47.26896" lon="5.41974">
        <ele>183.10059</ele>
        <time>2026-05-15T12:24:33+02:00</time>
      </trkpt>
      <trkpt lat="47.26897" lon="5.41967">
        <ele>183</ele>
        <time>2026-05-15T12:24:34+02:00</time>
      </trkpt>
      <trkpt lat="47.26898" lon="5.41959">
        <ele>182.90039</ele>
        <time>2026-05-15T12:24:35+02:00</time>
      </trkpt>
      <trkpt lat="47.26899" lon="5.41952">
        <ele>182.7998</ele>
        <time>2026-05-15T12:24:36+02:00</time>
      </trkpt>
      <trkpt lat="47.269" lon="5.41945">
        <ele>182.7998</ele>
        <time>2026-05-15T12:24:37+02:00</time>
      </trkpt>
      <trkpt lat="47.26901" lon="5.41938">
        <ele>182.7002</ele>
        <time>2026-05-15T12:24:38+02:00</time>
      </trkpt>
      <trkpt lat="47.26902" lon="5.41931">
        <ele>182.60059</ele>
        <time>2026-05-15T12:24:39+02:00</time>
      </trkpt>
      <trkpt lat="47.26903" lon="5.41924">
        <ele>182.5</ele>
        <time>2026-05-15T12:24:40+02:00</time>
      </trkpt>
      <trkpt lat="47.26904" lon="5.41917">
        <ele>182.5</ele>
        <time>2026-05-15T12:24:41+02:00</time>
      </trkpt>
      <trkpt lat="47.26905" lon="5.4191">
        <ele>182.5</ele>
        <time>2026-05-15T12:24:42+02:00</time>
      </trkpt>
      <trkpt lat="47.26906" lon="5.41903">
        <ele>182.5</ele>
        <time>2026-05-15T12:24:43+02:00</time>
      </trkpt>
      <trkpt lat="47.26907" lon="5.41896">
        <ele>182.5</ele>
        <time>2026-05-15T12:24:44+02:00</time>
      </trkpt>
      <trkpt lat="47.26908" lon="5.41889">
        <ele>182.60059</ele>
        <time>2026-05-15T12:24:45+02:00</time>
      </trkpt>
      <trkpt lat="47.26909" lon="5.41882">
        <ele>182.7002</ele>
        <time>2026-05-15T12:24:46+02:00</time>
      </trkpt>
      <trkpt lat="47.2691" lon="5.41875">
        <ele>182.7002</ele>
        <time>2026-05-15T12:24:47+02:00</time>
      </trkpt>
      <trkpt lat="47.26911" lon="5.41868">
        <ele>182.7002</ele>
        <time>2026-05-15T12:24:48+02:00</time>
      </trkpt>
      <trkpt lat="47.26912" lon="5.41861">
        <ele>182.7998</ele>
        <time>2026-05-15T12:24:49+02:00</time>
      </trkpt>
      <trkpt lat="47.26913" lon="5.41853">
        <ele>182.90039</ele>
        <time>2026-05-15T12:24:50+02:00</time>
      </trkpt>
      <trkpt lat="47.26914" lon="5.41846">
        <ele>183</ele>
        <time>2026-05-15T12:24:51+02:00</time>
      </trkpt>
      <trkpt lat="47.26915" lon="5.41839">
        <ele>183.10059</ele>
        <time>2026-05-15T12:24:52+02:00</time>
      </trkpt>
      <trkpt lat="47.26916" lon="5.41832">
        <ele>183</ele>
        <time>2026-05-15T12:24:53+02:00</time>
      </trkpt>
      <trkpt lat="47.26917" lon="5.41825">
        <ele>183.10059</ele>
        <time>2026-05-15T12:24:54+02:00</time>
      </trkpt>
      <trkpt lat="47.26918" lon="5.41818">
        <ele>183.10059</ele>
        <time>2026-05-15T12:24:55+02:00</time>
      </trkpt>
      <trkpt lat="47.26919" lon="5.41811">
        <ele>183.10059</ele>
        <time>2026-05-15T12:24:56+02:00</time>
      </trkpt>
      <trkpt lat="47.2692" lon="5.41804">
        <ele>183.10059</ele>
        <time>2026-05-15T12:24:57+02:00</time>
      </trkpt>
      <trkpt lat="47.2692" lon="5.41797">
        <ele>183.10059</ele>
        <time>2026-05-15T12:24:58+02:00</time>
      </trkpt>
      <trkpt lat="47.26922" lon="5.4179">
        <ele>183.10059</ele>
        <time>2026-05-15T12:24:59+02:00</time>
      </trkpt>
      <trkpt lat="47.26922" lon="5.41783">
        <ele>183.10059</ele>
        <time>2026-05-15T12:25:00+02:00</time>
      </trkpt>
      <trkpt lat="47.26924" lon="5.41776">
        <ele>183.10059</ele>
        <time>2026-05-15T12:25:01+02:00</time>
      </trkpt>
      <trkpt lat="47.26924" lon="5.4177">
        <ele>183</ele>
        <time>2026-05-15T12:25:02+02:00</time>
      </trkpt>
      <trkpt lat="47.26925" lon="5.41763">
        <ele>183</ele>
        <time>2026-05-15T12:25:03+02:00</time>
      </trkpt>
      <trkpt lat="47.26927" lon="5.41757">
        <ele>183</ele>
        <time>2026-05-15T12:25:04+02:00</time>
      </trkpt>
      <trkpt lat="47.26927" lon="5.41751">
        <ele>182.90039</ele>
        <time>2026-05-15T12:25:05+02:00</time>
      </trkpt>
      <trkpt lat="47.26928" lon="5.41744">
        <ele>182.90039</ele>
        <time>2026-05-15T12:25:06+02:00</time>
      </trkpt>
      <trkpt lat="47.2693" lon="5.41738">
        <ele>182.90039</ele>
        <time>2026-05-15T12:25:07+02:00</time>
      </trkpt>
      <trkpt lat="47.2693" lon="5.41731">
        <ele>182.7998</ele>
        <time>2026-05-15T12:25:08+02:00</time>
      </trkpt>
      <trkpt lat="47.26931" lon="5.41725">
        <ele>182.7002</ele>
        <time>2026-05-15T12:25:09+02:00</time>
      </trkpt>
      <trkpt lat="47.26932" lon="5.41718">
        <ele>182.7002</ele>
        <time>2026-05-15T12:25:10+02:00</time>
      </trkpt>
      <trkpt lat="47.26933" lon="5.41712">
        <ele>182.60059</ele>
        <time>2026-05-15T12:25:11+02:00</time>
      </trkpt>
      <trkpt lat="47.26934" lon="5.41705">
        <ele>182.60059</ele>
        <time>2026-05-15T12:25:12+02:00</time>
      </trkpt>
      <trkpt lat="47.26935" lon="5.41699">
        <ele>182.5</ele>
        <time>2026-05-15T12:25:13+02:00</time>
      </trkpt>
      <trkpt lat="47.26936" lon="5.41692">
        <ele>182.40039</ele>
        <time>2026-05-15T12:25:14+02:00</time>
      </trkpt>
      <trkpt lat="47.26936" lon="5.41686">
        <ele>182.40039</ele>
        <time>2026-05-15T12:25:15+02:00</time>
      </trkpt>
      <trkpt lat="47.26938" lon="5.41679">
        <ele>182.40039</ele>
        <time>2026-05-15T12:25:16+02:00</time>
      </trkpt>
      <trkpt lat="47.26939" lon="5.41673">
        <ele>182.2998</ele>
        <time>2026-05-15T12:25:17+02:00</time>
      </trkpt>
      <trkpt lat="47.2694" lon="5.41666">
        <ele>182.2998</ele>
        <time>2026-05-15T12:25:18+02:00</time>
      </trkpt>
      <trkpt lat="47.26941" lon="5.41659">
        <ele>182.2998</ele>
        <time>2026-05-15T12:25:19+02:00</time>
      </trkpt>
      <trkpt lat="47.26942" lon="5.41653">
        <ele>182.2998</ele>
        <time>2026-05-15T12:25:20+02:00</time>
      </trkpt>
      <trkpt lat="47.26943" lon="5.41646">
        <ele>182.2998</ele>
        <time>2026-05-15T12:25:21+02:00</time>
      </trkpt>
      <trkpt lat="47.26944" lon="5.4164">
        <ele>182.40039</ele>
        <time>2026-05-15T12:25:22+02:00</time>
      </trkpt>
      <trkpt lat="47.26944" lon="5.41633">
        <ele>182.40039</ele>
        <time>2026-05-15T12:25:23+02:00</time>
      </trkpt>
      <trkpt lat="47.26945" lon="5.41626">
        <ele>182.40039</ele>
        <time>2026-05-15T12:25:24+02:00</time>
      </trkpt>
      <trkpt lat="47.26946" lon="5.4162">
        <ele>182.5</ele>
        <time>2026-05-15T12:25:25+02:00</time>
      </trkpt>
      <trkpt lat="47.26947" lon="5.41614">
        <ele>182.5</ele>
        <time>2026-05-15T12:25:26+02:00</time>
      </trkpt>
      <trkpt lat="47.26948" lon="5.41607">
        <ele>182.60059</ele>
        <time>2026-05-15T12:25:27+02:00</time>
      </trkpt>
      <trkpt lat="47.26949" lon="5.41601">
        <ele>182.60059</ele>
        <time>2026-05-15T12:25:28+02:00</time>
      </trkpt>
      <trkpt lat="47.2695" lon="5.41595">
        <ele>182.7002</ele>
        <time>2026-05-15T12:25:29+02:00</time>
      </trkpt>
      <trkpt lat="47.26951" lon="5.41588">
        <ele>182.7002</ele>
        <time>2026-05-15T12:25:30+02:00</time>
      </trkpt>
      <trkpt lat="47.26951" lon="5.41582">
        <ele>182.7998</ele>
        <time>2026-05-15T12:25:31+02:00</time>
      </trkpt>
      <trkpt lat="47.26952" lon="5.41576">
        <ele>182.7998</ele>
        <time>2026-05-15T12:25:32+02:00</time>
      </trkpt>
      <trkpt lat="47.26953" lon="5.41569">
        <ele>182.7998</ele>
        <time>2026-05-15T12:25:33+02:00</time>
      </trkpt>
      <trkpt lat="47.26954" lon="5.41563">
        <ele>182.90039</ele>
        <time>2026-05-15T12:25:34+02:00</time>
      </trkpt>
      <trkpt lat="47.26954" lon="5.41556">
        <ele>183</ele>
        <time>2026-05-15T12:25:35+02:00</time>
      </trkpt>
      <trkpt lat="47.26956" lon="5.4155">
        <ele>183</ele>
        <time>2026-05-15T12:25:36+02:00</time>
      </trkpt>
      <trkpt lat="47.26957" lon="5.41543">
        <ele>183.10059</ele>
        <time>2026-05-15T12:25:37+02:00</time>
      </trkpt>
      <trkpt lat="47.26957" lon="5.41537">
        <ele>183.2002</ele>
        <time>2026-05-15T12:25:38+02:00</time>
      </trkpt>
      <trkpt lat="47.26958" lon="5.41531">
        <ele>183.2998</ele>
        <time>2026-05-15T12:25:39+02:00</time>
      </trkpt>
      <trkpt lat="47.26959" lon="5.41524">
        <ele>183.2998</ele>
        <time>2026-05-15T12:25:40+02:00</time>
      </trkpt>
      <trkpt lat="47.2696" lon="5.41518">
        <ele>183.40039</ele>
        <time>2026-05-15T12:25:41+02:00</time>
      </trkpt>
      <trkpt lat="47.26961" lon="5.41512">
        <ele>183.40039</ele>
        <time>2026-05-15T12:25:42+02:00</time>
      </trkpt>
      <trkpt lat="47.26962" lon="5.41505">
        <ele>183.5</ele>
        <time>2026-05-15T12:25:43+02:00</time>
      </trkpt>
      <trkpt lat="47.26962" lon="5.41498">
        <ele>183.5</ele>
        <time>2026-05-15T12:25:44+02:00</time>
      </trkpt>
      <trkpt lat="47.26964" lon="5.41492">
        <ele>183.60059</ele>
        <time>2026-05-15T12:25:45+02:00</time>
      </trkpt>
      <trkpt lat="47.26965" lon="5.41485">
        <ele>183.7002</ele>
        <time>2026-05-15T12:25:46+02:00</time>
      </trkpt>
      <trkpt lat="47.26966" lon="5.41478">
        <ele>183.7998</ele>
        <time>2026-05-15T12:25:47+02:00</time>
      </trkpt>
      <trkpt lat="47.26967" lon="5.41471">
        <ele>183.90039</ele>
        <time>2026-05-15T12:25:48+02:00</time>
      </trkpt>
      <trkpt lat="47.26968" lon="5.41464">
        <ele>183.90039</ele>
        <time>2026-05-15T12:25:49+02:00</time>
      </trkpt>
      <trkpt lat="47.26969" lon="5.41458">
        <ele>184</ele>
        <time>2026-05-15T12:25:50+02:00</time>
      </trkpt>
      <trkpt lat="47.2697" lon="5.41451">
        <ele>184.10059</ele>
        <time>2026-05-15T12:25:51+02:00</time>
      </trkpt>
      <trkpt lat="47.2697" lon="5.41444">
        <ele>184.2002</ele>
        <time>2026-05-15T12:25:52+02:00</time>
      </trkpt>
      <trkpt lat="47.26972" lon="5.41437">
        <ele>184.2998</ele>
        <time>2026-05-15T12:25:53+02:00</time>
      </trkpt>
      <trkpt lat="47.26972" lon="5.4143">
        <ele>184.2998</ele>
        <time>2026-05-15T12:25:54+02:00</time>
      </trkpt>
      <trkpt lat="47.26973" lon="5.41423">
        <ele>184.40039</ele>
        <time>2026-05-15T12:25:55+02:00</time>
      </trkpt>
      <trkpt lat="47.26974" lon="5.41417">
        <ele>184.5</ele>
        <time>2026-05-15T12:25:56+02:00</time>
      </trkpt>
      <trkpt lat="47.26975" lon="5.4141">
        <ele>184.60059</ele>
        <time>2026-05-15T12:25:57+02:00</time>
      </trkpt>
      <trkpt lat="47.26978" lon="5.41389">
        <ele>184.5</ele>
        <time>2026-05-15T12:25:58+02:00</time>
      </trkpt>
      <trkpt lat="47.26979" lon="5.41383">
        <ele>184.5</ele>
        <time>2026-05-15T12:25:59+02:00</time>
      </trkpt>
      <trkpt lat="47.2698" lon="5.41376">
        <ele>184.5</ele>
        <time>2026-05-15T12:26:00+02:00</time>
      </trkpt>
      <trkpt lat="47.26981" lon="5.41369">
        <ele>184.5</ele>
        <time>2026-05-15T12:26:01+02:00</time>
      </trkpt>
      <trkpt lat="47.26981" lon="5.41362">
        <ele>184.40039</ele>
        <time>2026-05-15T12:26:02+02:00</time>
      </trkpt>
      <trkpt lat="47.26983" lon="5.41355">
        <ele>184.40039</ele>
        <time>2026-05-15T12:26:03+02:00</time>
      </trkpt>
      <trkpt lat="47.26983" lon="5.41348">
        <ele>184.2998</ele>
        <time>2026-05-15T12:26:04+02:00</time>
      </trkpt>
      <trkpt lat="47.26985" lon="5.41341">
        <ele>184.2998</ele>
        <time>2026-05-15T12:26:05+02:00</time>
      </trkpt>
      <trkpt lat="47.26986" lon="5.41334">
        <ele>184.2998</ele>
        <time>2026-05-15T12:26:06+02:00</time>
      </trkpt>
      <trkpt lat="47.26986" lon="5.41327">
        <ele>184.2998</ele>
        <time>2026-05-15T12:26:07+02:00</time>
      </trkpt>
      <trkpt lat="47.26987" lon="5.4132">
        <ele>184.2002</ele>
        <time>2026-05-15T12:26:08+02:00</time>
      </trkpt>
      <trkpt lat="47.26988" lon="5.41313">
        <ele>184.2002</ele>
        <time>2026-05-15T12:26:09+02:00</time>
      </trkpt>
      <trkpt lat="47.26989" lon="5.41306">
        <ele>184.2002</ele>
        <time>2026-05-15T12:26:10+02:00</time>
      </trkpt>
      <trkpt lat="47.2699" lon="5.41299">
        <ele>184.2002</ele>
        <time>2026-05-15T12:26:11+02:00</time>
      </trkpt>
      <trkpt lat="47.26991" lon="5.41293">
        <ele>184.2002</ele>
        <time>2026-05-15T12:26:12+02:00</time>
      </trkpt>
      <trkpt lat="47.26992" lon="5.41286">
        <ele>184.2002</ele>
        <time>2026-05-15T12:26:13+02:00</time>
      </trkpt>
      <trkpt lat="47.26993" lon="5.41279">
        <ele>184.2002</ele>
        <time>2026-05-15T12:26:14+02:00</time>
      </trkpt>
      <trkpt lat="47.26994" lon="5.41272">
        <ele>184.2002</ele>
        <time>2026-05-15T12:26:15+02:00</time>
      </trkpt>
      <trkpt lat="47.26995" lon="5.41265">
        <ele>184.2002</ele>
        <time>2026-05-15T12:26:16+02:00</time>
      </trkpt>
      <trkpt lat="47.26996" lon="5.41258">
        <ele>184.2002</ele>
        <time>2026-05-15T12:26:17+02:00</time>
      </trkpt>
      <trkpt lat="47.26997" lon="5.41251">
        <ele>184.10059</ele>
        <time>2026-05-15T12:26:18+02:00</time>
      </trkpt>
      <trkpt lat="47.26998" lon="5.41244">
        <ele>184.10059</ele>
        <time>2026-05-15T12:26:19+02:00</time>
      </trkpt>
      <trkpt lat="47.26999" lon="5.41237">
        <ele>184.10059</ele>
        <time>2026-05-15T12:26:20+02:00</time>
      </trkpt>
      <trkpt lat="47.26999" lon="5.4123">
        <ele>184.10059</ele>
        <time>2026-05-15T12:26:21+02:00</time>
      </trkpt>
      <trkpt lat="47.27001" lon="5.41223">
        <ele>184.10059</ele>
        <time>2026-05-15T12:26:22+02:00</time>
      </trkpt>
      <trkpt lat="47.27002" lon="5.41216">
        <ele>184.10059</ele>
        <time>2026-05-15T12:26:23+02:00</time>
      </trkpt>
      <trkpt lat="47.27003" lon="5.4121">
        <ele>184</ele>
        <time>2026-05-15T12:26:24+02:00</time>
      </trkpt>
      <trkpt lat="47.27004" lon="5.41203">
        <ele>184</ele>
        <time>2026-05-15T12:26:25+02:00</time>
      </trkpt>
      <trkpt lat="47.27005" lon="5.41196">
        <ele>183.90039</ele>
        <time>2026-05-15T12:26:26+02:00</time>
      </trkpt>
      <trkpt lat="47.27006" lon="5.41189">
        <ele>183.90039</ele>
        <time>2026-05-15T12:26:27+02:00</time>
      </trkpt>
      <trkpt lat="47.27007" lon="5.41183">
        <ele>183.90039</ele>
        <time>2026-05-15T12:26:28+02:00</time>
      </trkpt>
      <trkpt lat="47.27007" lon="5.41176">
        <ele>183.90039</ele>
        <time>2026-05-15T12:26:29+02:00</time>
      </trkpt>
      <trkpt lat="47.27009" lon="5.41169">
        <ele>183.7998</ele>
        <time>2026-05-15T12:26:30+02:00</time>
      </trkpt>
      <trkpt lat="47.2701" lon="5.41162">
        <ele>183.7998</ele>
        <time>2026-05-15T12:26:31+02:00</time>
      </trkpt>
      <trkpt lat="47.2701" lon="5.41155">
        <ele>183.7998</ele>
        <time>2026-05-15T12:26:32+02:00</time>
      </trkpt>
      <trkpt lat="47.27011" lon="5.41148">
        <ele>183.7998</ele>
        <time>2026-05-15T12:26:33+02:00</time>
      </trkpt>
      <trkpt lat="47.27012" lon="5.41141">
        <ele>183.7998</ele>
        <time>2026-05-15T12:26:34+02:00</time>
      </trkpt>
      <trkpt lat="47.27013" lon="5.41134">
        <ele>183.7998</ele>
        <time>2026-05-15T12:26:35+02:00</time>
      </trkpt>
      <trkpt lat="47.27014" lon="5.41127">
        <ele>183.90039</ele>
        <time>2026-05-15T12:26:36+02:00</time>
      </trkpt>
      <trkpt lat="47.27015" lon="5.4112">
        <ele>183.7998</ele>
        <time>2026-05-15T12:26:37+02:00</time>
      </trkpt>
      <trkpt lat="47.27016" lon="5.41113">
        <ele>183.7998</ele>
        <time>2026-05-15T12:26:38+02:00</time>
      </trkpt>
      <trkpt lat="47.27017" lon="5.41107">
        <ele>183.7998</ele>
        <time>2026-05-15T12:26:39+02:00</time>
      </trkpt>
      <trkpt lat="47.27018" lon="5.411">
        <ele>183.90039</ele>
        <time>2026-05-15T12:26:40+02:00</time>
      </trkpt>
      <trkpt lat="47.27019" lon="5.41093">
        <ele>183.90039</ele>
        <time>2026-05-15T12:26:41+02:00</time>
      </trkpt>
      <trkpt lat="47.2702" lon="5.41086">
        <ele>183.90039</ele>
        <time>2026-05-15T12:26:42+02:00</time>
      </trkpt>
      <trkpt lat="47.27021" lon="5.41079">
        <ele>183.7998</ele>
        <time>2026-05-15T12:26:43+02:00</time>
      </trkpt>
      <trkpt lat="47.27022" lon="5.41072">
        <ele>183.7998</ele>
        <time>2026-05-15T12:26:44+02:00</time>
      </trkpt>
      <trkpt lat="47.27023" lon="5.41065">
        <ele>183.7998</ele>
        <time>2026-05-15T12:26:45+02:00</time>
      </trkpt>
      <trkpt lat="47.27024" lon="5.41058">
        <ele>183.90039</ele>
        <time>2026-05-15T12:26:46+02:00</time>
      </trkpt>
      <trkpt lat="47.27025" lon="5.41051">
        <ele>183.90039</ele>
        <time>2026-05-15T12:26:47+02:00</time>
      </trkpt>
      <trkpt lat="47.27026" lon="5.41044">
        <ele>183.90039</ele>
        <time>2026-05-15T12:26:48+02:00</time>
      </trkpt>
      <trkpt lat="47.27027" lon="5.41037">
        <ele>183.7998</ele>
        <time>2026-05-15T12:26:49+02:00</time>
      </trkpt>
      <trkpt lat="47.27028" lon="5.4103">
        <ele>183.7998</ele>
        <time>2026-05-15T12:26:50+02:00</time>
      </trkpt>
      <trkpt lat="47.27029" lon="5.41023">
        <ele>183.7998</ele>
        <time>2026-05-15T12:26:51+02:00</time>
      </trkpt>
      <trkpt lat="47.2703" lon="5.41016">
        <ele>183.7998</ele>
        <time>2026-05-15T12:26:52+02:00</time>
      </trkpt>
      <trkpt lat="47.27031" lon="5.41009">
        <ele>183.7998</ele>
        <time>2026-05-15T12:26:53+02:00</time>
      </trkpt>
      <trkpt lat="47.27032" lon="5.41002">
        <ele>183.7002</ele>
        <time>2026-05-15T12:26:54+02:00</time>
      </trkpt>
      <trkpt lat="47.27033" lon="5.40995">
        <ele>183.7002</ele>
        <time>2026-05-15T12:26:55+02:00</time>
      </trkpt>
      <trkpt lat="47.27034" lon="5.40988">
        <ele>183.60059</ele>
        <time>2026-05-15T12:26:56+02:00</time>
      </trkpt>
      <trkpt lat="47.27035" lon="5.40981">
        <ele>183.60059</ele>
        <time>2026-05-15T12:26:57+02:00</time>
      </trkpt>
      <trkpt lat="47.27035" lon="5.40974">
        <ele>183.60059</ele>
        <time>2026-05-15T12:26:58+02:00</time>
      </trkpt>
      <trkpt lat="47.27036" lon="5.40968">
        <ele>183.60059</ele>
        <time>2026-05-15T12:26:59+02:00</time>
      </trkpt>
      <trkpt lat="47.27037" lon="5.40961">
        <ele>183.5</ele>
        <time>2026-05-15T12:27:00+02:00</time>
      </trkpt>
      <trkpt lat="47.27038" lon="5.40954">
        <ele>183.40039</ele>
        <time>2026-05-15T12:27:01+02:00</time>
      </trkpt>
      <trkpt lat="47.27038" lon="5.40947">
        <ele>183.40039</ele>
        <time>2026-05-15T12:27:02+02:00</time>
      </trkpt>
      <trkpt lat="47.27039" lon="5.4094">
        <ele>183.40039</ele>
        <time>2026-05-15T12:27:03+02:00</time>
      </trkpt>
      <trkpt lat="47.2704" lon="5.40933">
        <ele>183.2998</ele>
        <time>2026-05-15T12:27:04+02:00</time>
      </trkpt>
      <trkpt lat="47.27041" lon="5.40927">
        <ele>183.2998</ele>
        <time>2026-05-15T12:27:05+02:00</time>
      </trkpt>
      <trkpt lat="47.27041" lon="5.4092">
        <ele>183.2998</ele>
        <time>2026-05-15T12:27:06+02:00</time>
      </trkpt>
      <trkpt lat="47.27042" lon="5.40913">
        <ele>183.2998</ele>
        <time>2026-05-15T12:27:07+02:00</time>
      </trkpt>
      <trkpt lat="47.27042" lon="5.40906">
        <ele>183.2998</ele>
        <time>2026-05-15T12:27:08+02:00</time>
      </trkpt>
      <trkpt lat="47.27043" lon="5.40899">
        <ele>183.2998</ele>
        <time>2026-05-15T12:27:09+02:00</time>
      </trkpt>
      <trkpt lat="47.27043" lon="5.40892">
        <ele>183.2998</ele>
        <time>2026-05-15T12:27:10+02:00</time>
      </trkpt>
      <trkpt lat="47.27044" lon="5.40885">
        <ele>183.2998</ele>
        <time>2026-05-15T12:27:11+02:00</time>
      </trkpt>
      <trkpt lat="47.27045" lon="5.40878">
        <ele>183.40039</ele>
        <time>2026-05-15T12:27:12+02:00</time>
      </trkpt>
      <trkpt lat="47.27046" lon="5.40871">
        <ele>183.40039</ele>
        <time>2026-05-15T12:27:13+02:00</time>
      </trkpt>
      <trkpt lat="47.27046" lon="5.40864">
        <ele>183.40039</ele>
        <time>2026-05-15T12:27:14+02:00</time>
      </trkpt>
      <trkpt lat="47.27047" lon="5.40857">
        <ele>183.5</ele>
        <time>2026-05-15T12:27:15+02:00</time>
      </trkpt>
      <trkpt lat="47.27047" lon="5.4085">
        <ele>183.5</ele>
        <time>2026-05-15T12:27:16+02:00</time>
      </trkpt>
      <trkpt lat="47.27048" lon="5.40843">
        <ele>183.5</ele>
        <time>2026-05-15T12:27:17+02:00</time>
      </trkpt>
      <trkpt lat="47.27048" lon="5.40836">
        <ele>183.5</ele>
        <time>2026-05-15T12:27:18+02:00</time>
      </trkpt>
      <trkpt lat="47.27049" lon="5.40829">
        <ele>183.5</ele>
        <time>2026-05-15T12:27:19+02:00</time>
      </trkpt>
      <trkpt lat="47.2705" lon="5.40823">
        <ele>183.5</ele>
        <time>2026-05-15T12:27:20+02:00</time>
      </trkpt>
      <trkpt lat="47.2705" lon="5.40816">
        <ele>183.40039</ele>
        <time>2026-05-15T12:27:21+02:00</time>
      </trkpt>
      <trkpt lat="47.27051" lon="5.40809">
        <ele>183.40039</ele>
        <time>2026-05-15T12:27:22+02:00</time>
      </trkpt>
      <trkpt lat="47.27052" lon="5.40802">
        <ele>183.40039</ele>
        <time>2026-05-15T12:27:23+02:00</time>
      </trkpt>
      <trkpt lat="47.27052" lon="5.40795">
        <ele>183.40039</ele>
        <time>2026-05-15T12:27:24+02:00</time>
      </trkpt>
      <trkpt lat="47.27053" lon="5.40788">
        <ele>183.40039</ele>
        <time>2026-05-15T12:27:25+02:00</time>
      </trkpt>
      <trkpt lat="47.27054" lon="5.40781">
        <ele>183.2998</ele>
        <time>2026-05-15T12:27:26+02:00</time>
      </trkpt>
      <trkpt lat="47.27054" lon="5.40774">
        <ele>183.2998</ele>
        <time>2026-05-15T12:27:27+02:00</time>
      </trkpt>
      <trkpt lat="47.27055" lon="5.40767">
        <ele>183.2998</ele>
        <time>2026-05-15T12:27:28+02:00</time>
      </trkpt>
      <trkpt lat="47.27056" lon="5.4076">
        <ele>183.2998</ele>
        <time>2026-05-15T12:27:29+02:00</time>
      </trkpt>
      <trkpt lat="47.27056" lon="5.40754">
        <ele>183.2002</ele>
        <time>2026-05-15T12:27:30+02:00</time>
      </trkpt>
      <trkpt lat="47.27057" lon="5.40747">
        <ele>183.2002</ele>
        <time>2026-05-15T12:27:31+02:00</time>
      </trkpt>
      <trkpt lat="47.27058" lon="5.4074">
        <ele>183.2002</ele>
        <time>2026-05-15T12:27:32+02:00</time>
      </trkpt>
      <trkpt lat="47.27059" lon="5.40734">
        <ele>183.2002</ele>
        <time>2026-05-15T12:27:33+02:00</time>
      </trkpt>
      <trkpt lat="47.2706" lon="5.40727">
        <ele>183.2998</ele>
        <time>2026-05-15T12:27:34+02:00</time>
      </trkpt>
      <trkpt lat="47.27061" lon="5.40721">
        <ele>183.2002</ele>
        <time>2026-05-15T12:27:35+02:00</time>
      </trkpt>
      <trkpt lat="47.27062" lon="5.40714">
        <ele>183.2998</ele>
        <time>2026-05-15T12:27:36+02:00</time>
      </trkpt>
      <trkpt lat="47.27063" lon="5.40708">
        <ele>183.2998</ele>
        <time>2026-05-15T12:27:37+02:00</time>
      </trkpt>
      <trkpt lat="47.27064" lon="5.40702">
        <ele>183.2998</ele>
        <time>2026-05-15T12:27:38+02:00</time>
      </trkpt>
      <trkpt lat="47.27065" lon="5.40695">
        <ele>183.2998</ele>
        <time>2026-05-15T12:27:39+02:00</time>
      </trkpt>
      <trkpt lat="47.27067" lon="5.40689">
        <ele>183.2998</ele>
        <time>2026-05-15T12:27:40+02:00</time>
      </trkpt>
      <trkpt lat="47.27068" lon="5.40683">
        <ele>183.2998</ele>
        <time>2026-05-15T12:27:41+02:00</time>
      </trkpt>
      <trkpt lat="47.2707" lon="5.40676">
        <ele>183.2998</ele>
        <time>2026-05-15T12:27:42+02:00</time>
      </trkpt>
      <trkpt lat="47.27071" lon="5.4067">
        <ele>183.2998</ele>
        <time>2026-05-15T12:27:43+02:00</time>
      </trkpt>
      <trkpt lat="47.27073" lon="5.40663">
        <ele>183.2998</ele>
        <time>2026-05-15T12:27:44+02:00</time>
      </trkpt>
      <trkpt lat="47.27074" lon="5.40657">
        <ele>183.2998</ele>
        <time>2026-05-15T12:27:45+02:00</time>
      </trkpt>
      <trkpt lat="47.27076" lon="5.4065">
        <ele>183.2998</ele>
        <time>2026-05-15T12:27:46+02:00</time>
      </trkpt>
      <trkpt lat="47.27078" lon="5.40644">
        <ele>183.2998</ele>
        <time>2026-05-15T12:27:47+02:00</time>
      </trkpt>
      <trkpt lat="47.2708" lon="5.40637">
        <ele>183.2002</ele>
        <time>2026-05-15T12:27:48+02:00</time>
      </trkpt>
      <trkpt lat="47.27081" lon="5.40631">
        <ele>183.2002</ele>
        <time>2026-05-15T12:27:49+02:00</time>
      </trkpt>
      <trkpt lat="47.27083" lon="5.40625">
        <ele>183.2998</ele>
        <time>2026-05-15T12:27:50+02:00</time>
      </trkpt>
      <trkpt lat="47.27085" lon="5.40618">
        <ele>183.2002</ele>
        <time>2026-05-15T12:27:51+02:00</time>
      </trkpt>
      <trkpt lat="47.27087" lon="5.40612">
        <ele>183.2002</ele>
        <time>2026-05-15T12:27:52+02:00</time>
      </trkpt>
      <trkpt lat="47.27089" lon="5.40606">
        <ele>183.2002</ele>
        <time>2026-05-15T12:27:53+02:00</time>
      </trkpt>
      <trkpt lat="47.27092" lon="5.406">
        <ele>183.2002</ele>
        <time>2026-05-15T12:27:54+02:00</time>
      </trkpt>
      <trkpt lat="47.27094" lon="5.40594">
        <ele>183.2002</ele>
        <time>2026-05-15T12:27:55+02:00</time>
      </trkpt>
      <trkpt lat="47.27097" lon="5.40589">
        <ele>183.2002</ele>
        <time>2026-05-15T12:27:56+02:00</time>
      </trkpt>
      <trkpt lat="47.271" lon="5.40583">
        <ele>183.2002</ele>
        <time>2026-05-15T12:27:57+02:00</time>
      </trkpt>
      <trkpt lat="47.27102" lon="5.40578">
        <ele>183.2998</ele>
        <time>2026-05-15T12:27:58+02:00</time>
      </trkpt>
      <trkpt lat="47.27105" lon="5.40573">
        <ele>183.2998</ele>
        <time>2026-05-15T12:27:59+02:00</time>
      </trkpt>
      <trkpt lat="47.27109" lon="5.40567">
        <ele>183.2998</ele>
        <time>2026-05-15T12:28:00+02:00</time>
      </trkpt>
      <trkpt lat="47.27112" lon="5.40562">
        <ele>183.2998</ele>
        <time>2026-05-15T12:28:01+02:00</time>
      </trkpt>
      <trkpt lat="47.27115" lon="5.40557">
        <ele>183.40039</ele>
        <time>2026-05-15T12:28:02+02:00</time>
      </trkpt>
      <trkpt lat="47.27119" lon="5.40553">
        <ele>183.5</ele>
        <time>2026-05-15T12:28:03+02:00</time>
      </trkpt>
      <trkpt lat="47.27123" lon="5.40548">
        <ele>183.60059</ele>
        <time>2026-05-15T12:28:04+02:00</time>
      </trkpt>
      <trkpt lat="47.27126" lon="5.40544">
        <ele>183.7998</ele>
        <time>2026-05-15T12:28:05+02:00</time>
      </trkpt>
      <trkpt lat="47.2713" lon="5.4054">
        <ele>183.7998</ele>
        <time>2026-05-15T12:28:06+02:00</time>
      </trkpt>
      <trkpt lat="47.27134" lon="5.40536">
        <ele>183.7998</ele>
        <time>2026-05-15T12:28:07+02:00</time>
      </trkpt>
      <trkpt lat="47.27138" lon="5.40532">
        <ele>184</ele>
        <time>2026-05-15T12:28:08+02:00</time>
      </trkpt>
      <trkpt lat="47.27141" lon="5.40528">
        <ele>184</ele>
        <time>2026-05-15T12:28:09+02:00</time>
      </trkpt>
      <trkpt lat="47.27144" lon="5.40524">
        <ele>184.2002</ele>
        <time>2026-05-15T12:28:10+02:00</time>
      </trkpt>
      <trkpt lat="47.27148" lon="5.4052">
        <ele>184.2002</ele>
        <time>2026-05-15T12:28:11+02:00</time>
      </trkpt>
      <trkpt lat="47.27152" lon="5.40516">
        <ele>184.40039</ele>
        <time>2026-05-15T12:28:12+02:00</time>
      </trkpt>
      <trkpt lat="47.27155" lon="5.40513">
        <ele>184.5</ele>
        <time>2026-05-15T12:28:13+02:00</time>
      </trkpt>
      <trkpt lat="47.27159" lon="5.4051">
        <ele>184.60059</ele>
        <time>2026-05-15T12:28:14+02:00</time>
      </trkpt>
      <trkpt lat="47.27163" lon="5.40506">
        <ele>184.60059</ele>
        <time>2026-05-15T12:28:15+02:00</time>
      </trkpt>
      <trkpt lat="47.27166" lon="5.40502">
        <ele>184.60059</ele>
        <time>2026-05-15T12:28:16+02:00</time>
      </trkpt>
      <trkpt lat="47.2717" lon="5.40499">
        <ele>184.7002</ele>
        <time>2026-05-15T12:28:17+02:00</time>
      </trkpt>
      <trkpt lat="47.27174" lon="5.40495">
        <ele>184.60059</ele>
        <time>2026-05-15T12:28:18+02:00</time>
      </trkpt>
      <trkpt lat="47.27178" lon="5.40491">
        <ele>184.60059</ele>
        <time>2026-05-15T12:28:19+02:00</time>
      </trkpt>
      <trkpt lat="47.27181" lon="5.40488">
        <ele>184.60059</ele>
        <time>2026-05-15T12:28:20+02:00</time>
      </trkpt>
      <trkpt lat="47.27184" lon="5.40484">
        <ele>184.60059</ele>
        <time>2026-05-15T12:28:21+02:00</time>
      </trkpt>
      <trkpt lat="47.27188" lon="5.40481">
        <ele>184.60059</ele>
        <time>2026-05-15T12:28:22+02:00</time>
      </trkpt>
      <trkpt lat="47.27191" lon="5.40479">
        <ele>184.5</ele>
        <time>2026-05-15T12:28:23+02:00</time>
      </trkpt>
      <trkpt lat="47.27195" lon="5.40479">
        <ele>184.5</ele>
        <time>2026-05-15T12:28:24+02:00</time>
      </trkpt>
      <trkpt lat="47.27199" lon="5.40479">
        <ele>184.40039</ele>
        <time>2026-05-15T12:28:25+02:00</time>
      </trkpt>
      <trkpt lat="47.27203" lon="5.4048">
        <ele>184.2998</ele>
        <time>2026-05-15T12:28:26+02:00</time>
      </trkpt>
      <trkpt lat="47.27207" lon="5.40481">
        <ele>184.2002</ele>
        <time>2026-05-15T12:28:27+02:00</time>
      </trkpt>
      <trkpt lat="47.27211" lon="5.40483">
        <ele>184.2002</ele>
        <time>2026-05-15T12:28:28+02:00</time>
      </trkpt>
      <trkpt lat="47.27215" lon="5.40485">
        <ele>184</ele>
        <time>2026-05-15T12:28:29+02:00</time>
      </trkpt>
      <trkpt lat="47.27219" lon="5.40486">
        <ele>183.90039</ele>
        <time>2026-05-15T12:28:30+02:00</time>
      </trkpt>
      <trkpt lat="47.27223" lon="5.40488">
        <ele>183.90039</ele>
        <time>2026-05-15T12:28:31+02:00</time>
      </trkpt>
      <trkpt lat="47.27228" lon="5.40489">
        <ele>183.7998</ele>
        <time>2026-05-15T12:28:32+02:00</time>
      </trkpt>
      <trkpt lat="47.27232" lon="5.4049">
        <ele>183.7002</ele>
        <time>2026-05-15T12:28:33+02:00</time>
      </trkpt>
      <trkpt lat="47.27236" lon="5.40492">
        <ele>183.60059</ele>
        <time>2026-05-15T12:28:34+02:00</time>
      </trkpt>
      <trkpt lat="47.2724" lon="5.40493">
        <ele>183.5</ele>
        <time>2026-05-15T12:28:35+02:00</time>
      </trkpt>
      <trkpt lat="47.27244" lon="5.40494">
        <ele>183.40039</ele>
        <time>2026-05-15T12:28:36+02:00</time>
      </trkpt>
      <trkpt lat="47.27249" lon="5.40496">
        <ele>183.2998</ele>
        <time>2026-05-15T12:28:37+02:00</time>
      </trkpt>
      <trkpt lat="47.27253" lon="5.40498">
        <ele>183.2998</ele>
        <time>2026-05-15T12:28:38+02:00</time>
      </trkpt>
      <trkpt lat="47.27257" lon="5.405">
        <ele>183.2002</ele>
        <time>2026-05-15T12:28:39+02:00</time>
      </trkpt>
      <trkpt lat="47.27261" lon="5.40502">
        <ele>183.10059</ele>
        <time>2026-05-15T12:28:40+02:00</time>
      </trkpt>
      <trkpt lat="47.27265" lon="5.40505">
        <ele>183</ele>
        <time>2026-05-15T12:28:41+02:00</time>
      </trkpt>
      <trkpt lat="47.27269" lon="5.40508">
        <ele>183</ele>
        <time>2026-05-15T12:28:42+02:00</time>
      </trkpt>
      <trkpt lat="47.27273" lon="5.40511">
        <ele>183</ele>
        <time>2026-05-15T12:28:43+02:00</time>
      </trkpt>
      <trkpt lat="47.27276" lon="5.40515">
        <ele>183</ele>
        <time>2026-05-15T12:28:44+02:00</time>
      </trkpt>
      <trkpt lat="47.27279" lon="5.40519">
        <ele>182.90039</ele>
        <time>2026-05-15T12:28:45+02:00</time>
      </trkpt>
      <trkpt lat="47.27282" lon="5.40523">
        <ele>182.90039</ele>
        <time>2026-05-15T12:28:46+02:00</time>
      </trkpt>
      <trkpt lat="47.27285" lon="5.40527">
        <ele>182.90039</ele>
        <time>2026-05-15T12:28:47+02:00</time>
      </trkpt>
      <trkpt lat="47.27289" lon="5.4053">
        <ele>182.90039</ele>
        <time>2026-05-15T12:28:48+02:00</time>
      </trkpt>
      <trkpt lat="47.27292" lon="5.40534">
        <ele>182.90039</ele>
        <time>2026-05-15T12:28:49+02:00</time>
      </trkpt>
      <trkpt lat="47.27295" lon="5.40538">
        <ele>182.90039</ele>
        <time>2026-05-15T12:28:50+02:00</time>
      </trkpt>
      <trkpt lat="47.27298" lon="5.40542">
        <ele>182.90039</ele>
        <time>2026-05-15T12:28:51+02:00</time>
      </trkpt>
      <trkpt lat="47.27301" lon="5.40546">
        <ele>182.90039</ele>
        <time>2026-05-15T12:28:52+02:00</time>
      </trkpt>
      <trkpt lat="47.27305" lon="5.4055">
        <ele>182.90039</ele>
        <time>2026-05-15T12:28:53+02:00</time>
      </trkpt>
      <trkpt lat="47.27308" lon="5.40553">
        <ele>182.90039</ele>
        <time>2026-05-15T12:28:54+02:00</time>
      </trkpt>
      <trkpt lat="47.27311" lon="5.40556">
        <ele>183</ele>
        <time>2026-05-15T12:28:55+02:00</time>
      </trkpt>
      <trkpt lat="47.27315" lon="5.40559">
        <ele>183</ele>
        <time>2026-05-15T12:28:56+02:00</time>
      </trkpt>
      <trkpt lat="47.27318" lon="5.40562">
        <ele>183.10059</ele>
        <time>2026-05-15T12:28:57+02:00</time>
      </trkpt>
      <trkpt lat="47.27321" lon="5.40565">
        <ele>183.10059</ele>
        <time>2026-05-15T12:28:58+02:00</time>
      </trkpt>
      <trkpt lat="47.27325" lon="5.40568">
        <ele>183</ele>
        <time>2026-05-15T12:28:59+02:00</time>
      </trkpt>
      <trkpt lat="47.27329" lon="5.40571">
        <ele>183.10059</ele>
        <time>2026-05-15T12:29:00+02:00</time>
      </trkpt>
      <trkpt lat="47.27332" lon="5.40574">
        <ele>183.10059</ele>
        <time>2026-05-15T12:29:01+02:00</time>
      </trkpt>
      <trkpt lat="47.27336" lon="5.40577">
        <ele>183.10059</ele>
        <time>2026-05-15T12:29:02+02:00</time>
      </trkpt>
      <trkpt lat="47.2734" lon="5.40579">
        <ele>183.10059</ele>
        <time>2026-05-15T12:29:03+02:00</time>
      </trkpt>
      <trkpt lat="47.27344" lon="5.40581">
        <ele>183.2002</ele>
        <time>2026-05-15T12:29:04+02:00</time>
      </trkpt>
      <trkpt lat="47.27348" lon="5.40584">
        <ele>183.2002</ele>
        <time>2026-05-15T12:29:05+02:00</time>
      </trkpt>
      <trkpt lat="47.27352" lon="5.40586">
        <ele>183.2002</ele>
        <time>2026-05-15T12:29:06+02:00</time>
      </trkpt>
      <trkpt lat="47.27356" lon="5.40588">
        <ele>183.2002</ele>
        <time>2026-05-15T12:29:07+02:00</time>
      </trkpt>
      <trkpt lat="47.2736" lon="5.4059">
        <ele>183.2002</ele>
        <time>2026-05-15T12:29:08+02:00</time>
      </trkpt>
      <trkpt lat="47.27363" lon="5.40592">
        <ele>183.2002</ele>
        <time>2026-05-15T12:29:09+02:00</time>
      </trkpt>
      <trkpt lat="47.27367" lon="5.40594">
        <ele>183.2002</ele>
        <time>2026-05-15T12:29:10+02:00</time>
      </trkpt>
      <trkpt lat="47.27371" lon="5.40596">
        <ele>183.2002</ele>
        <time>2026-05-15T12:29:11+02:00</time>
      </trkpt>
      <trkpt lat="47.27373" lon="5.40598">
        <ele>183.2002</ele>
        <time>2026-05-15T12:29:12+02:00</time>
      </trkpt>
      <trkpt lat="47.27376" lon="5.40599">
        <ele>183.2002</ele>
        <time>2026-05-15T12:29:13+02:00</time>
      </trkpt>
      <trkpt lat="47.27379" lon="5.406">
        <ele>183.2002</ele>
        <time>2026-05-15T12:29:14+02:00</time>
      </trkpt>
      <trkpt lat="47.27381" lon="5.40602">
        <ele>183.2002</ele>
        <time>2026-05-15T12:29:15+02:00</time>
      </trkpt>
      <trkpt lat="47.27384" lon="5.40604">
        <ele>183.2002</ele>
        <time>2026-05-15T12:29:16+02:00</time>
      </trkpt>
      <trkpt lat="47.27385" lon="5.40606">
        <ele>183.2002</ele>
        <time>2026-05-15T12:29:17+02:00</time>
      </trkpt>
      <trkpt lat="47.27387" lon="5.40608">
        <ele>183.2002</ele>
        <time>2026-05-15T12:29:18+02:00</time>
      </trkpt>
      <trkpt lat="47.27388" lon="5.40608">
        <ele>183.2002</ele>
        <time>2026-05-15T12:29:19+02:00</time>
      </trkpt>
      <trkpt lat="47.27388" lon="5.40608">
        <ele>183.2002</ele>
        <time>2026-05-15T12:29:20+02:00</time>
      </trkpt>
      <trkpt lat="47.27388" lon="5.40608">
        <ele>183.2002</ele>
        <time>2026-05-15T12:29:21+02:00</time>
      </trkpt>
      <trkpt lat="47.27388" lon="5.40608">
        <ele>183.2002</ele>
        <time>2026-05-15T12:29:22+02:00</time>
      </trkpt>
      <trkpt lat="47.27388" lon="5.40608">
        <ele>183.2002</ele>
        <time>2026-05-15T12:29:23+02:00</time>
      </trkpt>
      <trkpt lat="47.27401" lon="5.40614">
        <ele>183.2998</ele>
        <time>2026-05-15T12:33:44+02:00</time>
      </trkpt>
      <trkpt lat="47.27405" lon="5.40615">
        <ele>183.40039</ele>
        <time>2026-05-15T12:33:45+02:00</time>
      </trkpt>
      <trkpt lat="47.27408" lon="5.40617">
        <ele>183.40039</ele>
        <time>2026-05-15T12:33:46+02:00</time>
      </trkpt>
      <trkpt lat="47.27411" lon="5.40619">
        <ele>183.60059</ele>
        <time>2026-05-15T12:33:47+02:00</time>
      </trkpt>
      <trkpt lat="47.27415" lon="5.40621">
        <ele>183.60059</ele>
        <time>2026-05-15T12:33:48+02:00</time>
      </trkpt>
      <trkpt lat="47.27419" lon="5.40623">
        <ele>183.7002</ele>
        <time>2026-05-15T12:33:49+02:00</time>
      </trkpt>
      <trkpt lat="47.27423" lon="5.40625">
        <ele>183.90039</ele>
        <time>2026-05-15T12:33:50+02:00</time>
      </trkpt>
      <trkpt lat="47.27427" lon="5.40627">
        <ele>183.90039</ele>
        <time>2026-05-15T12:33:51+02:00</time>
      </trkpt>
      <trkpt lat="47.27431" lon="5.4063">
        <ele>184.2002</ele>
        <time>2026-05-15T12:33:52+02:00</time>
      </trkpt>
      <trkpt lat="47.27435" lon="5.40632">
        <ele>184.40039</ele>
        <time>2026-05-15T12:33:53+02:00</time>
      </trkpt>
      <trkpt lat="47.27439" lon="5.40634">
        <ele>184.40039</ele>
        <time>2026-05-15T12:33:54+02:00</time>
      </trkpt>
      <trkpt lat="47.27443" lon="5.40636">
        <ele>184.7002</ele>
        <time>2026-05-15T12:33:55+02:00</time>
      </trkpt>
      <trkpt lat="47.27448" lon="5.40639">
        <ele>184.90039</ele>
        <time>2026-05-15T12:33:56+02:00</time>
      </trkpt>
      <trkpt lat="47.27452" lon="5.40642">
        <ele>185.2002</ele>
        <time>2026-05-15T12:33:57+02:00</time>
      </trkpt>
      <trkpt lat="47.27456" lon="5.40646">
        <ele>185.2002</ele>
        <time>2026-05-15T12:33:58+02:00</time>
      </trkpt>
      <trkpt lat="47.27461" lon="5.40649">
        <ele>185.2002</ele>
        <time>2026-05-15T12:33:59+02:00</time>
      </trkpt>
      <trkpt lat="47.27464" lon="5.40653">
        <ele>185.2998</ele>
        <time>2026-05-15T12:34:00+02:00</time>
      </trkpt>
      <trkpt lat="47.27467" lon="5.40657">
        <ele>185.2002</ele>
        <time>2026-05-15T12:34:01+02:00</time>
      </trkpt>
      <trkpt lat="47.27468" lon="5.40663">
        <ele>185.2002</ele>
        <time>2026-05-15T12:34:02+02:00</time>
      </trkpt>
      <trkpt lat="47.2747" lon="5.40668">
        <ele>185</ele>
        <time>2026-05-15T12:34:03+02:00</time>
      </trkpt>
      <trkpt lat="47.27471" lon="5.40675">
        <ele>184.7998</ele>
        <time>2026-05-15T12:34:04+02:00</time>
      </trkpt>
      <trkpt lat="47.27473" lon="5.40681">
        <ele>184.7998</ele>
        <time>2026-05-15T12:34:05+02:00</time>
      </trkpt>
      <trkpt lat="47.27475" lon="5.40688">
        <ele>184.40039</ele>
        <time>2026-05-15T12:34:06+02:00</time>
      </trkpt>
      <trkpt lat="47.27476" lon="5.40695">
        <ele>184.2002</ele>
        <time>2026-05-15T12:34:07+02:00</time>
      </trkpt>
      <trkpt lat="47.27477" lon="5.40702">
        <ele>184.10059</ele>
        <time>2026-05-15T12:34:08+02:00</time>
      </trkpt>
      <trkpt lat="47.27479" lon="5.40709">
        <ele>183.90039</ele>
        <time>2026-05-15T12:34:09+02:00</time>
      </trkpt>
      <trkpt lat="47.27481" lon="5.40715">
        <ele>183.60059</ele>
        <time>2026-05-15T12:34:10+02:00</time>
      </trkpt>
      <trkpt lat="47.27483" lon="5.40723">
        <ele>183.5</ele>
        <time>2026-05-15T12:34:11+02:00</time>
      </trkpt>
      <trkpt lat="47.27485" lon="5.4073">
        <ele>183.2998</ele>
        <time>2026-05-15T12:34:12+02:00</time>
      </trkpt>
      <trkpt lat="47.27487" lon="5.40738">
        <ele>182.90039</ele>
        <time>2026-05-15T12:34:13+02:00</time>
      </trkpt>
      <trkpt lat="47.27489" lon="5.40745">
        <ele>182.7998</ele>
        <time>2026-05-15T12:34:14+02:00</time>
      </trkpt>
      <trkpt lat="47.27492" lon="5.40753">
        <ele>182.60059</ele>
        <time>2026-05-15T12:34:15+02:00</time>
      </trkpt>
      <trkpt lat="47.27494" lon="5.4076">
        <ele>183.10059</ele>
        <time>2026-05-15T12:34:16+02:00</time>
      </trkpt>
      <trkpt lat="47.27496" lon="5.40768">
        <ele>183.60059</ele>
        <time>2026-05-15T12:34:17+02:00</time>
      </trkpt>
      <trkpt lat="47.27499" lon="5.40775">
        <ele>183.60059</ele>
        <time>2026-05-15T12:34:18+02:00</time>
      </trkpt>
      <trkpt lat="47.27501" lon="5.40781">
        <ele>184</ele>
        <time>2026-05-15T12:34:19+02:00</time>
      </trkpt>
      <trkpt lat="47.27503" lon="5.40788">
        <ele>184</ele>
        <time>2026-05-15T12:34:20+02:00</time>
      </trkpt>
      <trkpt lat="47.27506" lon="5.40794">
        <ele>183.60059</ele>
        <time>2026-05-15T12:34:21+02:00</time>
      </trkpt>
      <trkpt lat="47.27508" lon="5.408">
        <ele>183.60059</ele>
        <time>2026-05-15T12:34:22+02:00</time>
      </trkpt>
      <trkpt lat="47.27509" lon="5.40806">
        <ele>183.40039</ele>
        <time>2026-05-15T12:34:23+02:00</time>
      </trkpt>
      <trkpt lat="47.27512" lon="5.40812">
        <ele>183.40039</ele>
        <time>2026-05-15T12:34:24+02:00</time>
      </trkpt>
      <trkpt lat="47.27514" lon="5.40818">
        <ele>183.40039</ele>
        <time>2026-05-15T12:34:25+02:00</time>
      </trkpt>
      <trkpt lat="47.27516" lon="5.40824">
        <ele>183.7002</ele>
        <time>2026-05-15T12:34:26+02:00</time>
      </trkpt>
      <trkpt lat="47.27518" lon="5.40829">
        <ele>184.10059</ele>
        <time>2026-05-15T12:34:27+02:00</time>
      </trkpt>
      <trkpt lat="47.27521" lon="5.40836">
        <ele>184.2998</ele>
        <time>2026-05-15T12:34:28+02:00</time>
      </trkpt>
      <trkpt lat="47.27524" lon="5.40843">
        <ele>184.7002</ele>
        <time>2026-05-15T12:34:29+02:00</time>
      </trkpt>
      <trkpt lat="47.27527" lon="5.40849">
        <ele>184.90039</ele>
        <time>2026-05-15T12:34:30+02:00</time>
      </trkpt>
      <trkpt lat="47.2753" lon="5.40856">
        <ele>184.60059</ele>
        <time>2026-05-15T12:34:31+02:00</time>
      </trkpt>
      <trkpt lat="47.27533" lon="5.40862">
        <ele>184.10059</ele>
        <time>2026-05-15T12:34:32+02:00</time>
      </trkpt>
      <trkpt lat="47.27536" lon="5.40869">
        <ele>184.2998</ele>
        <time>2026-05-15T12:34:33+02:00</time>
      </trkpt>
      <trkpt lat="47.27539" lon="5.40876">
        <ele>184.5</ele>
        <time>2026-05-15T12:34:34+02:00</time>
      </trkpt>
      <trkpt lat="47.27543" lon="5.40883">
        <ele>184.60059</ele>
        <time>2026-05-15T12:34:35+02:00</time>
      </trkpt>
      <trkpt lat="47.27546" lon="5.40889">
        <ele>184.60059</ele>
        <time>2026-05-15T12:34:36+02:00</time>
      </trkpt>
      <trkpt lat="47.27549" lon="5.40896">
        <ele>184.60059</ele>
        <time>2026-05-15T12:34:37+02:00</time>
      </trkpt>
      <trkpt lat="47.27553" lon="5.40902">
        <ele>184.5</ele>
        <time>2026-05-15T12:34:38+02:00</time>
      </trkpt>
      <trkpt lat="47.27556" lon="5.40909">
        <ele>184.40039</ele>
        <time>2026-05-15T12:34:39+02:00</time>
      </trkpt>
      <trkpt lat="47.2756" lon="5.40915">
        <ele>184.7002</ele>
        <time>2026-05-15T12:34:40+02:00</time>
      </trkpt>
      <trkpt lat="47.27564" lon="5.40922">
        <ele>185.10059</ele>
        <time>2026-05-15T12:34:41+02:00</time>
      </trkpt>
      <trkpt lat="47.27567" lon="5.40928">
        <ele>185</ele>
        <time>2026-05-15T12:34:42+02:00</time>
      </trkpt>
      <trkpt lat="47.27571" lon="5.40935">
        <ele>185.10059</ele>
        <time>2026-05-15T12:34:43+02:00</time>
      </trkpt>
      <trkpt lat="47.27575" lon="5.40942">
        <ele>184.90039</ele>
        <time>2026-05-15T12:34:44+02:00</time>
      </trkpt>
      <trkpt lat="47.27579" lon="5.40949">
        <ele>184.90039</ele>
        <time>2026-05-15T12:34:45+02:00</time>
      </trkpt>
      <trkpt lat="47.27583" lon="5.40956">
        <ele>184.60059</ele>
        <time>2026-05-15T12:34:46+02:00</time>
      </trkpt>
      <trkpt lat="47.27587" lon="5.40963">
        <ele>185.10059</ele>
        <time>2026-05-15T12:34:47+02:00</time>
      </trkpt>
      <trkpt lat="47.27591" lon="5.40969">
        <ele>185.5</ele>
        <time>2026-05-15T12:34:48+02:00</time>
      </trkpt>
      <trkpt lat="47.27595" lon="5.40976">
        <ele>185.90039</ele>
        <time>2026-05-15T12:34:49+02:00</time>
      </trkpt>
      <trkpt lat="47.276" lon="5.40982">
        <ele>185.7998</ele>
        <time>2026-05-15T12:34:50+02:00</time>
      </trkpt>
      <trkpt lat="47.27604" lon="5.40988">
        <ele>185.40039</ele>
        <time>2026-05-15T12:34:51+02:00</time>
      </trkpt>
      <trkpt lat="47.27609" lon="5.40994">
        <ele>184.7002</ele>
        <time>2026-05-15T12:34:52+02:00</time>
      </trkpt>
      <trkpt lat="47.27613" lon="5.41">
        <ele>184.7002</ele>
        <time>2026-05-15T12:34:53+02:00</time>
      </trkpt>
      <trkpt lat="47.27617" lon="5.41005">
        <ele>184.2998</ele>
        <time>2026-05-15T12:34:54+02:00</time>
      </trkpt>
      <trkpt lat="47.27622" lon="5.41011">
        <ele>184.2998</ele>
        <time>2026-05-15T12:34:55+02:00</time>
      </trkpt>
      <trkpt lat="47.27626" lon="5.41016">
        <ele>184.2002</ele>
        <time>2026-05-15T12:34:56+02:00</time>
      </trkpt>
      <trkpt lat="47.27631" lon="5.41021">
        <ele>184.60059</ele>
        <time>2026-05-15T12:34:57+02:00</time>
      </trkpt>
      <trkpt lat="47.27636" lon="5.41026">
        <ele>184.90039</ele>
        <time>2026-05-15T12:34:58+02:00</time>
      </trkpt>
      <trkpt lat="47.27641" lon="5.4103">
        <ele>184.7002</ele>
        <time>2026-05-15T12:34:59+02:00</time>
      </trkpt>
      <trkpt lat="47.27646" lon="5.41034">
        <ele>184.60059</ele>
        <time>2026-05-15T12:35:00+02:00</time>
      </trkpt>
      <trkpt lat="47.27651" lon="5.41038">
        <ele>184.40039</ele>
        <time>2026-05-15T12:35:01+02:00</time>
      </trkpt>
      <trkpt lat="47.27656" lon="5.41042">
        <ele>184.10059</ele>
        <time>2026-05-15T12:35:02+02:00</time>
      </trkpt>
      <trkpt lat="47.27661" lon="5.41046">
        <ele>184.10059</ele>
        <time>2026-05-15T12:35:03+02:00</time>
      </trkpt>
      <trkpt lat="47.27667" lon="5.4105">
        <ele>184.10059</ele>
        <time>2026-05-15T12:35:04+02:00</time>
      </trkpt>
      <trkpt lat="47.27672" lon="5.41054">
        <ele>184.40039</ele>
        <time>2026-05-15T12:35:05+02:00</time>
      </trkpt>
      <trkpt lat="47.27677" lon="5.41057">
        <ele>184.60059</ele>
        <time>2026-05-15T12:35:06+02:00</time>
      </trkpt>
      <trkpt lat="47.27682" lon="5.41061">
        <ele>185.2998</ele>
        <time>2026-05-15T12:35:07+02:00</time>
      </trkpt>
      <trkpt lat="47.27688" lon="5.41065">
        <ele>185.5</ele>
        <time>2026-05-15T12:35:08+02:00</time>
      </trkpt>
      <trkpt lat="47.27693" lon="5.41068">
        <ele>185.5</ele>
        <time>2026-05-15T12:35:09+02:00</time>
      </trkpt>
      <trkpt lat="47.27699" lon="5.41071">
        <ele>185.10059</ele>
        <time>2026-05-15T12:35:10+02:00</time>
      </trkpt>
      <trkpt lat="47.27704" lon="5.41074">
        <ele>184.60059</ele>
        <time>2026-05-15T12:35:11+02:00</time>
      </trkpt>
      <trkpt lat="47.2771" lon="5.41077">
        <ele>184.5</ele>
        <time>2026-05-15T12:35:12+02:00</time>
      </trkpt>
      <trkpt lat="47.27715" lon="5.4108">
        <ele>184.40039</ele>
        <time>2026-05-15T12:35:13+02:00</time>
      </trkpt>
      <trkpt lat="47.27722" lon="5.41083">
        <ele>184.2002</ele>
        <time>2026-05-15T12:35:14+02:00</time>
      </trkpt>
      <trkpt lat="47.27727" lon="5.41086">
        <ele>184.2998</ele>
        <time>2026-05-15T12:35:15+02:00</time>
      </trkpt>
      <trkpt lat="47.27733" lon="5.4109">
        <ele>184</ele>
        <time>2026-05-15T12:35:16+02:00</time>
      </trkpt>
      <trkpt lat="47.27738" lon="5.41094">
        <ele>184.10059</ele>
        <time>2026-05-15T12:35:17+02:00</time>
      </trkpt>
      <trkpt lat="47.27744" lon="5.41097">
        <ele>184.10059</ele>
        <time>2026-05-15T12:35:18+02:00</time>
      </trkpt>
      <trkpt lat="47.27749" lon="5.41101">
        <ele>184.10059</ele>
        <time>2026-05-15T12:35:19+02:00</time>
      </trkpt>
      <trkpt lat="47.27755" lon="5.41105">
        <ele>184.7002</ele>
        <time>2026-05-15T12:35:20+02:00</time>
      </trkpt>
      <trkpt lat="47.2776" lon="5.41109">
        <ele>184.7002</ele>
        <time>2026-05-15T12:35:21+02:00</time>
      </trkpt>
      <trkpt lat="47.27765" lon="5.41113">
        <ele>185.2998</ele>
        <time>2026-05-15T12:35:22+02:00</time>
      </trkpt>
      <trkpt lat="47.27771" lon="5.41116">
        <ele>185.2998</ele>
        <time>2026-05-15T12:35:23+02:00</time>
      </trkpt>
      <trkpt lat="47.27776" lon="5.4112">
        <ele>185.5</ele>
        <time>2026-05-15T12:35:24+02:00</time>
      </trkpt>
      <trkpt lat="47.27783" lon="5.41123">
        <ele>185.2998</ele>
        <time>2026-05-15T12:35:25+02:00</time>
      </trkpt>
      <trkpt lat="47.27788" lon="5.41125">
        <ele>185.10059</ele>
        <time>2026-05-15T12:35:26+02:00</time>
      </trkpt>
      <trkpt lat="47.27794" lon="5.41127">
        <ele>184.7998</ele>
        <time>2026-05-15T12:35:27+02:00</time>
      </trkpt>
      <trkpt lat="47.27799" lon="5.41129">
        <ele>184.7998</ele>
        <time>2026-05-15T12:35:28+02:00</time>
      </trkpt>
      <trkpt lat="47.27805" lon="5.41131">
        <ele>184.60059</ele>
        <time>2026-05-15T12:35:29+02:00</time>
      </trkpt>
      <trkpt lat="47.2781" lon="5.41133">
        <ele>184.5</ele>
        <time>2026-05-15T12:35:30+02:00</time>
      </trkpt>
      <trkpt lat="47.27816" lon="5.41134">
        <ele>184.5</ele>
        <time>2026-05-15T12:35:31+02:00</time>
      </trkpt>
      <trkpt lat="47.27821" lon="5.41136">
        <ele>184.5</ele>
        <time>2026-05-15T12:35:32+02:00</time>
      </trkpt>
      <trkpt lat="47.27827" lon="5.41137">
        <ele>185.2002</ele>
        <time>2026-05-15T12:35:33+02:00</time>
      </trkpt>
      <trkpt lat="47.27832" lon="5.41139">
        <ele>185</ele>
        <time>2026-05-15T12:35:34+02:00</time>
      </trkpt>
      <trkpt lat="47.27838" lon="5.4114">
        <ele>184.7002</ele>
        <time>2026-05-15T12:35:35+02:00</time>
      </trkpt>
      <trkpt lat="47.27843" lon="5.41142">
        <ele>184.2998</ele>
        <time>2026-05-15T12:35:36+02:00</time>
      </trkpt>
      <trkpt lat="47.27849" lon="5.41143">
        <ele>183.90039</ele>
        <time>2026-05-15T12:35:37+02:00</time>
      </trkpt>
      <trkpt lat="47.27854" lon="5.41144">
        <ele>183.7002</ele>
        <time>2026-05-15T12:35:38+02:00</time>
      </trkpt>
      <trkpt lat="47.2786" lon="5.41146">
        <ele>183.90039</ele>
        <time>2026-05-15T12:35:39+02:00</time>
      </trkpt>
      <trkpt lat="47.27866" lon="5.41147">
        <ele>183.90039</ele>
        <time>2026-05-15T12:35:40+02:00</time>
      </trkpt>
      <trkpt lat="47.27871" lon="5.41148">
        <ele>183.7998</ele>
        <time>2026-05-15T12:35:41+02:00</time>
      </trkpt>
      <trkpt lat="47.27877" lon="5.41148">
        <ele>183.7998</ele>
        <time>2026-05-15T12:35:42+02:00</time>
      </trkpt>
      <trkpt lat="47.27882" lon="5.41149">
        <ele>183.7998</ele>
        <time>2026-05-15T12:35:43+02:00</time>
      </trkpt>
      <trkpt lat="47.27888" lon="5.4115">
        <ele>183.7998</ele>
        <time>2026-05-15T12:35:44+02:00</time>
      </trkpt>
      <trkpt lat="47.27894" lon="5.4115">
        <ele>183.7998</ele>
        <time>2026-05-15T12:35:45+02:00</time>
      </trkpt>
      <trkpt lat="47.27899" lon="5.41149">
        <ele>183.7998</ele>
        <time>2026-05-15T12:35:46+02:00</time>
      </trkpt>
      <trkpt lat="47.27905" lon="5.41149">
        <ele>183.7998</ele>
        <time>2026-05-15T12:35:47+02:00</time>
      </trkpt>
      <trkpt lat="47.27911" lon="5.41149">
        <ele>183.7002</ele>
        <time>2026-05-15T12:35:48+02:00</time>
      </trkpt>
      <trkpt lat="47.27916" lon="5.41148">
        <ele>183.7002</ele>
        <time>2026-05-15T12:35:49+02:00</time>
      </trkpt>
      <trkpt lat="47.27922" lon="5.41148">
        <ele>183.7002</ele>
        <time>2026-05-15T12:35:50+02:00</time>
      </trkpt>
      <trkpt lat="47.27928" lon="5.41147">
        <ele>183.7002</ele>
        <time>2026-05-15T12:35:51+02:00</time>
      </trkpt>
      <trkpt lat="47.27933" lon="5.41146">
        <ele>183.7002</ele>
        <time>2026-05-15T12:35:52+02:00</time>
      </trkpt>
      <trkpt lat="47.27939" lon="5.41146">
        <ele>183.7002</ele>
        <time>2026-05-15T12:35:53+02:00</time>
      </trkpt>
      <trkpt lat="47.27945" lon="5.41145">
        <ele>182.90039</ele>
        <time>2026-05-15T12:35:54+02:00</time>
      </trkpt>
      <trkpt lat="47.2795" lon="5.41144">
        <ele>182.7998</ele>
        <time>2026-05-15T12:35:55+02:00</time>
      </trkpt>
      <trkpt lat="47.27956" lon="5.41143">
        <ele>182.7002</ele>
        <time>2026-05-15T12:35:56+02:00</time>
      </trkpt>
      <trkpt lat="47.27962" lon="5.41142">
        <ele>182.7002</ele>
        <time>2026-05-15T12:35:57+02:00</time>
      </trkpt>
      <trkpt lat="47.27968" lon="5.41141">
        <ele>182.7002</ele>
        <time>2026-05-15T12:35:58+02:00</time>
      </trkpt>
      <trkpt lat="47.27973" lon="5.4114">
        <ele>182.60059</ele>
        <time>2026-05-15T12:35:59+02:00</time>
      </trkpt>
      <trkpt lat="47.27979" lon="5.41139">
        <ele>182.60059</ele>
        <time>2026-05-15T12:36:00+02:00</time>
      </trkpt>
      <trkpt lat="47.27984" lon="5.41138">
        <ele>182.60059</ele>
        <time>2026-05-15T12:36:01+02:00</time>
      </trkpt>
      <trkpt lat="47.2799" lon="5.41136">
        <ele>182.40039</ele>
        <time>2026-05-15T12:36:02+02:00</time>
      </trkpt>
      <trkpt lat="47.27995" lon="5.41135">
        <ele>182.2998</ele>
        <time>2026-05-15T12:36:03+02:00</time>
      </trkpt>
      <trkpt lat="47.28001" lon="5.41133">
        <ele>182.2998</ele>
        <time>2026-05-15T12:36:04+02:00</time>
      </trkpt>
      <trkpt lat="47.28006" lon="5.41132">
        <ele>182.2998</ele>
        <time>2026-05-15T12:36:05+02:00</time>
      </trkpt>
      <trkpt lat="47.28012" lon="5.41131">
        <ele>182.2998</ele>
        <time>2026-05-15T12:36:06+02:00</time>
      </trkpt>
      <trkpt lat="47.28017" lon="5.4113">
        <ele>182.40039</ele>
        <time>2026-05-15T12:36:07+02:00</time>
      </trkpt>
      <trkpt lat="47.28023" lon="5.41129">
        <ele>182.7002</ele>
        <time>2026-05-15T12:36:08+02:00</time>
      </trkpt>
      <trkpt lat="47.28028" lon="5.41127">
        <ele>183</ele>
        <time>2026-05-15T12:36:09+02:00</time>
      </trkpt>
      <trkpt lat="47.28033" lon="5.41126">
        <ele>183</ele>
        <time>2026-05-15T12:36:10+02:00</time>
      </trkpt>
      <trkpt lat="47.28039" lon="5.41125">
        <ele>183.5</ele>
        <time>2026-05-15T12:36:11+02:00</time>
      </trkpt>
      <trkpt lat="47.28044" lon="5.41123">
        <ele>184.40039</ele>
        <time>2026-05-15T12:36:12+02:00</time>
      </trkpt>
      <trkpt lat="47.2805" lon="5.41123">
        <ele>185.2998</ele>
        <time>2026-05-15T12:36:13+02:00</time>
      </trkpt>
      <trkpt lat="47.28055" lon="5.41122">
        <ele>186</ele>
        <time>2026-05-15T12:36:14+02:00</time>
      </trkpt>
      <trkpt lat="47.2806" lon="5.4112">
        <ele>186</ele>
        <time>2026-05-15T12:36:15+02:00</time>
      </trkpt>
      <trkpt lat="47.28065" lon="5.41119">
        <ele>185</ele>
        <time>2026-05-15T12:36:16+02:00</time>
      </trkpt>
      <trkpt lat="47.28071" lon="5.41118">
        <ele>184.7998</ele>
        <time>2026-05-15T12:36:17+02:00</time>
      </trkpt>
      <trkpt lat="47.28076" lon="5.41117">
        <ele>184.7002</ele>
        <time>2026-05-15T12:36:18+02:00</time>
      </trkpt>
      <trkpt lat="47.28082" lon="5.41116">
        <ele>184.7998</ele>
        <time>2026-05-15T12:36:19+02:00</time>
      </trkpt>
      <trkpt lat="47.28087" lon="5.41115">
        <ele>184.90039</ele>
        <time>2026-05-15T12:36:20+02:00</time>
      </trkpt>
      <trkpt lat="47.28093" lon="5.41114">
        <ele>185.10059</ele>
        <time>2026-05-15T12:36:21+02:00</time>
      </trkpt>
      <trkpt lat="47.28098" lon="5.41112">
        <ele>185.2998</ele>
        <time>2026-05-15T12:36:22+02:00</time>
      </trkpt>
      <trkpt lat="47.28104" lon="5.41111">
        <ele>185.5</ele>
        <time>2026-05-15T12:36:23+02:00</time>
      </trkpt>
      <trkpt lat="47.28109" lon="5.4111">
        <ele>184.7002</ele>
        <time>2026-05-15T12:36:24+02:00</time>
      </trkpt>
      <trkpt lat="47.28114" lon="5.41108">
        <ele>184.7998</ele>
        <time>2026-05-15T12:36:25+02:00</time>
      </trkpt>
      <trkpt lat="47.2812" lon="5.41107">
        <ele>185</ele>
        <time>2026-05-15T12:36:26+02:00</time>
      </trkpt>
      <trkpt lat="47.28125" lon="5.41106">
        <ele>185.2002</ele>
        <time>2026-05-15T12:36:27+02:00</time>
      </trkpt>
      <trkpt lat="47.28131" lon="5.41105">
        <ele>185.2998</ele>
        <time>2026-05-15T12:36:28+02:00</time>
      </trkpt>
      <trkpt lat="47.28137" lon="5.41104">
        <ele>185.40039</ele>
        <time>2026-05-15T12:36:29+02:00</time>
      </trkpt>
      <trkpt lat="47.28142" lon="5.41103">
        <ele>185.60059</ele>
        <time>2026-05-15T12:36:30+02:00</time>
      </trkpt>
      <trkpt lat="47.28148" lon="5.41102">
        <ele>184.60059</ele>
        <time>2026-05-15T12:36:31+02:00</time>
      </trkpt>
      <trkpt lat="47.28153" lon="5.41101">
        <ele>184.7998</ele>
        <time>2026-05-15T12:36:32+02:00</time>
      </trkpt>
      <trkpt lat="47.28159" lon="5.41099">
        <ele>184.90039</ele>
        <time>2026-05-15T12:36:33+02:00</time>
      </trkpt>
      <trkpt lat="47.28164" lon="5.41097">
        <ele>185</ele>
        <time>2026-05-15T12:36:34+02:00</time>
      </trkpt>
      <trkpt lat="47.2817" lon="5.41096">
        <ele>185.10059</ele>
        <time>2026-05-15T12:36:35+02:00</time>
      </trkpt>
      <trkpt lat="47.28175" lon="5.41094">
        <ele>185.2998</ele>
        <time>2026-05-15T12:36:36+02:00</time>
      </trkpt>
      <trkpt lat="47.28181" lon="5.41093">
        <ele>184.5</ele>
        <time>2026-05-15T12:36:37+02:00</time>
      </trkpt>
      <trkpt lat="47.28186" lon="5.41092">
        <ele>184.7002</ele>
        <time>2026-05-15T12:36:38+02:00</time>
      </trkpt>
      <trkpt lat="47.28191" lon="5.4109">
        <ele>184.90039</ele>
        <time>2026-05-15T12:36:39+02:00</time>
      </trkpt>
      <trkpt lat="47.28196" lon="5.41089">
        <ele>184.90039</ele>
        <time>2026-05-15T12:36:40+02:00</time>
      </trkpt>
      <trkpt lat="47.28201" lon="5.41087">
        <ele>185.10059</ele>
        <time>2026-05-15T12:36:41+02:00</time>
      </trkpt>
      <trkpt lat="47.28207" lon="5.41085">
        <ele>184.40039</ele>
        <time>2026-05-15T12:36:42+02:00</time>
      </trkpt>
      <trkpt lat="47.28212" lon="5.41084">
        <ele>184.40039</ele>
        <time>2026-05-15T12:36:43+02:00</time>
      </trkpt>
      <trkpt lat="47.28218" lon="5.41083">
        <ele>184.10059</ele>
        <time>2026-05-15T12:36:44+02:00</time>
      </trkpt>
      <trkpt lat="47.28224" lon="5.41081">
        <ele>183.5</ele>
        <time>2026-05-15T12:36:45+02:00</time>
      </trkpt>
      <trkpt lat="47.28229" lon="5.4108">
        <ele>182.7998</ele>
        <time>2026-05-15T12:36:46+02:00</time>
      </trkpt>
      <trkpt lat="47.28235" lon="5.41079">
        <ele>182.5</ele>
        <time>2026-05-15T12:36:47+02:00</time>
      </trkpt>
      <trkpt lat="47.2824" lon="5.41077">
        <ele>182.40039</ele>
        <time>2026-05-15T12:36:48+02:00</time>
      </trkpt>
      <trkpt lat="47.28245" lon="5.41077">
        <ele>182.2998</ele>
        <time>2026-05-15T12:36:49+02:00</time>
      </trkpt>
      <trkpt lat="47.2825" lon="5.41076">
        <ele>182.2998</ele>
        <time>2026-05-15T12:36:50+02:00</time>
      </trkpt>
      <trkpt lat="47.28256" lon="5.41075">
        <ele>182.2998</ele>
        <time>2026-05-15T12:36:51+02:00</time>
      </trkpt>
      <trkpt lat="47.28261" lon="5.41074">
        <ele>182.2002</ele>
        <time>2026-05-15T12:36:52+02:00</time>
      </trkpt>
      <trkpt lat="47.28267" lon="5.41072">
        <ele>182.2002</ele>
        <time>2026-05-15T12:36:53+02:00</time>
      </trkpt>
      <trkpt lat="47.28273" lon="5.41071">
        <ele>182.5</ele>
        <time>2026-05-15T12:36:54+02:00</time>
      </trkpt>
      <trkpt lat="47.28278" lon="5.41071">
        <ele>182.5</ele>
        <time>2026-05-15T12:36:55+02:00</time>
      </trkpt>
      <trkpt lat="47.28283" lon="5.4107">
        <ele>183.2002</ele>
        <time>2026-05-15T12:36:56+02:00</time>
      </trkpt>
      <trkpt lat="47.28288" lon="5.41069">
        <ele>185</ele>
        <time>2026-05-15T12:36:57+02:00</time>
      </trkpt>
      <trkpt lat="47.28293" lon="5.41069">
        <ele>187.2998</ele>
        <time>2026-05-15T12:36:58+02:00</time>
      </trkpt>
      <trkpt lat="47.28298" lon="5.41068">
        <ele>187.7998</ele>
        <time>2026-05-15T12:36:59+02:00</time>
      </trkpt>
      <trkpt lat="47.28302" lon="5.41067">
        <ele>188.2002</ele>
        <time>2026-05-15T12:37:00+02:00</time>
      </trkpt>
      <trkpt lat="47.28307" lon="5.41067">
        <ele>188.2002</ele>
        <time>2026-05-15T12:37:01+02:00</time>
      </trkpt>
      <trkpt lat="47.28313" lon="5.41066">
        <ele>188.5</ele>
        <time>2026-05-15T12:37:02+02:00</time>
      </trkpt>
      <trkpt lat="47.28319" lon="5.41065">
        <ele>188.5</ele>
        <time>2026-05-15T12:37:03+02:00</time>
      </trkpt>
      <trkpt lat="47.28324" lon="5.41064">
        <ele>188.5</ele>
        <time>2026-05-15T12:37:04+02:00</time>
      </trkpt>
      <trkpt lat="47.28331" lon="5.41063">
        <ele>188.2998</ele>
        <time>2026-05-15T12:37:05+02:00</time>
      </trkpt>
      <trkpt lat="47.28336" lon="5.41062">
        <ele>188.2998</ele>
        <time>2026-05-15T12:37:06+02:00</time>
      </trkpt>
      <trkpt lat="47.28343" lon="5.41061">
        <ele>188.2002</ele>
        <time>2026-05-15T12:37:07+02:00</time>
      </trkpt>
      <trkpt lat="47.28349" lon="5.4106">
        <ele>188.10059</ele>
        <time>2026-05-15T12:37:08+02:00</time>
      </trkpt>
      <trkpt lat="47.28355" lon="5.41058">
        <ele>186.90039</ele>
        <time>2026-05-15T12:37:09+02:00</time>
      </trkpt>
      <trkpt lat="47.28361" lon="5.41057">
        <ele>187</ele>
        <time>2026-05-15T12:37:10+02:00</time>
      </trkpt>
      <trkpt lat="47.28367" lon="5.41056">
        <ele>187.2002</ele>
        <time>2026-05-15T12:37:11+02:00</time>
      </trkpt>
      <trkpt lat="47.28373" lon="5.41054">
        <ele>187.60059</ele>
        <time>2026-05-15T12:37:12+02:00</time>
      </trkpt>
      <trkpt lat="47.28379" lon="5.41053">
        <ele>188.10059</ele>
        <time>2026-05-15T12:37:13+02:00</time>
      </trkpt>
      <trkpt lat="47.28385" lon="5.41052">
        <ele>188.60059</ele>
        <time>2026-05-15T12:37:14+02:00</time>
      </trkpt>
      <trkpt lat="47.28391" lon="5.41051">
        <ele>188.90039</ele>
        <time>2026-05-15T12:37:15+02:00</time>
      </trkpt>
      <trkpt lat="47.28398" lon="5.4105">
        <ele>187.10059</ele>
        <time>2026-05-15T12:37:16+02:00</time>
      </trkpt>
      <trkpt lat="47.28404" lon="5.41049">
        <ele>187.2002</ele>
        <time>2026-05-15T12:37:17+02:00</time>
      </trkpt>
      <trkpt lat="47.2841" lon="5.41047">
        <ele>187.40039</ele>
        <time>2026-05-15T12:37:18+02:00</time>
      </trkpt>
      <trkpt lat="47.28417" lon="5.41046">
        <ele>187.60059</ele>
        <time>2026-05-15T12:37:19+02:00</time>
      </trkpt>
      <trkpt lat="47.28423" lon="5.41044">
        <ele>187.7002</ele>
        <time>2026-05-15T12:37:20+02:00</time>
      </trkpt>
      <trkpt lat="47.28429" lon="5.41043">
        <ele>187.90039</ele>
        <time>2026-05-15T12:37:21+02:00</time>
      </trkpt>
      <trkpt lat="47.28435" lon="5.41042">
        <ele>186.2002</ele>
        <time>2026-05-15T12:37:22+02:00</time>
      </trkpt>
      <trkpt lat="47.28441" lon="5.41041">
        <ele>186.2998</ele>
        <time>2026-05-15T12:37:23+02:00</time>
      </trkpt>
      <trkpt lat="47.28446" lon="5.4104">
        <ele>186.5</ele>
        <time>2026-05-15T12:37:24+02:00</time>
      </trkpt>
      <trkpt lat="47.28452" lon="5.41038">
        <ele>186.60059</ele>
        <time>2026-05-15T12:37:25+02:00</time>
      </trkpt>
      <trkpt lat="47.28458" lon="5.41037">
        <ele>186.7998</ele>
        <time>2026-05-15T12:37:26+02:00</time>
      </trkpt>
      <trkpt lat="47.28464" lon="5.41036">
        <ele>187</ele>
        <time>2026-05-15T12:37:27+02:00</time>
      </trkpt>
      <trkpt lat="47.28469" lon="5.41035">
        <ele>187.2002</ele>
        <time>2026-05-15T12:37:28+02:00</time>
      </trkpt>
      <trkpt lat="47.28475" lon="5.41034">
        <ele>187.40039</ele>
        <time>2026-05-15T12:37:29+02:00</time>
      </trkpt>
      <trkpt lat="47.2848" lon="5.41033">
        <ele>185.7002</ele>
        <time>2026-05-15T12:37:30+02:00</time>
      </trkpt>
      <trkpt lat="47.28486" lon="5.41032">
        <ele>185.7998</ele>
        <time>2026-05-15T12:37:31+02:00</time>
      </trkpt>
      <trkpt lat="47.28492" lon="5.41031">
        <ele>185.90039</ele>
        <time>2026-05-15T12:37:32+02:00</time>
      </trkpt>
      <trkpt lat="47.28497" lon="5.4103">
        <ele>186</ele>
        <time>2026-05-15T12:37:33+02:00</time>
      </trkpt>
      <trkpt lat="47.28503" lon="5.4103">
        <ele>186.2002</ele>
        <time>2026-05-15T12:37:34+02:00</time>
      </trkpt>
      <trkpt lat="47.28509" lon="5.41029">
        <ele>186.2998</ele>
        <time>2026-05-15T12:37:35+02:00</time>
      </trkpt>
      <trkpt lat="47.28514" lon="5.41028">
        <ele>186.40039</ele>
        <time>2026-05-15T12:37:36+02:00</time>
      </trkpt>
      <trkpt lat="47.2852" lon="5.41027">
        <ele>186.5</ele>
        <time>2026-05-15T12:37:37+02:00</time>
      </trkpt>
      <trkpt lat="47.28525" lon="5.41026">
        <ele>186.60059</ele>
        <time>2026-05-15T12:37:38+02:00</time>
      </trkpt>
      <trkpt lat="47.28531" lon="5.41026">
        <ele>186.7002</ele>
        <time>2026-05-15T12:37:39+02:00</time>
      </trkpt>
      <trkpt lat="47.28536" lon="5.41025">
        <ele>185.2998</ele>
        <time>2026-05-15T12:37:40+02:00</time>
      </trkpt>
      <trkpt lat="47.28542" lon="5.41024">
        <ele>185.2998</ele>
        <time>2026-05-15T12:37:41+02:00</time>
      </trkpt>
      <trkpt lat="47.28547" lon="5.41024">
        <ele>185.40039</ele>
        <time>2026-05-15T12:37:42+02:00</time>
      </trkpt>
      <trkpt lat="47.28553" lon="5.41023">
        <ele>185.5</ele>
        <time>2026-05-15T12:37:43+02:00</time>
      </trkpt>
      <trkpt lat="47.28558" lon="5.41023">
        <ele>185.5</ele>
        <time>2026-05-15T12:37:44+02:00</time>
      </trkpt>
      <trkpt lat="47.28563" lon="5.41023">
        <ele>185.5</ele>
        <time>2026-05-15T12:37:45+02:00</time>
      </trkpt>
      <trkpt lat="47.28569" lon="5.41023">
        <ele>185.60059</ele>
        <time>2026-05-15T12:37:46+02:00</time>
      </trkpt>
      <trkpt lat="47.28574" lon="5.41024">
        <ele>185.7002</ele>
        <time>2026-05-15T12:37:47+02:00</time>
      </trkpt>
      <trkpt lat="47.2858" lon="5.41024">
        <ele>185.7998</ele>
        <time>2026-05-15T12:37:48+02:00</time>
      </trkpt>
      <trkpt lat="47.28586" lon="5.41024">
        <ele>185.90039</ele>
        <time>2026-05-15T12:37:49+02:00</time>
      </trkpt>
      <trkpt lat="47.28591" lon="5.41025">
        <ele>186</ele>
        <time>2026-05-15T12:37:50+02:00</time>
      </trkpt>
      <trkpt lat="47.28597" lon="5.41026">
        <ele>188</ele>
        <time>2026-05-15T12:37:51+02:00</time>
      </trkpt>
      <trkpt lat="47.28602" lon="5.41027">
        <ele>188</ele>
        <time>2026-05-15T12:37:52+02:00</time>
      </trkpt>
      <trkpt lat="47.28608" lon="5.41028">
        <ele>188.10059</ele>
        <time>2026-05-15T12:37:53+02:00</time>
      </trkpt>
      <trkpt lat="47.28613" lon="5.41029">
        <ele>188.10059</ele>
        <time>2026-05-15T12:37:54+02:00</time>
      </trkpt>
      <trkpt lat="47.28619" lon="5.4103">
        <ele>188.10059</ele>
        <time>2026-05-15T12:37:55+02:00</time>
      </trkpt>
      <trkpt lat="47.28625" lon="5.4103">
        <ele>188.10059</ele>
        <time>2026-05-15T12:37:56+02:00</time>
      </trkpt>
      <trkpt lat="47.28631" lon="5.41031">
        <ele>188</ele>
        <time>2026-05-15T12:37:57+02:00</time>
      </trkpt>
      <trkpt lat="47.28637" lon="5.41033">
        <ele>187.90039</ele>
        <time>2026-05-15T12:37:58+02:00</time>
      </trkpt>
      <trkpt lat="47.28644" lon="5.41034">
        <ele>189.5</ele>
        <time>2026-05-15T12:37:59+02:00</time>
      </trkpt>
      <trkpt lat="47.2865" lon="5.41036">
        <ele>189.10059</ele>
        <time>2026-05-15T12:38:00+02:00</time>
      </trkpt>
      <trkpt lat="47.28657" lon="5.41037">
        <ele>188.2002</ele>
        <time>2026-05-15T12:38:01+02:00</time>
      </trkpt>
      <trkpt lat="47.28663" lon="5.41039">
        <ele>188</ele>
        <time>2026-05-15T12:38:02+02:00</time>
      </trkpt>
      <trkpt lat="47.28669" lon="5.4104">
        <ele>187.7002</ele>
        <time>2026-05-15T12:38:03+02:00</time>
      </trkpt>
      <trkpt lat="47.28675" lon="5.41042">
        <ele>187.40039</ele>
        <time>2026-05-15T12:38:04+02:00</time>
      </trkpt>
      <trkpt lat="47.28681" lon="5.41043">
        <ele>188.2002</ele>
        <time>2026-05-15T12:38:05+02:00</time>
      </trkpt>
      <trkpt lat="47.28687" lon="5.41045">
        <ele>187.90039</ele>
        <time>2026-05-15T12:38:06+02:00</time>
      </trkpt>
      <trkpt lat="47.28694" lon="5.41047">
        <ele>187.60059</ele>
        <time>2026-05-15T12:38:07+02:00</time>
      </trkpt>
      <trkpt lat="47.28699" lon="5.41049">
        <ele>187.40039</ele>
        <time>2026-05-15T12:38:08+02:00</time>
      </trkpt>
      <trkpt lat="47.28705" lon="5.4105">
        <ele>187.2002</ele>
        <time>2026-05-15T12:38:09+02:00</time>
      </trkpt>
      <trkpt lat="47.28711" lon="5.41053">
        <ele>188.2002</ele>
        <time>2026-05-15T12:38:10+02:00</time>
      </trkpt>
      <trkpt lat="47.28717" lon="5.41055">
        <ele>188.10059</ele>
        <time>2026-05-15T12:38:11+02:00</time>
      </trkpt>
      <trkpt lat="47.28723" lon="5.41057">
        <ele>187.90039</ele>
        <time>2026-05-15T12:38:12+02:00</time>
      </trkpt>
      <trkpt lat="47.28729" lon="5.4106">
        <ele>188.90039</ele>
        <time>2026-05-15T12:38:13+02:00</time>
      </trkpt>
      <trkpt lat="47.28734" lon="5.41062">
        <ele>188.7998</ele>
        <time>2026-05-15T12:38:14+02:00</time>
      </trkpt>
      <trkpt lat="47.2874" lon="5.41065">
        <ele>188.60059</ele>
        <time>2026-05-15T12:38:15+02:00</time>
      </trkpt>
      <trkpt lat="47.28746" lon="5.41068">
        <ele>188.40039</ele>
        <time>2026-05-15T12:38:16+02:00</time>
      </trkpt>
      <trkpt lat="47.28752" lon="5.41071">
        <ele>188.7002</ele>
        <time>2026-05-15T12:38:17+02:00</time>
      </trkpt>
      <trkpt lat="47.28758" lon="5.41074">
        <ele>188</ele>
        <time>2026-05-15T12:38:18+02:00</time>
      </trkpt>
      <trkpt lat="47.28764" lon="5.41077">
        <ele>187.90039</ele>
        <time>2026-05-15T12:38:19+02:00</time>
      </trkpt>
      <trkpt lat="47.28769" lon="5.4108">
        <ele>187.2998</ele>
        <time>2026-05-15T12:38:20+02:00</time>
      </trkpt>
      <trkpt lat="47.28776" lon="5.41082">
        <ele>186.90039</ele>
        <time>2026-05-15T12:38:21+02:00</time>
      </trkpt>
      <trkpt lat="47.28782" lon="5.41084">
        <ele>186.7998</ele>
        <time>2026-05-15T12:38:22+02:00</time>
      </trkpt>
      <trkpt lat="47.28788" lon="5.41085">
        <ele>186.7002</ele>
        <time>2026-05-15T12:38:23+02:00</time>
      </trkpt>
      <trkpt lat="47.28793" lon="5.41087">
        <ele>187.60059</ele>
        <time>2026-05-15T12:38:24+02:00</time>
      </trkpt>
      <trkpt lat="47.28799" lon="5.41089">
        <ele>187.2998</ele>
        <time>2026-05-15T12:38:25+02:00</time>
      </trkpt>
      <trkpt lat="47.28805" lon="5.41091">
        <ele>186.90039</ele>
        <time>2026-05-15T12:38:26+02:00</time>
      </trkpt>
      <trkpt lat="47.28809" lon="5.41093">
        <ele>186.40039</ele>
        <time>2026-05-15T12:38:27+02:00</time>
      </trkpt>
      <trkpt lat="47.28814" lon="5.41095">
        <ele>186.60059</ele>
        <time>2026-05-15T12:38:28+02:00</time>
      </trkpt>
      <trkpt lat="47.2882" lon="5.41097">
        <ele>186.2998</ele>
        <time>2026-05-15T12:38:29+02:00</time>
      </trkpt>
      <trkpt lat="47.28825" lon="5.41098">
        <ele>186.2998</ele>
        <time>2026-05-15T12:38:30+02:00</time>
      </trkpt>
      <trkpt lat="47.2883" lon="5.411">
        <ele>186.2002</ele>
        <time>2026-05-15T12:38:31+02:00</time>
      </trkpt>
      <trkpt lat="47.28834" lon="5.41102">
        <ele>186.10059</ele>
        <time>2026-05-15T12:38:32+02:00</time>
      </trkpt>
      <trkpt lat="47.2884" lon="5.41104">
        <ele>187</ele>
        <time>2026-05-15T12:38:33+02:00</time>
      </trkpt>
      <trkpt lat="47.28845" lon="5.41106">
        <ele>187</ele>
        <time>2026-05-15T12:38:34+02:00</time>
      </trkpt>
      <trkpt lat="47.2885" lon="5.41108">
        <ele>187</ele>
        <time>2026-05-15T12:38:35+02:00</time>
      </trkpt>
      <trkpt lat="47.28855" lon="5.4111">
        <ele>186.90039</ele>
        <time>2026-05-15T12:38:36+02:00</time>
      </trkpt>
      <trkpt lat="47.2886" lon="5.41112">
        <ele>188.2998</ele>
        <time>2026-05-15T12:38:37+02:00</time>
      </trkpt>
      <trkpt lat="47.28865" lon="5.41113">
        <ele>188.2998</ele>
        <time>2026-05-15T12:38:38+02:00</time>
      </trkpt>
      <trkpt lat="47.2887" lon="5.41115">
        <ele>188.10059</ele>
        <time>2026-05-15T12:38:39+02:00</time>
      </trkpt>
      <trkpt lat="47.28874" lon="5.41118">
        <ele>187.7002</ele>
        <time>2026-05-15T12:38:40+02:00</time>
      </trkpt>
      <trkpt lat="47.28879" lon="5.4112">
        <ele>188.2998</ele>
        <time>2026-05-15T12:38:41+02:00</time>
      </trkpt>
      <trkpt lat="47.28884" lon="5.41123">
        <ele>187.7002</ele>
        <time>2026-05-15T12:38:42+02:00</time>
      </trkpt>
      <trkpt lat="47.28889" lon="5.41126">
        <ele>187.7002</ele>
        <time>2026-05-15T12:38:43+02:00</time>
      </trkpt>
      <trkpt lat="47.28893" lon="5.41128">
        <ele>187.2998</ele>
        <time>2026-05-15T12:38:44+02:00</time>
      </trkpt>
      <trkpt lat="47.28898" lon="5.4113">
        <ele>188.2998</ele>
        <time>2026-05-15T12:38:45+02:00</time>
      </trkpt>
      <trkpt lat="47.28903" lon="5.41132">
        <ele>188</ele>
        <time>2026-05-15T12:38:46+02:00</time>
      </trkpt>
      <trkpt lat="47.28908" lon="5.41134">
        <ele>187.7998</ele>
        <time>2026-05-15T12:38:47+02:00</time>
      </trkpt>
      <trkpt lat="47.28912" lon="5.41136">
        <ele>187.7998</ele>
        <time>2026-05-15T12:38:48+02:00</time>
      </trkpt>
      <trkpt lat="47.28917" lon="5.41139">
        <ele>189.2002</ele>
        <time>2026-05-15T12:38:49+02:00</time>
      </trkpt>
      <trkpt lat="47.28921" lon="5.4114">
        <ele>188.60059</ele>
        <time>2026-05-15T12:38:50+02:00</time>
      </trkpt>
      <trkpt lat="47.28926" lon="5.41142">
        <ele>187.90039</ele>
        <time>2026-05-15T12:38:51+02:00</time>
      </trkpt>
      <trkpt lat="47.2893" lon="5.41144">
        <ele>187.90039</ele>
        <time>2026-05-15T12:38:52+02:00</time>
      </trkpt>
      <trkpt lat="47.28935" lon="5.41147">
        <ele>188.2998</ele>
        <time>2026-05-15T12:38:53+02:00</time>
      </trkpt>
      <trkpt lat="47.2894" lon="5.4115">
        <ele>187.7002</ele>
        <time>2026-05-15T12:38:54+02:00</time>
      </trkpt>
      <trkpt lat="47.28944" lon="5.41152">
        <ele>187.2002</ele>
        <time>2026-05-15T12:38:55+02:00</time>
      </trkpt>
      <trkpt lat="47.28949" lon="5.41155">
        <ele>187.90039</ele>
        <time>2026-05-15T12:38:56+02:00</time>
      </trkpt>
      <trkpt lat="47.28954" lon="5.41157">
        <ele>187.5</ele>
        <time>2026-05-15T12:38:57+02:00</time>
      </trkpt>
      <trkpt lat="47.28958" lon="5.4116">
        <ele>187.5</ele>
        <time>2026-05-15T12:38:58+02:00</time>
      </trkpt>
      <trkpt lat="47.28963" lon="5.41163">
        <ele>188.7998</ele>
        <time>2026-05-15T12:38:59+02:00</time>
      </trkpt>
      <trkpt lat="47.28968" lon="5.41165">
        <ele>188.5</ele>
        <time>2026-05-15T12:39:00+02:00</time>
      </trkpt>
      <trkpt lat="47.28973" lon="5.41168">
        <ele>188.2002</ele>
        <time>2026-05-15T12:39:01+02:00</time>
      </trkpt>
      <trkpt lat="47.28978" lon="5.4117">
        <ele>187.7998</ele>
        <time>2026-05-15T12:39:02+02:00</time>
      </trkpt>
      <trkpt lat="47.28982" lon="5.41173">
        <ele>189.2002</ele>
        <time>2026-05-15T12:39:03+02:00</time>
      </trkpt>
      <trkpt lat="47.28987" lon="5.41175">
        <ele>188.7002</ele>
        <time>2026-05-15T12:39:04+02:00</time>
      </trkpt>
      <trkpt lat="47.28992" lon="5.41178">
        <ele>188</ele>
        <time>2026-05-15T12:39:05+02:00</time>
      </trkpt>
      <trkpt lat="47.28996" lon="5.41182">
        <ele>188.2002</ele>
        <time>2026-05-15T12:39:06+02:00</time>
      </trkpt>
      <trkpt lat="47.29001" lon="5.41185">
        <ele>187.60059</ele>
        <time>2026-05-15T12:39:07+02:00</time>
      </trkpt>
      <trkpt lat="47.29006" lon="5.41188">
        <ele>187.60059</ele>
        <time>2026-05-15T12:39:08+02:00</time>
      </trkpt>
      <trkpt lat="47.29011" lon="5.41191">
        <ele>188.2998</ele>
        <time>2026-05-15T12:39:09+02:00</time>
      </trkpt>
      <trkpt lat="47.29015" lon="5.41194">
        <ele>188.10059</ele>
        <time>2026-05-15T12:39:10+02:00</time>
      </trkpt>
      <trkpt lat="47.2902" lon="5.41197">
        <ele>189</ele>
        <time>2026-05-15T12:39:11+02:00</time>
      </trkpt>
      <trkpt lat="47.29024" lon="5.412">
        <ele>188.7998</ele>
        <time>2026-05-15T12:39:12+02:00</time>
      </trkpt>
      <trkpt lat="47.29029" lon="5.41203">
        <ele>188.7998</ele>
        <time>2026-05-15T12:39:13+02:00</time>
      </trkpt>
      <trkpt lat="47.29033" lon="5.41207">
        <ele>189.60059</ele>
        <time>2026-05-15T12:39:14+02:00</time>
      </trkpt>
      <trkpt lat="47.29038" lon="5.41211">
        <ele>189.5</ele>
        <time>2026-05-15T12:39:15+02:00</time>
      </trkpt>
      <trkpt lat="47.29042" lon="5.41214">
        <ele>189.40039</ele>
        <time>2026-05-15T12:39:16+02:00</time>
      </trkpt>
      <trkpt lat="47.29047" lon="5.41218">
        <ele>189.7002</ele>
        <time>2026-05-15T12:39:17+02:00</time>
      </trkpt>
      <trkpt lat="47.29051" lon="5.41221">
        <ele>189.7002</ele>
        <time>2026-05-15T12:39:18+02:00</time>
      </trkpt>
      <trkpt lat="47.29056" lon="5.41225">
        <ele>189.60059</ele>
        <time>2026-05-15T12:39:19+02:00</time>
      </trkpt>
      <trkpt lat="47.29061" lon="5.41228">
        <ele>189.10059</ele>
        <time>2026-05-15T12:39:20+02:00</time>
      </trkpt>
      <trkpt lat="47.29066" lon="5.41232">
        <ele>189.10059</ele>
        <time>2026-05-15T12:39:21+02:00</time>
      </trkpt>
      <trkpt lat="47.2907" lon="5.41235">
        <ele>189.10059</ele>
        <time>2026-05-15T12:39:22+02:00</time>
      </trkpt>
      <trkpt lat="47.29075" lon="5.41239">
        <ele>188.60059</ele>
        <time>2026-05-15T12:39:23+02:00</time>
      </trkpt>
      <trkpt lat="47.2908" lon="5.41242">
        <ele>188.5</ele>
        <time>2026-05-15T12:39:24+02:00</time>
      </trkpt>
      <trkpt lat="47.29084" lon="5.41245">
        <ele>188</ele>
        <time>2026-05-15T12:39:25+02:00</time>
      </trkpt>
      <trkpt lat="47.29089" lon="5.41249">
        <ele>187.7998</ele>
        <time>2026-05-15T12:39:26+02:00</time>
      </trkpt>
      <trkpt lat="47.29094" lon="5.41253">
        <ele>187.40039</ele>
        <time>2026-05-15T12:39:27+02:00</time>
      </trkpt>
      <trkpt lat="47.29098" lon="5.41257">
        <ele>187.60059</ele>
        <time>2026-05-15T12:39:28+02:00</time>
      </trkpt>
      <trkpt lat="47.29103" lon="5.4126">
        <ele>187.2998</ele>
        <time>2026-05-15T12:39:29+02:00</time>
      </trkpt>
      <trkpt lat="47.29108" lon="5.41264">
        <ele>187.10059</ele>
        <time>2026-05-15T12:39:30+02:00</time>
      </trkpt>
      <trkpt lat="47.29113" lon="5.41268">
        <ele>187.2998</ele>
        <time>2026-05-15T12:39:31+02:00</time>
      </trkpt>
      <trkpt lat="47.29117" lon="5.41271">
        <ele>187.10059</ele>
        <time>2026-05-15T12:39:32+02:00</time>
      </trkpt>
      <trkpt lat="47.29122" lon="5.41275">
        <ele>187.2998</ele>
        <time>2026-05-15T12:39:33+02:00</time>
      </trkpt>
      <trkpt lat="47.29127" lon="5.41279">
        <ele>187</ele>
        <time>2026-05-15T12:39:34+02:00</time>
      </trkpt>
      <trkpt lat="47.29131" lon="5.41283">
        <ele>186.7998</ele>
        <time>2026-05-15T12:39:35+02:00</time>
      </trkpt>
      <trkpt lat="47.29135" lon="5.41286">
        <ele>186.60059</ele>
        <time>2026-05-15T12:39:36+02:00</time>
      </trkpt>
      <trkpt lat="47.2914" lon="5.4129">
        <ele>186.2998</ele>
        <time>2026-05-15T12:39:37+02:00</time>
      </trkpt>
      <trkpt lat="47.29144" lon="5.41294">
        <ele>186.7998</ele>
        <time>2026-05-15T12:39:38+02:00</time>
      </trkpt>
      <trkpt lat="47.29149" lon="5.41298">
        <ele>186.60059</ele>
        <time>2026-05-15T12:39:39+02:00</time>
      </trkpt>
      <trkpt lat="47.29154" lon="5.41302">
        <ele>186.90039</ele>
        <time>2026-05-15T12:39:40+02:00</time>
      </trkpt>
      <trkpt lat="47.29158" lon="5.41306">
        <ele>186.7998</ele>
        <time>2026-05-15T12:39:41+02:00</time>
      </trkpt>
      <trkpt lat="47.29162" lon="5.4131">
        <ele>187.10059</ele>
        <time>2026-05-15T12:39:42+02:00</time>
      </trkpt>
      <trkpt lat="47.29166" lon="5.41314">
        <ele>187.10059</ele>
        <time>2026-05-15T12:39:43+02:00</time>
      </trkpt>
      <trkpt lat="47.2917" lon="5.41319">
        <ele>187.40039</ele>
        <time>2026-05-15T12:39:44+02:00</time>
      </trkpt>
      <trkpt lat="47.29174" lon="5.41324">
        <ele>187.40039</ele>
        <time>2026-05-15T12:39:45+02:00</time>
      </trkpt>
      <trkpt lat="47.29178" lon="5.41329">
        <ele>188</ele>
        <time>2026-05-15T12:39:46+02:00</time>
      </trkpt>
      <trkpt lat="47.29182" lon="5.41334">
        <ele>188.2002</ele>
        <time>2026-05-15T12:39:47+02:00</time>
      </trkpt>
      <trkpt lat="47.29186" lon="5.41339">
        <ele>188.5</ele>
        <time>2026-05-15T12:39:48+02:00</time>
      </trkpt>
      <trkpt lat="47.29189" lon="5.41344">
        <ele>188.7002</ele>
        <time>2026-05-15T12:39:49+02:00</time>
      </trkpt>
      <trkpt lat="47.29193" lon="5.4135">
        <ele>188.7002</ele>
        <time>2026-05-15T12:39:50+02:00</time>
      </trkpt>
      <trkpt lat="47.29196" lon="5.41355">
        <ele>188.90039</ele>
        <time>2026-05-15T12:39:51+02:00</time>
      </trkpt>
      <trkpt lat="47.29199" lon="5.41361">
        <ele>189.40039</ele>
        <time>2026-05-15T12:39:52+02:00</time>
      </trkpt>
      <trkpt lat="47.29202" lon="5.41366">
        <ele>189.40039</ele>
        <time>2026-05-15T12:39:53+02:00</time>
      </trkpt>
      <trkpt lat="47.29205" lon="5.41371">
        <ele>189.90039</ele>
        <time>2026-05-15T12:39:54+02:00</time>
      </trkpt>
      <trkpt lat="47.29209" lon="5.41375">
        <ele>189.90039</ele>
        <time>2026-05-15T12:39:55+02:00</time>
      </trkpt>
      <trkpt lat="47.29212" lon="5.4138">
        <ele>189.7998</ele>
        <time>2026-05-15T12:39:56+02:00</time>
      </trkpt>
      <trkpt lat="47.29216" lon="5.41385">
        <ele>189.2998</ele>
        <time>2026-05-15T12:39:57+02:00</time>
      </trkpt>
      <trkpt lat="47.29219" lon="5.4139">
        <ele>189.2998</ele>
        <time>2026-05-15T12:39:58+02:00</time>
      </trkpt>
      <trkpt lat="47.29222" lon="5.41395">
        <ele>188.40039</ele>
        <time>2026-05-15T12:39:59+02:00</time>
      </trkpt>
      <trkpt lat="47.29226" lon="5.414">
        <ele>188.40039</ele>
        <time>2026-05-15T12:40:00+02:00</time>
      </trkpt>
      <trkpt lat="47.29229" lon="5.41404">
        <ele>188.2002</ele>
        <time>2026-05-15T12:40:01+02:00</time>
      </trkpt>
      <trkpt lat="47.29233" lon="5.41408">
        <ele>187.40039</ele>
        <time>2026-05-15T12:40:02+02:00</time>
      </trkpt>
      <trkpt lat="47.29236" lon="5.41413">
        <ele>189.10059</ele>
        <time>2026-05-15T12:40:03+02:00</time>
      </trkpt>
      <trkpt lat="47.29239" lon="5.41418">
        <ele>188.7002</ele>
        <time>2026-05-15T12:40:04+02:00</time>
      </trkpt>
      <trkpt lat="47.29243" lon="5.41423">
        <ele>189.60059</ele>
        <time>2026-05-15T12:40:05+02:00</time>
      </trkpt>
      <trkpt lat="47.29246" lon="5.41428">
        <ele>188.7998</ele>
        <time>2026-05-15T12:40:06+02:00</time>
      </trkpt>
      <trkpt lat="47.2925" lon="5.41433">
        <ele>189.40039</ele>
        <time>2026-05-15T12:40:07+02:00</time>
      </trkpt>
      <trkpt lat="47.29253" lon="5.41438">
        <ele>189.5</ele>
        <time>2026-05-15T12:40:08+02:00</time>
      </trkpt>
      <trkpt lat="47.29257" lon="5.41444">
        <ele>189</ele>
        <time>2026-05-15T12:40:09+02:00</time>
      </trkpt>
      <trkpt lat="47.29261" lon="5.41449">
        <ele>189.90039</ele>
        <time>2026-05-15T12:40:10+02:00</time>
      </trkpt>
      <trkpt lat="47.29265" lon="5.41454">
        <ele>189.60059</ele>
        <time>2026-05-15T12:40:11+02:00</time>
      </trkpt>
      <trkpt lat="47.29268" lon="5.4146">
        <ele>189.40039</ele>
        <time>2026-05-15T12:40:12+02:00</time>
      </trkpt>
      <trkpt lat="47.29271" lon="5.41465">
        <ele>189.60059</ele>
        <time>2026-05-15T12:40:13+02:00</time>
      </trkpt>
      <trkpt lat="47.29275" lon="5.41471">
        <ele>188.7998</ele>
        <time>2026-05-15T12:40:14+02:00</time>
      </trkpt>
      <trkpt lat="47.29279" lon="5.41476">
        <ele>189.2998</ele>
        <time>2026-05-15T12:40:15+02:00</time>
      </trkpt>
      <trkpt lat="47.29283" lon="5.41482">
        <ele>189.2002</ele>
        <time>2026-05-15T12:40:16+02:00</time>
      </trkpt>
      <trkpt lat="47.29286" lon="5.41487">
        <ele>188.60059</ele>
        <time>2026-05-15T12:40:17+02:00</time>
      </trkpt>
      <trkpt lat="47.2929" lon="5.41493">
        <ele>189.10059</ele>
        <time>2026-05-15T12:40:18+02:00</time>
      </trkpt>
      <trkpt lat="47.29294" lon="5.41498">
        <ele>189</ele>
        <time>2026-05-15T12:40:19+02:00</time>
      </trkpt>
      <trkpt lat="47.29297" lon="5.41504">
        <ele>189</ele>
        <time>2026-05-15T12:40:20+02:00</time>
      </trkpt>
      <trkpt lat="47.29301" lon="5.41509">
        <ele>189.2002</ele>
        <time>2026-05-15T12:40:21+02:00</time>
      </trkpt>
      <trkpt lat="47.29304" lon="5.41515">
        <ele>189.2002</ele>
        <time>2026-05-15T12:40:22+02:00</time>
      </trkpt>
      <trkpt lat="47.29308" lon="5.41521">
        <ele>189.2002</ele>
        <time>2026-05-15T12:40:23+02:00</time>
      </trkpt>
      <trkpt lat="47.29311" lon="5.41526">
        <ele>189</ele>
        <time>2026-05-15T12:40:24+02:00</time>
      </trkpt>
      <trkpt lat="47.29315" lon="5.41532">
        <ele>188.5</ele>
        <time>2026-05-15T12:40:25+02:00</time>
      </trkpt>
      <trkpt lat="47.29318" lon="5.41537">
        <ele>188.5</ele>
        <time>2026-05-15T12:40:26+02:00</time>
      </trkpt>
      <trkpt lat="47.29322" lon="5.41543">
        <ele>188</ele>
        <time>2026-05-15T12:40:27+02:00</time>
      </trkpt>
      <trkpt lat="47.29326" lon="5.41548">
        <ele>188</ele>
        <time>2026-05-15T12:40:28+02:00</time>
      </trkpt>
      <trkpt lat="47.29329" lon="5.41553">
        <ele>187.60059</ele>
        <time>2026-05-15T12:40:29+02:00</time>
      </trkpt>
      <trkpt lat="47.29333" lon="5.41559">
        <ele>187.2002</ele>
        <time>2026-05-15T12:40:30+02:00</time>
      </trkpt>
      <trkpt lat="47.29336" lon="5.41564">
        <ele>187.2002</ele>
        <time>2026-05-15T12:40:31+02:00</time>
      </trkpt>
      <trkpt lat="47.2934" lon="5.4157">
        <ele>186.7998</ele>
        <time>2026-05-15T12:40:32+02:00</time>
      </trkpt>
      <trkpt lat="47.29344" lon="5.41575">
        <ele>186.5</ele>
        <time>2026-05-15T12:40:33+02:00</time>
      </trkpt>
      <trkpt lat="47.29347" lon="5.4158">
        <ele>186.5</ele>
        <time>2026-05-15T12:40:34+02:00</time>
      </trkpt>
      <trkpt lat="47.29351" lon="5.41586">
        <ele>186.2002</ele>
        <time>2026-05-15T12:40:35+02:00</time>
      </trkpt>
      <trkpt lat="47.29355" lon="5.41591">
        <ele>186.2002</ele>
        <time>2026-05-15T12:40:36+02:00</time>
      </trkpt>
      <trkpt lat="47.29359" lon="5.41597">
        <ele>185.7002</ele>
        <time>2026-05-15T12:40:37+02:00</time>
      </trkpt>
      <trkpt lat="47.29363" lon="5.41603">
        <ele>185.2002</ele>
        <time>2026-05-15T12:40:38+02:00</time>
      </trkpt>
      <trkpt lat="47.29366" lon="5.41608">
        <ele>185.2002</ele>
        <time>2026-05-15T12:40:39+02:00</time>
      </trkpt>
      <trkpt lat="47.29369" lon="5.41615">
        <ele>184.90039</ele>
        <time>2026-05-15T12:40:40+02:00</time>
      </trkpt>
      <trkpt lat="47.29373" lon="5.41621">
        <ele>184.60059</ele>
        <time>2026-05-15T12:40:41+02:00</time>
      </trkpt>
      <trkpt lat="47.29377" lon="5.41627">
        <ele>184.40039</ele>
        <time>2026-05-15T12:40:42+02:00</time>
      </trkpt>
      <trkpt lat="47.29381" lon="5.41634">
        <ele>184.10059</ele>
        <time>2026-05-15T12:40:43+02:00</time>
      </trkpt>
      <trkpt lat="47.29384" lon="5.41641">
        <ele>183.90039</ele>
        <time>2026-05-15T12:40:44+02:00</time>
      </trkpt>
      <trkpt lat="47.29387" lon="5.41647">
        <ele>183.5</ele>
        <time>2026-05-15T12:40:45+02:00</time>
      </trkpt>
      <trkpt lat="47.29391" lon="5.41654">
        <ele>183.2998</ele>
        <time>2026-05-15T12:40:46+02:00</time>
      </trkpt>
      <trkpt lat="47.29395" lon="5.41661">
        <ele>183.40039</ele>
        <time>2026-05-15T12:40:47+02:00</time>
      </trkpt>
      <trkpt lat="47.29398" lon="5.41667">
        <ele>183.2998</ele>
        <time>2026-05-15T12:40:48+02:00</time>
      </trkpt>
      <trkpt lat="47.29402" lon="5.41673">
        <ele>183.5</ele>
        <time>2026-05-15T12:40:49+02:00</time>
      </trkpt>
      <trkpt lat="47.29405" lon="5.41679">
        <ele>183.60059</ele>
        <time>2026-05-15T12:40:50+02:00</time>
      </trkpt>
      <trkpt lat="47.29409" lon="5.41684">
        <ele>183.5</ele>
        <time>2026-05-15T12:40:51+02:00</time>
      </trkpt>
      <trkpt lat="47.29413" lon="5.4169">
        <ele>183.5</ele>
        <time>2026-05-15T12:40:52+02:00</time>
      </trkpt>
      <trkpt lat="47.29416" lon="5.41696">
        <ele>183.2998</ele>
        <time>2026-05-15T12:40:53+02:00</time>
      </trkpt>
      <trkpt lat="47.2942" lon="5.41701">
        <ele>183.2002</ele>
        <time>2026-05-15T12:40:54+02:00</time>
      </trkpt>
      <trkpt lat="47.29424" lon="5.41707">
        <ele>183.2998</ele>
        <time>2026-05-15T12:40:55+02:00</time>
      </trkpt>
      <trkpt lat="47.29427" lon="5.41712">
        <ele>183.40039</ele>
        <time>2026-05-15T12:40:56+02:00</time>
      </trkpt>
      <trkpt lat="47.29431" lon="5.41717">
        <ele>183.2998</ele>
        <time>2026-05-15T12:40:57+02:00</time>
      </trkpt>
      <trkpt lat="47.29435" lon="5.41722">
        <ele>183.60059</ele>
        <time>2026-05-15T12:40:58+02:00</time>
      </trkpt>
      <trkpt lat="47.29439" lon="5.41727">
        <ele>183.40039</ele>
        <time>2026-05-15T12:40:59+02:00</time>
      </trkpt>
      <trkpt lat="47.29443" lon="5.41732">
        <ele>183.60059</ele>
        <time>2026-05-15T12:41:00+02:00</time>
      </trkpt>
      <trkpt lat="47.29447" lon="5.41738">
        <ele>183.7998</ele>
        <time>2026-05-15T12:41:01+02:00</time>
      </trkpt>
      <trkpt lat="47.2945" lon="5.41743">
        <ele>183.60059</ele>
        <time>2026-05-15T12:41:02+02:00</time>
      </trkpt>
      <trkpt lat="47.29453" lon="5.41749">
        <ele>183.7998</ele>
        <time>2026-05-15T12:41:03+02:00</time>
      </trkpt>
      <trkpt lat="47.29456" lon="5.41755">
        <ele>183.90039</ele>
        <time>2026-05-15T12:41:04+02:00</time>
      </trkpt>
      <trkpt lat="47.2946" lon="5.41761">
        <ele>183.7002</ele>
        <time>2026-05-15T12:41:05+02:00</time>
      </trkpt>
      <trkpt lat="47.29463" lon="5.41767">
        <ele>183.90039</ele>
        <time>2026-05-15T12:41:06+02:00</time>
      </trkpt>
      <trkpt lat="47.29466" lon="5.41773">
        <ele>183.90039</ele>
        <time>2026-05-15T12:41:07+02:00</time>
      </trkpt>
      <trkpt lat="47.29469" lon="5.4178">
        <ele>183.90039</ele>
        <time>2026-05-15T12:41:08+02:00</time>
      </trkpt>
      <trkpt lat="47.29471" lon="5.41786">
        <ele>184.2002</ele>
        <time>2026-05-15T12:41:09+02:00</time>
      </trkpt>
      <trkpt lat="47.29474" lon="5.41792">
        <ele>184.40039</ele>
        <time>2026-05-15T12:41:10+02:00</time>
      </trkpt>
      <trkpt lat="47.29477" lon="5.41798">
        <ele>184.7002</ele>
        <time>2026-05-15T12:41:11+02:00</time>
      </trkpt>
      <trkpt lat="47.2948" lon="5.41804">
        <ele>184.60059</ele>
        <time>2026-05-15T12:41:12+02:00</time>
      </trkpt>
      <trkpt lat="47.29483" lon="5.41809">
        <ele>184.90039</ele>
        <time>2026-05-15T12:41:13+02:00</time>
      </trkpt>
      <trkpt lat="47.29485" lon="5.41815">
        <ele>184.90039</ele>
        <time>2026-05-15T12:41:14+02:00</time>
      </trkpt>
      <trkpt lat="47.29488" lon="5.41821">
        <ele>184.90039</ele>
        <time>2026-05-15T12:41:15+02:00</time>
      </trkpt>
      <trkpt lat="47.2949" lon="5.41828">
        <ele>184.90039</ele>
        <time>2026-05-15T12:41:16+02:00</time>
      </trkpt>
      <trkpt lat="47.29493" lon="5.41834">
        <ele>185.2002</ele>
        <time>2026-05-15T12:41:17+02:00</time>
      </trkpt>
      <trkpt lat="47.29496" lon="5.4184">
        <ele>184.7998</ele>
        <time>2026-05-15T12:41:18+02:00</time>
      </trkpt>
      <trkpt lat="47.29498" lon="5.41846">
        <ele>185.2002</ele>
        <time>2026-05-15T12:41:19+02:00</time>
      </trkpt>
      <trkpt lat="47.29501" lon="5.41852">
        <ele>185.5</ele>
        <time>2026-05-15T12:41:20+02:00</time>
      </trkpt>
      <trkpt lat="47.29503" lon="5.41858">
        <ele>185.90039</ele>
        <time>2026-05-15T12:41:21+02:00</time>
      </trkpt>
      <trkpt lat="47.29506" lon="5.41864">
        <ele>185.90039</ele>
        <time>2026-05-15T12:41:22+02:00</time>
      </trkpt>
      <trkpt lat="47.29509" lon="5.4187">
        <ele>186.2002</ele>
        <time>2026-05-15T12:41:23+02:00</time>
      </trkpt>
      <trkpt lat="47.29511" lon="5.41875">
        <ele>186.40039</ele>
        <time>2026-05-15T12:41:24+02:00</time>
      </trkpt>
      <trkpt lat="47.29514" lon="5.41881">
        <ele>186.5</ele>
        <time>2026-05-15T12:41:25+02:00</time>
      </trkpt>
      <trkpt lat="47.29517" lon="5.41886">
        <ele>186.60059</ele>
        <time>2026-05-15T12:41:26+02:00</time>
      </trkpt>
      <trkpt lat="47.2952" lon="5.41892">
        <ele>186.5</ele>
        <time>2026-05-15T12:41:27+02:00</time>
      </trkpt>
      <trkpt lat="47.29522" lon="5.41898">
        <ele>186.7002</ele>
        <time>2026-05-15T12:41:28+02:00</time>
      </trkpt>
      <trkpt lat="47.29526" lon="5.41904">
        <ele>186.7002</ele>
        <time>2026-05-15T12:41:29+02:00</time>
      </trkpt>
      <trkpt lat="47.29528" lon="5.4191">
        <ele>186.7998</ele>
        <time>2026-05-15T12:41:30+02:00</time>
      </trkpt>
      <trkpt lat="47.29531" lon="5.41917">
        <ele>186.7002</ele>
        <time>2026-05-15T12:41:31+02:00</time>
      </trkpt>
      <trkpt lat="47.29534" lon="5.41923">
        <ele>186.90039</ele>
        <time>2026-05-15T12:41:32+02:00</time>
      </trkpt>
      <trkpt lat="47.29537" lon="5.41929">
        <ele>187</ele>
        <time>2026-05-15T12:41:33+02:00</time>
      </trkpt>
      <trkpt lat="47.2954" lon="5.41935">
        <ele>186.90039</ele>
        <time>2026-05-15T12:41:34+02:00</time>
      </trkpt>
      <trkpt lat="47.29543" lon="5.41941">
        <ele>187.10059</ele>
        <time>2026-05-15T12:41:35+02:00</time>
      </trkpt>
      <trkpt lat="47.29545" lon="5.41947">
        <ele>186.7998</ele>
        <time>2026-05-15T12:41:36+02:00</time>
      </trkpt>
      <trkpt lat="47.29548" lon="5.41953">
        <ele>186.60059</ele>
        <time>2026-05-15T12:41:37+02:00</time>
      </trkpt>
      <trkpt lat="47.29551" lon="5.41959">
        <ele>186.60059</ele>
        <time>2026-05-15T12:41:38+02:00</time>
      </trkpt>
      <trkpt lat="47.29553" lon="5.41964">
        <ele>186.5</ele>
        <time>2026-05-15T12:41:39+02:00</time>
      </trkpt>
      <trkpt lat="47.29555" lon="5.4197">
        <ele>186.2998</ele>
        <time>2026-05-15T12:41:40+02:00</time>
      </trkpt>
      <trkpt lat="47.29558" lon="5.41976">
        <ele>186.2998</ele>
        <time>2026-05-15T12:41:41+02:00</time>
      </trkpt>
      <trkpt lat="47.29561" lon="5.41981">
        <ele>186.2998</ele>
        <time>2026-05-15T12:41:42+02:00</time>
      </trkpt>
      <trkpt lat="47.29564" lon="5.41987">
        <ele>186.2998</ele>
        <time>2026-05-15T12:41:43+02:00</time>
      </trkpt>
      <trkpt lat="47.29568" lon="5.41993">
        <ele>186.5</ele>
        <time>2026-05-15T12:41:44+02:00</time>
      </trkpt>
      <trkpt lat="47.29571" lon="5.41999">
        <ele>186.60059</ele>
        <time>2026-05-15T12:41:45+02:00</time>
      </trkpt>
      <trkpt lat="47.29575" lon="5.42005">
        <ele>186.40039</ele>
        <time>2026-05-15T12:41:46+02:00</time>
      </trkpt>
      <trkpt lat="47.29578" lon="5.42011">
        <ele>186.5</ele>
        <time>2026-05-15T12:41:47+02:00</time>
      </trkpt>
      <trkpt lat="47.29582" lon="5.42017">
        <ele>186.40039</ele>
        <time>2026-05-15T12:41:48+02:00</time>
      </trkpt>
      <trkpt lat="47.29585" lon="5.42024">
        <ele>186.5</ele>
        <time>2026-05-15T12:41:49+02:00</time>
      </trkpt>
      <trkpt lat="47.29588" lon="5.4203">
        <ele>186.40039</ele>
        <time>2026-05-15T12:41:50+02:00</time>
      </trkpt>
      <trkpt lat="47.29592" lon="5.42036">
        <ele>186.7998</ele>
        <time>2026-05-15T12:41:51+02:00</time>
      </trkpt>
      <trkpt lat="47.29596" lon="5.42043">
        <ele>186.90039</ele>
        <time>2026-05-15T12:41:52+02:00</time>
      </trkpt>
      <trkpt lat="47.296" lon="5.42049">
        <ele>186.60059</ele>
        <time>2026-05-15T12:41:53+02:00</time>
      </trkpt>
      <trkpt lat="47.29604" lon="5.42054">
        <ele>186.60059</ele>
        <time>2026-05-15T12:41:54+02:00</time>
      </trkpt>
      <trkpt lat="47.29608" lon="5.4206">
        <ele>186.2998</ele>
        <time>2026-05-15T12:41:55+02:00</time>
      </trkpt>
      <trkpt lat="47.29611" lon="5.42065">
        <ele>186.2998</ele>
        <time>2026-05-15T12:41:56+02:00</time>
      </trkpt>
      <trkpt lat="47.29616" lon="5.42071">
        <ele>185.7998</ele>
        <time>2026-05-15T12:41:57+02:00</time>
      </trkpt>
      <trkpt lat="47.29619" lon="5.42076">
        <ele>186.10059</ele>
        <time>2026-05-15T12:41:58+02:00</time>
      </trkpt>
      <trkpt lat="47.29623" lon="5.42082">
        <ele>186.40039</ele>
        <time>2026-05-15T12:41:59+02:00</time>
      </trkpt>
      <trkpt lat="47.29627" lon="5.42087">
        <ele>186.40039</ele>
        <time>2026-05-15T12:42:00+02:00</time>
      </trkpt>
      <trkpt lat="47.2963" lon="5.42093">
        <ele>186.40039</ele>
        <time>2026-05-15T12:42:01+02:00</time>
      </trkpt>
      <trkpt lat="47.29634" lon="5.42098">
        <ele>186.40039</ele>
        <time>2026-05-15T12:42:02+02:00</time>
      </trkpt>
      <trkpt lat="47.29638" lon="5.42103">
        <ele>185.7002</ele>
        <time>2026-05-15T12:42:03+02:00</time>
      </trkpt>
      <trkpt lat="47.29642" lon="5.42108">
        <ele>184.90039</ele>
        <time>2026-05-15T12:42:04+02:00</time>
      </trkpt>
      <trkpt lat="47.29646" lon="5.42113">
        <ele>184.90039</ele>
        <time>2026-05-15T12:42:05+02:00</time>
      </trkpt>
      <trkpt lat="47.2965" lon="5.42117">
        <ele>184.5</ele>
        <time>2026-05-15T12:42:06+02:00</time>
      </trkpt>
      <trkpt lat="47.29654" lon="5.42122">
        <ele>184.2998</ele>
        <time>2026-05-15T12:42:07+02:00</time>
      </trkpt>
      <trkpt lat="47.29659" lon="5.42126">
        <ele>184.90039</ele>
        <time>2026-05-15T12:42:08+02:00</time>
      </trkpt>
      <trkpt lat="47.29663" lon="5.42131">
        <ele>184.90039</ele>
        <time>2026-05-15T12:42:09+02:00</time>
      </trkpt>
      <trkpt lat="47.29667" lon="5.42135">
        <ele>185.60059</ele>
        <time>2026-05-15T12:42:10+02:00</time>
      </trkpt>
      <trkpt lat="47.29672" lon="5.42139">
        <ele>185.60059</ele>
        <time>2026-05-15T12:42:11+02:00</time>
      </trkpt>
      <trkpt lat="47.29676" lon="5.42142">
        <ele>186</ele>
        <time>2026-05-15T12:42:12+02:00</time>
      </trkpt>
      <trkpt lat="47.2968" lon="5.42147">
        <ele>186</ele>
        <time>2026-05-15T12:42:13+02:00</time>
      </trkpt>
      <trkpt lat="47.29685" lon="5.42151">
        <ele>186.10059</ele>
        <time>2026-05-15T12:42:14+02:00</time>
      </trkpt>
      <trkpt lat="47.29689" lon="5.42155">
        <ele>186</ele>
        <time>2026-05-15T12:42:15+02:00</time>
      </trkpt>
      <trkpt lat="47.29693" lon="5.42158">
        <ele>185.7998</ele>
        <time>2026-05-15T12:42:16+02:00</time>
      </trkpt>
      <trkpt lat="47.29698" lon="5.42162">
        <ele>185.90039</ele>
        <time>2026-05-15T12:42:17+02:00</time>
      </trkpt>
      <trkpt lat="47.29702" lon="5.42165">
        <ele>185.7002</ele>
        <time>2026-05-15T12:42:18+02:00</time>
      </trkpt>
      <trkpt lat="47.29706" lon="5.42168">
        <ele>185.7998</ele>
        <time>2026-05-15T12:42:19+02:00</time>
      </trkpt>
      <trkpt lat="47.29711" lon="5.42172">
        <ele>185.60059</ele>
        <time>2026-05-15T12:42:20+02:00</time>
      </trkpt>
      <trkpt lat="47.29715" lon="5.42175">
        <ele>185.60059</ele>
        <time>2026-05-15T12:42:21+02:00</time>
      </trkpt>
      <trkpt lat="47.29719" lon="5.42178">
        <ele>185.7002</ele>
        <time>2026-05-15T12:42:22+02:00</time>
      </trkpt>
      <trkpt lat="47.29723" lon="5.42182">
        <ele>185.40039</ele>
        <time>2026-05-15T12:42:23+02:00</time>
      </trkpt>
      <trkpt lat="47.29727" lon="5.42186">
        <ele>185.60059</ele>
        <time>2026-05-15T12:42:24+02:00</time>
      </trkpt>
      <trkpt lat="47.2973" lon="5.42191">
        <ele>185.2998</ele>
        <time>2026-05-15T12:42:25+02:00</time>
      </trkpt>
      <trkpt lat="47.29734" lon="5.42196">
        <ele>185.2998</ele>
        <time>2026-05-15T12:42:26+02:00</time>
      </trkpt>
      <trkpt lat="47.29738" lon="5.42199">
        <ele>185.2998</ele>
        <time>2026-05-15T12:42:27+02:00</time>
      </trkpt>
      <trkpt lat="47.29743" lon="5.42202">
        <ele>185.5</ele>
        <time>2026-05-15T12:42:28+02:00</time>
      </trkpt>
      <trkpt lat="47.29748" lon="5.42203">
        <ele>185.2998</ele>
        <time>2026-05-15T12:42:29+02:00</time>
      </trkpt>
      <trkpt lat="47.29753" lon="5.42204">
        <ele>185</ele>
        <time>2026-05-15T12:42:30+02:00</time>
      </trkpt>
      <trkpt lat="47.29759" lon="5.42206">
        <ele>184.5</ele>
        <time>2026-05-15T12:42:31+02:00</time>
      </trkpt>
      <trkpt lat="47.29763" lon="5.42208">
        <ele>184.10059</ele>
        <time>2026-05-15T12:42:32+02:00</time>
      </trkpt>
      <trkpt lat="47.29768" lon="5.4221">
        <ele>184.40039</ele>
        <time>2026-05-15T12:42:33+02:00</time>
      </trkpt>
      <trkpt lat="47.29773" lon="5.42213">
        <ele>184.2998</ele>
        <time>2026-05-15T12:42:34+02:00</time>
      </trkpt>
      <trkpt lat="47.29777" lon="5.42215">
        <ele>184.2002</ele>
        <time>2026-05-15T12:42:35+02:00</time>
      </trkpt>
      <trkpt lat="47.29782" lon="5.42218">
        <ele>184.10059</ele>
        <time>2026-05-15T12:42:36+02:00</time>
      </trkpt>
      <trkpt lat="47.29787" lon="5.4222">
        <ele>184.60059</ele>
        <time>2026-05-15T12:42:37+02:00</time>
      </trkpt>
      <trkpt lat="47.29792" lon="5.42223">
        <ele>184.5</ele>
        <time>2026-05-15T12:42:38+02:00</time>
      </trkpt>
      <trkpt lat="47.29797" lon="5.42225">
        <ele>184.5</ele>
        <time>2026-05-15T12:42:39+02:00</time>
      </trkpt>
      <trkpt lat="47.29801" lon="5.42228">
        <ele>184.7002</ele>
        <time>2026-05-15T12:42:40+02:00</time>
      </trkpt>
      <trkpt lat="47.29806" lon="5.4223">
        <ele>184.60059</ele>
        <time>2026-05-15T12:42:41+02:00</time>
      </trkpt>
      <trkpt lat="47.29811" lon="5.42232">
        <ele>184.40039</ele>
        <time>2026-05-15T12:42:42+02:00</time>
      </trkpt>
      <trkpt lat="47.29816" lon="5.42234">
        <ele>184.2002</ele>
        <time>2026-05-15T12:42:43+02:00</time>
      </trkpt>
      <trkpt lat="47.2982" lon="5.42236">
        <ele>184.2998</ele>
        <time>2026-05-15T12:42:44+02:00</time>
      </trkpt>
      <trkpt lat="47.29825" lon="5.42238">
        <ele>184.10059</ele>
        <time>2026-05-15T12:42:45+02:00</time>
      </trkpt>
      <trkpt lat="47.2983" lon="5.4224">
        <ele>183.90039</ele>
        <time>2026-05-15T12:42:46+02:00</time>
      </trkpt>
      <trkpt lat="47.29834" lon="5.42241">
        <ele>183.7998</ele>
        <time>2026-05-15T12:42:47+02:00</time>
      </trkpt>
      <trkpt lat="47.29839" lon="5.42243">
        <ele>183.7998</ele>
        <time>2026-05-15T12:42:48+02:00</time>
      </trkpt>
      <trkpt lat="47.29844" lon="5.42245">
        <ele>184.2002</ele>
        <time>2026-05-15T12:42:49+02:00</time>
      </trkpt>
      <trkpt lat="47.29849" lon="5.42247">
        <ele>184.40039</ele>
        <time>2026-05-15T12:42:50+02:00</time>
      </trkpt>
      <trkpt lat="47.29854" lon="5.42248">
        <ele>184.60059</ele>
        <time>2026-05-15T12:42:51+02:00</time>
      </trkpt>
      <trkpt lat="47.29859" lon="5.42249">
        <ele>184.7998</ele>
        <time>2026-05-15T12:42:52+02:00</time>
      </trkpt>
      <trkpt lat="47.29865" lon="5.42251">
        <ele>184.90039</ele>
        <time>2026-05-15T12:42:53+02:00</time>
      </trkpt>
      <trkpt lat="47.2987" lon="5.42252">
        <ele>185.10059</ele>
        <time>2026-05-15T12:42:54+02:00</time>
      </trkpt>
      <trkpt lat="47.29875" lon="5.42253">
        <ele>185.7998</ele>
        <time>2026-05-15T12:42:55+02:00</time>
      </trkpt>
      <trkpt lat="47.2988" lon="5.42254">
        <ele>186</ele>
        <time>2026-05-15T12:42:56+02:00</time>
      </trkpt>
      <trkpt lat="47.29886" lon="5.42254">
        <ele>186.2002</ele>
        <time>2026-05-15T12:42:57+02:00</time>
      </trkpt>
      <trkpt lat="47.29891" lon="5.42255">
        <ele>186.2998</ele>
        <time>2026-05-15T12:42:58+02:00</time>
      </trkpt>
      <trkpt lat="47.29896" lon="5.42256">
        <ele>186.2998</ele>
        <time>2026-05-15T12:42:59+02:00</time>
      </trkpt>
      <trkpt lat="47.29901" lon="5.42257">
        <ele>186.40039</ele>
        <time>2026-05-15T12:43:00+02:00</time>
      </trkpt>
      <trkpt lat="47.29907" lon="5.42257">
        <ele>186.5</ele>
        <time>2026-05-15T12:43:01+02:00</time>
      </trkpt>
      <trkpt lat="47.29912" lon="5.42257">
        <ele>186.60059</ele>
        <time>2026-05-15T12:43:02+02:00</time>
      </trkpt>
      <trkpt lat="47.29917" lon="5.42257">
        <ele>186.60059</ele>
        <time>2026-05-15T12:43:03+02:00</time>
      </trkpt>
      <trkpt lat="47.29922" lon="5.42257">
        <ele>186.60059</ele>
        <time>2026-05-15T12:43:04+02:00</time>
      </trkpt>
      <trkpt lat="47.29927" lon="5.42257">
        <ele>186.60059</ele>
        <time>2026-05-15T12:43:05+02:00</time>
      </trkpt>
      <trkpt lat="47.29932" lon="5.42257">
        <ele>186.5</ele>
        <time>2026-05-15T12:43:06+02:00</time>
      </trkpt>
      <trkpt lat="47.29937" lon="5.42256">
        <ele>186.5</ele>
        <time>2026-05-15T12:43:07+02:00</time>
      </trkpt>
      <trkpt lat="47.29942" lon="5.42256">
        <ele>186.40039</ele>
        <time>2026-05-15T12:43:08+02:00</time>
      </trkpt>
      <trkpt lat="47.29947" lon="5.42255">
        <ele>186.2998</ele>
        <time>2026-05-15T12:43:09+02:00</time>
      </trkpt>
      <trkpt lat="47.29952" lon="5.42254">
        <ele>186.2002</ele>
        <time>2026-05-15T12:43:10+02:00</time>
      </trkpt>
      <trkpt lat="47.29957" lon="5.42253">
        <ele>186.10059</ele>
        <time>2026-05-15T12:43:11+02:00</time>
      </trkpt>
      <trkpt lat="47.29962" lon="5.42252">
        <ele>185.90039</ele>
        <time>2026-05-15T12:43:12+02:00</time>
      </trkpt>
      <trkpt lat="47.29967" lon="5.4225">
        <ele>185.7998</ele>
        <time>2026-05-15T12:43:13+02:00</time>
      </trkpt>
      <trkpt lat="47.29972" lon="5.42248">
        <ele>185.7998</ele>
        <time>2026-05-15T12:43:14+02:00</time>
      </trkpt>
      <trkpt lat="47.29976" lon="5.42246">
        <ele>185.7998</ele>
        <time>2026-05-15T12:43:15+02:00</time>
      </trkpt>
      <trkpt lat="47.29981" lon="5.42244">
        <ele>185.60059</ele>
        <time>2026-05-15T12:43:16+02:00</time>
      </trkpt>
      <trkpt lat="47.29986" lon="5.42242">
        <ele>185.7002</ele>
        <time>2026-05-15T12:43:17+02:00</time>
      </trkpt>
      <trkpt lat="47.29991" lon="5.42239">
        <ele>185.5</ele>
        <time>2026-05-15T12:43:18+02:00</time>
      </trkpt>
      <trkpt lat="47.29995" lon="5.42236">
        <ele>185.5</ele>
        <time>2026-05-15T12:43:19+02:00</time>
      </trkpt>
      <trkpt lat="47.3" lon="5.42233">
        <ele>185.5</ele>
        <time>2026-05-15T12:43:20+02:00</time>
      </trkpt>
      <trkpt lat="47.30005" lon="5.4223">
        <ele>185.5</ele>
        <time>2026-05-15T12:43:21+02:00</time>
      </trkpt>
      <trkpt lat="47.30009" lon="5.42227">
        <ele>185.40039</ele>
        <time>2026-05-15T12:43:22+02:00</time>
      </trkpt>
      <trkpt lat="47.30013" lon="5.42224">
        <ele>185.40039</ele>
        <time>2026-05-15T12:43:23+02:00</time>
      </trkpt>
      <trkpt lat="47.30018" lon="5.4222">
        <ele>185.40039</ele>
        <time>2026-05-15T12:43:24+02:00</time>
      </trkpt>
      <trkpt lat="47.30022" lon="5.42217">
        <ele>185.2998</ele>
        <time>2026-05-15T12:43:25+02:00</time>
      </trkpt>
      <trkpt lat="47.30026" lon="5.42212">
        <ele>185.2998</ele>
        <time>2026-05-15T12:43:26+02:00</time>
      </trkpt>
      <trkpt lat="47.30031" lon="5.42208">
        <ele>185.10059</ele>
        <time>2026-05-15T12:43:27+02:00</time>
      </trkpt>
      <trkpt lat="47.30035" lon="5.42203">
        <ele>185.10059</ele>
        <time>2026-05-15T12:43:28+02:00</time>
      </trkpt>
      <trkpt lat="47.30039" lon="5.42198">
        <ele>184.7998</ele>
        <time>2026-05-15T12:43:29+02:00</time>
      </trkpt>
      <trkpt lat="47.30042" lon="5.42193">
        <ele>184.7998</ele>
        <time>2026-05-15T12:43:30+02:00</time>
      </trkpt>
      <trkpt lat="47.30046" lon="5.42188">
        <ele>184.7998</ele>
        <time>2026-05-15T12:43:31+02:00</time>
      </trkpt>
      <trkpt lat="47.3005" lon="5.42182">
        <ele>185.2002</ele>
        <time>2026-05-15T12:43:32+02:00</time>
      </trkpt>
      <trkpt lat="47.30053" lon="5.42176">
        <ele>185.2002</ele>
        <time>2026-05-15T12:43:33+02:00</time>
      </trkpt>
      <trkpt lat="47.30057" lon="5.42171">
        <ele>185.40039</ele>
        <time>2026-05-15T12:43:34+02:00</time>
      </trkpt>
      <trkpt lat="47.3006" lon="5.42165">
        <ele>185.10059</ele>
        <time>2026-05-15T12:43:35+02:00</time>
      </trkpt>
      <trkpt lat="47.30063" lon="5.42159">
        <ele>185.10059</ele>
        <time>2026-05-15T12:43:36+02:00</time>
      </trkpt>
      <trkpt lat="47.30066" lon="5.42153">
        <ele>184.5</ele>
        <time>2026-05-15T12:43:37+02:00</time>
      </trkpt>
      <trkpt lat="47.30069" lon="5.42146">
        <ele>184</ele>
        <time>2026-05-15T12:43:38+02:00</time>
      </trkpt>
      <trkpt lat="47.30072" lon="5.4214">
        <ele>183.7998</ele>
        <time>2026-05-15T12:43:39+02:00</time>
      </trkpt>
      <trkpt lat="47.30075" lon="5.42134">
        <ele>183.7998</ele>
        <time>2026-05-15T12:43:40+02:00</time>
      </trkpt>
      <trkpt lat="47.30079" lon="5.42129">
        <ele>183.7998</ele>
        <time>2026-05-15T12:43:41+02:00</time>
      </trkpt>
      <trkpt lat="47.30082" lon="5.42123">
        <ele>183.5</ele>
        <time>2026-05-15T12:43:42+02:00</time>
      </trkpt>
      <trkpt lat="47.30085" lon="5.42118">
        <ele>183.90039</ele>
        <time>2026-05-15T12:43:43+02:00</time>
      </trkpt>
      <trkpt lat="47.30089" lon="5.42113">
        <ele>183.7002</ele>
        <time>2026-05-15T12:43:44+02:00</time>
      </trkpt>
      <trkpt lat="47.30092" lon="5.42107">
        <ele>183.7002</ele>
        <time>2026-05-15T12:43:45+02:00</time>
      </trkpt>
      <trkpt lat="47.30095" lon="5.42102">
        <ele>183.5</ele>
        <time>2026-05-15T12:43:46+02:00</time>
      </trkpt>
      <trkpt lat="47.30099" lon="5.42097">
        <ele>183</ele>
        <time>2026-05-15T12:43:47+02:00</time>
      </trkpt>
      <trkpt lat="47.30103" lon="5.42092">
        <ele>183.2002</ele>
        <time>2026-05-15T12:43:48+02:00</time>
      </trkpt>
      <trkpt lat="47.30106" lon="5.42088">
        <ele>182.7002</ele>
        <time>2026-05-15T12:43:49+02:00</time>
      </trkpt>
      <trkpt lat="47.3011" lon="5.42083">
        <ele>183</ele>
        <time>2026-05-15T12:43:50+02:00</time>
      </trkpt>
      <trkpt lat="47.30114" lon="5.42078">
        <ele>183.10059</ele>
        <time>2026-05-15T12:43:51+02:00</time>
      </trkpt>
      <trkpt lat="47.30118" lon="5.42073">
        <ele>183.60059</ele>
        <time>2026-05-15T12:43:52+02:00</time>
      </trkpt>
      <trkpt lat="47.30121" lon="5.42069">
        <ele>183.2998</ele>
        <time>2026-05-15T12:43:53+02:00</time>
      </trkpt>
      <trkpt lat="47.30126" lon="5.42065">
        <ele>183.60059</ele>
        <time>2026-05-15T12:43:54+02:00</time>
      </trkpt>
      <trkpt lat="47.30129" lon="5.42061">
        <ele>183.2002</ele>
        <time>2026-05-15T12:43:55+02:00</time>
      </trkpt>
      <trkpt lat="47.30134" lon="5.42057">
        <ele>183.5</ele>
        <time>2026-05-15T12:43:56+02:00</time>
      </trkpt>
      <trkpt lat="47.30138" lon="5.42053">
        <ele>183.5</ele>
        <time>2026-05-15T12:43:57+02:00</time>
      </trkpt>
      <trkpt lat="47.30142" lon="5.42049">
        <ele>183.7998</ele>
        <time>2026-05-15T12:43:58+02:00</time>
      </trkpt>
      <trkpt lat="47.30147" lon="5.42045">
        <ele>183.7002</ele>
        <time>2026-05-15T12:43:59+02:00</time>
      </trkpt>
      <trkpt lat="47.30151" lon="5.42041">
        <ele>183.7002</ele>
        <time>2026-05-15T12:44:00+02:00</time>
      </trkpt>
      <trkpt lat="47.30155" lon="5.42038">
        <ele>184</ele>
        <time>2026-05-15T12:44:01+02:00</time>
      </trkpt>
      <trkpt lat="47.3016" lon="5.42035">
        <ele>183.60059</ele>
        <time>2026-05-15T12:44:02+02:00</time>
      </trkpt>
      <trkpt lat="47.30164" lon="5.42032">
        <ele>183.60059</ele>
        <time>2026-05-15T12:44:03+02:00</time>
      </trkpt>
      <trkpt lat="47.30169" lon="5.42028">
        <ele>183.2998</ele>
        <time>2026-05-15T12:44:04+02:00</time>
      </trkpt>
      <trkpt lat="47.30173" lon="5.42025">
        <ele>183.5</ele>
        <time>2026-05-15T12:44:05+02:00</time>
      </trkpt>
      <trkpt lat="47.30178" lon="5.42022">
        <ele>183.7002</ele>
        <time>2026-05-15T12:44:06+02:00</time>
      </trkpt>
      <trkpt lat="47.30183" lon="5.4202">
        <ele>183.5</ele>
        <time>2026-05-15T12:44:07+02:00</time>
      </trkpt>
      <trkpt lat="47.30188" lon="5.42017">
        <ele>183.7998</ele>
        <time>2026-05-15T12:44:08+02:00</time>
      </trkpt>
      <trkpt lat="47.30192" lon="5.42014">
        <ele>183.7998</ele>
        <time>2026-05-15T12:44:09+02:00</time>
      </trkpt>
      <trkpt lat="47.30197" lon="5.42011">
        <ele>183.5</ele>
        <time>2026-05-15T12:44:10+02:00</time>
      </trkpt>
      <trkpt lat="47.30202" lon="5.42009">
        <ele>183.7002</ele>
        <time>2026-05-15T12:44:11+02:00</time>
      </trkpt>
      <trkpt lat="47.30207" lon="5.42006">
        <ele>183.90039</ele>
        <time>2026-05-15T12:44:12+02:00</time>
      </trkpt>
      <trkpt lat="47.30212" lon="5.42004">
        <ele>184</ele>
        <time>2026-05-15T12:44:13+02:00</time>
      </trkpt>
      <trkpt lat="47.30217" lon="5.42001">
        <ele>183.5</ele>
        <time>2026-05-15T12:44:14+02:00</time>
      </trkpt>
      <trkpt lat="47.30232" lon="5.41995">
        <ele>183.2002</ele>
        <time>2026-05-15T12:44:15+02:00</time>
      </trkpt>
      <trkpt lat="47.30237" lon="5.41993">
        <ele>183.2998</ele>
        <time>2026-05-15T12:44:16+02:00</time>
      </trkpt>
      <trkpt lat="47.30242" lon="5.41991">
        <ele>183.40039</ele>
        <time>2026-05-15T12:44:17+02:00</time>
      </trkpt>
      <trkpt lat="47.30247" lon="5.41989">
        <ele>183.5</ele>
        <time>2026-05-15T12:44:18+02:00</time>
      </trkpt>
      <trkpt lat="47.30253" lon="5.41987">
        <ele>183.60059</ele>
        <time>2026-05-15T12:44:19+02:00</time>
      </trkpt>
      <trkpt lat="47.30258" lon="5.41986">
        <ele>183.2998</ele>
        <time>2026-05-15T12:44:20+02:00</time>
      </trkpt>
      <trkpt lat="47.30263" lon="5.41984">
        <ele>183.2998</ele>
        <time>2026-05-15T12:44:21+02:00</time>
      </trkpt>
      <trkpt lat="47.30267" lon="5.41982">
        <ele>183.5</ele>
        <time>2026-05-15T12:44:22+02:00</time>
      </trkpt>
      <trkpt lat="47.30272" lon="5.41981">
        <ele>183.7998</ele>
        <time>2026-05-15T12:44:23+02:00</time>
      </trkpt>
      <trkpt lat="47.30278" lon="5.41979">
        <ele>184.10059</ele>
        <time>2026-05-15T12:44:24+02:00</time>
      </trkpt>
      <trkpt lat="47.30283" lon="5.41978">
        <ele>184.60059</ele>
        <time>2026-05-15T12:44:25+02:00</time>
      </trkpt>
      <trkpt lat="47.30288" lon="5.41977">
        <ele>184.5</ele>
        <time>2026-05-15T12:44:26+02:00</time>
      </trkpt>
      <trkpt lat="47.30293" lon="5.41976">
        <ele>184.90039</ele>
        <time>2026-05-15T12:44:27+02:00</time>
      </trkpt>
      <trkpt lat="47.30298" lon="5.41975">
        <ele>184.90039</ele>
        <time>2026-05-15T12:44:28+02:00</time>
      </trkpt>
      <trkpt lat="47.30303" lon="5.41974">
        <ele>185.2002</ele>
        <time>2026-05-15T12:44:29+02:00</time>
      </trkpt>
      <trkpt lat="47.30308" lon="5.41974">
        <ele>185.40039</ele>
        <time>2026-05-15T12:44:30+02:00</time>
      </trkpt>
      <trkpt lat="47.30313" lon="5.41973">
        <ele>185.60059</ele>
        <time>2026-05-15T12:44:31+02:00</time>
      </trkpt>
      <trkpt lat="47.30318" lon="5.41973">
        <ele>185.7002</ele>
        <time>2026-05-15T12:44:32+02:00</time>
      </trkpt>
      <trkpt lat="47.30323" lon="5.41972">
        <ele>185.90039</ele>
        <time>2026-05-15T12:44:33+02:00</time>
      </trkpt>
      <trkpt lat="47.30328" lon="5.41972">
        <ele>186</ele>
        <time>2026-05-15T12:44:34+02:00</time>
      </trkpt>
      <trkpt lat="47.30333" lon="5.41972">
        <ele>186</ele>
        <time>2026-05-15T12:44:35+02:00</time>
      </trkpt>
      <trkpt lat="47.30338" lon="5.41972">
        <ele>186.10059</ele>
        <time>2026-05-15T12:44:36+02:00</time>
      </trkpt>
      <trkpt lat="47.30343" lon="5.41972">
        <ele>186.2002</ele>
        <time>2026-05-15T12:44:37+02:00</time>
      </trkpt>
      <trkpt lat="47.30347" lon="5.41971">
        <ele>186.2998</ele>
        <time>2026-05-15T12:44:38+02:00</time>
      </trkpt>
      <trkpt lat="47.30352" lon="5.41971">
        <ele>186.40039</ele>
        <time>2026-05-15T12:44:39+02:00</time>
      </trkpt>
      <trkpt lat="47.30356" lon="5.41971">
        <ele>186.40039</ele>
        <time>2026-05-15T12:44:40+02:00</time>
      </trkpt>
      <trkpt lat="47.30361" lon="5.41972">
        <ele>186.5</ele>
        <time>2026-05-15T12:44:41+02:00</time>
      </trkpt>
      <trkpt lat="47.30365" lon="5.41972">
        <ele>186.60059</ele>
        <time>2026-05-15T12:44:42+02:00</time>
      </trkpt>
      <trkpt lat="47.30369" lon="5.41972">
        <ele>186.7002</ele>
        <time>2026-05-15T12:44:43+02:00</time>
      </trkpt>
      <trkpt lat="47.30374" lon="5.41972">
        <ele>186.7002</ele>
        <time>2026-05-15T12:44:44+02:00</time>
      </trkpt>
      <trkpt lat="47.30378" lon="5.41973">
        <ele>186.7002</ele>
        <time>2026-05-15T12:44:45+02:00</time>
      </trkpt>
      <trkpt lat="47.30382" lon="5.41973">
        <ele>186.7998</ele>
        <time>2026-05-15T12:44:46+02:00</time>
      </trkpt>
      <trkpt lat="47.30386" lon="5.41974">
        <ele>186.90039</ele>
        <time>2026-05-15T12:44:47+02:00</time>
      </trkpt>
      <trkpt lat="47.30389" lon="5.41975">
        <ele>186.90039</ele>
        <time>2026-05-15T12:44:48+02:00</time>
      </trkpt>
      <trkpt lat="47.30392" lon="5.41975">
        <ele>186.90039</ele>
        <time>2026-05-15T12:44:49+02:00</time>
      </trkpt>
      <trkpt lat="47.30395" lon="5.41976">
        <ele>186.90039</ele>
        <time>2026-05-15T12:44:50+02:00</time>
      </trkpt>
      <trkpt lat="47.30397" lon="5.41977">
        <ele>186.90039</ele>
        <time>2026-05-15T12:44:51+02:00</time>
      </trkpt>
      <trkpt lat="47.30399" lon="5.41978">
        <ele>187.60059</ele>
        <time>2026-05-15T12:44:52+02:00</time>
      </trkpt>
      <trkpt lat="47.304" lon="5.41978">
        <ele>187.60059</ele>
        <time>2026-05-15T12:44:53+02:00</time>
      </trkpt>
      <trkpt lat="47.30401" lon="5.41979">
        <ele>187.60059</ele>
        <time>2026-05-15T12:44:54+02:00</time>
      </trkpt>
      <trkpt lat="47.30403" lon="5.4198">
        <ele>187.60059</ele>
        <time>2026-05-15T12:44:55+02:00</time>
      </trkpt>
      <trkpt lat="47.30404" lon="5.4198">
        <ele>187.60059</ele>
        <time>2026-05-15T12:44:56+02:00</time>
      </trkpt>
      <trkpt lat="47.30406" lon="5.41978">
        <ele>187.60059</ele>
        <time>2026-05-15T12:44:57+02:00</time>
      </trkpt>
      <trkpt lat="47.30406" lon="5.41974">
        <ele>186.90039</ele>
        <time>2026-05-15T12:44:58+02:00</time>
      </trkpt>
      <trkpt lat="47.30407" lon="5.4197">
        <ele>186.90039</ele>
        <time>2026-05-15T12:44:59+02:00</time>
      </trkpt>
      <trkpt lat="47.30407" lon="5.41966">
        <ele>186</ele>
        <time>2026-05-15T12:45:00+02:00</time>
      </trkpt>
      <trkpt lat="47.30407" lon="5.41961">
        <ele>186</ele>
        <time>2026-05-15T12:45:01+02:00</time>
      </trkpt>
      <trkpt lat="47.30408" lon="5.41956">
        <ele>185</ele>
        <time>2026-05-15T12:45:02+02:00</time>
      </trkpt>
      <trkpt lat="47.30408" lon="5.41951">
        <ele>184.40039</ele>
        <time>2026-05-15T12:45:03+02:00</time>
      </trkpt>
      <trkpt lat="47.30409" lon="5.41947">
        <ele>184.2998</ele>
        <time>2026-05-15T12:45:04+02:00</time>
      </trkpt>
      <trkpt lat="47.3041" lon="5.41942">
        <ele>183.7998</ele>
        <time>2026-05-15T12:45:05+02:00</time>
      </trkpt>
      <trkpt lat="47.3041" lon="5.41936">
        <ele>183.7998</ele>
        <time>2026-05-15T12:45:06+02:00</time>
      </trkpt>
      <trkpt lat="47.30411" lon="5.41932">
        <ele>183.2998</ele>
        <time>2026-05-15T12:45:07+02:00</time>
      </trkpt>
      <trkpt lat="47.30411" lon="5.41927">
        <ele>183.2998</ele>
        <time>2026-05-15T12:45:08+02:00</time>
      </trkpt>
      <trkpt lat="47.30412" lon="5.41922">
        <ele>182.90039</ele>
        <time>2026-05-15T12:45:09+02:00</time>
      </trkpt>
      <trkpt lat="47.30412" lon="5.41917">
        <ele>182.7002</ele>
        <time>2026-05-15T12:45:10+02:00</time>
      </trkpt>
      <trkpt lat="47.30413" lon="5.41912">
        <ele>182.7002</ele>
        <time>2026-05-15T12:45:11+02:00</time>
      </trkpt>
      <trkpt lat="47.30414" lon="5.41907">
        <ele>182.5</ele>
        <time>2026-05-15T12:45:12+02:00</time>
      </trkpt>
      <trkpt lat="47.30414" lon="5.41902">
        <ele>182.5</ele>
        <time>2026-05-15T12:45:13+02:00</time>
      </trkpt>
      <trkpt lat="47.30415" lon="5.41897">
        <ele>182.40039</ele>
        <time>2026-05-15T12:45:14+02:00</time>
      </trkpt>
      <trkpt lat="47.30415" lon="5.41891">
        <ele>182.2998</ele>
        <time>2026-05-15T12:45:15+02:00</time>
      </trkpt>
      <trkpt lat="47.30415" lon="5.41885">
        <ele>182.2998</ele>
        <time>2026-05-15T12:45:16+02:00</time>
      </trkpt>
      <trkpt lat="47.30416" lon="5.4188">
        <ele>182.2998</ele>
        <time>2026-05-15T12:45:17+02:00</time>
      </trkpt>
      <trkpt lat="47.30417" lon="5.41874">
        <ele>182.2998</ele>
        <time>2026-05-15T12:45:18+02:00</time>
      </trkpt>
      <trkpt lat="47.30417" lon="5.41868">
        <ele>182.2998</ele>
        <time>2026-05-15T12:45:19+02:00</time>
      </trkpt>
      <trkpt lat="47.30418" lon="5.41862">
        <ele>182.2998</ele>
        <time>2026-05-15T12:45:20+02:00</time>
      </trkpt>
      <trkpt lat="47.30418" lon="5.41855">
        <ele>182.2998</ele>
        <time>2026-05-15T12:45:21+02:00</time>
      </trkpt>
      <trkpt lat="47.30419" lon="5.41849">
        <ele>182.2998</ele>
        <time>2026-05-15T12:45:22+02:00</time>
      </trkpt>
      <trkpt lat="47.30419" lon="5.41843">
        <ele>182.2998</ele>
        <time>2026-05-15T12:45:23+02:00</time>
      </trkpt>
      <trkpt lat="47.30419" lon="5.41838">
        <ele>182.2002</ele>
        <time>2026-05-15T12:45:24+02:00</time>
      </trkpt>
      <trkpt lat="47.3042" lon="5.41832">
        <ele>182.2002</ele>
        <time>2026-05-15T12:45:25+02:00</time>
      </trkpt>
      <trkpt lat="47.3042" lon="5.41828">
        <ele>182.10059</ele>
        <time>2026-05-15T12:45:26+02:00</time>
      </trkpt>
      <trkpt lat="47.30421" lon="5.41823">
        <ele>182.2998</ele>
        <time>2026-05-15T12:45:27+02:00</time>
      </trkpt>
      <trkpt lat="47.30422" lon="5.41819">
        <ele>182.2998</ele>
        <time>2026-05-15T12:45:28+02:00</time>
      </trkpt>
      <trkpt lat="47.30423" lon="5.41815">
        <ele>182.2998</ele>
        <time>2026-05-15T12:45:29+02:00</time>
      </trkpt>
      <trkpt lat="47.30423" lon="5.4181">
        <ele>182.40039</ele>
        <time>2026-05-15T12:45:30+02:00</time>
      </trkpt>
      <trkpt lat="47.30425" lon="5.41805">
        <ele>182.90039</ele>
        <time>2026-05-15T12:45:31+02:00</time>
      </trkpt>
      <trkpt lat="47.30425" lon="5.418">
        <ele>182.90039</ele>
        <time>2026-05-15T12:45:32+02:00</time>
      </trkpt>
      <trkpt lat="47.30426" lon="5.41795">
        <ele>183.5</ele>
        <time>2026-05-15T12:45:33+02:00</time>
      </trkpt>
      <trkpt lat="47.30427" lon="5.4179">
        <ele>183.2998</ele>
        <time>2026-05-15T12:45:34+02:00</time>
      </trkpt>
      <trkpt lat="47.30428" lon="5.41785">
        <ele>183.90039</ele>
        <time>2026-05-15T12:45:35+02:00</time>
      </trkpt>
      <trkpt lat="47.30429" lon="5.4178">
        <ele>184.5</ele>
        <time>2026-05-15T12:45:36+02:00</time>
      </trkpt>
      <trkpt lat="47.3043" lon="5.41775">
        <ele>184.5</ele>
        <time>2026-05-15T12:45:37+02:00</time>
      </trkpt>
      <trkpt lat="47.30431" lon="5.4177">
        <ele>185.10059</ele>
        <time>2026-05-15T12:45:38+02:00</time>
      </trkpt>
      <trkpt lat="47.30431" lon="5.41765">
        <ele>185.10059</ele>
        <time>2026-05-15T12:45:39+02:00</time>
      </trkpt>
      <trkpt lat="47.30433" lon="5.41759">
        <ele>185.40039</ele>
        <time>2026-05-15T12:45:40+02:00</time>
      </trkpt>
      <trkpt lat="47.30433" lon="5.41754">
        <ele>186.40039</ele>
        <time>2026-05-15T12:45:41+02:00</time>
      </trkpt>
      <trkpt lat="47.30435" lon="5.41749">
        <ele>186.40039</ele>
        <time>2026-05-15T12:45:42+02:00</time>
      </trkpt>
      <trkpt lat="47.30435" lon="5.41743">
        <ele>187.2002</ele>
        <time>2026-05-15T12:45:43+02:00</time>
      </trkpt>
      <trkpt lat="47.30436" lon="5.41738">
        <ele>187.2002</ele>
        <time>2026-05-15T12:45:44+02:00</time>
      </trkpt>
      <trkpt lat="47.30437" lon="5.41733">
        <ele>188</ele>
        <time>2026-05-15T12:45:45+02:00</time>
      </trkpt>
      <trkpt lat="47.30438" lon="5.41728">
        <ele>188.5</ele>
        <time>2026-05-15T12:45:46+02:00</time>
      </trkpt>
      <trkpt lat="47.30439" lon="5.41723">
        <ele>188.5</ele>
        <time>2026-05-15T12:45:47+02:00</time>
      </trkpt>
      <trkpt lat="47.3044" lon="5.41717">
        <ele>189</ele>
        <time>2026-05-15T12:45:48+02:00</time>
      </trkpt>
      <trkpt lat="47.30441" lon="5.41712">
        <ele>189</ele>
        <time>2026-05-15T12:45:49+02:00</time>
      </trkpt>
      <trkpt lat="47.30442" lon="5.41707">
        <ele>189.10059</ele>
        <time>2026-05-15T12:45:50+02:00</time>
      </trkpt>
      <trkpt lat="47.30443" lon="5.41703">
        <ele>189.10059</ele>
        <time>2026-05-15T12:45:51+02:00</time>
      </trkpt>
      <trkpt lat="47.30443" lon="5.41698">
        <ele>189.10059</ele>
        <time>2026-05-15T12:45:52+02:00</time>
      </trkpt>
      <trkpt lat="47.30444" lon="5.41694">
        <ele>188.90039</ele>
        <time>2026-05-15T12:45:53+02:00</time>
      </trkpt>
      <trkpt lat="47.30445" lon="5.4169">
        <ele>188.90039</ele>
        <time>2026-05-15T12:45:54+02:00</time>
      </trkpt>
      <trkpt lat="47.30446" lon="5.41685">
        <ele>189</ele>
        <time>2026-05-15T12:45:55+02:00</time>
      </trkpt>
      <trkpt lat="47.30447" lon="5.41681">
        <ele>189</ele>
        <time>2026-05-15T12:45:56+02:00</time>
      </trkpt>
      <trkpt lat="47.30447" lon="5.41676">
        <ele>189.10059</ele>
        <time>2026-05-15T12:45:57+02:00</time>
      </trkpt>
      <trkpt lat="47.30448" lon="5.41671">
        <ele>189.10059</ele>
        <time>2026-05-15T12:45:58+02:00</time>
      </trkpt>
      <trkpt lat="47.30449" lon="5.41666">
        <ele>189.2002</ele>
        <time>2026-05-15T12:45:59+02:00</time>
      </trkpt>
      <trkpt lat="47.3045" lon="5.41661">
        <ele>189</ele>
        <time>2026-05-15T12:46:00+02:00</time>
      </trkpt>
      <trkpt lat="47.30451" lon="5.41656">
        <ele>189.10059</ele>
        <time>2026-05-15T12:46:01+02:00</time>
      </trkpt>
      <trkpt lat="47.30452" lon="5.41651">
        <ele>189.2998</ele>
        <time>2026-05-15T12:46:02+02:00</time>
      </trkpt>
      <trkpt lat="47.30452" lon="5.41645">
        <ele>189.2998</ele>
        <time>2026-05-15T12:46:03+02:00</time>
      </trkpt>
      <trkpt lat="47.30454" lon="5.4164">
        <ele>189.40039</ele>
        <time>2026-05-15T12:46:04+02:00</time>
      </trkpt>
      <trkpt lat="47.30455" lon="5.41635">
        <ele>189.40039</ele>
        <time>2026-05-15T12:46:05+02:00</time>
      </trkpt>
      <trkpt lat="47.30456" lon="5.4163">
        <ele>189.5</ele>
        <time>2026-05-15T12:46:06+02:00</time>
      </trkpt>
      <trkpt lat="47.30457" lon="5.41625">
        <ele>189.7002</ele>
        <time>2026-05-15T12:46:07+02:00</time>
      </trkpt>
      <trkpt lat="47.30458" lon="5.4162">
        <ele>189.7002</ele>
        <time>2026-05-15T12:46:08+02:00</time>
      </trkpt>
      <trkpt lat="47.3046" lon="5.41614">
        <ele>189.90039</ele>
        <time>2026-05-15T12:46:09+02:00</time>
      </trkpt>
      <trkpt lat="47.30461" lon="5.41609">
        <ele>189.90039</ele>
        <time>2026-05-15T12:46:10+02:00</time>
      </trkpt>
      <trkpt lat="47.30462" lon="5.41603">
        <ele>190.10059</ele>
        <time>2026-05-15T12:46:11+02:00</time>
      </trkpt>
      <trkpt lat="47.30464" lon="5.41597">
        <ele>190.40039</ele>
        <time>2026-05-15T12:46:12+02:00</time>
      </trkpt>
      <trkpt lat="47.30465" lon="5.41592">
        <ele>190.40039</ele>
        <time>2026-05-15T12:46:13+02:00</time>
      </trkpt>
      <trkpt lat="47.30467" lon="5.41586">
        <ele>190.60059</ele>
        <time>2026-05-15T12:46:14+02:00</time>
      </trkpt>
      <trkpt lat="47.30468" lon="5.4158">
        <ele>190.7998</ele>
        <time>2026-05-15T12:46:15+02:00</time>
      </trkpt>
      <trkpt lat="47.30469" lon="5.41575">
        <ele>190.7998</ele>
        <time>2026-05-15T12:46:16+02:00</time>
      </trkpt>
      <trkpt lat="47.30471" lon="5.41569">
        <ele>191</ele>
        <time>2026-05-15T12:46:17+02:00</time>
      </trkpt>
      <trkpt lat="47.30472" lon="5.41563">
        <ele>191.10059</ele>
        <time>2026-05-15T12:46:18+02:00</time>
      </trkpt>
      <trkpt lat="47.30473" lon="5.41557">
        <ele>191.2002</ele>
        <time>2026-05-15T12:46:19+02:00</time>
      </trkpt>
      <trkpt lat="47.30475" lon="5.41551">
        <ele>191.2002</ele>
        <time>2026-05-15T12:46:20+02:00</time>
      </trkpt>
      <trkpt lat="47.30476" lon="5.41545">
        <ele>191.2998</ele>
        <time>2026-05-15T12:46:21+02:00</time>
      </trkpt>
      <trkpt lat="47.30477" lon="5.41539">
        <ele>191.40039</ele>
        <time>2026-05-15T12:46:22+02:00</time>
      </trkpt>
      <trkpt lat="47.30478" lon="5.41533">
        <ele>191.40039</ele>
        <time>2026-05-15T12:46:23+02:00</time>
      </trkpt>
      <trkpt lat="47.3048" lon="5.41528">
        <ele>191.5</ele>
        <time>2026-05-15T12:46:24+02:00</time>
      </trkpt>
      <trkpt lat="47.3048" lon="5.41522">
        <ele>191.60059</ele>
        <time>2026-05-15T12:46:25+02:00</time>
      </trkpt>
      <trkpt lat="47.30481" lon="5.41516">
        <ele>191.60059</ele>
        <time>2026-05-15T12:46:26+02:00</time>
      </trkpt>
      <trkpt lat="47.30481" lon="5.4151">
        <ele>191.7002</ele>
        <time>2026-05-15T12:46:27+02:00</time>
      </trkpt>
      <trkpt lat="47.30483" lon="5.41504">
        <ele>191.7998</ele>
        <time>2026-05-15T12:46:28+02:00</time>
      </trkpt>
      <trkpt lat="47.30483" lon="5.41498">
        <ele>191.7998</ele>
        <time>2026-05-15T12:46:29+02:00</time>
      </trkpt>
      <trkpt lat="47.30484" lon="5.41492">
        <ele>191.7998</ele>
        <time>2026-05-15T12:46:30+02:00</time>
      </trkpt>
      <trkpt lat="47.30485" lon="5.41486">
        <ele>191.90039</ele>
        <time>2026-05-15T12:46:31+02:00</time>
      </trkpt>
      <trkpt lat="47.30486" lon="5.41481">
        <ele>191.90039</ele>
        <time>2026-05-15T12:46:32+02:00</time>
      </trkpt>
      <trkpt lat="47.30486" lon="5.41477">
        <ele>191.90039</ele>
        <time>2026-05-15T12:46:33+02:00</time>
      </trkpt>
      <trkpt lat="47.30488" lon="5.41474">
        <ele>191.90039</ele>
        <time>2026-05-15T12:46:34+02:00</time>
      </trkpt>
      <trkpt lat="47.30489" lon="5.41472">
        <ele>191.90039</ele>
        <time>2026-05-15T12:46:35+02:00</time>
      </trkpt>
      <trkpt lat="47.30489" lon="5.41471">
        <ele>191.90039</ele>
        <time>2026-05-15T12:46:36+02:00</time>
      </trkpt>
      <trkpt lat="47.30489" lon="5.41471">
        <ele>191.90039</ele>
        <time>2026-05-15T12:46:37+02:00</time>
      </trkpt>
      <trkpt lat="47.3049" lon="5.41471">
        <ele>191.90039</ele>
        <time>2026-05-15T12:46:38+02:00</time>
      </trkpt>
      <trkpt lat="47.3049" lon="5.41471">
        <ele>191.90039</ele>
        <time>2026-05-15T12:46:39+02:00</time>
      </trkpt>
      <trkpt lat="47.3049" lon="5.41471">
        <ele>191.90039</ele>
        <time>2026-05-15T12:46:40+02:00</time>
      </trkpt>
      <trkpt lat="47.3049" lon="5.41471">
        <ele>191.90039</ele>
        <time>2026-05-15T12:53:57+02:00</time>
      </trkpt>
      <trkpt lat="47.3049" lon="5.41471">
        <ele>191.90039</ele>
        <time>2026-05-15T12:53:58+02:00</time>
      </trkpt>
      <trkpt lat="47.3049" lon="5.41471">
        <ele>191.90039</ele>
        <time>2026-05-15T12:53:59+02:00</time>
      </trkpt>
      <trkpt lat="47.3049" lon="5.41471">
        <ele>191.90039</ele>
        <time>2026-05-15T12:54:00+02:00</time>
      </trkpt>
      <trkpt lat="47.3049" lon="5.41471">
        <ele>191.90039</ele>
        <time>2026-05-15T12:54:01+02:00</time>
      </trkpt>
      <trkpt lat="47.3049" lon="5.41471">
        <ele>191.90039</ele>
        <time>2026-05-15T12:54:02+02:00</time>
      </trkpt>
      <trkpt lat="47.3049" lon="5.41471">
        <ele>191.90039</ele>
        <time>2026-05-15T12:54:03+02:00</time>
      </trkpt>
      <trkpt lat="47.3049" lon="5.41471">
        <ele>191.90039</ele>
        <time>2026-05-15T12:54:04+02:00</time>
      </trkpt>
      <trkpt lat="47.3049" lon="5.41471">
        <ele>191.90039</ele>
        <time>2026-05-15T12:54:05+02:00</time>
      </trkpt>
      <trkpt lat="47.3049" lon="5.41471">
        <ele>191.90039</ele>
        <time>2026-05-15T12:54:06+02:00</time>
      </trkpt>
      <trkpt lat="47.3049" lon="5.41471">
        <ele>191.90039</ele>
        <time>2026-05-15T12:54:07+02:00</time>
      </trkpt>
      <trkpt lat="47.3049" lon="5.41471">
        <ele>191.90039</ele>
        <time>2026-05-15T12:54:08+02:00</time>
      </trkpt>
      <trkpt lat="47.3049" lon="5.41471">
        <ele>191.90039</ele>
        <time>2026-05-15T12:54:09+02:00</time>
      </trkpt>
      <trkpt lat="47.3049" lon="5.41471">
        <ele>191.90039</ele>
        <time>2026-05-15T12:54:10+02:00</time>
      </trkpt>
      <trkpt lat="47.3049" lon="5.41471">
        <ele>191.90039</ele>
        <time>2026-05-15T12:54:11+02:00</time>
      </trkpt>
      <trkpt lat="47.3049" lon="5.41471">
        <ele>191.90039</ele>
        <time>2026-05-15T12:54:12+02:00</time>
      </trkpt>
      <trkpt lat="47.3049" lon="5.41471">
        <ele>191.90039</ele>
        <time>2026-05-15T12:54:13+02:00</time>
      </trkpt>
      <trkpt lat="47.3049" lon="5.41471">
        <ele>191.90039</ele>
        <time>2026-05-15T12:54:14+02:00</time>
      </trkpt>
      <trkpt lat="47.3049" lon="5.41471">
        <ele>191.90039</ele>
        <time>2026-05-15T12:54:15+02:00</time>
      </trkpt>
      <trkpt lat="47.3049" lon="5.41471">
        <ele>191.90039</ele>
        <time>2026-05-15T12:54:16+02:00</time>
      </trkpt>
      <trkpt lat="47.3049" lon="5.41471">
        <ele>191.90039</ele>
        <time>2026-05-15T12:54:17+02:00</time>
      </trkpt>
      <trkpt lat="47.3049" lon="5.41471">
        <ele>191.90039</ele>
        <time>2026-05-15T12:54:18+02:00</time>
      </trkpt>
      <trkpt lat="47.3049" lon="5.41471">
        <ele>191.90039</ele>
        <time>2026-05-15T12:54:19+02:00</time>
      </trkpt>
      <trkpt lat="47.3049" lon="5.41471">
        <ele>191.90039</ele>
        <time>2026-05-15T12:54:20+02:00</time>
      </trkpt>
      <trkpt lat="47.3049" lon="5.41471">
        <ele>191.90039</ele>
        <time>2026-05-15T12:54:21+02:00</time>
      </trkpt>
      <trkpt lat="47.3049" lon="5.41471">
        <ele>191.90039</ele>
        <time>2026-05-15T12:54:22+02:00</time>
      </trkpt>
      <trkpt lat="47.3049" lon="5.41471">
        <ele>191.90039</ele>
        <time>2026-05-15T12:54:23+02:00</time>
      </trkpt>
      <trkpt lat="47.3049" lon="5.41471">
        <ele>191.90039</ele>
        <time>2026-05-15T12:54:24+02:00</time>
      </trkpt>
      <trkpt lat="47.3049" lon="5.41471">
        <ele>191.90039</ele>
        <time>2026-05-15T12:54:25+02:00</time>
      </trkpt>
      <trkpt lat="47.3049" lon="5.41471">
        <ele>191.90039</ele>
        <time>2026-05-15T12:54:26+02:00</time>
      </trkpt>
      <trkpt lat="47.3049" lon="5.41471">
        <ele>191.90039</ele>
        <time>2026-05-15T12:54:27+02:00</time>
      </trkpt>
      <trkpt lat="47.3049" lon="5.41471">
        <ele>191.90039</ele>
        <time>2026-05-15T12:54:28+02:00</time>
      </trkpt>
      <trkpt lat="47.3049" lon="5.41471">
        <ele>191.90039</ele>
        <time>2026-05-15T12:54:29+02:00</time>
      </trkpt>
      <trkpt lat="47.3049" lon="5.41471">
        <ele>191.90039</ele>
        <time>2026-05-15T12:54:30+02:00</time>
      </trkpt>
      <trkpt lat="47.3049" lon="5.41471">
        <ele>191.90039</ele>
        <time>2026-05-15T12:54:31+02:00</time>
      </trkpt>
      <trkpt lat="47.30489" lon="5.41478">
        <ele>191.90039</ele>
        <time>2026-05-15T12:54:32+02:00</time>
      </trkpt>
      <trkpt lat="47.30489" lon="5.41478">
        <ele>191.90039</ele>
        <time>2026-05-15T12:54:33+02:00</time>
      </trkpt>
      <trkpt lat="47.30488" lon="5.41478">
        <ele>191.90039</ele>
        <time>2026-05-15T12:54:34+02:00</time>
      </trkpt>
      <trkpt lat="47.30488" lon="5.41478">
        <ele>191.90039</ele>
        <time>2026-05-15T12:54:35+02:00</time>
      </trkpt>
      <trkpt lat="47.30488" lon="5.41478">
        <ele>191.90039</ele>
        <time>2026-05-15T12:54:36+02:00</time>
      </trkpt>
      <trkpt lat="47.30488" lon="5.41478">
        <ele>191.90039</ele>
        <time>2026-05-15T12:54:37+02:00</time>
      </trkpt>
      <trkpt lat="47.30488" lon="5.41478">
        <ele>191.90039</ele>
        <time>2026-05-15T12:54:38+02:00</time>
      </trkpt>
      <trkpt lat="47.30488" lon="5.41478">
        <ele>191.90039</ele>
        <time>2026-05-15T12:54:39+02:00</time>
      </trkpt>
      <trkpt lat="47.30488" lon="5.41478">
        <ele>191.90039</ele>
        <time>2026-05-15T12:54:40+02:00</time>
      </trkpt>
      <trkpt lat="47.30488" lon="5.41478">
        <ele>191.90039</ele>
        <time>2026-05-15T12:54:41+02:00</time>
      </trkpt>
      <trkpt lat="47.30488" lon="5.41478">
        <ele>191.90039</ele>
        <time>2026-05-15T12:54:42+02:00</time>
      </trkpt>
      <trkpt lat="47.30488" lon="5.41478">
        <ele>191.90039</ele>
        <time>2026-05-15T12:54:43+02:00</time>
      </trkpt>
      <trkpt lat="47.30488" lon="5.41478">
        <ele>191.90039</ele>
        <time>2026-05-15T12:54:44+02:00</time>
      </trkpt>
      <trkpt lat="47.30488" lon="5.41478">
        <ele>191.90039</ele>
        <time>2026-05-15T12:54:45+02:00</time>
      </trkpt>
      <trkpt lat="47.30488" lon="5.41478">
        <ele>191.90039</ele>
        <time>2026-05-15T12:54:46+02:00</time>
      </trkpt>
      <trkpt lat="47.30488" lon="5.41478">
        <ele>191.90039</ele>
        <time>2026-05-15T12:54:47+02:00</time>
      </trkpt>
      <trkpt lat="47.30488" lon="5.41478">
        <ele>191.90039</ele>
        <time>2026-05-15T12:54:48+02:00</time>
      </trkpt>
      <trkpt lat="47.30485" lon="5.4148">
        <ele>191.90039</ele>
        <time>2026-05-15T12:54:49+02:00</time>
      </trkpt>
      <trkpt lat="47.30484" lon="5.41483">
        <ele>191.90039</ele>
        <time>2026-05-15T12:54:50+02:00</time>
      </trkpt>
      <trkpt lat="47.30482" lon="5.41488">
        <ele>191.90039</ele>
        <time>2026-05-15T12:54:51+02:00</time>
      </trkpt>
      <trkpt lat="47.30481" lon="5.41493">
        <ele>191.7998</ele>
        <time>2026-05-15T12:54:52+02:00</time>
      </trkpt>
      <trkpt lat="47.3048" lon="5.415">
        <ele>191.7998</ele>
        <time>2026-05-15T12:54:53+02:00</time>
      </trkpt>
      <trkpt lat="47.30478" lon="5.41506">
        <ele>191.7002</ele>
        <time>2026-05-15T12:54:54+02:00</time>
      </trkpt>
      <trkpt lat="47.30478" lon="5.41513">
        <ele>191.7002</ele>
        <time>2026-05-15T12:54:55+02:00</time>
      </trkpt>
      <trkpt lat="47.30477" lon="5.41519">
        <ele>191.60059</ele>
        <time>2026-05-15T12:54:56+02:00</time>
      </trkpt>
      <trkpt lat="47.30476" lon="5.41526">
        <ele>191.5</ele>
        <time>2026-05-15T12:54:57+02:00</time>
      </trkpt>
      <trkpt lat="47.30474" lon="5.41533">
        <ele>191.40039</ele>
        <time>2026-05-15T12:54:58+02:00</time>
      </trkpt>
      <trkpt lat="47.30473" lon="5.41541">
        <ele>191.2998</ele>
        <time>2026-05-15T12:54:59+02:00</time>
      </trkpt>
      <trkpt lat="47.3047" lon="5.41548">
        <ele>191.2998</ele>
        <time>2026-05-15T12:55:00+02:00</time>
      </trkpt>
      <trkpt lat="47.30469" lon="5.41555">
        <ele>191.2002</ele>
        <time>2026-05-15T12:55:01+02:00</time>
      </trkpt>
      <trkpt lat="47.30467" lon="5.41562">
        <ele>191.10059</ele>
        <time>2026-05-15T12:55:02+02:00</time>
      </trkpt>
      <trkpt lat="47.30465" lon="5.41569">
        <ele>190.90039</ele>
        <time>2026-05-15T12:55:03+02:00</time>
      </trkpt>
      <trkpt lat="47.30464" lon="5.41577">
        <ele>190.7998</ele>
        <time>2026-05-15T12:55:04+02:00</time>
      </trkpt>
      <trkpt lat="47.30462" lon="5.41583">
        <ele>190.7998</ele>
        <time>2026-05-15T12:55:05+02:00</time>
      </trkpt>
      <trkpt lat="47.30461" lon="5.4159">
        <ele>190.60059</ele>
        <time>2026-05-15T12:55:06+02:00</time>
      </trkpt>
      <trkpt lat="47.3046" lon="5.41598">
        <ele>190.40039</ele>
        <time>2026-05-15T12:55:07+02:00</time>
      </trkpt>
      <trkpt lat="47.30458" lon="5.41605">
        <ele>190.2002</ele>
        <time>2026-05-15T12:55:08+02:00</time>
      </trkpt>
      <trkpt lat="47.30456" lon="5.41612">
        <ele>189.90039</ele>
        <time>2026-05-15T12:55:09+02:00</time>
      </trkpt>
      <trkpt lat="47.30454" lon="5.41619">
        <ele>189.7998</ele>
        <time>2026-05-15T12:55:10+02:00</time>
      </trkpt>
      <trkpt lat="47.30452" lon="5.41626">
        <ele>189.60059</ele>
        <time>2026-05-15T12:55:11+02:00</time>
      </trkpt>
      <trkpt lat="47.3045" lon="5.41633">
        <ele>189.60059</ele>
        <time>2026-05-15T12:55:12+02:00</time>
      </trkpt>
      <trkpt lat="47.30448" lon="5.41641">
        <ele>189.5</ele>
        <time>2026-05-15T12:55:13+02:00</time>
      </trkpt>
      <trkpt lat="47.30446" lon="5.41648">
        <ele>189.40039</ele>
        <time>2026-05-15T12:55:14+02:00</time>
      </trkpt>
      <trkpt lat="47.30446" lon="5.41656">
        <ele>189.2998</ele>
        <time>2026-05-15T12:55:15+02:00</time>
      </trkpt>
      <trkpt lat="47.30445" lon="5.41663">
        <ele>189.2002</ele>
        <time>2026-05-15T12:55:16+02:00</time>
      </trkpt>
      <trkpt lat="47.30443" lon="5.41671">
        <ele>189.2002</ele>
        <time>2026-05-15T12:55:17+02:00</time>
      </trkpt>
      <trkpt lat="47.30442" lon="5.41678">
        <ele>189.2002</ele>
        <time>2026-05-15T12:55:18+02:00</time>
      </trkpt>
      <trkpt lat="47.30441" lon="5.41685">
        <ele>189.2002</ele>
        <time>2026-05-15T12:55:19+02:00</time>
      </trkpt>
      <trkpt lat="47.3044" lon="5.41693">
        <ele>189.10059</ele>
        <time>2026-05-15T12:55:20+02:00</time>
      </trkpt>
      <trkpt lat="47.30439" lon="5.41701">
        <ele>189.10059</ele>
        <time>2026-05-15T12:55:21+02:00</time>
      </trkpt>
      <trkpt lat="47.30438" lon="5.41709">
        <ele>189.10059</ele>
        <time>2026-05-15T12:55:22+02:00</time>
      </trkpt>
      <trkpt lat="47.30436" lon="5.41717">
        <ele>189.2998</ele>
        <time>2026-05-15T12:55:23+02:00</time>
      </trkpt>
      <trkpt lat="47.30435" lon="5.41725">
        <ele>188.7998</ele>
        <time>2026-05-15T12:55:24+02:00</time>
      </trkpt>
      <trkpt lat="47.30433" lon="5.41733">
        <ele>188</ele>
        <time>2026-05-15T12:55:25+02:00</time>
      </trkpt>
      <trkpt lat="47.30431" lon="5.41741">
        <ele>187.5</ele>
        <time>2026-05-15T12:55:26+02:00</time>
      </trkpt>
      <trkpt lat="47.3043" lon="5.41749">
        <ele>186.7002</ele>
        <time>2026-05-15T12:55:27+02:00</time>
      </trkpt>
      <trkpt lat="47.30428" lon="5.41757">
        <ele>185.90039</ele>
        <time>2026-05-15T12:55:28+02:00</time>
      </trkpt>
      <trkpt lat="47.30427" lon="5.41765">
        <ele>185.10059</ele>
        <time>2026-05-15T12:55:29+02:00</time>
      </trkpt>
      <trkpt lat="47.30425" lon="5.41772">
        <ele>185</ele>
        <time>2026-05-15T12:55:30+02:00</time>
      </trkpt>
      <trkpt lat="47.30424" lon="5.41779">
        <ele>185</ele>
        <time>2026-05-15T12:55:31+02:00</time>
      </trkpt>
      <trkpt lat="47.30423" lon="5.41785">
        <ele>184.2002</ele>
        <time>2026-05-15T12:55:32+02:00</time>
      </trkpt>
      <trkpt lat="47.30422" lon="5.41791">
        <ele>183.5</ele>
        <time>2026-05-15T12:55:33+02:00</time>
      </trkpt>
      <trkpt lat="47.30421" lon="5.41797">
        <ele>183.5</ele>
        <time>2026-05-15T12:55:34+02:00</time>
      </trkpt>
      <trkpt lat="47.3042" lon="5.41803">
        <ele>183</ele>
        <time>2026-05-15T12:55:35+02:00</time>
      </trkpt>
      <trkpt lat="47.3042" lon="5.41809">
        <ele>182.5</ele>
        <time>2026-05-15T12:55:36+02:00</time>
      </trkpt>
      <trkpt lat="47.3042" lon="5.41814">
        <ele>182.5</ele>
        <time>2026-05-15T12:55:37+02:00</time>
      </trkpt>
      <trkpt lat="47.30422" lon="5.41818">
        <ele>182.2998</ele>
        <time>2026-05-15T12:55:38+02:00</time>
      </trkpt>
      <trkpt lat="47.30424" lon="5.41821">
        <ele>182.2998</ele>
        <time>2026-05-15T12:55:39+02:00</time>
      </trkpt>
      <trkpt lat="47.30427" lon="5.41823">
        <ele>182.2998</ele>
        <time>2026-05-15T12:55:40+02:00</time>
      </trkpt>
      <trkpt lat="47.30431" lon="5.41824">
        <ele>182.2002</ele>
        <time>2026-05-15T12:55:41+02:00</time>
      </trkpt>
      <trkpt lat="47.30435" lon="5.41826">
        <ele>182.2002</ele>
        <time>2026-05-15T12:55:42+02:00</time>
      </trkpt>
      <trkpt lat="47.3044" lon="5.41828">
        <ele>182.2998</ele>
        <time>2026-05-15T12:55:43+02:00</time>
      </trkpt>
      <trkpt lat="47.30444" lon="5.41829">
        <ele>182.2998</ele>
        <time>2026-05-15T12:55:44+02:00</time>
      </trkpt>
      <trkpt lat="47.30449" lon="5.4183">
        <ele>182.2998</ele>
        <time>2026-05-15T12:55:45+02:00</time>
      </trkpt>
      <trkpt lat="47.30455" lon="5.41832">
        <ele>182.2998</ele>
        <time>2026-05-15T12:55:46+02:00</time>
      </trkpt>
      <trkpt lat="47.3046" lon="5.41833">
        <ele>182.2998</ele>
        <time>2026-05-15T12:55:47+02:00</time>
      </trkpt>
      <trkpt lat="47.30465" lon="5.41834">
        <ele>182.2998</ele>
        <time>2026-05-15T12:55:48+02:00</time>
      </trkpt>
      <trkpt lat="47.3047" lon="5.41834">
        <ele>182.2998</ele>
        <time>2026-05-15T12:55:49+02:00</time>
      </trkpt>
      <trkpt lat="47.30473" lon="5.41835">
        <ele>182.2998</ele>
        <time>2026-05-15T12:55:50+02:00</time>
      </trkpt>
      <trkpt lat="47.30476" lon="5.41836">
        <ele>182.2998</ele>
        <time>2026-05-15T12:55:51+02:00</time>
      </trkpt>
      <trkpt lat="47.30479" lon="5.41838">
        <ele>182.2998</ele>
        <time>2026-05-15T12:55:52+02:00</time>
      </trkpt>
      <trkpt lat="47.30482" lon="5.41839">
        <ele>182.2998</ele>
        <time>2026-05-15T12:55:53+02:00</time>
      </trkpt>
      <trkpt lat="47.30486" lon="5.41841">
        <ele>182.2998</ele>
        <time>2026-05-15T12:55:54+02:00</time>
      </trkpt>
      <trkpt lat="47.3049" lon="5.41843">
        <ele>182.2998</ele>
        <time>2026-05-15T12:55:55+02:00</time>
      </trkpt>
      <trkpt lat="47.30495" lon="5.41846">
        <ele>182.2998</ele>
        <time>2026-05-15T12:55:56+02:00</time>
      </trkpt>
      <trkpt lat="47.305" lon="5.4185">
        <ele>182.2998</ele>
        <time>2026-05-15T12:55:57+02:00</time>
      </trkpt>
      <trkpt lat="47.30505" lon="5.41855">
        <ele>182.2998</ele>
        <time>2026-05-15T12:55:58+02:00</time>
      </trkpt>
      <trkpt lat="47.3051" lon="5.4186">
        <ele>182.2998</ele>
        <time>2026-05-15T12:55:59+02:00</time>
      </trkpt>
      <trkpt lat="47.30516" lon="5.41865">
        <ele>182.2998</ele>
        <time>2026-05-15T12:56:00+02:00</time>
      </trkpt>
      <trkpt lat="47.3052" lon="5.41869">
        <ele>182.2998</ele>
        <time>2026-05-15T12:56:01+02:00</time>
      </trkpt>
      <trkpt lat="47.30522" lon="5.41872">
        <ele>182.2998</ele>
        <time>2026-05-15T12:56:02+02:00</time>
      </trkpt>
      <trkpt lat="47.30525" lon="5.41875">
        <ele>182.2998</ele>
        <time>2026-05-15T12:56:03+02:00</time>
      </trkpt>
      <trkpt lat="47.30526" lon="5.41877">
        <ele>182.2998</ele>
        <time>2026-05-15T12:56:04+02:00</time>
      </trkpt>
      <trkpt lat="47.30527" lon="5.41878">
        <ele>182.2998</ele>
        <time>2026-05-15T12:56:05+02:00</time>
      </trkpt>
      <trkpt lat="47.30527" lon="5.41878">
        <ele>182.2998</ele>
        <time>2026-05-15T12:56:06+02:00</time>
      </trkpt>
      <trkpt lat="47.30527" lon="5.41878">
        <ele>182.2998</ele>
        <time>2026-05-15T12:56:07+02:00</time>
      </trkpt>
      <trkpt lat="47.30527" lon="5.41878">
        <ele>182.2998</ele>
        <time>2026-05-15T12:56:08+02:00</time>
      </trkpt>
      <trkpt lat="47.30527" lon="5.41878">
        <ele>182.2998</ele>
        <time>2026-05-15T12:56:09+02:00</time>
      </trkpt>
      <trkpt lat="47.30519" lon="5.41869">
        <ele>182.2998</ele>
        <time>2026-05-15T12:56:25+02:00</time>
      </trkpt>
      <trkpt lat="47.30516" lon="5.41866">
        <ele>182.2998</ele>
        <time>2026-05-15T12:56:26+02:00</time>
      </trkpt>
      <trkpt lat="47.30514" lon="5.41863">
        <ele>182.2998</ele>
        <time>2026-05-15T12:56:27+02:00</time>
      </trkpt>
      <trkpt lat="47.30512" lon="5.4186">
        <ele>182.2998</ele>
        <time>2026-05-15T12:56:28+02:00</time>
      </trkpt>
      <trkpt lat="47.30509" lon="5.41857">
        <ele>182.2998</ele>
        <time>2026-05-15T12:56:29+02:00</time>
      </trkpt>
      <trkpt lat="47.30507" lon="5.41854">
        <ele>182.2998</ele>
        <time>2026-05-15T12:56:30+02:00</time>
      </trkpt>
      <trkpt lat="47.30506" lon="5.41851">
        <ele>182.2998</ele>
        <time>2026-05-15T12:56:31+02:00</time>
      </trkpt>
      <trkpt lat="47.30504" lon="5.41848">
        <ele>182.2998</ele>
        <time>2026-05-15T12:56:32+02:00</time>
      </trkpt>
      <trkpt lat="47.30503" lon="5.41846">
        <ele>182.2998</ele>
        <time>2026-05-15T12:56:33+02:00</time>
      </trkpt>
      <trkpt lat="47.30503" lon="5.41843">
        <ele>182.2998</ele>
        <time>2026-05-15T12:56:34+02:00</time>
      </trkpt>
      <trkpt lat="47.30504" lon="5.41841">
        <ele>182.2998</ele>
        <time>2026-05-15T12:56:35+02:00</time>
      </trkpt>
      <trkpt lat="47.30504" lon="5.41839">
        <ele>182.2998</ele>
        <time>2026-05-15T12:56:36+02:00</time>
      </trkpt>
      <trkpt lat="47.30506" lon="5.41838">
        <ele>182.2998</ele>
        <time>2026-05-15T12:56:37+02:00</time>
      </trkpt>
      <trkpt lat="47.30506" lon="5.41838">
        <ele>182.2998</ele>
        <time>2026-05-15T12:56:38+02:00</time>
      </trkpt>
      <trkpt lat="47.30506" lon="5.41838">
        <ele>182.2998</ele>
        <time>2026-05-15T12:56:39+02:00</time>
      </trkpt>
      <trkpt lat="47.30506" lon="5.41838">
        <ele>182.2998</ele>
        <time>2026-05-15T12:56:40+02:00</time>
      </trkpt>
      <trkpt lat="47.30506" lon="5.41838">
        <ele>182.2998</ele>
        <time>2026-05-15T12:56:41+02:00</time>
      </trkpt>
      <trkpt lat="47.30506" lon="5.41838">
        <ele>182.2998</ele>
        <time>2026-05-15T13:15:21+02:00</time>
      </trkpt>
      <trkpt lat="47.30506" lon="5.41838">
        <ele>182.2998</ele>
        <time>2026-05-15T13:15:22+02:00</time>
      </trkpt>
      <trkpt lat="47.30506" lon="5.41838">
        <ele>182.2998</ele>
        <time>2026-05-15T13:15:23+02:00</time>
      </trkpt>
      <trkpt lat="47.30506" lon="5.41838">
        <ele>182.2998</ele>
        <time>2026-05-15T13:15:24+02:00</time>
      </trkpt>
      <trkpt lat="47.30506" lon="5.41838">
        <ele>182.2998</ele>
        <time>2026-05-15T13:15:25+02:00</time>
      </trkpt>
      <trkpt lat="47.30506" lon="5.41838">
        <ele>182.2998</ele>
        <time>2026-05-15T13:15:26+02:00</time>
      </trkpt>
      <trkpt lat="47.30506" lon="5.41838">
        <ele>182.2998</ele>
        <time>2026-05-15T13:15:27+02:00</time>
      </trkpt>
      <trkpt lat="47.30506" lon="5.41838">
        <ele>182.2998</ele>
        <time>2026-05-15T13:15:28+02:00</time>
      </trkpt>
      <trkpt lat="47.30506" lon="5.41838">
        <ele>182.2998</ele>
        <time>2026-05-15T13:15:29+02:00</time>
      </trkpt>
      <trkpt lat="47.30506" lon="5.41838">
        <ele>182.2998</ele>
        <time>2026-05-15T13:29:43+02:00</time>
      </trkpt>
      <trkpt lat="47.30506" lon="5.41838">
        <ele>182.2998</ele>
        <time>2026-05-15T13:29:44+02:00</time>
      </trkpt>
      <trkpt lat="47.30506" lon="5.41838">
        <ele>182.2998</ele>
        <time>2026-05-15T13:29:45+02:00</time>
      </trkpt>
      <trkpt lat="47.30506" lon="5.41838">
        <ele>182.2998</ele>
        <time>2026-05-15T13:29:46+02:00</time>
      </trkpt>
      <trkpt lat="47.30506" lon="5.41838">
        <ele>182.2998</ele>
        <time>2026-05-15T13:29:47+02:00</time>
      </trkpt>
      <trkpt lat="47.30506" lon="5.41838">
        <ele>182.2998</ele>
        <time>2026-05-15T13:29:48+02:00</time>
      </trkpt>
      <trkpt lat="47.30506" lon="5.41838">
        <ele>182.2998</ele>
        <time>2026-05-15T13:29:49+02:00</time>
      </trkpt>
      <trkpt lat="47.30506" lon="5.41838">
        <ele>182.2998</ele>
        <time>2026-05-15T13:29:50+02:00</time>
      </trkpt>
      <trkpt lat="47.30506" lon="5.41838">
        <ele>182.2998</ele>
        <time>2026-05-15T13:29:51+02:00</time>
      </trkpt>
      <trkpt lat="47.30506" lon="5.41838">
        <ele>182.2998</ele>
        <time>2026-05-15T13:29:52+02:00</time>
      </trkpt>
      <trkpt lat="47.30506" lon="5.41838">
        <ele>182.2998</ele>
        <time>2026-05-15T13:29:53+02:00</time>
      </trkpt>
      <trkpt lat="47.30506" lon="5.41838">
        <ele>182.2998</ele>
        <time>2026-05-15T13:29:54+02:00</time>
      </trkpt>
      <trkpt lat="47.30506" lon="5.41838">
        <ele>182.2998</ele>
        <time>2026-05-15T13:29:55+02:00</time>
      </trkpt>
      <trkpt lat="47.30506" lon="5.41838">
        <ele>182.2998</ele>
        <time>2026-05-15T13:29:56+02:00</time>
      </trkpt>
      <trkpt lat="47.30506" lon="5.41838">
        <ele>182.2998</ele>
        <time>2026-05-15T13:29:57+02:00</time>
      </trkpt>
      <trkpt lat="47.30506" lon="5.41838">
        <ele>182.2998</ele>
        <time>2026-05-15T13:29:58+02:00</time>
      </trkpt>
      <trkpt lat="47.30506" lon="5.41838">
        <ele>182.2998</ele>
        <time>2026-05-15T13:29:59+02:00</time>
      </trkpt>
      <trkpt lat="47.30506" lon="5.41838">
        <ele>182.2998</ele>
        <time>2026-05-15T13:30:00+02:00</time>
      </trkpt>
      <trkpt lat="47.30506" lon="5.41838">
        <ele>182.2998</ele>
        <time>2026-05-15T13:30:01+02:00</time>
      </trkpt>
      <trkpt lat="47.30506" lon="5.41838">
        <ele>182.2998</ele>
        <time>2026-05-15T13:30:02+02:00</time>
      </trkpt>
      <trkpt lat="47.30506" lon="5.41838">
        <ele>182.2998</ele>
        <time>2026-05-15T13:30:03+02:00</time>
      </trkpt>
      <trkpt lat="47.30506" lon="5.41838">
        <ele>182.2998</ele>
        <time>2026-05-15T13:30:04+02:00</time>
      </trkpt>
      <trkpt lat="47.30506" lon="5.41838">
        <ele>182.2998</ele>
        <time>2026-05-15T13:30:05+02:00</time>
      </trkpt>
      <trkpt lat="47.30506" lon="5.41838">
        <ele>182.2998</ele>
        <time>2026-05-15T13:30:06+02:00</time>
      </trkpt>
      <trkpt lat="47.30506" lon="5.41838">
        <ele>182.2998</ele>
        <time>2026-05-15T13:30:07+02:00</time>
      </trkpt>
      <trkpt lat="47.30506" lon="5.41838">
        <ele>182.2998</ele>
        <time>2026-05-15T13:30:08+02:00</time>
      </trkpt>
      <trkpt lat="47.30506" lon="5.41838">
        <ele>182.2998</ele>
        <time>2026-05-15T13:30:09+02:00</time>
      </trkpt>
      <trkpt lat="47.30506" lon="5.41838">
        <ele>182.2998</ele>
        <time>2026-05-15T13:30:10+02:00</time>
      </trkpt>
      <trkpt lat="47.30506" lon="5.41838">
        <ele>182.2998</ele>
        <time>2026-05-15T13:30:11+02:00</time>
      </trkpt>
      <trkpt lat="47.30506" lon="5.41838">
        <ele>182.2998</ele>
        <time>2026-05-15T13:30:12+02:00</time>
      </trkpt>
      <trkpt lat="47.30506" lon="5.41838">
        <ele>182.2998</ele>
        <time>2026-05-15T13:30:13+02:00</time>
      </trkpt>
      <trkpt lat="47.30506" lon="5.41838">
        <ele>182.2998</ele>
        <time>2026-05-15T13:30:14+02:00</time>
      </trkpt>
      <trkpt lat="47.30506" lon="5.41838">
        <ele>182.2998</ele>
        <time>2026-05-15T13:30:15+02:00</time>
      </trkpt>
      <trkpt lat="47.30506" lon="5.41838">
        <ele>182.2998</ele>
        <time>2026-05-15T13:30:16+02:00</time>
      </trkpt>
      <trkpt lat="47.30506" lon="5.41838">
        <ele>182.2998</ele>
        <time>2026-05-15T13:30:17+02:00</time>
      </trkpt>
      <trkpt lat="47.30506" lon="5.41838">
        <ele>182.2998</ele>
        <time>2026-05-15T13:30:18+02:00</time>
      </trkpt>
      <trkpt lat="47.30506" lon="5.41838">
        <ele>182.2998</ele>
        <time>2026-05-15T13:30:19+02:00</time>
      </trkpt>
      <trkpt lat="47.30506" lon="5.41838">
        <ele>182.2998</ele>
        <time>2026-05-15T13:30:20+02:00</time>
      </trkpt>
      <trkpt lat="47.30506" lon="5.41838">
        <ele>182.2998</ele>
        <time>2026-05-15T13:30:21+02:00</time>
      </trkpt>
      <trkpt lat="47.30506" lon="5.41838">
        <ele>182.2998</ele>
        <time>2026-05-15T13:30:22+02:00</time>
      </trkpt>
      <trkpt lat="47.30506" lon="5.41838">
        <ele>182.2998</ele>
        <time>2026-05-15T13:30:23+02:00</time>
      </trkpt>
      <trkpt lat="47.30506" lon="5.41838">
        <ele>182.2998</ele>
        <time>2026-05-15T13:30:24+02:00</time>
      </trkpt>
      <trkpt lat="47.30506" lon="5.41838">
        <ele>182.2998</ele>
        <time>2026-05-15T13:30:25+02:00</time>
      </trkpt>
      <trkpt lat="47.30506" lon="5.41838">
        <ele>182.2998</ele>
        <time>2026-05-15T13:30:26+02:00</time>
      </trkpt>
      <trkpt lat="47.30506" lon="5.41838">
        <ele>182.2998</ele>
        <time>2026-05-15T13:30:27+02:00</time>
      </trkpt>
      <trkpt lat="47.30506" lon="5.41838">
        <ele>182.2998</ele>
        <time>2026-05-15T13:30:28+02:00</time>
      </trkpt>
      <trkpt lat="47.30506" lon="5.41838">
        <ele>182.2998</ele>
        <time>2026-05-15T13:30:29+02:00</time>
      </trkpt>
      <trkpt lat="47.30506" lon="5.41838">
        <ele>182.2998</ele>
        <time>2026-05-15T13:30:30+02:00</time>
      </trkpt>
      <trkpt lat="47.30506" lon="5.41838">
        <ele>182.2998</ele>
        <time>2026-05-15T13:30:31+02:00</time>
      </trkpt>
      <trkpt lat="47.30506" lon="5.41838">
        <ele>182.2998</ele>
        <time>2026-05-15T13:30:32+02:00</time>
      </trkpt>
      <trkpt lat="47.30506" lon="5.41838">
        <ele>182.2998</ele>
        <time>2026-05-15T13:30:33+02:00</time>
      </trkpt>
      <trkpt lat="47.30506" lon="5.41838">
        <ele>182.2998</ele>
        <time>2026-05-15T13:30:34+02:00</time>
      </trkpt>
      <trkpt lat="47.30506" lon="5.41838">
        <ele>182.2998</ele>
        <time>2026-05-15T13:30:35+02:00</time>
      </trkpt>
      <trkpt lat="47.30506" lon="5.41838">
        <ele>182.2998</ele>
        <time>2026-05-15T13:30:36+02:00</time>
      </trkpt>
      <trkpt lat="47.30506" lon="5.41838">
        <ele>182.2998</ele>
        <time>2026-05-15T13:30:37+02:00</time>
      </trkpt>
      <trkpt lat="47.30506" lon="5.41838">
        <ele>182.2998</ele>
        <time>2026-05-15T13:30:38+02:00</time>
      </trkpt>
      <trkpt lat="47.30506" lon="5.41838">
        <ele>182.2998</ele>
        <time>2026-05-15T13:30:39+02:00</time>
      </trkpt>
      <trkpt lat="47.30506" lon="5.41838">
        <ele>182.2998</ele>
        <time>2026-05-15T13:30:40+02:00</time>
      </trkpt>
      <trkpt lat="47.30506" lon="5.41838">
        <ele>182.2998</ele>
        <time>2026-05-15T13:30:41+02:00</time>
      </trkpt>
      <trkpt lat="47.30506" lon="5.41838">
        <ele>182.2998</ele>
        <time>2026-05-15T13:30:42+02:00</time>
      </trkpt>
      <trkpt lat="47.30506" lon="5.41838">
        <ele>182.2998</ele>
        <time>2026-05-15T13:30:43+02:00</time>
      </trkpt>
      <trkpt lat="47.30506" lon="5.41838">
        <ele>182.2998</ele>
        <time>2026-05-15T13:30:44+02:00</time>
      </trkpt>
      <trkpt lat="47.30517" lon="5.41844">
        <ele>182.2998</ele>
        <time>2026-05-15T13:30:45+02:00</time>
      </trkpt>
      <trkpt lat="47.30517" lon="5.41846">
        <ele>182.2998</ele>
        <time>2026-05-15T13:30:46+02:00</time>
      </trkpt>
      <trkpt lat="47.30517" lon="5.41847">
        <ele>182.2998</ele>
        <time>2026-05-15T13:30:47+02:00</time>
      </trkpt>
      <trkpt lat="47.30517" lon="5.41849">
        <ele>182.2998</ele>
        <time>2026-05-15T13:30:48+02:00</time>
      </trkpt>
      <trkpt lat="47.30516" lon="5.41851">
        <ele>182.2998</ele>
        <time>2026-05-15T13:30:49+02:00</time>
      </trkpt>
      <trkpt lat="47.30514" lon="5.41858">
        <ele>182.2998</ele>
        <time>2026-05-15T13:30:52+02:00</time>
      </trkpt>
      <trkpt lat="47.30515" lon="5.41861">
        <ele>182.2998</ele>
        <time>2026-05-15T13:30:53+02:00</time>
      </trkpt>
      <trkpt lat="47.30517" lon="5.41863">
        <ele>182.2998</ele>
        <time>2026-05-15T13:30:54+02:00</time>
      </trkpt>
      <trkpt lat="47.30518" lon="5.41866">
        <ele>182.2998</ele>
        <time>2026-05-15T13:30:55+02:00</time>
      </trkpt>
      <trkpt lat="47.30521" lon="5.41868">
        <ele>182.2998</ele>
        <time>2026-05-15T13:30:56+02:00</time>
      </trkpt>
      <trkpt lat="47.30523" lon="5.41871">
        <ele>182.2998</ele>
        <time>2026-05-15T13:30:57+02:00</time>
      </trkpt>
      <trkpt lat="47.30526" lon="5.41873">
        <ele>182.2998</ele>
        <time>2026-05-15T13:30:58+02:00</time>
      </trkpt>
      <trkpt lat="47.30528" lon="5.41875">
        <ele>182.2998</ele>
        <time>2026-05-15T13:30:59+02:00</time>
      </trkpt>
      <trkpt lat="47.30531" lon="5.41878">
        <ele>182.2998</ele>
        <time>2026-05-15T13:31:00+02:00</time>
      </trkpt>
      <trkpt lat="47.30534" lon="5.41881">
        <ele>182.2998</ele>
        <time>2026-05-15T13:31:01+02:00</time>
      </trkpt>
      <trkpt lat="47.30536" lon="5.41885">
        <ele>182.2998</ele>
        <time>2026-05-15T13:31:02+02:00</time>
      </trkpt>
      <trkpt lat="47.30539" lon="5.41888">
        <ele>182.2998</ele>
        <time>2026-05-15T13:31:03+02:00</time>
      </trkpt>
      <trkpt lat="47.30542" lon="5.41891">
        <ele>182.2998</ele>
        <time>2026-05-15T13:31:04+02:00</time>
      </trkpt>
      <trkpt lat="47.30545" lon="5.41894">
        <ele>182.2998</ele>
        <time>2026-05-15T13:31:05+02:00</time>
      </trkpt>
      <trkpt lat="47.30548" lon="5.41898">
        <ele>182.2998</ele>
        <time>2026-05-15T13:31:06+02:00</time>
      </trkpt>
      <trkpt lat="47.30551" lon="5.41901">
        <ele>182.2998</ele>
        <time>2026-05-15T13:31:07+02:00</time>
      </trkpt>
      <trkpt lat="47.30554" lon="5.41904">
        <ele>182.2998</ele>
        <time>2026-05-15T13:31:08+02:00</time>
      </trkpt>
      <trkpt lat="47.30557" lon="5.41907">
        <ele>182.2998</ele>
        <time>2026-05-15T13:31:09+02:00</time>
      </trkpt>
      <trkpt lat="47.3056" lon="5.4191">
        <ele>182.2998</ele>
        <time>2026-05-15T13:31:10+02:00</time>
      </trkpt>
      <trkpt lat="47.30563" lon="5.41913">
        <ele>182.2998</ele>
        <time>2026-05-15T13:31:11+02:00</time>
      </trkpt>
      <trkpt lat="47.30566" lon="5.41917">
        <ele>182.2998</ele>
        <time>2026-05-15T13:31:12+02:00</time>
      </trkpt>
      <trkpt lat="47.30568" lon="5.41921">
        <ele>182.2998</ele>
        <time>2026-05-15T13:31:13+02:00</time>
      </trkpt>
      <trkpt lat="47.30571" lon="5.41924">
        <ele>182.2998</ele>
        <time>2026-05-15T13:31:14+02:00</time>
      </trkpt>
      <trkpt lat="47.30572" lon="5.41927">
        <ele>182.2998</ele>
        <time>2026-05-15T13:31:15+02:00</time>
      </trkpt>
      <trkpt lat="47.30574" lon="5.41928">
        <ele>182.2998</ele>
        <time>2026-05-15T13:31:16+02:00</time>
      </trkpt>
      <trkpt lat="47.30575" lon="5.41929">
        <ele>182.2998</ele>
        <time>2026-05-15T13:31:17+02:00</time>
      </trkpt>
      <trkpt lat="47.30575" lon="5.41929">
        <ele>182.2998</ele>
        <time>2026-05-15T13:31:18+02:00</time>
      </trkpt>
      <trkpt lat="47.30575" lon="5.41929">
        <ele>182.2998</ele>
        <time>2026-05-15T13:31:19+02:00</time>
      </trkpt>
      <trkpt lat="47.30575" lon="5.41929">
        <ele>182.2998</ele>
        <time>2026-05-15T13:31:20+02:00</time>
      </trkpt>
      <trkpt lat="47.30575" lon="5.41929">
        <ele>182.2998</ele>
        <time>2026-05-15T13:31:21+02:00</time>
      </trkpt>
      <trkpt lat="47.30587" lon="5.41938">
        <ele>182.2998</ele>
        <time>2026-05-15T13:32:50+02:00</time>
      </trkpt>
      <trkpt lat="47.30589" lon="5.41941">
        <ele>182.2998</ele>
        <time>2026-05-15T13:32:51+02:00</time>
      </trkpt>
      <trkpt lat="47.30591" lon="5.41943">
        <ele>182.2998</ele>
        <time>2026-05-15T13:32:52+02:00</time>
      </trkpt>
      <trkpt lat="47.30594" lon="5.41946">
        <ele>182.2998</ele>
        <time>2026-05-15T13:32:53+02:00</time>
      </trkpt>
      <trkpt lat="47.30596" lon="5.41948">
        <ele>182.2998</ele>
        <time>2026-05-15T13:32:54+02:00</time>
      </trkpt>
      <trkpt lat="47.30599" lon="5.4195">
        <ele>182.2998</ele>
        <time>2026-05-15T13:32:55+02:00</time>
      </trkpt>
      <trkpt lat="47.30601" lon="5.41953">
        <ele>182.2998</ele>
        <time>2026-05-15T13:32:56+02:00</time>
      </trkpt>
      <trkpt lat="47.30604" lon="5.41956">
        <ele>182.2998</ele>
        <time>2026-05-15T13:32:57+02:00</time>
      </trkpt>
      <trkpt lat="47.30607" lon="5.41959">
        <ele>182.2998</ele>
        <time>2026-05-15T13:32:58+02:00</time>
      </trkpt>
      <trkpt lat="47.30609" lon="5.41962">
        <ele>182.2998</ele>
        <time>2026-05-15T13:32:59+02:00</time>
      </trkpt>
      <trkpt lat="47.30612" lon="5.41966">
        <ele>182.2998</ele>
        <time>2026-05-15T13:33:00+02:00</time>
      </trkpt>
      <trkpt lat="47.30615" lon="5.4197">
        <ele>182.2998</ele>
        <time>2026-05-15T13:33:01+02:00</time>
      </trkpt>
      <trkpt lat="47.30618" lon="5.41974">
        <ele>182.2998</ele>
        <time>2026-05-15T13:33:02+02:00</time>
      </trkpt>
      <trkpt lat="47.30622" lon="5.41978">
        <ele>182.2998</ele>
        <time>2026-05-15T13:33:03+02:00</time>
      </trkpt>
      <trkpt lat="47.30625" lon="5.41983">
        <ele>182.2998</ele>
        <time>2026-05-15T13:33:04+02:00</time>
      </trkpt>
      <trkpt lat="47.30628" lon="5.41987">
        <ele>182.2998</ele>
        <time>2026-05-15T13:33:05+02:00</time>
      </trkpt>
      <trkpt lat="47.30632" lon="5.41991">
        <ele>182.2998</ele>
        <time>2026-05-15T13:33:06+02:00</time>
      </trkpt>
      <trkpt lat="47.30635" lon="5.41995">
        <ele>182.2998</ele>
        <time>2026-05-15T13:33:07+02:00</time>
      </trkpt>
      <trkpt lat="47.30638" lon="5.42">
        <ele>182.2998</ele>
        <time>2026-05-15T13:33:08+02:00</time>
      </trkpt>
      <trkpt lat="47.30641" lon="5.42004">
        <ele>182.2998</ele>
        <time>2026-05-15T13:33:09+02:00</time>
      </trkpt>
      <trkpt lat="47.30644" lon="5.42008">
        <ele>182.2998</ele>
        <time>2026-05-15T13:33:10+02:00</time>
      </trkpt>
      <trkpt lat="47.30647" lon="5.42012">
        <ele>182.2998</ele>
        <time>2026-05-15T13:33:11+02:00</time>
      </trkpt>
      <trkpt lat="47.3065" lon="5.42016">
        <ele>182.2998</ele>
        <time>2026-05-15T13:33:12+02:00</time>
      </trkpt>
      <trkpt lat="47.30654" lon="5.4202">
        <ele>182.2998</ele>
        <time>2026-05-15T13:33:13+02:00</time>
      </trkpt>
      <trkpt lat="47.30657" lon="5.42025">
        <ele>182.2998</ele>
        <time>2026-05-15T13:33:14+02:00</time>
      </trkpt>
      <trkpt lat="47.3066" lon="5.42029">
        <ele>182.2998</ele>
        <time>2026-05-15T13:33:15+02:00</time>
      </trkpt>
      <trkpt lat="47.30664" lon="5.42034">
        <ele>182.2998</ele>
        <time>2026-05-15T13:33:16+02:00</time>
      </trkpt>
      <trkpt lat="47.30668" lon="5.42039">
        <ele>182.2998</ele>
        <time>2026-05-15T13:33:17+02:00</time>
      </trkpt>
      <trkpt lat="47.30671" lon="5.42044">
        <ele>182.2998</ele>
        <time>2026-05-15T13:33:18+02:00</time>
      </trkpt>
      <trkpt lat="47.30674" lon="5.42049">
        <ele>182.2998</ele>
        <time>2026-05-15T13:33:19+02:00</time>
      </trkpt>
      <trkpt lat="47.30678" lon="5.42055">
        <ele>182.2998</ele>
        <time>2026-05-15T13:33:20+02:00</time>
      </trkpt>
      <trkpt lat="47.30681" lon="5.42061">
        <ele>182.2998</ele>
        <time>2026-05-15T13:33:21+02:00</time>
      </trkpt>
      <trkpt lat="47.30684" lon="5.42067">
        <ele>182.2998</ele>
        <time>2026-05-15T13:33:22+02:00</time>
      </trkpt>
      <trkpt lat="47.30687" lon="5.42073">
        <ele>182.2998</ele>
        <time>2026-05-15T13:33:23+02:00</time>
      </trkpt>
      <trkpt lat="47.30691" lon="5.42079">
        <ele>182.2998</ele>
        <time>2026-05-15T13:33:24+02:00</time>
      </trkpt>
      <trkpt lat="47.30695" lon="5.42085">
        <ele>182.2998</ele>
        <time>2026-05-15T13:33:25+02:00</time>
      </trkpt>
      <trkpt lat="47.30699" lon="5.4209">
        <ele>182.2998</ele>
        <time>2026-05-15T13:33:26+02:00</time>
      </trkpt>
      <trkpt lat="47.30703" lon="5.42096">
        <ele>182.2998</ele>
        <time>2026-05-15T13:33:27+02:00</time>
      </trkpt>
      <trkpt lat="47.30707" lon="5.42101">
        <ele>182.2998</ele>
        <time>2026-05-15T13:33:28+02:00</time>
      </trkpt>
      <trkpt lat="47.30711" lon="5.42106">
        <ele>182.2998</ele>
        <time>2026-05-15T13:33:29+02:00</time>
      </trkpt>
      <trkpt lat="47.30715" lon="5.42112">
        <ele>182.2998</ele>
        <time>2026-05-15T13:33:30+02:00</time>
      </trkpt>
      <trkpt lat="47.3072" lon="5.42117">
        <ele>182.2998</ele>
        <time>2026-05-15T13:33:31+02:00</time>
      </trkpt>
      <trkpt lat="47.30724" lon="5.42123">
        <ele>182.2998</ele>
        <time>2026-05-15T13:33:32+02:00</time>
      </trkpt>
      <trkpt lat="47.30728" lon="5.42128">
        <ele>182.2998</ele>
        <time>2026-05-15T13:33:33+02:00</time>
      </trkpt>
      <trkpt lat="47.30732" lon="5.42133">
        <ele>182.2998</ele>
        <time>2026-05-15T13:33:34+02:00</time>
      </trkpt>
      <trkpt lat="47.30737" lon="5.42138">
        <ele>182.2998</ele>
        <time>2026-05-15T13:33:35+02:00</time>
      </trkpt>
      <trkpt lat="47.30741" lon="5.42144">
        <ele>182.2998</ele>
        <time>2026-05-15T13:33:36+02:00</time>
      </trkpt>
      <trkpt lat="47.30745" lon="5.42149">
        <ele>182.2998</ele>
        <time>2026-05-15T13:33:37+02:00</time>
      </trkpt>
      <trkpt lat="47.30749" lon="5.42154">
        <ele>182.2998</ele>
        <time>2026-05-15T13:33:38+02:00</time>
      </trkpt>
      <trkpt lat="47.30754" lon="5.4216">
        <ele>182.2998</ele>
        <time>2026-05-15T13:33:39+02:00</time>
      </trkpt>
      <trkpt lat="47.30758" lon="5.42165">
        <ele>182.2998</ele>
        <time>2026-05-15T13:33:40+02:00</time>
      </trkpt>
      <trkpt lat="47.30763" lon="5.4217">
        <ele>182.2998</ele>
        <time>2026-05-15T13:33:41+02:00</time>
      </trkpt>
      <trkpt lat="47.30767" lon="5.42175">
        <ele>182.2998</ele>
        <time>2026-05-15T13:33:42+02:00</time>
      </trkpt>
      <trkpt lat="47.30772" lon="5.42181">
        <ele>182.2998</ele>
        <time>2026-05-15T13:33:43+02:00</time>
      </trkpt>
      <trkpt lat="47.30776" lon="5.42186">
        <ele>182.2998</ele>
        <time>2026-05-15T13:33:44+02:00</time>
      </trkpt>
      <trkpt lat="47.30781" lon="5.42192">
        <ele>182.2998</ele>
        <time>2026-05-15T13:33:45+02:00</time>
      </trkpt>
      <trkpt lat="47.30785" lon="5.42198">
        <ele>182.2998</ele>
        <time>2026-05-15T13:33:46+02:00</time>
      </trkpt>
      <trkpt lat="47.30789" lon="5.42204">
        <ele>182.2998</ele>
        <time>2026-05-15T13:33:47+02:00</time>
      </trkpt>
      <trkpt lat="47.30793" lon="5.4221">
        <ele>182.2998</ele>
        <time>2026-05-15T13:33:48+02:00</time>
      </trkpt>
      <trkpt lat="47.30797" lon="5.42217">
        <ele>182.2998</ele>
        <time>2026-05-15T13:33:49+02:00</time>
      </trkpt>
      <trkpt lat="47.308" lon="5.42223">
        <ele>182.2998</ele>
        <time>2026-05-15T13:33:50+02:00</time>
      </trkpt>
      <trkpt lat="47.30803" lon="5.4223">
        <ele>182.2998</ele>
        <time>2026-05-15T13:33:51+02:00</time>
      </trkpt>
      <trkpt lat="47.30807" lon="5.42236">
        <ele>182.2998</ele>
        <time>2026-05-15T13:33:52+02:00</time>
      </trkpt>
      <trkpt lat="47.30811" lon="5.42243">
        <ele>182.2998</ele>
        <time>2026-05-15T13:33:53+02:00</time>
      </trkpt>
      <trkpt lat="47.30815" lon="5.42249">
        <ele>182.2998</ele>
        <time>2026-05-15T13:33:54+02:00</time>
      </trkpt>
      <trkpt lat="47.30819" lon="5.42254">
        <ele>182.2998</ele>
        <time>2026-05-15T13:33:55+02:00</time>
      </trkpt>
      <trkpt lat="47.30823" lon="5.4226">
        <ele>182.2998</ele>
        <time>2026-05-15T13:33:56+02:00</time>
      </trkpt>
      <trkpt lat="47.30828" lon="5.42265">
        <ele>182.2998</ele>
        <time>2026-05-15T13:33:57+02:00</time>
      </trkpt>
      <trkpt lat="47.30832" lon="5.4227">
        <ele>182.2998</ele>
        <time>2026-05-15T13:33:58+02:00</time>
      </trkpt>
      <trkpt lat="47.30837" lon="5.42274">
        <ele>182.2998</ele>
        <time>2026-05-15T13:33:59+02:00</time>
      </trkpt>
      <trkpt lat="47.30842" lon="5.42279">
        <ele>182.2998</ele>
        <time>2026-05-15T13:34:00+02:00</time>
      </trkpt>
      <trkpt lat="47.30846" lon="5.42283">
        <ele>182.2998</ele>
        <time>2026-05-15T13:34:01+02:00</time>
      </trkpt>
      <trkpt lat="47.3085" lon="5.42287">
        <ele>182.2998</ele>
        <time>2026-05-15T13:34:02+02:00</time>
      </trkpt>
      <trkpt lat="47.30855" lon="5.42291">
        <ele>182.2998</ele>
        <time>2026-05-15T13:34:03+02:00</time>
      </trkpt>
      <trkpt lat="47.30859" lon="5.42294">
        <ele>182.2998</ele>
        <time>2026-05-15T13:34:04+02:00</time>
      </trkpt>
      <trkpt lat="47.30863" lon="5.42298">
        <ele>182.2998</ele>
        <time>2026-05-15T13:34:05+02:00</time>
      </trkpt>
      <trkpt lat="47.30867" lon="5.42301">
        <ele>182.2998</ele>
        <time>2026-05-15T13:34:06+02:00</time>
      </trkpt>
      <trkpt lat="47.30871" lon="5.42304">
        <ele>182.2998</ele>
        <time>2026-05-15T13:34:07+02:00</time>
      </trkpt>
      <trkpt lat="47.30876" lon="5.42308">
        <ele>182.2998</ele>
        <time>2026-05-15T13:34:08+02:00</time>
      </trkpt>
      <trkpt lat="47.3088" lon="5.42311">
        <ele>182.2998</ele>
        <time>2026-05-15T13:34:09+02:00</time>
      </trkpt>
      <trkpt lat="47.30885" lon="5.42314">
        <ele>182.2998</ele>
        <time>2026-05-15T13:34:10+02:00</time>
      </trkpt>
      <trkpt lat="47.30889" lon="5.42317">
        <ele>182.2998</ele>
        <time>2026-05-15T13:34:11+02:00</time>
      </trkpt>
      <trkpt lat="47.30894" lon="5.4232">
        <ele>182.2998</ele>
        <time>2026-05-15T13:34:12+02:00</time>
      </trkpt>
      <trkpt lat="47.30898" lon="5.42323">
        <ele>182.2998</ele>
        <time>2026-05-15T13:34:13+02:00</time>
      </trkpt>
      <trkpt lat="47.30903" lon="5.42327">
        <ele>182.2998</ele>
        <time>2026-05-15T13:34:14+02:00</time>
      </trkpt>
      <trkpt lat="47.30908" lon="5.4233">
        <ele>182.2998</ele>
        <time>2026-05-15T13:34:15+02:00</time>
      </trkpt>
      <trkpt lat="47.30913" lon="5.42332">
        <ele>182.2998</ele>
        <time>2026-05-15T13:34:16+02:00</time>
      </trkpt>
      <trkpt lat="47.30918" lon="5.42335">
        <ele>182.2998</ele>
        <time>2026-05-15T13:34:17+02:00</time>
      </trkpt>
      <trkpt lat="47.30923" lon="5.42338">
        <ele>182.2998</ele>
        <time>2026-05-15T13:34:18+02:00</time>
      </trkpt>
      <trkpt lat="47.30928" lon="5.42341">
        <ele>182.2998</ele>
        <time>2026-05-15T13:34:19+02:00</time>
      </trkpt>
      <trkpt lat="47.30933" lon="5.42344">
        <ele>182.2998</ele>
        <time>2026-05-15T13:34:20+02:00</time>
      </trkpt>
      <trkpt lat="47.30938" lon="5.42347">
        <ele>182.2998</ele>
        <time>2026-05-15T13:34:21+02:00</time>
      </trkpt>
      <trkpt lat="47.30944" lon="5.4235">
        <ele>182.2998</ele>
        <time>2026-05-15T13:34:22+02:00</time>
      </trkpt>
      <trkpt lat="47.30949" lon="5.42354">
        <ele>182.2998</ele>
        <time>2026-05-15T13:34:23+02:00</time>
      </trkpt>
      <trkpt lat="47.30954" lon="5.42357">
        <ele>182.2998</ele>
        <time>2026-05-15T13:34:24+02:00</time>
      </trkpt>
      <trkpt lat="47.30959" lon="5.4236">
        <ele>182.2998</ele>
        <time>2026-05-15T13:34:25+02:00</time>
      </trkpt>
      <trkpt lat="47.30964" lon="5.42363">
        <ele>182.2998</ele>
        <time>2026-05-15T13:34:26+02:00</time>
      </trkpt>
      <trkpt lat="47.3097" lon="5.42366">
        <ele>182.2998</ele>
        <time>2026-05-15T13:34:27+02:00</time>
      </trkpt>
      <trkpt lat="47.30975" lon="5.4237">
        <ele>182.2998</ele>
        <time>2026-05-15T13:34:28+02:00</time>
      </trkpt>
      <trkpt lat="47.30979" lon="5.42373">
        <ele>182.2998</ele>
        <time>2026-05-15T13:34:29+02:00</time>
      </trkpt>
      <trkpt lat="47.30984" lon="5.42377">
        <ele>182.2998</ele>
        <time>2026-05-15T13:34:30+02:00</time>
      </trkpt>
      <trkpt lat="47.3099" lon="5.4238">
        <ele>182.2998</ele>
        <time>2026-05-15T13:34:31+02:00</time>
      </trkpt>
      <trkpt lat="47.30994" lon="5.42385">
        <ele>182.2998</ele>
        <time>2026-05-15T13:34:32+02:00</time>
      </trkpt>
      <trkpt lat="47.31" lon="5.42389">
        <ele>182.2998</ele>
        <time>2026-05-15T13:34:33+02:00</time>
      </trkpt>
      <trkpt lat="47.31005" lon="5.42392">
        <ele>182.2998</ele>
        <time>2026-05-15T13:34:34+02:00</time>
      </trkpt>
      <trkpt lat="47.3101" lon="5.42395">
        <ele>182.2998</ele>
        <time>2026-05-15T13:34:35+02:00</time>
      </trkpt>
      <trkpt lat="47.31016" lon="5.42398">
        <ele>182.2998</ele>
        <time>2026-05-15T13:34:36+02:00</time>
      </trkpt>
      <trkpt lat="47.3102" lon="5.42402">
        <ele>182.2998</ele>
        <time>2026-05-15T13:34:37+02:00</time>
      </trkpt>
      <trkpt lat="47.31025" lon="5.42405">
        <ele>182.2998</ele>
        <time>2026-05-15T13:34:38+02:00</time>
      </trkpt>
      <trkpt lat="47.3103" lon="5.42409">
        <ele>182.2998</ele>
        <time>2026-05-15T13:34:39+02:00</time>
      </trkpt>
      <trkpt lat="47.31036" lon="5.42413">
        <ele>182.2998</ele>
        <time>2026-05-15T13:34:40+02:00</time>
      </trkpt>
      <trkpt lat="47.31041" lon="5.42416">
        <ele>182.2998</ele>
        <time>2026-05-15T13:34:41+02:00</time>
      </trkpt>
      <trkpt lat="47.31046" lon="5.4242">
        <ele>182.2998</ele>
        <time>2026-05-15T13:34:42+02:00</time>
      </trkpt>
      <trkpt lat="47.31051" lon="5.42424">
        <ele>182.2998</ele>
        <time>2026-05-15T13:34:43+02:00</time>
      </trkpt>
      <trkpt lat="47.31057" lon="5.42427">
        <ele>182.2998</ele>
        <time>2026-05-15T13:34:44+02:00</time>
      </trkpt>
      <trkpt lat="47.31062" lon="5.42431">
        <ele>182.2998</ele>
        <time>2026-05-15T13:34:45+02:00</time>
      </trkpt>
      <trkpt lat="47.31067" lon="5.42435">
        <ele>182.2998</ele>
        <time>2026-05-15T13:34:46+02:00</time>
      </trkpt>
      <trkpt lat="47.31072" lon="5.4244">
        <ele>182.2998</ele>
        <time>2026-05-15T13:34:47+02:00</time>
      </trkpt>
      <trkpt lat="47.31077" lon="5.42444">
        <ele>182.2998</ele>
        <time>2026-05-15T13:34:48+02:00</time>
      </trkpt>
      <trkpt lat="47.31082" lon="5.42448">
        <ele>182.2998</ele>
        <time>2026-05-15T13:34:49+02:00</time>
      </trkpt>
      <trkpt lat="47.31087" lon="5.42452">
        <ele>182.2998</ele>
        <time>2026-05-15T13:34:50+02:00</time>
      </trkpt>
      <trkpt lat="47.31091" lon="5.42457">
        <ele>182.2998</ele>
        <time>2026-05-15T13:34:51+02:00</time>
      </trkpt>
      <trkpt lat="47.31097" lon="5.42461">
        <ele>182.2998</ele>
        <time>2026-05-15T13:34:52+02:00</time>
      </trkpt>
      <trkpt lat="47.31102" lon="5.42465">
        <ele>182.2998</ele>
        <time>2026-05-15T13:34:53+02:00</time>
      </trkpt>
      <trkpt lat="47.31107" lon="5.42469">
        <ele>182.2998</ele>
        <time>2026-05-15T13:34:54+02:00</time>
      </trkpt>
      <trkpt lat="47.31112" lon="5.42473">
        <ele>182.2998</ele>
        <time>2026-05-15T13:34:55+02:00</time>
      </trkpt>
      <trkpt lat="47.31116" lon="5.42478">
        <ele>182.2998</ele>
        <time>2026-05-15T13:34:56+02:00</time>
      </trkpt>
      <trkpt lat="47.31121" lon="5.42483">
        <ele>182.2998</ele>
        <time>2026-05-15T13:34:57+02:00</time>
      </trkpt>
      <trkpt lat="47.31126" lon="5.42488">
        <ele>182.2002</ele>
        <time>2026-05-15T13:34:58+02:00</time>
      </trkpt>
      <trkpt lat="47.3113" lon="5.42493">
        <ele>182.2002</ele>
        <time>2026-05-15T13:34:59+02:00</time>
      </trkpt>
      <trkpt lat="47.31136" lon="5.42497">
        <ele>182.2998</ele>
        <time>2026-05-15T13:35:00+02:00</time>
      </trkpt>
      <trkpt lat="47.31141" lon="5.425">
        <ele>182.2998</ele>
        <time>2026-05-15T13:35:01+02:00</time>
      </trkpt>
      <trkpt lat="47.31146" lon="5.42504">
        <ele>182.2998</ele>
        <time>2026-05-15T13:35:02+02:00</time>
      </trkpt>
      <trkpt lat="47.31151" lon="5.42508">
        <ele>182.40039</ele>
        <time>2026-05-15T13:35:03+02:00</time>
      </trkpt>
      <trkpt lat="47.31156" lon="5.42511">
        <ele>182.2998</ele>
        <time>2026-05-15T13:35:04+02:00</time>
      </trkpt>
      <trkpt lat="47.3116" lon="5.42516">
        <ele>182.40039</ele>
        <time>2026-05-15T13:35:05+02:00</time>
      </trkpt>
      <trkpt lat="47.31164" lon="5.42522">
        <ele>182.2998</ele>
        <time>2026-05-15T13:35:06+02:00</time>
      </trkpt>
      <trkpt lat="47.31167" lon="5.42529">
        <ele>182.40039</ele>
        <time>2026-05-15T13:35:07+02:00</time>
      </trkpt>
      <trkpt lat="47.3117" lon="5.42537">
        <ele>182.2998</ele>
        <time>2026-05-15T13:35:08+02:00</time>
      </trkpt>
      <trkpt lat="47.31173" lon="5.42545">
        <ele>182.2998</ele>
        <time>2026-05-15T13:35:09+02:00</time>
      </trkpt>
      <trkpt lat="47.31175" lon="5.42553">
        <ele>182.2998</ele>
        <time>2026-05-15T13:35:10+02:00</time>
      </trkpt>
      <trkpt lat="47.31176" lon="5.42561">
        <ele>182.2998</ele>
        <time>2026-05-15T13:35:11+02:00</time>
      </trkpt>
      <trkpt lat="47.31177" lon="5.42569">
        <ele>182.2998</ele>
        <time>2026-05-15T13:35:12+02:00</time>
      </trkpt>
      <trkpt lat="47.31178" lon="5.42577">
        <ele>182.2998</ele>
        <time>2026-05-15T13:35:13+02:00</time>
      </trkpt>
      <trkpt lat="47.31178" lon="5.42585">
        <ele>182.2998</ele>
        <time>2026-05-15T13:35:14+02:00</time>
      </trkpt>
      <trkpt lat="47.31178" lon="5.42593">
        <ele>182.2998</ele>
        <time>2026-05-15T13:35:15+02:00</time>
      </trkpt>
      <trkpt lat="47.31177" lon="5.426">
        <ele>182.2998</ele>
        <time>2026-05-15T13:35:16+02:00</time>
      </trkpt>
      <trkpt lat="47.31177" lon="5.42609">
        <ele>182.2998</ele>
        <time>2026-05-15T13:35:17+02:00</time>
      </trkpt>
      <trkpt lat="47.31177" lon="5.42617">
        <ele>182.2998</ele>
        <time>2026-05-15T13:35:18+02:00</time>
      </trkpt>
      <trkpt lat="47.31177" lon="5.42625">
        <ele>182.2998</ele>
        <time>2026-05-15T13:35:19+02:00</time>
      </trkpt>
      <trkpt lat="47.31178" lon="5.42633">
        <ele>182.2998</ele>
        <time>2026-05-15T13:35:20+02:00</time>
      </trkpt>
      <trkpt lat="47.31178" lon="5.4264">
        <ele>182.2998</ele>
        <time>2026-05-15T13:35:21+02:00</time>
      </trkpt>
      <trkpt lat="47.31179" lon="5.42648">
        <ele>182.2998</ele>
        <time>2026-05-15T13:35:22+02:00</time>
      </trkpt>
      <trkpt lat="47.3118" lon="5.42655">
        <ele>182.2998</ele>
        <time>2026-05-15T13:35:23+02:00</time>
      </trkpt>
      <trkpt lat="47.31181" lon="5.42663">
        <ele>182.2998</ele>
        <time>2026-05-15T13:35:24+02:00</time>
      </trkpt>
      <trkpt lat="47.31182" lon="5.4267">
        <ele>182.2998</ele>
        <time>2026-05-15T13:35:25+02:00</time>
      </trkpt>
      <trkpt lat="47.31183" lon="5.42678">
        <ele>182.2998</ele>
        <time>2026-05-15T13:35:26+02:00</time>
      </trkpt>
      <trkpt lat="47.31184" lon="5.42686">
        <ele>182.2998</ele>
        <time>2026-05-15T13:35:27+02:00</time>
      </trkpt>
      <trkpt lat="47.31185" lon="5.42693">
        <ele>182.2998</ele>
        <time>2026-05-15T13:35:28+02:00</time>
      </trkpt>
      <trkpt lat="47.31185" lon="5.42701">
        <ele>182.2998</ele>
        <time>2026-05-15T13:35:29+02:00</time>
      </trkpt>
      <trkpt lat="47.31186" lon="5.42709">
        <ele>182.2998</ele>
        <time>2026-05-15T13:35:30+02:00</time>
      </trkpt>
      <trkpt lat="47.31187" lon="5.42716">
        <ele>182.2998</ele>
        <time>2026-05-15T13:35:31+02:00</time>
      </trkpt>
      <trkpt lat="47.31188" lon="5.42724">
        <ele>182.2998</ele>
        <time>2026-05-15T13:35:32+02:00</time>
      </trkpt>
      <trkpt lat="47.31189" lon="5.42732">
        <ele>182.40039</ele>
        <time>2026-05-15T13:35:33+02:00</time>
      </trkpt>
      <trkpt lat="47.3119" lon="5.4274">
        <ele>182.40039</ele>
        <time>2026-05-15T13:35:34+02:00</time>
      </trkpt>
      <trkpt lat="47.31191" lon="5.42748">
        <ele>182.40039</ele>
        <time>2026-05-15T13:35:35+02:00</time>
      </trkpt>
      <trkpt lat="47.31192" lon="5.42755">
        <ele>182.40039</ele>
        <time>2026-05-15T13:35:36+02:00</time>
      </trkpt>
      <trkpt lat="47.31193" lon="5.42763">
        <ele>182.40039</ele>
        <time>2026-05-15T13:35:37+02:00</time>
      </trkpt>
      <trkpt lat="47.31194" lon="5.42771">
        <ele>182.2998</ele>
        <time>2026-05-15T13:35:38+02:00</time>
      </trkpt>
      <trkpt lat="47.31195" lon="5.42779">
        <ele>182.5</ele>
        <time>2026-05-15T13:35:39+02:00</time>
      </trkpt>
      <trkpt lat="47.31197" lon="5.42786">
        <ele>182.5</ele>
        <time>2026-05-15T13:35:40+02:00</time>
      </trkpt>
      <trkpt lat="47.31197" lon="5.42794">
        <ele>182.5</ele>
        <time>2026-05-15T13:35:41+02:00</time>
      </trkpt>
      <trkpt lat="47.31198" lon="5.42802">
        <ele>182.5</ele>
        <time>2026-05-15T13:35:42+02:00</time>
      </trkpt>
      <trkpt lat="47.31199" lon="5.42809">
        <ele>182.5</ele>
        <time>2026-05-15T13:35:43+02:00</time>
      </trkpt>
      <trkpt lat="47.312" lon="5.42817">
        <ele>182.5</ele>
        <time>2026-05-15T13:35:44+02:00</time>
      </trkpt>
      <trkpt lat="47.31201" lon="5.42824">
        <ele>182.7002</ele>
        <time>2026-05-15T13:35:45+02:00</time>
      </trkpt>
      <trkpt lat="47.31202" lon="5.42832">
        <ele>182.7002</ele>
        <time>2026-05-15T13:35:46+02:00</time>
      </trkpt>
      <trkpt lat="47.31202" lon="5.4284">
        <ele>182.7002</ele>
        <time>2026-05-15T13:35:47+02:00</time>
      </trkpt>
      <trkpt lat="47.31204" lon="5.42849">
        <ele>182.60059</ele>
        <time>2026-05-15T13:35:48+02:00</time>
      </trkpt>
      <trkpt lat="47.31204" lon="5.42858">
        <ele>182.60059</ele>
        <time>2026-05-15T13:35:49+02:00</time>
      </trkpt>
      <trkpt lat="47.31205" lon="5.42866">
        <ele>182.60059</ele>
        <time>2026-05-15T13:35:50+02:00</time>
      </trkpt>
      <trkpt lat="47.31207" lon="5.42875">
        <ele>182.7998</ele>
        <time>2026-05-15T13:35:51+02:00</time>
      </trkpt>
      <trkpt lat="47.31208" lon="5.42883">
        <ele>182.60059</ele>
        <time>2026-05-15T13:35:52+02:00</time>
      </trkpt>
      <trkpt lat="47.31209" lon="5.42891">
        <ele>182.40039</ele>
        <time>2026-05-15T13:35:53+02:00</time>
      </trkpt>
      <trkpt lat="47.3121" lon="5.42899">
        <ele>182.2998</ele>
        <time>2026-05-15T13:35:54+02:00</time>
      </trkpt>
      <trkpt lat="47.3121" lon="5.42908">
        <ele>182.2002</ele>
        <time>2026-05-15T13:35:55+02:00</time>
      </trkpt>
      <trkpt lat="47.31212" lon="5.42916">
        <ele>182.2002</ele>
        <time>2026-05-15T13:35:56+02:00</time>
      </trkpt>
      <trkpt lat="47.31213" lon="5.42925">
        <ele>182.2002</ele>
        <time>2026-05-15T13:35:57+02:00</time>
      </trkpt>
      <trkpt lat="47.31214" lon="5.42934">
        <ele>182.2998</ele>
        <time>2026-05-15T13:35:58+02:00</time>
      </trkpt>
      <trkpt lat="47.31215" lon="5.42942">
        <ele>182.2998</ele>
        <time>2026-05-15T13:35:59+02:00</time>
      </trkpt>
      <trkpt lat="47.31216" lon="5.4295">
        <ele>182.2998</ele>
        <time>2026-05-15T13:36:00+02:00</time>
      </trkpt>
      <trkpt lat="47.31217" lon="5.42959">
        <ele>182.2998</ele>
        <time>2026-05-15T13:36:01+02:00</time>
      </trkpt>
      <trkpt lat="47.31218" lon="5.42967">
        <ele>182.2998</ele>
        <time>2026-05-15T13:36:02+02:00</time>
      </trkpt>
      <trkpt lat="47.31219" lon="5.42976">
        <ele>182.2998</ele>
        <time>2026-05-15T13:36:03+02:00</time>
      </trkpt>
      <trkpt lat="47.3122" lon="5.42984">
        <ele>182.2998</ele>
        <time>2026-05-15T13:36:04+02:00</time>
      </trkpt>
      <trkpt lat="47.31221" lon="5.42993">
        <ele>182.2998</ele>
        <time>2026-05-15T13:36:05+02:00</time>
      </trkpt>
      <trkpt lat="47.31222" lon="5.43002">
        <ele>182.2998</ele>
        <time>2026-05-15T13:36:06+02:00</time>
      </trkpt>
      <trkpt lat="47.31223" lon="5.4301">
        <ele>182.2998</ele>
        <time>2026-05-15T13:36:07+02:00</time>
      </trkpt>
      <trkpt lat="47.31224" lon="5.43018">
        <ele>182.40039</ele>
        <time>2026-05-15T13:36:08+02:00</time>
      </trkpt>
      <trkpt lat="47.31225" lon="5.43027">
        <ele>182.40039</ele>
        <time>2026-05-15T13:36:09+02:00</time>
      </trkpt>
      <trkpt lat="47.31226" lon="5.43035">
        <ele>182.40039</ele>
        <time>2026-05-15T13:36:10+02:00</time>
      </trkpt>
      <trkpt lat="47.31226" lon="5.43044">
        <ele>182.40039</ele>
        <time>2026-05-15T13:36:11+02:00</time>
      </trkpt>
      <trkpt lat="47.31227" lon="5.43052">
        <ele>182.40039</ele>
        <time>2026-05-15T13:36:12+02:00</time>
      </trkpt>
      <trkpt lat="47.31228" lon="5.4306">
        <ele>182.40039</ele>
        <time>2026-05-15T13:36:13+02:00</time>
      </trkpt>
      <trkpt lat="47.3123" lon="5.43068">
        <ele>182.5</ele>
        <time>2026-05-15T13:36:14+02:00</time>
      </trkpt>
      <trkpt lat="47.31231" lon="5.43077">
        <ele>182.40039</ele>
        <time>2026-05-15T13:36:15+02:00</time>
      </trkpt>
      <trkpt lat="47.31232" lon="5.43086">
        <ele>182.40039</ele>
        <time>2026-05-15T13:36:16+02:00</time>
      </trkpt>
      <trkpt lat="47.31233" lon="5.43094">
        <ele>182.2998</ele>
        <time>2026-05-15T13:36:17+02:00</time>
      </trkpt>
      <trkpt lat="47.31234" lon="5.43103">
        <ele>182.2998</ele>
        <time>2026-05-15T13:36:18+02:00</time>
      </trkpt>
      <trkpt lat="47.31235" lon="5.43112">
        <ele>182.2998</ele>
        <time>2026-05-15T13:36:19+02:00</time>
      </trkpt>
      <trkpt lat="47.31236" lon="5.4312">
        <ele>182.2998</ele>
        <time>2026-05-15T13:36:20+02:00</time>
      </trkpt>
      <trkpt lat="47.31238" lon="5.43129">
        <ele>182.2998</ele>
        <time>2026-05-15T13:36:21+02:00</time>
      </trkpt>
      <trkpt lat="47.31239" lon="5.43138">
        <ele>182.2998</ele>
        <time>2026-05-15T13:36:22+02:00</time>
      </trkpt>
      <trkpt lat="47.31241" lon="5.43147">
        <ele>182.2998</ele>
        <time>2026-05-15T13:36:23+02:00</time>
      </trkpt>
      <trkpt lat="47.31243" lon="5.43155">
        <ele>182.2998</ele>
        <time>2026-05-15T13:36:24+02:00</time>
      </trkpt>
      <trkpt lat="47.31245" lon="5.43163">
        <ele>182.2998</ele>
        <time>2026-05-15T13:36:25+02:00</time>
      </trkpt>
      <trkpt lat="47.31247" lon="5.43171">
        <ele>182.2998</ele>
        <time>2026-05-15T13:36:26+02:00</time>
      </trkpt>
      <trkpt lat="47.31249" lon="5.43179">
        <ele>182.2998</ele>
        <time>2026-05-15T13:36:27+02:00</time>
      </trkpt>
      <trkpt lat="47.31251" lon="5.43187">
        <ele>182.2998</ele>
        <time>2026-05-15T13:36:28+02:00</time>
      </trkpt>
      <trkpt lat="47.31254" lon="5.43195">
        <ele>182.2998</ele>
        <time>2026-05-15T13:36:29+02:00</time>
      </trkpt>
      <trkpt lat="47.31257" lon="5.43203">
        <ele>182.2998</ele>
        <time>2026-05-15T13:36:30+02:00</time>
      </trkpt>
      <trkpt lat="47.3126" lon="5.4321">
        <ele>182.2998</ele>
        <time>2026-05-15T13:36:31+02:00</time>
      </trkpt>
      <trkpt lat="47.31263" lon="5.43218">
        <ele>182.2998</ele>
        <time>2026-05-15T13:36:32+02:00</time>
      </trkpt>
      <trkpt lat="47.31267" lon="5.43225">
        <ele>182.2998</ele>
        <time>2026-05-15T13:36:33+02:00</time>
      </trkpt>
      <trkpt lat="47.3127" lon="5.43232">
        <ele>182.2998</ele>
        <time>2026-05-15T13:36:34+02:00</time>
      </trkpt>
      <trkpt lat="47.31273" lon="5.43238">
        <ele>182.2998</ele>
        <time>2026-05-15T13:36:35+02:00</time>
      </trkpt>
      <trkpt lat="47.31276" lon="5.43244">
        <ele>182.2998</ele>
        <time>2026-05-15T13:36:36+02:00</time>
      </trkpt>
      <trkpt lat="47.31279" lon="5.4325">
        <ele>182.2998</ele>
        <time>2026-05-15T13:36:37+02:00</time>
      </trkpt>
      <trkpt lat="47.31283" lon="5.43256">
        <ele>182.2998</ele>
        <time>2026-05-15T13:36:38+02:00</time>
      </trkpt>
      <trkpt lat="47.31286" lon="5.43262">
        <ele>182.2998</ele>
        <time>2026-05-15T13:36:39+02:00</time>
      </trkpt>
      <trkpt lat="47.3129" lon="5.43267">
        <ele>182.2998</ele>
        <time>2026-05-15T13:36:40+02:00</time>
      </trkpt>
      <trkpt lat="47.31294" lon="5.43273">
        <ele>182.2998</ele>
        <time>2026-05-15T13:36:41+02:00</time>
      </trkpt>
      <trkpt lat="47.31298" lon="5.43278">
        <ele>182.2998</ele>
        <time>2026-05-15T13:36:42+02:00</time>
      </trkpt>
      <trkpt lat="47.31302" lon="5.43284">
        <ele>182.2998</ele>
        <time>2026-05-15T13:36:43+02:00</time>
      </trkpt>
      <trkpt lat="47.31307" lon="5.43288">
        <ele>182.2998</ele>
        <time>2026-05-15T13:36:44+02:00</time>
      </trkpt>
      <trkpt lat="47.31311" lon="5.43293">
        <ele>182.2998</ele>
        <time>2026-05-15T13:36:45+02:00</time>
      </trkpt>
      <trkpt lat="47.31316" lon="5.43297">
        <ele>182.2998</ele>
        <time>2026-05-15T13:36:46+02:00</time>
      </trkpt>
      <trkpt lat="47.31321" lon="5.43301">
        <ele>182.2998</ele>
        <time>2026-05-15T13:36:47+02:00</time>
      </trkpt>
      <trkpt lat="47.31326" lon="5.43305">
        <ele>182.2998</ele>
        <time>2026-05-15T13:36:48+02:00</time>
      </trkpt>
      <trkpt lat="47.31332" lon="5.43308">
        <ele>182.2998</ele>
        <time>2026-05-15T13:36:49+02:00</time>
      </trkpt>
      <trkpt lat="47.31337" lon="5.43311">
        <ele>182.2998</ele>
        <time>2026-05-15T13:36:50+02:00</time>
      </trkpt>
      <trkpt lat="47.31342" lon="5.43314">
        <ele>182.2998</ele>
        <time>2026-05-15T13:36:51+02:00</time>
      </trkpt>
      <trkpt lat="47.31347" lon="5.43316">
        <ele>182.2998</ele>
        <time>2026-05-15T13:36:52+02:00</time>
      </trkpt>
      <trkpt lat="47.31353" lon="5.43318">
        <ele>182.2998</ele>
        <time>2026-05-15T13:36:53+02:00</time>
      </trkpt>
      <trkpt lat="47.31359" lon="5.4332">
        <ele>182.2998</ele>
        <time>2026-05-15T13:36:54+02:00</time>
      </trkpt>
      <trkpt lat="47.31365" lon="5.43321">
        <ele>182.2998</ele>
        <time>2026-05-15T13:36:55+02:00</time>
      </trkpt>
      <trkpt lat="47.3137" lon="5.43322">
        <ele>182.2998</ele>
        <time>2026-05-15T13:36:56+02:00</time>
      </trkpt>
      <trkpt lat="47.31376" lon="5.43323">
        <ele>182.2998</ele>
        <time>2026-05-15T13:36:57+02:00</time>
      </trkpt>
      <trkpt lat="47.31382" lon="5.43323">
        <ele>182.2998</ele>
        <time>2026-05-15T13:36:58+02:00</time>
      </trkpt>
      <trkpt lat="47.31387" lon="5.43322">
        <ele>182.2998</ele>
        <time>2026-05-15T13:36:59+02:00</time>
      </trkpt>
      <trkpt lat="47.31392" lon="5.43321">
        <ele>182.2998</ele>
        <time>2026-05-15T13:37:00+02:00</time>
      </trkpt>
      <trkpt lat="47.31398" lon="5.4332">
        <ele>182.2998</ele>
        <time>2026-05-15T13:37:01+02:00</time>
      </trkpt>
      <trkpt lat="47.31403" lon="5.43318">
        <ele>182.2998</ele>
        <time>2026-05-15T13:37:02+02:00</time>
      </trkpt>
      <trkpt lat="47.31408" lon="5.43316">
        <ele>182.40039</ele>
        <time>2026-05-15T13:37:03+02:00</time>
      </trkpt>
      <trkpt lat="47.31413" lon="5.43313">
        <ele>182.40039</ele>
        <time>2026-05-15T13:37:04+02:00</time>
      </trkpt>
      <trkpt lat="47.31418" lon="5.43311">
        <ele>182.40039</ele>
        <time>2026-05-15T13:37:05+02:00</time>
      </trkpt>
      <trkpt lat="47.31423" lon="5.43308">
        <ele>182.5</ele>
        <time>2026-05-15T13:37:06+02:00</time>
      </trkpt>
      <trkpt lat="47.31428" lon="5.43305">
        <ele>182.5</ele>
        <time>2026-05-15T13:37:07+02:00</time>
      </trkpt>
      <trkpt lat="47.31433" lon="5.433">
        <ele>182.5</ele>
        <time>2026-05-15T13:37:08+02:00</time>
      </trkpt>
      <trkpt lat="47.31437" lon="5.43296">
        <ele>182.7002</ele>
        <time>2026-05-15T13:37:09+02:00</time>
      </trkpt>
      <trkpt lat="47.31442" lon="5.43292">
        <ele>182.60059</ele>
        <time>2026-05-15T13:37:10+02:00</time>
      </trkpt>
      <trkpt lat="47.31446" lon="5.43287">
        <ele>182.60059</ele>
        <time>2026-05-15T13:37:11+02:00</time>
      </trkpt>
      <trkpt lat="47.3145" lon="5.43283">
        <ele>182.60059</ele>
        <time>2026-05-15T13:37:12+02:00</time>
      </trkpt>
      <trkpt lat="47.31454" lon="5.43278">
        <ele>182.5</ele>
        <time>2026-05-15T13:37:13+02:00</time>
      </trkpt>
      <trkpt lat="47.31458" lon="5.43272">
        <ele>182.60059</ele>
        <time>2026-05-15T13:37:14+02:00</time>
      </trkpt>
      <trkpt lat="47.31461" lon="5.43266">
        <ele>182.60059</ele>
        <time>2026-05-15T13:37:15+02:00</time>
      </trkpt>
      <trkpt lat="47.31465" lon="5.4326">
        <ele>182.7998</ele>
        <time>2026-05-15T13:37:16+02:00</time>
      </trkpt>
      <trkpt lat="47.31468" lon="5.43253">
        <ele>183.2002</ele>
        <time>2026-05-15T13:37:17+02:00</time>
      </trkpt>
      <trkpt lat="47.31471" lon="5.43246">
        <ele>183.40039</ele>
        <time>2026-05-15T13:37:18+02:00</time>
      </trkpt>
      <trkpt lat="47.31474" lon="5.4324">
        <ele>183.2002</ele>
        <time>2026-05-15T13:37:19+02:00</time>
      </trkpt>
      <trkpt lat="47.31477" lon="5.43234">
        <ele>183.40039</ele>
        <time>2026-05-15T13:37:20+02:00</time>
      </trkpt>
      <trkpt lat="47.31481" lon="5.43227">
        <ele>183.40039</ele>
        <time>2026-05-15T13:37:21+02:00</time>
      </trkpt>
      <trkpt lat="47.31483" lon="5.43221">
        <ele>183.60059</ele>
        <time>2026-05-15T13:37:22+02:00</time>
      </trkpt>
      <trkpt lat="47.31486" lon="5.43214">
        <ele>183.40039</ele>
        <time>2026-05-15T13:37:23+02:00</time>
      </trkpt>
      <trkpt lat="47.31489" lon="5.43208">
        <ele>183.7002</ele>
        <time>2026-05-15T13:37:24+02:00</time>
      </trkpt>
      <trkpt lat="47.31492" lon="5.43201">
        <ele>183.7002</ele>
        <time>2026-05-15T13:37:25+02:00</time>
      </trkpt>
      <trkpt lat="47.31495" lon="5.43193">
        <ele>183.90039</ele>
        <time>2026-05-15T13:37:26+02:00</time>
      </trkpt>
      <trkpt lat="47.31498" lon="5.43187">
        <ele>183.7998</ele>
        <time>2026-05-15T13:37:27+02:00</time>
      </trkpt>
      <trkpt lat="47.31501" lon="5.4318">
        <ele>183.7998</ele>
        <time>2026-05-15T13:37:28+02:00</time>
      </trkpt>
      <trkpt lat="47.31504" lon="5.43173">
        <ele>183.7002</ele>
        <time>2026-05-15T13:37:29+02:00</time>
      </trkpt>
      <trkpt lat="47.31506" lon="5.43167">
        <ele>184.10059</ele>
        <time>2026-05-15T13:37:30+02:00</time>
      </trkpt>
      <trkpt lat="47.3151" lon="5.4316">
        <ele>184</ele>
        <time>2026-05-15T13:37:31+02:00</time>
      </trkpt>
      <trkpt lat="47.31513" lon="5.43153">
        <ele>184.2998</ele>
        <time>2026-05-15T13:37:32+02:00</time>
      </trkpt>
      <trkpt lat="47.31515" lon="5.43146">
        <ele>183.60059</ele>
        <time>2026-05-15T13:37:33+02:00</time>
      </trkpt>
      <trkpt lat="47.31518" lon="5.4314">
        <ele>183.7998</ele>
        <time>2026-05-15T13:37:34+02:00</time>
      </trkpt>
      <trkpt lat="47.3152" lon="5.43133">
        <ele>183.90039</ele>
        <time>2026-05-15T13:37:35+02:00</time>
      </trkpt>
      <trkpt lat="47.31523" lon="5.43125">
        <ele>183.60059</ele>
        <time>2026-05-15T13:37:36+02:00</time>
      </trkpt>
      <trkpt lat="47.31525" lon="5.43118">
        <ele>183.7998</ele>
        <time>2026-05-15T13:37:37+02:00</time>
      </trkpt>
      <trkpt lat="47.31527" lon="5.43111">
        <ele>183.5</ele>
        <time>2026-05-15T13:37:38+02:00</time>
      </trkpt>
      <trkpt lat="47.3153" lon="5.43104">
        <ele>183.7002</ele>
        <time>2026-05-15T13:37:39+02:00</time>
      </trkpt>
      <trkpt lat="47.31533" lon="5.43097">
        <ele>183.60059</ele>
        <time>2026-05-15T13:37:40+02:00</time>
      </trkpt>
      <trkpt lat="47.31535" lon="5.4309">
        <ele>183.7998</ele>
        <time>2026-05-15T13:37:41+02:00</time>
      </trkpt>
      <trkpt lat="47.31538" lon="5.43082">
        <ele>183.60059</ele>
        <time>2026-05-15T13:37:42+02:00</time>
      </trkpt>
      <trkpt lat="47.31541" lon="5.43075">
        <ele>183.7002</ele>
        <time>2026-05-15T13:37:43+02:00</time>
      </trkpt>
      <trkpt lat="47.31543" lon="5.43068">
        <ele>183.7002</ele>
        <time>2026-05-15T13:37:44+02:00</time>
      </trkpt>
      <trkpt lat="47.31546" lon="5.43061">
        <ele>183.5</ele>
        <time>2026-05-15T13:37:45+02:00</time>
      </trkpt>
      <trkpt lat="47.31548" lon="5.43054">
        <ele>183.60059</ele>
        <time>2026-05-15T13:37:46+02:00</time>
      </trkpt>
      <trkpt lat="47.31551" lon="5.43046">
        <ele>183.5</ele>
        <time>2026-05-15T13:37:47+02:00</time>
      </trkpt>
      <trkpt lat="47.31554" lon="5.4304">
        <ele>183.60059</ele>
        <time>2026-05-15T13:37:48+02:00</time>
      </trkpt>
      <trkpt lat="47.31557" lon="5.43033">
        <ele>183.40039</ele>
        <time>2026-05-15T13:37:49+02:00</time>
      </trkpt>
      <trkpt lat="47.3156" lon="5.43026">
        <ele>183.40039</ele>
        <time>2026-05-15T13:37:50+02:00</time>
      </trkpt>
      <trkpt lat="47.31563" lon="5.43019">
        <ele>183.2002</ele>
        <time>2026-05-15T13:37:51+02:00</time>
      </trkpt>
      <trkpt lat="47.31566" lon="5.43012">
        <ele>183.2998</ele>
        <time>2026-05-15T13:37:52+02:00</time>
      </trkpt>
      <trkpt lat="47.31569" lon="5.43006">
        <ele>183</ele>
        <time>2026-05-15T13:37:53+02:00</time>
      </trkpt>
      <trkpt lat="47.31572" lon="5.42999">
        <ele>183.10059</ele>
        <time>2026-05-15T13:37:54+02:00</time>
      </trkpt>
      <trkpt lat="47.31575" lon="5.42992">
        <ele>182.7998</ele>
        <time>2026-05-15T13:37:55+02:00</time>
      </trkpt>
      <trkpt lat="47.31578" lon="5.42986">
        <ele>183</ele>
        <time>2026-05-15T13:37:56+02:00</time>
      </trkpt>
      <trkpt lat="47.31581" lon="5.4298">
        <ele>183.10059</ele>
        <time>2026-05-15T13:37:57+02:00</time>
      </trkpt>
      <trkpt lat="47.31584" lon="5.42973">
        <ele>183.2998</ele>
        <time>2026-05-15T13:37:58+02:00</time>
      </trkpt>
      <trkpt lat="47.31587" lon="5.42967">
        <ele>183</ele>
        <time>2026-05-15T13:37:59+02:00</time>
      </trkpt>
      <trkpt lat="47.31591" lon="5.42961">
        <ele>182.90039</ele>
        <time>2026-05-15T13:38:00+02:00</time>
      </trkpt>
      <trkpt lat="47.31594" lon="5.42955">
        <ele>183.10059</ele>
        <time>2026-05-15T13:38:01+02:00</time>
      </trkpt>
      <trkpt lat="47.31598" lon="5.42949">
        <ele>182.90039</ele>
        <time>2026-05-15T13:38:02+02:00</time>
      </trkpt>
      <trkpt lat="47.31601" lon="5.42943">
        <ele>183.2002</ele>
        <time>2026-05-15T13:38:03+02:00</time>
      </trkpt>
      <trkpt lat="47.31604" lon="5.42938">
        <ele>183.2002</ele>
        <time>2026-05-15T13:38:04+02:00</time>
      </trkpt>
      <trkpt lat="47.31608" lon="5.42932">
        <ele>182.90039</ele>
        <time>2026-05-15T13:38:05+02:00</time>
      </trkpt>
      <trkpt lat="47.31611" lon="5.42927">
        <ele>183.10059</ele>
        <time>2026-05-15T13:38:06+02:00</time>
      </trkpt>
      <trkpt lat="47.31614" lon="5.42921">
        <ele>183.10059</ele>
        <time>2026-05-15T13:38:07+02:00</time>
      </trkpt>
      <trkpt lat="47.31617" lon="5.42915">
        <ele>183.10059</ele>
        <time>2026-05-15T13:38:08+02:00</time>
      </trkpt>
      <trkpt lat="47.3162" lon="5.42909">
        <ele>183.2002</ele>
        <time>2026-05-15T13:38:09+02:00</time>
      </trkpt>
      <trkpt lat="47.31624" lon="5.42904">
        <ele>183.5</ele>
        <time>2026-05-15T13:38:10+02:00</time>
      </trkpt>
      <trkpt lat="47.31627" lon="5.42899">
        <ele>183.2002</ele>
        <time>2026-05-15T13:38:11+02:00</time>
      </trkpt>
      <trkpt lat="47.31631" lon="5.42894">
        <ele>183</ele>
        <time>2026-05-15T13:38:12+02:00</time>
      </trkpt>
      <trkpt lat="47.31634" lon="5.42889">
        <ele>183</ele>
        <time>2026-05-15T13:38:13+02:00</time>
      </trkpt>
      <trkpt lat="47.31638" lon="5.42884">
        <ele>183</ele>
        <time>2026-05-15T13:38:14+02:00</time>
      </trkpt>
      <trkpt lat="47.31642" lon="5.42879">
        <ele>183.40039</ele>
        <time>2026-05-15T13:38:15+02:00</time>
      </trkpt>
      <trkpt lat="47.31645" lon="5.42874">
        <ele>183.10059</ele>
        <time>2026-05-15T13:38:16+02:00</time>
      </trkpt>
      <trkpt lat="47.31649" lon="5.42869">
        <ele>183.10059</ele>
        <time>2026-05-15T13:38:17+02:00</time>
      </trkpt>
      <trkpt lat="47.31652" lon="5.42864">
        <ele>183.10059</ele>
        <time>2026-05-15T13:38:18+02:00</time>
      </trkpt>
      <trkpt lat="47.31656" lon="5.42859">
        <ele>182.90039</ele>
        <time>2026-05-15T13:38:19+02:00</time>
      </trkpt>
      <trkpt lat="47.31659" lon="5.42854">
        <ele>182.90039</ele>
        <time>2026-05-15T13:38:20+02:00</time>
      </trkpt>
      <trkpt lat="47.31663" lon="5.42849">
        <ele>182.90039</ele>
        <time>2026-05-15T13:38:21+02:00</time>
      </trkpt>
      <trkpt lat="47.31666" lon="5.42844">
        <ele>183</ele>
        <time>2026-05-15T13:38:22+02:00</time>
      </trkpt>
      <trkpt lat="47.3167" lon="5.42839">
        <ele>183</ele>
        <time>2026-05-15T13:38:23+02:00</time>
      </trkpt>
      <trkpt lat="47.31674" lon="5.42833">
        <ele>182.90039</ele>
        <time>2026-05-15T13:38:24+02:00</time>
      </trkpt>
      <trkpt lat="47.31677" lon="5.42828">
        <ele>182.90039</ele>
        <time>2026-05-15T13:38:25+02:00</time>
      </trkpt>
      <trkpt lat="47.31681" lon="5.42823">
        <ele>182.7002</ele>
        <time>2026-05-15T13:38:26+02:00</time>
      </trkpt>
      <trkpt lat="47.31685" lon="5.42819">
        <ele>182.7998</ele>
        <time>2026-05-15T13:38:27+02:00</time>
      </trkpt>
      <trkpt lat="47.31688" lon="5.42814">
        <ele>182.7998</ele>
        <time>2026-05-15T13:38:28+02:00</time>
      </trkpt>
      <trkpt lat="47.31692" lon="5.42809">
        <ele>182.7998</ele>
        <time>2026-05-15T13:38:29+02:00</time>
      </trkpt>
      <trkpt lat="47.31696" lon="5.42804">
        <ele>182.60059</ele>
        <time>2026-05-15T13:38:30+02:00</time>
      </trkpt>
      <trkpt lat="47.31699" lon="5.42799">
        <ele>182.7998</ele>
        <time>2026-05-15T13:38:31+02:00</time>
      </trkpt>
      <trkpt lat="47.31702" lon="5.42794">
        <ele>182.5</ele>
        <time>2026-05-15T13:38:32+02:00</time>
      </trkpt>
      <trkpt lat="47.31705" lon="5.42789">
        <ele>182.60059</ele>
        <time>2026-05-15T13:38:33+02:00</time>
      </trkpt>
      <trkpt lat="47.31709" lon="5.42783">
        <ele>182.7998</ele>
        <time>2026-05-15T13:38:34+02:00</time>
      </trkpt>
      <trkpt lat="47.31712" lon="5.42778">
        <ele>182.7998</ele>
        <time>2026-05-15T13:38:35+02:00</time>
      </trkpt>
      <trkpt lat="47.31716" lon="5.42773">
        <ele>183.10059</ele>
        <time>2026-05-15T13:38:36+02:00</time>
      </trkpt>
      <trkpt lat="47.31719" lon="5.42767">
        <ele>183.2998</ele>
        <time>2026-05-15T13:38:37+02:00</time>
      </trkpt>
      <trkpt lat="47.31723" lon="5.42762">
        <ele>183.2998</ele>
        <time>2026-05-15T13:38:38+02:00</time>
      </trkpt>
      <trkpt lat="47.31726" lon="5.42756">
        <ele>183.40039</ele>
        <time>2026-05-15T13:38:39+02:00</time>
      </trkpt>
      <trkpt lat="47.3173" lon="5.42751">
        <ele>183.10059</ele>
        <time>2026-05-15T13:38:40+02:00</time>
      </trkpt>
      <trkpt lat="47.31733" lon="5.42746">
        <ele>183.40039</ele>
        <time>2026-05-15T13:38:41+02:00</time>
      </trkpt>
      <trkpt lat="47.31737" lon="5.4274">
        <ele>183.40039</ele>
        <time>2026-05-15T13:38:42+02:00</time>
      </trkpt>
      <trkpt lat="47.3174" lon="5.42735">
        <ele>183.40039</ele>
        <time>2026-05-15T13:38:43+02:00</time>
      </trkpt>
      <trkpt lat="47.31744" lon="5.4273">
        <ele>183.40039</ele>
        <time>2026-05-15T13:38:44+02:00</time>
      </trkpt>
      <trkpt lat="47.31748" lon="5.42725">
        <ele>183.2002</ele>
        <time>2026-05-15T13:38:45+02:00</time>
      </trkpt>
      <trkpt lat="47.31751" lon="5.4272">
        <ele>183.40039</ele>
        <time>2026-05-15T13:38:46+02:00</time>
      </trkpt>
      <trkpt lat="47.31754" lon="5.42715">
        <ele>183.2002</ele>
        <time>2026-05-15T13:38:47+02:00</time>
      </trkpt>
      <trkpt lat="47.31757" lon="5.4271">
        <ele>183.2002</ele>
        <time>2026-05-15T13:38:48+02:00</time>
      </trkpt>
      <trkpt lat="47.31761" lon="5.42705">
        <ele>183.2002</ele>
        <time>2026-05-15T13:38:49+02:00</time>
      </trkpt>
      <trkpt lat="47.31765" lon="5.42699">
        <ele>182.90039</ele>
        <time>2026-05-15T13:38:50+02:00</time>
      </trkpt>
      <trkpt lat="47.31768" lon="5.42694">
        <ele>183.2002</ele>
        <time>2026-05-15T13:38:51+02:00</time>
      </trkpt>
      <trkpt lat="47.31772" lon="5.42689">
        <ele>183.10059</ele>
        <time>2026-05-15T13:38:52+02:00</time>
      </trkpt>
      <trkpt lat="47.31775" lon="5.42683">
        <ele>183.10059</ele>
        <time>2026-05-15T13:38:53+02:00</time>
      </trkpt>
      <trkpt lat="47.31779" lon="5.42678">
        <ele>183</ele>
        <time>2026-05-15T13:38:54+02:00</time>
      </trkpt>
      <trkpt lat="47.31783" lon="5.42672">
        <ele>183</ele>
        <time>2026-05-15T13:38:55+02:00</time>
      </trkpt>
      <trkpt lat="47.31786" lon="5.42666">
        <ele>183</ele>
        <time>2026-05-15T13:38:56+02:00</time>
      </trkpt>
      <trkpt lat="47.3179" lon="5.42661">
        <ele>183</ele>
        <time>2026-05-15T13:38:57+02:00</time>
      </trkpt>
      <trkpt lat="47.31794" lon="5.42655">
        <ele>182.90039</ele>
        <time>2026-05-15T13:38:58+02:00</time>
      </trkpt>
      <trkpt lat="47.31798" lon="5.4265">
        <ele>182.90039</ele>
        <time>2026-05-15T13:38:59+02:00</time>
      </trkpt>
      <trkpt lat="47.31801" lon="5.42644">
        <ele>182.7998</ele>
        <time>2026-05-15T13:39:00+02:00</time>
      </trkpt>
      <trkpt lat="47.31805" lon="5.42638">
        <ele>183</ele>
        <time>2026-05-15T13:39:01+02:00</time>
      </trkpt>
      <trkpt lat="47.31809" lon="5.42633">
        <ele>182.7998</ele>
        <time>2026-05-15T13:39:02+02:00</time>
      </trkpt>
      <trkpt lat="47.31812" lon="5.42627">
        <ele>182.90039</ele>
        <time>2026-05-15T13:39:03+02:00</time>
      </trkpt>
      <trkpt lat="47.31816" lon="5.42622">
        <ele>182.90039</ele>
        <time>2026-05-15T13:39:04+02:00</time>
      </trkpt>
      <trkpt lat="47.3182" lon="5.42617">
        <ele>182.7998</ele>
        <time>2026-05-15T13:39:05+02:00</time>
      </trkpt>
      <trkpt lat="47.31823" lon="5.42612">
        <ele>182.7002</ele>
        <time>2026-05-15T13:39:06+02:00</time>
      </trkpt>
      <trkpt lat="47.31827" lon="5.42606">
        <ele>182.7002</ele>
        <time>2026-05-15T13:39:07+02:00</time>
      </trkpt>
      <trkpt lat="47.31831" lon="5.42601">
        <ele>182.7998</ele>
        <time>2026-05-15T13:39:08+02:00</time>
      </trkpt>
      <trkpt lat="47.31835" lon="5.42597">
        <ele>182.60059</ele>
        <time>2026-05-15T13:39:09+02:00</time>
      </trkpt>
      <trkpt lat="47.31839" lon="5.42592">
        <ele>182.7998</ele>
        <time>2026-05-15T13:39:10+02:00</time>
      </trkpt>
      <trkpt lat="47.31843" lon="5.42587">
        <ele>182.7998</ele>
        <time>2026-05-15T13:39:11+02:00</time>
      </trkpt>
      <trkpt lat="47.31846" lon="5.42583">
        <ele>182.7998</ele>
        <time>2026-05-15T13:39:12+02:00</time>
      </trkpt>
      <trkpt lat="47.31851" lon="5.42579">
        <ele>182.5</ele>
        <time>2026-05-15T13:39:13+02:00</time>
      </trkpt>
      <trkpt lat="47.31855" lon="5.42575">
        <ele>182.5</ele>
        <time>2026-05-15T13:39:14+02:00</time>
      </trkpt>
      <trkpt lat="47.31859" lon="5.42573">
        <ele>182.2998</ele>
        <time>2026-05-15T13:39:15+02:00</time>
      </trkpt>
      <trkpt lat="47.31864" lon="5.4257">
        <ele>182.40039</ele>
        <time>2026-05-15T13:39:16+02:00</time>
      </trkpt>
      <trkpt lat="47.31869" lon="5.42567">
        <ele>182.40039</ele>
        <time>2026-05-15T13:39:17+02:00</time>
      </trkpt>
      <trkpt lat="47.31874" lon="5.42565">
        <ele>182.2998</ele>
        <time>2026-05-15T13:39:18+02:00</time>
      </trkpt>
      <trkpt lat="47.31879" lon="5.42563">
        <ele>182.2002</ele>
        <time>2026-05-15T13:39:19+02:00</time>
      </trkpt>
      <trkpt lat="47.31884" lon="5.42561">
        <ele>182.2002</ele>
        <time>2026-05-15T13:39:20+02:00</time>
      </trkpt>
      <trkpt lat="47.31889" lon="5.4256">
        <ele>182.2002</ele>
        <time>2026-05-15T13:39:21+02:00</time>
      </trkpt>
      <trkpt lat="47.31895" lon="5.42559">
        <ele>182.2002</ele>
        <time>2026-05-15T13:39:22+02:00</time>
      </trkpt>
      <trkpt lat="47.319" lon="5.42558">
        <ele>182.2002</ele>
        <time>2026-05-15T13:39:23+02:00</time>
      </trkpt>
      <trkpt lat="47.31905" lon="5.42558">
        <ele>182.2002</ele>
        <time>2026-05-15T13:39:24+02:00</time>
      </trkpt>
      <trkpt lat="47.3191" lon="5.42558">
        <ele>182.2002</ele>
        <time>2026-05-15T13:39:25+02:00</time>
      </trkpt>
      <trkpt lat="47.31916" lon="5.42558">
        <ele>182.2002</ele>
        <time>2026-05-15T13:39:26+02:00</time>
      </trkpt>
      <trkpt lat="47.31921" lon="5.42559">
        <ele>182.2002</ele>
        <time>2026-05-15T13:39:27+02:00</time>
      </trkpt>
      <trkpt lat="47.31926" lon="5.42559">
        <ele>182.2002</ele>
        <time>2026-05-15T13:39:28+02:00</time>
      </trkpt>
      <trkpt lat="47.31931" lon="5.4256">
        <ele>182.2002</ele>
        <time>2026-05-15T13:39:29+02:00</time>
      </trkpt>
      <trkpt lat="47.31937" lon="5.4256">
        <ele>182.2002</ele>
        <time>2026-05-15T13:39:30+02:00</time>
      </trkpt>
      <trkpt lat="47.31942" lon="5.42561">
        <ele>182.2002</ele>
        <time>2026-05-15T13:39:31+02:00</time>
      </trkpt>
      <trkpt lat="47.31947" lon="5.42561">
        <ele>182.2002</ele>
        <time>2026-05-15T13:39:32+02:00</time>
      </trkpt>
      <trkpt lat="47.31953" lon="5.42561">
        <ele>182.2002</ele>
        <time>2026-05-15T13:39:33+02:00</time>
      </trkpt>
      <trkpt lat="47.31959" lon="5.42562">
        <ele>182.2998</ele>
        <time>2026-05-15T13:39:34+02:00</time>
      </trkpt>
      <trkpt lat="47.31964" lon="5.42562">
        <ele>182.2998</ele>
        <time>2026-05-15T13:39:35+02:00</time>
      </trkpt>
      <trkpt lat="47.3197" lon="5.42561">
        <ele>182.2002</ele>
        <time>2026-05-15T13:39:36+02:00</time>
      </trkpt>
      <trkpt lat="47.31975" lon="5.42561">
        <ele>182.2998</ele>
        <time>2026-05-15T13:39:37+02:00</time>
      </trkpt>
      <trkpt lat="47.31981" lon="5.4256">
        <ele>182.2998</ele>
        <time>2026-05-15T13:39:38+02:00</time>
      </trkpt>
      <trkpt lat="47.31987" lon="5.4256">
        <ele>182.2998</ele>
        <time>2026-05-15T13:39:39+02:00</time>
      </trkpt>
      <trkpt lat="47.31992" lon="5.42561">
        <ele>182.2998</ele>
        <time>2026-05-15T13:39:40+02:00</time>
      </trkpt>
      <trkpt lat="47.31999" lon="5.42562">
        <ele>182.2998</ele>
        <time>2026-05-15T13:39:41+02:00</time>
      </trkpt>
      <trkpt lat="47.32004" lon="5.42562">
        <ele>182.2998</ele>
        <time>2026-05-15T13:39:42+02:00</time>
      </trkpt>
      <trkpt lat="47.32009" lon="5.42563">
        <ele>182.2998</ele>
        <time>2026-05-15T13:39:43+02:00</time>
      </trkpt>
      <trkpt lat="47.32015" lon="5.42564">
        <ele>182.2998</ele>
        <time>2026-05-15T13:39:44+02:00</time>
      </trkpt>
      <trkpt lat="47.3202" lon="5.42565">
        <ele>182.2998</ele>
        <time>2026-05-15T13:39:45+02:00</time>
      </trkpt>
      <trkpt lat="47.32026" lon="5.42566">
        <ele>182.2998</ele>
        <time>2026-05-15T13:39:46+02:00</time>
      </trkpt>
      <trkpt lat="47.32032" lon="5.42567">
        <ele>182.2998</ele>
        <time>2026-05-15T13:39:47+02:00</time>
      </trkpt>
      <trkpt lat="47.32037" lon="5.42569">
        <ele>182.2998</ele>
        <time>2026-05-15T13:39:48+02:00</time>
      </trkpt>
      <trkpt lat="47.32043" lon="5.4257">
        <ele>182.2998</ele>
        <time>2026-05-15T13:39:49+02:00</time>
      </trkpt>
      <trkpt lat="47.32049" lon="5.42572">
        <ele>182.2998</ele>
        <time>2026-05-15T13:39:50+02:00</time>
      </trkpt>
      <trkpt lat="47.32054" lon="5.42573">
        <ele>182.2998</ele>
        <time>2026-05-15T13:39:51+02:00</time>
      </trkpt>
      <trkpt lat="47.32059" lon="5.42574">
        <ele>182.2998</ele>
        <time>2026-05-15T13:39:52+02:00</time>
      </trkpt>
      <trkpt lat="47.32064" lon="5.42576">
        <ele>182.2998</ele>
        <time>2026-05-15T13:39:53+02:00</time>
      </trkpt>
      <trkpt lat="47.3207" lon="5.42577">
        <ele>182.2998</ele>
        <time>2026-05-15T13:39:54+02:00</time>
      </trkpt>
      <trkpt lat="47.32075" lon="5.42579">
        <ele>182.2998</ele>
        <time>2026-05-15T13:39:55+02:00</time>
      </trkpt>
      <trkpt lat="47.3208" lon="5.42581">
        <ele>182.2998</ele>
        <time>2026-05-15T13:39:56+02:00</time>
      </trkpt>
      <trkpt lat="47.32086" lon="5.42583">
        <ele>182.2998</ele>
        <time>2026-05-15T13:39:57+02:00</time>
      </trkpt>
      <trkpt lat="47.32091" lon="5.42585">
        <ele>182.2998</ele>
        <time>2026-05-15T13:39:58+02:00</time>
      </trkpt>
      <trkpt lat="47.32097" lon="5.42587">
        <ele>182.2998</ele>
        <time>2026-05-15T13:39:59+02:00</time>
      </trkpt>
      <trkpt lat="47.32102" lon="5.42589">
        <ele>182.2998</ele>
        <time>2026-05-15T13:40:00+02:00</time>
      </trkpt>
      <trkpt lat="47.32107" lon="5.42591">
        <ele>182.2998</ele>
        <time>2026-05-15T13:40:01+02:00</time>
      </trkpt>
      <trkpt lat="47.32113" lon="5.42594">
        <ele>182.2998</ele>
        <time>2026-05-15T13:40:02+02:00</time>
      </trkpt>
      <trkpt lat="47.32118" lon="5.42596">
        <ele>182.2998</ele>
        <time>2026-05-15T13:40:03+02:00</time>
      </trkpt>
      <trkpt lat="47.32124" lon="5.42598">
        <ele>182.2998</ele>
        <time>2026-05-15T13:40:04+02:00</time>
      </trkpt>
      <trkpt lat="47.32139" lon="5.42607">
        <ele>182.2998</ele>
        <time>2026-05-15T13:40:05+02:00</time>
      </trkpt>
      <trkpt lat="47.32144" lon="5.42611">
        <ele>182.2998</ele>
        <time>2026-05-15T13:40:06+02:00</time>
      </trkpt>
      <trkpt lat="47.32149" lon="5.42615">
        <ele>182.2998</ele>
        <time>2026-05-15T13:40:07+02:00</time>
      </trkpt>
      <trkpt lat="47.32154" lon="5.42618">
        <ele>182.2998</ele>
        <time>2026-05-15T13:40:08+02:00</time>
      </trkpt>
      <trkpt lat="47.32158" lon="5.42622">
        <ele>182.2998</ele>
        <time>2026-05-15T13:40:09+02:00</time>
      </trkpt>
      <trkpt lat="47.32163" lon="5.42626">
        <ele>182.2998</ele>
        <time>2026-05-15T13:40:10+02:00</time>
      </trkpt>
      <trkpt lat="47.32168" lon="5.42631">
        <ele>182.2998</ele>
        <time>2026-05-15T13:40:11+02:00</time>
      </trkpt>
      <trkpt lat="47.32173" lon="5.42636">
        <ele>182.2998</ele>
        <time>2026-05-15T13:40:12+02:00</time>
      </trkpt>
      <trkpt lat="47.32177" lon="5.42641">
        <ele>182.2998</ele>
        <time>2026-05-15T13:40:13+02:00</time>
      </trkpt>
      <trkpt lat="47.32181" lon="5.42647">
        <ele>182.2998</ele>
        <time>2026-05-15T13:40:14+02:00</time>
      </trkpt>
      <trkpt lat="47.32185" lon="5.42653">
        <ele>182.2998</ele>
        <time>2026-05-15T13:40:15+02:00</time>
      </trkpt>
      <trkpt lat="47.3219" lon="5.42658">
        <ele>182.2998</ele>
        <time>2026-05-15T13:40:16+02:00</time>
      </trkpt>
      <trkpt lat="47.32194" lon="5.42665">
        <ele>182.2998</ele>
        <time>2026-05-15T13:40:17+02:00</time>
      </trkpt>
      <trkpt lat="47.32197" lon="5.42671">
        <ele>182.2998</ele>
        <time>2026-05-15T13:40:18+02:00</time>
      </trkpt>
      <trkpt lat="47.322" lon="5.42678">
        <ele>182.2998</ele>
        <time>2026-05-15T13:40:19+02:00</time>
      </trkpt>
      <trkpt lat="47.32203" lon="5.42685">
        <ele>182.2998</ele>
        <time>2026-05-15T13:40:20+02:00</time>
      </trkpt>
      <trkpt lat="47.32207" lon="5.42691">
        <ele>182.2998</ele>
        <time>2026-05-15T13:40:21+02:00</time>
      </trkpt>
      <trkpt lat="47.32211" lon="5.42697">
        <ele>182.2998</ele>
        <time>2026-05-15T13:40:22+02:00</time>
      </trkpt>
      <trkpt lat="47.32214" lon="5.42703">
        <ele>182.2998</ele>
        <time>2026-05-15T13:40:23+02:00</time>
      </trkpt>
      <trkpt lat="47.32218" lon="5.42709">
        <ele>182.2998</ele>
        <time>2026-05-15T13:40:24+02:00</time>
      </trkpt>
      <trkpt lat="47.32222" lon="5.42715">
        <ele>182.2998</ele>
        <time>2026-05-15T13:40:25+02:00</time>
      </trkpt>
      <trkpt lat="47.32226" lon="5.42721">
        <ele>182.2998</ele>
        <time>2026-05-15T13:40:26+02:00</time>
      </trkpt>
      <trkpt lat="47.32229" lon="5.42727">
        <ele>182.2998</ele>
        <time>2026-05-15T13:40:27+02:00</time>
      </trkpt>
      <trkpt lat="47.32233" lon="5.42733">
        <ele>182.2998</ele>
        <time>2026-05-15T13:40:28+02:00</time>
      </trkpt>
      <trkpt lat="47.32237" lon="5.42739">
        <ele>182.2998</ele>
        <time>2026-05-15T13:40:29+02:00</time>
      </trkpt>
      <trkpt lat="47.3224" lon="5.42746">
        <ele>182.2998</ele>
        <time>2026-05-15T13:40:30+02:00</time>
      </trkpt>
      <trkpt lat="47.32243" lon="5.42753">
        <ele>182.2998</ele>
        <time>2026-05-15T13:40:31+02:00</time>
      </trkpt>
      <trkpt lat="47.32245" lon="5.42761">
        <ele>182.2998</ele>
        <time>2026-05-15T13:40:32+02:00</time>
      </trkpt>
      <trkpt lat="47.32248" lon="5.42768">
        <ele>182.2998</ele>
        <time>2026-05-15T13:40:33+02:00</time>
      </trkpt>
      <trkpt lat="47.3225" lon="5.42775">
        <ele>182.2998</ele>
        <time>2026-05-15T13:40:34+02:00</time>
      </trkpt>
      <trkpt lat="47.32253" lon="5.42782">
        <ele>182.2998</ele>
        <time>2026-05-15T13:40:35+02:00</time>
      </trkpt>
      <trkpt lat="47.32256" lon="5.42789">
        <ele>182.2998</ele>
        <time>2026-05-15T13:40:36+02:00</time>
      </trkpt>
      <trkpt lat="47.32259" lon="5.42795">
        <ele>182.2998</ele>
        <time>2026-05-15T13:40:37+02:00</time>
      </trkpt>
      <trkpt lat="47.32261" lon="5.42803">
        <ele>182.2998</ele>
        <time>2026-05-15T13:40:38+02:00</time>
      </trkpt>
      <trkpt lat="47.32264" lon="5.4281">
        <ele>182.2998</ele>
        <time>2026-05-15T13:40:39+02:00</time>
      </trkpt>
      <trkpt lat="47.32266" lon="5.42818">
        <ele>182.2998</ele>
        <time>2026-05-15T13:40:40+02:00</time>
      </trkpt>
      <trkpt lat="47.32268" lon="5.42826">
        <ele>182.2998</ele>
        <time>2026-05-15T13:40:41+02:00</time>
      </trkpt>
      <trkpt lat="47.3227" lon="5.42833">
        <ele>182.2998</ele>
        <time>2026-05-15T13:40:42+02:00</time>
      </trkpt>
      <trkpt lat="47.32272" lon="5.42841">
        <ele>182.2998</ele>
        <time>2026-05-15T13:40:43+02:00</time>
      </trkpt>
      <trkpt lat="47.32273" lon="5.42848">
        <ele>182.2998</ele>
        <time>2026-05-15T13:40:44+02:00</time>
      </trkpt>
      <trkpt lat="47.32274" lon="5.42855">
        <ele>182.2998</ele>
        <time>2026-05-15T13:40:45+02:00</time>
      </trkpt>
      <trkpt lat="47.32275" lon="5.42863">
        <ele>182.2998</ele>
        <time>2026-05-15T13:40:46+02:00</time>
      </trkpt>
      <trkpt lat="47.32276" lon="5.4287">
        <ele>182.2998</ele>
        <time>2026-05-15T13:40:47+02:00</time>
      </trkpt>
      <trkpt lat="47.32276" lon="5.42877">
        <ele>182.2998</ele>
        <time>2026-05-15T13:40:48+02:00</time>
      </trkpt>
      <trkpt lat="47.32277" lon="5.42885">
        <ele>182.40039</ele>
        <time>2026-05-15T13:40:49+02:00</time>
      </trkpt>
      <trkpt lat="47.32278" lon="5.42892">
        <ele>182.40039</ele>
        <time>2026-05-15T13:40:50+02:00</time>
      </trkpt>
      <trkpt lat="47.32279" lon="5.429">
        <ele>182.40039</ele>
        <time>2026-05-15T13:40:51+02:00</time>
      </trkpt>
      <trkpt lat="47.32279" lon="5.42907">
        <ele>182.40039</ele>
        <time>2026-05-15T13:40:52+02:00</time>
      </trkpt>
      <trkpt lat="47.3228" lon="5.42915">
        <ele>182.40039</ele>
        <time>2026-05-15T13:40:53+02:00</time>
      </trkpt>
      <trkpt lat="47.3228" lon="5.42923">
        <ele>182.40039</ele>
        <time>2026-05-15T13:40:54+02:00</time>
      </trkpt>
      <trkpt lat="47.32281" lon="5.42931">
        <ele>182.2998</ele>
        <time>2026-05-15T13:40:55+02:00</time>
      </trkpt>
      <trkpt lat="47.32282" lon="5.42939">
        <ele>182.2998</ele>
        <time>2026-05-15T13:40:56+02:00</time>
      </trkpt>
      <trkpt lat="47.32283" lon="5.42947">
        <ele>182.2998</ele>
        <time>2026-05-15T13:40:57+02:00</time>
      </trkpt>
      <trkpt lat="47.32283" lon="5.42956">
        <ele>182.2998</ele>
        <time>2026-05-15T13:40:58+02:00</time>
      </trkpt>
      <trkpt lat="47.32284" lon="5.42964">
        <ele>182.2998</ele>
        <time>2026-05-15T13:40:59+02:00</time>
      </trkpt>
      <trkpt lat="47.32285" lon="5.42972">
        <ele>182.2998</ele>
        <time>2026-05-15T13:41:00+02:00</time>
      </trkpt>
      <trkpt lat="47.32285" lon="5.4298">
        <ele>182.2998</ele>
        <time>2026-05-15T13:41:01+02:00</time>
      </trkpt>
      <trkpt lat="47.32285" lon="5.42989">
        <ele>182.2998</ele>
        <time>2026-05-15T13:41:02+02:00</time>
      </trkpt>
      <trkpt lat="47.32286" lon="5.42997">
        <ele>182.2998</ele>
        <time>2026-05-15T13:41:03+02:00</time>
      </trkpt>
      <trkpt lat="47.32287" lon="5.43005">
        <ele>182.2998</ele>
        <time>2026-05-15T13:41:04+02:00</time>
      </trkpt>
      <trkpt lat="47.32287" lon="5.43014">
        <ele>182.2998</ele>
        <time>2026-05-15T13:41:05+02:00</time>
      </trkpt>
      <trkpt lat="47.32287" lon="5.43022">
        <ele>182.2998</ele>
        <time>2026-05-15T13:41:06+02:00</time>
      </trkpt>
      <trkpt lat="47.32288" lon="5.4303">
        <ele>182.2998</ele>
        <time>2026-05-15T13:41:07+02:00</time>
      </trkpt>
      <trkpt lat="47.32289" lon="5.43038">
        <ele>182.2998</ele>
        <time>2026-05-15T13:41:08+02:00</time>
      </trkpt>
      <trkpt lat="47.3229" lon="5.43047">
        <ele>182.2998</ele>
        <time>2026-05-15T13:41:09+02:00</time>
      </trkpt>
      <trkpt lat="47.3229" lon="5.43055">
        <ele>182.40039</ele>
        <time>2026-05-15T13:41:10+02:00</time>
      </trkpt>
      <trkpt lat="47.32292" lon="5.43064">
        <ele>182.5</ele>
        <time>2026-05-15T13:41:11+02:00</time>
      </trkpt>
      <trkpt lat="47.32293" lon="5.43072">
        <ele>182.5</ele>
        <time>2026-05-15T13:41:12+02:00</time>
      </trkpt>
      <trkpt lat="47.32294" lon="5.4308">
        <ele>182.7002</ele>
        <time>2026-05-15T13:41:13+02:00</time>
      </trkpt>
      <trkpt lat="47.32295" lon="5.43088">
        <ele>183.5</ele>
        <time>2026-05-15T13:41:14+02:00</time>
      </trkpt>
      <trkpt lat="47.32296" lon="5.43095">
        <ele>184</ele>
        <time>2026-05-15T13:41:15+02:00</time>
      </trkpt>
      <trkpt lat="47.32297" lon="5.43103">
        <ele>184.40039</ele>
        <time>2026-05-15T13:41:16+02:00</time>
      </trkpt>
      <trkpt lat="47.32298" lon="5.43109">
        <ele>184.40039</ele>
        <time>2026-05-15T13:41:17+02:00</time>
      </trkpt>
      <trkpt lat="47.32299" lon="5.43116">
        <ele>185</ele>
        <time>2026-05-15T13:41:18+02:00</time>
      </trkpt>
      <trkpt lat="47.323" lon="5.43122">
        <ele>185.90039</ele>
        <time>2026-05-15T13:41:19+02:00</time>
      </trkpt>
      <trkpt lat="47.32301" lon="5.43128">
        <ele>186.40039</ele>
        <time>2026-05-15T13:41:20+02:00</time>
      </trkpt>
      <trkpt lat="47.32301" lon="5.43134">
        <ele>186.40039</ele>
        <time>2026-05-15T13:41:21+02:00</time>
      </trkpt>
      <trkpt lat="47.32303" lon="5.4314">
        <ele>186.90039</ele>
        <time>2026-05-15T13:41:22+02:00</time>
      </trkpt>
      <trkpt lat="47.32304" lon="5.43146">
        <ele>187.10059</ele>
        <time>2026-05-15T13:41:23+02:00</time>
      </trkpt>
      <trkpt lat="47.32305" lon="5.43151">
        <ele>187.10059</ele>
        <time>2026-05-15T13:41:24+02:00</time>
      </trkpt>
      <trkpt lat="47.32306" lon="5.43157">
        <ele>187.2002</ele>
        <time>2026-05-15T13:41:25+02:00</time>
      </trkpt>
      <trkpt lat="47.32308" lon="5.43162">
        <ele>187.2002</ele>
        <time>2026-05-15T13:41:26+02:00</time>
      </trkpt>
      <trkpt lat="47.32309" lon="5.43168">
        <ele>187.2002</ele>
        <time>2026-05-15T13:41:27+02:00</time>
      </trkpt>
      <trkpt lat="47.3231" lon="5.43174">
        <ele>187.2998</ele>
        <time>2026-05-15T13:41:28+02:00</time>
      </trkpt>
      <trkpt lat="47.32312" lon="5.43179">
        <ele>187.2998</ele>
        <time>2026-05-15T13:41:29+02:00</time>
      </trkpt>
      <trkpt lat="47.32313" lon="5.43184">
        <ele>187.2998</ele>
        <time>2026-05-15T13:41:30+02:00</time>
      </trkpt>
      <trkpt lat="47.32314" lon="5.43189">
        <ele>187.2998</ele>
        <time>2026-05-15T13:41:31+02:00</time>
      </trkpt>
      <trkpt lat="47.32315" lon="5.43194">
        <ele>187.2998</ele>
        <time>2026-05-15T13:41:32+02:00</time>
      </trkpt>
      <trkpt lat="47.32316" lon="5.43198">
        <ele>187.2998</ele>
        <time>2026-05-15T13:41:33+02:00</time>
      </trkpt>
      <trkpt lat="47.32316" lon="5.43202">
        <ele>187.2998</ele>
        <time>2026-05-15T13:41:34+02:00</time>
      </trkpt>
      <trkpt lat="47.32317" lon="5.43207">
        <ele>187.2998</ele>
        <time>2026-05-15T13:41:35+02:00</time>
      </trkpt>
      <trkpt lat="47.32318" lon="5.43211">
        <ele>187.2998</ele>
        <time>2026-05-15T13:41:36+02:00</time>
      </trkpt>
      <trkpt lat="47.32318" lon="5.43215">
        <ele>187.2998</ele>
        <time>2026-05-15T13:41:37+02:00</time>
      </trkpt>
      <trkpt lat="47.32319" lon="5.43219">
        <ele>187.2998</ele>
        <time>2026-05-15T13:41:38+02:00</time>
      </trkpt>
      <trkpt lat="47.32319" lon="5.43223">
        <ele>187.2998</ele>
        <time>2026-05-15T13:41:39+02:00</time>
      </trkpt>
      <trkpt lat="47.3232" lon="5.43227">
        <ele>187.2998</ele>
        <time>2026-05-15T13:41:40+02:00</time>
      </trkpt>
      <trkpt lat="47.3232" lon="5.43231">
        <ele>187.2998</ele>
        <time>2026-05-15T13:41:41+02:00</time>
      </trkpt>
      <trkpt lat="47.32321" lon="5.43234">
        <ele>187.2998</ele>
        <time>2026-05-15T13:41:42+02:00</time>
      </trkpt>
      <trkpt lat="47.32321" lon="5.43238">
        <ele>187.2998</ele>
        <time>2026-05-15T13:41:43+02:00</time>
      </trkpt>
      <trkpt lat="47.32322" lon="5.43241">
        <ele>187.2998</ele>
        <time>2026-05-15T13:41:44+02:00</time>
      </trkpt>
      <trkpt lat="47.32322" lon="5.43244">
        <ele>187.2998</ele>
        <time>2026-05-15T13:41:45+02:00</time>
      </trkpt>
      <trkpt lat="47.32323" lon="5.43248">
        <ele>187.2998</ele>
        <time>2026-05-15T13:41:46+02:00</time>
      </trkpt>
      <trkpt lat="47.32323" lon="5.43252">
        <ele>187.2998</ele>
        <time>2026-05-15T13:41:47+02:00</time>
      </trkpt>
      <trkpt lat="47.32324" lon="5.43257">
        <ele>187.40039</ele>
        <time>2026-05-15T13:41:48+02:00</time>
      </trkpt>
      <trkpt lat="47.32325" lon="5.43263">
        <ele>187.40039</ele>
        <time>2026-05-15T13:41:49+02:00</time>
      </trkpt>
      <trkpt lat="47.32325" lon="5.4327">
        <ele>187.40039</ele>
        <time>2026-05-15T13:41:50+02:00</time>
      </trkpt>
      <trkpt lat="47.32326" lon="5.43278">
        <ele>187.5</ele>
        <time>2026-05-15T13:41:51+02:00</time>
      </trkpt>
      <trkpt lat="47.32327" lon="5.43286">
        <ele>187.5</ele>
        <time>2026-05-15T13:41:52+02:00</time>
      </trkpt>
      <trkpt lat="47.32328" lon="5.43294">
        <ele>187.60059</ele>
        <time>2026-05-15T13:41:53+02:00</time>
      </trkpt>
      <trkpt lat="47.32329" lon="5.43303">
        <ele>187.7002</ele>
        <time>2026-05-15T13:41:54+02:00</time>
      </trkpt>
      <trkpt lat="47.32331" lon="5.43311">
        <ele>187.7998</ele>
        <time>2026-05-15T13:41:55+02:00</time>
      </trkpt>
      <trkpt lat="47.32333" lon="5.43319">
        <ele>187.7998</ele>
        <time>2026-05-15T13:41:56+02:00</time>
      </trkpt>
      <trkpt lat="47.32334" lon="5.43327">
        <ele>187.7998</ele>
        <time>2026-05-15T13:41:57+02:00</time>
      </trkpt>
      <trkpt lat="47.32336" lon="5.43334">
        <ele>187.7998</ele>
        <time>2026-05-15T13:41:58+02:00</time>
      </trkpt>
      <trkpt lat="47.32337" lon="5.43341">
        <ele>187.90039</ele>
        <time>2026-05-15T13:41:59+02:00</time>
      </trkpt>
      <trkpt lat="47.32339" lon="5.43347">
        <ele>187.90039</ele>
        <time>2026-05-15T13:42:00+02:00</time>
      </trkpt>
      <trkpt lat="47.3234" lon="5.43353">
        <ele>187.90039</ele>
        <time>2026-05-15T13:42:01+02:00</time>
      </trkpt>
      <trkpt lat="47.32342" lon="5.43359">
        <ele>187.90039</ele>
        <time>2026-05-15T13:42:02+02:00</time>
      </trkpt>
      <trkpt lat="47.32343" lon="5.43365">
        <ele>188</ele>
        <time>2026-05-15T13:42:03+02:00</time>
      </trkpt>
      <trkpt lat="47.32345" lon="5.4337">
        <ele>188</ele>
        <time>2026-05-15T13:42:04+02:00</time>
      </trkpt>
      <trkpt lat="47.32348" lon="5.43375">
        <ele>188.10059</ele>
        <time>2026-05-15T13:42:05+02:00</time>
      </trkpt>
      <trkpt lat="47.3235" lon="5.43379">
        <ele>188.10059</ele>
        <time>2026-05-15T13:42:06+02:00</time>
      </trkpt>
      <trkpt lat="47.32353" lon="5.43383">
        <ele>188.2002</ele>
        <time>2026-05-15T13:42:07+02:00</time>
      </trkpt>
      <trkpt lat="47.32356" lon="5.43387">
        <ele>188.2998</ele>
        <time>2026-05-15T13:42:08+02:00</time>
      </trkpt>
      <trkpt lat="47.32358" lon="5.4339">
        <ele>188.5</ele>
        <time>2026-05-15T13:42:09+02:00</time>
      </trkpt>
      <trkpt lat="47.32361" lon="5.43392">
        <ele>188.5</ele>
        <time>2026-05-15T13:42:10+02:00</time>
      </trkpt>
      <trkpt lat="47.32362" lon="5.43394">
        <ele>188.5</ele>
        <time>2026-05-15T13:42:11+02:00</time>
      </trkpt>
      <trkpt lat="47.32364" lon="5.43397">
        <ele>188.60059</ele>
        <time>2026-05-15T13:42:12+02:00</time>
      </trkpt>
      <trkpt lat="47.32365" lon="5.434">
        <ele>188.60059</ele>
        <time>2026-05-15T13:42:13+02:00</time>
      </trkpt>
      <trkpt lat="47.32365" lon="5.43402">
        <ele>188.60059</ele>
        <time>2026-05-15T13:42:14+02:00</time>
      </trkpt>
      <trkpt lat="47.32365" lon="5.43406">
        <ele>188.7002</ele>
        <time>2026-05-15T13:42:15+02:00</time>
      </trkpt>
      <trkpt lat="47.32366" lon="5.4341">
        <ele>188.7002</ele>
        <time>2026-05-15T13:42:16+02:00</time>
      </trkpt>
      <trkpt lat="47.32366" lon="5.43414">
        <ele>188.7002</ele>
        <time>2026-05-15T13:42:17+02:00</time>
      </trkpt>
      <trkpt lat="47.32366" lon="5.43419">
        <ele>188.7002</ele>
        <time>2026-05-15T13:42:18+02:00</time>
      </trkpt>
      <trkpt lat="47.32367" lon="5.43423">
        <ele>188.7002</ele>
        <time>2026-05-15T13:42:19+02:00</time>
      </trkpt>
      <trkpt lat="47.32368" lon="5.43428">
        <ele>188.7002</ele>
        <time>2026-05-15T13:42:20+02:00</time>
      </trkpt>
      <trkpt lat="47.32369" lon="5.43432">
        <ele>188.60059</ele>
        <time>2026-05-15T13:42:21+02:00</time>
      </trkpt>
      <trkpt lat="47.32369" lon="5.43437">
        <ele>188.60059</ele>
        <time>2026-05-15T13:42:22+02:00</time>
      </trkpt>
      <trkpt lat="47.3237" lon="5.43441">
        <ele>188.7002</ele>
        <time>2026-05-15T13:42:23+02:00</time>
      </trkpt>
      <trkpt lat="47.32371" lon="5.43446">
        <ele>188.60059</ele>
        <time>2026-05-15T13:42:24+02:00</time>
      </trkpt>
      <trkpt lat="47.32371" lon="5.43451">
        <ele>188.60059</ele>
        <time>2026-05-15T13:42:25+02:00</time>
      </trkpt>
      <trkpt lat="47.32372" lon="5.43456">
        <ele>188.60059</ele>
        <time>2026-05-15T13:42:26+02:00</time>
      </trkpt>
      <trkpt lat="47.32372" lon="5.43462">
        <ele>188.60059</ele>
        <time>2026-05-15T13:42:27+02:00</time>
      </trkpt>
      <trkpt lat="47.32371" lon="5.43468">
        <ele>188.60059</ele>
        <time>2026-05-15T13:42:28+02:00</time>
      </trkpt>
      <trkpt lat="47.32369" lon="5.43475">
        <ele>188.5</ele>
        <time>2026-05-15T13:42:29+02:00</time>
      </trkpt>
      <trkpt lat="47.32368" lon="5.43483">
        <ele>188.5</ele>
        <time>2026-05-15T13:42:30+02:00</time>
      </trkpt>
      <trkpt lat="47.32367" lon="5.43492">
        <ele>188.40039</ele>
        <time>2026-05-15T13:42:31+02:00</time>
      </trkpt>
      <trkpt lat="47.32368" lon="5.43501">
        <ele>188.40039</ele>
        <time>2026-05-15T13:42:32+02:00</time>
      </trkpt>
      <trkpt lat="47.32369" lon="5.4351">
        <ele>188.40039</ele>
        <time>2026-05-15T13:42:33+02:00</time>
      </trkpt>
      <trkpt lat="47.3237" lon="5.43519">
        <ele>188.40039</ele>
        <time>2026-05-15T13:42:34+02:00</time>
      </trkpt>
      <trkpt lat="47.32371" lon="5.43528">
        <ele>188.2998</ele>
        <time>2026-05-15T13:42:35+02:00</time>
      </trkpt>
      <trkpt lat="47.32372" lon="5.43538">
        <ele>188.2998</ele>
        <time>2026-05-15T13:42:36+02:00</time>
      </trkpt>
      <trkpt lat="47.32373" lon="5.43548">
        <ele>188.2998</ele>
        <time>2026-05-15T13:42:37+02:00</time>
      </trkpt>
      <trkpt lat="47.32374" lon="5.43558">
        <ele>188.2998</ele>
        <time>2026-05-15T13:42:38+02:00</time>
      </trkpt>
      <trkpt lat="47.32375" lon="5.43568">
        <ele>188.2998</ele>
        <time>2026-05-15T13:42:39+02:00</time>
      </trkpt>
      <trkpt lat="47.32376" lon="5.43578">
        <ele>188.2998</ele>
        <time>2026-05-15T13:42:40+02:00</time>
      </trkpt>
      <trkpt lat="47.32377" lon="5.43588">
        <ele>188.2998</ele>
        <time>2026-05-15T13:42:41+02:00</time>
      </trkpt>
      <trkpt lat="47.32378" lon="5.43597">
        <ele>188.2998</ele>
        <time>2026-05-15T13:42:42+02:00</time>
      </trkpt>
      <trkpt lat="47.32379" lon="5.43606">
        <ele>188.2002</ele>
        <time>2026-05-15T13:42:43+02:00</time>
      </trkpt>
      <trkpt lat="47.3238" lon="5.43615">
        <ele>188.2002</ele>
        <time>2026-05-15T13:42:44+02:00</time>
      </trkpt>
      <trkpt lat="47.32382" lon="5.43624">
        <ele>188</ele>
        <time>2026-05-15T13:42:45+02:00</time>
      </trkpt>
      <trkpt lat="47.32383" lon="5.43633">
        <ele>187.90039</ele>
        <time>2026-05-15T13:42:46+02:00</time>
      </trkpt>
      <trkpt lat="47.32385" lon="5.43641">
        <ele>187.90039</ele>
        <time>2026-05-15T13:42:47+02:00</time>
      </trkpt>
      <trkpt lat="47.32387" lon="5.43649">
        <ele>187.7998</ele>
        <time>2026-05-15T13:42:48+02:00</time>
      </trkpt>
      <trkpt lat="47.32388" lon="5.43657">
        <ele>187.7002</ele>
        <time>2026-05-15T13:42:49+02:00</time>
      </trkpt>
      <trkpt lat="47.32389" lon="5.43665">
        <ele>187.60059</ele>
        <time>2026-05-15T13:42:50+02:00</time>
      </trkpt>
      <trkpt lat="47.3239" lon="5.43672">
        <ele>187.60059</ele>
        <time>2026-05-15T13:42:51+02:00</time>
      </trkpt>
      <trkpt lat="47.32392" lon="5.43679">
        <ele>187.60059</ele>
        <time>2026-05-15T13:42:52+02:00</time>
      </trkpt>
      <trkpt lat="47.32393" lon="5.43687">
        <ele>187.5</ele>
        <time>2026-05-15T13:42:53+02:00</time>
      </trkpt>
      <trkpt lat="47.32395" lon="5.43694">
        <ele>187.5</ele>
        <time>2026-05-15T13:42:54+02:00</time>
      </trkpt>
      <trkpt lat="47.32396" lon="5.43702">
        <ele>187.5</ele>
        <time>2026-05-15T13:42:55+02:00</time>
      </trkpt>
      <trkpt lat="47.32397" lon="5.4371">
        <ele>187.40039</ele>
        <time>2026-05-15T13:42:56+02:00</time>
      </trkpt>
      <trkpt lat="47.32398" lon="5.43718">
        <ele>187.40039</ele>
        <time>2026-05-15T13:42:57+02:00</time>
      </trkpt>
      <trkpt lat="47.324" lon="5.43726">
        <ele>187.40039</ele>
        <time>2026-05-15T13:42:58+02:00</time>
      </trkpt>
      <trkpt lat="47.32401" lon="5.43734">
        <ele>187.40039</ele>
        <time>2026-05-15T13:42:59+02:00</time>
      </trkpt>
      <trkpt lat="47.32403" lon="5.43743">
        <ele>187.40039</ele>
        <time>2026-05-15T13:43:00+02:00</time>
      </trkpt>
      <trkpt lat="47.32404" lon="5.43751">
        <ele>187.40039</ele>
        <time>2026-05-15T13:43:01+02:00</time>
      </trkpt>
      <trkpt lat="47.32406" lon="5.43758">
        <ele>187.40039</ele>
        <time>2026-05-15T13:43:02+02:00</time>
      </trkpt>
      <trkpt lat="47.32408" lon="5.43765">
        <ele>187.40039</ele>
        <time>2026-05-15T13:43:03+02:00</time>
      </trkpt>
      <trkpt lat="47.32409" lon="5.43773">
        <ele>187.40039</ele>
        <time>2026-05-15T13:43:04+02:00</time>
      </trkpt>
      <trkpt lat="47.32411" lon="5.4378">
        <ele>187.40039</ele>
        <time>2026-05-15T13:43:05+02:00</time>
      </trkpt>
      <trkpt lat="47.32412" lon="5.43787">
        <ele>187.40039</ele>
        <time>2026-05-15T13:43:06+02:00</time>
      </trkpt>
      <trkpt lat="47.32413" lon="5.43794">
        <ele>187.5</ele>
        <time>2026-05-15T13:43:07+02:00</time>
      </trkpt>
      <trkpt lat="47.32415" lon="5.43802">
        <ele>187.5</ele>
        <time>2026-05-15T13:43:08+02:00</time>
      </trkpt>
      <trkpt lat="47.32416" lon="5.4381">
        <ele>187.60059</ele>
        <time>2026-05-15T13:43:09+02:00</time>
      </trkpt>
      <trkpt lat="47.32418" lon="5.43817">
        <ele>187.60059</ele>
        <time>2026-05-15T13:43:10+02:00</time>
      </trkpt>
      <trkpt lat="47.32419" lon="5.43825">
        <ele>187.60059</ele>
        <time>2026-05-15T13:43:11+02:00</time>
      </trkpt>
      <trkpt lat="47.3242" lon="5.43833">
        <ele>187.60059</ele>
        <time>2026-05-15T13:43:12+02:00</time>
      </trkpt>
      <trkpt lat="47.32422" lon="5.43841">
        <ele>187.60059</ele>
        <time>2026-05-15T13:43:13+02:00</time>
      </trkpt>
      <trkpt lat="47.32424" lon="5.43849">
        <ele>187.60059</ele>
        <time>2026-05-15T13:43:14+02:00</time>
      </trkpt>
      <trkpt lat="47.32425" lon="5.43857">
        <ele>187.60059</ele>
        <time>2026-05-15T13:43:15+02:00</time>
      </trkpt>
      <trkpt lat="47.32426" lon="5.43865">
        <ele>187.60059</ele>
        <time>2026-05-15T13:43:16+02:00</time>
      </trkpt>
      <trkpt lat="47.32427" lon="5.43873">
        <ele>187.60059</ele>
        <time>2026-05-15T13:43:17+02:00</time>
      </trkpt>
      <trkpt lat="47.32429" lon="5.43881">
        <ele>187.5</ele>
        <time>2026-05-15T13:43:18+02:00</time>
      </trkpt>
      <trkpt lat="47.3243" lon="5.4389">
        <ele>187.5</ele>
        <time>2026-05-15T13:43:19+02:00</time>
      </trkpt>
      <trkpt lat="47.32432" lon="5.43897">
        <ele>187.5</ele>
        <time>2026-05-15T13:43:20+02:00</time>
      </trkpt>
      <trkpt lat="47.32433" lon="5.43905">
        <ele>187.5</ele>
        <time>2026-05-15T13:43:21+02:00</time>
      </trkpt>
      <trkpt lat="47.32435" lon="5.43912">
        <ele>187.40039</ele>
        <time>2026-05-15T13:43:22+02:00</time>
      </trkpt>
      <trkpt lat="47.32436" lon="5.43921">
        <ele>187.40039</ele>
        <time>2026-05-15T13:43:23+02:00</time>
      </trkpt>
      <trkpt lat="47.32438" lon="5.43929">
        <ele>187.40039</ele>
        <time>2026-05-15T13:43:24+02:00</time>
      </trkpt>
      <trkpt lat="47.3244" lon="5.43937">
        <ele>187.5</ele>
        <time>2026-05-15T13:43:25+02:00</time>
      </trkpt>
      <trkpt lat="47.32441" lon="5.43946">
        <ele>187.7002</ele>
        <time>2026-05-15T13:43:26+02:00</time>
      </trkpt>
      <trkpt lat="47.32443" lon="5.43954">
        <ele>187.7002</ele>
        <time>2026-05-15T13:43:27+02:00</time>
      </trkpt>
      <trkpt lat="47.32444" lon="5.43962">
        <ele>187.7002</ele>
        <time>2026-05-15T13:43:28+02:00</time>
      </trkpt>
      <trkpt lat="47.32446" lon="5.43971">
        <ele>187.60059</ele>
        <time>2026-05-15T13:43:29+02:00</time>
      </trkpt>
      <trkpt lat="47.32447" lon="5.4398">
        <ele>187.60059</ele>
        <time>2026-05-15T13:43:30+02:00</time>
      </trkpt>
      <trkpt lat="47.32448" lon="5.43988">
        <ele>187.60059</ele>
        <time>2026-05-15T13:43:31+02:00</time>
      </trkpt>
      <trkpt lat="47.3245" lon="5.43997">
        <ele>187.60059</ele>
        <time>2026-05-15T13:43:32+02:00</time>
      </trkpt>
      <trkpt lat="47.32452" lon="5.44005">
        <ele>187.40039</ele>
        <time>2026-05-15T13:43:33+02:00</time>
      </trkpt>
      <trkpt lat="47.32453" lon="5.44014">
        <ele>187.40039</ele>
        <time>2026-05-15T13:43:34+02:00</time>
      </trkpt>
      <trkpt lat="47.32455" lon="5.44022">
        <ele>187.40039</ele>
        <time>2026-05-15T13:43:35+02:00</time>
      </trkpt>
      <trkpt lat="47.32456" lon="5.4403">
        <ele>187.40039</ele>
        <time>2026-05-15T13:43:36+02:00</time>
      </trkpt>
      <trkpt lat="47.32458" lon="5.44039">
        <ele>187.2998</ele>
        <time>2026-05-15T13:43:37+02:00</time>
      </trkpt>
      <trkpt lat="47.32459" lon="5.44047">
        <ele>187.2998</ele>
        <time>2026-05-15T13:43:38+02:00</time>
      </trkpt>
      <trkpt lat="47.32461" lon="5.44056">
        <ele>187.2998</ele>
        <time>2026-05-15T13:43:39+02:00</time>
      </trkpt>
      <trkpt lat="47.32462" lon="5.44064">
        <ele>187.2998</ele>
        <time>2026-05-15T13:43:40+02:00</time>
      </trkpt>
      <trkpt lat="47.32463" lon="5.44073">
        <ele>187.2002</ele>
        <time>2026-05-15T13:43:41+02:00</time>
      </trkpt>
      <trkpt lat="47.32464" lon="5.44081">
        <ele>187.2002</ele>
        <time>2026-05-15T13:43:42+02:00</time>
      </trkpt>
      <trkpt lat="47.32466" lon="5.44089">
        <ele>187.2002</ele>
        <time>2026-05-15T13:43:43+02:00</time>
      </trkpt>
      <trkpt lat="47.32467" lon="5.44098">
        <ele>187.10059</ele>
        <time>2026-05-15T13:43:44+02:00</time>
      </trkpt>
      <trkpt lat="47.32469" lon="5.44107">
        <ele>187</ele>
        <time>2026-05-15T13:43:45+02:00</time>
      </trkpt>
      <trkpt lat="47.3247" lon="5.44115">
        <ele>187</ele>
        <time>2026-05-15T13:43:46+02:00</time>
      </trkpt>
      <trkpt lat="47.32471" lon="5.44124">
        <ele>187.10059</ele>
        <time>2026-05-15T13:43:47+02:00</time>
      </trkpt>
      <trkpt lat="47.32472" lon="5.44133">
        <ele>187.10059</ele>
        <time>2026-05-15T13:43:48+02:00</time>
      </trkpt>
      <trkpt lat="47.32474" lon="5.44142">
        <ele>187.10059</ele>
        <time>2026-05-15T13:43:49+02:00</time>
      </trkpt>
      <trkpt lat="47.32475" lon="5.4415">
        <ele>187</ele>
        <time>2026-05-15T13:43:50+02:00</time>
      </trkpt>
      <trkpt lat="47.32476" lon="5.44159">
        <ele>187.10059</ele>
        <time>2026-05-15T13:43:51+02:00</time>
      </trkpt>
      <trkpt lat="47.32478" lon="5.44168">
        <ele>187.2002</ele>
        <time>2026-05-15T13:43:52+02:00</time>
      </trkpt>
      <trkpt lat="47.3248" lon="5.44177">
        <ele>187.2998</ele>
        <time>2026-05-15T13:43:53+02:00</time>
      </trkpt>
      <trkpt lat="47.32481" lon="5.44186">
        <ele>187.2998</ele>
        <time>2026-05-15T13:43:54+02:00</time>
      </trkpt>
      <trkpt lat="47.32482" lon="5.44194">
        <ele>187.40039</ele>
        <time>2026-05-15T13:43:55+02:00</time>
      </trkpt>
      <trkpt lat="47.32484" lon="5.44203">
        <ele>187.40039</ele>
        <time>2026-05-15T13:43:56+02:00</time>
      </trkpt>
      <trkpt lat="47.32485" lon="5.44212">
        <ele>187.40039</ele>
        <time>2026-05-15T13:43:57+02:00</time>
      </trkpt>
      <trkpt lat="47.32487" lon="5.44221">
        <ele>187.40039</ele>
        <time>2026-05-15T13:43:58+02:00</time>
      </trkpt>
      <trkpt lat="47.32489" lon="5.44229">
        <ele>187.40039</ele>
        <time>2026-05-15T13:43:59+02:00</time>
      </trkpt>
      <trkpt lat="47.3249" lon="5.44239">
        <ele>187.5</ele>
        <time>2026-05-15T13:44:00+02:00</time>
      </trkpt>
      <trkpt lat="47.32491" lon="5.44248">
        <ele>187.5</ele>
        <time>2026-05-15T13:44:01+02:00</time>
      </trkpt>
      <trkpt lat="47.32493" lon="5.44257">
        <ele>187.5</ele>
        <time>2026-05-15T13:44:02+02:00</time>
      </trkpt>
      <trkpt lat="47.32495" lon="5.44265">
        <ele>187.60059</ele>
        <time>2026-05-15T13:44:03+02:00</time>
      </trkpt>
      <trkpt lat="47.32496" lon="5.44274">
        <ele>187.60059</ele>
        <time>2026-05-15T13:44:04+02:00</time>
      </trkpt>
      <trkpt lat="47.32499" lon="5.44283">
        <ele>187.60059</ele>
        <time>2026-05-15T13:44:05+02:00</time>
      </trkpt>
      <trkpt lat="47.325" lon="5.44292">
        <ele>187.60059</ele>
        <time>2026-05-15T13:44:06+02:00</time>
      </trkpt>
      <trkpt lat="47.32502" lon="5.44301">
        <ele>187.60059</ele>
        <time>2026-05-15T13:44:07+02:00</time>
      </trkpt>
      <trkpt lat="47.32503" lon="5.44309">
        <ele>187.60059</ele>
        <time>2026-05-15T13:44:08+02:00</time>
      </trkpt>
      <trkpt lat="47.32505" lon="5.44319">
        <ele>187.60059</ele>
        <time>2026-05-15T13:44:09+02:00</time>
      </trkpt>
      <trkpt lat="47.32507" lon="5.44328">
        <ele>187.60059</ele>
        <time>2026-05-15T13:44:10+02:00</time>
      </trkpt>
      <trkpt lat="47.32508" lon="5.44337">
        <ele>187.7002</ele>
        <time>2026-05-15T13:44:11+02:00</time>
      </trkpt>
      <trkpt lat="47.3251" lon="5.44345">
        <ele>187.7002</ele>
        <time>2026-05-15T13:44:12+02:00</time>
      </trkpt>
      <trkpt lat="47.32511" lon="5.44354">
        <ele>187.7002</ele>
        <time>2026-05-15T13:44:13+02:00</time>
      </trkpt>
      <trkpt lat="47.32512" lon="5.44363">
        <ele>187.7998</ele>
        <time>2026-05-15T13:44:14+02:00</time>
      </trkpt>
      <trkpt lat="47.32514" lon="5.44372">
        <ele>187.7998</ele>
        <time>2026-05-15T13:44:15+02:00</time>
      </trkpt>
      <trkpt lat="47.32515" lon="5.4438">
        <ele>187.7998</ele>
        <time>2026-05-15T13:44:16+02:00</time>
      </trkpt>
      <trkpt lat="47.32517" lon="5.44389">
        <ele>187.7998</ele>
        <time>2026-05-15T13:44:17+02:00</time>
      </trkpt>
      <trkpt lat="47.32518" lon="5.44397">
        <ele>187.7998</ele>
        <time>2026-05-15T13:44:18+02:00</time>
      </trkpt>
      <trkpt lat="47.32519" lon="5.44406">
        <ele>187.90039</ele>
        <time>2026-05-15T13:44:19+02:00</time>
      </trkpt>
      <trkpt lat="47.32521" lon="5.44415">
        <ele>187.7998</ele>
        <time>2026-05-15T13:44:20+02:00</time>
      </trkpt>
      <trkpt lat="47.32523" lon="5.44423">
        <ele>187.7998</ele>
        <time>2026-05-15T13:44:21+02:00</time>
      </trkpt>
      <trkpt lat="47.32524" lon="5.44432">
        <ele>187.7998</ele>
        <time>2026-05-15T13:44:22+02:00</time>
      </trkpt>
      <trkpt lat="47.32526" lon="5.4444">
        <ele>187.7998</ele>
        <time>2026-05-15T13:44:23+02:00</time>
      </trkpt>
      <trkpt lat="47.32527" lon="5.44449">
        <ele>187.7002</ele>
        <time>2026-05-15T13:44:24+02:00</time>
      </trkpt>
      <trkpt lat="47.32529" lon="5.44458">
        <ele>187.60059</ele>
        <time>2026-05-15T13:44:25+02:00</time>
      </trkpt>
      <trkpt lat="47.32531" lon="5.44467">
        <ele>187.40039</ele>
        <time>2026-05-15T13:44:26+02:00</time>
      </trkpt>
      <trkpt lat="47.32532" lon="5.44476">
        <ele>187.2998</ele>
        <time>2026-05-15T13:44:27+02:00</time>
      </trkpt>
      <trkpt lat="47.32534" lon="5.44485">
        <ele>187.2002</ele>
        <time>2026-05-15T13:44:28+02:00</time>
      </trkpt>
      <trkpt lat="47.32535" lon="5.44493">
        <ele>187.10059</ele>
        <time>2026-05-15T13:44:29+02:00</time>
      </trkpt>
      <trkpt lat="47.32537" lon="5.44502">
        <ele>187</ele>
        <time>2026-05-15T13:44:30+02:00</time>
      </trkpt>
      <trkpt lat="47.32539" lon="5.44512">
        <ele>186.90039</ele>
        <time>2026-05-15T13:44:31+02:00</time>
      </trkpt>
      <trkpt lat="47.3254" lon="5.4452">
        <ele>186.7998</ele>
        <time>2026-05-15T13:44:32+02:00</time>
      </trkpt>
      <trkpt lat="47.32542" lon="5.44529">
        <ele>186.7002</ele>
        <time>2026-05-15T13:44:33+02:00</time>
      </trkpt>
      <trkpt lat="47.32544" lon="5.44538">
        <ele>186.60059</ele>
        <time>2026-05-15T13:44:34+02:00</time>
      </trkpt>
      <trkpt lat="47.32546" lon="5.44547">
        <ele>186.5</ele>
        <time>2026-05-15T13:44:35+02:00</time>
      </trkpt>
      <trkpt lat="47.32547" lon="5.44555">
        <ele>186.5</ele>
        <time>2026-05-15T13:44:36+02:00</time>
      </trkpt>
      <trkpt lat="47.32549" lon="5.44564">
        <ele>186.40039</ele>
        <time>2026-05-15T13:44:37+02:00</time>
      </trkpt>
      <trkpt lat="47.3255" lon="5.44573">
        <ele>186.40039</ele>
        <time>2026-05-15T13:44:38+02:00</time>
      </trkpt>
      <trkpt lat="47.32551" lon="5.44581">
        <ele>186.40039</ele>
        <time>2026-05-15T13:44:39+02:00</time>
      </trkpt>
      <trkpt lat="47.32553" lon="5.4459">
        <ele>186.40039</ele>
        <time>2026-05-15T13:44:40+02:00</time>
      </trkpt>
      <trkpt lat="47.32554" lon="5.44599">
        <ele>186.5</ele>
        <time>2026-05-15T13:44:41+02:00</time>
      </trkpt>
      <trkpt lat="47.32556" lon="5.44608">
        <ele>186.60059</ele>
        <time>2026-05-15T13:44:42+02:00</time>
      </trkpt>
      <trkpt lat="47.32557" lon="5.44616">
        <ele>186.7002</ele>
        <time>2026-05-15T13:44:43+02:00</time>
      </trkpt>
      <trkpt lat="47.32559" lon="5.44624">
        <ele>186.7998</ele>
        <time>2026-05-15T13:44:44+02:00</time>
      </trkpt>
      <trkpt lat="47.3256" lon="5.44631">
        <ele>186.90039</ele>
        <time>2026-05-15T13:44:45+02:00</time>
      </trkpt>
      <trkpt lat="47.32562" lon="5.44639">
        <ele>187</ele>
        <time>2026-05-15T13:44:46+02:00</time>
      </trkpt>
      <trkpt lat="47.32563" lon="5.44647">
        <ele>187</ele>
        <time>2026-05-15T13:44:47+02:00</time>
      </trkpt>
      <trkpt lat="47.32564" lon="5.44654">
        <ele>187.10059</ele>
        <time>2026-05-15T13:44:48+02:00</time>
      </trkpt>
      <trkpt lat="47.32565" lon="5.44661">
        <ele>187.2002</ele>
        <time>2026-05-15T13:44:49+02:00</time>
      </trkpt>
      <trkpt lat="47.32566" lon="5.44669">
        <ele>187.2998</ele>
        <time>2026-05-15T13:44:50+02:00</time>
      </trkpt>
      <trkpt lat="47.32568" lon="5.44676">
        <ele>187.5</ele>
        <time>2026-05-15T13:44:51+02:00</time>
      </trkpt>
      <trkpt lat="47.32569" lon="5.44684">
        <ele>187.60059</ele>
        <time>2026-05-15T13:44:52+02:00</time>
      </trkpt>
      <trkpt lat="47.32571" lon="5.44693">
        <ele>187.7998</ele>
        <time>2026-05-15T13:44:53+02:00</time>
      </trkpt>
      <trkpt lat="47.32572" lon="5.44701">
        <ele>188</ele>
        <time>2026-05-15T13:44:54+02:00</time>
      </trkpt>
      <trkpt lat="47.32573" lon="5.44709">
        <ele>188.2002</ele>
        <time>2026-05-15T13:44:55+02:00</time>
      </trkpt>
      <trkpt lat="47.32575" lon="5.44717">
        <ele>188.2998</ele>
        <time>2026-05-15T13:44:56+02:00</time>
      </trkpt>
      <trkpt lat="47.32576" lon="5.44725">
        <ele>188.5</ele>
        <time>2026-05-15T13:44:57+02:00</time>
      </trkpt>
      <trkpt lat="47.32578" lon="5.44733">
        <ele>188.5</ele>
        <time>2026-05-15T13:44:58+02:00</time>
      </trkpt>
      <trkpt lat="47.32579" lon="5.44742">
        <ele>188.7998</ele>
        <time>2026-05-15T13:44:59+02:00</time>
      </trkpt>
      <trkpt lat="47.32581" lon="5.44751">
        <ele>188.90039</ele>
        <time>2026-05-15T13:45:00+02:00</time>
      </trkpt>
      <trkpt lat="47.32582" lon="5.44759">
        <ele>189</ele>
        <time>2026-05-15T13:45:01+02:00</time>
      </trkpt>
      <trkpt lat="47.32583" lon="5.44767">
        <ele>189</ele>
        <time>2026-05-15T13:45:02+02:00</time>
      </trkpt>
      <trkpt lat="47.32585" lon="5.44775">
        <ele>189.10059</ele>
        <time>2026-05-15T13:45:03+02:00</time>
      </trkpt>
      <trkpt lat="47.32587" lon="5.44783">
        <ele>189.2002</ele>
        <time>2026-05-15T13:45:04+02:00</time>
      </trkpt>
      <trkpt lat="47.32589" lon="5.4479">
        <ele>189.2002</ele>
        <time>2026-05-15T13:45:05+02:00</time>
      </trkpt>
      <trkpt lat="47.3259" lon="5.44798">
        <ele>189.2998</ele>
        <time>2026-05-15T13:45:06+02:00</time>
      </trkpt>
      <trkpt lat="47.32592" lon="5.44806">
        <ele>189.2002</ele>
        <time>2026-05-15T13:45:07+02:00</time>
      </trkpt>
      <trkpt lat="47.32593" lon="5.44814">
        <ele>189.2002</ele>
        <time>2026-05-15T13:45:08+02:00</time>
      </trkpt>
      <trkpt lat="47.32594" lon="5.44823">
        <ele>189.10059</ele>
        <time>2026-05-15T13:45:09+02:00</time>
      </trkpt>
      <trkpt lat="47.32596" lon="5.44831">
        <ele>189</ele>
        <time>2026-05-15T13:45:10+02:00</time>
      </trkpt>
      <trkpt lat="47.32597" lon="5.44838">
        <ele>188.90039</ele>
        <time>2026-05-15T13:45:11+02:00</time>
      </trkpt>
      <trkpt lat="47.32599" lon="5.44845">
        <ele>188.7998</ele>
        <time>2026-05-15T13:45:12+02:00</time>
      </trkpt>
      <trkpt lat="47.326" lon="5.44852">
        <ele>188.7998</ele>
        <time>2026-05-15T13:45:13+02:00</time>
      </trkpt>
      <trkpt lat="47.32601" lon="5.44859">
        <ele>188.7002</ele>
        <time>2026-05-15T13:45:14+02:00</time>
      </trkpt>
      <trkpt lat="47.32602" lon="5.44865">
        <ele>188.7002</ele>
        <time>2026-05-15T13:45:15+02:00</time>
      </trkpt>
      <trkpt lat="47.32603" lon="5.44872">
        <ele>188.60059</ele>
        <time>2026-05-15T13:45:16+02:00</time>
      </trkpt>
      <trkpt lat="47.32604" lon="5.4488">
        <ele>188.5</ele>
        <time>2026-05-15T13:45:17+02:00</time>
      </trkpt>
      <trkpt lat="47.32605" lon="5.44888">
        <ele>188.40039</ele>
        <time>2026-05-15T13:45:18+02:00</time>
      </trkpt>
      <trkpt lat="47.32607" lon="5.44895">
        <ele>188.40039</ele>
        <time>2026-05-15T13:45:19+02:00</time>
      </trkpt>
      <trkpt lat="47.32608" lon="5.44902">
        <ele>188.40039</ele>
        <time>2026-05-15T13:45:20+02:00</time>
      </trkpt>
      <trkpt lat="47.32609" lon="5.44909">
        <ele>188.2998</ele>
        <time>2026-05-15T13:45:21+02:00</time>
      </trkpt>
      <trkpt lat="47.32611" lon="5.44915">
        <ele>188.2998</ele>
        <time>2026-05-15T13:45:22+02:00</time>
      </trkpt>
      <trkpt lat="47.32612" lon="5.44922">
        <ele>188.40039</ele>
        <time>2026-05-15T13:45:23+02:00</time>
      </trkpt>
      <trkpt lat="47.32614" lon="5.44929">
        <ele>188.40039</ele>
        <time>2026-05-15T13:45:24+02:00</time>
      </trkpt>
      <trkpt lat="47.32615" lon="5.44936">
        <ele>188.40039</ele>
        <time>2026-05-15T13:45:25+02:00</time>
      </trkpt>
      <trkpt lat="47.32616" lon="5.44943">
        <ele>188.40039</ele>
        <time>2026-05-15T13:45:26+02:00</time>
      </trkpt>
      <trkpt lat="47.32617" lon="5.44949">
        <ele>188.5</ele>
        <time>2026-05-15T13:45:27+02:00</time>
      </trkpt>
      <trkpt lat="47.32618" lon="5.44956">
        <ele>188.5</ele>
        <time>2026-05-15T13:45:28+02:00</time>
      </trkpt>
      <trkpt lat="47.3262" lon="5.44963">
        <ele>188.60059</ele>
        <time>2026-05-15T13:45:29+02:00</time>
      </trkpt>
      <trkpt lat="47.32621" lon="5.4497">
        <ele>188.60059</ele>
        <time>2026-05-15T13:45:30+02:00</time>
      </trkpt>
      <trkpt lat="47.32622" lon="5.44978">
        <ele>188.7002</ele>
        <time>2026-05-15T13:45:31+02:00</time>
      </trkpt>
      <trkpt lat="47.32623" lon="5.44986">
        <ele>188.7002</ele>
        <time>2026-05-15T13:45:32+02:00</time>
      </trkpt>
      <trkpt lat="47.32624" lon="5.44993">
        <ele>188.7998</ele>
        <time>2026-05-15T13:45:33+02:00</time>
      </trkpt>
      <trkpt lat="47.32626" lon="5.45001">
        <ele>188.7998</ele>
        <time>2026-05-15T13:45:34+02:00</time>
      </trkpt>
      <trkpt lat="47.32627" lon="5.45008">
        <ele>188.90039</ele>
        <time>2026-05-15T13:45:35+02:00</time>
      </trkpt>
      <trkpt lat="47.32628" lon="5.45015">
        <ele>188.90039</ele>
        <time>2026-05-15T13:45:36+02:00</time>
      </trkpt>
      <trkpt lat="47.32629" lon="5.45023">
        <ele>189</ele>
        <time>2026-05-15T13:45:37+02:00</time>
      </trkpt>
      <trkpt lat="47.3263" lon="5.45031">
        <ele>189.10059</ele>
        <time>2026-05-15T13:45:38+02:00</time>
      </trkpt>
      <trkpt lat="47.32632" lon="5.45039">
        <ele>189.2002</ele>
        <time>2026-05-15T13:45:39+02:00</time>
      </trkpt>
      <trkpt lat="47.32633" lon="5.45047">
        <ele>189.2998</ele>
        <time>2026-05-15T13:45:40+02:00</time>
      </trkpt>
      <trkpt lat="47.32634" lon="5.45054">
        <ele>189.5</ele>
        <time>2026-05-15T13:45:41+02:00</time>
      </trkpt>
      <trkpt lat="47.32636" lon="5.45062">
        <ele>189.60059</ele>
        <time>2026-05-15T13:45:42+02:00</time>
      </trkpt>
      <trkpt lat="47.32637" lon="5.4507">
        <ele>189.7002</ele>
        <time>2026-05-15T13:45:43+02:00</time>
      </trkpt>
      <trkpt lat="47.32639" lon="5.45077">
        <ele>189.7998</ele>
        <time>2026-05-15T13:45:44+02:00</time>
      </trkpt>
      <trkpt lat="47.32639" lon="5.45084">
        <ele>189.7998</ele>
        <time>2026-05-15T13:45:45+02:00</time>
      </trkpt>
      <trkpt lat="47.32641" lon="5.45091">
        <ele>189.90039</ele>
        <time>2026-05-15T13:45:46+02:00</time>
      </trkpt>
      <trkpt lat="47.32642" lon="5.45098">
        <ele>190</ele>
        <time>2026-05-15T13:45:47+02:00</time>
      </trkpt>
      <trkpt lat="47.32644" lon="5.45106">
        <ele>190.10059</ele>
        <time>2026-05-15T13:45:48+02:00</time>
      </trkpt>
      <trkpt lat="47.32646" lon="5.45114">
        <ele>190.2002</ele>
        <time>2026-05-15T13:45:49+02:00</time>
      </trkpt>
      <trkpt lat="47.32647" lon="5.45122">
        <ele>190.2998</ele>
        <time>2026-05-15T13:45:50+02:00</time>
      </trkpt>
      <trkpt lat="47.32649" lon="5.4513">
        <ele>190.40039</ele>
        <time>2026-05-15T13:45:51+02:00</time>
      </trkpt>
      <trkpt lat="47.3265" lon="5.45138">
        <ele>190.5</ele>
        <time>2026-05-15T13:45:52+02:00</time>
      </trkpt>
      <trkpt lat="47.32651" lon="5.45147">
        <ele>190.5</ele>
        <time>2026-05-15T13:45:53+02:00</time>
      </trkpt>
      <trkpt lat="47.32653" lon="5.45155">
        <ele>190.5</ele>
        <time>2026-05-15T13:45:54+02:00</time>
      </trkpt>
      <trkpt lat="47.32655" lon="5.45163">
        <ele>190.40039</ele>
        <time>2026-05-15T13:45:55+02:00</time>
      </trkpt>
      <trkpt lat="47.32656" lon="5.4517">
        <ele>190.40039</ele>
        <time>2026-05-15T13:45:56+02:00</time>
      </trkpt>
      <trkpt lat="47.32657" lon="5.45178">
        <ele>190.40039</ele>
        <time>2026-05-15T13:45:57+02:00</time>
      </trkpt>
      <trkpt lat="47.32658" lon="5.45186">
        <ele>190.2998</ele>
        <time>2026-05-15T13:45:58+02:00</time>
      </trkpt>
      <trkpt lat="47.3266" lon="5.45194">
        <ele>190.2998</ele>
        <time>2026-05-15T13:45:59+02:00</time>
      </trkpt>
      <trkpt lat="47.32661" lon="5.45203">
        <ele>190.2002</ele>
        <time>2026-05-15T13:46:00+02:00</time>
      </trkpt>
      <trkpt lat="47.32663" lon="5.45211">
        <ele>190</ele>
        <time>2026-05-15T13:46:01+02:00</time>
      </trkpt>
      <trkpt lat="47.32665" lon="5.45219">
        <ele>189.7998</ele>
        <time>2026-05-15T13:46:02+02:00</time>
      </trkpt>
      <trkpt lat="47.32666" lon="5.45228">
        <ele>189.7002</ele>
        <time>2026-05-15T13:46:03+02:00</time>
      </trkpt>
      <trkpt lat="47.32668" lon="5.45236">
        <ele>189.60059</ele>
        <time>2026-05-15T13:46:04+02:00</time>
      </trkpt>
      <trkpt lat="47.3267" lon="5.45246">
        <ele>189.5</ele>
        <time>2026-05-15T13:46:05+02:00</time>
      </trkpt>
      <trkpt lat="47.32672" lon="5.45255">
        <ele>189.5</ele>
        <time>2026-05-15T13:46:06+02:00</time>
      </trkpt>
      <trkpt lat="47.32673" lon="5.45264">
        <ele>189.60059</ele>
        <time>2026-05-15T13:46:07+02:00</time>
      </trkpt>
      <trkpt lat="47.32675" lon="5.45273">
        <ele>189.60059</ele>
        <time>2026-05-15T13:46:08+02:00</time>
      </trkpt>
      <trkpt lat="47.32676" lon="5.45282">
        <ele>189.60059</ele>
        <time>2026-05-15T13:46:09+02:00</time>
      </trkpt>
      <trkpt lat="47.32678" lon="5.4529">
        <ele>189.7002</ele>
        <time>2026-05-15T13:46:10+02:00</time>
      </trkpt>
      <trkpt lat="47.32679" lon="5.45299">
        <ele>189.7002</ele>
        <time>2026-05-15T13:46:11+02:00</time>
      </trkpt>
      <trkpt lat="47.3268" lon="5.45308">
        <ele>189.7998</ele>
        <time>2026-05-15T13:46:12+02:00</time>
      </trkpt>
      <trkpt lat="47.32682" lon="5.45317">
        <ele>189.90039</ele>
        <time>2026-05-15T13:46:13+02:00</time>
      </trkpt>
      <trkpt lat="47.32684" lon="5.45327">
        <ele>189.90039</ele>
        <time>2026-05-15T13:46:14+02:00</time>
      </trkpt>
      <trkpt lat="47.32685" lon="5.45336">
        <ele>190</ele>
        <time>2026-05-15T13:46:15+02:00</time>
      </trkpt>
      <trkpt lat="47.32687" lon="5.45346">
        <ele>190</ele>
        <time>2026-05-15T13:46:16+02:00</time>
      </trkpt>
      <trkpt lat="47.32688" lon="5.45355">
        <ele>190.10059</ele>
        <time>2026-05-15T13:46:17+02:00</time>
      </trkpt>
      <trkpt lat="47.3269" lon="5.45364">
        <ele>190.10059</ele>
        <time>2026-05-15T13:46:18+02:00</time>
      </trkpt>
      <trkpt lat="47.32692" lon="5.45375">
        <ele>190.2002</ele>
        <time>2026-05-15T13:46:19+02:00</time>
      </trkpt>
      <trkpt lat="47.32693" lon="5.45384">
        <ele>190.2002</ele>
        <time>2026-05-15T13:46:20+02:00</time>
      </trkpt>
      <trkpt lat="47.32695" lon="5.45393">
        <ele>190.2998</ele>
        <time>2026-05-15T13:46:21+02:00</time>
      </trkpt>
      <trkpt lat="47.32697" lon="5.45402">
        <ele>190.2998</ele>
        <time>2026-05-15T13:46:22+02:00</time>
      </trkpt>
      <trkpt lat="47.32699" lon="5.45411">
        <ele>190.40039</ele>
        <time>2026-05-15T13:46:23+02:00</time>
      </trkpt>
      <trkpt lat="47.32701" lon="5.4542">
        <ele>190.5</ele>
        <time>2026-05-15T13:46:24+02:00</time>
      </trkpt>
      <trkpt lat="47.32704" lon="5.45429">
        <ele>190.5</ele>
        <time>2026-05-15T13:46:25+02:00</time>
      </trkpt>
      <trkpt lat="47.32706" lon="5.45437">
        <ele>190.7002</ele>
        <time>2026-05-15T13:46:26+02:00</time>
      </trkpt>
      <trkpt lat="47.32708" lon="5.45445">
        <ele>190.5</ele>
        <time>2026-05-15T13:46:27+02:00</time>
      </trkpt>
      <trkpt lat="47.32711" lon="5.45453">
        <ele>190.60059</ele>
        <time>2026-05-15T13:46:28+02:00</time>
      </trkpt>
      <trkpt lat="47.32713" lon="5.4546">
        <ele>190.7002</ele>
        <time>2026-05-15T13:46:29+02:00</time>
      </trkpt>
      <trkpt lat="47.32716" lon="5.45466">
        <ele>190.5</ele>
        <time>2026-05-15T13:46:30+02:00</time>
      </trkpt>
      <trkpt lat="47.32717" lon="5.45473">
        <ele>190.60059</ele>
        <time>2026-05-15T13:46:31+02:00</time>
      </trkpt>
      <trkpt lat="47.3272" lon="5.4548">
        <ele>190.2998</ele>
        <time>2026-05-15T13:46:32+02:00</time>
      </trkpt>
      <trkpt lat="47.32721" lon="5.45489">
        <ele>190.2998</ele>
        <time>2026-05-15T13:46:33+02:00</time>
      </trkpt>
      <trkpt lat="47.32723" lon="5.45497">
        <ele>190.2998</ele>
        <time>2026-05-15T13:46:34+02:00</time>
      </trkpt>
      <trkpt lat="47.32725" lon="5.45504">
        <ele>190</ele>
        <time>2026-05-15T13:46:35+02:00</time>
      </trkpt>
      <trkpt lat="47.32726" lon="5.45511">
        <ele>190</ele>
        <time>2026-05-15T13:46:36+02:00</time>
      </trkpt>
      <trkpt lat="47.32727" lon="5.45517">
        <ele>190</ele>
        <time>2026-05-15T13:46:37+02:00</time>
      </trkpt>
      <trkpt lat="47.32728" lon="5.45521">
        <ele>190</ele>
        <time>2026-05-15T13:46:38+02:00</time>
      </trkpt>
      <trkpt lat="47.3273" lon="5.45523">
        <ele>190</ele>
        <time>2026-05-15T13:46:39+02:00</time>
      </trkpt>
      <trkpt lat="47.32732" lon="5.45523">
        <ele>189.7998</ele>
        <time>2026-05-15T13:46:40+02:00</time>
      </trkpt>
      <trkpt lat="47.32735" lon="5.45522">
        <ele>189.7002</ele>
        <time>2026-05-15T13:46:41+02:00</time>
      </trkpt>
      <trkpt lat="47.32738" lon="5.45521">
        <ele>189.5</ele>
        <time>2026-05-15T13:46:42+02:00</time>
      </trkpt>
      <trkpt lat="47.32741" lon="5.45519">
        <ele>189.5</ele>
        <time>2026-05-15T13:46:43+02:00</time>
      </trkpt>
      <trkpt lat="47.32745" lon="5.45516">
        <ele>189.2998</ele>
        <time>2026-05-15T13:46:44+02:00</time>
      </trkpt>
      <trkpt lat="47.32749" lon="5.45514">
        <ele>189</ele>
        <time>2026-05-15T13:46:45+02:00</time>
      </trkpt>
      <trkpt lat="47.32754" lon="5.45511">
        <ele>188.7002</ele>
        <time>2026-05-15T13:46:46+02:00</time>
      </trkpt>
      <trkpt lat="47.32759" lon="5.45509">
        <ele>188.7002</ele>
        <time>2026-05-15T13:46:47+02:00</time>
      </trkpt>
      <trkpt lat="47.32765" lon="5.45506">
        <ele>188.40039</ele>
        <time>2026-05-15T13:46:48+02:00</time>
      </trkpt>
      <trkpt lat="47.3277" lon="5.45502">
        <ele>188.2998</ele>
        <time>2026-05-15T13:46:49+02:00</time>
      </trkpt>
      <trkpt lat="47.32776" lon="5.45499">
        <ele>188.2998</ele>
        <time>2026-05-15T13:46:50+02:00</time>
      </trkpt>
      <trkpt lat="47.32782" lon="5.45496">
        <ele>188.5</ele>
        <time>2026-05-15T13:46:51+02:00</time>
      </trkpt>
      <trkpt lat="47.32788" lon="5.45492">
        <ele>188.7002</ele>
        <time>2026-05-15T13:46:52+02:00</time>
      </trkpt>
      <trkpt lat="47.32794" lon="5.45489">
        <ele>188.90039</ele>
        <time>2026-05-15T13:46:53+02:00</time>
      </trkpt>
      <trkpt lat="47.32799" lon="5.45485">
        <ele>189.10059</ele>
        <time>2026-05-15T13:46:54+02:00</time>
      </trkpt>
      <trkpt lat="47.32805" lon="5.45482">
        <ele>189.2002</ele>
        <time>2026-05-15T13:46:55+02:00</time>
      </trkpt>
      <trkpt lat="47.3281" lon="5.45478">
        <ele>189.40039</ele>
        <time>2026-05-15T13:46:56+02:00</time>
      </trkpt>
      <trkpt lat="47.32816" lon="5.45475">
        <ele>189.5</ele>
        <time>2026-05-15T13:46:57+02:00</time>
      </trkpt>
      <trkpt lat="47.32821" lon="5.45471">
        <ele>189.60059</ele>
        <time>2026-05-15T13:46:58+02:00</time>
      </trkpt>
      <trkpt lat="47.32826" lon="5.45468">
        <ele>189.7002</ele>
        <time>2026-05-15T13:46:59+02:00</time>
      </trkpt>
      <trkpt lat="47.32831" lon="5.45465">
        <ele>189.7998</ele>
        <time>2026-05-15T13:47:00+02:00</time>
      </trkpt>
      <trkpt lat="47.32836" lon="5.45463">
        <ele>189.90039</ele>
        <time>2026-05-15T13:47:01+02:00</time>
      </trkpt>
      <trkpt lat="47.3284" lon="5.45462">
        <ele>189.7998</ele>
        <time>2026-05-15T13:47:02+02:00</time>
      </trkpt>
      <trkpt lat="47.32843" lon="5.45464">
        <ele>190</ele>
        <time>2026-05-15T13:47:03+02:00</time>
      </trkpt>
      <trkpt lat="47.32846" lon="5.45469">
        <ele>190</ele>
        <time>2026-05-15T13:47:04+02:00</time>
      </trkpt>
      <trkpt lat="47.32848" lon="5.45474">
        <ele>190.2002</ele>
        <time>2026-05-15T13:47:05+02:00</time>
      </trkpt>
      <trkpt lat="47.32849" lon="5.4548">
        <ele>190.2002</ele>
        <time>2026-05-15T13:47:06+02:00</time>
      </trkpt>
      <trkpt lat="47.32851" lon="5.45486">
        <ele>190.2002</ele>
        <time>2026-05-15T13:47:07+02:00</time>
      </trkpt>
      <trkpt lat="47.32853" lon="5.45493">
        <ele>190.2998</ele>
        <time>2026-05-15T13:47:08+02:00</time>
      </trkpt>
      <trkpt lat="47.32855" lon="5.45499">
        <ele>190.2998</ele>
        <time>2026-05-15T13:47:09+02:00</time>
      </trkpt>
      <trkpt lat="47.32858" lon="5.45506">
        <ele>190.2998</ele>
        <time>2026-05-15T13:47:10+02:00</time>
      </trkpt>
      <trkpt lat="47.3286" lon="5.45514">
        <ele>190.40039</ele>
        <time>2026-05-15T13:47:11+02:00</time>
      </trkpt>
      <trkpt lat="47.32862" lon="5.45521">
        <ele>190.40039</ele>
        <time>2026-05-15T13:47:12+02:00</time>
      </trkpt>
      <trkpt lat="47.32864" lon="5.45529">
        <ele>190.2998</ele>
        <time>2026-05-15T13:47:13+02:00</time>
      </trkpt>
      <trkpt lat="47.32866" lon="5.45537">
        <ele>190.2998</ele>
        <time>2026-05-15T13:47:14+02:00</time>
      </trkpt>
      <trkpt lat="47.32868" lon="5.45545">
        <ele>190.10059</ele>
        <time>2026-05-15T13:47:15+02:00</time>
      </trkpt>
      <trkpt lat="47.3287" lon="5.45553">
        <ele>190</ele>
        <time>2026-05-15T13:47:16+02:00</time>
      </trkpt>
      <trkpt lat="47.32872" lon="5.45561">
        <ele>189.7998</ele>
        <time>2026-05-15T13:47:17+02:00</time>
      </trkpt>
      <trkpt lat="47.32874" lon="5.4557">
        <ele>189.60059</ele>
        <time>2026-05-15T13:47:18+02:00</time>
      </trkpt>
      <trkpt lat="47.32876" lon="5.45578">
        <ele>189.40039</ele>
        <time>2026-05-15T13:47:19+02:00</time>
      </trkpt>
      <trkpt lat="47.32878" lon="5.45587">
        <ele>189.10059</ele>
        <time>2026-05-15T13:47:20+02:00</time>
      </trkpt>
      <trkpt lat="47.32879" lon="5.45595">
        <ele>188.7998</ele>
        <time>2026-05-15T13:47:21+02:00</time>
      </trkpt>
      <trkpt lat="47.32881" lon="5.45603">
        <ele>188.5</ele>
        <time>2026-05-15T13:47:22+02:00</time>
      </trkpt>
      <trkpt lat="47.32882" lon="5.45611">
        <ele>188.40039</ele>
        <time>2026-05-15T13:47:23+02:00</time>
      </trkpt>
      <trkpt lat="47.32884" lon="5.45619">
        <ele>188.10059</ele>
        <time>2026-05-15T13:47:24+02:00</time>
      </trkpt>
      <trkpt lat="47.32885" lon="5.45627">
        <ele>187.90039</ele>
        <time>2026-05-15T13:47:25+02:00</time>
      </trkpt>
      <trkpt lat="47.32887" lon="5.45634">
        <ele>187.90039</ele>
        <time>2026-05-15T13:47:26+02:00</time>
      </trkpt>
      <trkpt lat="47.3289" lon="5.45641">
        <ele>187.7002</ele>
        <time>2026-05-15T13:47:27+02:00</time>
      </trkpt>
      <trkpt lat="47.32892" lon="5.45647">
        <ele>187.5</ele>
        <time>2026-05-15T13:47:28+02:00</time>
      </trkpt>
      <trkpt lat="47.32895" lon="5.45653">
        <ele>187.40039</ele>
        <time>2026-05-15T13:47:29+02:00</time>
      </trkpt>
      <trkpt lat="47.32898" lon="5.45659">
        <ele>187.40039</ele>
        <time>2026-05-15T13:47:30+02:00</time>
      </trkpt>
      <trkpt lat="47.32901" lon="5.45665">
        <ele>187.40039</ele>
        <time>2026-05-15T13:47:31+02:00</time>
      </trkpt>
      <trkpt lat="47.32904" lon="5.45671">
        <ele>187.2998</ele>
        <time>2026-05-15T13:47:32+02:00</time>
      </trkpt>
      <trkpt lat="47.32907" lon="5.45677">
        <ele>187.40039</ele>
        <time>2026-05-15T13:47:33+02:00</time>
      </trkpt>
      <trkpt lat="47.32909" lon="5.45684">
        <ele>187.2998</ele>
        <time>2026-05-15T13:47:34+02:00</time>
      </trkpt>
      <trkpt lat="47.32912" lon="5.4569">
        <ele>187.40039</ele>
        <time>2026-05-15T13:47:35+02:00</time>
      </trkpt>
      <trkpt lat="47.32914" lon="5.45697">
        <ele>187.40039</ele>
        <time>2026-05-15T13:47:36+02:00</time>
      </trkpt>
      <trkpt lat="47.32917" lon="5.45703">
        <ele>187.5</ele>
        <time>2026-05-15T13:47:37+02:00</time>
      </trkpt>
      <trkpt lat="47.32919" lon="5.4571">
        <ele>187.5</ele>
        <time>2026-05-15T13:47:38+02:00</time>
      </trkpt>
      <trkpt lat="47.32921" lon="5.45716">
        <ele>187.60059</ele>
        <time>2026-05-15T13:47:39+02:00</time>
      </trkpt>
      <trkpt lat="47.32923" lon="5.45723">
        <ele>187.7002</ele>
        <time>2026-05-15T13:47:40+02:00</time>
      </trkpt>
      <trkpt lat="47.32924" lon="5.4573">
        <ele>187.7998</ele>
        <time>2026-05-15T13:47:41+02:00</time>
      </trkpt>
      <trkpt lat="47.32926" lon="5.45737">
        <ele>187.7998</ele>
        <time>2026-05-15T13:47:42+02:00</time>
      </trkpt>
      <trkpt lat="47.32927" lon="5.45744">
        <ele>187.90039</ele>
        <time>2026-05-15T13:47:43+02:00</time>
      </trkpt>
      <trkpt lat="47.32928" lon="5.45752">
        <ele>187.90039</ele>
        <time>2026-05-15T13:47:44+02:00</time>
      </trkpt>
      <trkpt lat="47.32929" lon="5.45759">
        <ele>188.2002</ele>
        <time>2026-05-15T13:47:45+02:00</time>
      </trkpt>
      <trkpt lat="47.3293" lon="5.45767">
        <ele>188.2002</ele>
        <time>2026-05-15T13:47:46+02:00</time>
      </trkpt>
      <trkpt lat="47.32931" lon="5.45775">
        <ele>188.2998</ele>
        <time>2026-05-15T13:47:47+02:00</time>
      </trkpt>
      <trkpt lat="47.32931" lon="5.45783">
        <ele>188.40039</ele>
        <time>2026-05-15T13:47:48+02:00</time>
      </trkpt>
      <trkpt lat="47.32931" lon="5.45792">
        <ele>188.5</ele>
        <time>2026-05-15T13:47:49+02:00</time>
      </trkpt>
      <trkpt lat="47.32931" lon="5.458">
        <ele>188.60059</ele>
        <time>2026-05-15T13:47:50+02:00</time>
      </trkpt>
      <trkpt lat="47.32931" lon="5.45808">
        <ele>188.7002</ele>
        <time>2026-05-15T13:47:51+02:00</time>
      </trkpt>
      <trkpt lat="47.32931" lon="5.45816">
        <ele>188.7002</ele>
        <time>2026-05-15T13:47:52+02:00</time>
      </trkpt>
      <trkpt lat="47.3293" lon="5.45823">
        <ele>188.7002</ele>
        <time>2026-05-15T13:47:53+02:00</time>
      </trkpt>
      <trkpt lat="47.32929" lon="5.45831">
        <ele>188.7998</ele>
        <time>2026-05-15T13:47:54+02:00</time>
      </trkpt>
      <trkpt lat="47.32928" lon="5.45839">
        <ele>188.7002</ele>
        <time>2026-05-15T13:47:55+02:00</time>
      </trkpt>
      <trkpt lat="47.32927" lon="5.45846">
        <ele>188.7998</ele>
        <time>2026-05-15T13:47:56+02:00</time>
      </trkpt>
      <trkpt lat="47.32926" lon="5.45854">
        <ele>188.90039</ele>
        <time>2026-05-15T13:47:57+02:00</time>
      </trkpt>
      <trkpt lat="47.32924" lon="5.45862">
        <ele>188.90039</ele>
        <time>2026-05-15T13:47:58+02:00</time>
      </trkpt>
      <trkpt lat="47.32925" lon="5.45869">
        <ele>189</ele>
        <time>2026-05-15T13:47:59+02:00</time>
      </trkpt>
      <trkpt lat="47.32926" lon="5.45876">
        <ele>189.10059</ele>
        <time>2026-05-15T13:48:00+02:00</time>
      </trkpt>
      <trkpt lat="47.32928" lon="5.45883">
        <ele>189.10059</ele>
        <time>2026-05-15T13:48:01+02:00</time>
      </trkpt>
      <trkpt lat="47.32929" lon="5.4589">
        <ele>189.2998</ele>
        <time>2026-05-15T13:48:02+02:00</time>
      </trkpt>
      <trkpt lat="47.3293" lon="5.45897">
        <ele>189.40039</ele>
        <time>2026-05-15T13:48:03+02:00</time>
      </trkpt>
      <trkpt lat="47.3293" lon="5.45903">
        <ele>189.40039</ele>
        <time>2026-05-15T13:48:04+02:00</time>
      </trkpt>
      <trkpt lat="47.32931" lon="5.4591">
        <ele>189.5</ele>
        <time>2026-05-15T13:48:05+02:00</time>
      </trkpt>
      <trkpt lat="47.32931" lon="5.45917">
        <ele>189.5</ele>
        <time>2026-05-15T13:48:06+02:00</time>
      </trkpt>
      <trkpt lat="47.32932" lon="5.45924">
        <ele>189.40039</ele>
        <time>2026-05-15T13:48:07+02:00</time>
      </trkpt>
      <trkpt lat="47.32934" lon="5.4593">
        <ele>189.60059</ele>
        <time>2026-05-15T13:48:08+02:00</time>
      </trkpt>
      <trkpt lat="47.32934" lon="5.45936">
        <ele>189.60059</ele>
        <time>2026-05-15T13:48:09+02:00</time>
      </trkpt>
      <trkpt lat="47.32935" lon="5.45941">
        <ele>189.60059</ele>
        <time>2026-05-15T13:48:10+02:00</time>
      </trkpt>
      <trkpt lat="47.32937" lon="5.45945">
        <ele>189.60059</ele>
        <time>2026-05-15T13:48:11+02:00</time>
      </trkpt>
      <trkpt lat="47.32939" lon="5.45947">
        <ele>189.60059</ele>
        <time>2026-05-15T13:48:12+02:00</time>
      </trkpt>
      <trkpt lat="47.32941" lon="5.45946">
        <ele>189.7998</ele>
        <time>2026-05-15T13:48:13+02:00</time>
      </trkpt>
      <trkpt lat="47.32944" lon="5.45945">
        <ele>189.7998</ele>
        <time>2026-05-15T13:48:14+02:00</time>
      </trkpt>
      <trkpt lat="47.32948" lon="5.45943">
        <ele>190</ele>
        <time>2026-05-15T13:48:15+02:00</time>
      </trkpt>
      <trkpt lat="47.32951" lon="5.45941">
        <ele>190</ele>
        <time>2026-05-15T13:48:16+02:00</time>
      </trkpt>
      <trkpt lat="47.32955" lon="5.45939">
        <ele>190.2002</ele>
        <time>2026-05-15T13:48:17+02:00</time>
      </trkpt>
      <trkpt lat="47.32959" lon="5.45938">
        <ele>190.5</ele>
        <time>2026-05-15T13:48:18+02:00</time>
      </trkpt>
      <trkpt lat="47.32963" lon="5.45936">
        <ele>190.5</ele>
        <time>2026-05-15T13:48:19+02:00</time>
      </trkpt>
      <trkpt lat="47.32966" lon="5.45934">
        <ele>190.7002</ele>
        <time>2026-05-15T13:48:20+02:00</time>
      </trkpt>
      <trkpt lat="47.3297" lon="5.45932">
        <ele>190.90039</ele>
        <time>2026-05-15T13:48:21+02:00</time>
      </trkpt>
      <trkpt lat="47.32973" lon="5.4593">
        <ele>190.90039</ele>
        <time>2026-05-15T13:48:22+02:00</time>
      </trkpt>
      <trkpt lat="47.32977" lon="5.45928">
        <ele>191.2002</ele>
        <time>2026-05-15T13:48:23+02:00</time>
      </trkpt>
      <trkpt lat="47.32981" lon="5.45925">
        <ele>191.40039</ele>
        <time>2026-05-15T13:48:24+02:00</time>
      </trkpt>
      <trkpt lat="47.32985" lon="5.45922">
        <ele>191.40039</ele>
        <time>2026-05-15T13:48:25+02:00</time>
      </trkpt>
      <trkpt lat="47.32989" lon="5.45919">
        <ele>191.60059</ele>
        <time>2026-05-15T13:48:26+02:00</time>
      </trkpt>
      <trkpt lat="47.32993" lon="5.45916">
        <ele>191.7002</ele>
        <time>2026-05-15T13:48:27+02:00</time>
      </trkpt>
      <trkpt lat="47.32997" lon="5.45913">
        <ele>191.7002</ele>
        <time>2026-05-15T13:48:28+02:00</time>
      </trkpt>
      <trkpt lat="47.33001" lon="5.4591">
        <ele>191.7002</ele>
        <time>2026-05-15T13:48:29+02:00</time>
      </trkpt>
      <trkpt lat="47.33005" lon="5.45908">
        <ele>191.7002</ele>
        <time>2026-05-15T13:48:30+02:00</time>
      </trkpt>
      <trkpt lat="47.33009" lon="5.45905">
        <ele>191.7002</ele>
        <time>2026-05-15T13:48:31+02:00</time>
      </trkpt>
      <trkpt lat="47.33013" lon="5.45902">
        <ele>191.7002</ele>
        <time>2026-05-15T13:48:32+02:00</time>
      </trkpt>
      <trkpt lat="47.33016" lon="5.459">
        <ele>191.60059</ele>
        <time>2026-05-15T13:48:33+02:00</time>
      </trkpt>
      <trkpt lat="47.3302" lon="5.45897">
        <ele>191.60059</ele>
        <time>2026-05-15T13:48:34+02:00</time>
      </trkpt>
      <trkpt lat="47.33024" lon="5.45894">
        <ele>191.60059</ele>
        <time>2026-05-15T13:48:35+02:00</time>
      </trkpt>
      <trkpt lat="47.33028" lon="5.45891">
        <ele>191.5</ele>
        <time>2026-05-15T13:48:36+02:00</time>
      </trkpt>
      <trkpt lat="47.33032" lon="5.45888">
        <ele>191.5</ele>
        <time>2026-05-15T13:48:37+02:00</time>
      </trkpt>
      <trkpt lat="47.33036" lon="5.45886">
        <ele>191.5</ele>
        <time>2026-05-15T13:48:38+02:00</time>
      </trkpt>
      <trkpt lat="47.3304" lon="5.45883">
        <ele>191.2998</ele>
        <time>2026-05-15T13:48:39+02:00</time>
      </trkpt>
      <trkpt lat="47.33043" lon="5.4588">
        <ele>191.2998</ele>
        <time>2026-05-15T13:48:40+02:00</time>
      </trkpt>
      <trkpt lat="47.33045" lon="5.45878">
        <ele>191.2002</ele>
        <time>2026-05-15T13:48:41+02:00</time>
      </trkpt>
      <trkpt lat="47.33047" lon="5.45877">
        <ele>191.2002</ele>
        <time>2026-05-15T13:48:42+02:00</time>
      </trkpt>
      <trkpt lat="47.3305" lon="5.45878">
        <ele>191.2002</ele>
        <time>2026-05-15T13:48:43+02:00</time>
      </trkpt>
      <trkpt lat="47.33051" lon="5.45881">
        <ele>191.10059</ele>
        <time>2026-05-15T13:48:44+02:00</time>
      </trkpt>
      <trkpt lat="47.33053" lon="5.45884">
        <ele>191.2002</ele>
        <time>2026-05-15T13:48:45+02:00</time>
      </trkpt>
      <trkpt lat="47.33055" lon="5.45888">
        <ele>191.2002</ele>
        <time>2026-05-15T13:48:46+02:00</time>
      </trkpt>
      <trkpt lat="47.33057" lon="5.45893">
        <ele>191.2002</ele>
        <time>2026-05-15T13:48:47+02:00</time>
      </trkpt>
      <trkpt lat="47.33059" lon="5.45898">
        <ele>191.2002</ele>
        <time>2026-05-15T13:48:48+02:00</time>
      </trkpt>
      <trkpt lat="47.33061" lon="5.45903">
        <ele>191.2002</ele>
        <time>2026-05-15T13:48:49+02:00</time>
      </trkpt>
      <trkpt lat="47.33064" lon="5.45908">
        <ele>191.2002</ele>
        <time>2026-05-15T13:48:50+02:00</time>
      </trkpt>
      <trkpt lat="47.33066" lon="5.45914">
        <ele>191.2002</ele>
        <time>2026-05-15T13:48:51+02:00</time>
      </trkpt>
      <trkpt lat="47.33068" lon="5.45919">
        <ele>191.10059</ele>
        <time>2026-05-15T13:48:52+02:00</time>
      </trkpt>
      <trkpt lat="47.33071" lon="5.45925">
        <ele>191.10059</ele>
        <time>2026-05-15T13:48:53+02:00</time>
      </trkpt>
      <trkpt lat="47.33074" lon="5.4593">
        <ele>191</ele>
        <time>2026-05-15T13:48:54+02:00</time>
      </trkpt>
      <trkpt lat="47.33076" lon="5.45935">
        <ele>190.90039</ele>
        <time>2026-05-15T13:48:55+02:00</time>
      </trkpt>
      <trkpt lat="47.33079" lon="5.4594">
        <ele>190.90039</ele>
        <time>2026-05-15T13:48:56+02:00</time>
      </trkpt>
      <trkpt lat="47.33081" lon="5.45946">
        <ele>190.7002</ele>
        <time>2026-05-15T13:48:57+02:00</time>
      </trkpt>
      <trkpt lat="47.33084" lon="5.45952">
        <ele>190.60059</ele>
        <time>2026-05-15T13:48:58+02:00</time>
      </trkpt>
      <trkpt lat="47.33087" lon="5.45957">
        <ele>190.5</ele>
        <time>2026-05-15T13:48:59+02:00</time>
      </trkpt>
      <trkpt lat="47.33089" lon="5.45963">
        <ele>190.5</ele>
        <time>2026-05-15T13:49:00+02:00</time>
      </trkpt>
      <trkpt lat="47.33092" lon="5.45969">
        <ele>190.40039</ele>
        <time>2026-05-15T13:49:01+02:00</time>
      </trkpt>
      <trkpt lat="47.33095" lon="5.45974">
        <ele>190.2998</ele>
        <time>2026-05-15T13:49:02+02:00</time>
      </trkpt>
      <trkpt lat="47.33098" lon="5.45979">
        <ele>190.10059</ele>
        <time>2026-05-15T13:49:03+02:00</time>
      </trkpt>
      <trkpt lat="47.33101" lon="5.45985">
        <ele>190.10059</ele>
        <time>2026-05-15T13:49:04+02:00</time>
      </trkpt>
      <trkpt lat="47.33104" lon="5.45991">
        <ele>190</ele>
        <time>2026-05-15T13:49:05+02:00</time>
      </trkpt>
      <trkpt lat="47.33107" lon="5.45996">
        <ele>189.90039</ele>
        <time>2026-05-15T13:49:06+02:00</time>
      </trkpt>
      <trkpt lat="47.3311" lon="5.46002">
        <ele>189.7998</ele>
        <time>2026-05-15T13:49:07+02:00</time>
      </trkpt>
      <trkpt lat="47.33113" lon="5.46007">
        <ele>189.7002</ele>
        <time>2026-05-15T13:49:08+02:00</time>
      </trkpt>
      <trkpt lat="47.33117" lon="5.46013">
        <ele>189.60059</ele>
        <time>2026-05-15T13:49:09+02:00</time>
      </trkpt>
      <trkpt lat="47.3312" lon="5.46018">
        <ele>189.60059</ele>
        <time>2026-05-15T13:49:10+02:00</time>
      </trkpt>
      <trkpt lat="47.33124" lon="5.46023">
        <ele>189.5</ele>
        <time>2026-05-15T13:49:11+02:00</time>
      </trkpt>
      <trkpt lat="47.33127" lon="5.46028">
        <ele>189.5</ele>
        <time>2026-05-15T13:49:12+02:00</time>
      </trkpt>
      <trkpt lat="47.33131" lon="5.46033">
        <ele>189.40039</ele>
        <time>2026-05-15T13:49:13+02:00</time>
      </trkpt>
      <trkpt lat="47.33135" lon="5.46039">
        <ele>189.40039</ele>
        <time>2026-05-15T13:49:14+02:00</time>
      </trkpt>
      <trkpt lat="47.33138" lon="5.46044">
        <ele>189.2998</ele>
        <time>2026-05-15T13:49:15+02:00</time>
      </trkpt>
      <trkpt lat="47.33141" lon="5.46049">
        <ele>189.2998</ele>
        <time>2026-05-15T13:49:16+02:00</time>
      </trkpt>
      <trkpt lat="47.33145" lon="5.46054">
        <ele>189.2998</ele>
        <time>2026-05-15T13:49:17+02:00</time>
      </trkpt>
      <trkpt lat="47.33149" lon="5.4606">
        <ele>189.2998</ele>
        <time>2026-05-15T13:49:18+02:00</time>
      </trkpt>
      <trkpt lat="47.33153" lon="5.46065">
        <ele>189.2002</ele>
        <time>2026-05-15T13:49:19+02:00</time>
      </trkpt>
      <trkpt lat="47.33156" lon="5.4607">
        <ele>189.2002</ele>
        <time>2026-05-15T13:49:20+02:00</time>
      </trkpt>
      <trkpt lat="47.3316" lon="5.46074">
        <ele>189.2002</ele>
        <time>2026-05-15T13:49:21+02:00</time>
      </trkpt>
      <trkpt lat="47.33164" lon="5.46079">
        <ele>189.10059</ele>
        <time>2026-05-15T13:49:22+02:00</time>
      </trkpt>
      <trkpt lat="47.33167" lon="5.46084">
        <ele>189.10059</ele>
        <time>2026-05-15T13:49:23+02:00</time>
      </trkpt>
      <trkpt lat="47.33171" lon="5.46088">
        <ele>189.10059</ele>
        <time>2026-05-15T13:49:24+02:00</time>
      </trkpt>
      <trkpt lat="47.33174" lon="5.46093">
        <ele>189</ele>
        <time>2026-05-15T13:49:25+02:00</time>
      </trkpt>
      <trkpt lat="47.33178" lon="5.46098">
        <ele>189</ele>
        <time>2026-05-15T13:49:26+02:00</time>
      </trkpt>
      <trkpt lat="47.33181" lon="5.46103">
        <ele>188.90039</ele>
        <time>2026-05-15T13:49:27+02:00</time>
      </trkpt>
      <trkpt lat="47.33185" lon="5.46108">
        <ele>188.7998</ele>
        <time>2026-05-15T13:49:28+02:00</time>
      </trkpt>
      <trkpt lat="47.33188" lon="5.46113">
        <ele>188.7998</ele>
        <time>2026-05-15T13:49:29+02:00</time>
      </trkpt>
      <trkpt lat="47.33191" lon="5.46118">
        <ele>188.7002</ele>
        <time>2026-05-15T13:49:30+02:00</time>
      </trkpt>
      <trkpt lat="47.33194" lon="5.46124">
        <ele>188.60059</ele>
        <time>2026-05-15T13:49:31+02:00</time>
      </trkpt>
      <trkpt lat="47.33196" lon="5.46131">
        <ele>188.60059</ele>
        <time>2026-05-15T13:49:32+02:00</time>
      </trkpt>
      <trkpt lat="47.33198" lon="5.46137">
        <ele>188.5</ele>
        <time>2026-05-15T13:49:33+02:00</time>
      </trkpt>
      <trkpt lat="47.33199" lon="5.46144">
        <ele>188.40039</ele>
        <time>2026-05-15T13:49:34+02:00</time>
      </trkpt>
      <trkpt lat="47.33201" lon="5.46151">
        <ele>188.40039</ele>
        <time>2026-05-15T13:49:35+02:00</time>
      </trkpt>
      <trkpt lat="47.33201" lon="5.46158">
        <ele>188.2998</ele>
        <time>2026-05-15T13:49:36+02:00</time>
      </trkpt>
      <trkpt lat="47.33201" lon="5.46165">
        <ele>188.2998</ele>
        <time>2026-05-15T13:49:37+02:00</time>
      </trkpt>
      <trkpt lat="47.33199" lon="5.46173">
        <ele>188.2998</ele>
        <time>2026-05-15T13:49:38+02:00</time>
      </trkpt>
      <trkpt lat="47.33198" lon="5.4618">
        <ele>188.2002</ele>
        <time>2026-05-15T13:49:39+02:00</time>
      </trkpt>
      <trkpt lat="47.33196" lon="5.46187">
        <ele>188.2998</ele>
        <time>2026-05-15T13:49:40+02:00</time>
      </trkpt>
      <trkpt lat="47.33194" lon="5.46193">
        <ele>188.2002</ele>
        <time>2026-05-15T13:49:41+02:00</time>
      </trkpt>
      <trkpt lat="47.33191" lon="5.46199">
        <ele>188.2002</ele>
        <time>2026-05-15T13:49:42+02:00</time>
      </trkpt>
      <trkpt lat="47.33188" lon="5.46205">
        <ele>188.2998</ele>
        <time>2026-05-15T13:49:43+02:00</time>
      </trkpt>
      <trkpt lat="47.33185" lon="5.46211">
        <ele>188.2002</ele>
        <time>2026-05-15T13:49:44+02:00</time>
      </trkpt>
      <trkpt lat="47.33182" lon="5.46217">
        <ele>188.2998</ele>
        <time>2026-05-15T13:49:45+02:00</time>
      </trkpt>
      <trkpt lat="47.33178" lon="5.46222">
        <ele>188.2998</ele>
        <time>2026-05-15T13:49:46+02:00</time>
      </trkpt>
      <trkpt lat="47.33175" lon="5.46228">
        <ele>188.2002</ele>
        <time>2026-05-15T13:49:47+02:00</time>
      </trkpt>
      <trkpt lat="47.33172" lon="5.46234">
        <ele>188.2002</ele>
        <time>2026-05-15T13:49:48+02:00</time>
      </trkpt>
      <trkpt lat="47.33169" lon="5.46239">
        <ele>188.10059</ele>
        <time>2026-05-15T13:49:49+02:00</time>
      </trkpt>
      <trkpt lat="47.33166" lon="5.46245">
        <ele>188.10059</ele>
        <time>2026-05-15T13:49:50+02:00</time>
      </trkpt>
      <trkpt lat="47.33162" lon="5.46251">
        <ele>188.10059</ele>
        <time>2026-05-15T13:49:51+02:00</time>
      </trkpt>
      <trkpt lat="47.3316" lon="5.46257">
        <ele>188.10059</ele>
        <time>2026-05-15T13:49:52+02:00</time>
      </trkpt>
      <trkpt lat="47.33157" lon="5.46262">
        <ele>188</ele>
        <time>2026-05-15T13:49:53+02:00</time>
      </trkpt>
      <trkpt lat="47.33154" lon="5.46268">
        <ele>188</ele>
        <time>2026-05-15T13:49:54+02:00</time>
      </trkpt>
      <trkpt lat="47.3315" lon="5.46274">
        <ele>188</ele>
        <time>2026-05-15T13:49:55+02:00</time>
      </trkpt>
      <trkpt lat="47.33147" lon="5.46279">
        <ele>188</ele>
        <time>2026-05-15T13:49:56+02:00</time>
      </trkpt>
      <trkpt lat="47.33144" lon="5.46285">
        <ele>188</ele>
        <time>2026-05-15T13:49:57+02:00</time>
      </trkpt>
      <trkpt lat="47.3314" lon="5.4629">
        <ele>188</ele>
        <time>2026-05-15T13:49:58+02:00</time>
      </trkpt>
      <trkpt lat="47.33137" lon="5.46296">
        <ele>188</ele>
        <time>2026-05-15T13:49:59+02:00</time>
      </trkpt>
      <trkpt lat="47.33134" lon="5.46302">
        <ele>188</ele>
        <time>2026-05-15T13:50:00+02:00</time>
      </trkpt>
      <trkpt lat="47.33131" lon="5.46308">
        <ele>188.10059</ele>
        <time>2026-05-15T13:50:01+02:00</time>
      </trkpt>
      <trkpt lat="47.33128" lon="5.46313">
        <ele>188.10059</ele>
        <time>2026-05-15T13:50:02+02:00</time>
      </trkpt>
      <trkpt lat="47.33124" lon="5.46319">
        <ele>188.2002</ele>
        <time>2026-05-15T13:50:03+02:00</time>
      </trkpt>
      <trkpt lat="47.33122" lon="5.46325">
        <ele>188.2002</ele>
        <time>2026-05-15T13:50:04+02:00</time>
      </trkpt>
      <trkpt lat="47.3312" lon="5.46332">
        <ele>188.2002</ele>
        <time>2026-05-15T13:50:05+02:00</time>
      </trkpt>
      <trkpt lat="47.33117" lon="5.46338">
        <ele>188.2002</ele>
        <time>2026-05-15T13:50:06+02:00</time>
      </trkpt>
      <trkpt lat="47.33116" lon="5.46345">
        <ele>188.2002</ele>
        <time>2026-05-15T13:50:07+02:00</time>
      </trkpt>
      <trkpt lat="47.33115" lon="5.46353">
        <ele>188.2002</ele>
        <time>2026-05-15T13:50:08+02:00</time>
      </trkpt>
      <trkpt lat="47.33115" lon="5.4636">
        <ele>188.10059</ele>
        <time>2026-05-15T13:50:09+02:00</time>
      </trkpt>
      <trkpt lat="47.33115" lon="5.46368">
        <ele>188</ele>
        <time>2026-05-15T13:50:10+02:00</time>
      </trkpt>
      <trkpt lat="47.33116" lon="5.46375">
        <ele>187.7002</ele>
        <time>2026-05-15T13:50:11+02:00</time>
      </trkpt>
      <trkpt lat="47.33116" lon="5.46382">
        <ele>187.2998</ele>
        <time>2026-05-15T13:50:12+02:00</time>
      </trkpt>
      <trkpt lat="47.33118" lon="5.46389">
        <ele>187.2998</ele>
        <time>2026-05-15T13:50:13+02:00</time>
      </trkpt>
      <trkpt lat="47.3312" lon="5.46396">
        <ele>186.90039</ele>
        <time>2026-05-15T13:50:14+02:00</time>
      </trkpt>
      <trkpt lat="47.33122" lon="5.46402">
        <ele>186</ele>
        <time>2026-05-15T13:50:15+02:00</time>
      </trkpt>
      <trkpt lat="47.33125" lon="5.46408">
        <ele>185.2998</ele>
        <time>2026-05-15T13:50:16+02:00</time>
      </trkpt>
      <trkpt lat="47.33128" lon="5.46414">
        <ele>185.10059</ele>
        <time>2026-05-15T13:50:17+02:00</time>
      </trkpt>
      <trkpt lat="47.33132" lon="5.4642">
        <ele>184.10059</ele>
        <time>2026-05-15T13:50:18+02:00</time>
      </trkpt>
      <trkpt lat="47.33136" lon="5.46425">
        <ele>183.40039</ele>
        <time>2026-05-15T13:50:19+02:00</time>
      </trkpt>
      <trkpt lat="47.33139" lon="5.4643">
        <ele>183.2002</ele>
        <time>2026-05-15T13:50:20+02:00</time>
      </trkpt>
      <trkpt lat="47.33143" lon="5.46436">
        <ele>182.60059</ele>
        <time>2026-05-15T13:50:21+02:00</time>
      </trkpt>
      <trkpt lat="47.33147" lon="5.46441">
        <ele>182.60059</ele>
        <time>2026-05-15T13:50:22+02:00</time>
      </trkpt>
      <trkpt lat="47.33151" lon="5.46446">
        <ele>182.40039</ele>
        <time>2026-05-15T13:50:23+02:00</time>
      </trkpt>
      <trkpt lat="47.33155" lon="5.46451">
        <ele>182.2002</ele>
        <time>2026-05-15T13:50:24+02:00</time>
      </trkpt>
      <trkpt lat="47.33159" lon="5.46456">
        <ele>182.2002</ele>
        <time>2026-05-15T13:50:25+02:00</time>
      </trkpt>
      <trkpt lat="47.33162" lon="5.46461">
        <ele>182.2998</ele>
        <time>2026-05-15T13:50:26+02:00</time>
      </trkpt>
      <trkpt lat="47.33166" lon="5.46466">
        <ele>182.2998</ele>
        <time>2026-05-15T13:50:27+02:00</time>
      </trkpt>
      <trkpt lat="47.33169" lon="5.46471">
        <ele>182.2998</ele>
        <time>2026-05-15T13:50:28+02:00</time>
      </trkpt>
      <trkpt lat="47.33173" lon="5.46476">
        <ele>182.40039</ele>
        <time>2026-05-15T13:50:29+02:00</time>
      </trkpt>
      <trkpt lat="47.33176" lon="5.46481">
        <ele>182.40039</ele>
        <time>2026-05-15T13:50:30+02:00</time>
      </trkpt>
      <trkpt lat="47.3318" lon="5.46486">
        <ele>182.40039</ele>
        <time>2026-05-15T13:50:31+02:00</time>
      </trkpt>
      <trkpt lat="47.33184" lon="5.46492">
        <ele>182.40039</ele>
        <time>2026-05-15T13:50:32+02:00</time>
      </trkpt>
      <trkpt lat="47.33188" lon="5.46497">
        <ele>182.40039</ele>
        <time>2026-05-15T13:50:33+02:00</time>
      </trkpt>
      <trkpt lat="47.33192" lon="5.46502">
        <ele>182.40039</ele>
        <time>2026-05-15T13:50:34+02:00</time>
      </trkpt>
      <trkpt lat="47.33196" lon="5.46508">
        <ele>182.40039</ele>
        <time>2026-05-15T13:50:35+02:00</time>
      </trkpt>
      <trkpt lat="47.332" lon="5.46513">
        <ele>182.40039</ele>
        <time>2026-05-15T13:50:36+02:00</time>
      </trkpt>
      <trkpt lat="47.33204" lon="5.46518">
        <ele>182.40039</ele>
        <time>2026-05-15T13:50:37+02:00</time>
      </trkpt>
      <trkpt lat="47.33209" lon="5.46524">
        <ele>182.40039</ele>
        <time>2026-05-15T13:50:38+02:00</time>
      </trkpt>
      <trkpt lat="47.33212" lon="5.4653">
        <ele>182.40039</ele>
        <time>2026-05-15T13:50:39+02:00</time>
      </trkpt>
      <trkpt lat="47.33217" lon="5.46536">
        <ele>182.40039</ele>
        <time>2026-05-15T13:50:40+02:00</time>
      </trkpt>
      <trkpt lat="47.33221" lon="5.46542">
        <ele>182.40039</ele>
        <time>2026-05-15T13:50:41+02:00</time>
      </trkpt>
      <trkpt lat="47.33225" lon="5.46548">
        <ele>182.40039</ele>
        <time>2026-05-15T13:50:42+02:00</time>
      </trkpt>
      <trkpt lat="47.3323" lon="5.46554">
        <ele>182.40039</ele>
        <time>2026-05-15T13:50:43+02:00</time>
      </trkpt>
      <trkpt lat="47.33234" lon="5.46561">
        <ele>182.40039</ele>
        <time>2026-05-15T13:50:44+02:00</time>
      </trkpt>
      <trkpt lat="47.33239" lon="5.46569">
        <ele>182.40039</ele>
        <time>2026-05-15T13:50:45+02:00</time>
      </trkpt>
      <trkpt lat="47.33244" lon="5.46577">
        <ele>182.40039</ele>
        <time>2026-05-15T13:50:46+02:00</time>
      </trkpt>
      <trkpt lat="47.33249" lon="5.46585">
        <ele>182.40039</ele>
        <time>2026-05-15T13:50:47+02:00</time>
      </trkpt>
      <trkpt lat="47.33254" lon="5.46594">
        <ele>182.2998</ele>
        <time>2026-05-15T13:50:48+02:00</time>
      </trkpt>
      <trkpt lat="47.33259" lon="5.46603">
        <ele>182.40039</ele>
        <time>2026-05-15T13:50:49+02:00</time>
      </trkpt>
      <trkpt lat="47.33264" lon="5.46612">
        <ele>182.40039</ele>
        <time>2026-05-15T13:50:50+02:00</time>
      </trkpt>
      <trkpt lat="47.3327" lon="5.46621">
        <ele>182.40039</ele>
        <time>2026-05-15T13:50:51+02:00</time>
      </trkpt>
      <trkpt lat="47.33275" lon="5.46631">
        <ele>182.40039</ele>
        <time>2026-05-15T13:50:52+02:00</time>
      </trkpt>
      <trkpt lat="47.33279" lon="5.4664">
        <ele>182.40039</ele>
        <time>2026-05-15T13:50:53+02:00</time>
      </trkpt>
      <trkpt lat="47.33284" lon="5.46649">
        <ele>182.40039</ele>
        <time>2026-05-15T13:50:54+02:00</time>
      </trkpt>
      <trkpt lat="47.33288" lon="5.46658">
        <ele>182.40039</ele>
        <time>2026-05-15T13:50:55+02:00</time>
      </trkpt>
      <trkpt lat="47.33291" lon="5.46667">
        <ele>182.40039</ele>
        <time>2026-05-15T13:50:56+02:00</time>
      </trkpt>
      <trkpt lat="47.33294" lon="5.46676">
        <ele>182.40039</ele>
        <time>2026-05-15T13:50:57+02:00</time>
      </trkpt>
      <trkpt lat="47.33298" lon="5.46685">
        <ele>182.40039</ele>
        <time>2026-05-15T13:50:58+02:00</time>
      </trkpt>
      <trkpt lat="47.33301" lon="5.46694">
        <ele>182.40039</ele>
        <time>2026-05-15T13:50:59+02:00</time>
      </trkpt>
      <trkpt lat="47.33304" lon="5.46704">
        <ele>182.40039</ele>
        <time>2026-05-15T13:51:00+02:00</time>
      </trkpt>
      <trkpt lat="47.33306" lon="5.46713">
        <ele>182.40039</ele>
        <time>2026-05-15T13:51:01+02:00</time>
      </trkpt>
      <trkpt lat="47.33309" lon="5.46723">
        <ele>182.40039</ele>
        <time>2026-05-15T13:51:02+02:00</time>
      </trkpt>
      <trkpt lat="47.3331" lon="5.46733">
        <ele>182.7998</ele>
        <time>2026-05-15T13:51:03+02:00</time>
      </trkpt>
      <trkpt lat="47.33312" lon="5.46743">
        <ele>183.5</ele>
        <time>2026-05-15T13:51:04+02:00</time>
      </trkpt>
      <trkpt lat="47.33314" lon="5.46753">
        <ele>184.10059</ele>
        <time>2026-05-15T13:51:05+02:00</time>
      </trkpt>
      <trkpt lat="47.33315" lon="5.46762">
        <ele>184.40039</ele>
        <time>2026-05-15T13:51:06+02:00</time>
      </trkpt>
      <trkpt lat="47.33317" lon="5.46773">
        <ele>184.5</ele>
        <time>2026-05-15T13:51:07+02:00</time>
      </trkpt>
      <trkpt lat="47.33317" lon="5.46783">
        <ele>184.5</ele>
        <time>2026-05-15T13:51:08+02:00</time>
      </trkpt>
      <trkpt lat="47.33318" lon="5.46792">
        <ele>184.40039</ele>
        <time>2026-05-15T13:51:09+02:00</time>
      </trkpt>
      <trkpt lat="47.33319" lon="5.46802">
        <ele>184.40039</ele>
        <time>2026-05-15T13:51:10+02:00</time>
      </trkpt>
      <trkpt lat="47.3332" lon="5.46812">
        <ele>184.40039</ele>
        <time>2026-05-15T13:51:11+02:00</time>
      </trkpt>
      <trkpt lat="47.3332" lon="5.46821">
        <ele>184.40039</ele>
        <time>2026-05-15T13:51:12+02:00</time>
      </trkpt>
      <trkpt lat="47.33321" lon="5.4683">
        <ele>184.40039</ele>
        <time>2026-05-15T13:51:13+02:00</time>
      </trkpt>
      <trkpt lat="47.33321" lon="5.46839">
        <ele>184.40039</ele>
        <time>2026-05-15T13:51:14+02:00</time>
      </trkpt>
      <trkpt lat="47.33322" lon="5.46849">
        <ele>184.40039</ele>
        <time>2026-05-15T13:51:15+02:00</time>
      </trkpt>
      <trkpt lat="47.33322" lon="5.46858">
        <ele>184.40039</ele>
        <time>2026-05-15T13:51:16+02:00</time>
      </trkpt>
      <trkpt lat="47.33322" lon="5.46868">
        <ele>184.40039</ele>
        <time>2026-05-15T13:51:17+02:00</time>
      </trkpt>
      <trkpt lat="47.33322" lon="5.46878">
        <ele>184.40039</ele>
        <time>2026-05-15T13:51:18+02:00</time>
      </trkpt>
      <trkpt lat="47.33321" lon="5.46887">
        <ele>184.40039</ele>
        <time>2026-05-15T13:51:19+02:00</time>
      </trkpt>
      <trkpt lat="47.33321" lon="5.46897">
        <ele>184.40039</ele>
        <time>2026-05-15T13:51:20+02:00</time>
      </trkpt>
      <trkpt lat="47.33321" lon="5.46906">
        <ele>184.40039</ele>
        <time>2026-05-15T13:51:21+02:00</time>
      </trkpt>
      <trkpt lat="47.3332" lon="5.46916">
        <ele>184.40039</ele>
        <time>2026-05-15T13:51:22+02:00</time>
      </trkpt>
      <trkpt lat="47.3332" lon="5.46925">
        <ele>184.40039</ele>
        <time>2026-05-15T13:51:23+02:00</time>
      </trkpt>
      <trkpt lat="47.33319" lon="5.46935">
        <ele>184.40039</ele>
        <time>2026-05-15T13:51:24+02:00</time>
      </trkpt>
      <trkpt lat="47.33318" lon="5.46945">
        <ele>184.2998</ele>
        <time>2026-05-15T13:51:25+02:00</time>
      </trkpt>
      <trkpt lat="47.33317" lon="5.46954">
        <ele>184.2998</ele>
        <time>2026-05-15T13:51:26+02:00</time>
      </trkpt>
      <trkpt lat="47.33316" lon="5.46963">
        <ele>184.2998</ele>
        <time>2026-05-15T13:51:27+02:00</time>
      </trkpt>
      <trkpt lat="47.33315" lon="5.46973">
        <ele>184.2998</ele>
        <time>2026-05-15T13:51:28+02:00</time>
      </trkpt>
      <trkpt lat="47.33314" lon="5.46983">
        <ele>184.2998</ele>
        <time>2026-05-15T13:51:29+02:00</time>
      </trkpt>
      <trkpt lat="47.33312" lon="5.46992">
        <ele>184.2998</ele>
        <time>2026-05-15T13:51:30+02:00</time>
      </trkpt>
      <trkpt lat="47.3331" lon="5.47002">
        <ele>184.2998</ele>
        <time>2026-05-15T13:51:31+02:00</time>
      </trkpt>
      <trkpt lat="47.33309" lon="5.47011">
        <ele>184.2998</ele>
        <time>2026-05-15T13:51:32+02:00</time>
      </trkpt>
      <trkpt lat="47.33307" lon="5.47021">
        <ele>184.2998</ele>
        <time>2026-05-15T13:51:33+02:00</time>
      </trkpt>
      <trkpt lat="47.33305" lon="5.47031">
        <ele>184.40039</ele>
        <time>2026-05-15T13:51:34+02:00</time>
      </trkpt>
      <trkpt lat="47.33303" lon="5.4704">
        <ele>184.40039</ele>
        <time>2026-05-15T13:51:35+02:00</time>
      </trkpt>
      <trkpt lat="47.33301" lon="5.4705">
        <ele>184.2998</ele>
        <time>2026-05-15T13:51:36+02:00</time>
      </trkpt>
      <trkpt lat="47.333" lon="5.4706">
        <ele>184.2998</ele>
        <time>2026-05-15T13:51:37+02:00</time>
      </trkpt>
      <trkpt lat="47.33298" lon="5.4707">
        <ele>184.2998</ele>
        <time>2026-05-15T13:51:38+02:00</time>
      </trkpt>
      <trkpt lat="47.33295" lon="5.47079">
        <ele>184.2998</ele>
        <time>2026-05-15T13:51:39+02:00</time>
      </trkpt>
      <trkpt lat="47.33293" lon="5.47089">
        <ele>184.2998</ele>
        <time>2026-05-15T13:51:40+02:00</time>
      </trkpt>
      <trkpt lat="47.3329" lon="5.47098">
        <ele>184.2998</ele>
        <time>2026-05-15T13:51:41+02:00</time>
      </trkpt>
      <trkpt lat="47.33287" lon="5.47107">
        <ele>184.40039</ele>
        <time>2026-05-15T13:51:42+02:00</time>
      </trkpt>
      <trkpt lat="47.33285" lon="5.47115">
        <ele>184.40039</ele>
        <time>2026-05-15T13:51:43+02:00</time>
      </trkpt>
      <trkpt lat="47.33282" lon="5.47122">
        <ele>184.2998</ele>
        <time>2026-05-15T13:51:44+02:00</time>
      </trkpt>
      <trkpt lat="47.33279" lon="5.4713">
        <ele>184.2998</ele>
        <time>2026-05-15T13:51:45+02:00</time>
      </trkpt>
      <trkpt lat="47.33276" lon="5.47139">
        <ele>184.40039</ele>
        <time>2026-05-15T13:51:46+02:00</time>
      </trkpt>
      <trkpt lat="47.33272" lon="5.47147">
        <ele>184.5</ele>
        <time>2026-05-15T13:51:47+02:00</time>
      </trkpt>
      <trkpt lat="47.33269" lon="5.47155">
        <ele>184.40039</ele>
        <time>2026-05-15T13:51:48+02:00</time>
      </trkpt>
      <trkpt lat="47.33265" lon="5.47164">
        <ele>184.40039</ele>
        <time>2026-05-15T13:51:49+02:00</time>
      </trkpt>
      <trkpt lat="47.3326" lon="5.47171">
        <ele>184.40039</ele>
        <time>2026-05-15T13:51:50+02:00</time>
      </trkpt>
      <trkpt lat="47.33256" lon="5.47179">
        <ele>184.40039</ele>
        <time>2026-05-15T13:51:51+02:00</time>
      </trkpt>
      <trkpt lat="47.33252" lon="5.47187">
        <ele>184.40039</ele>
        <time>2026-05-15T13:51:52+02:00</time>
      </trkpt>
      <trkpt lat="47.33247" lon="5.47194">
        <ele>184.40039</ele>
        <time>2026-05-15T13:51:53+02:00</time>
      </trkpt>
      <trkpt lat="47.33243" lon="5.47202">
        <ele>184.40039</ele>
        <time>2026-05-15T13:51:54+02:00</time>
      </trkpt>
      <trkpt lat="47.33238" lon="5.47209">
        <ele>184.40039</ele>
        <time>2026-05-15T13:51:55+02:00</time>
      </trkpt>
      <trkpt lat="47.33233" lon="5.47216">
        <ele>184.40039</ele>
        <time>2026-05-15T13:51:56+02:00</time>
      </trkpt>
      <trkpt lat="47.33229" lon="5.47223">
        <ele>184.40039</ele>
        <time>2026-05-15T13:51:57+02:00</time>
      </trkpt>
      <trkpt lat="47.33225" lon="5.47229">
        <ele>184.2998</ele>
        <time>2026-05-15T13:51:58+02:00</time>
      </trkpt>
      <trkpt lat="47.3322" lon="5.47236">
        <ele>184.40039</ele>
        <time>2026-05-15T13:51:59+02:00</time>
      </trkpt>
      <trkpt lat="47.33216" lon="5.47243">
        <ele>184.40039</ele>
        <time>2026-05-15T13:52:00+02:00</time>
      </trkpt>
      <trkpt lat="47.33211" lon="5.47249">
        <ele>184.40039</ele>
        <time>2026-05-15T13:52:01+02:00</time>
      </trkpt>
      <trkpt lat="47.33207" lon="5.47256">
        <ele>184.40039</ele>
        <time>2026-05-15T13:52:02+02:00</time>
      </trkpt>
      <trkpt lat="47.33202" lon="5.47262">
        <ele>184.40039</ele>
        <time>2026-05-15T13:52:03+02:00</time>
      </trkpt>
      <trkpt lat="47.33198" lon="5.47269">
        <ele>184.2998</ele>
        <time>2026-05-15T13:52:04+02:00</time>
      </trkpt>
      <trkpt lat="47.33194" lon="5.47276">
        <ele>184.40039</ele>
        <time>2026-05-15T13:52:05+02:00</time>
      </trkpt>
      <trkpt lat="47.33189" lon="5.47282">
        <ele>184.40039</ele>
        <time>2026-05-15T13:52:06+02:00</time>
      </trkpt>
      <trkpt lat="47.33185" lon="5.47288">
        <ele>184.40039</ele>
        <time>2026-05-15T13:52:07+02:00</time>
      </trkpt>
      <trkpt lat="47.33181" lon="5.47295">
        <ele>184.40039</ele>
        <time>2026-05-15T13:52:08+02:00</time>
      </trkpt>
      <trkpt lat="47.33177" lon="5.47301">
        <ele>184.2998</ele>
        <time>2026-05-15T13:52:09+02:00</time>
      </trkpt>
      <trkpt lat="47.33173" lon="5.47308">
        <ele>184.40039</ele>
        <time>2026-05-15T13:52:10+02:00</time>
      </trkpt>
      <trkpt lat="47.33169" lon="5.47315">
        <ele>184.40039</ele>
        <time>2026-05-15T13:52:11+02:00</time>
      </trkpt>
      <trkpt lat="47.33164" lon="5.47323">
        <ele>184.40039</ele>
        <time>2026-05-15T13:52:12+02:00</time>
      </trkpt>
      <trkpt lat="47.33161" lon="5.4733">
        <ele>184.40039</ele>
        <time>2026-05-15T13:52:13+02:00</time>
      </trkpt>
      <trkpt lat="47.33158" lon="5.47338">
        <ele>184.2998</ele>
        <time>2026-05-15T13:52:14+02:00</time>
      </trkpt>
      <trkpt lat="47.33154" lon="5.47347">
        <ele>184.2998</ele>
        <time>2026-05-15T13:52:15+02:00</time>
      </trkpt>
      <trkpt lat="47.33151" lon="5.47354">
        <ele>184.2998</ele>
        <time>2026-05-15T13:52:16+02:00</time>
      </trkpt>
      <trkpt lat="47.33148" lon="5.47362">
        <ele>184.2998</ele>
        <time>2026-05-15T13:52:17+02:00</time>
      </trkpt>
      <trkpt lat="47.33146" lon="5.47371">
        <ele>184.2998</ele>
        <time>2026-05-15T13:52:18+02:00</time>
      </trkpt>
      <trkpt lat="47.33143" lon="5.47379">
        <ele>184.40039</ele>
        <time>2026-05-15T13:52:19+02:00</time>
      </trkpt>
      <trkpt lat="47.3314" lon="5.47387">
        <ele>184.40039</ele>
        <time>2026-05-15T13:52:20+02:00</time>
      </trkpt>
      <trkpt lat="47.33138" lon="5.47396">
        <ele>184.40039</ele>
        <time>2026-05-15T13:52:21+02:00</time>
      </trkpt>
      <trkpt lat="47.33136" lon="5.47405">
        <ele>184.40039</ele>
        <time>2026-05-15T13:52:22+02:00</time>
      </trkpt>
      <trkpt lat="47.33134" lon="5.47414">
        <ele>184.2998</ele>
        <time>2026-05-15T13:52:23+02:00</time>
      </trkpt>
      <trkpt lat="47.33132" lon="5.47423">
        <ele>184.2998</ele>
        <time>2026-05-15T13:52:24+02:00</time>
      </trkpt>
      <trkpt lat="47.3313" lon="5.47432">
        <ele>184.2002</ele>
        <time>2026-05-15T13:52:25+02:00</time>
      </trkpt>
      <trkpt lat="47.33129" lon="5.47442">
        <ele>184.2002</ele>
        <time>2026-05-15T13:52:26+02:00</time>
      </trkpt>
      <trkpt lat="47.33128" lon="5.47451">
        <ele>184.2002</ele>
        <time>2026-05-15T13:52:27+02:00</time>
      </trkpt>
      <trkpt lat="47.33127" lon="5.4746">
        <ele>184.10059</ele>
        <time>2026-05-15T13:52:28+02:00</time>
      </trkpt>
      <trkpt lat="47.33126" lon="5.4747">
        <ele>184.2002</ele>
        <time>2026-05-15T13:52:29+02:00</time>
      </trkpt>
      <trkpt lat="47.33126" lon="5.47479">
        <ele>184.2002</ele>
        <time>2026-05-15T13:52:30+02:00</time>
      </trkpt>
      <trkpt lat="47.33126" lon="5.47488">
        <ele>184.2002</ele>
        <time>2026-05-15T13:52:31+02:00</time>
      </trkpt>
      <trkpt lat="47.33126" lon="5.47498">
        <ele>184.2002</ele>
        <time>2026-05-15T13:52:32+02:00</time>
      </trkpt>
      <trkpt lat="47.33126" lon="5.47507">
        <ele>184.2002</ele>
        <time>2026-05-15T13:52:33+02:00</time>
      </trkpt>
      <trkpt lat="47.33127" lon="5.47516">
        <ele>184.2002</ele>
        <time>2026-05-15T13:52:34+02:00</time>
      </trkpt>
      <trkpt lat="47.33127" lon="5.47525">
        <ele>184.2002</ele>
        <time>2026-05-15T13:52:35+02:00</time>
      </trkpt>
      <trkpt lat="47.33128" lon="5.47535">
        <ele>184.2002</ele>
        <time>2026-05-15T13:52:36+02:00</time>
      </trkpt>
      <trkpt lat="47.33129" lon="5.47544">
        <ele>184.2002</ele>
        <time>2026-05-15T13:52:37+02:00</time>
      </trkpt>
      <trkpt lat="47.3313" lon="5.47553">
        <ele>184.2002</ele>
        <time>2026-05-15T13:52:38+02:00</time>
      </trkpt>
      <trkpt lat="47.33132" lon="5.47562">
        <ele>184.2002</ele>
        <time>2026-05-15T13:52:39+02:00</time>
      </trkpt>
      <trkpt lat="47.33133" lon="5.47571">
        <ele>184.2002</ele>
        <time>2026-05-15T13:52:40+02:00</time>
      </trkpt>
      <trkpt lat="47.33136" lon="5.4758">
        <ele>184.2002</ele>
        <time>2026-05-15T13:52:41+02:00</time>
      </trkpt>
      <trkpt lat="47.33138" lon="5.47589">
        <ele>184.2002</ele>
        <time>2026-05-15T13:52:42+02:00</time>
      </trkpt>
      <trkpt lat="47.3314" lon="5.47597">
        <ele>184.2002</ele>
        <time>2026-05-15T13:52:43+02:00</time>
      </trkpt>
      <trkpt lat="47.33143" lon="5.47606">
        <ele>184.2002</ele>
        <time>2026-05-15T13:52:44+02:00</time>
      </trkpt>
      <trkpt lat="47.33145" lon="5.47615">
        <ele>184.2002</ele>
        <time>2026-05-15T13:52:45+02:00</time>
      </trkpt>
      <trkpt lat="47.33148" lon="5.47623">
        <ele>184.2002</ele>
        <time>2026-05-15T13:52:46+02:00</time>
      </trkpt>
      <trkpt lat="47.33151" lon="5.47631">
        <ele>184.2002</ele>
        <time>2026-05-15T13:52:47+02:00</time>
      </trkpt>
      <trkpt lat="47.33154" lon="5.4764">
        <ele>184.2002</ele>
        <time>2026-05-15T13:52:48+02:00</time>
      </trkpt>
      <trkpt lat="47.33157" lon="5.47648">
        <ele>184.2002</ele>
        <time>2026-05-15T13:52:49+02:00</time>
      </trkpt>
      <trkpt lat="47.3316" lon="5.47656">
        <ele>184.2002</ele>
        <time>2026-05-15T13:52:50+02:00</time>
      </trkpt>
      <trkpt lat="47.33163" lon="5.47664">
        <ele>184.2002</ele>
        <time>2026-05-15T13:52:51+02:00</time>
      </trkpt>
      <trkpt lat="47.33166" lon="5.47672">
        <ele>184.2002</ele>
        <time>2026-05-15T13:52:52+02:00</time>
      </trkpt>
      <trkpt lat="47.33169" lon="5.4768">
        <ele>184.2002</ele>
        <time>2026-05-15T13:52:53+02:00</time>
      </trkpt>
      <trkpt lat="47.33173" lon="5.47688">
        <ele>184.2002</ele>
        <time>2026-05-15T13:52:54+02:00</time>
      </trkpt>
      <trkpt lat="47.33176" lon="5.47696">
        <ele>184.2002</ele>
        <time>2026-05-15T13:52:55+02:00</time>
      </trkpt>
      <trkpt lat="47.3318" lon="5.47704">
        <ele>184.2998</ele>
        <time>2026-05-15T13:52:56+02:00</time>
      </trkpt>
      <trkpt lat="47.33183" lon="5.47712">
        <ele>184.2998</ele>
        <time>2026-05-15T13:52:57+02:00</time>
      </trkpt>
      <trkpt lat="47.33187" lon="5.4772">
        <ele>184.2998</ele>
        <time>2026-05-15T13:52:58+02:00</time>
      </trkpt>
      <trkpt lat="47.3319" lon="5.47727">
        <ele>184.40039</ele>
        <time>2026-05-15T13:52:59+02:00</time>
      </trkpt>
      <trkpt lat="47.33194" lon="5.47735">
        <ele>184.40039</ele>
        <time>2026-05-15T13:53:00+02:00</time>
      </trkpt>
      <trkpt lat="47.33198" lon="5.47743">
        <ele>184.40039</ele>
        <time>2026-05-15T13:53:01+02:00</time>
      </trkpt>
      <trkpt lat="47.33201" lon="5.4775">
        <ele>184.40039</ele>
        <time>2026-05-15T13:53:02+02:00</time>
      </trkpt>
      <trkpt lat="47.33205" lon="5.47758">
        <ele>184.40039</ele>
        <time>2026-05-15T13:53:03+02:00</time>
      </trkpt>
      <trkpt lat="47.33209" lon="5.47766">
        <ele>184.40039</ele>
        <time>2026-05-15T13:53:04+02:00</time>
      </trkpt>
      <trkpt lat="47.33212" lon="5.47774">
        <ele>184.40039</ele>
        <time>2026-05-15T13:53:05+02:00</time>
      </trkpt>
      <trkpt lat="47.33215" lon="5.47782">
        <ele>184.40039</ele>
        <time>2026-05-15T13:53:06+02:00</time>
      </trkpt>
      <trkpt lat="47.33218" lon="5.47791">
        <ele>184.40039</ele>
        <time>2026-05-15T13:53:07+02:00</time>
      </trkpt>
      <trkpt lat="47.33221" lon="5.47799">
        <ele>184.40039</ele>
        <time>2026-05-15T13:53:08+02:00</time>
      </trkpt>
      <trkpt lat="47.33224" lon="5.47808">
        <ele>184.40039</ele>
        <time>2026-05-15T13:53:09+02:00</time>
      </trkpt>
      <trkpt lat="47.33226" lon="5.47816">
        <ele>184.2998</ele>
        <time>2026-05-15T13:53:10+02:00</time>
      </trkpt>
      <trkpt lat="47.33228" lon="5.47825">
        <ele>184.40039</ele>
        <time>2026-05-15T13:53:11+02:00</time>
      </trkpt>
      <trkpt lat="47.33231" lon="5.47834">
        <ele>184.2002</ele>
        <time>2026-05-15T13:53:12+02:00</time>
      </trkpt>
      <trkpt lat="47.33233" lon="5.47843">
        <ele>184.2998</ele>
        <time>2026-05-15T13:53:13+02:00</time>
      </trkpt>
      <trkpt lat="47.33235" lon="5.47852">
        <ele>184.2998</ele>
        <time>2026-05-15T13:53:14+02:00</time>
      </trkpt>
      <trkpt lat="47.33236" lon="5.47861">
        <ele>184.2998</ele>
        <time>2026-05-15T13:53:15+02:00</time>
      </trkpt>
      <trkpt lat="47.33238" lon="5.4787">
        <ele>184.10059</ele>
        <time>2026-05-15T13:53:16+02:00</time>
      </trkpt>
      <trkpt lat="47.33239" lon="5.47879">
        <ele>184.10059</ele>
        <time>2026-05-15T13:53:17+02:00</time>
      </trkpt>
      <trkpt lat="47.33241" lon="5.47888">
        <ele>184.10059</ele>
        <time>2026-05-15T13:53:18+02:00</time>
      </trkpt>
      <trkpt lat="47.33241" lon="5.47897">
        <ele>184.10059</ele>
        <time>2026-05-15T13:53:19+02:00</time>
      </trkpt>
      <trkpt lat="47.33243" lon="5.47906">
        <ele>184.10059</ele>
        <time>2026-05-15T13:53:20+02:00</time>
      </trkpt>
      <trkpt lat="47.33243" lon="5.47915">
        <ele>184.10059</ele>
        <time>2026-05-15T13:53:21+02:00</time>
      </trkpt>
      <trkpt lat="47.33243" lon="5.47924">
        <ele>184.10059</ele>
        <time>2026-05-15T13:53:22+02:00</time>
      </trkpt>
      <trkpt lat="47.33243" lon="5.47933">
        <ele>184.10059</ele>
        <time>2026-05-15T13:53:23+02:00</time>
      </trkpt>
      <trkpt lat="47.33243" lon="5.47942">
        <ele>184.10059</ele>
        <time>2026-05-15T13:53:24+02:00</time>
      </trkpt>
      <trkpt lat="47.33242" lon="5.47951">
        <ele>184.2002</ele>
        <time>2026-05-15T13:53:25+02:00</time>
      </trkpt>
      <trkpt lat="47.33241" lon="5.4796">
        <ele>184.2002</ele>
        <time>2026-05-15T13:53:26+02:00</time>
      </trkpt>
      <trkpt lat="47.3324" lon="5.4797">
        <ele>184.2002</ele>
        <time>2026-05-15T13:53:27+02:00</time>
      </trkpt>
      <trkpt lat="47.3324" lon="5.47979">
        <ele>184.2002</ele>
        <time>2026-05-15T13:53:28+02:00</time>
      </trkpt>
      <trkpt lat="47.33239" lon="5.47988">
        <ele>184.2002</ele>
        <time>2026-05-15T13:53:29+02:00</time>
      </trkpt>
      <trkpt lat="47.33237" lon="5.47997">
        <ele>184.2998</ele>
        <time>2026-05-15T13:53:30+02:00</time>
      </trkpt>
      <trkpt lat="47.33235" lon="5.48006">
        <ele>184.40039</ele>
        <time>2026-05-15T13:53:31+02:00</time>
      </trkpt>
      <trkpt lat="47.33233" lon="5.48015">
        <ele>184.2998</ele>
        <time>2026-05-15T13:53:32+02:00</time>
      </trkpt>
      <trkpt lat="47.33231" lon="5.48024">
        <ele>184.2998</ele>
        <time>2026-05-15T13:53:33+02:00</time>
      </trkpt>
      <trkpt lat="47.3323" lon="5.48033">
        <ele>184.2998</ele>
        <time>2026-05-15T13:53:34+02:00</time>
      </trkpt>
      <trkpt lat="47.33227" lon="5.48042">
        <ele>184.7002</ele>
        <time>2026-05-15T13:53:35+02:00</time>
      </trkpt>
      <trkpt lat="47.33225" lon="5.4805">
        <ele>184.7002</ele>
        <time>2026-05-15T13:53:36+02:00</time>
      </trkpt>
      <trkpt lat="47.33223" lon="5.48059">
        <ele>184.90039</ele>
        <time>2026-05-15T13:53:37+02:00</time>
      </trkpt>
      <trkpt lat="47.3322" lon="5.48067">
        <ele>185.40039</ele>
        <time>2026-05-15T13:53:38+02:00</time>
      </trkpt>
      <trkpt lat="47.33218" lon="5.48075">
        <ele>185.2998</ele>
        <time>2026-05-15T13:53:39+02:00</time>
      </trkpt>
      <trkpt lat="47.33215" lon="5.48083">
        <ele>186</ele>
        <time>2026-05-15T13:53:40+02:00</time>
      </trkpt>
      <trkpt lat="47.33212" lon="5.48091">
        <ele>185.90039</ele>
        <time>2026-05-15T13:53:41+02:00</time>
      </trkpt>
      <trkpt lat="47.33209" lon="5.48098">
        <ele>186.40039</ele>
        <time>2026-05-15T13:53:42+02:00</time>
      </trkpt>
      <trkpt lat="47.33206" lon="5.48106">
        <ele>185.7002</ele>
        <time>2026-05-15T13:53:43+02:00</time>
      </trkpt>
      <trkpt lat="47.33202" lon="5.48113">
        <ele>186.2002</ele>
        <time>2026-05-15T13:53:44+02:00</time>
      </trkpt>
      <trkpt lat="47.33198" lon="5.4812">
        <ele>186.2002</ele>
        <time>2026-05-15T13:53:45+02:00</time>
      </trkpt>
      <trkpt lat="47.33194" lon="5.48126">
        <ele>186.2998</ele>
        <time>2026-05-15T13:53:46+02:00</time>
      </trkpt>
      <trkpt lat="47.33191" lon="5.48132">
        <ele>186.7998</ele>
        <time>2026-05-15T13:53:47+02:00</time>
      </trkpt>
      <trkpt lat="47.33188" lon="5.48139">
        <ele>186.2002</ele>
        <time>2026-05-15T13:53:48+02:00</time>
      </trkpt>
      <trkpt lat="47.33185" lon="5.48145">
        <ele>186.7002</ele>
        <time>2026-05-15T13:53:49+02:00</time>
      </trkpt>
      <trkpt lat="47.33182" lon="5.48152">
        <ele>186.60059</ele>
        <time>2026-05-15T13:53:50+02:00</time>
      </trkpt>
      <trkpt lat="47.3318" lon="5.48159">
        <ele>187.2998</ele>
        <time>2026-05-15T13:53:51+02:00</time>
      </trkpt>
      <trkpt lat="47.3318" lon="5.48166">
        <ele>187.2998</ele>
        <time>2026-05-15T13:53:52+02:00</time>
      </trkpt>
      <trkpt lat="47.33181" lon="5.48174">
        <ele>188</ele>
        <time>2026-05-15T13:53:53+02:00</time>
      </trkpt>
      <trkpt lat="47.33184" lon="5.48181">
        <ele>188.7998</ele>
        <time>2026-05-15T13:53:54+02:00</time>
      </trkpt>
      <trkpt lat="47.33188" lon="5.48187">
        <ele>190.2998</ele>
        <time>2026-05-15T13:53:55+02:00</time>
      </trkpt>
      <trkpt lat="47.33191" lon="5.48192">
        <ele>191</ele>
        <time>2026-05-15T13:53:56+02:00</time>
      </trkpt>
      <trkpt lat="47.33196" lon="5.48197">
        <ele>191.7002</ele>
        <time>2026-05-15T13:53:57+02:00</time>
      </trkpt>
      <trkpt lat="47.33201" lon="5.48201">
        <ele>192.5</ele>
        <time>2026-05-15T13:53:58+02:00</time>
      </trkpt>
      <trkpt lat="47.33206" lon="5.48206">
        <ele>192.5</ele>
        <time>2026-05-15T13:53:59+02:00</time>
      </trkpt>
      <trkpt lat="47.33211" lon="5.4821">
        <ele>192.7998</ele>
        <time>2026-05-15T13:54:00+02:00</time>
      </trkpt>
      <trkpt lat="47.33215" lon="5.48214">
        <ele>192.7002</ele>
        <time>2026-05-15T13:54:01+02:00</time>
      </trkpt>
      <trkpt lat="47.3323" lon="5.48224">
        <ele>192.90039</ele>
        <time>2026-05-15T13:54:02+02:00</time>
      </trkpt>
      <trkpt lat="47.33234" lon="5.48227">
        <ele>193</ele>
        <time>2026-05-15T13:54:03+02:00</time>
      </trkpt>
      <trkpt lat="47.33238" lon="5.48229">
        <ele>193</ele>
        <time>2026-05-15T13:54:04+02:00</time>
      </trkpt>
      <trkpt lat="47.33242" lon="5.48229">
        <ele>193</ele>
        <time>2026-05-15T13:54:05+02:00</time>
      </trkpt>
      <trkpt lat="47.33246" lon="5.48226">
        <ele>192.90039</ele>
        <time>2026-05-15T13:54:06+02:00</time>
      </trkpt>
      <trkpt lat="47.33248" lon="5.48222">
        <ele>192.90039</ele>
        <time>2026-05-15T13:54:07+02:00</time>
      </trkpt>
      <trkpt lat="47.33251" lon="5.48217">
        <ele>192.7998</ele>
        <time>2026-05-15T13:54:08+02:00</time>
      </trkpt>
      <trkpt lat="47.33254" lon="5.48212">
        <ele>192.7998</ele>
        <time>2026-05-15T13:54:09+02:00</time>
      </trkpt>
      <trkpt lat="47.33257" lon="5.48206">
        <ele>192.7998</ele>
        <time>2026-05-15T13:54:10+02:00</time>
      </trkpt>
      <trkpt lat="47.3326" lon="5.482">
        <ele>192.7998</ele>
        <time>2026-05-15T13:54:11+02:00</time>
      </trkpt>
      <trkpt lat="47.33263" lon="5.48194">
        <ele>192.7998</ele>
        <time>2026-05-15T13:54:12+02:00</time>
      </trkpt>
      <trkpt lat="47.33267" lon="5.48187">
        <ele>192.7998</ele>
        <time>2026-05-15T13:54:13+02:00</time>
      </trkpt>
      <trkpt lat="47.3327" lon="5.4818">
        <ele>192.7998</ele>
        <time>2026-05-15T13:54:14+02:00</time>
      </trkpt>
      <trkpt lat="47.33273" lon="5.48174">
        <ele>192.90039</ele>
        <time>2026-05-15T13:54:15+02:00</time>
      </trkpt>
      <trkpt lat="47.33276" lon="5.48168">
        <ele>192.90039</ele>
        <time>2026-05-15T13:54:16+02:00</time>
      </trkpt>
      <trkpt lat="47.3328" lon="5.48162">
        <ele>193.10059</ele>
        <time>2026-05-15T13:54:17+02:00</time>
      </trkpt>
      <trkpt lat="47.33283" lon="5.48157">
        <ele>193.10059</ele>
        <time>2026-05-15T13:54:18+02:00</time>
      </trkpt>
      <trkpt lat="47.33285" lon="5.48151">
        <ele>193.2998</ele>
        <time>2026-05-15T13:54:19+02:00</time>
      </trkpt>
      <trkpt lat="47.33288" lon="5.48145">
        <ele>193.2998</ele>
        <time>2026-05-15T13:54:20+02:00</time>
      </trkpt>
      <trkpt lat="47.33291" lon="5.48139">
        <ele>193.5</ele>
        <time>2026-05-15T13:54:21+02:00</time>
      </trkpt>
      <trkpt lat="47.33293" lon="5.48133">
        <ele>193.5</ele>
        <time>2026-05-15T13:54:22+02:00</time>
      </trkpt>
      <trkpt lat="47.33297" lon="5.48126">
        <ele>193.60059</ele>
        <time>2026-05-15T13:54:23+02:00</time>
      </trkpt>
      <trkpt lat="47.333" lon="5.4812">
        <ele>193.7002</ele>
        <time>2026-05-15T13:54:24+02:00</time>
      </trkpt>
      <trkpt lat="47.33303" lon="5.48114">
        <ele>193.7998</ele>
        <time>2026-05-15T13:54:25+02:00</time>
      </trkpt>
      <trkpt lat="47.33307" lon="5.48107">
        <ele>193.90039</ele>
        <time>2026-05-15T13:54:26+02:00</time>
      </trkpt>
      <trkpt lat="47.3331" lon="5.48101">
        <ele>193.90039</ele>
        <time>2026-05-15T13:54:27+02:00</time>
      </trkpt>
      <trkpt lat="47.33313" lon="5.48095">
        <ele>194</ele>
        <time>2026-05-15T13:54:28+02:00</time>
      </trkpt>
      <trkpt lat="47.33316" lon="5.48089">
        <ele>194</ele>
        <time>2026-05-15T13:54:29+02:00</time>
      </trkpt>
      <trkpt lat="47.3332" lon="5.48083">
        <ele>194.10059</ele>
        <time>2026-05-15T13:54:30+02:00</time>
      </trkpt>
      <trkpt lat="47.33323" lon="5.48077">
        <ele>194.10059</ele>
        <time>2026-05-15T13:54:31+02:00</time>
      </trkpt>
      <trkpt lat="47.33326" lon="5.4807">
        <ele>194.2002</ele>
        <time>2026-05-15T13:54:32+02:00</time>
      </trkpt>
      <trkpt lat="47.3333" lon="5.48064">
        <ele>194.2002</ele>
        <time>2026-05-15T13:54:33+02:00</time>
      </trkpt>
      <trkpt lat="47.33333" lon="5.48058">
        <ele>194.2998</ele>
        <time>2026-05-15T13:54:34+02:00</time>
      </trkpt>
      <trkpt lat="47.33337" lon="5.48051">
        <ele>194.2998</ele>
        <time>2026-05-15T13:54:35+02:00</time>
      </trkpt>
      <trkpt lat="47.3334" lon="5.48045">
        <ele>194.40039</ele>
        <time>2026-05-15T13:54:36+02:00</time>
      </trkpt>
      <trkpt lat="47.33343" lon="5.48038">
        <ele>194.5</ele>
        <time>2026-05-15T13:54:37+02:00</time>
      </trkpt>
      <trkpt lat="47.33346" lon="5.48031">
        <ele>194.60059</ele>
        <time>2026-05-15T13:54:38+02:00</time>
      </trkpt>
      <trkpt lat="47.3335" lon="5.48025">
        <ele>194.7002</ele>
        <time>2026-05-15T13:54:39+02:00</time>
      </trkpt>
      <trkpt lat="47.33353" lon="5.48019">
        <ele>194.7998</ele>
        <time>2026-05-15T13:54:40+02:00</time>
      </trkpt>
      <trkpt lat="47.33356" lon="5.48012">
        <ele>194.7998</ele>
        <time>2026-05-15T13:54:41+02:00</time>
      </trkpt>
      <trkpt lat="47.3336" lon="5.48006">
        <ele>194.90039</ele>
        <time>2026-05-15T13:54:42+02:00</time>
      </trkpt>
      <trkpt lat="47.33363" lon="5.48">
        <ele>195</ele>
        <time>2026-05-15T13:54:43+02:00</time>
      </trkpt>
      <trkpt lat="47.33366" lon="5.47993">
        <ele>195.10059</ele>
        <time>2026-05-15T13:54:44+02:00</time>
      </trkpt>
      <trkpt lat="47.33369" lon="5.47987">
        <ele>195.10059</ele>
        <time>2026-05-15T13:54:45+02:00</time>
      </trkpt>
      <trkpt lat="47.33372" lon="5.47981">
        <ele>195.10059</ele>
        <time>2026-05-15T13:54:46+02:00</time>
      </trkpt>
      <trkpt lat="47.33375" lon="5.47975">
        <ele>195.10059</ele>
        <time>2026-05-15T13:54:47+02:00</time>
      </trkpt>
      <trkpt lat="47.33378" lon="5.47968">
        <ele>195</ele>
        <time>2026-05-15T13:54:48+02:00</time>
      </trkpt>
      <trkpt lat="47.33381" lon="5.47962">
        <ele>195</ele>
        <time>2026-05-15T13:54:49+02:00</time>
      </trkpt>
      <trkpt lat="47.33385" lon="5.47955">
        <ele>194.7998</ele>
        <time>2026-05-15T13:54:50+02:00</time>
      </trkpt>
      <trkpt lat="47.33388" lon="5.47949">
        <ele>194.5</ele>
        <time>2026-05-15T13:54:51+02:00</time>
      </trkpt>
      <trkpt lat="47.33391" lon="5.47942">
        <ele>194.10059</ele>
        <time>2026-05-15T13:54:52+02:00</time>
      </trkpt>
      <trkpt lat="47.33394" lon="5.47935">
        <ele>194</ele>
        <time>2026-05-15T13:54:53+02:00</time>
      </trkpt>
      <trkpt lat="47.33397" lon="5.47929">
        <ele>193.7002</ele>
        <time>2026-05-15T13:54:54+02:00</time>
      </trkpt>
      <trkpt lat="47.334" lon="5.47922">
        <ele>193.2002</ele>
        <time>2026-05-15T13:54:55+02:00</time>
      </trkpt>
      <trkpt lat="47.33404" lon="5.47915">
        <ele>192.7998</ele>
        <time>2026-05-15T13:54:56+02:00</time>
      </trkpt>
      <trkpt lat="47.33407" lon="5.47909">
        <ele>192.7002</ele>
        <time>2026-05-15T13:54:57+02:00</time>
      </trkpt>
      <trkpt lat="47.3341" lon="5.47902">
        <ele>192.2998</ele>
        <time>2026-05-15T13:54:58+02:00</time>
      </trkpt>
      <trkpt lat="47.33413" lon="5.47896">
        <ele>191.7002</ele>
        <time>2026-05-15T13:54:59+02:00</time>
      </trkpt>
      <trkpt lat="47.33417" lon="5.47889">
        <ele>191.2998</ele>
        <time>2026-05-15T13:55:00+02:00</time>
      </trkpt>
      <trkpt lat="47.33421" lon="5.47883">
        <ele>190.7998</ele>
        <time>2026-05-15T13:55:01+02:00</time>
      </trkpt>
      <trkpt lat="47.33424" lon="5.47876">
        <ele>190.90039</ele>
        <time>2026-05-15T13:55:02+02:00</time>
      </trkpt>
      <trkpt lat="47.33428" lon="5.47869">
        <ele>190.5</ele>
        <time>2026-05-15T13:55:03+02:00</time>
      </trkpt>
      <trkpt lat="47.33432" lon="5.47863">
        <ele>190.2002</ele>
        <time>2026-05-15T13:55:04+02:00</time>
      </trkpt>
      <trkpt lat="47.33435" lon="5.47856">
        <ele>190.10059</ele>
        <time>2026-05-15T13:55:05+02:00</time>
      </trkpt>
      <trkpt lat="47.33438" lon="5.4785">
        <ele>190.10059</ele>
        <time>2026-05-15T13:55:06+02:00</time>
      </trkpt>
      <trkpt lat="47.33442" lon="5.47843">
        <ele>190</ele>
        <time>2026-05-15T13:55:07+02:00</time>
      </trkpt>
      <trkpt lat="47.33445" lon="5.47836">
        <ele>189.7002</ele>
        <time>2026-05-15T13:55:08+02:00</time>
      </trkpt>
      <trkpt lat="47.33449" lon="5.47829">
        <ele>189.7002</ele>
        <time>2026-05-15T13:55:09+02:00</time>
      </trkpt>
      <trkpt lat="47.33452" lon="5.47822">
        <ele>189.60059</ele>
        <time>2026-05-15T13:55:10+02:00</time>
      </trkpt>
      <trkpt lat="47.33456" lon="5.47815">
        <ele>189.60059</ele>
        <time>2026-05-15T13:55:11+02:00</time>
      </trkpt>
      <trkpt lat="47.33459" lon="5.47808">
        <ele>189.60059</ele>
        <time>2026-05-15T13:55:12+02:00</time>
      </trkpt>
      <trkpt lat="47.33463" lon="5.47801">
        <ele>189.2002</ele>
        <time>2026-05-15T13:55:13+02:00</time>
      </trkpt>
      <trkpt lat="47.33466" lon="5.47794">
        <ele>189</ele>
        <time>2026-05-15T13:55:14+02:00</time>
      </trkpt>
      <trkpt lat="47.3347" lon="5.47787">
        <ele>188.7998</ele>
        <time>2026-05-15T13:55:15+02:00</time>
      </trkpt>
      <trkpt lat="47.33474" lon="5.4778">
        <ele>188.40039</ele>
        <time>2026-05-15T13:55:16+02:00</time>
      </trkpt>
      <trkpt lat="47.33478" lon="5.47773">
        <ele>188.40039</ele>
        <time>2026-05-15T13:55:17+02:00</time>
      </trkpt>
      <trkpt lat="47.33481" lon="5.47766">
        <ele>188</ele>
        <time>2026-05-15T13:55:18+02:00</time>
      </trkpt>
      <trkpt lat="47.33485" lon="5.47759">
        <ele>187.7002</ele>
        <time>2026-05-15T13:55:19+02:00</time>
      </trkpt>
      <trkpt lat="47.33489" lon="5.47752">
        <ele>187.5</ele>
        <time>2026-05-15T13:55:20+02:00</time>
      </trkpt>
      <trkpt lat="47.33492" lon="5.47745">
        <ele>187.2002</ele>
        <time>2026-05-15T13:55:21+02:00</time>
      </trkpt>
      <trkpt lat="47.33496" lon="5.47738">
        <ele>187.2998</ele>
        <time>2026-05-15T13:55:22+02:00</time>
      </trkpt>
      <trkpt lat="47.33499" lon="5.4773">
        <ele>187.10059</ele>
        <time>2026-05-15T13:55:23+02:00</time>
      </trkpt>
      <trkpt lat="47.33503" lon="5.47723">
        <ele>186.90039</ele>
        <time>2026-05-15T13:55:24+02:00</time>
      </trkpt>
      <trkpt lat="47.33507" lon="5.47716">
        <ele>186.7998</ele>
        <time>2026-05-15T13:55:25+02:00</time>
      </trkpt>
      <trkpt lat="47.3351" lon="5.47709">
        <ele>186.60059</ele>
        <time>2026-05-15T13:55:26+02:00</time>
      </trkpt>
      <trkpt lat="47.33514" lon="5.47702">
        <ele>186.40039</ele>
        <time>2026-05-15T13:55:27+02:00</time>
      </trkpt>
      <trkpt lat="47.33517" lon="5.47695">
        <ele>186.5</ele>
        <time>2026-05-15T13:55:28+02:00</time>
      </trkpt>
      <trkpt lat="47.33521" lon="5.47688">
        <ele>186.2998</ele>
        <time>2026-05-15T13:55:29+02:00</time>
      </trkpt>
      <trkpt lat="47.33524" lon="5.47681">
        <ele>186.10059</ele>
        <time>2026-05-15T13:55:30+02:00</time>
      </trkpt>
      <trkpt lat="47.33528" lon="5.47674">
        <ele>186</ele>
        <time>2026-05-15T13:55:31+02:00</time>
      </trkpt>
      <trkpt lat="47.33531" lon="5.47668">
        <ele>185.7998</ele>
        <time>2026-05-15T13:55:32+02:00</time>
      </trkpt>
      <trkpt lat="47.33535" lon="5.47661">
        <ele>185.7998</ele>
        <time>2026-05-15T13:55:33+02:00</time>
      </trkpt>
      <trkpt lat="47.33538" lon="5.47654">
        <ele>185.7002</ele>
        <time>2026-05-15T13:55:34+02:00</time>
      </trkpt>
      <trkpt lat="47.33542" lon="5.47648">
        <ele>185.60059</ele>
        <time>2026-05-15T13:55:35+02:00</time>
      </trkpt>
      <trkpt lat="47.33545" lon="5.47641">
        <ele>185.5</ele>
        <time>2026-05-15T13:55:36+02:00</time>
      </trkpt>
      <trkpt lat="47.33548" lon="5.47634">
        <ele>185.40039</ele>
        <time>2026-05-15T13:55:37+02:00</time>
      </trkpt>
      <trkpt lat="47.33552" lon="5.47628">
        <ele>185.5</ele>
        <time>2026-05-15T13:55:38+02:00</time>
      </trkpt>
      <trkpt lat="47.33555" lon="5.47621">
        <ele>185.40039</ele>
        <time>2026-05-15T13:55:39+02:00</time>
      </trkpt>
      <trkpt lat="47.33559" lon="5.47615">
        <ele>185.2998</ele>
        <time>2026-05-15T13:55:40+02:00</time>
      </trkpt>
      <trkpt lat="47.33563" lon="5.47608">
        <ele>185.2998</ele>
        <time>2026-05-15T13:55:41+02:00</time>
      </trkpt>
      <trkpt lat="47.33566" lon="5.47601">
        <ele>185.2998</ele>
        <time>2026-05-15T13:55:42+02:00</time>
      </trkpt>
      <trkpt lat="47.3357" lon="5.47594">
        <ele>185.2998</ele>
        <time>2026-05-15T13:55:43+02:00</time>
      </trkpt>
      <trkpt lat="47.33573" lon="5.47588">
        <ele>185.2998</ele>
        <time>2026-05-15T13:55:44+02:00</time>
      </trkpt>
      <trkpt lat="47.33577" lon="5.47581">
        <ele>185.2998</ele>
        <time>2026-05-15T13:55:45+02:00</time>
      </trkpt>
      <trkpt lat="47.33581" lon="5.47575">
        <ele>185.40039</ele>
        <time>2026-05-15T13:55:46+02:00</time>
      </trkpt>
      <trkpt lat="47.33584" lon="5.47568">
        <ele>185.40039</ele>
        <time>2026-05-15T13:55:47+02:00</time>
      </trkpt>
      <trkpt lat="47.33587" lon="5.47561">
        <ele>185.5</ele>
        <time>2026-05-15T13:55:48+02:00</time>
      </trkpt>
      <trkpt lat="47.3359" lon="5.47555">
        <ele>185.60059</ele>
        <time>2026-05-15T13:55:49+02:00</time>
      </trkpt>
      <trkpt lat="47.33594" lon="5.47548">
        <ele>185.60059</ele>
        <time>2026-05-15T13:55:50+02:00</time>
      </trkpt>
      <trkpt lat="47.33597" lon="5.47541">
        <ele>185.60059</ele>
        <time>2026-05-15T13:55:51+02:00</time>
      </trkpt>
      <trkpt lat="47.336" lon="5.47535">
        <ele>185.7002</ele>
        <time>2026-05-15T13:55:52+02:00</time>
      </trkpt>
      <trkpt lat="47.33603" lon="5.47528">
        <ele>185.7002</ele>
        <time>2026-05-15T13:55:53+02:00</time>
      </trkpt>
      <trkpt lat="47.33607" lon="5.47522">
        <ele>185.7998</ele>
        <time>2026-05-15T13:55:54+02:00</time>
      </trkpt>
      <trkpt lat="47.3361" lon="5.47515">
        <ele>185.7002</ele>
        <time>2026-05-15T13:55:55+02:00</time>
      </trkpt>
      <trkpt lat="47.33613" lon="5.47509">
        <ele>185.7002</ele>
        <time>2026-05-15T13:55:56+02:00</time>
      </trkpt>
      <trkpt lat="47.33616" lon="5.47502">
        <ele>185.7002</ele>
        <time>2026-05-15T13:55:57+02:00</time>
      </trkpt>
      <trkpt lat="47.33619" lon="5.47496">
        <ele>185.7002</ele>
        <time>2026-05-15T13:55:58+02:00</time>
      </trkpt>
      <trkpt lat="47.33623" lon="5.4749">
        <ele>185.7002</ele>
        <time>2026-05-15T13:55:59+02:00</time>
      </trkpt>
      <trkpt lat="47.33626" lon="5.47484">
        <ele>185.7002</ele>
        <time>2026-05-15T13:56:00+02:00</time>
      </trkpt>
      <trkpt lat="47.33629" lon="5.47478">
        <ele>185.60059</ele>
        <time>2026-05-15T13:56:01+02:00</time>
      </trkpt>
      <trkpt lat="47.33632" lon="5.47471">
        <ele>185.60059</ele>
        <time>2026-05-15T13:56:02+02:00</time>
      </trkpt>
      <trkpt lat="47.33636" lon="5.47465">
        <ele>185.5</ele>
        <time>2026-05-15T13:56:03+02:00</time>
      </trkpt>
      <trkpt lat="47.33639" lon="5.47458">
        <ele>185.5</ele>
        <time>2026-05-15T13:56:04+02:00</time>
      </trkpt>
      <trkpt lat="47.33642" lon="5.47452">
        <ele>185.5</ele>
        <time>2026-05-15T13:56:05+02:00</time>
      </trkpt>
      <trkpt lat="47.33646" lon="5.47445">
        <ele>185.40039</ele>
        <time>2026-05-15T13:56:06+02:00</time>
      </trkpt>
      <trkpt lat="47.33649" lon="5.47439">
        <ele>185.40039</ele>
        <time>2026-05-15T13:56:07+02:00</time>
      </trkpt>
      <trkpt lat="47.33652" lon="5.47432">
        <ele>185.2998</ele>
        <time>2026-05-15T13:56:08+02:00</time>
      </trkpt>
      <trkpt lat="47.33655" lon="5.47426">
        <ele>185.2998</ele>
        <time>2026-05-15T13:56:09+02:00</time>
      </trkpt>
      <trkpt lat="47.33659" lon="5.47419">
        <ele>185.2998</ele>
        <time>2026-05-15T13:56:10+02:00</time>
      </trkpt>
      <trkpt lat="47.33662" lon="5.47413">
        <ele>185.2002</ele>
        <time>2026-05-15T13:56:11+02:00</time>
      </trkpt>
      <trkpt lat="47.33666" lon="5.47406">
        <ele>185.2002</ele>
        <time>2026-05-15T13:56:12+02:00</time>
      </trkpt>
      <trkpt lat="47.33669" lon="5.47399">
        <ele>185.10059</ele>
        <time>2026-05-15T13:56:13+02:00</time>
      </trkpt>
      <trkpt lat="47.33672" lon="5.47393">
        <ele>185.10059</ele>
        <time>2026-05-15T13:56:14+02:00</time>
      </trkpt>
      <trkpt lat="47.33676" lon="5.47386">
        <ele>185</ele>
        <time>2026-05-15T13:56:15+02:00</time>
      </trkpt>
      <trkpt lat="47.33679" lon="5.4738">
        <ele>184.90039</ele>
        <time>2026-05-15T13:56:16+02:00</time>
      </trkpt>
      <trkpt lat="47.33683" lon="5.47373">
        <ele>184.90039</ele>
        <time>2026-05-15T13:56:17+02:00</time>
      </trkpt>
      <trkpt lat="47.33686" lon="5.47367">
        <ele>184.90039</ele>
        <time>2026-05-15T13:56:18+02:00</time>
      </trkpt>
      <trkpt lat="47.33689" lon="5.4736">
        <ele>184.90039</ele>
        <time>2026-05-15T13:56:19+02:00</time>
      </trkpt>
      <trkpt lat="47.33692" lon="5.47354">
        <ele>184.7998</ele>
        <time>2026-05-15T13:56:20+02:00</time>
      </trkpt>
      <trkpt lat="47.33696" lon="5.47347">
        <ele>184.7998</ele>
        <time>2026-05-15T13:56:21+02:00</time>
      </trkpt>
      <trkpt lat="47.33699" lon="5.47341">
        <ele>184.7998</ele>
        <time>2026-05-15T13:56:22+02:00</time>
      </trkpt>
      <trkpt lat="47.33702" lon="5.47335">
        <ele>184.7002</ele>
        <time>2026-05-15T13:56:23+02:00</time>
      </trkpt>
      <trkpt lat="47.33705" lon="5.47329">
        <ele>184.7998</ele>
        <time>2026-05-15T13:56:24+02:00</time>
      </trkpt>
      <trkpt lat="47.33708" lon="5.47322">
        <ele>184.7998</ele>
        <time>2026-05-15T13:56:25+02:00</time>
      </trkpt>
      <trkpt lat="47.33712" lon="5.47316">
        <ele>184.90039</ele>
        <time>2026-05-15T13:56:26+02:00</time>
      </trkpt>
      <trkpt lat="47.33714" lon="5.4731">
        <ele>184.7998</ele>
        <time>2026-05-15T13:56:27+02:00</time>
      </trkpt>
      <trkpt lat="47.33718" lon="5.47304">
        <ele>184.90039</ele>
        <time>2026-05-15T13:56:28+02:00</time>
      </trkpt>
      <trkpt lat="47.33721" lon="5.47297">
        <ele>184.90039</ele>
        <time>2026-05-15T13:56:29+02:00</time>
      </trkpt>
      <trkpt lat="47.33724" lon="5.47291">
        <ele>184.90039</ele>
        <time>2026-05-15T13:56:30+02:00</time>
      </trkpt>
      <trkpt lat="47.33727" lon="5.47284">
        <ele>185</ele>
        <time>2026-05-15T13:56:31+02:00</time>
      </trkpt>
      <trkpt lat="47.33731" lon="5.47278">
        <ele>185</ele>
        <time>2026-05-15T13:56:32+02:00</time>
      </trkpt>
      <trkpt lat="47.33734" lon="5.47272">
        <ele>185.10059</ele>
        <time>2026-05-15T13:56:33+02:00</time>
      </trkpt>
      <trkpt lat="47.33737" lon="5.47265">
        <ele>185.2002</ele>
        <time>2026-05-15T13:56:34+02:00</time>
      </trkpt>
      <trkpt lat="47.33741" lon="5.47259">
        <ele>185.2002</ele>
        <time>2026-05-15T13:56:35+02:00</time>
      </trkpt>
      <trkpt lat="47.33743" lon="5.47252">
        <ele>185.2002</ele>
        <time>2026-05-15T13:56:36+02:00</time>
      </trkpt>
      <trkpt lat="47.33747" lon="5.47246">
        <ele>185.2998</ele>
        <time>2026-05-15T13:56:37+02:00</time>
      </trkpt>
      <trkpt lat="47.3375" lon="5.47239">
        <ele>185.2998</ele>
        <time>2026-05-15T13:56:38+02:00</time>
      </trkpt>
      <trkpt lat="47.33754" lon="5.47233">
        <ele>185.2998</ele>
        <time>2026-05-15T13:56:39+02:00</time>
      </trkpt>
      <trkpt lat="47.33757" lon="5.47226">
        <ele>185.40039</ele>
        <time>2026-05-15T13:56:40+02:00</time>
      </trkpt>
      <trkpt lat="47.3376" lon="5.4722">
        <ele>185.40039</ele>
        <time>2026-05-15T13:56:41+02:00</time>
      </trkpt>
      <trkpt lat="47.33764" lon="5.47213">
        <ele>185.40039</ele>
        <time>2026-05-15T13:56:42+02:00</time>
      </trkpt>
      <trkpt lat="47.33767" lon="5.47206">
        <ele>185.5</ele>
        <time>2026-05-15T13:56:43+02:00</time>
      </trkpt>
      <trkpt lat="47.33771" lon="5.472">
        <ele>185.5</ele>
        <time>2026-05-15T13:56:44+02:00</time>
      </trkpt>
      <trkpt lat="47.33774" lon="5.47193">
        <ele>185.60059</ele>
        <time>2026-05-15T13:56:45+02:00</time>
      </trkpt>
      <trkpt lat="47.33777" lon="5.47186">
        <ele>185.5</ele>
        <time>2026-05-15T13:56:46+02:00</time>
      </trkpt>
      <trkpt lat="47.33781" lon="5.4718">
        <ele>185.60059</ele>
        <time>2026-05-15T13:56:47+02:00</time>
      </trkpt>
      <trkpt lat="47.33785" lon="5.47173">
        <ele>185.60059</ele>
        <time>2026-05-15T13:56:48+02:00</time>
      </trkpt>
      <trkpt lat="47.33788" lon="5.47166">
        <ele>185.60059</ele>
        <time>2026-05-15T13:56:49+02:00</time>
      </trkpt>
      <trkpt lat="47.33791" lon="5.47159">
        <ele>185.60059</ele>
        <time>2026-05-15T13:56:50+02:00</time>
      </trkpt>
      <trkpt lat="47.33795" lon="5.47152">
        <ele>185.60059</ele>
        <time>2026-05-15T13:56:51+02:00</time>
      </trkpt>
      <trkpt lat="47.33799" lon="5.47145">
        <ele>185.60059</ele>
        <time>2026-05-15T13:56:52+02:00</time>
      </trkpt>
      <trkpt lat="47.33803" lon="5.47138">
        <ele>185.60059</ele>
        <time>2026-05-15T13:56:53+02:00</time>
      </trkpt>
      <trkpt lat="47.33806" lon="5.47131">
        <ele>185.5</ele>
        <time>2026-05-15T13:56:54+02:00</time>
      </trkpt>
      <trkpt lat="47.33809" lon="5.47124">
        <ele>185.5</ele>
        <time>2026-05-15T13:56:55+02:00</time>
      </trkpt>
      <trkpt lat="47.33813" lon="5.47117">
        <ele>185.40039</ele>
        <time>2026-05-15T13:56:56+02:00</time>
      </trkpt>
      <trkpt lat="47.33816" lon="5.47111">
        <ele>185.40039</ele>
        <time>2026-05-15T13:56:57+02:00</time>
      </trkpt>
      <trkpt lat="47.33819" lon="5.47104">
        <ele>185.40039</ele>
        <time>2026-05-15T13:56:58+02:00</time>
      </trkpt>
      <trkpt lat="47.33823" lon="5.47098">
        <ele>185.2998</ele>
        <time>2026-05-15T13:56:59+02:00</time>
      </trkpt>
      <trkpt lat="47.33826" lon="5.47091">
        <ele>185.2998</ele>
        <time>2026-05-15T13:57:00+02:00</time>
      </trkpt>
      <trkpt lat="47.33829" lon="5.47085">
        <ele>185.2998</ele>
        <time>2026-05-15T13:57:01+02:00</time>
      </trkpt>
      <trkpt lat="47.33832" lon="5.47079">
        <ele>185.2998</ele>
        <time>2026-05-15T13:57:02+02:00</time>
      </trkpt>
      <trkpt lat="47.33836" lon="5.47072">
        <ele>185.2998</ele>
        <time>2026-05-15T13:57:03+02:00</time>
      </trkpt>
      <trkpt lat="47.33839" lon="5.47065">
        <ele>185.2998</ele>
        <time>2026-05-15T13:57:04+02:00</time>
      </trkpt>
      <trkpt lat="47.33842" lon="5.47059">
        <ele>185.2998</ele>
        <time>2026-05-15T13:57:05+02:00</time>
      </trkpt>
      <trkpt lat="47.33846" lon="5.47052">
        <ele>185.2998</ele>
        <time>2026-05-15T13:57:06+02:00</time>
      </trkpt>
      <trkpt lat="47.33849" lon="5.47045">
        <ele>185.2998</ele>
        <time>2026-05-15T13:57:07+02:00</time>
      </trkpt>
      <trkpt lat="47.33853" lon="5.47039">
        <ele>185.40039</ele>
        <time>2026-05-15T13:57:08+02:00</time>
      </trkpt>
      <trkpt lat="47.33856" lon="5.47032">
        <ele>185.40039</ele>
        <time>2026-05-15T13:57:09+02:00</time>
      </trkpt>
      <trkpt lat="47.33859" lon="5.47026">
        <ele>185.40039</ele>
        <time>2026-05-15T13:57:10+02:00</time>
      </trkpt>
      <trkpt lat="47.33863" lon="5.47019">
        <ele>185.2998</ele>
        <time>2026-05-15T13:57:11+02:00</time>
      </trkpt>
      <trkpt lat="47.33866" lon="5.47012">
        <ele>185.2998</ele>
        <time>2026-05-15T13:57:12+02:00</time>
      </trkpt>
      <trkpt lat="47.33869" lon="5.47005">
        <ele>185.2998</ele>
        <time>2026-05-15T13:57:13+02:00</time>
      </trkpt>
      <trkpt lat="47.33873" lon="5.46999">
        <ele>185.2998</ele>
        <time>2026-05-15T13:57:14+02:00</time>
      </trkpt>
      <trkpt lat="47.33876" lon="5.46992">
        <ele>185.2998</ele>
        <time>2026-05-15T13:57:15+02:00</time>
      </trkpt>
      <trkpt lat="47.33879" lon="5.46986">
        <ele>185.2002</ele>
        <time>2026-05-15T13:57:16+02:00</time>
      </trkpt>
      <trkpt lat="47.33883" lon="5.46979">
        <ele>185.2002</ele>
        <time>2026-05-15T13:57:17+02:00</time>
      </trkpt>
      <trkpt lat="47.33886" lon="5.46973">
        <ele>185.2998</ele>
        <time>2026-05-15T13:57:18+02:00</time>
      </trkpt>
      <trkpt lat="47.33889" lon="5.46966">
        <ele>185.2002</ele>
        <time>2026-05-15T13:57:19+02:00</time>
      </trkpt>
      <trkpt lat="47.33893" lon="5.4696">
        <ele>185.40039</ele>
        <time>2026-05-15T13:57:20+02:00</time>
      </trkpt>
      <trkpt lat="47.33896" lon="5.46953">
        <ele>185.5</ele>
        <time>2026-05-15T13:57:21+02:00</time>
      </trkpt>
      <trkpt lat="47.33899" lon="5.46947">
        <ele>185.7002</ele>
        <time>2026-05-15T13:57:22+02:00</time>
      </trkpt>
      <trkpt lat="47.33902" lon="5.46941">
        <ele>185.60059</ele>
        <time>2026-05-15T13:57:23+02:00</time>
      </trkpt>
      <trkpt lat="47.33906" lon="5.46934">
        <ele>185.7998</ele>
        <time>2026-05-15T13:57:24+02:00</time>
      </trkpt>
      <trkpt lat="47.33909" lon="5.46928">
        <ele>185.90039</ele>
        <time>2026-05-15T13:57:25+02:00</time>
      </trkpt>
      <trkpt lat="47.33912" lon="5.46921">
        <ele>186.10059</ele>
        <time>2026-05-15T13:57:26+02:00</time>
      </trkpt>
      <trkpt lat="47.33916" lon="5.46915">
        <ele>186.10059</ele>
        <time>2026-05-15T13:57:27+02:00</time>
      </trkpt>
      <trkpt lat="47.33919" lon="5.46909">
        <ele>186.2002</ele>
        <time>2026-05-15T13:57:28+02:00</time>
      </trkpt>
      <trkpt lat="47.33922" lon="5.46902">
        <ele>186.2998</ele>
        <time>2026-05-15T13:57:29+02:00</time>
      </trkpt>
      <trkpt lat="47.33925" lon="5.46896">
        <ele>186.2998</ele>
        <time>2026-05-15T13:57:30+02:00</time>
      </trkpt>
      <trkpt lat="47.33929" lon="5.46889">
        <ele>186.5</ele>
        <time>2026-05-15T13:57:31+02:00</time>
      </trkpt>
      <trkpt lat="47.33932" lon="5.46883">
        <ele>186.60059</ele>
        <time>2026-05-15T13:57:32+02:00</time>
      </trkpt>
      <trkpt lat="47.33935" lon="5.46876">
        <ele>186.7002</ele>
        <time>2026-05-15T13:57:33+02:00</time>
      </trkpt>
      <trkpt lat="47.33939" lon="5.4687">
        <ele>186.7998</ele>
        <time>2026-05-15T13:57:34+02:00</time>
      </trkpt>
      <trkpt lat="47.33942" lon="5.46863">
        <ele>186.7998</ele>
        <time>2026-05-15T13:57:35+02:00</time>
      </trkpt>
      <trkpt lat="47.33945" lon="5.46857">
        <ele>186.90039</ele>
        <time>2026-05-15T13:57:36+02:00</time>
      </trkpt>
      <trkpt lat="47.33949" lon="5.4685">
        <ele>187</ele>
        <time>2026-05-15T13:57:37+02:00</time>
      </trkpt>
      <trkpt lat="47.33952" lon="5.46844">
        <ele>187.10059</ele>
        <time>2026-05-15T13:57:38+02:00</time>
      </trkpt>
      <trkpt lat="47.33955" lon="5.46837">
        <ele>187.10059</ele>
        <time>2026-05-15T13:57:39+02:00</time>
      </trkpt>
      <trkpt lat="47.33959" lon="5.46831">
        <ele>187.2002</ele>
        <time>2026-05-15T13:57:40+02:00</time>
      </trkpt>
      <trkpt lat="47.33962" lon="5.46825">
        <ele>187.2002</ele>
        <time>2026-05-15T13:57:41+02:00</time>
      </trkpt>
      <trkpt lat="47.33965" lon="5.46818">
        <ele>187.2998</ele>
        <time>2026-05-15T13:57:42+02:00</time>
      </trkpt>
      <trkpt lat="47.33968" lon="5.46812">
        <ele>187.2998</ele>
        <time>2026-05-15T13:57:43+02:00</time>
      </trkpt>
      <trkpt lat="47.33971" lon="5.46806">
        <ele>187.2998</ele>
        <time>2026-05-15T13:57:44+02:00</time>
      </trkpt>
      <trkpt lat="47.33974" lon="5.468">
        <ele>187.2998</ele>
        <time>2026-05-15T13:57:45+02:00</time>
      </trkpt>
      <trkpt lat="47.33977" lon="5.46794">
        <ele>187.2998</ele>
        <time>2026-05-15T13:57:46+02:00</time>
      </trkpt>
      <trkpt lat="47.3398" lon="5.46789">
        <ele>187.2998</ele>
        <time>2026-05-15T13:57:47+02:00</time>
      </trkpt>
      <trkpt lat="47.33983" lon="5.46783">
        <ele>187.2998</ele>
        <time>2026-05-15T13:57:48+02:00</time>
      </trkpt>
      <trkpt lat="47.33986" lon="5.46777">
        <ele>187.2998</ele>
        <time>2026-05-15T13:57:49+02:00</time>
      </trkpt>
      <trkpt lat="47.33989" lon="5.4677">
        <ele>187.2002</ele>
        <time>2026-05-15T13:57:50+02:00</time>
      </trkpt>
      <trkpt lat="47.33993" lon="5.46764">
        <ele>187.10059</ele>
        <time>2026-05-15T13:57:51+02:00</time>
      </trkpt>
      <trkpt lat="47.33996" lon="5.46758">
        <ele>187</ele>
        <time>2026-05-15T13:57:52+02:00</time>
      </trkpt>
      <trkpt lat="47.33998" lon="5.46752">
        <ele>187</ele>
        <time>2026-05-15T13:57:53+02:00</time>
      </trkpt>
      <trkpt lat="47.34002" lon="5.46745">
        <ele>186.7998</ele>
        <time>2026-05-15T13:57:54+02:00</time>
      </trkpt>
      <trkpt lat="47.34005" lon="5.46739">
        <ele>186.60059</ele>
        <time>2026-05-15T13:57:55+02:00</time>
      </trkpt>
      <trkpt lat="47.34008" lon="5.46733">
        <ele>186.60059</ele>
        <time>2026-05-15T13:57:56+02:00</time>
      </trkpt>
      <trkpt lat="47.34011" lon="5.46727">
        <ele>186.40039</ele>
        <time>2026-05-15T13:57:57+02:00</time>
      </trkpt>
      <trkpt lat="47.34014" lon="5.46721">
        <ele>186.2002</ele>
        <time>2026-05-15T13:57:58+02:00</time>
      </trkpt>
      <trkpt lat="47.34017" lon="5.46715">
        <ele>185.90039</ele>
        <time>2026-05-15T13:57:59+02:00</time>
      </trkpt>
      <trkpt lat="47.3402" lon="5.46709">
        <ele>185.90039</ele>
        <time>2026-05-15T13:58:00+02:00</time>
      </trkpt>
      <trkpt lat="47.34023" lon="5.46703">
        <ele>185.60059</ele>
        <time>2026-05-15T13:58:01+02:00</time>
      </trkpt>
      <trkpt lat="47.34026" lon="5.46697">
        <ele>185.5</ele>
        <time>2026-05-15T13:58:02+02:00</time>
      </trkpt>
      <trkpt lat="47.34029" lon="5.4669">
        <ele>185.40039</ele>
        <time>2026-05-15T13:58:03+02:00</time>
      </trkpt>
      <trkpt lat="47.34032" lon="5.46684">
        <ele>185.2002</ele>
        <time>2026-05-15T13:58:04+02:00</time>
      </trkpt>
      <trkpt lat="47.34035" lon="5.46678">
        <ele>185</ele>
        <time>2026-05-15T13:58:05+02:00</time>
      </trkpt>
      <trkpt lat="47.34039" lon="5.46672">
        <ele>184.90039</ele>
        <time>2026-05-15T13:58:06+02:00</time>
      </trkpt>
      <trkpt lat="47.34042" lon="5.46665">
        <ele>184.90039</ele>
        <time>2026-05-15T13:58:07+02:00</time>
      </trkpt>
      <trkpt lat="47.34045" lon="5.46659">
        <ele>184.7998</ele>
        <time>2026-05-15T13:58:08+02:00</time>
      </trkpt>
      <trkpt lat="47.34048" lon="5.46652">
        <ele>184.7002</ele>
        <time>2026-05-15T13:58:09+02:00</time>
      </trkpt>
      <trkpt lat="47.34051" lon="5.46646">
        <ele>184.7002</ele>
        <time>2026-05-15T13:58:10+02:00</time>
      </trkpt>
      <trkpt lat="47.34054" lon="5.4664">
        <ele>184.7002</ele>
        <time>2026-05-15T13:58:11+02:00</time>
      </trkpt>
      <trkpt lat="47.34058" lon="5.46633">
        <ele>184.7002</ele>
        <time>2026-05-15T13:58:12+02:00</time>
      </trkpt>
      <trkpt lat="47.3406" lon="5.46627">
        <ele>184.7998</ele>
        <time>2026-05-15T13:58:13+02:00</time>
      </trkpt>
      <trkpt lat="47.34064" lon="5.46621">
        <ele>184.90039</ele>
        <time>2026-05-15T13:58:14+02:00</time>
      </trkpt>
      <trkpt lat="47.34067" lon="5.46614">
        <ele>184.90039</ele>
        <time>2026-05-15T13:58:15+02:00</time>
      </trkpt>
      <trkpt lat="47.3407" lon="5.46607">
        <ele>184.90039</ele>
        <time>2026-05-15T13:58:16+02:00</time>
      </trkpt>
      <trkpt lat="47.34074" lon="5.46601">
        <ele>185</ele>
        <time>2026-05-15T13:58:17+02:00</time>
      </trkpt>
      <trkpt lat="47.34077" lon="5.46594">
        <ele>185</ele>
        <time>2026-05-15T13:58:18+02:00</time>
      </trkpt>
      <trkpt lat="47.34081" lon="5.46588">
        <ele>185.10059</ele>
        <time>2026-05-15T13:58:19+02:00</time>
      </trkpt>
      <trkpt lat="47.34084" lon="5.46581">
        <ele>185.10059</ele>
        <time>2026-05-15T13:58:20+02:00</time>
      </trkpt>
      <trkpt lat="47.34088" lon="5.46575">
        <ele>185.10059</ele>
        <time>2026-05-15T13:58:21+02:00</time>
      </trkpt>
      <trkpt lat="47.34091" lon="5.46568">
        <ele>185</ele>
        <time>2026-05-15T13:58:22+02:00</time>
      </trkpt>
      <trkpt lat="47.34094" lon="5.46561">
        <ele>185</ele>
        <time>2026-05-15T13:58:23+02:00</time>
      </trkpt>
      <trkpt lat="47.34098" lon="5.46555">
        <ele>185</ele>
        <time>2026-05-15T13:58:24+02:00</time>
      </trkpt>
      <trkpt lat="47.34101" lon="5.46548">
        <ele>184.90039</ele>
        <time>2026-05-15T13:58:25+02:00</time>
      </trkpt>
      <trkpt lat="47.34104" lon="5.46541">
        <ele>184.90039</ele>
        <time>2026-05-15T13:58:26+02:00</time>
      </trkpt>
      <trkpt lat="47.34108" lon="5.46535">
        <ele>184.7998</ele>
        <time>2026-05-15T13:58:27+02:00</time>
      </trkpt>
      <trkpt lat="47.34111" lon="5.46529">
        <ele>184.7998</ele>
        <time>2026-05-15T13:58:28+02:00</time>
      </trkpt>
      <trkpt lat="47.34115" lon="5.46522">
        <ele>184.7998</ele>
        <time>2026-05-15T13:58:29+02:00</time>
      </trkpt>
      <trkpt lat="47.34118" lon="5.46515">
        <ele>184.7998</ele>
        <time>2026-05-15T13:58:30+02:00</time>
      </trkpt>
      <trkpt lat="47.34121" lon="5.46509">
        <ele>184.7998</ele>
        <time>2026-05-15T13:58:31+02:00</time>
      </trkpt>
      <trkpt lat="47.34125" lon="5.46502">
        <ele>184.7998</ele>
        <time>2026-05-15T13:58:32+02:00</time>
      </trkpt>
      <trkpt lat="47.34128" lon="5.46495">
        <ele>184.90039</ele>
        <time>2026-05-15T13:58:33+02:00</time>
      </trkpt>
      <trkpt lat="47.34132" lon="5.46488">
        <ele>184.90039</ele>
        <time>2026-05-15T13:58:34+02:00</time>
      </trkpt>
      <trkpt lat="47.34135" lon="5.46482">
        <ele>185</ele>
        <time>2026-05-15T13:58:35+02:00</time>
      </trkpt>
      <trkpt lat="47.34139" lon="5.46475">
        <ele>185</ele>
        <time>2026-05-15T13:58:36+02:00</time>
      </trkpt>
      <trkpt lat="47.34142" lon="5.46469">
        <ele>185</ele>
        <time>2026-05-15T13:58:37+02:00</time>
      </trkpt>
      <trkpt lat="47.34145" lon="5.46462">
        <ele>185.10059</ele>
        <time>2026-05-15T13:58:38+02:00</time>
      </trkpt>
      <trkpt lat="47.34149" lon="5.46455">
        <ele>185.10059</ele>
        <time>2026-05-15T13:58:39+02:00</time>
      </trkpt>
      <trkpt lat="47.34152" lon="5.46449">
        <ele>185.2002</ele>
        <time>2026-05-15T13:58:40+02:00</time>
      </trkpt>
      <trkpt lat="47.34155" lon="5.46442">
        <ele>185.2002</ele>
        <time>2026-05-15T13:58:41+02:00</time>
      </trkpt>
      <trkpt lat="47.34159" lon="5.46436">
        <ele>185.2998</ele>
        <time>2026-05-15T13:58:42+02:00</time>
      </trkpt>
      <trkpt lat="47.34162" lon="5.46429">
        <ele>185.2998</ele>
        <time>2026-05-15T13:58:43+02:00</time>
      </trkpt>
      <trkpt lat="47.34166" lon="5.46422">
        <ele>185.40039</ele>
        <time>2026-05-15T13:58:44+02:00</time>
      </trkpt>
      <trkpt lat="47.34169" lon="5.46415">
        <ele>185.60059</ele>
        <time>2026-05-15T13:58:45+02:00</time>
      </trkpt>
      <trkpt lat="47.34173" lon="5.46408">
        <ele>185.60059</ele>
        <time>2026-05-15T13:58:46+02:00</time>
      </trkpt>
      <trkpt lat="47.34176" lon="5.46402">
        <ele>185.7998</ele>
        <time>2026-05-15T13:58:47+02:00</time>
      </trkpt>
      <trkpt lat="47.34179" lon="5.46395">
        <ele>186.10059</ele>
        <time>2026-05-15T13:58:48+02:00</time>
      </trkpt>
      <trkpt lat="47.34182" lon="5.46388">
        <ele>186.2998</ele>
        <time>2026-05-15T13:58:49+02:00</time>
      </trkpt>
      <trkpt lat="47.34186" lon="5.46381">
        <ele>186.60059</ele>
        <time>2026-05-15T13:58:50+02:00</time>
      </trkpt>
      <trkpt lat="47.34189" lon="5.46375">
        <ele>186.60059</ele>
        <time>2026-05-15T13:58:51+02:00</time>
      </trkpt>
      <trkpt lat="47.34193" lon="5.46368">
        <ele>186.7998</ele>
        <time>2026-05-15T13:58:52+02:00</time>
      </trkpt>
      <trkpt lat="47.34196" lon="5.46361">
        <ele>187</ele>
        <time>2026-05-15T13:58:53+02:00</time>
      </trkpt>
      <trkpt lat="47.342" lon="5.46354">
        <ele>187.2002</ele>
        <time>2026-05-15T13:58:54+02:00</time>
      </trkpt>
      <trkpt lat="47.34203" lon="5.46348">
        <ele>187.2002</ele>
        <time>2026-05-15T13:58:55+02:00</time>
      </trkpt>
      <trkpt lat="47.34207" lon="5.46341">
        <ele>187.2998</ele>
        <time>2026-05-15T13:58:56+02:00</time>
      </trkpt>
      <trkpt lat="47.3421" lon="5.46334">
        <ele>187.40039</ele>
        <time>2026-05-15T13:58:57+02:00</time>
      </trkpt>
      <trkpt lat="47.34214" lon="5.46328">
        <ele>187.2998</ele>
        <time>2026-05-15T13:58:58+02:00</time>
      </trkpt>
      <trkpt lat="47.34217" lon="5.46321">
        <ele>187.2998</ele>
        <time>2026-05-15T13:58:59+02:00</time>
      </trkpt>
      <trkpt lat="47.34221" lon="5.46314">
        <ele>187.2998</ele>
        <time>2026-05-15T13:59:00+02:00</time>
      </trkpt>
      <trkpt lat="47.34224" lon="5.46307">
        <ele>187.2998</ele>
        <time>2026-05-15T13:59:01+02:00</time>
      </trkpt>
      <trkpt lat="47.34228" lon="5.46301">
        <ele>187.10059</ele>
        <time>2026-05-15T13:59:02+02:00</time>
      </trkpt>
      <trkpt lat="47.34231" lon="5.46294">
        <ele>187.10059</ele>
        <time>2026-05-15T13:59:03+02:00</time>
      </trkpt>
      <trkpt lat="47.34234" lon="5.46288">
        <ele>187</ele>
        <time>2026-05-15T13:59:04+02:00</time>
      </trkpt>
      <trkpt lat="47.34237" lon="5.46281">
        <ele>186.90039</ele>
        <time>2026-05-15T13:59:05+02:00</time>
      </trkpt>
      <trkpt lat="47.34241" lon="5.46275">
        <ele>186.7998</ele>
        <time>2026-05-15T13:59:06+02:00</time>
      </trkpt>
      <trkpt lat="47.34244" lon="5.46268">
        <ele>186.7002</ele>
        <time>2026-05-15T13:59:07+02:00</time>
      </trkpt>
      <trkpt lat="47.34247" lon="5.46261">
        <ele>186.7002</ele>
        <time>2026-05-15T13:59:08+02:00</time>
      </trkpt>
      <trkpt lat="47.34251" lon="5.46255">
        <ele>186.60059</ele>
        <time>2026-05-15T13:59:09+02:00</time>
      </trkpt>
      <trkpt lat="47.34254" lon="5.46248">
        <ele>186.5</ele>
        <time>2026-05-15T13:59:10+02:00</time>
      </trkpt>
      <trkpt lat="47.34257" lon="5.46242">
        <ele>186.5</ele>
        <time>2026-05-15T13:59:11+02:00</time>
      </trkpt>
      <trkpt lat="47.34261" lon="5.46235">
        <ele>186.40039</ele>
        <time>2026-05-15T13:59:12+02:00</time>
      </trkpt>
      <trkpt lat="47.34264" lon="5.46229">
        <ele>186.40039</ele>
        <time>2026-05-15T13:59:13+02:00</time>
      </trkpt>
      <trkpt lat="47.34267" lon="5.46222">
        <ele>186.40039</ele>
        <time>2026-05-15T13:59:14+02:00</time>
      </trkpt>
      <trkpt lat="47.34271" lon="5.46215">
        <ele>186.40039</ele>
        <time>2026-05-15T13:59:15+02:00</time>
      </trkpt>
      <trkpt lat="47.34274" lon="5.46209">
        <ele>186.40039</ele>
        <time>2026-05-15T13:59:16+02:00</time>
      </trkpt>
      <trkpt lat="47.34277" lon="5.46202">
        <ele>186.40039</ele>
        <time>2026-05-15T13:59:17+02:00</time>
      </trkpt>
      <trkpt lat="47.34281" lon="5.46196">
        <ele>186.40039</ele>
        <time>2026-05-15T13:59:18+02:00</time>
      </trkpt>
      <trkpt lat="47.34284" lon="5.46189">
        <ele>186.2998</ele>
        <time>2026-05-15T13:59:19+02:00</time>
      </trkpt>
      <trkpt lat="47.34287" lon="5.46182">
        <ele>186.2998</ele>
        <time>2026-05-15T13:59:20+02:00</time>
      </trkpt>
      <trkpt lat="47.34291" lon="5.46176">
        <ele>186.2998</ele>
        <time>2026-05-15T13:59:21+02:00</time>
      </trkpt>
      <trkpt lat="47.34294" lon="5.46169">
        <ele>186.2998</ele>
        <time>2026-05-15T13:59:22+02:00</time>
      </trkpt>
      <trkpt lat="47.34298" lon="5.46162">
        <ele>186.2998</ele>
        <time>2026-05-15T13:59:23+02:00</time>
      </trkpt>
      <trkpt lat="47.34301" lon="5.46156">
        <ele>186.2002</ele>
        <time>2026-05-15T13:59:24+02:00</time>
      </trkpt>
      <trkpt lat="47.34305" lon="5.46149">
        <ele>186.2002</ele>
        <time>2026-05-15T13:59:25+02:00</time>
      </trkpt>
      <trkpt lat="47.34308" lon="5.46142">
        <ele>186.2002</ele>
        <time>2026-05-15T13:59:26+02:00</time>
      </trkpt>
      <trkpt lat="47.34311" lon="5.46136">
        <ele>186.2002</ele>
        <time>2026-05-15T13:59:27+02:00</time>
      </trkpt>
      <trkpt lat="47.34315" lon="5.46129">
        <ele>186.2002</ele>
        <time>2026-05-15T13:59:28+02:00</time>
      </trkpt>
      <trkpt lat="47.34318" lon="5.46123">
        <ele>186.2002</ele>
        <time>2026-05-15T13:59:29+02:00</time>
      </trkpt>
      <trkpt lat="47.34321" lon="5.46116">
        <ele>186.2002</ele>
        <time>2026-05-15T13:59:30+02:00</time>
      </trkpt>
      <trkpt lat="47.34324" lon="5.4611">
        <ele>186.2002</ele>
        <time>2026-05-15T13:59:31+02:00</time>
      </trkpt>
      <trkpt lat="47.34328" lon="5.46104">
        <ele>186.2002</ele>
        <time>2026-05-15T13:59:32+02:00</time>
      </trkpt>
      <trkpt lat="47.34331" lon="5.46097">
        <ele>186.2002</ele>
        <time>2026-05-15T13:59:33+02:00</time>
      </trkpt>
      <trkpt lat="47.34334" lon="5.4609">
        <ele>186.2002</ele>
        <time>2026-05-15T13:59:34+02:00</time>
      </trkpt>
      <trkpt lat="47.34337" lon="5.46084">
        <ele>186.2998</ele>
        <time>2026-05-15T13:59:35+02:00</time>
      </trkpt>
      <trkpt lat="47.34341" lon="5.46078">
        <ele>186.2998</ele>
        <time>2026-05-15T13:59:36+02:00</time>
      </trkpt>
      <trkpt lat="47.34344" lon="5.46071">
        <ele>186.40039</ele>
        <time>2026-05-15T13:59:37+02:00</time>
      </trkpt>
      <trkpt lat="47.34348" lon="5.46064">
        <ele>186.40039</ele>
        <time>2026-05-15T13:59:38+02:00</time>
      </trkpt>
      <trkpt lat="47.34351" lon="5.46058">
        <ele>186.5</ele>
        <time>2026-05-15T13:59:39+02:00</time>
      </trkpt>
      <trkpt lat="47.34354" lon="5.46051">
        <ele>186.60059</ele>
        <time>2026-05-15T13:59:40+02:00</time>
      </trkpt>
      <trkpt lat="47.34357" lon="5.46044">
        <ele>186.7002</ele>
        <time>2026-05-15T13:59:41+02:00</time>
      </trkpt>
      <trkpt lat="47.34361" lon="5.46038">
        <ele>186.7002</ele>
        <time>2026-05-15T13:59:42+02:00</time>
      </trkpt>
      <trkpt lat="47.34364" lon="5.46031">
        <ele>186.7998</ele>
        <time>2026-05-15T13:59:43+02:00</time>
      </trkpt>
      <trkpt lat="47.34368" lon="5.46025">
        <ele>186.90039</ele>
        <time>2026-05-15T13:59:44+02:00</time>
      </trkpt>
      <trkpt lat="47.34371" lon="5.46018">
        <ele>187</ele>
        <time>2026-05-15T13:59:45+02:00</time>
      </trkpt>
      <trkpt lat="47.34374" lon="5.46012">
        <ele>187</ele>
        <time>2026-05-15T13:59:46+02:00</time>
      </trkpt>
      <trkpt lat="47.34377" lon="5.46005">
        <ele>187</ele>
        <time>2026-05-15T13:59:47+02:00</time>
      </trkpt>
      <trkpt lat="47.34381" lon="5.45998">
        <ele>187.10059</ele>
        <time>2026-05-15T13:59:48+02:00</time>
      </trkpt>
      <trkpt lat="47.34384" lon="5.45992">
        <ele>187.10059</ele>
        <time>2026-05-15T13:59:49+02:00</time>
      </trkpt>
      <trkpt lat="47.34388" lon="5.45985">
        <ele>187.10059</ele>
        <time>2026-05-15T13:59:50+02:00</time>
      </trkpt>
      <trkpt lat="47.34391" lon="5.45978">
        <ele>187.10059</ele>
        <time>2026-05-15T13:59:51+02:00</time>
      </trkpt>
      <trkpt lat="47.34395" lon="5.45971">
        <ele>187.10059</ele>
        <time>2026-05-15T13:59:52+02:00</time>
      </trkpt>
      <trkpt lat="47.34398" lon="5.45965">
        <ele>187.10059</ele>
        <time>2026-05-15T13:59:53+02:00</time>
      </trkpt>
      <trkpt lat="47.34401" lon="5.45958">
        <ele>187.10059</ele>
        <time>2026-05-15T13:59:54+02:00</time>
      </trkpt>
      <trkpt lat="47.34405" lon="5.45951">
        <ele>187.10059</ele>
        <time>2026-05-15T13:59:55+02:00</time>
      </trkpt>
      <trkpt lat="47.34408" lon="5.45945">
        <ele>187.2002</ele>
        <time>2026-05-15T13:59:56+02:00</time>
      </trkpt>
      <trkpt lat="47.34412" lon="5.45938">
        <ele>187.2002</ele>
        <time>2026-05-15T13:59:57+02:00</time>
      </trkpt>
      <trkpt lat="47.34415" lon="5.45931">
        <ele>187.2002</ele>
        <time>2026-05-15T13:59:58+02:00</time>
      </trkpt>
      <trkpt lat="47.34418" lon="5.45925">
        <ele>187.2998</ele>
        <time>2026-05-15T13:59:59+02:00</time>
      </trkpt>
      <trkpt lat="47.34422" lon="5.45918">
        <ele>187.2998</ele>
        <time>2026-05-15T14:00:00+02:00</time>
      </trkpt>
      <trkpt lat="47.34425" lon="5.45911">
        <ele>187.2998</ele>
        <time>2026-05-15T14:00:01+02:00</time>
      </trkpt>
      <trkpt lat="47.34429" lon="5.45905">
        <ele>187.40039</ele>
        <time>2026-05-15T14:00:02+02:00</time>
      </trkpt>
      <trkpt lat="47.34432" lon="5.45898">
        <ele>187.40039</ele>
        <time>2026-05-15T14:00:03+02:00</time>
      </trkpt>
      <trkpt lat="47.34435" lon="5.45891">
        <ele>187.5</ele>
        <time>2026-05-15T14:00:04+02:00</time>
      </trkpt>
      <trkpt lat="47.34438" lon="5.45885">
        <ele>187.5</ele>
        <time>2026-05-15T14:00:05+02:00</time>
      </trkpt>
      <trkpt lat="47.34442" lon="5.45878">
        <ele>187.60059</ele>
        <time>2026-05-15T14:00:06+02:00</time>
      </trkpt>
      <trkpt lat="47.34445" lon="5.45872">
        <ele>187.60059</ele>
        <time>2026-05-15T14:00:07+02:00</time>
      </trkpt>
      <trkpt lat="47.34448" lon="5.45865">
        <ele>187.7002</ele>
        <time>2026-05-15T14:00:08+02:00</time>
      </trkpt>
      <trkpt lat="47.34451" lon="5.45859">
        <ele>187.7002</ele>
        <time>2026-05-15T14:00:09+02:00</time>
      </trkpt>
      <trkpt lat="47.34455" lon="5.45852">
        <ele>187.7002</ele>
        <time>2026-05-15T14:00:10+02:00</time>
      </trkpt>
      <trkpt lat="47.34458" lon="5.45846">
        <ele>187.7998</ele>
        <time>2026-05-15T14:00:11+02:00</time>
      </trkpt>
      <trkpt lat="47.34462" lon="5.45839">
        <ele>187.7998</ele>
        <time>2026-05-15T14:00:12+02:00</time>
      </trkpt>
      <trkpt lat="47.34465" lon="5.45833">
        <ele>187.7998</ele>
        <time>2026-05-15T14:00:13+02:00</time>
      </trkpt>
      <trkpt lat="47.34469" lon="5.45826">
        <ele>187.7998</ele>
        <time>2026-05-15T14:00:14+02:00</time>
      </trkpt>
      <trkpt lat="47.34472" lon="5.4582">
        <ele>187.7998</ele>
        <time>2026-05-15T14:00:15+02:00</time>
      </trkpt>
      <trkpt lat="47.34475" lon="5.45813">
        <ele>187.7002</ele>
        <time>2026-05-15T14:00:16+02:00</time>
      </trkpt>
      <trkpt lat="47.34478" lon="5.45807">
        <ele>187.7998</ele>
        <time>2026-05-15T14:00:17+02:00</time>
      </trkpt>
      <trkpt lat="47.34482" lon="5.458">
        <ele>187.7002</ele>
        <time>2026-05-15T14:00:18+02:00</time>
      </trkpt>
      <trkpt lat="47.34485" lon="5.45794">
        <ele>187.60059</ele>
        <time>2026-05-15T14:00:19+02:00</time>
      </trkpt>
      <trkpt lat="47.34488" lon="5.45787">
        <ele>187.60059</ele>
        <time>2026-05-15T14:00:20+02:00</time>
      </trkpt>
      <trkpt lat="47.34491" lon="5.45781">
        <ele>187.60059</ele>
        <time>2026-05-15T14:00:21+02:00</time>
      </trkpt>
      <trkpt lat="47.34495" lon="5.45774">
        <ele>187.5</ele>
        <time>2026-05-15T14:00:22+02:00</time>
      </trkpt>
      <trkpt lat="47.34498" lon="5.45768">
        <ele>187.40039</ele>
        <time>2026-05-15T14:00:23+02:00</time>
      </trkpt>
      <trkpt lat="47.34501" lon="5.45762">
        <ele>187.2998</ele>
        <time>2026-05-15T14:00:24+02:00</time>
      </trkpt>
      <trkpt lat="47.34504" lon="5.45755">
        <ele>187.2998</ele>
        <time>2026-05-15T14:00:25+02:00</time>
      </trkpt>
      <trkpt lat="47.34508" lon="5.45749">
        <ele>187.2998</ele>
        <time>2026-05-15T14:00:26+02:00</time>
      </trkpt>
      <trkpt lat="47.34511" lon="5.45743">
        <ele>187.2998</ele>
        <time>2026-05-15T14:00:27+02:00</time>
      </trkpt>
      <trkpt lat="47.34514" lon="5.45737">
        <ele>187.2002</ele>
        <time>2026-05-15T14:00:28+02:00</time>
      </trkpt>
      <trkpt lat="47.34517" lon="5.4573">
        <ele>187.2002</ele>
        <time>2026-05-15T14:00:29+02:00</time>
      </trkpt>
      <trkpt lat="47.3452" lon="5.45724">
        <ele>187.2002</ele>
        <time>2026-05-15T14:00:30+02:00</time>
      </trkpt>
      <trkpt lat="47.34524" lon="5.45718">
        <ele>187.2002</ele>
        <time>2026-05-15T14:00:31+02:00</time>
      </trkpt>
      <trkpt lat="47.34527" lon="5.45711">
        <ele>187.2002</ele>
        <time>2026-05-15T14:00:32+02:00</time>
      </trkpt>
      <trkpt lat="47.3453" lon="5.45705">
        <ele>187.2002</ele>
        <time>2026-05-15T14:00:33+02:00</time>
      </trkpt>
      <trkpt lat="47.34534" lon="5.45698">
        <ele>187.2002</ele>
        <time>2026-05-15T14:00:34+02:00</time>
      </trkpt>
      <trkpt lat="47.34537" lon="5.45692">
        <ele>187.2002</ele>
        <time>2026-05-15T14:00:35+02:00</time>
      </trkpt>
      <trkpt lat="47.3454" lon="5.45685">
        <ele>187.2002</ele>
        <time>2026-05-15T14:00:36+02:00</time>
      </trkpt>
      <trkpt lat="47.34544" lon="5.45679">
        <ele>187.2002</ele>
        <time>2026-05-15T14:00:37+02:00</time>
      </trkpt>
      <trkpt lat="47.34547" lon="5.45672">
        <ele>187.2002</ele>
        <time>2026-05-15T14:00:38+02:00</time>
      </trkpt>
      <trkpt lat="47.3455" lon="5.45666">
        <ele>187.2002</ele>
        <time>2026-05-15T14:00:39+02:00</time>
      </trkpt>
      <trkpt lat="47.34553" lon="5.4566">
        <ele>187.2002</ele>
        <time>2026-05-15T14:00:40+02:00</time>
      </trkpt>
      <trkpt lat="47.34557" lon="5.45653">
        <ele>187.2002</ele>
        <time>2026-05-15T14:00:41+02:00</time>
      </trkpt>
      <trkpt lat="47.3456" lon="5.45647">
        <ele>187.2002</ele>
        <time>2026-05-15T14:00:42+02:00</time>
      </trkpt>
      <trkpt lat="47.34563" lon="5.45641">
        <ele>187.2002</ele>
        <time>2026-05-15T14:00:43+02:00</time>
      </trkpt>
      <trkpt lat="47.34566" lon="5.45634">
        <ele>187.2002</ele>
        <time>2026-05-15T14:00:44+02:00</time>
      </trkpt>
      <trkpt lat="47.34569" lon="5.45628">
        <ele>187.2002</ele>
        <time>2026-05-15T14:00:45+02:00</time>
      </trkpt>
      <trkpt lat="47.34572" lon="5.45622">
        <ele>187.2002</ele>
        <time>2026-05-15T14:00:46+02:00</time>
      </trkpt>
      <trkpt lat="47.34575" lon="5.45615">
        <ele>187.2002</ele>
        <time>2026-05-15T14:00:47+02:00</time>
      </trkpt>
      <trkpt lat="47.34579" lon="5.45609">
        <ele>187.2002</ele>
        <time>2026-05-15T14:00:48+02:00</time>
      </trkpt>
      <trkpt lat="47.34582" lon="5.45603">
        <ele>187.2002</ele>
        <time>2026-05-15T14:00:49+02:00</time>
      </trkpt>
      <trkpt lat="47.34585" lon="5.45597">
        <ele>187.2002</ele>
        <time>2026-05-15T14:00:50+02:00</time>
      </trkpt>
      <trkpt lat="47.34589" lon="5.4559">
        <ele>187.2002</ele>
        <time>2026-05-15T14:00:51+02:00</time>
      </trkpt>
      <trkpt lat="47.34592" lon="5.45584">
        <ele>187.2002</ele>
        <time>2026-05-15T14:00:52+02:00</time>
      </trkpt>
      <trkpt lat="47.34595" lon="5.45578">
        <ele>187.2998</ele>
        <time>2026-05-15T14:00:53+02:00</time>
      </trkpt>
      <trkpt lat="47.34598" lon="5.45571">
        <ele>187.2998</ele>
        <time>2026-05-15T14:00:54+02:00</time>
      </trkpt>
      <trkpt lat="47.34602" lon="5.45565">
        <ele>187.2998</ele>
        <time>2026-05-15T14:00:55+02:00</time>
      </trkpt>
      <trkpt lat="47.34605" lon="5.45558">
        <ele>187.2998</ele>
        <time>2026-05-15T14:00:56+02:00</time>
      </trkpt>
      <trkpt lat="47.34609" lon="5.45552">
        <ele>187.40039</ele>
        <time>2026-05-15T14:00:57+02:00</time>
      </trkpt>
      <trkpt lat="47.34612" lon="5.45545">
        <ele>187.40039</ele>
        <time>2026-05-15T14:00:58+02:00</time>
      </trkpt>
      <trkpt lat="47.34615" lon="5.45538">
        <ele>187.5</ele>
        <time>2026-05-15T14:00:59+02:00</time>
      </trkpt>
      <trkpt lat="47.34619" lon="5.45532">
        <ele>187.5</ele>
        <time>2026-05-15T14:01:00+02:00</time>
      </trkpt>
      <trkpt lat="47.34622" lon="5.45525">
        <ele>187.60059</ele>
        <time>2026-05-15T14:01:01+02:00</time>
      </trkpt>
      <trkpt lat="47.34625" lon="5.45519">
        <ele>187.60059</ele>
        <time>2026-05-15T14:01:02+02:00</time>
      </trkpt>
      <trkpt lat="47.34628" lon="5.45512">
        <ele>187.7002</ele>
        <time>2026-05-15T14:01:03+02:00</time>
      </trkpt>
      <trkpt lat="47.34632" lon="5.45505">
        <ele>187.7002</ele>
        <time>2026-05-15T14:01:04+02:00</time>
      </trkpt>
      <trkpt lat="47.34636" lon="5.45498">
        <ele>187.7998</ele>
        <time>2026-05-15T14:01:05+02:00</time>
      </trkpt>
      <trkpt lat="47.34639" lon="5.45492">
        <ele>187.7998</ele>
        <time>2026-05-15T14:01:06+02:00</time>
      </trkpt>
      <trkpt lat="47.34643" lon="5.45485">
        <ele>187.7998</ele>
        <time>2026-05-15T14:01:07+02:00</time>
      </trkpt>
      <trkpt lat="47.34646" lon="5.45478">
        <ele>187.7998</ele>
        <time>2026-05-15T14:01:08+02:00</time>
      </trkpt>
      <trkpt lat="47.3465" lon="5.45471">
        <ele>187.7998</ele>
        <time>2026-05-15T14:01:09+02:00</time>
      </trkpt>
      <trkpt lat="47.34654" lon="5.45464">
        <ele>187.7998</ele>
        <time>2026-05-15T14:01:10+02:00</time>
      </trkpt>
      <trkpt lat="47.34657" lon="5.45457">
        <ele>187.7002</ele>
        <time>2026-05-15T14:01:11+02:00</time>
      </trkpt>
      <trkpt lat="47.3466" lon="5.4545">
        <ele>187.60059</ele>
        <time>2026-05-15T14:01:12+02:00</time>
      </trkpt>
      <trkpt lat="47.34664" lon="5.45443">
        <ele>187.60059</ele>
        <time>2026-05-15T14:01:13+02:00</time>
      </trkpt>
      <trkpt lat="47.34667" lon="5.45437">
        <ele>187.60059</ele>
        <time>2026-05-15T14:01:14+02:00</time>
      </trkpt>
      <trkpt lat="47.34671" lon="5.4543">
        <ele>187.60059</ele>
        <time>2026-05-15T14:01:15+02:00</time>
      </trkpt>
      <trkpt lat="47.34675" lon="5.45423">
        <ele>187.60059</ele>
        <time>2026-05-15T14:01:16+02:00</time>
      </trkpt>
      <trkpt lat="47.34678" lon="5.45416">
        <ele>187.5</ele>
        <time>2026-05-15T14:01:17+02:00</time>
      </trkpt>
      <trkpt lat="47.34681" lon="5.4541">
        <ele>187.60059</ele>
        <time>2026-05-15T14:01:18+02:00</time>
      </trkpt>
      <trkpt lat="47.34685" lon="5.45403">
        <ele>187.60059</ele>
        <time>2026-05-15T14:01:19+02:00</time>
      </trkpt>
      <trkpt lat="47.34688" lon="5.45396">
        <ele>187.60059</ele>
        <time>2026-05-15T14:01:20+02:00</time>
      </trkpt>
      <trkpt lat="47.34692" lon="5.45389">
        <ele>187.7002</ele>
        <time>2026-05-15T14:01:21+02:00</time>
      </trkpt>
      <trkpt lat="47.34695" lon="5.45382">
        <ele>187.7998</ele>
        <time>2026-05-15T14:01:22+02:00</time>
      </trkpt>
      <trkpt lat="47.34699" lon="5.45375">
        <ele>187.90039</ele>
        <time>2026-05-15T14:01:23+02:00</time>
      </trkpt>
      <trkpt lat="47.34702" lon="5.45368">
        <ele>187.90039</ele>
        <time>2026-05-15T14:01:24+02:00</time>
      </trkpt>
      <trkpt lat="47.34706" lon="5.45361">
        <ele>188</ele>
        <time>2026-05-15T14:01:25+02:00</time>
      </trkpt>
      <trkpt lat="47.34709" lon="5.45354">
        <ele>188.2002</ele>
        <time>2026-05-15T14:01:26+02:00</time>
      </trkpt>
      <trkpt lat="47.34713" lon="5.45347">
        <ele>188.2998</ele>
        <time>2026-05-15T14:01:27+02:00</time>
      </trkpt>
      <trkpt lat="47.34716" lon="5.4534">
        <ele>188.40039</ele>
        <time>2026-05-15T14:01:28+02:00</time>
      </trkpt>
      <trkpt lat="47.3472" lon="5.45333">
        <ele>188.5</ele>
        <time>2026-05-15T14:01:29+02:00</time>
      </trkpt>
      <trkpt lat="47.34723" lon="5.45326">
        <ele>188.5</ele>
        <time>2026-05-15T14:01:30+02:00</time>
      </trkpt>
      <trkpt lat="47.34726" lon="5.45319">
        <ele>188.60059</ele>
        <time>2026-05-15T14:01:31+02:00</time>
      </trkpt>
      <trkpt lat="47.3473" lon="5.45312">
        <ele>188.5</ele>
        <time>2026-05-15T14:01:32+02:00</time>
      </trkpt>
      <trkpt lat="47.34734" lon="5.45305">
        <ele>188.5</ele>
        <time>2026-05-15T14:01:33+02:00</time>
      </trkpt>
      <trkpt lat="47.34737" lon="5.45298">
        <ele>188.40039</ele>
        <time>2026-05-15T14:01:34+02:00</time>
      </trkpt>
      <trkpt lat="47.34741" lon="5.45291">
        <ele>188.5</ele>
        <time>2026-05-15T14:01:35+02:00</time>
      </trkpt>
      <trkpt lat="47.34744" lon="5.45284">
        <ele>188.40039</ele>
        <time>2026-05-15T14:01:36+02:00</time>
      </trkpt>
      <trkpt lat="47.34747" lon="5.45278">
        <ele>188.2998</ele>
        <time>2026-05-15T14:01:37+02:00</time>
      </trkpt>
      <trkpt lat="47.34751" lon="5.45271">
        <ele>188.2002</ele>
        <time>2026-05-15T14:01:38+02:00</time>
      </trkpt>
      <trkpt lat="47.34754" lon="5.45265">
        <ele>188.2002</ele>
        <time>2026-05-15T14:01:39+02:00</time>
      </trkpt>
      <trkpt lat="47.34757" lon="5.45259">
        <ele>188.10059</ele>
        <time>2026-05-15T14:01:40+02:00</time>
      </trkpt>
      <trkpt lat="47.34761" lon="5.45252">
        <ele>188</ele>
        <time>2026-05-15T14:01:41+02:00</time>
      </trkpt>
      <trkpt lat="47.34764" lon="5.45246">
        <ele>188</ele>
        <time>2026-05-15T14:01:42+02:00</time>
      </trkpt>
      <trkpt lat="47.34767" lon="5.4524">
        <ele>187.90039</ele>
        <time>2026-05-15T14:01:43+02:00</time>
      </trkpt>
      <trkpt lat="47.3477" lon="5.45233">
        <ele>187.90039</ele>
        <time>2026-05-15T14:01:44+02:00</time>
      </trkpt>
      <trkpt lat="47.34774" lon="5.45227">
        <ele>187.7998</ele>
        <time>2026-05-15T14:01:45+02:00</time>
      </trkpt>
      <trkpt lat="47.34777" lon="5.4522">
        <ele>187.7998</ele>
        <time>2026-05-15T14:01:46+02:00</time>
      </trkpt>
      <trkpt lat="47.3478" lon="5.45214">
        <ele>187.7998</ele>
        <time>2026-05-15T14:01:47+02:00</time>
      </trkpt>
      <trkpt lat="47.34783" lon="5.45207">
        <ele>187.7998</ele>
        <time>2026-05-15T14:01:48+02:00</time>
      </trkpt>
      <trkpt lat="47.34786" lon="5.452">
        <ele>187.7998</ele>
        <time>2026-05-15T14:01:49+02:00</time>
      </trkpt>
      <trkpt lat="47.3479" lon="5.45193">
        <ele>187.7998</ele>
        <time>2026-05-15T14:01:50+02:00</time>
      </trkpt>
      <trkpt lat="47.34793" lon="5.45186">
        <ele>187.7998</ele>
        <time>2026-05-15T14:01:51+02:00</time>
      </trkpt>
      <trkpt lat="47.34797" lon="5.45179">
        <ele>187.90039</ele>
        <time>2026-05-15T14:01:52+02:00</time>
      </trkpt>
      <trkpt lat="47.348" lon="5.45172">
        <ele>187.90039</ele>
        <time>2026-05-15T14:01:53+02:00</time>
      </trkpt>
      <trkpt lat="47.34804" lon="5.45165">
        <ele>188</ele>
        <time>2026-05-15T14:01:54+02:00</time>
      </trkpt>
      <trkpt lat="47.34807" lon="5.45158">
        <ele>188.10059</ele>
        <time>2026-05-15T14:01:55+02:00</time>
      </trkpt>
      <trkpt lat="47.3481" lon="5.45151">
        <ele>188.2002</ele>
        <time>2026-05-15T14:01:56+02:00</time>
      </trkpt>
      <trkpt lat="47.34813" lon="5.45144">
        <ele>188.2998</ele>
        <time>2026-05-15T14:01:57+02:00</time>
      </trkpt>
      <trkpt lat="47.34816" lon="5.45137">
        <ele>188.2998</ele>
        <time>2026-05-15T14:01:58+02:00</time>
      </trkpt>
      <trkpt lat="47.3482" lon="5.45129">
        <ele>188.5</ele>
        <time>2026-05-15T14:01:59+02:00</time>
      </trkpt>
      <trkpt lat="47.34823" lon="5.45122">
        <ele>188.60059</ele>
        <time>2026-05-15T14:02:00+02:00</time>
      </trkpt>
      <trkpt lat="47.34826" lon="5.45115">
        <ele>188.7002</ele>
        <time>2026-05-15T14:02:01+02:00</time>
      </trkpt>
      <trkpt lat="47.34829" lon="5.45108">
        <ele>188.7998</ele>
        <time>2026-05-15T14:02:02+02:00</time>
      </trkpt>
      <trkpt lat="47.34832" lon="5.45101">
        <ele>188.90039</ele>
        <time>2026-05-15T14:02:03+02:00</time>
      </trkpt>
      <trkpt lat="47.34835" lon="5.45095">
        <ele>188.90039</ele>
        <time>2026-05-15T14:02:04+02:00</time>
      </trkpt>
      <trkpt lat="47.34838" lon="5.45087">
        <ele>188.90039</ele>
        <time>2026-05-15T14:02:05+02:00</time>
      </trkpt>
      <trkpt lat="47.34841" lon="5.45081">
        <ele>189</ele>
        <time>2026-05-15T14:02:06+02:00</time>
      </trkpt>
      <trkpt lat="47.34844" lon="5.45074">
        <ele>189</ele>
        <time>2026-05-15T14:02:07+02:00</time>
      </trkpt>
      <trkpt lat="47.34847" lon="5.45067">
        <ele>189</ele>
        <time>2026-05-15T14:02:08+02:00</time>
      </trkpt>
      <trkpt lat="47.3485" lon="5.45059">
        <ele>189</ele>
        <time>2026-05-15T14:02:09+02:00</time>
      </trkpt>
      <trkpt lat="47.34853" lon="5.45052">
        <ele>189</ele>
        <time>2026-05-15T14:02:10+02:00</time>
      </trkpt>
      <trkpt lat="47.34857" lon="5.45045">
        <ele>188.90039</ele>
        <time>2026-05-15T14:02:11+02:00</time>
      </trkpt>
      <trkpt lat="47.3486" lon="5.45038">
        <ele>188.90039</ele>
        <time>2026-05-15T14:02:12+02:00</time>
      </trkpt>
      <trkpt lat="47.34863" lon="5.45031">
        <ele>188.90039</ele>
        <time>2026-05-15T14:02:13+02:00</time>
      </trkpt>
      <trkpt lat="47.34866" lon="5.45024">
        <ele>188.7998</ele>
        <time>2026-05-15T14:02:14+02:00</time>
      </trkpt>
      <trkpt lat="47.34869" lon="5.45016">
        <ele>188.7998</ele>
        <time>2026-05-15T14:02:15+02:00</time>
      </trkpt>
      <trkpt lat="47.34872" lon="5.45009">
        <ele>188.7998</ele>
        <time>2026-05-15T14:02:16+02:00</time>
      </trkpt>
      <trkpt lat="47.34875" lon="5.45002">
        <ele>188.7998</ele>
        <time>2026-05-15T14:02:17+02:00</time>
      </trkpt>
      <trkpt lat="47.34878" lon="5.44995">
        <ele>188.7998</ele>
        <time>2026-05-15T14:02:18+02:00</time>
      </trkpt>
      <trkpt lat="47.34881" lon="5.44988">
        <ele>188.7998</ele>
        <time>2026-05-15T14:02:19+02:00</time>
      </trkpt>
      <trkpt lat="47.34884" lon="5.44981">
        <ele>188.7998</ele>
        <time>2026-05-15T14:02:20+02:00</time>
      </trkpt>
      <trkpt lat="47.34887" lon="5.44975">
        <ele>188.7998</ele>
        <time>2026-05-15T14:02:21+02:00</time>
      </trkpt>
      <trkpt lat="47.3489" lon="5.44968">
        <ele>188.7998</ele>
        <time>2026-05-15T14:02:22+02:00</time>
      </trkpt>
      <trkpt lat="47.34893" lon="5.44961">
        <ele>188.90039</ele>
        <time>2026-05-15T14:02:23+02:00</time>
      </trkpt>
      <trkpt lat="47.34896" lon="5.44954">
        <ele>188.90039</ele>
        <time>2026-05-15T14:02:24+02:00</time>
      </trkpt>
      <trkpt lat="47.34899" lon="5.44947">
        <ele>189</ele>
        <time>2026-05-15T14:02:25+02:00</time>
      </trkpt>
      <trkpt lat="47.34902" lon="5.4494">
        <ele>188.90039</ele>
        <time>2026-05-15T14:02:26+02:00</time>
      </trkpt>
      <trkpt lat="47.34905" lon="5.44933">
        <ele>188.90039</ele>
        <time>2026-05-15T14:02:27+02:00</time>
      </trkpt>
      <trkpt lat="47.34908" lon="5.44926">
        <ele>188.7998</ele>
        <time>2026-05-15T14:02:28+02:00</time>
      </trkpt>
      <trkpt lat="47.34911" lon="5.4492">
        <ele>188.7998</ele>
        <time>2026-05-15T14:02:29+02:00</time>
      </trkpt>
      <trkpt lat="47.34914" lon="5.44913">
        <ele>188.7002</ele>
        <time>2026-05-15T14:02:30+02:00</time>
      </trkpt>
      <trkpt lat="47.34917" lon="5.44906">
        <ele>188.7002</ele>
        <time>2026-05-15T14:02:31+02:00</time>
      </trkpt>
      <trkpt lat="47.3492" lon="5.449">
        <ele>188.5</ele>
        <time>2026-05-15T14:02:32+02:00</time>
      </trkpt>
      <trkpt lat="47.34923" lon="5.44893">
        <ele>188.40039</ele>
        <time>2026-05-15T14:02:33+02:00</time>
      </trkpt>
      <trkpt lat="47.34926" lon="5.44886">
        <ele>188.2002</ele>
        <time>2026-05-15T14:02:34+02:00</time>
      </trkpt>
      <trkpt lat="47.34929" lon="5.44879">
        <ele>188.2002</ele>
        <time>2026-05-15T14:02:35+02:00</time>
      </trkpt>
      <trkpt lat="47.34932" lon="5.44871">
        <ele>188</ele>
        <time>2026-05-15T14:02:36+02:00</time>
      </trkpt>
      <trkpt lat="47.34935" lon="5.44864">
        <ele>187.90039</ele>
        <time>2026-05-15T14:02:37+02:00</time>
      </trkpt>
      <trkpt lat="47.34938" lon="5.44857">
        <ele>187.7998</ele>
        <time>2026-05-15T14:02:38+02:00</time>
      </trkpt>
      <trkpt lat="47.34941" lon="5.4485">
        <ele>187.7002</ele>
        <time>2026-05-15T14:02:39+02:00</time>
      </trkpt>
      <trkpt lat="47.34944" lon="5.44843">
        <ele>187.7002</ele>
        <time>2026-05-15T14:02:40+02:00</time>
      </trkpt>
      <trkpt lat="47.34947" lon="5.44836">
        <ele>187.60059</ele>
        <time>2026-05-15T14:02:41+02:00</time>
      </trkpt>
      <trkpt lat="47.3495" lon="5.44829">
        <ele>187.60059</ele>
        <time>2026-05-15T14:02:42+02:00</time>
      </trkpt>
      <trkpt lat="47.34953" lon="5.44822">
        <ele>187.7002</ele>
        <time>2026-05-15T14:02:43+02:00</time>
      </trkpt>
      <trkpt lat="47.34957" lon="5.44815">
        <ele>187.60059</ele>
        <time>2026-05-15T14:02:44+02:00</time>
      </trkpt>
      <trkpt lat="47.3496" lon="5.44808">
        <ele>187.7002</ele>
        <time>2026-05-15T14:02:45+02:00</time>
      </trkpt>
      <trkpt lat="47.34963" lon="5.44801">
        <ele>187.7002</ele>
        <time>2026-05-15T14:02:46+02:00</time>
      </trkpt>
      <trkpt lat="47.34966" lon="5.44794">
        <ele>187.7998</ele>
        <time>2026-05-15T14:02:47+02:00</time>
      </trkpt>
      <trkpt lat="47.34969" lon="5.44786">
        <ele>187.7002</ele>
        <time>2026-05-15T14:02:48+02:00</time>
      </trkpt>
      <trkpt lat="47.34972" lon="5.44779">
        <ele>187.7998</ele>
        <time>2026-05-15T14:02:49+02:00</time>
      </trkpt>
      <trkpt lat="47.34975" lon="5.44772">
        <ele>187.7998</ele>
        <time>2026-05-15T14:02:50+02:00</time>
      </trkpt>
      <trkpt lat="47.34979" lon="5.44765">
        <ele>187.90039</ele>
        <time>2026-05-15T14:02:51+02:00</time>
      </trkpt>
      <trkpt lat="47.34982" lon="5.44757">
        <ele>188</ele>
        <time>2026-05-15T14:02:52+02:00</time>
      </trkpt>
      <trkpt lat="47.34985" lon="5.4475">
        <ele>188</ele>
        <time>2026-05-15T14:02:53+02:00</time>
      </trkpt>
      <trkpt lat="47.34988" lon="5.44743">
        <ele>188</ele>
        <time>2026-05-15T14:02:54+02:00</time>
      </trkpt>
      <trkpt lat="47.34991" lon="5.44736">
        <ele>188</ele>
        <time>2026-05-15T14:02:55+02:00</time>
      </trkpt>
      <trkpt lat="47.34994" lon="5.44728">
        <ele>188.10059</ele>
        <time>2026-05-15T14:02:56+02:00</time>
      </trkpt>
      <trkpt lat="47.34997" lon="5.44721">
        <ele>188.10059</ele>
        <time>2026-05-15T14:02:57+02:00</time>
      </trkpt>
      <trkpt lat="47.35001" lon="5.44714">
        <ele>188.2002</ele>
        <time>2026-05-15T14:02:58+02:00</time>
      </trkpt>
      <trkpt lat="47.35003" lon="5.44707">
        <ele>188.2002</ele>
        <time>2026-05-15T14:02:59+02:00</time>
      </trkpt>
      <trkpt lat="47.35006" lon="5.44699">
        <ele>188.2998</ele>
        <time>2026-05-15T14:03:00+02:00</time>
      </trkpt>
      <trkpt lat="47.3501" lon="5.44692">
        <ele>188.2998</ele>
        <time>2026-05-15T14:03:01+02:00</time>
      </trkpt>
      <trkpt lat="47.35013" lon="5.44684">
        <ele>188.40039</ele>
        <time>2026-05-15T14:03:02+02:00</time>
      </trkpt>
      <trkpt lat="47.35016" lon="5.44677">
        <ele>188.40039</ele>
        <time>2026-05-15T14:03:03+02:00</time>
      </trkpt>
      <trkpt lat="47.35019" lon="5.4467">
        <ele>188.5</ele>
        <time>2026-05-15T14:03:04+02:00</time>
      </trkpt>
      <trkpt lat="47.35022" lon="5.44663">
        <ele>188.5</ele>
        <time>2026-05-15T14:03:05+02:00</time>
      </trkpt>
      <trkpt lat="47.35026" lon="5.44655">
        <ele>188.60059</ele>
        <time>2026-05-15T14:03:06+02:00</time>
      </trkpt>
      <trkpt lat="47.35029" lon="5.44648">
        <ele>188.7002</ele>
        <time>2026-05-15T14:03:07+02:00</time>
      </trkpt>
      <trkpt lat="47.35032" lon="5.4464">
        <ele>188.7998</ele>
        <time>2026-05-15T14:03:08+02:00</time>
      </trkpt>
      <trkpt lat="47.35035" lon="5.44633">
        <ele>188.90039</ele>
        <time>2026-05-15T14:03:09+02:00</time>
      </trkpt>
      <trkpt lat="47.35039" lon="5.44626">
        <ele>188.90039</ele>
        <time>2026-05-15T14:03:10+02:00</time>
      </trkpt>
      <trkpt lat="47.35042" lon="5.44618">
        <ele>189.10059</ele>
        <time>2026-05-15T14:03:11+02:00</time>
      </trkpt>
      <trkpt lat="47.35045" lon="5.44611">
        <ele>189.2002</ele>
        <time>2026-05-15T14:03:12+02:00</time>
      </trkpt>
      <trkpt lat="47.35048" lon="5.44604">
        <ele>189.2998</ele>
        <time>2026-05-15T14:03:13+02:00</time>
      </trkpt>
      <trkpt lat="47.35051" lon="5.44597">
        <ele>189.2998</ele>
        <time>2026-05-15T14:03:14+02:00</time>
      </trkpt>
      <trkpt lat="47.35055" lon="5.4459">
        <ele>189.5</ele>
        <time>2026-05-15T14:03:15+02:00</time>
      </trkpt>
      <trkpt lat="47.35058" lon="5.44582">
        <ele>189.60059</ele>
        <time>2026-05-15T14:03:16+02:00</time>
      </trkpt>
      <trkpt lat="47.35061" lon="5.44575">
        <ele>189.60059</ele>
        <time>2026-05-15T14:03:17+02:00</time>
      </trkpt>
      <trkpt lat="47.35065" lon="5.44567">
        <ele>189.7002</ele>
        <time>2026-05-15T14:03:18+02:00</time>
      </trkpt>
      <trkpt lat="47.35068" lon="5.4456">
        <ele>189.60059</ele>
        <time>2026-05-15T14:03:19+02:00</time>
      </trkpt>
      <trkpt lat="47.35071" lon="5.44553">
        <ele>189.7002</ele>
        <time>2026-05-15T14:03:20+02:00</time>
      </trkpt>
      <trkpt lat="47.35075" lon="5.44545">
        <ele>189.7002</ele>
        <time>2026-05-15T14:03:21+02:00</time>
      </trkpt>
      <trkpt lat="47.35078" lon="5.44538">
        <ele>189.60059</ele>
        <time>2026-05-15T14:03:22+02:00</time>
      </trkpt>
      <trkpt lat="47.35081" lon="5.4453">
        <ele>189.60059</ele>
        <time>2026-05-15T14:03:23+02:00</time>
      </trkpt>
      <trkpt lat="47.35084" lon="5.44523">
        <ele>189.5</ele>
        <time>2026-05-15T14:03:24+02:00</time>
      </trkpt>
      <trkpt lat="47.35087" lon="5.44516">
        <ele>189.5</ele>
        <time>2026-05-15T14:03:25+02:00</time>
      </trkpt>
      <trkpt lat="47.3509" lon="5.44509">
        <ele>189.5</ele>
        <time>2026-05-15T14:03:26+02:00</time>
      </trkpt>
      <trkpt lat="47.35093" lon="5.44501">
        <ele>189.60059</ele>
        <time>2026-05-15T14:03:27+02:00</time>
      </trkpt>
      <trkpt lat="47.35096" lon="5.44494">
        <ele>189.60059</ele>
        <time>2026-05-15T14:03:28+02:00</time>
      </trkpt>
      <trkpt lat="47.351" lon="5.44487">
        <ele>189.7002</ele>
        <time>2026-05-15T14:03:29+02:00</time>
      </trkpt>
      <trkpt lat="47.35103" lon="5.44479">
        <ele>189.7002</ele>
        <time>2026-05-15T14:03:30+02:00</time>
      </trkpt>
      <trkpt lat="47.35105" lon="5.44472">
        <ele>189.90039</ele>
        <time>2026-05-15T14:03:31+02:00</time>
      </trkpt>
      <trkpt lat="47.35108" lon="5.44465">
        <ele>190</ele>
        <time>2026-05-15T14:03:32+02:00</time>
      </trkpt>
      <trkpt lat="47.35111" lon="5.44458">
        <ele>190.10059</ele>
        <time>2026-05-15T14:03:33+02:00</time>
      </trkpt>
      <trkpt lat="47.35113" lon="5.44451">
        <ele>190.10059</ele>
        <time>2026-05-15T14:03:34+02:00</time>
      </trkpt>
      <trkpt lat="47.35115" lon="5.44445">
        <ele>190.2002</ele>
        <time>2026-05-15T14:03:35+02:00</time>
      </trkpt>
      <trkpt lat="47.35117" lon="5.44438">
        <ele>190.40039</ele>
        <time>2026-05-15T14:03:36+02:00</time>
      </trkpt>
      <trkpt lat="47.35118" lon="5.44433">
        <ele>190.40039</ele>
        <time>2026-05-15T14:03:37+02:00</time>
      </trkpt>
      <trkpt lat="47.3512" lon="5.44428">
        <ele>190.5</ele>
        <time>2026-05-15T14:03:38+02:00</time>
      </trkpt>
      <trkpt lat="47.35121" lon="5.44424">
        <ele>190.7002</ele>
        <time>2026-05-15T14:03:39+02:00</time>
      </trkpt>
      <trkpt lat="47.35123" lon="5.44421">
        <ele>190.7002</ele>
        <time>2026-05-15T14:03:40+02:00</time>
      </trkpt>
      <trkpt lat="47.35125" lon="5.44418">
        <ele>190.7002</ele>
        <time>2026-05-15T14:03:41+02:00</time>
      </trkpt>
      <trkpt lat="47.35127" lon="5.44415">
        <ele>190.90039</ele>
        <time>2026-05-15T14:03:42+02:00</time>
      </trkpt>
      <trkpt lat="47.3513" lon="5.44412">
        <ele>190.90039</ele>
        <time>2026-05-15T14:03:43+02:00</time>
      </trkpt>
      <trkpt lat="47.35133" lon="5.44409">
        <ele>190.90039</ele>
        <time>2026-05-15T14:03:44+02:00</time>
      </trkpt>
      <trkpt lat="47.35136" lon="5.44406">
        <ele>191</ele>
        <time>2026-05-15T14:03:45+02:00</time>
      </trkpt>
      <trkpt lat="47.3514" lon="5.44404">
        <ele>191.10059</ele>
        <time>2026-05-15T14:03:46+02:00</time>
      </trkpt>
      <trkpt lat="47.35143" lon="5.44402">
        <ele>191.10059</ele>
        <time>2026-05-15T14:03:47+02:00</time>
      </trkpt>
      <trkpt lat="47.35146" lon="5.44399">
        <ele>191.2002</ele>
        <time>2026-05-15T14:03:48+02:00</time>
      </trkpt>
      <trkpt lat="47.35149" lon="5.44396">
        <ele>191.2998</ele>
        <time>2026-05-15T14:03:49+02:00</time>
      </trkpt>
      <trkpt lat="47.35152" lon="5.44394">
        <ele>191.2998</ele>
        <time>2026-05-15T14:03:50+02:00</time>
      </trkpt>
      <trkpt lat="47.35155" lon="5.44392">
        <ele>191.2998</ele>
        <time>2026-05-15T14:03:51+02:00</time>
      </trkpt>
      <trkpt lat="47.35158" lon="5.4439">
        <ele>191.2998</ele>
        <time>2026-05-15T14:03:52+02:00</time>
      </trkpt>
      <trkpt lat="47.35161" lon="5.44387">
        <ele>191.40039</ele>
        <time>2026-05-15T14:03:53+02:00</time>
      </trkpt>
      <trkpt lat="47.35164" lon="5.44385">
        <ele>191.5</ele>
        <time>2026-05-15T14:03:54+02:00</time>
      </trkpt>
      <trkpt lat="47.35167" lon="5.44383">
        <ele>191.5</ele>
        <time>2026-05-15T14:03:55+02:00</time>
      </trkpt>
      <trkpt lat="47.35169" lon="5.44381">
        <ele>191.5</ele>
        <time>2026-05-15T14:03:56+02:00</time>
      </trkpt>
      <trkpt lat="47.35172" lon="5.44378">
        <ele>191.5</ele>
        <time>2026-05-15T14:03:57+02:00</time>
      </trkpt>
      <trkpt lat="47.35175" lon="5.44376">
        <ele>191.5</ele>
        <time>2026-05-15T14:03:58+02:00</time>
      </trkpt>
      <trkpt lat="47.35177" lon="5.44374">
        <ele>191.5</ele>
        <time>2026-05-15T14:03:59+02:00</time>
      </trkpt>
      <trkpt lat="47.35179" lon="5.44372">
        <ele>191.60059</ele>
        <time>2026-05-15T14:04:00+02:00</time>
      </trkpt>
      <trkpt lat="47.35182" lon="5.44371">
        <ele>191.60059</ele>
        <time>2026-05-15T14:04:01+02:00</time>
      </trkpt>
      <trkpt lat="47.35184" lon="5.44369">
        <ele>191.60059</ele>
        <time>2026-05-15T14:04:02+02:00</time>
      </trkpt>
      <trkpt lat="47.35186" lon="5.44368">
        <ele>191.60059</ele>
        <time>2026-05-15T14:04:03+02:00</time>
      </trkpt>
      <trkpt lat="47.35188" lon="5.44368">
        <ele>191.60059</ele>
        <time>2026-05-15T14:04:04+02:00</time>
      </trkpt>
      <trkpt lat="47.35189" lon="5.44367">
        <ele>191.60059</ele>
        <time>2026-05-15T14:04:05+02:00</time>
      </trkpt>
      <trkpt lat="47.35189" lon="5.44367">
        <ele>191.60059</ele>
        <time>2026-05-15T14:04:06+02:00</time>
      </trkpt>
      <trkpt lat="47.35189" lon="5.44367">
        <ele>191.60059</ele>
        <time>2026-05-15T14:04:07+02:00</time>
      </trkpt>
      <trkpt lat="47.35189" lon="5.44367">
        <ele>191.60059</ele>
        <time>2026-05-15T14:04:08+02:00</time>
      </trkpt>
      <trkpt lat="47.35205" lon="5.44363">
        <ele>191.60059</ele>
        <time>2026-05-15T14:04:19+02:00</time>
      </trkpt>
      <trkpt lat="47.35206" lon="5.44363">
        <ele>191.60059</ele>
        <time>2026-05-15T14:04:20+02:00</time>
      </trkpt>
      <trkpt lat="47.35212" lon="5.44352">
        <ele>191.5</ele>
        <time>2026-05-15T14:04:26+02:00</time>
      </trkpt>
      <trkpt lat="47.35214" lon="5.44351">
        <ele>191.5</ele>
        <time>2026-05-15T14:04:27+02:00</time>
      </trkpt>
      <trkpt lat="47.35215" lon="5.44349">
        <ele>191.5</ele>
        <time>2026-05-15T14:04:28+02:00</time>
      </trkpt>
      <trkpt lat="47.35215" lon="5.44349">
        <ele>191.5</ele>
        <time>2026-05-15T14:04:29+02:00</time>
      </trkpt>
      <trkpt lat="47.35215" lon="5.44349">
        <ele>191.5</ele>
        <time>2026-05-15T14:04:30+02:00</time>
      </trkpt>
      <trkpt lat="47.35215" lon="5.44349">
        <ele>191.5</ele>
        <time>2026-05-15T14:04:31+02:00</time>
      </trkpt>
      <trkpt lat="47.35215" lon="5.44349">
        <ele>191.5</ele>
        <time>2026-05-15T14:04:32+02:00</time>
      </trkpt>
      <trkpt lat="47.35215" lon="5.44349">
        <ele>191.5</ele>
        <time>2026-05-15T14:10:53+02:00</time>
      </trkpt>
      <trkpt lat="47.35215" lon="5.44349">
        <ele>191.5</ele>
        <time>2026-05-15T14:10:54+02:00</time>
      </trkpt>
      <trkpt lat="47.35215" lon="5.44349">
        <ele>191.5</ele>
        <time>2026-05-15T14:10:55+02:00</time>
      </trkpt>
      <trkpt lat="47.35215" lon="5.44349">
        <ele>191.5</ele>
        <time>2026-05-15T14:10:56+02:00</time>
      </trkpt>
      <trkpt lat="47.35215" lon="5.44349">
        <ele>191.5</ele>
        <time>2026-05-15T14:10:57+02:00</time>
      </trkpt>
      <trkpt lat="47.35215" lon="5.44349">
        <ele>191.5</ele>
        <time>2026-05-15T14:10:58+02:00</time>
      </trkpt>
      <trkpt lat="47.35215" lon="5.44349">
        <ele>191.5</ele>
        <time>2026-05-15T14:10:59+02:00</time>
      </trkpt>
      <trkpt lat="47.35215" lon="5.44349">
        <ele>191.5</ele>
        <time>2026-05-15T14:11:00+02:00</time>
      </trkpt>
      <trkpt lat="47.35215" lon="5.44349">
        <ele>191.5</ele>
        <time>2026-05-15T14:11:01+02:00</time>
      </trkpt>
      <trkpt lat="47.35215" lon="5.44349">
        <ele>191.5</ele>
        <time>2026-05-15T14:11:02+02:00</time>
      </trkpt>
      <trkpt lat="47.35215" lon="5.44349">
        <ele>191.5</ele>
        <time>2026-05-15T14:11:03+02:00</time>
      </trkpt>
      <trkpt lat="47.35215" lon="5.44349">
        <ele>191.5</ele>
        <time>2026-05-15T14:11:04+02:00</time>
      </trkpt>
      <trkpt lat="47.35215" lon="5.44349">
        <ele>191.5</ele>
        <time>2026-05-15T14:11:05+02:00</time>
      </trkpt>
      <trkpt lat="47.35215" lon="5.44349">
        <ele>191.5</ele>
        <time>2026-05-15T14:11:06+02:00</time>
      </trkpt>
      <trkpt lat="47.35215" lon="5.44349">
        <ele>191.5</ele>
        <time>2026-05-15T14:11:07+02:00</time>
      </trkpt>
      <trkpt lat="47.35215" lon="5.44349">
        <ele>191.5</ele>
        <time>2026-05-15T14:11:08+02:00</time>
      </trkpt>
      <trkpt lat="47.35215" lon="5.44349">
        <ele>191.5</ele>
        <time>2026-05-15T14:11:09+02:00</time>
      </trkpt>
      <trkpt lat="47.35215" lon="5.44349">
        <ele>191.5</ele>
        <time>2026-05-15T14:11:10+02:00</time>
      </trkpt>
      <trkpt lat="47.35215" lon="5.44349">
        <ele>191.5</ele>
        <time>2026-05-15T14:11:11+02:00</time>
      </trkpt>
      <trkpt lat="47.35215" lon="5.44349">
        <ele>191.5</ele>
        <time>2026-05-15T14:11:12+02:00</time>
      </trkpt>
      <trkpt lat="47.35215" lon="5.44349">
        <ele>191.5</ele>
        <time>2026-05-15T14:11:13+02:00</time>
      </trkpt>
      <trkpt lat="47.35215" lon="5.44349">
        <ele>191.5</ele>
        <time>2026-05-15T14:11:14+02:00</time>
      </trkpt>
      <trkpt lat="47.35215" lon="5.44349">
        <ele>191.5</ele>
        <time>2026-05-15T14:11:15+02:00</time>
      </trkpt>
      <trkpt lat="47.35215" lon="5.44349">
        <ele>191.5</ele>
        <time>2026-05-15T14:11:16+02:00</time>
      </trkpt>
      <trkpt lat="47.35215" lon="5.44349">
        <ele>191.5</ele>
        <time>2026-05-15T14:11:17+02:00</time>
      </trkpt>
      <trkpt lat="47.35215" lon="5.44349">
        <ele>191.5</ele>
        <time>2026-05-15T14:11:18+02:00</time>
      </trkpt>
      <trkpt lat="47.35215" lon="5.44349">
        <ele>191.5</ele>
        <time>2026-05-15T14:11:19+02:00</time>
      </trkpt>
      <trkpt lat="47.35215" lon="5.44349">
        <ele>191.5</ele>
        <time>2026-05-15T14:11:20+02:00</time>
      </trkpt>
      <trkpt lat="47.35215" lon="5.44349">
        <ele>191.5</ele>
        <time>2026-05-15T14:11:21+02:00</time>
      </trkpt>
      <trkpt lat="47.35215" lon="5.44349">
        <ele>191.5</ele>
        <time>2026-05-15T14:11:22+02:00</time>
      </trkpt>
      <trkpt lat="47.35215" lon="5.44349">
        <ele>191.5</ele>
        <time>2026-05-15T14:11:23+02:00</time>
      </trkpt>
      <trkpt lat="47.35215" lon="5.44349">
        <ele>191.5</ele>
        <time>2026-05-15T14:11:24+02:00</time>
      </trkpt>
      <trkpt lat="47.35215" lon="5.44349">
        <ele>191.5</ele>
        <time>2026-05-15T14:11:25+02:00</time>
      </trkpt>
      <trkpt lat="47.35215" lon="5.44349">
        <ele>191.5</ele>
        <time>2026-05-15T14:11:26+02:00</time>
      </trkpt>
      <trkpt lat="47.35215" lon="5.44349">
        <ele>191.5</ele>
        <time>2026-05-15T14:11:27+02:00</time>
      </trkpt>
      <trkpt lat="47.35215" lon="5.44349">
        <ele>191.5</ele>
        <time>2026-05-15T14:11:28+02:00</time>
      </trkpt>
      <trkpt lat="47.35215" lon="5.44349">
        <ele>191.5</ele>
        <time>2026-05-15T14:11:29+02:00</time>
      </trkpt>
      <trkpt lat="47.35215" lon="5.44349">
        <ele>191.5</ele>
        <time>2026-05-15T14:11:30+02:00</time>
      </trkpt>
      <trkpt lat="47.35215" lon="5.44349">
        <ele>191.5</ele>
        <time>2026-05-15T14:11:31+02:00</time>
      </trkpt>
      <trkpt lat="47.35215" lon="5.44349">
        <ele>191.5</ele>
        <time>2026-05-15T14:11:32+02:00</time>
      </trkpt>
      <trkpt lat="47.35215" lon="5.44349">
        <ele>191.5</ele>
        <time>2026-05-15T14:11:33+02:00</time>
      </trkpt>
      <trkpt lat="47.35215" lon="5.44349">
        <ele>191.5</ele>
        <time>2026-05-15T14:11:34+02:00</time>
      </trkpt>
      <trkpt lat="47.35215" lon="5.44349">
        <ele>191.5</ele>
        <time>2026-05-15T14:11:35+02:00</time>
      </trkpt>
      <trkpt lat="47.35215" lon="5.44349">
        <ele>191.5</ele>
        <time>2026-05-15T14:11:36+02:00</time>
      </trkpt>
      <trkpt lat="47.35215" lon="5.44349">
        <ele>191.5</ele>
        <time>2026-05-15T14:11:37+02:00</time>
      </trkpt>
      <trkpt lat="47.35215" lon="5.44349">
        <ele>191.5</ele>
        <time>2026-05-15T14:11:38+02:00</time>
      </trkpt>
      <trkpt lat="47.35215" lon="5.44349">
        <ele>191.5</ele>
        <time>2026-05-15T14:11:39+02:00</time>
      </trkpt>
      <trkpt lat="47.35215" lon="5.44349">
        <ele>191.5</ele>
        <time>2026-05-15T14:11:40+02:00</time>
      </trkpt>
      <trkpt lat="47.35215" lon="5.44349">
        <ele>191.5</ele>
        <time>2026-05-15T14:11:41+02:00</time>
      </trkpt>
      <trkpt lat="47.35215" lon="5.44349">
        <ele>191.5</ele>
        <time>2026-05-15T14:11:42+02:00</time>
      </trkpt>
      <trkpt lat="47.35215" lon="5.44349">
        <ele>191.5</ele>
        <time>2026-05-15T14:11:43+02:00</time>
      </trkpt>
      <trkpt lat="47.35215" lon="5.44349">
        <ele>191.5</ele>
        <time>2026-05-15T14:11:44+02:00</time>
      </trkpt>
      <trkpt lat="47.35215" lon="5.44349">
        <ele>191.5</ele>
        <time>2026-05-15T14:11:45+02:00</time>
      </trkpt>
      <trkpt lat="47.35215" lon="5.44349">
        <ele>191.5</ele>
        <time>2026-05-15T14:11:46+02:00</time>
      </trkpt>
      <trkpt lat="47.35215" lon="5.44349">
        <ele>191.5</ele>
        <time>2026-05-15T14:11:47+02:00</time>
      </trkpt>
      <trkpt lat="47.35215" lon="5.44349">
        <ele>191.5</ele>
        <time>2026-05-15T14:11:48+02:00</time>
      </trkpt>
      <trkpt lat="47.35215" lon="5.44349">
        <ele>191.5</ele>
        <time>2026-05-15T14:11:49+02:00</time>
      </trkpt>
      <trkpt lat="47.35215" lon="5.44349">
        <ele>191.5</ele>
        <time>2026-05-15T14:11:50+02:00</time>
      </trkpt>
      <trkpt lat="47.35215" lon="5.44349">
        <ele>191.5</ele>
        <time>2026-05-15T14:11:51+02:00</time>
      </trkpt>
      <trkpt lat="47.35215" lon="5.44349">
        <ele>191.5</ele>
        <time>2026-05-15T14:11:52+02:00</time>
      </trkpt>
      <trkpt lat="47.35215" lon="5.44349">
        <ele>191.5</ele>
        <time>2026-05-15T14:11:53+02:00</time>
      </trkpt>
      <trkpt lat="47.35215" lon="5.44349">
        <ele>191.5</ele>
        <time>2026-05-15T14:11:54+02:00</time>
      </trkpt>
      <trkpt lat="47.35215" lon="5.44349">
        <ele>191.5</ele>
        <time>2026-05-15T14:11:55+02:00</time>
      </trkpt>
      <trkpt lat="47.35215" lon="5.44349">
        <ele>191.5</ele>
        <time>2026-05-15T14:11:56+02:00</time>
      </trkpt>
      <trkpt lat="47.35215" lon="5.44349">
        <ele>191.5</ele>
        <time>2026-05-15T14:11:57+02:00</time>
      </trkpt>
      <trkpt lat="47.35215" lon="5.44349">
        <ele>191.5</ele>
        <time>2026-05-15T14:11:58+02:00</time>
      </trkpt>
      <trkpt lat="47.35215" lon="5.44349">
        <ele>191.5</ele>
        <time>2026-05-15T14:11:59+02:00</time>
      </trkpt>
      <trkpt lat="47.35215" lon="5.44349">
        <ele>191.5</ele>
        <time>2026-05-15T14:12:00+02:00</time>
      </trkpt>
      <trkpt lat="47.35215" lon="5.44349">
        <ele>191.5</ele>
        <time>2026-05-15T14:12:01+02:00</time>
      </trkpt>
      <trkpt lat="47.35215" lon="5.44349">
        <ele>191.5</ele>
        <time>2026-05-15T14:12:02+02:00</time>
      </trkpt>
      <trkpt lat="47.35215" lon="5.44349">
        <ele>191.5</ele>
        <time>2026-05-15T14:12:03+02:00</time>
      </trkpt>
      <trkpt lat="47.35215" lon="5.44349">
        <ele>191.5</ele>
        <time>2026-05-15T14:12:04+02:00</time>
      </trkpt>
      <trkpt lat="47.35215" lon="5.44349">
        <ele>191.5</ele>
        <time>2026-05-15T14:12:05+02:00</time>
      </trkpt>
      <trkpt lat="47.35215" lon="5.44349">
        <ele>191.5</ele>
        <time>2026-05-15T14:12:06+02:00</time>
      </trkpt>
      <trkpt lat="47.35215" lon="5.44349">
        <ele>191.5</ele>
        <time>2026-05-15T14:12:07+02:00</time>
      </trkpt>
      <trkpt lat="47.35215" lon="5.44349">
        <ele>191.5</ele>
        <time>2026-05-15T14:12:08+02:00</time>
      </trkpt>
      <trkpt lat="47.35224" lon="5.44337">
        <ele>191.40039</ele>
        <time>2026-05-15T14:12:09+02:00</time>
      </trkpt>
      <trkpt lat="47.35225" lon="5.44335">
        <ele>191.40039</ele>
        <time>2026-05-15T14:12:10+02:00</time>
      </trkpt>
      <trkpt lat="47.35227" lon="5.44334">
        <ele>191.40039</ele>
        <time>2026-05-15T14:12:11+02:00</time>
      </trkpt>
      <trkpt lat="47.35228" lon="5.44332">
        <ele>191.40039</ele>
        <time>2026-05-15T14:12:12+02:00</time>
      </trkpt>
      <trkpt lat="47.35228" lon="5.44331">
        <ele>191.40039</ele>
        <time>2026-05-15T14:12:13+02:00</time>
      </trkpt>
      <trkpt lat="47.35229" lon="5.44329">
        <ele>191.2998</ele>
        <time>2026-05-15T14:12:14+02:00</time>
      </trkpt>
      <trkpt lat="47.35229" lon="5.44328">
        <ele>191.2998</ele>
        <time>2026-05-15T14:12:15+02:00</time>
      </trkpt>
      <trkpt lat="47.3523" lon="5.44326">
        <ele>191.2998</ele>
        <time>2026-05-15T14:12:16+02:00</time>
      </trkpt>
      <trkpt lat="47.35234" lon="5.44321">
        <ele>191.2002</ele>
        <time>2026-05-15T14:12:18+02:00</time>
      </trkpt>
      <trkpt lat="47.35236" lon="5.44319">
        <ele>191.2002</ele>
        <time>2026-05-15T14:12:19+02:00</time>
      </trkpt>
      <trkpt lat="47.35237" lon="5.44317">
        <ele>191.2002</ele>
        <time>2026-05-15T14:12:20+02:00</time>
      </trkpt>
      <trkpt lat="47.35239" lon="5.44315">
        <ele>191.2002</ele>
        <time>2026-05-15T14:12:21+02:00</time>
      </trkpt>
      <trkpt lat="47.35241" lon="5.44313">
        <ele>191.2002</ele>
        <time>2026-05-15T14:12:22+02:00</time>
      </trkpt>
      <trkpt lat="47.35243" lon="5.44311">
        <ele>191.10059</ele>
        <time>2026-05-15T14:12:23+02:00</time>
      </trkpt>
      <trkpt lat="47.35245" lon="5.44308">
        <ele>191</ele>
        <time>2026-05-15T14:12:24+02:00</time>
      </trkpt>
      <trkpt lat="47.35248" lon="5.44305">
        <ele>191</ele>
        <time>2026-05-15T14:12:25+02:00</time>
      </trkpt>
      <trkpt lat="47.3525" lon="5.44302">
        <ele>190.90039</ele>
        <time>2026-05-15T14:12:26+02:00</time>
      </trkpt>
      <trkpt lat="47.35252" lon="5.44298">
        <ele>190.90039</ele>
        <time>2026-05-15T14:12:27+02:00</time>
      </trkpt>
      <trkpt lat="47.35255" lon="5.44295">
        <ele>190.7998</ele>
        <time>2026-05-15T14:12:28+02:00</time>
      </trkpt>
      <trkpt lat="47.35257" lon="5.44292">
        <ele>190.7998</ele>
        <time>2026-05-15T14:12:29+02:00</time>
      </trkpt>
      <trkpt lat="47.3526" lon="5.44289">
        <ele>190.7998</ele>
        <time>2026-05-15T14:12:30+02:00</time>
      </trkpt>
      <trkpt lat="47.35263" lon="5.44285">
        <ele>190.7002</ele>
        <time>2026-05-15T14:12:31+02:00</time>
      </trkpt>
      <trkpt lat="47.35266" lon="5.44282">
        <ele>190.7002</ele>
        <time>2026-05-15T14:12:32+02:00</time>
      </trkpt>
      <trkpt lat="47.35269" lon="5.44278">
        <ele>190.7002</ele>
        <time>2026-05-15T14:12:33+02:00</time>
      </trkpt>
      <trkpt lat="47.35272" lon="5.44274">
        <ele>190.7002</ele>
        <time>2026-05-15T14:12:34+02:00</time>
      </trkpt>
      <trkpt lat="47.35275" lon="5.44269">
        <ele>190.7002</ele>
        <time>2026-05-15T14:12:35+02:00</time>
      </trkpt>
      <trkpt lat="47.35278" lon="5.44264">
        <ele>190.7002</ele>
        <time>2026-05-15T14:12:36+02:00</time>
      </trkpt>
      <trkpt lat="47.35281" lon="5.44259">
        <ele>190.7002</ele>
        <time>2026-05-15T14:12:37+02:00</time>
      </trkpt>
      <trkpt lat="47.35284" lon="5.44253">
        <ele>190.7002</ele>
        <time>2026-05-15T14:12:38+02:00</time>
      </trkpt>
      <trkpt lat="47.35286" lon="5.44247">
        <ele>190.7998</ele>
        <time>2026-05-15T14:12:39+02:00</time>
      </trkpt>
      <trkpt lat="47.35289" lon="5.44241">
        <ele>190.7998</ele>
        <time>2026-05-15T14:12:40+02:00</time>
      </trkpt>
      <trkpt lat="47.35291" lon="5.44235">
        <ele>190.90039</ele>
        <time>2026-05-15T14:12:41+02:00</time>
      </trkpt>
      <trkpt lat="47.35294" lon="5.44229">
        <ele>190.90039</ele>
        <time>2026-05-15T14:12:42+02:00</time>
      </trkpt>
      <trkpt lat="47.35296" lon="5.44223">
        <ele>191.10059</ele>
        <time>2026-05-15T14:12:43+02:00</time>
      </trkpt>
      <trkpt lat="47.35298" lon="5.44216">
        <ele>191.10059</ele>
        <time>2026-05-15T14:12:44+02:00</time>
      </trkpt>
      <trkpt lat="47.35301" lon="5.4421">
        <ele>191.10059</ele>
        <time>2026-05-15T14:12:45+02:00</time>
      </trkpt>
      <trkpt lat="47.35302" lon="5.44203">
        <ele>191.2998</ele>
        <time>2026-05-15T14:12:46+02:00</time>
      </trkpt>
      <trkpt lat="47.35304" lon="5.44196">
        <ele>191.40039</ele>
        <time>2026-05-15T14:12:47+02:00</time>
      </trkpt>
      <trkpt lat="47.35306" lon="5.44189">
        <ele>191.40039</ele>
        <time>2026-05-15T14:12:48+02:00</time>
      </trkpt>
      <trkpt lat="47.35308" lon="5.44183">
        <ele>191.60059</ele>
        <time>2026-05-15T14:12:49+02:00</time>
      </trkpt>
      <trkpt lat="47.3531" lon="5.44176">
        <ele>191.60059</ele>
        <time>2026-05-15T14:12:50+02:00</time>
      </trkpt>
      <trkpt lat="47.35313" lon="5.4417">
        <ele>191.7998</ele>
        <time>2026-05-15T14:12:51+02:00</time>
      </trkpt>
      <trkpt lat="47.35315" lon="5.44164">
        <ele>191.90039</ele>
        <time>2026-05-15T14:12:52+02:00</time>
      </trkpt>
      <trkpt lat="47.35317" lon="5.44157">
        <ele>191.90039</ele>
        <time>2026-05-15T14:12:53+02:00</time>
      </trkpt>
      <trkpt lat="47.3532" lon="5.44151">
        <ele>192</ele>
        <time>2026-05-15T14:12:54+02:00</time>
      </trkpt>
      <trkpt lat="47.35322" lon="5.44145">
        <ele>192</ele>
        <time>2026-05-15T14:12:55+02:00</time>
      </trkpt>
      <trkpt lat="47.35325" lon="5.4414">
        <ele>192.2002</ele>
        <time>2026-05-15T14:12:56+02:00</time>
      </trkpt>
      <trkpt lat="47.35327" lon="5.44134">
        <ele>192.2002</ele>
        <time>2026-05-15T14:12:57+02:00</time>
      </trkpt>
      <trkpt lat="47.3533" lon="5.44128">
        <ele>192.2002</ele>
        <time>2026-05-15T14:12:58+02:00</time>
      </trkpt>
      <trkpt lat="47.35333" lon="5.44124">
        <ele>192.40039</ele>
        <time>2026-05-15T14:12:59+02:00</time>
      </trkpt>
      <trkpt lat="47.35335" lon="5.44119">
        <ele>192.40039</ele>
        <time>2026-05-15T14:13:00+02:00</time>
      </trkpt>
      <trkpt lat="47.35338" lon="5.44114">
        <ele>192.60059</ele>
        <time>2026-05-15T14:13:01+02:00</time>
      </trkpt>
      <trkpt lat="47.3534" lon="5.4411">
        <ele>192.60059</ele>
        <time>2026-05-15T14:13:02+02:00</time>
      </trkpt>
      <trkpt lat="47.35343" lon="5.44105">
        <ele>192.7998</ele>
        <time>2026-05-15T14:13:03+02:00</time>
      </trkpt>
      <trkpt lat="47.35345" lon="5.441">
        <ele>192.7998</ele>
        <time>2026-05-15T14:13:04+02:00</time>
      </trkpt>
      <trkpt lat="47.35348" lon="5.44096">
        <ele>193</ele>
        <time>2026-05-15T14:13:05+02:00</time>
      </trkpt>
      <trkpt lat="47.35351" lon="5.44092">
        <ele>193</ele>
        <time>2026-05-15T14:13:06+02:00</time>
      </trkpt>
      <trkpt lat="47.35353" lon="5.44088">
        <ele>193</ele>
        <time>2026-05-15T14:13:07+02:00</time>
      </trkpt>
      <trkpt lat="47.35355" lon="5.44084">
        <ele>193.2998</ele>
        <time>2026-05-15T14:13:08+02:00</time>
      </trkpt>
      <trkpt lat="47.35358" lon="5.4408">
        <ele>193.2998</ele>
        <time>2026-05-15T14:13:09+02:00</time>
      </trkpt>
      <trkpt lat="47.3536" lon="5.44076">
        <ele>193.60059</ele>
        <time>2026-05-15T14:13:10+02:00</time>
      </trkpt>
      <trkpt lat="47.35363" lon="5.44073">
        <ele>193.60059</ele>
        <time>2026-05-15T14:13:11+02:00</time>
      </trkpt>
      <trkpt lat="47.35365" lon="5.44069">
        <ele>193.60059</ele>
        <time>2026-05-15T14:13:12+02:00</time>
      </trkpt>
      <trkpt lat="47.35368" lon="5.44065">
        <ele>193.90039</ele>
        <time>2026-05-15T14:13:13+02:00</time>
      </trkpt>
      <trkpt lat="47.35371" lon="5.44061">
        <ele>193.90039</ele>
        <time>2026-05-15T14:13:14+02:00</time>
      </trkpt>
      <trkpt lat="47.35373" lon="5.44056">
        <ele>194.2002</ele>
        <time>2026-05-15T14:13:15+02:00</time>
      </trkpt>
      <trkpt lat="47.35376" lon="5.44052">
        <ele>194.2002</ele>
        <time>2026-05-15T14:13:16+02:00</time>
      </trkpt>
      <trkpt lat="47.35379" lon="5.44048">
        <ele>194.5</ele>
        <time>2026-05-15T14:13:17+02:00</time>
      </trkpt>
      <trkpt lat="47.35382" lon="5.44044">
        <ele>194.60059</ele>
        <time>2026-05-15T14:13:18+02:00</time>
      </trkpt>
      <trkpt lat="47.35384" lon="5.44039">
        <ele>194.90039</ele>
        <time>2026-05-15T14:13:19+02:00</time>
      </trkpt>
      <trkpt lat="47.35386" lon="5.44035">
        <ele>195</ele>
        <time>2026-05-15T14:13:20+02:00</time>
      </trkpt>
      <trkpt lat="47.35389" lon="5.4403">
        <ele>195.2998</ele>
        <time>2026-05-15T14:13:21+02:00</time>
      </trkpt>
      <trkpt lat="47.35392" lon="5.44026">
        <ele>195.2998</ele>
        <time>2026-05-15T14:13:22+02:00</time>
      </trkpt>
      <trkpt lat="47.35394" lon="5.44022">
        <ele>195.2998</ele>
        <time>2026-05-15T14:13:23+02:00</time>
      </trkpt>
      <trkpt lat="47.35397" lon="5.44018">
        <ele>195.7002</ele>
        <time>2026-05-15T14:13:24+02:00</time>
      </trkpt>
      <trkpt lat="47.354" lon="5.44014">
        <ele>195.7002</ele>
        <time>2026-05-15T14:13:25+02:00</time>
      </trkpt>
      <trkpt lat="47.35403" lon="5.44011">
        <ele>196.10059</ele>
        <time>2026-05-15T14:13:26+02:00</time>
      </trkpt>
      <trkpt lat="47.35406" lon="5.44006">
        <ele>196.40039</ele>
        <time>2026-05-15T14:13:27+02:00</time>
      </trkpt>
      <trkpt lat="47.35409" lon="5.44002">
        <ele>196.5</ele>
        <time>2026-05-15T14:13:28+02:00</time>
      </trkpt>
      <trkpt lat="47.35412" lon="5.43998">
        <ele>196.90039</ele>
        <time>2026-05-15T14:13:29+02:00</time>
      </trkpt>
      <trkpt lat="47.35415" lon="5.43995">
        <ele>196.90039</ele>
        <time>2026-05-15T14:13:30+02:00</time>
      </trkpt>
      <trkpt lat="47.35418" lon="5.43991">
        <ele>197.40039</ele>
        <time>2026-05-15T14:13:31+02:00</time>
      </trkpt>
      <trkpt lat="47.35421" lon="5.43987">
        <ele>197.40039</ele>
        <time>2026-05-15T14:13:32+02:00</time>
      </trkpt>
      <trkpt lat="47.35423" lon="5.43983">
        <ele>197.5</ele>
        <time>2026-05-15T14:13:33+02:00</time>
      </trkpt>
      <trkpt lat="47.35426" lon="5.43979">
        <ele>197.7998</ele>
        <time>2026-05-15T14:13:34+02:00</time>
      </trkpt>
      <trkpt lat="47.35429" lon="5.43975">
        <ele>197.90039</ele>
        <time>2026-05-15T14:13:35+02:00</time>
      </trkpt>
      <trkpt lat="47.35433" lon="5.43971">
        <ele>198.2998</ele>
        <time>2026-05-15T14:13:36+02:00</time>
      </trkpt>
      <trkpt lat="47.35435" lon="5.43967">
        <ele>198.60059</ele>
        <time>2026-05-15T14:13:37+02:00</time>
      </trkpt>
      <trkpt lat="47.35438" lon="5.43963">
        <ele>198.60059</ele>
        <time>2026-05-15T14:13:38+02:00</time>
      </trkpt>
      <trkpt lat="47.35442" lon="5.43959">
        <ele>198.90039</ele>
        <time>2026-05-15T14:13:39+02:00</time>
      </trkpt>
      <trkpt lat="47.35445" lon="5.43955">
        <ele>198.90039</ele>
        <time>2026-05-15T14:13:40+02:00</time>
      </trkpt>
      <trkpt lat="47.35448" lon="5.43951">
        <ele>199.2002</ele>
        <time>2026-05-15T14:13:41+02:00</time>
      </trkpt>
      <trkpt lat="47.35452" lon="5.43947">
        <ele>199.2002</ele>
        <time>2026-05-15T14:13:42+02:00</time>
      </trkpt>
      <trkpt lat="47.35455" lon="5.43943">
        <ele>199.40039</ele>
        <time>2026-05-15T14:13:43+02:00</time>
      </trkpt>
      <trkpt lat="47.35458" lon="5.43939">
        <ele>199.40039</ele>
        <time>2026-05-15T14:13:44+02:00</time>
      </trkpt>
      <trkpt lat="47.35461" lon="5.43935">
        <ele>199.60059</ele>
        <time>2026-05-15T14:13:45+02:00</time>
      </trkpt>
      <trkpt lat="47.35465" lon="5.43931">
        <ele>199.60059</ele>
        <time>2026-05-15T14:13:46+02:00</time>
      </trkpt>
      <trkpt lat="47.35468" lon="5.43927">
        <ele>199.60059</ele>
        <time>2026-05-15T14:13:47+02:00</time>
      </trkpt>
      <trkpt lat="47.35471" lon="5.43923">
        <ele>199.60059</ele>
        <time>2026-05-15T14:13:48+02:00</time>
      </trkpt>
      <trkpt lat="47.35475" lon="5.4392">
        <ele>199.60059</ele>
        <time>2026-05-15T14:13:49+02:00</time>
      </trkpt>
      <trkpt lat="47.35478" lon="5.43916">
        <ele>199.7002</ele>
        <time>2026-05-15T14:13:50+02:00</time>
      </trkpt>
      <trkpt lat="47.35481" lon="5.43913">
        <ele>199.7002</ele>
        <time>2026-05-15T14:13:51+02:00</time>
      </trkpt>
      <trkpt lat="47.35483" lon="5.43909">
        <ele>199.60059</ele>
        <time>2026-05-15T14:13:52+02:00</time>
      </trkpt>
      <trkpt lat="47.35486" lon="5.43905">
        <ele>199.60059</ele>
        <time>2026-05-15T14:13:53+02:00</time>
      </trkpt>
      <trkpt lat="47.35489" lon="5.43902">
        <ele>199.7998</ele>
        <time>2026-05-15T14:13:54+02:00</time>
      </trkpt>
      <trkpt lat="47.35492" lon="5.43899">
        <ele>199.60059</ele>
        <time>2026-05-15T14:13:55+02:00</time>
      </trkpt>
      <trkpt lat="47.35495" lon="5.43896">
        <ele>199.7002</ele>
        <time>2026-05-15T14:13:56+02:00</time>
      </trkpt>
      <trkpt lat="47.35498" lon="5.43892">
        <ele>199.7002</ele>
        <time>2026-05-15T14:13:57+02:00</time>
      </trkpt>
      <trkpt lat="47.35501" lon="5.43889">
        <ele>199.60059</ele>
        <time>2026-05-15T14:13:58+02:00</time>
      </trkpt>
      <trkpt lat="47.35505" lon="5.43885">
        <ele>199.7002</ele>
        <time>2026-05-15T14:13:59+02:00</time>
      </trkpt>
      <trkpt lat="47.35507" lon="5.43882">
        <ele>199.40039</ele>
        <time>2026-05-15T14:14:00+02:00</time>
      </trkpt>
      <trkpt lat="47.3551" lon="5.43878">
        <ele>199.40039</ele>
        <time>2026-05-15T14:14:01+02:00</time>
      </trkpt>
      <trkpt lat="47.35513" lon="5.43874">
        <ele>199.10059</ele>
        <time>2026-05-15T14:14:02+02:00</time>
      </trkpt>
      <trkpt lat="47.35517" lon="5.43871">
        <ele>199.2998</ele>
        <time>2026-05-15T14:14:03+02:00</time>
      </trkpt>
      <trkpt lat="47.3552" lon="5.43868">
        <ele>199.2998</ele>
        <time>2026-05-15T14:14:04+02:00</time>
      </trkpt>
      <trkpt lat="47.35523" lon="5.43864">
        <ele>199</ele>
        <time>2026-05-15T14:14:05+02:00</time>
      </trkpt>
      <trkpt lat="47.35526" lon="5.4386">
        <ele>199</ele>
        <time>2026-05-15T14:14:06+02:00</time>
      </trkpt>
      <trkpt lat="47.35529" lon="5.43856">
        <ele>198.7998</ele>
        <time>2026-05-15T14:14:07+02:00</time>
      </trkpt>
      <trkpt lat="47.35533" lon="5.43853">
        <ele>198.7998</ele>
        <time>2026-05-15T14:14:08+02:00</time>
      </trkpt>
      <trkpt lat="47.35536" lon="5.43849">
        <ele>198.7002</ele>
        <time>2026-05-15T14:14:09+02:00</time>
      </trkpt>
      <trkpt lat="47.3554" lon="5.43846">
        <ele>198.7998</ele>
        <time>2026-05-15T14:14:10+02:00</time>
      </trkpt>
      <trkpt lat="47.35544" lon="5.43843">
        <ele>198.7998</ele>
        <time>2026-05-15T14:14:11+02:00</time>
      </trkpt>
      <trkpt lat="47.35549" lon="5.4384">
        <ele>198.60059</ele>
        <time>2026-05-15T14:14:12+02:00</time>
      </trkpt>
      <trkpt lat="47.35553" lon="5.43838">
        <ele>198.7002</ele>
        <time>2026-05-15T14:14:13+02:00</time>
      </trkpt>
      <trkpt lat="47.35557" lon="5.43836">
        <ele>198.7998</ele>
        <time>2026-05-15T14:14:14+02:00</time>
      </trkpt>
      <trkpt lat="47.35562" lon="5.43835">
        <ele>198.7998</ele>
        <time>2026-05-15T14:14:15+02:00</time>
      </trkpt>
      <trkpt lat="47.35566" lon="5.43833">
        <ele>198.90039</ele>
        <time>2026-05-15T14:14:16+02:00</time>
      </trkpt>
      <trkpt lat="47.35569" lon="5.4383">
        <ele>198.7002</ele>
        <time>2026-05-15T14:14:17+02:00</time>
      </trkpt>
      <trkpt lat="47.35573" lon="5.43827">
        <ele>198.7002</ele>
        <time>2026-05-15T14:14:18+02:00</time>
      </trkpt>
      <trkpt lat="47.35577" lon="5.43825">
        <ele>198.7998</ele>
        <time>2026-05-15T14:14:19+02:00</time>
      </trkpt>
      <trkpt lat="47.35579" lon="5.43823">
        <ele>198.5</ele>
        <time>2026-05-15T14:14:20+02:00</time>
      </trkpt>
      <trkpt lat="47.35582" lon="5.43823">
        <ele>198.60059</ele>
        <time>2026-05-15T14:14:21+02:00</time>
      </trkpt>
      <trkpt lat="47.35584" lon="5.43824">
        <ele>198.90039</ele>
        <time>2026-05-15T14:14:22+02:00</time>
      </trkpt>
      <trkpt lat="47.35586" lon="5.43826">
        <ele>198.90039</ele>
        <time>2026-05-15T14:14:23+02:00</time>
      </trkpt>
      <trkpt lat="47.35587" lon="5.43829">
        <ele>198.90039</ele>
        <time>2026-05-15T14:14:24+02:00</time>
      </trkpt>
      <trkpt lat="47.3559" lon="5.43833">
        <ele>199.2002</ele>
        <time>2026-05-15T14:14:25+02:00</time>
      </trkpt>
      <trkpt lat="47.35592" lon="5.43836">
        <ele>199.2002</ele>
        <time>2026-05-15T14:14:26+02:00</time>
      </trkpt>
      <trkpt lat="47.35595" lon="5.43839">
        <ele>199.2998</ele>
        <time>2026-05-15T14:14:27+02:00</time>
      </trkpt>
      <trkpt lat="47.35599" lon="5.43843">
        <ele>199.7002</ele>
        <time>2026-05-15T14:14:28+02:00</time>
      </trkpt>
      <trkpt lat="47.35602" lon="5.43846">
        <ele>199.7002</ele>
        <time>2026-05-15T14:14:29+02:00</time>
      </trkpt>
      <trkpt lat="47.35605" lon="5.43849">
        <ele>199.7002</ele>
        <time>2026-05-15T14:14:30+02:00</time>
      </trkpt>
      <trkpt lat="47.35608" lon="5.43853">
        <ele>200</ele>
        <time>2026-05-15T14:14:31+02:00</time>
      </trkpt>
      <trkpt lat="47.35611" lon="5.43856">
        <ele>200</ele>
        <time>2026-05-15T14:14:32+02:00</time>
      </trkpt>
      <trkpt lat="47.35615" lon="5.4386">
        <ele>200.2998</ele>
        <time>2026-05-15T14:14:33+02:00</time>
      </trkpt>
      <trkpt lat="47.35618" lon="5.43864">
        <ele>200.2002</ele>
        <time>2026-05-15T14:14:34+02:00</time>
      </trkpt>
      <trkpt lat="47.35628" lon="5.43874">
        <ele>200.40039</ele>
        <time>2026-05-15T14:14:35+02:00</time>
      </trkpt>
      <trkpt lat="47.35632" lon="5.43878">
        <ele>200.7002</ele>
        <time>2026-05-15T14:14:36+02:00</time>
      </trkpt>
      <trkpt lat="47.35635" lon="5.4388">
        <ele>200.7002</ele>
        <time>2026-05-15T14:14:37+02:00</time>
      </trkpt>
      <trkpt lat="47.35637" lon="5.43883">
        <ele>200.7002</ele>
        <time>2026-05-15T14:14:38+02:00</time>
      </trkpt>
      <trkpt lat="47.3564" lon="5.43886">
        <ele>200.90039</ele>
        <time>2026-05-15T14:14:39+02:00</time>
      </trkpt>
      <trkpt lat="47.35642" lon="5.43889">
        <ele>200.90039</ele>
        <time>2026-05-15T14:14:40+02:00</time>
      </trkpt>
      <trkpt lat="47.35645" lon="5.43892">
        <ele>201.10059</ele>
        <time>2026-05-15T14:14:41+02:00</time>
      </trkpt>
      <trkpt lat="47.35648" lon="5.43894">
        <ele>201.10059</ele>
        <time>2026-05-15T14:14:42+02:00</time>
      </trkpt>
      <trkpt lat="47.35651" lon="5.43898">
        <ele>201.10059</ele>
        <time>2026-05-15T14:14:43+02:00</time>
      </trkpt>
      <trkpt lat="47.35654" lon="5.43901">
        <ele>201.2998</ele>
        <time>2026-05-15T14:14:44+02:00</time>
      </trkpt>
      <trkpt lat="47.35657" lon="5.43905">
        <ele>201.2998</ele>
        <time>2026-05-15T14:14:45+02:00</time>
      </trkpt>
      <trkpt lat="47.3566" lon="5.43909">
        <ele>201.2998</ele>
        <time>2026-05-15T14:14:46+02:00</time>
      </trkpt>
      <trkpt lat="47.35663" lon="5.43914">
        <ele>201.40039</ele>
        <time>2026-05-15T14:14:47+02:00</time>
      </trkpt>
      <trkpt lat="47.35666" lon="5.43919">
        <ele>201.60059</ele>
        <time>2026-05-15T14:14:48+02:00</time>
      </trkpt>
      <trkpt lat="47.35669" lon="5.43924">
        <ele>201.60059</ele>
        <time>2026-05-15T14:14:49+02:00</time>
      </trkpt>
      <trkpt lat="47.35671" lon="5.43928">
        <ele>201.7998</ele>
        <time>2026-05-15T14:14:50+02:00</time>
      </trkpt>
      <trkpt lat="47.35674" lon="5.43933">
        <ele>201.7998</ele>
        <time>2026-05-15T14:14:51+02:00</time>
      </trkpt>
      <trkpt lat="47.35677" lon="5.43937">
        <ele>202</ele>
        <time>2026-05-15T14:14:52+02:00</time>
      </trkpt>
      <trkpt lat="47.3568" lon="5.43941">
        <ele>202</ele>
        <time>2026-05-15T14:14:53+02:00</time>
      </trkpt>
      <trkpt lat="47.35683" lon="5.43946">
        <ele>202.10059</ele>
        <time>2026-05-15T14:14:54+02:00</time>
      </trkpt>
      <trkpt lat="47.35686" lon="5.4395">
        <ele>202.10059</ele>
        <time>2026-05-15T14:14:55+02:00</time>
      </trkpt>
      <trkpt lat="47.35689" lon="5.43954">
        <ele>202.2998</ele>
        <time>2026-05-15T14:14:56+02:00</time>
      </trkpt>
      <trkpt lat="47.35692" lon="5.43959">
        <ele>202.2998</ele>
        <time>2026-05-15T14:14:57+02:00</time>
      </trkpt>
      <trkpt lat="47.35695" lon="5.43963">
        <ele>202.40039</ele>
        <time>2026-05-15T14:14:58+02:00</time>
      </trkpt>
      <trkpt lat="47.35697" lon="5.43968">
        <ele>202.40039</ele>
        <time>2026-05-15T14:14:59+02:00</time>
      </trkpt>
      <trkpt lat="47.357" lon="5.43973">
        <ele>202.5</ele>
        <time>2026-05-15T14:15:00+02:00</time>
      </trkpt>
      <trkpt lat="47.35703" lon="5.43977">
        <ele>202.5</ele>
        <time>2026-05-15T14:15:01+02:00</time>
      </trkpt>
      <trkpt lat="47.35706" lon="5.43982">
        <ele>202.60059</ele>
        <time>2026-05-15T14:15:02+02:00</time>
      </trkpt>
      <trkpt lat="47.35708" lon="5.43986">
        <ele>202.60059</ele>
        <time>2026-05-15T14:15:03+02:00</time>
      </trkpt>
      <trkpt lat="47.35711" lon="5.43991">
        <ele>202.60059</ele>
        <time>2026-05-15T14:15:04+02:00</time>
      </trkpt>
      <trkpt lat="47.35714" lon="5.43995">
        <ele>202.7002</ele>
        <time>2026-05-15T14:15:05+02:00</time>
      </trkpt>
      <trkpt lat="47.35717" lon="5.43999">
        <ele>202.60059</ele>
        <time>2026-05-15T14:15:06+02:00</time>
      </trkpt>
      <trkpt lat="47.3572" lon="5.44004">
        <ele>202.60059</ele>
        <time>2026-05-15T14:15:07+02:00</time>
      </trkpt>
      <trkpt lat="47.35722" lon="5.44009">
        <ele>202.60059</ele>
        <time>2026-05-15T14:15:08+02:00</time>
      </trkpt>
      <trkpt lat="47.35726" lon="5.44013">
        <ele>202.60059</ele>
        <time>2026-05-15T14:15:09+02:00</time>
      </trkpt>
      <trkpt lat="47.35729" lon="5.44018">
        <ele>202.60059</ele>
        <time>2026-05-15T14:15:10+02:00</time>
      </trkpt>
      <trkpt lat="47.35731" lon="5.44022">
        <ele>202.60059</ele>
        <time>2026-05-15T14:15:11+02:00</time>
      </trkpt>
      <trkpt lat="47.35734" lon="5.44027">
        <ele>202.60059</ele>
        <time>2026-05-15T14:15:12+02:00</time>
      </trkpt>
      <trkpt lat="47.35737" lon="5.44031">
        <ele>202.60059</ele>
        <time>2026-05-15T14:15:13+02:00</time>
      </trkpt>
      <trkpt lat="47.3574" lon="5.44034">
        <ele>202.5</ele>
        <time>2026-05-15T14:15:14+02:00</time>
      </trkpt>
      <trkpt lat="47.35743" lon="5.44038">
        <ele>202.60059</ele>
        <time>2026-05-15T14:15:15+02:00</time>
      </trkpt>
      <trkpt lat="47.35746" lon="5.44042">
        <ele>202.5</ele>
        <time>2026-05-15T14:15:16+02:00</time>
      </trkpt>
      <trkpt lat="47.3575" lon="5.44046">
        <ele>202.5</ele>
        <time>2026-05-15T14:15:17+02:00</time>
      </trkpt>
      <trkpt lat="47.35753" lon="5.4405">
        <ele>202.5</ele>
        <time>2026-05-15T14:15:18+02:00</time>
      </trkpt>
      <trkpt lat="47.35757" lon="5.44053">
        <ele>202.5</ele>
        <time>2026-05-15T14:15:19+02:00</time>
      </trkpt>
      <trkpt lat="47.35761" lon="5.44057">
        <ele>202.5</ele>
        <time>2026-05-15T14:15:20+02:00</time>
      </trkpt>
      <trkpt lat="47.35764" lon="5.44061">
        <ele>202.5</ele>
        <time>2026-05-15T14:15:21+02:00</time>
      </trkpt>
      <trkpt lat="47.35767" lon="5.44065">
        <ele>202.5</ele>
        <time>2026-05-15T14:15:22+02:00</time>
      </trkpt>
      <trkpt lat="47.35771" lon="5.4407">
        <ele>202.5</ele>
        <time>2026-05-15T14:15:23+02:00</time>
      </trkpt>
      <trkpt lat="47.35774" lon="5.44074">
        <ele>202.40039</ele>
        <time>2026-05-15T14:15:24+02:00</time>
      </trkpt>
      <trkpt lat="47.35778" lon="5.44078">
        <ele>202.40039</ele>
        <time>2026-05-15T14:15:25+02:00</time>
      </trkpt>
      <trkpt lat="47.35782" lon="5.44083">
        <ele>202.2998</ele>
        <time>2026-05-15T14:15:26+02:00</time>
      </trkpt>
      <trkpt lat="47.35786" lon="5.44087">
        <ele>202.40039</ele>
        <time>2026-05-15T14:15:27+02:00</time>
      </trkpt>
      <trkpt lat="47.3579" lon="5.44092">
        <ele>202.2002</ele>
        <time>2026-05-15T14:15:28+02:00</time>
      </trkpt>
      <trkpt lat="47.35794" lon="5.44097">
        <ele>202.2002</ele>
        <time>2026-05-15T14:15:29+02:00</time>
      </trkpt>
      <trkpt lat="47.35798" lon="5.44102">
        <ele>202</ele>
        <time>2026-05-15T14:15:30+02:00</time>
      </trkpt>
      <trkpt lat="47.35802" lon="5.44107">
        <ele>201.7002</ele>
        <time>2026-05-15T14:15:31+02:00</time>
      </trkpt>
      <trkpt lat="47.35806" lon="5.44112">
        <ele>201.7002</ele>
        <time>2026-05-15T14:15:32+02:00</time>
      </trkpt>
      <trkpt lat="47.35811" lon="5.44117">
        <ele>201.2998</ele>
        <time>2026-05-15T14:15:33+02:00</time>
      </trkpt>
      <trkpt lat="47.35815" lon="5.44122">
        <ele>201.2998</ele>
        <time>2026-05-15T14:15:34+02:00</time>
      </trkpt>
      <trkpt lat="47.3582" lon="5.44127">
        <ele>200.90039</ele>
        <time>2026-05-15T14:15:35+02:00</time>
      </trkpt>
      <trkpt lat="47.35824" lon="5.44131">
        <ele>200.90039</ele>
        <time>2026-05-15T14:15:36+02:00</time>
      </trkpt>
      <trkpt lat="47.35829" lon="5.44136">
        <ele>200.60059</ele>
        <time>2026-05-15T14:15:37+02:00</time>
      </trkpt>
      <trkpt lat="47.35833" lon="5.44141">
        <ele>200.2002</ele>
        <time>2026-05-15T14:15:38+02:00</time>
      </trkpt>
      <trkpt lat="47.35838" lon="5.44147">
        <ele>200.2998</ele>
        <time>2026-05-15T14:15:39+02:00</time>
      </trkpt>
      <trkpt lat="47.35842" lon="5.44152">
        <ele>200</ele>
        <time>2026-05-15T14:15:40+02:00</time>
      </trkpt>
      <trkpt lat="47.35846" lon="5.44157">
        <ele>200</ele>
        <time>2026-05-15T14:15:41+02:00</time>
      </trkpt>
      <trkpt lat="47.35851" lon="5.44161">
        <ele>199.7998</ele>
        <time>2026-05-15T14:15:42+02:00</time>
      </trkpt>
      <trkpt lat="47.35855" lon="5.44166">
        <ele>199.90039</ele>
        <time>2026-05-15T14:15:43+02:00</time>
      </trkpt>
      <trkpt lat="47.35859" lon="5.44171">
        <ele>199.7002</ele>
        <time>2026-05-15T14:15:44+02:00</time>
      </trkpt>
      <trkpt lat="47.35864" lon="5.44175">
        <ele>199.7998</ele>
        <time>2026-05-15T14:15:45+02:00</time>
      </trkpt>
      <trkpt lat="47.35868" lon="5.4418">
        <ele>199.7002</ele>
        <time>2026-05-15T14:15:46+02:00</time>
      </trkpt>
      <trkpt lat="47.35872" lon="5.44184">
        <ele>199.7002</ele>
        <time>2026-05-15T14:15:47+02:00</time>
      </trkpt>
      <trkpt lat="47.35877" lon="5.44189">
        <ele>199.7002</ele>
        <time>2026-05-15T14:15:48+02:00</time>
      </trkpt>
      <trkpt lat="47.35881" lon="5.44194">
        <ele>199.7002</ele>
        <time>2026-05-15T14:15:49+02:00</time>
      </trkpt>
      <trkpt lat="47.35885" lon="5.44199">
        <ele>199.90039</ele>
        <time>2026-05-15T14:15:50+02:00</time>
      </trkpt>
      <trkpt lat="47.35889" lon="5.44204">
        <ele>199.90039</ele>
        <time>2026-05-15T14:15:51+02:00</time>
      </trkpt>
      <trkpt lat="47.35894" lon="5.44209">
        <ele>199.90039</ele>
        <time>2026-05-15T14:15:52+02:00</time>
      </trkpt>
      <trkpt lat="47.35898" lon="5.44214">
        <ele>200</ele>
        <time>2026-05-15T14:15:53+02:00</time>
      </trkpt>
      <trkpt lat="47.35903" lon="5.4422">
        <ele>200.10059</ele>
        <time>2026-05-15T14:15:54+02:00</time>
      </trkpt>
      <trkpt lat="47.35908" lon="5.44225">
        <ele>200.2002</ele>
        <time>2026-05-15T14:15:55+02:00</time>
      </trkpt>
      <trkpt lat="47.35913" lon="5.4423">
        <ele>200.2998</ele>
        <time>2026-05-15T14:15:56+02:00</time>
      </trkpt>
      <trkpt lat="47.35917" lon="5.44236">
        <ele>200.2002</ele>
        <time>2026-05-15T14:15:57+02:00</time>
      </trkpt>
      <trkpt lat="47.35922" lon="5.44241">
        <ele>200.2998</ele>
        <time>2026-05-15T14:15:58+02:00</time>
      </trkpt>
      <trkpt lat="47.35927" lon="5.44246">
        <ele>200.2998</ele>
        <time>2026-05-15T14:15:59+02:00</time>
      </trkpt>
      <trkpt lat="47.35932" lon="5.44252">
        <ele>200.40039</ele>
        <time>2026-05-15T14:16:00+02:00</time>
      </trkpt>
      <trkpt lat="47.35936" lon="5.44257">
        <ele>200.40039</ele>
        <time>2026-05-15T14:16:01+02:00</time>
      </trkpt>
      <trkpt lat="47.35941" lon="5.44262">
        <ele>200.40039</ele>
        <time>2026-05-15T14:16:02+02:00</time>
      </trkpt>
      <trkpt lat="47.35946" lon="5.44267">
        <ele>200.40039</ele>
        <time>2026-05-15T14:16:03+02:00</time>
      </trkpt>
      <trkpt lat="47.35951" lon="5.44272">
        <ele>200.40039</ele>
        <time>2026-05-15T14:16:04+02:00</time>
      </trkpt>
      <trkpt lat="47.35955" lon="5.44277">
        <ele>200.40039</ele>
        <time>2026-05-15T14:16:05+02:00</time>
      </trkpt>
      <trkpt lat="47.3596" lon="5.44282">
        <ele>200.40039</ele>
        <time>2026-05-15T14:16:06+02:00</time>
      </trkpt>
      <trkpt lat="47.35964" lon="5.44287">
        <ele>200.40039</ele>
        <time>2026-05-15T14:16:07+02:00</time>
      </trkpt>
      <trkpt lat="47.35969" lon="5.44293">
        <ele>200.40039</ele>
        <time>2026-05-15T14:16:08+02:00</time>
      </trkpt>
      <trkpt lat="47.35973" lon="5.44298">
        <ele>200.40039</ele>
        <time>2026-05-15T14:16:09+02:00</time>
      </trkpt>
      <trkpt lat="47.35977" lon="5.44303">
        <ele>200.40039</ele>
        <time>2026-05-15T14:16:10+02:00</time>
      </trkpt>
      <trkpt lat="47.35982" lon="5.44308">
        <ele>200.5</ele>
        <time>2026-05-15T14:16:11+02:00</time>
      </trkpt>
      <trkpt lat="47.35986" lon="5.44313">
        <ele>200.60059</ele>
        <time>2026-05-15T14:16:12+02:00</time>
      </trkpt>
      <trkpt lat="47.3599" lon="5.44318">
        <ele>200.60059</ele>
        <time>2026-05-15T14:16:13+02:00</time>
      </trkpt>
      <trkpt lat="47.35994" lon="5.44322">
        <ele>200.7002</ele>
        <time>2026-05-15T14:16:14+02:00</time>
      </trkpt>
      <trkpt lat="47.35999" lon="5.44327">
        <ele>200.7002</ele>
        <time>2026-05-15T14:16:15+02:00</time>
      </trkpt>
      <trkpt lat="47.36003" lon="5.44332">
        <ele>200.90039</ele>
        <time>2026-05-15T14:16:16+02:00</time>
      </trkpt>
      <trkpt lat="47.36007" lon="5.44337">
        <ele>201</ele>
        <time>2026-05-15T14:16:17+02:00</time>
      </trkpt>
      <trkpt lat="47.36011" lon="5.44341">
        <ele>201.2002</ele>
        <time>2026-05-15T14:16:18+02:00</time>
      </trkpt>
      <trkpt lat="47.36016" lon="5.44346">
        <ele>201.2002</ele>
        <time>2026-05-15T14:16:19+02:00</time>
      </trkpt>
      <trkpt lat="47.3602" lon="5.44351">
        <ele>201.40039</ele>
        <time>2026-05-15T14:16:20+02:00</time>
      </trkpt>
      <trkpt lat="47.36024" lon="5.44356">
        <ele>201.60059</ele>
        <time>2026-05-15T14:16:21+02:00</time>
      </trkpt>
      <trkpt lat="47.36028" lon="5.44361">
        <ele>201.60059</ele>
        <time>2026-05-15T14:16:22+02:00</time>
      </trkpt>
      <trkpt lat="47.36033" lon="5.44366">
        <ele>201.7998</ele>
        <time>2026-05-15T14:16:23+02:00</time>
      </trkpt>
      <trkpt lat="47.36037" lon="5.44371">
        <ele>201.90039</ele>
        <time>2026-05-15T14:16:24+02:00</time>
      </trkpt>
      <trkpt lat="47.36041" lon="5.44375">
        <ele>202.10059</ele>
        <time>2026-05-15T14:16:25+02:00</time>
      </trkpt>
      <trkpt lat="47.36045" lon="5.4438">
        <ele>202.10059</ele>
        <time>2026-05-15T14:16:26+02:00</time>
      </trkpt>
      <trkpt lat="47.36049" lon="5.44384">
        <ele>202.2002</ele>
        <time>2026-05-15T14:16:27+02:00</time>
      </trkpt>
      <trkpt lat="47.36053" lon="5.44389">
        <ele>202.2998</ele>
        <time>2026-05-15T14:16:28+02:00</time>
      </trkpt>
      <trkpt lat="47.36057" lon="5.44393">
        <ele>202.2998</ele>
        <time>2026-05-15T14:16:29+02:00</time>
      </trkpt>
      <trkpt lat="47.3606" lon="5.44398">
        <ele>202.40039</ele>
        <time>2026-05-15T14:16:30+02:00</time>
      </trkpt>
      <trkpt lat="47.36064" lon="5.44402">
        <ele>202.40039</ele>
        <time>2026-05-15T14:16:31+02:00</time>
      </trkpt>
      <trkpt lat="47.36068" lon="5.44406">
        <ele>202.40039</ele>
        <time>2026-05-15T14:16:32+02:00</time>
      </trkpt>
      <trkpt lat="47.36072" lon="5.4441">
        <ele>202.60059</ele>
        <time>2026-05-15T14:16:33+02:00</time>
      </trkpt>
      <trkpt lat="47.36076" lon="5.44415">
        <ele>202.60059</ele>
        <time>2026-05-15T14:16:34+02:00</time>
      </trkpt>
      <trkpt lat="47.3608" lon="5.44419">
        <ele>202.7002</ele>
        <time>2026-05-15T14:16:35+02:00</time>
      </trkpt>
      <trkpt lat="47.36083" lon="5.44423">
        <ele>202.7998</ele>
        <time>2026-05-15T14:16:36+02:00</time>
      </trkpt>
      <trkpt lat="47.36087" lon="5.44427">
        <ele>202.90039</ele>
        <time>2026-05-15T14:16:37+02:00</time>
      </trkpt>
      <trkpt lat="47.36091" lon="5.44431">
        <ele>202.90039</ele>
        <time>2026-05-15T14:16:38+02:00</time>
      </trkpt>
      <trkpt lat="47.36094" lon="5.44436">
        <ele>203.2002</ele>
        <time>2026-05-15T14:16:39+02:00</time>
      </trkpt>
      <trkpt lat="47.36098" lon="5.4444">
        <ele>203.2998</ele>
        <time>2026-05-15T14:16:40+02:00</time>
      </trkpt>
      <trkpt lat="47.36102" lon="5.44445">
        <ele>203.40039</ele>
        <time>2026-05-15T14:16:41+02:00</time>
      </trkpt>
      <trkpt lat="47.36106" lon="5.44449">
        <ele>203.5</ele>
        <time>2026-05-15T14:16:42+02:00</time>
      </trkpt>
      <trkpt lat="47.3611" lon="5.44454">
        <ele>203.7998</ele>
        <time>2026-05-15T14:16:43+02:00</time>
      </trkpt>
      <trkpt lat="47.36114" lon="5.44459">
        <ele>204</ele>
        <time>2026-05-15T14:16:44+02:00</time>
      </trkpt>
      <trkpt lat="47.36118" lon="5.44464">
        <ele>204.10059</ele>
        <time>2026-05-15T14:16:45+02:00</time>
      </trkpt>
      <trkpt lat="47.36122" lon="5.44469">
        <ele>204.2998</ele>
        <time>2026-05-15T14:16:46+02:00</time>
      </trkpt>
      <trkpt lat="47.36126" lon="5.44474">
        <ele>204.2998</ele>
        <time>2026-05-15T14:16:47+02:00</time>
      </trkpt>
      <trkpt lat="47.36131" lon="5.44478">
        <ele>204.5</ele>
        <time>2026-05-15T14:16:48+02:00</time>
      </trkpt>
      <trkpt lat="47.36135" lon="5.44483">
        <ele>204.60059</ele>
        <time>2026-05-15T14:16:49+02:00</time>
      </trkpt>
      <trkpt lat="47.36139" lon="5.44488">
        <ele>204.7998</ele>
        <time>2026-05-15T14:16:50+02:00</time>
      </trkpt>
      <trkpt lat="47.36143" lon="5.44493">
        <ele>204.7998</ele>
        <time>2026-05-15T14:16:51+02:00</time>
      </trkpt>
      <trkpt lat="47.36148" lon="5.44498">
        <ele>204.90039</ele>
        <time>2026-05-15T14:16:52+02:00</time>
      </trkpt>
      <trkpt lat="47.36152" lon="5.44503">
        <ele>205</ele>
        <time>2026-05-15T14:16:53+02:00</time>
      </trkpt>
      <trkpt lat="47.36157" lon="5.44508">
        <ele>205</ele>
        <time>2026-05-15T14:16:54+02:00</time>
      </trkpt>
      <trkpt lat="47.36161" lon="5.44513">
        <ele>205</ele>
        <time>2026-05-15T14:16:55+02:00</time>
      </trkpt>
      <trkpt lat="47.36166" lon="5.44519">
        <ele>205</ele>
        <time>2026-05-15T14:16:56+02:00</time>
      </trkpt>
      <trkpt lat="47.3617" lon="5.44524">
        <ele>205</ele>
        <time>2026-05-15T14:16:57+02:00</time>
      </trkpt>
      <trkpt lat="47.36175" lon="5.44529">
        <ele>205</ele>
        <time>2026-05-15T14:16:58+02:00</time>
      </trkpt>
      <trkpt lat="47.36179" lon="5.44534">
        <ele>205</ele>
        <time>2026-05-15T14:16:59+02:00</time>
      </trkpt>
      <trkpt lat="47.36184" lon="5.44539">
        <ele>205</ele>
        <time>2026-05-15T14:17:00+02:00</time>
      </trkpt>
      <trkpt lat="47.36188" lon="5.44544">
        <ele>205.10059</ele>
        <time>2026-05-15T14:17:01+02:00</time>
      </trkpt>
      <trkpt lat="47.36193" lon="5.44549">
        <ele>205</ele>
        <time>2026-05-15T14:17:02+02:00</time>
      </trkpt>
      <trkpt lat="47.36197" lon="5.44554">
        <ele>205</ele>
        <time>2026-05-15T14:17:03+02:00</time>
      </trkpt>
      <trkpt lat="47.36202" lon="5.4456">
        <ele>205</ele>
        <time>2026-05-15T14:17:04+02:00</time>
      </trkpt>
      <trkpt lat="47.36207" lon="5.44565">
        <ele>204.90039</ele>
        <time>2026-05-15T14:17:05+02:00</time>
      </trkpt>
      <trkpt lat="47.36211" lon="5.4457">
        <ele>204.90039</ele>
        <time>2026-05-15T14:17:06+02:00</time>
      </trkpt>
      <trkpt lat="47.36216" lon="5.44575">
        <ele>204.90039</ele>
        <time>2026-05-15T14:17:07+02:00</time>
      </trkpt>
      <trkpt lat="47.3622" lon="5.44581">
        <ele>204.90039</ele>
        <time>2026-05-15T14:17:08+02:00</time>
      </trkpt>
      <trkpt lat="47.36225" lon="5.44586">
        <ele>204.90039</ele>
        <time>2026-05-15T14:17:09+02:00</time>
      </trkpt>
      <trkpt lat="47.3623" lon="5.44591">
        <ele>204.7002</ele>
        <time>2026-05-15T14:17:10+02:00</time>
      </trkpt>
      <trkpt lat="47.36234" lon="5.44597">
        <ele>204.60059</ele>
        <time>2026-05-15T14:17:11+02:00</time>
      </trkpt>
      <trkpt lat="47.36239" lon="5.44602">
        <ele>204.60059</ele>
        <time>2026-05-15T14:17:12+02:00</time>
      </trkpt>
      <trkpt lat="47.36244" lon="5.44607">
        <ele>204.40039</ele>
        <time>2026-05-15T14:17:13+02:00</time>
      </trkpt>
      <trkpt lat="47.36249" lon="5.44613">
        <ele>204.2002</ele>
        <time>2026-05-15T14:17:14+02:00</time>
      </trkpt>
      <trkpt lat="47.36253" lon="5.44618">
        <ele>204.2002</ele>
        <time>2026-05-15T14:17:15+02:00</time>
      </trkpt>
      <trkpt lat="47.36258" lon="5.44624">
        <ele>204</ele>
        <time>2026-05-15T14:17:16+02:00</time>
      </trkpt>
      <trkpt lat="47.36263" lon="5.44629">
        <ele>204</ele>
        <time>2026-05-15T14:17:17+02:00</time>
      </trkpt>
      <trkpt lat="47.36268" lon="5.44635">
        <ele>203.7998</ele>
        <time>2026-05-15T14:17:18+02:00</time>
      </trkpt>
      <trkpt lat="47.36273" lon="5.44641">
        <ele>203.60059</ele>
        <time>2026-05-15T14:17:19+02:00</time>
      </trkpt>
      <trkpt lat="47.36278" lon="5.44646">
        <ele>203.5</ele>
        <time>2026-05-15T14:17:20+02:00</time>
      </trkpt>
      <trkpt lat="47.36283" lon="5.44652">
        <ele>203.40039</ele>
        <time>2026-05-15T14:17:21+02:00</time>
      </trkpt>
      <trkpt lat="47.36288" lon="5.44657">
        <ele>203.2998</ele>
        <time>2026-05-15T14:17:22+02:00</time>
      </trkpt>
      <trkpt lat="47.36293" lon="5.44663">
        <ele>203.2998</ele>
        <time>2026-05-15T14:17:23+02:00</time>
      </trkpt>
      <trkpt lat="47.36298" lon="5.44668">
        <ele>203.2998</ele>
        <time>2026-05-15T14:17:24+02:00</time>
      </trkpt>
      <trkpt lat="47.36303" lon="5.44674">
        <ele>203.2998</ele>
        <time>2026-05-15T14:17:25+02:00</time>
      </trkpt>
      <trkpt lat="47.36307" lon="5.44679">
        <ele>203.2998</ele>
        <time>2026-05-15T14:17:26+02:00</time>
      </trkpt>
      <trkpt lat="47.36312" lon="5.44685">
        <ele>203.2998</ele>
        <time>2026-05-15T14:17:27+02:00</time>
      </trkpt>
      <trkpt lat="47.36317" lon="5.4469">
        <ele>203.2998</ele>
        <time>2026-05-15T14:17:28+02:00</time>
      </trkpt>
      <trkpt lat="47.36322" lon="5.44695">
        <ele>203.2998</ele>
        <time>2026-05-15T14:17:29+02:00</time>
      </trkpt>
      <trkpt lat="47.36327" lon="5.44701">
        <ele>203.40039</ele>
        <time>2026-05-15T14:17:30+02:00</time>
      </trkpt>
      <trkpt lat="47.36331" lon="5.44707">
        <ele>203.40039</ele>
        <time>2026-05-15T14:17:31+02:00</time>
      </trkpt>
      <trkpt lat="47.36336" lon="5.44712">
        <ele>203.40039</ele>
        <time>2026-05-15T14:17:32+02:00</time>
      </trkpt>
      <trkpt lat="47.36341" lon="5.44717">
        <ele>203.5</ele>
        <time>2026-05-15T14:17:33+02:00</time>
      </trkpt>
      <trkpt lat="47.36346" lon="5.44723">
        <ele>203.5</ele>
        <time>2026-05-15T14:17:34+02:00</time>
      </trkpt>
      <trkpt lat="47.36351" lon="5.44729">
        <ele>203.60059</ele>
        <time>2026-05-15T14:17:35+02:00</time>
      </trkpt>
      <trkpt lat="47.36356" lon="5.44734">
        <ele>203.60059</ele>
        <time>2026-05-15T14:17:36+02:00</time>
      </trkpt>
      <trkpt lat="47.36361" lon="5.4474">
        <ele>203.7002</ele>
        <time>2026-05-15T14:17:37+02:00</time>
      </trkpt>
      <trkpt lat="47.36366" lon="5.44745">
        <ele>203.7002</ele>
        <time>2026-05-15T14:17:38+02:00</time>
      </trkpt>
      <trkpt lat="47.36371" lon="5.44751">
        <ele>203.7002</ele>
        <time>2026-05-15T14:17:39+02:00</time>
      </trkpt>
      <trkpt lat="47.36376" lon="5.44757">
        <ele>203.7002</ele>
        <time>2026-05-15T14:17:40+02:00</time>
      </trkpt>
      <trkpt lat="47.36382" lon="5.44762">
        <ele>203.7002</ele>
        <time>2026-05-15T14:17:41+02:00</time>
      </trkpt>
      <trkpt lat="47.36387" lon="5.44768">
        <ele>203.7002</ele>
        <time>2026-05-15T14:17:42+02:00</time>
      </trkpt>
      <trkpt lat="47.36392" lon="5.44773">
        <ele>203.7998</ele>
        <time>2026-05-15T14:17:43+02:00</time>
      </trkpt>
      <trkpt lat="47.36398" lon="5.44778">
        <ele>203.7002</ele>
        <time>2026-05-15T14:17:44+02:00</time>
      </trkpt>
      <trkpt lat="47.36404" lon="5.44782">
        <ele>203.7002</ele>
        <time>2026-05-15T14:17:45+02:00</time>
      </trkpt>
      <trkpt lat="47.3641" lon="5.44787">
        <ele>203.7002</ele>
        <time>2026-05-15T14:17:46+02:00</time>
      </trkpt>
      <trkpt lat="47.36416" lon="5.44791">
        <ele>203.7002</ele>
        <time>2026-05-15T14:17:47+02:00</time>
      </trkpt>
      <trkpt lat="47.36422" lon="5.44794">
        <ele>203.60059</ele>
        <time>2026-05-15T14:17:48+02:00</time>
      </trkpt>
      <trkpt lat="47.36428" lon="5.44797">
        <ele>203.60059</ele>
        <time>2026-05-15T14:17:49+02:00</time>
      </trkpt>
      <trkpt lat="47.36434" lon="5.44801">
        <ele>203.60059</ele>
        <time>2026-05-15T14:17:50+02:00</time>
      </trkpt>
      <trkpt lat="47.3644" lon="5.44804">
        <ele>203.5</ele>
        <time>2026-05-15T14:17:51+02:00</time>
      </trkpt>
      <trkpt lat="47.36446" lon="5.44807">
        <ele>203.5</ele>
        <time>2026-05-15T14:17:52+02:00</time>
      </trkpt>
      <trkpt lat="47.36452" lon="5.4481">
        <ele>203.5</ele>
        <time>2026-05-15T14:17:53+02:00</time>
      </trkpt>
      <trkpt lat="47.36458" lon="5.44813">
        <ele>203.40039</ele>
        <time>2026-05-15T14:17:54+02:00</time>
      </trkpt>
      <trkpt lat="47.36464" lon="5.44815">
        <ele>203.40039</ele>
        <time>2026-05-15T14:17:55+02:00</time>
      </trkpt>
      <trkpt lat="47.3647" lon="5.44818">
        <ele>203.5</ele>
        <time>2026-05-15T14:17:56+02:00</time>
      </trkpt>
      <trkpt lat="47.36476" lon="5.44821">
        <ele>203.40039</ele>
        <time>2026-05-15T14:17:57+02:00</time>
      </trkpt>
      <trkpt lat="47.36481" lon="5.44824">
        <ele>203.40039</ele>
        <time>2026-05-15T14:17:58+02:00</time>
      </trkpt>
      <trkpt lat="47.36487" lon="5.44827">
        <ele>203.40039</ele>
        <time>2026-05-15T14:17:59+02:00</time>
      </trkpt>
      <trkpt lat="47.36493" lon="5.4483">
        <ele>203.40039</ele>
        <time>2026-05-15T14:18:00+02:00</time>
      </trkpt>
      <trkpt lat="47.36498" lon="5.44832">
        <ele>203.40039</ele>
        <time>2026-05-15T14:18:01+02:00</time>
      </trkpt>
      <trkpt lat="47.36504" lon="5.44835">
        <ele>203.5</ele>
        <time>2026-05-15T14:18:02+02:00</time>
      </trkpt>
      <trkpt lat="47.3651" lon="5.44838">
        <ele>203.40039</ele>
        <time>2026-05-15T14:18:03+02:00</time>
      </trkpt>
      <trkpt lat="47.36516" lon="5.44841">
        <ele>203.5</ele>
        <time>2026-05-15T14:18:04+02:00</time>
      </trkpt>
      <trkpt lat="47.36522" lon="5.44843">
        <ele>203.5</ele>
        <time>2026-05-15T14:18:05+02:00</time>
      </trkpt>
      <trkpt lat="47.36528" lon="5.44846">
        <ele>203.5</ele>
        <time>2026-05-15T14:18:06+02:00</time>
      </trkpt>
      <trkpt lat="47.36534" lon="5.44849">
        <ele>203.60059</ele>
        <time>2026-05-15T14:18:07+02:00</time>
      </trkpt>
      <trkpt lat="47.3654" lon="5.44852">
        <ele>203.7002</ele>
        <time>2026-05-15T14:18:08+02:00</time>
      </trkpt>
      <trkpt lat="47.36545" lon="5.44855">
        <ele>203.60059</ele>
        <time>2026-05-15T14:18:09+02:00</time>
      </trkpt>
      <trkpt lat="47.36551" lon="5.44858">
        <ele>203.7002</ele>
        <time>2026-05-15T14:18:10+02:00</time>
      </trkpt>
      <trkpt lat="47.36558" lon="5.44861">
        <ele>203.7998</ele>
        <time>2026-05-15T14:18:11+02:00</time>
      </trkpt>
      <trkpt lat="47.36563" lon="5.44864">
        <ele>203.7002</ele>
        <time>2026-05-15T14:18:12+02:00</time>
      </trkpt>
      <trkpt lat="47.36569" lon="5.44867">
        <ele>203.7002</ele>
        <time>2026-05-15T14:18:13+02:00</time>
      </trkpt>
      <trkpt lat="47.36575" lon="5.4487">
        <ele>203.7002</ele>
        <time>2026-05-15T14:18:14+02:00</time>
      </trkpt>
      <trkpt lat="47.36582" lon="5.44873">
        <ele>203.7002</ele>
        <time>2026-05-15T14:18:15+02:00</time>
      </trkpt>
      <trkpt lat="47.36588" lon="5.44875">
        <ele>203.7002</ele>
        <time>2026-05-15T14:18:16+02:00</time>
      </trkpt>
      <trkpt lat="47.36594" lon="5.44878">
        <ele>203.7002</ele>
        <time>2026-05-15T14:18:17+02:00</time>
      </trkpt>
      <trkpt lat="47.36599" lon="5.44881">
        <ele>203.60059</ele>
        <time>2026-05-15T14:18:18+02:00</time>
      </trkpt>
      <trkpt lat="47.36606" lon="5.44884">
        <ele>203.60059</ele>
        <time>2026-05-15T14:18:19+02:00</time>
      </trkpt>
      <trkpt lat="47.36611" lon="5.44887">
        <ele>203.60059</ele>
        <time>2026-05-15T14:18:20+02:00</time>
      </trkpt>
      <trkpt lat="47.36617" lon="5.44889">
        <ele>203.5</ele>
        <time>2026-05-15T14:18:21+02:00</time>
      </trkpt>
      <trkpt lat="47.36623" lon="5.44892">
        <ele>203.5</ele>
        <time>2026-05-15T14:18:22+02:00</time>
      </trkpt>
      <trkpt lat="47.36629" lon="5.44895">
        <ele>203.5</ele>
        <time>2026-05-15T14:18:23+02:00</time>
      </trkpt>
      <trkpt lat="47.36635" lon="5.44898">
        <ele>203.5</ele>
        <time>2026-05-15T14:18:24+02:00</time>
      </trkpt>
      <trkpt lat="47.3664" lon="5.44901">
        <ele>203.5</ele>
        <time>2026-05-15T14:18:25+02:00</time>
      </trkpt>
      <trkpt lat="47.36646" lon="5.44904">
        <ele>203.5</ele>
        <time>2026-05-15T14:18:26+02:00</time>
      </trkpt>
      <trkpt lat="47.36652" lon="5.44907">
        <ele>203.5</ele>
        <time>2026-05-15T14:18:27+02:00</time>
      </trkpt>
      <trkpt lat="47.36658" lon="5.44909">
        <ele>203.5</ele>
        <time>2026-05-15T14:18:28+02:00</time>
      </trkpt>
      <trkpt lat="47.36664" lon="5.44912">
        <ele>203.60059</ele>
        <time>2026-05-15T14:18:29+02:00</time>
      </trkpt>
      <trkpt lat="47.3667" lon="5.44915">
        <ele>203.7002</ele>
        <time>2026-05-15T14:18:30+02:00</time>
      </trkpt>
      <trkpt lat="47.36676" lon="5.44918">
        <ele>203.7002</ele>
        <time>2026-05-15T14:18:31+02:00</time>
      </trkpt>
      <trkpt lat="47.36681" lon="5.44921">
        <ele>203.7998</ele>
        <time>2026-05-15T14:18:32+02:00</time>
      </trkpt>
      <trkpt lat="47.36687" lon="5.44924">
        <ele>203.90039</ele>
        <time>2026-05-15T14:18:33+02:00</time>
      </trkpt>
      <trkpt lat="47.36692" lon="5.44927">
        <ele>204</ele>
        <time>2026-05-15T14:18:34+02:00</time>
      </trkpt>
      <trkpt lat="47.36698" lon="5.44929">
        <ele>204.2002</ele>
        <time>2026-05-15T14:18:35+02:00</time>
      </trkpt>
      <trkpt lat="47.36703" lon="5.44932">
        <ele>204.2002</ele>
        <time>2026-05-15T14:18:36+02:00</time>
      </trkpt>
      <trkpt lat="47.36709" lon="5.44934">
        <ele>204.40039</ele>
        <time>2026-05-15T14:18:37+02:00</time>
      </trkpt>
      <trkpt lat="47.36714" lon="5.44937">
        <ele>204.5</ele>
        <time>2026-05-15T14:18:38+02:00</time>
      </trkpt>
      <trkpt lat="47.3672" lon="5.4494">
        <ele>204.40039</ele>
        <time>2026-05-15T14:18:39+02:00</time>
      </trkpt>
      <trkpt lat="47.36725" lon="5.44943">
        <ele>204.5</ele>
        <time>2026-05-15T14:18:40+02:00</time>
      </trkpt>
      <trkpt lat="47.3673" lon="5.44946">
        <ele>204.60059</ele>
        <time>2026-05-15T14:18:41+02:00</time>
      </trkpt>
      <trkpt lat="47.36735" lon="5.44949">
        <ele>204.60059</ele>
        <time>2026-05-15T14:18:42+02:00</time>
      </trkpt>
      <trkpt lat="47.36741" lon="5.44952">
        <ele>204.7002</ele>
        <time>2026-05-15T14:18:43+02:00</time>
      </trkpt>
      <trkpt lat="47.36746" lon="5.44956">
        <ele>204.7998</ele>
        <time>2026-05-15T14:18:44+02:00</time>
      </trkpt>
      <trkpt lat="47.36751" lon="5.44959">
        <ele>204.7998</ele>
        <time>2026-05-15T14:18:45+02:00</time>
      </trkpt>
      <trkpt lat="47.36756" lon="5.44963">
        <ele>204.90039</ele>
        <time>2026-05-15T14:18:46+02:00</time>
      </trkpt>
      <trkpt lat="47.36761" lon="5.44967">
        <ele>204.90039</ele>
        <time>2026-05-15T14:18:47+02:00</time>
      </trkpt>
      <trkpt lat="47.36765" lon="5.44971">
        <ele>204.90039</ele>
        <time>2026-05-15T14:18:48+02:00</time>
      </trkpt>
      <trkpt lat="47.3677" lon="5.44975">
        <ele>205</ele>
        <time>2026-05-15T14:18:49+02:00</time>
      </trkpt>
      <trkpt lat="47.36775" lon="5.44979">
        <ele>205.10059</ele>
        <time>2026-05-15T14:18:50+02:00</time>
      </trkpt>
      <trkpt lat="47.3678" lon="5.44983">
        <ele>205.10059</ele>
        <time>2026-05-15T14:18:51+02:00</time>
      </trkpt>
      <trkpt lat="47.36784" lon="5.44987">
        <ele>205.2002</ele>
        <time>2026-05-15T14:18:52+02:00</time>
      </trkpt>
      <trkpt lat="47.36789" lon="5.4499">
        <ele>205.2002</ele>
        <time>2026-05-15T14:18:53+02:00</time>
      </trkpt>
      <trkpt lat="47.36794" lon="5.44994">
        <ele>205.2998</ele>
        <time>2026-05-15T14:18:54+02:00</time>
      </trkpt>
      <trkpt lat="47.36799" lon="5.44998">
        <ele>205.40039</ele>
        <time>2026-05-15T14:18:55+02:00</time>
      </trkpt>
      <trkpt lat="47.36804" lon="5.45002">
        <ele>205.5</ele>
        <time>2026-05-15T14:18:56+02:00</time>
      </trkpt>
      <trkpt lat="47.36809" lon="5.45006">
        <ele>205.60059</ele>
        <time>2026-05-15T14:18:57+02:00</time>
      </trkpt>
      <trkpt lat="47.36814" lon="5.4501">
        <ele>205.7002</ele>
        <time>2026-05-15T14:18:58+02:00</time>
      </trkpt>
      <trkpt lat="47.36818" lon="5.45014">
        <ele>205.7002</ele>
        <time>2026-05-15T14:18:59+02:00</time>
      </trkpt>
      <trkpt lat="47.36823" lon="5.45018">
        <ele>205.90039</ele>
        <time>2026-05-15T14:19:00+02:00</time>
      </trkpt>
      <trkpt lat="47.36828" lon="5.45022">
        <ele>206</ele>
        <time>2026-05-15T14:19:01+02:00</time>
      </trkpt>
      <trkpt lat="47.36833" lon="5.45026">
        <ele>206.2002</ele>
        <time>2026-05-15T14:19:02+02:00</time>
      </trkpt>
      <trkpt lat="47.36838" lon="5.4503">
        <ele>206.40039</ele>
        <time>2026-05-15T14:19:03+02:00</time>
      </trkpt>
      <trkpt lat="47.36843" lon="5.45034">
        <ele>206.7002</ele>
        <time>2026-05-15T14:19:04+02:00</time>
      </trkpt>
      <trkpt lat="47.36848" lon="5.45038">
        <ele>206.90039</ele>
        <time>2026-05-15T14:19:05+02:00</time>
      </trkpt>
      <trkpt lat="47.36852" lon="5.45042">
        <ele>206.90039</ele>
        <time>2026-05-15T14:19:06+02:00</time>
      </trkpt>
      <trkpt lat="47.36857" lon="5.45046">
        <ele>207.2002</ele>
        <time>2026-05-15T14:19:07+02:00</time>
      </trkpt>
      <trkpt lat="47.36862" lon="5.45049">
        <ele>207.2998</ele>
        <time>2026-05-15T14:19:08+02:00</time>
      </trkpt>
      <trkpt lat="47.36866" lon="5.45053">
        <ele>207.5</ele>
        <time>2026-05-15T14:19:09+02:00</time>
      </trkpt>
      <trkpt lat="47.3687" lon="5.45057">
        <ele>207.5</ele>
        <time>2026-05-15T14:19:10+02:00</time>
      </trkpt>
      <trkpt lat="47.36875" lon="5.45061">
        <ele>207.7002</ele>
        <time>2026-05-15T14:19:11+02:00</time>
      </trkpt>
      <trkpt lat="47.36879" lon="5.45065">
        <ele>207.7998</ele>
        <time>2026-05-15T14:19:12+02:00</time>
      </trkpt>
      <trkpt lat="47.36884" lon="5.45069">
        <ele>207.90039</ele>
        <time>2026-05-15T14:19:13+02:00</time>
      </trkpt>
      <trkpt lat="47.36888" lon="5.45074">
        <ele>207.90039</ele>
        <time>2026-05-15T14:19:14+02:00</time>
      </trkpt>
      <trkpt lat="47.36892" lon="5.45079">
        <ele>207.90039</ele>
        <time>2026-05-15T14:19:15+02:00</time>
      </trkpt>
      <trkpt lat="47.36897" lon="5.45084">
        <ele>207.90039</ele>
        <time>2026-05-15T14:19:16+02:00</time>
      </trkpt>
      <trkpt lat="47.36901" lon="5.45089">
        <ele>207.90039</ele>
        <time>2026-05-15T14:19:17+02:00</time>
      </trkpt>
      <trkpt lat="47.36905" lon="5.45095">
        <ele>207.7998</ele>
        <time>2026-05-15T14:19:18+02:00</time>
      </trkpt>
      <trkpt lat="47.3691" lon="5.451">
        <ele>207.7998</ele>
        <time>2026-05-15T14:19:19+02:00</time>
      </trkpt>
      <trkpt lat="47.36915" lon="5.45106">
        <ele>207.7002</ele>
        <time>2026-05-15T14:19:20+02:00</time>
      </trkpt>
      <trkpt lat="47.36919" lon="5.45112">
        <ele>207.60059</ele>
        <time>2026-05-15T14:19:21+02:00</time>
      </trkpt>
      <trkpt lat="47.36924" lon="5.45118">
        <ele>207.7002</ele>
        <time>2026-05-15T14:19:22+02:00</time>
      </trkpt>
      <trkpt lat="47.36929" lon="5.45124">
        <ele>207.5</ele>
        <time>2026-05-15T14:19:23+02:00</time>
      </trkpt>
      <trkpt lat="47.36933" lon="5.45129">
        <ele>207.40039</ele>
        <time>2026-05-15T14:19:24+02:00</time>
      </trkpt>
      <trkpt lat="47.36938" lon="5.45135">
        <ele>207.40039</ele>
        <time>2026-05-15T14:19:25+02:00</time>
      </trkpt>
      <trkpt lat="47.36943" lon="5.45141">
        <ele>207.2998</ele>
        <time>2026-05-15T14:19:26+02:00</time>
      </trkpt>
      <trkpt lat="47.36948" lon="5.45147">
        <ele>207.10059</ele>
        <time>2026-05-15T14:19:27+02:00</time>
      </trkpt>
      <trkpt lat="47.36953" lon="5.45154">
        <ele>207</ele>
        <time>2026-05-15T14:19:28+02:00</time>
      </trkpt>
      <trkpt lat="47.36958" lon="5.4516">
        <ele>207</ele>
        <time>2026-05-15T14:19:29+02:00</time>
      </trkpt>
      <trkpt lat="47.36963" lon="5.45166">
        <ele>206.7998</ele>
        <time>2026-05-15T14:19:30+02:00</time>
      </trkpt>
      <trkpt lat="47.36968" lon="5.45172">
        <ele>206.60059</ele>
        <time>2026-05-15T14:19:31+02:00</time>
      </trkpt>
      <trkpt lat="47.36973" lon="5.45179">
        <ele>206.60059</ele>
        <time>2026-05-15T14:19:32+02:00</time>
      </trkpt>
      <trkpt lat="47.36978" lon="5.45185">
        <ele>206.5</ele>
        <time>2026-05-15T14:19:33+02:00</time>
      </trkpt>
      <trkpt lat="47.36984" lon="5.45192">
        <ele>206.2998</ele>
        <time>2026-05-15T14:19:34+02:00</time>
      </trkpt>
      <trkpt lat="47.36989" lon="5.45199">
        <ele>206.10059</ele>
        <time>2026-05-15T14:19:35+02:00</time>
      </trkpt>
      <trkpt lat="47.36994" lon="5.45205">
        <ele>206.10059</ele>
        <time>2026-05-15T14:19:36+02:00</time>
      </trkpt>
      <trkpt lat="47.36999" lon="5.45212">
        <ele>205.90039</ele>
        <time>2026-05-15T14:19:37+02:00</time>
      </trkpt>
      <trkpt lat="47.37005" lon="5.45218">
        <ele>205.7002</ele>
        <time>2026-05-15T14:19:38+02:00</time>
      </trkpt>
      <trkpt lat="47.3701" lon="5.45224">
        <ele>205.5</ele>
        <time>2026-05-15T14:19:39+02:00</time>
      </trkpt>
      <trkpt lat="47.37015" lon="5.4523">
        <ele>205.5</ele>
        <time>2026-05-15T14:19:40+02:00</time>
      </trkpt>
      <trkpt lat="47.3702" lon="5.45236">
        <ele>205.2998</ele>
        <time>2026-05-15T14:19:41+02:00</time>
      </trkpt>
      <trkpt lat="47.37025" lon="5.45243">
        <ele>205.10059</ele>
        <time>2026-05-15T14:19:42+02:00</time>
      </trkpt>
      <trkpt lat="47.37029" lon="5.45249">
        <ele>204.90039</ele>
        <time>2026-05-15T14:19:43+02:00</time>
      </trkpt>
      <trkpt lat="47.37035" lon="5.45255">
        <ele>204.90039</ele>
        <time>2026-05-15T14:19:44+02:00</time>
      </trkpt>
      <trkpt lat="47.3704" lon="5.45261">
        <ele>204.7998</ele>
        <time>2026-05-15T14:19:45+02:00</time>
      </trkpt>
      <trkpt lat="47.37045" lon="5.45267">
        <ele>204.7002</ele>
        <time>2026-05-15T14:19:46+02:00</time>
      </trkpt>
      <trkpt lat="47.37049" lon="5.45273">
        <ele>204.7002</ele>
        <time>2026-05-15T14:19:47+02:00</time>
      </trkpt>
      <trkpt lat="47.37054" lon="5.4528">
        <ele>204.7002</ele>
        <time>2026-05-15T14:19:48+02:00</time>
      </trkpt>
      <trkpt lat="47.37059" lon="5.45285">
        <ele>204.7002</ele>
        <time>2026-05-15T14:19:49+02:00</time>
      </trkpt>
      <trkpt lat="47.37064" lon="5.45291">
        <ele>204.7002</ele>
        <time>2026-05-15T14:19:50+02:00</time>
      </trkpt>
      <trkpt lat="47.37069" lon="5.45297">
        <ele>204.7998</ele>
        <time>2026-05-15T14:19:51+02:00</time>
      </trkpt>
      <trkpt lat="47.37074" lon="5.45303">
        <ele>204.7002</ele>
        <time>2026-05-15T14:19:52+02:00</time>
      </trkpt>
      <trkpt lat="47.37079" lon="5.4531">
        <ele>204.7998</ele>
        <time>2026-05-15T14:19:53+02:00</time>
      </trkpt>
      <trkpt lat="47.37084" lon="5.45316">
        <ele>205</ele>
        <time>2026-05-15T14:19:54+02:00</time>
      </trkpt>
      <trkpt lat="47.37089" lon="5.45322">
        <ele>205.2002</ele>
        <time>2026-05-15T14:19:55+02:00</time>
      </trkpt>
      <trkpt lat="47.37093" lon="5.45328">
        <ele>205.40039</ele>
        <time>2026-05-15T14:19:56+02:00</time>
      </trkpt>
      <trkpt lat="47.37098" lon="5.45334">
        <ele>205.60059</ele>
        <time>2026-05-15T14:19:57+02:00</time>
      </trkpt>
      <trkpt lat="47.37103" lon="5.45341">
        <ele>205.60059</ele>
        <time>2026-05-15T14:19:58+02:00</time>
      </trkpt>
      <trkpt lat="47.37108" lon="5.45347">
        <ele>205.7998</ele>
        <time>2026-05-15T14:19:59+02:00</time>
      </trkpt>
      <trkpt lat="47.37112" lon="5.45353">
        <ele>206</ele>
        <time>2026-05-15T14:20:00+02:00</time>
      </trkpt>
      <trkpt lat="47.37117" lon="5.4536">
        <ele>206.2002</ele>
        <time>2026-05-15T14:20:01+02:00</time>
      </trkpt>
      <trkpt lat="47.37121" lon="5.45366">
        <ele>206.2002</ele>
        <time>2026-05-15T14:20:02+02:00</time>
      </trkpt>
      <trkpt lat="47.37126" lon="5.45372">
        <ele>206.5</ele>
        <time>2026-05-15T14:20:03+02:00</time>
      </trkpt>
      <trkpt lat="47.3713" lon="5.45379">
        <ele>206.7002</ele>
        <time>2026-05-15T14:20:04+02:00</time>
      </trkpt>
      <trkpt lat="47.37134" lon="5.45385">
        <ele>207.10059</ele>
        <time>2026-05-15T14:20:05+02:00</time>
      </trkpt>
      <trkpt lat="47.37139" lon="5.45391">
        <ele>207.2998</ele>
        <time>2026-05-15T14:20:06+02:00</time>
      </trkpt>
      <trkpt lat="47.37143" lon="5.45398">
        <ele>207.2998</ele>
        <time>2026-05-15T14:20:07+02:00</time>
      </trkpt>
      <trkpt lat="47.37147" lon="5.45404">
        <ele>207.60059</ele>
        <time>2026-05-15T14:20:08+02:00</time>
      </trkpt>
      <trkpt lat="47.37151" lon="5.45411">
        <ele>207.90039</ele>
        <time>2026-05-15T14:20:09+02:00</time>
      </trkpt>
      <trkpt lat="47.37156" lon="5.45417">
        <ele>208.2998</ele>
        <time>2026-05-15T14:20:10+02:00</time>
      </trkpt>
      <trkpt lat="47.3716" lon="5.45424">
        <ele>208.2002</ele>
        <time>2026-05-15T14:20:11+02:00</time>
      </trkpt>
      <trkpt lat="47.37164" lon="5.45431">
        <ele>208.60059</ele>
        <time>2026-05-15T14:20:12+02:00</time>
      </trkpt>
      <trkpt lat="47.37168" lon="5.45438">
        <ele>208.7998</ele>
        <time>2026-05-15T14:20:13+02:00</time>
      </trkpt>
      <trkpt lat="47.37172" lon="5.45444">
        <ele>208.7998</ele>
        <time>2026-05-15T14:20:14+02:00</time>
      </trkpt>
      <trkpt lat="47.37176" lon="5.45451">
        <ele>209.10059</ele>
        <time>2026-05-15T14:20:15+02:00</time>
      </trkpt>
      <trkpt lat="47.37181" lon="5.45457">
        <ele>209.2998</ele>
        <time>2026-05-15T14:20:16+02:00</time>
      </trkpt>
      <trkpt lat="47.37185" lon="5.45464">
        <ele>209.2002</ele>
        <time>2026-05-15T14:20:17+02:00</time>
      </trkpt>
      <trkpt lat="47.37189" lon="5.4547">
        <ele>209.60059</ele>
        <time>2026-05-15T14:20:18+02:00</time>
      </trkpt>
      <trkpt lat="47.37193" lon="5.45476">
        <ele>209.7002</ele>
        <time>2026-05-15T14:20:19+02:00</time>
      </trkpt>
      <trkpt lat="47.37198" lon="5.45482">
        <ele>209.90039</ele>
        <time>2026-05-15T14:20:20+02:00</time>
      </trkpt>
      <trkpt lat="47.37202" lon="5.45489">
        <ele>209.7998</ele>
        <time>2026-05-15T14:20:21+02:00</time>
      </trkpt>
      <trkpt lat="47.37206" lon="5.45495">
        <ele>210.10059</ele>
        <time>2026-05-15T14:20:22+02:00</time>
      </trkpt>
      <trkpt lat="47.3721" lon="5.45501">
        <ele>210.2998</ele>
        <time>2026-05-15T14:20:23+02:00</time>
      </trkpt>
      <trkpt lat="47.37214" lon="5.45508">
        <ele>210.2002</ele>
        <time>2026-05-15T14:20:24+02:00</time>
      </trkpt>
      <trkpt lat="47.37218" lon="5.45514">
        <ele>210.5</ele>
        <time>2026-05-15T14:20:25+02:00</time>
      </trkpt>
      <trkpt lat="47.37222" lon="5.45521">
        <ele>210.7002</ele>
        <time>2026-05-15T14:20:26+02:00</time>
      </trkpt>
      <trkpt lat="47.37226" lon="5.45527">
        <ele>210.90039</ele>
        <time>2026-05-15T14:20:27+02:00</time>
      </trkpt>
      <trkpt lat="47.3723" lon="5.45533">
        <ele>210.7002</ele>
        <time>2026-05-15T14:20:28+02:00</time>
      </trkpt>
      <trkpt lat="47.37234" lon="5.4554">
        <ele>210.7998</ele>
        <time>2026-05-15T14:20:29+02:00</time>
      </trkpt>
      <trkpt lat="47.37238" lon="5.45546">
        <ele>211.10059</ele>
        <time>2026-05-15T14:20:30+02:00</time>
      </trkpt>
      <trkpt lat="47.37242" lon="5.45552">
        <ele>210.7998</ele>
        <time>2026-05-15T14:20:31+02:00</time>
      </trkpt>
      <trkpt lat="47.37246" lon="5.45558">
        <ele>210.7002</ele>
        <time>2026-05-15T14:20:32+02:00</time>
      </trkpt>
      <trkpt lat="47.3725" lon="5.45564">
        <ele>211</ele>
        <time>2026-05-15T14:20:33+02:00</time>
      </trkpt>
      <trkpt lat="47.37253" lon="5.4557">
        <ele>210.60059</ele>
        <time>2026-05-15T14:20:34+02:00</time>
      </trkpt>
      <trkpt lat="47.37257" lon="5.45575">
        <ele>210.5</ele>
        <time>2026-05-15T14:20:35+02:00</time>
      </trkpt>
      <trkpt lat="47.37261" lon="5.45581">
        <ele>210.7002</ele>
        <time>2026-05-15T14:20:36+02:00</time>
      </trkpt>
      <trkpt lat="47.37264" lon="5.45586">
        <ele>210.40039</ele>
        <time>2026-05-15T14:20:37+02:00</time>
      </trkpt>
      <trkpt lat="47.37267" lon="5.45591">
        <ele>210.7002</ele>
        <time>2026-05-15T14:20:38+02:00</time>
      </trkpt>
      <trkpt lat="47.37271" lon="5.45596">
        <ele>210.40039</ele>
        <time>2026-05-15T14:20:39+02:00</time>
      </trkpt>
      <trkpt lat="47.37274" lon="5.45601">
        <ele>210.40039</ele>
        <time>2026-05-15T14:20:40+02:00</time>
      </trkpt>
      <trkpt lat="47.37278" lon="5.45606">
        <ele>210.60059</ele>
        <time>2026-05-15T14:20:41+02:00</time>
      </trkpt>
      <trkpt lat="47.37281" lon="5.45612">
        <ele>210.40039</ele>
        <time>2026-05-15T14:20:42+02:00</time>
      </trkpt>
      <trkpt lat="47.37285" lon="5.45617">
        <ele>210.60059</ele>
        <time>2026-05-15T14:20:43+02:00</time>
      </trkpt>
      <trkpt lat="47.37288" lon="5.45623">
        <ele>210.2998</ele>
        <time>2026-05-15T14:20:44+02:00</time>
      </trkpt>
      <trkpt lat="47.37292" lon="5.45628">
        <ele>210.2002</ele>
        <time>2026-05-15T14:20:45+02:00</time>
      </trkpt>
      <trkpt lat="47.37296" lon="5.45634">
        <ele>210.5</ele>
        <time>2026-05-15T14:20:46+02:00</time>
      </trkpt>
      <trkpt lat="47.37299" lon="5.45639">
        <ele>210.10059</ele>
        <time>2026-05-15T14:20:47+02:00</time>
      </trkpt>
      <trkpt lat="47.37303" lon="5.45645">
        <ele>210</ele>
        <time>2026-05-15T14:20:48+02:00</time>
      </trkpt>
      <trkpt lat="47.37307" lon="5.45651">
        <ele>210</ele>
        <time>2026-05-15T14:20:49+02:00</time>
      </trkpt>
      <trkpt lat="47.37311" lon="5.45657">
        <ele>209.90039</ele>
        <time>2026-05-15T14:20:50+02:00</time>
      </trkpt>
      <trkpt lat="47.37315" lon="5.45663">
        <ele>209.90039</ele>
        <time>2026-05-15T14:20:51+02:00</time>
      </trkpt>
      <trkpt lat="47.37319" lon="5.45669">
        <ele>209.90039</ele>
        <time>2026-05-15T14:20:52+02:00</time>
      </trkpt>
      <trkpt lat="47.37323" lon="5.45676">
        <ele>209.90039</ele>
        <time>2026-05-15T14:20:53+02:00</time>
      </trkpt>
      <trkpt lat="47.37327" lon="5.45682">
        <ele>209.90039</ele>
        <time>2026-05-15T14:20:54+02:00</time>
      </trkpt>
      <trkpt lat="47.37331" lon="5.45688">
        <ele>209.7998</ele>
        <time>2026-05-15T14:20:55+02:00</time>
      </trkpt>
      <trkpt lat="47.37335" lon="5.45694">
        <ele>209.7998</ele>
        <time>2026-05-15T14:20:56+02:00</time>
      </trkpt>
      <trkpt lat="47.37339" lon="5.45701">
        <ele>209.5</ele>
        <time>2026-05-15T14:20:57+02:00</time>
      </trkpt>
      <trkpt lat="47.37343" lon="5.45707">
        <ele>209.40039</ele>
        <time>2026-05-15T14:20:58+02:00</time>
      </trkpt>
      <trkpt lat="47.37347" lon="5.45713">
        <ele>209.10059</ele>
        <time>2026-05-15T14:20:59+02:00</time>
      </trkpt>
      <trkpt lat="47.37351" lon="5.45719">
        <ele>209.40039</ele>
        <time>2026-05-15T14:21:00+02:00</time>
      </trkpt>
      <trkpt lat="47.37355" lon="5.45725">
        <ele>209.5</ele>
        <time>2026-05-15T14:21:01+02:00</time>
      </trkpt>
      <trkpt lat="47.37359" lon="5.45731">
        <ele>209.10059</ele>
        <time>2026-05-15T14:21:02+02:00</time>
      </trkpt>
      <trkpt lat="47.37363" lon="5.45737">
        <ele>209.5</ele>
        <time>2026-05-15T14:21:03+02:00</time>
      </trkpt>
      <trkpt lat="47.37367" lon="5.45743">
        <ele>209.60059</ele>
        <time>2026-05-15T14:21:04+02:00</time>
      </trkpt>
      <trkpt lat="47.37371" lon="5.45749">
        <ele>209.7002</ele>
        <time>2026-05-15T14:21:05+02:00</time>
      </trkpt>
      <trkpt lat="47.37375" lon="5.45754">
        <ele>209.7002</ele>
        <time>2026-05-15T14:21:06+02:00</time>
      </trkpt>
      <trkpt lat="47.3738" lon="5.4576">
        <ele>209.7998</ele>
        <time>2026-05-15T14:21:07+02:00</time>
      </trkpt>
      <trkpt lat="47.37384" lon="5.45766">
        <ele>209.90039</ele>
        <time>2026-05-15T14:21:08+02:00</time>
      </trkpt>
      <trkpt lat="47.37388" lon="5.45771">
        <ele>209.90039</ele>
        <time>2026-05-15T14:21:09+02:00</time>
      </trkpt>
      <trkpt lat="47.37393" lon="5.45776">
        <ele>210</ele>
        <time>2026-05-15T14:21:10+02:00</time>
      </trkpt>
      <trkpt lat="47.37397" lon="5.45782">
        <ele>210.10059</ele>
        <time>2026-05-15T14:21:11+02:00</time>
      </trkpt>
      <trkpt lat="47.37402" lon="5.45787">
        <ele>210.40039</ele>
        <time>2026-05-15T14:21:12+02:00</time>
      </trkpt>
      <trkpt lat="47.37406" lon="5.45792">
        <ele>210.5</ele>
        <time>2026-05-15T14:21:13+02:00</time>
      </trkpt>
      <trkpt lat="47.3741" lon="5.45797">
        <ele>210.5</ele>
        <time>2026-05-15T14:21:14+02:00</time>
      </trkpt>
      <trkpt lat="47.37415" lon="5.45801">
        <ele>210.60059</ele>
        <time>2026-05-15T14:21:15+02:00</time>
      </trkpt>
      <trkpt lat="47.37419" lon="5.45806">
        <ele>210.60059</ele>
        <time>2026-05-15T14:21:16+02:00</time>
      </trkpt>
      <trkpt lat="47.37423" lon="5.45811">
        <ele>210.60059</ele>
        <time>2026-05-15T14:21:17+02:00</time>
      </trkpt>
      <trkpt lat="47.37427" lon="5.45816">
        <ele>210.7998</ele>
        <time>2026-05-15T14:21:18+02:00</time>
      </trkpt>
      <trkpt lat="47.37431" lon="5.45821">
        <ele>211.2002</ele>
        <time>2026-05-15T14:21:19+02:00</time>
      </trkpt>
      <trkpt lat="47.37435" lon="5.45826">
        <ele>211.40039</ele>
        <time>2026-05-15T14:21:20+02:00</time>
      </trkpt>
      <trkpt lat="47.37439" lon="5.45831">
        <ele>211.40039</ele>
        <time>2026-05-15T14:21:21+02:00</time>
      </trkpt>
      <trkpt lat="47.37444" lon="5.45835">
        <ele>211.5</ele>
        <time>2026-05-15T14:21:22+02:00</time>
      </trkpt>
      <trkpt lat="47.37448" lon="5.4584">
        <ele>211.90039</ele>
        <time>2026-05-15T14:21:23+02:00</time>
      </trkpt>
      <trkpt lat="47.37452" lon="5.45845">
        <ele>211.60059</ele>
        <time>2026-05-15T14:21:24+02:00</time>
      </trkpt>
      <trkpt lat="47.37456" lon="5.4585">
        <ele>211.7002</ele>
        <time>2026-05-15T14:21:25+02:00</time>
      </trkpt>
      <trkpt lat="47.3746" lon="5.45854">
        <ele>212</ele>
        <time>2026-05-15T14:21:26+02:00</time>
      </trkpt>
      <trkpt lat="47.37464" lon="5.45859">
        <ele>212.10059</ele>
        <time>2026-05-15T14:21:27+02:00</time>
      </trkpt>
      <trkpt lat="47.37468" lon="5.45864">
        <ele>212.10059</ele>
        <time>2026-05-15T14:21:28+02:00</time>
      </trkpt>
      <trkpt lat="47.37472" lon="5.45869">
        <ele>212.2998</ele>
        <time>2026-05-15T14:21:29+02:00</time>
      </trkpt>
      <trkpt lat="47.37476" lon="5.45873">
        <ele>212.60059</ele>
        <time>2026-05-15T14:21:30+02:00</time>
      </trkpt>
      <trkpt lat="47.3748" lon="5.45878">
        <ele>212.5</ele>
        <time>2026-05-15T14:21:31+02:00</time>
      </trkpt>
      <trkpt lat="47.37484" lon="5.45883">
        <ele>212.90039</ele>
        <time>2026-05-15T14:21:32+02:00</time>
      </trkpt>
      <trkpt lat="47.37488" lon="5.45887">
        <ele>213.10059</ele>
        <time>2026-05-15T14:21:33+02:00</time>
      </trkpt>
      <trkpt lat="47.37492" lon="5.45892">
        <ele>212.90039</ele>
        <time>2026-05-15T14:21:34+02:00</time>
      </trkpt>
      <trkpt lat="47.37496" lon="5.45897">
        <ele>213.2998</ele>
        <time>2026-05-15T14:21:35+02:00</time>
      </trkpt>
      <trkpt lat="47.375" lon="5.45901">
        <ele>213.40039</ele>
        <time>2026-05-15T14:21:36+02:00</time>
      </trkpt>
      <trkpt lat="47.37504" lon="5.45906">
        <ele>213.40039</ele>
        <time>2026-05-15T14:21:37+02:00</time>
      </trkpt>
      <trkpt lat="47.37508" lon="5.45911">
        <ele>213.5</ele>
        <time>2026-05-15T14:21:38+02:00</time>
      </trkpt>
      <trkpt lat="47.37512" lon="5.45915">
        <ele>213.7002</ele>
        <time>2026-05-15T14:21:39+02:00</time>
      </trkpt>
      <trkpt lat="47.37516" lon="5.45919">
        <ele>213.5</ele>
        <time>2026-05-15T14:21:40+02:00</time>
      </trkpt>
      <trkpt lat="47.3752" lon="5.45923">
        <ele>213.7002</ele>
        <time>2026-05-15T14:21:41+02:00</time>
      </trkpt>
      <trkpt lat="47.37524" lon="5.45927">
        <ele>213.7002</ele>
        <time>2026-05-15T14:21:42+02:00</time>
      </trkpt>
      <trkpt lat="47.37528" lon="5.45931">
        <ele>213.7002</ele>
        <time>2026-05-15T14:21:43+02:00</time>
      </trkpt>
      <trkpt lat="47.37533" lon="5.45934">
        <ele>213.90039</ele>
        <time>2026-05-15T14:21:44+02:00</time>
      </trkpt>
      <trkpt lat="47.37537" lon="5.45938">
        <ele>213.7998</ele>
        <time>2026-05-15T14:21:45+02:00</time>
      </trkpt>
      <trkpt lat="47.37541" lon="5.45941">
        <ele>213.90039</ele>
        <time>2026-05-15T14:21:46+02:00</time>
      </trkpt>
      <trkpt lat="47.37546" lon="5.45944">
        <ele>213.7002</ele>
        <time>2026-05-15T14:21:47+02:00</time>
      </trkpt>
      <trkpt lat="47.3755" lon="5.45947">
        <ele>213.7002</ele>
        <time>2026-05-15T14:21:48+02:00</time>
      </trkpt>
      <trkpt lat="47.37554" lon="5.4595">
        <ele>213.90039</ele>
        <time>2026-05-15T14:21:49+02:00</time>
      </trkpt>
      <trkpt lat="47.37558" lon="5.45954">
        <ele>213.7002</ele>
        <time>2026-05-15T14:21:50+02:00</time>
      </trkpt>
      <trkpt lat="47.37563" lon="5.45957">
        <ele>213.7998</ele>
        <time>2026-05-15T14:21:51+02:00</time>
      </trkpt>
      <trkpt lat="47.37568" lon="5.4596">
        <ele>213.7998</ele>
        <time>2026-05-15T14:21:52+02:00</time>
      </trkpt>
      <trkpt lat="47.37572" lon="5.45964">
        <ele>213.7002</ele>
        <time>2026-05-15T14:21:53+02:00</time>
      </trkpt>
      <trkpt lat="47.37577" lon="5.45967">
        <ele>213.7998</ele>
        <time>2026-05-15T14:21:54+02:00</time>
      </trkpt>
      <trkpt lat="47.37582" lon="5.45971">
        <ele>213.60059</ele>
        <time>2026-05-15T14:21:55+02:00</time>
      </trkpt>
      <trkpt lat="47.37586" lon="5.45974">
        <ele>213.60059</ele>
        <time>2026-05-15T14:21:56+02:00</time>
      </trkpt>
      <trkpt lat="47.37591" lon="5.45977">
        <ele>213.7002</ele>
        <time>2026-05-15T14:21:57+02:00</time>
      </trkpt>
      <trkpt lat="47.37595" lon="5.45981">
        <ele>213.5</ele>
        <time>2026-05-15T14:21:58+02:00</time>
      </trkpt>
      <trkpt lat="47.376" lon="5.45984">
        <ele>213.5</ele>
        <time>2026-05-15T14:21:59+02:00</time>
      </trkpt>
      <trkpt lat="47.37605" lon="5.45988">
        <ele>213.2998</ele>
        <time>2026-05-15T14:22:00+02:00</time>
      </trkpt>
      <trkpt lat="47.37609" lon="5.45991">
        <ele>213.2998</ele>
        <time>2026-05-15T14:22:01+02:00</time>
      </trkpt>
      <trkpt lat="47.37614" lon="5.45995">
        <ele>213.10059</ele>
        <time>2026-05-15T14:22:02+02:00</time>
      </trkpt>
      <trkpt lat="47.37619" lon="5.45998">
        <ele>213.2002</ele>
        <time>2026-05-15T14:22:03+02:00</time>
      </trkpt>
      <trkpt lat="47.37624" lon="5.46002">
        <ele>213.2998</ele>
        <time>2026-05-15T14:22:04+02:00</time>
      </trkpt>
      <trkpt lat="47.37628" lon="5.46006">
        <ele>213.10059</ele>
        <time>2026-05-15T14:22:05+02:00</time>
      </trkpt>
      <trkpt lat="47.37633" lon="5.46009">
        <ele>213.2002</ele>
        <time>2026-05-15T14:22:06+02:00</time>
      </trkpt>
      <trkpt lat="47.37638" lon="5.46013">
        <ele>212.7998</ele>
        <time>2026-05-15T14:22:07+02:00</time>
      </trkpt>
      <trkpt lat="47.37642" lon="5.46016">
        <ele>212.90039</ele>
        <time>2026-05-15T14:22:08+02:00</time>
      </trkpt>
      <trkpt lat="47.37647" lon="5.4602">
        <ele>212.90039</ele>
        <time>2026-05-15T14:22:09+02:00</time>
      </trkpt>
      <trkpt lat="47.37652" lon="5.46023">
        <ele>212.7002</ele>
        <time>2026-05-15T14:22:10+02:00</time>
      </trkpt>
      <trkpt lat="47.37657" lon="5.46027">
        <ele>212.7002</ele>
        <time>2026-05-15T14:22:11+02:00</time>
      </trkpt>
      <trkpt lat="47.37661" lon="5.4603">
        <ele>212.40039</ele>
        <time>2026-05-15T14:22:12+02:00</time>
      </trkpt>
      <trkpt lat="47.37666" lon="5.46033">
        <ele>212.5</ele>
        <time>2026-05-15T14:22:13+02:00</time>
      </trkpt>
      <trkpt lat="47.3767" lon="5.46036">
        <ele>212.60059</ele>
        <time>2026-05-15T14:22:14+02:00</time>
      </trkpt>
      <trkpt lat="47.37675" lon="5.4604">
        <ele>212.2998</ele>
        <time>2026-05-15T14:22:15+02:00</time>
      </trkpt>
      <trkpt lat="47.37679" lon="5.46043">
        <ele>212.2998</ele>
        <time>2026-05-15T14:22:16+02:00</time>
      </trkpt>
      <trkpt lat="47.37684" lon="5.46047">
        <ele>212</ele>
        <time>2026-05-15T14:22:17+02:00</time>
      </trkpt>
      <trkpt lat="47.37689" lon="5.4605">
        <ele>212.10059</ele>
        <time>2026-05-15T14:22:18+02:00</time>
      </trkpt>
      <trkpt lat="47.37694" lon="5.46054">
        <ele>212.2998</ele>
        <time>2026-05-15T14:22:19+02:00</time>
      </trkpt>
      <trkpt lat="47.37698" lon="5.46057">
        <ele>212.2998</ele>
        <time>2026-05-15T14:22:20+02:00</time>
      </trkpt>
      <trkpt lat="47.37703" lon="5.46061">
        <ele>212.5</ele>
        <time>2026-05-15T14:22:21+02:00</time>
      </trkpt>
      <trkpt lat="47.37708" lon="5.46064">
        <ele>212.2998</ele>
        <time>2026-05-15T14:22:22+02:00</time>
      </trkpt>
      <trkpt lat="47.37713" lon="5.46068">
        <ele>212.60059</ele>
        <time>2026-05-15T14:22:23+02:00</time>
      </trkpt>
      <trkpt lat="47.37718" lon="5.46071">
        <ele>212.7998</ele>
        <time>2026-05-15T14:22:24+02:00</time>
      </trkpt>
      <trkpt lat="47.37723" lon="5.46075">
        <ele>212.7998</ele>
        <time>2026-05-15T14:22:25+02:00</time>
      </trkpt>
      <trkpt lat="47.37727" lon="5.46079">
        <ele>213.10059</ele>
        <time>2026-05-15T14:22:26+02:00</time>
      </trkpt>
      <trkpt lat="47.37732" lon="5.46082">
        <ele>213.10059</ele>
        <time>2026-05-15T14:22:27+02:00</time>
      </trkpt>
      <trkpt lat="47.37737" lon="5.46086">
        <ele>213.10059</ele>
        <time>2026-05-15T14:22:28+02:00</time>
      </trkpt>
      <trkpt lat="47.37742" lon="5.4609">
        <ele>213.10059</ele>
        <time>2026-05-15T14:22:29+02:00</time>
      </trkpt>
      <trkpt lat="47.37747" lon="5.46093">
        <ele>213.5</ele>
        <time>2026-05-15T14:22:30+02:00</time>
      </trkpt>
      <trkpt lat="47.37752" lon="5.46096">
        <ele>213.90039</ele>
        <time>2026-05-15T14:22:31+02:00</time>
      </trkpt>
      <trkpt lat="47.37757" lon="5.461">
        <ele>214.10059</ele>
        <time>2026-05-15T14:22:32+02:00</time>
      </trkpt>
      <trkpt lat="47.37761" lon="5.46103">
        <ele>214.5</ele>
        <time>2026-05-15T14:22:33+02:00</time>
      </trkpt>
      <trkpt lat="47.37766" lon="5.46106">
        <ele>214.5</ele>
        <time>2026-05-15T14:22:34+02:00</time>
      </trkpt>
      <trkpt lat="47.37771" lon="5.4611">
        <ele>214.60059</ele>
        <time>2026-05-15T14:22:35+02:00</time>
      </trkpt>
      <trkpt lat="47.37776" lon="5.46113">
        <ele>215</ele>
        <time>2026-05-15T14:22:36+02:00</time>
      </trkpt>
      <trkpt lat="47.37781" lon="5.46117">
        <ele>215.10059</ele>
        <time>2026-05-15T14:22:37+02:00</time>
      </trkpt>
      <trkpt lat="47.37785" lon="5.4612">
        <ele>215.5</ele>
        <time>2026-05-15T14:22:38+02:00</time>
      </trkpt>
      <trkpt lat="47.3779" lon="5.46124">
        <ele>215.60059</ele>
        <time>2026-05-15T14:22:39+02:00</time>
      </trkpt>
      <trkpt lat="47.37795" lon="5.46128">
        <ele>215.60059</ele>
        <time>2026-05-15T14:22:40+02:00</time>
      </trkpt>
      <trkpt lat="47.378" lon="5.46131">
        <ele>216</ele>
        <time>2026-05-15T14:22:41+02:00</time>
      </trkpt>
      <trkpt lat="47.37804" lon="5.46134">
        <ele>216.10059</ele>
        <time>2026-05-15T14:22:42+02:00</time>
      </trkpt>
      <trkpt lat="47.37809" lon="5.46138">
        <ele>216.60059</ele>
        <time>2026-05-15T14:22:43+02:00</time>
      </trkpt>
      <trkpt lat="47.37813" lon="5.46141">
        <ele>216.7002</ele>
        <time>2026-05-15T14:22:44+02:00</time>
      </trkpt>
      <trkpt lat="47.37818" lon="5.46145">
        <ele>216.7002</ele>
        <time>2026-05-15T14:22:45+02:00</time>
      </trkpt>
      <trkpt lat="47.37822" lon="5.46149">
        <ele>217.10059</ele>
        <time>2026-05-15T14:22:46+02:00</time>
      </trkpt>
      <trkpt lat="47.37827" lon="5.46152">
        <ele>217.2998</ele>
        <time>2026-05-15T14:22:47+02:00</time>
      </trkpt>
      <trkpt lat="47.37832" lon="5.46156">
        <ele>217.7002</ele>
        <time>2026-05-15T14:22:48+02:00</time>
      </trkpt>
      <trkpt lat="47.37836" lon="5.46159">
        <ele>217.7998</ele>
        <time>2026-05-15T14:22:49+02:00</time>
      </trkpt>
      <trkpt lat="47.37841" lon="5.46162">
        <ele>217.7998</ele>
        <time>2026-05-15T14:22:50+02:00</time>
      </trkpt>
      <trkpt lat="47.37846" lon="5.46166">
        <ele>218.2002</ele>
        <time>2026-05-15T14:22:51+02:00</time>
      </trkpt>
      <trkpt lat="47.3785" lon="5.46169">
        <ele>218.10059</ele>
        <time>2026-05-15T14:22:52+02:00</time>
      </trkpt>
      <trkpt lat="47.37855" lon="5.46172">
        <ele>218.40039</ele>
        <time>2026-05-15T14:22:53+02:00</time>
      </trkpt>
      <trkpt lat="47.37859" lon="5.46176">
        <ele>218</ele>
        <time>2026-05-15T14:22:54+02:00</time>
      </trkpt>
      <trkpt lat="47.37864" lon="5.46179">
        <ele>218.2998</ele>
        <time>2026-05-15T14:22:55+02:00</time>
      </trkpt>
      <trkpt lat="47.37868" lon="5.46183">
        <ele>218.5</ele>
        <time>2026-05-15T14:22:56+02:00</time>
      </trkpt>
      <trkpt lat="47.37873" lon="5.46186">
        <ele>218.40039</ele>
        <time>2026-05-15T14:22:57+02:00</time>
      </trkpt>
      <trkpt lat="47.37877" lon="5.4619">
        <ele>218.60059</ele>
        <time>2026-05-15T14:22:58+02:00</time>
      </trkpt>
      <trkpt lat="47.37882" lon="5.46193">
        <ele>218.2998</ele>
        <time>2026-05-15T14:22:59+02:00</time>
      </trkpt>
      <trkpt lat="47.37887" lon="5.46196">
        <ele>218.5</ele>
        <time>2026-05-15T14:23:00+02:00</time>
      </trkpt>
      <trkpt lat="47.37891" lon="5.46199">
        <ele>218.7002</ele>
        <time>2026-05-15T14:23:01+02:00</time>
      </trkpt>
      <trkpt lat="47.37896" lon="5.46203">
        <ele>218.5</ele>
        <time>2026-05-15T14:23:02+02:00</time>
      </trkpt>
      <trkpt lat="47.379" lon="5.46206">
        <ele>218.60059</ele>
        <time>2026-05-15T14:23:03+02:00</time>
      </trkpt>
      <trkpt lat="47.37904" lon="5.46209">
        <ele>218.60059</ele>
        <time>2026-05-15T14:23:04+02:00</time>
      </trkpt>
      <trkpt lat="47.37909" lon="5.46212">
        <ele>218.2998</ele>
        <time>2026-05-15T14:23:05+02:00</time>
      </trkpt>
      <trkpt lat="47.37913" lon="5.46215">
        <ele>218.40039</ele>
        <time>2026-05-15T14:23:06+02:00</time>
      </trkpt>
      <trkpt lat="47.37917" lon="5.46218">
        <ele>218</ele>
        <time>2026-05-15T14:23:07+02:00</time>
      </trkpt>
      <trkpt lat="47.37921" lon="5.46221">
        <ele>218.10059</ele>
        <time>2026-05-15T14:23:08+02:00</time>
      </trkpt>
      <trkpt lat="47.37925" lon="5.46224">
        <ele>218.2002</ele>
        <time>2026-05-15T14:23:09+02:00</time>
      </trkpt>
      <trkpt lat="47.3793" lon="5.46228">
        <ele>217.90039</ele>
        <time>2026-05-15T14:23:10+02:00</time>
      </trkpt>
      <trkpt lat="47.37934" lon="5.46231">
        <ele>217.90039</ele>
        <time>2026-05-15T14:23:11+02:00</time>
      </trkpt>
      <trkpt lat="47.37938" lon="5.46234">
        <ele>218</ele>
        <time>2026-05-15T14:23:12+02:00</time>
      </trkpt>
      <trkpt lat="47.37943" lon="5.46237">
        <ele>217.7002</ele>
        <time>2026-05-15T14:23:13+02:00</time>
      </trkpt>
      <trkpt lat="47.37948" lon="5.4624">
        <ele>217.7998</ele>
        <time>2026-05-15T14:23:14+02:00</time>
      </trkpt>
      <trkpt lat="47.37952" lon="5.46244">
        <ele>217.40039</ele>
        <time>2026-05-15T14:23:15+02:00</time>
      </trkpt>
      <trkpt lat="47.37957" lon="5.46247">
        <ele>217.5</ele>
        <time>2026-05-15T14:23:16+02:00</time>
      </trkpt>
      <trkpt lat="47.37961" lon="5.46251">
        <ele>217.60059</ele>
        <time>2026-05-15T14:23:17+02:00</time>
      </trkpt>
      <trkpt lat="47.37966" lon="5.46255">
        <ele>217.2998</ele>
        <time>2026-05-15T14:23:18+02:00</time>
      </trkpt>
      <trkpt lat="47.37971" lon="5.46258">
        <ele>217.40039</ele>
        <time>2026-05-15T14:23:19+02:00</time>
      </trkpt>
      <trkpt lat="47.37975" lon="5.46261">
        <ele>217</ele>
        <time>2026-05-15T14:23:20+02:00</time>
      </trkpt>
      <trkpt lat="47.3798" lon="5.46265">
        <ele>217.10059</ele>
        <time>2026-05-15T14:23:21+02:00</time>
      </trkpt>
      <trkpt lat="47.37985" lon="5.46267">
        <ele>217.2002</ele>
        <time>2026-05-15T14:23:22+02:00</time>
      </trkpt>
      <trkpt lat="47.3799" lon="5.4627">
        <ele>216.90039</ele>
        <time>2026-05-15T14:23:23+02:00</time>
      </trkpt>
      <trkpt lat="47.37995" lon="5.46271">
        <ele>216.90039</ele>
        <time>2026-05-15T14:23:24+02:00</time>
      </trkpt>
      <trkpt lat="47.37999" lon="5.46273">
        <ele>217</ele>
        <time>2026-05-15T14:23:25+02:00</time>
      </trkpt>
      <trkpt lat="47.38004" lon="5.46274">
        <ele>217</ele>
        <time>2026-05-15T14:23:26+02:00</time>
      </trkpt>
      <trkpt lat="47.3801" lon="5.46274">
        <ele>217</ele>
        <time>2026-05-15T14:23:27+02:00</time>
      </trkpt>
      <trkpt lat="47.38015" lon="5.46273">
        <ele>217</ele>
        <time>2026-05-15T14:23:28+02:00</time>
      </trkpt>
      <trkpt lat="47.3802" lon="5.46273">
        <ele>216.90039</ele>
        <time>2026-05-15T14:23:29+02:00</time>
      </trkpt>
      <trkpt lat="47.38026" lon="5.46272">
        <ele>216.90039</ele>
        <time>2026-05-15T14:23:30+02:00</time>
      </trkpt>
      <trkpt lat="47.38032" lon="5.4627">
        <ele>216.90039</ele>
        <time>2026-05-15T14:23:31+02:00</time>
      </trkpt>
      <trkpt lat="47.38038" lon="5.46269">
        <ele>217.2002</ele>
        <time>2026-05-15T14:23:32+02:00</time>
      </trkpt>
      <trkpt lat="47.38044" lon="5.46268">
        <ele>217.2998</ele>
        <time>2026-05-15T14:23:33+02:00</time>
      </trkpt>
      <trkpt lat="47.38051" lon="5.46267">
        <ele>217.2998</ele>
        <time>2026-05-15T14:23:34+02:00</time>
      </trkpt>
      <trkpt lat="47.38057" lon="5.46265">
        <ele>217.2002</ele>
        <time>2026-05-15T14:23:35+02:00</time>
      </trkpt>
      <trkpt lat="47.38064" lon="5.46264">
        <ele>217.10059</ele>
        <time>2026-05-15T14:23:36+02:00</time>
      </trkpt>
      <trkpt lat="47.3807" lon="5.46263">
        <ele>217</ele>
        <time>2026-05-15T14:23:37+02:00</time>
      </trkpt>
      <trkpt lat="47.38077" lon="5.46261">
        <ele>216.90039</ele>
        <time>2026-05-15T14:23:38+02:00</time>
      </trkpt>
      <trkpt lat="47.38084" lon="5.4626">
        <ele>216.90039</ele>
        <time>2026-05-15T14:23:39+02:00</time>
      </trkpt>
      <trkpt lat="47.38091" lon="5.46259">
        <ele>216.7998</ele>
        <time>2026-05-15T14:23:40+02:00</time>
      </trkpt>
      <trkpt lat="47.38099" lon="5.46258">
        <ele>216.5</ele>
        <time>2026-05-15T14:23:41+02:00</time>
      </trkpt>
      <trkpt lat="47.38106" lon="5.46256">
        <ele>216.2998</ele>
        <time>2026-05-15T14:23:42+02:00</time>
      </trkpt>
      <trkpt lat="47.38113" lon="5.46255">
        <ele>216.10059</ele>
        <time>2026-05-15T14:23:43+02:00</time>
      </trkpt>
      <trkpt lat="47.3812" lon="5.46254">
        <ele>216</ele>
        <time>2026-05-15T14:23:44+02:00</time>
      </trkpt>
      <trkpt lat="47.38127" lon="5.46253">
        <ele>215.60059</ele>
        <time>2026-05-15T14:23:45+02:00</time>
      </trkpt>
      <trkpt lat="47.38134" lon="5.46253">
        <ele>215.5</ele>
        <time>2026-05-15T14:23:46+02:00</time>
      </trkpt>
      <trkpt lat="47.38141" lon="5.46251">
        <ele>215.5</ele>
        <time>2026-05-15T14:23:47+02:00</time>
      </trkpt>
      <trkpt lat="47.38148" lon="5.4625">
        <ele>215.40039</ele>
        <time>2026-05-15T14:23:48+02:00</time>
      </trkpt>
      <trkpt lat="47.38154" lon="5.46249">
        <ele>215.2002</ele>
        <time>2026-05-15T14:23:49+02:00</time>
      </trkpt>
      <trkpt lat="47.38161" lon="5.46248">
        <ele>215</ele>
        <time>2026-05-15T14:23:50+02:00</time>
      </trkpt>
      <trkpt lat="47.38168" lon="5.46247">
        <ele>214.7002</ele>
        <time>2026-05-15T14:23:51+02:00</time>
      </trkpt>
      <trkpt lat="47.38175" lon="5.46246">
        <ele>214.5</ele>
        <time>2026-05-15T14:23:52+02:00</time>
      </trkpt>
      <trkpt lat="47.38181" lon="5.46244">
        <ele>214.2998</ele>
        <time>2026-05-15T14:23:53+02:00</time>
      </trkpt>
      <trkpt lat="47.38188" lon="5.46243">
        <ele>214.2998</ele>
        <time>2026-05-15T14:23:54+02:00</time>
      </trkpt>
      <trkpt lat="47.38195" lon="5.46242">
        <ele>214.10059</ele>
        <time>2026-05-15T14:23:55+02:00</time>
      </trkpt>
      <trkpt lat="47.38201" lon="5.46241">
        <ele>213.7998</ele>
        <time>2026-05-15T14:23:56+02:00</time>
      </trkpt>
      <trkpt lat="47.38208" lon="5.4624">
        <ele>213.2998</ele>
        <time>2026-05-15T14:23:57+02:00</time>
      </trkpt>
      <trkpt lat="47.38215" lon="5.46239">
        <ele>213.10059</ele>
        <time>2026-05-15T14:23:58+02:00</time>
      </trkpt>
      <trkpt lat="47.38221" lon="5.46238">
        <ele>212.7998</ele>
        <time>2026-05-15T14:23:59+02:00</time>
      </trkpt>
      <trkpt lat="47.38228" lon="5.46237">
        <ele>212.60059</ele>
        <time>2026-05-15T14:24:00+02:00</time>
      </trkpt>
      <trkpt lat="47.38234" lon="5.46236">
        <ele>212.5</ele>
        <time>2026-05-15T14:24:01+02:00</time>
      </trkpt>
      <trkpt lat="47.38241" lon="5.46234">
        <ele>212.5</ele>
        <time>2026-05-15T14:24:02+02:00</time>
      </trkpt>
      <trkpt lat="47.38248" lon="5.46233">
        <ele>212.5</ele>
        <time>2026-05-15T14:24:03+02:00</time>
      </trkpt>
      <trkpt lat="47.38255" lon="5.46232">
        <ele>212.5</ele>
        <time>2026-05-15T14:24:04+02:00</time>
      </trkpt>
      <trkpt lat="47.38261" lon="5.4623">
        <ele>212.5</ele>
        <time>2026-05-15T14:24:05+02:00</time>
      </trkpt>
      <trkpt lat="47.38267" lon="5.46229">
        <ele>212.60059</ele>
        <time>2026-05-15T14:24:06+02:00</time>
      </trkpt>
      <trkpt lat="47.38273" lon="5.46228">
        <ele>212.7002</ele>
        <time>2026-05-15T14:24:07+02:00</time>
      </trkpt>
      <trkpt lat="47.3828" lon="5.46227">
        <ele>212.90039</ele>
        <time>2026-05-15T14:24:08+02:00</time>
      </trkpt>
      <trkpt lat="47.38286" lon="5.46226">
        <ele>213.60059</ele>
        <time>2026-05-15T14:24:09+02:00</time>
      </trkpt>
      <trkpt lat="47.38292" lon="5.46224">
        <ele>213.7998</ele>
        <time>2026-05-15T14:24:10+02:00</time>
      </trkpt>
      <trkpt lat="47.38299" lon="5.46223">
        <ele>214</ele>
        <time>2026-05-15T14:24:11+02:00</time>
      </trkpt>
      <trkpt lat="47.38305" lon="5.46222">
        <ele>214.2002</ele>
        <time>2026-05-15T14:24:12+02:00</time>
      </trkpt>
      <trkpt lat="47.38312" lon="5.46221">
        <ele>214.5</ele>
        <time>2026-05-15T14:24:13+02:00</time>
      </trkpt>
      <trkpt lat="47.38319" lon="5.4622">
        <ele>214.90039</ele>
        <time>2026-05-15T14:24:14+02:00</time>
      </trkpt>
      <trkpt lat="47.38326" lon="5.46219">
        <ele>215.10059</ele>
        <time>2026-05-15T14:24:15+02:00</time>
      </trkpt>
      <trkpt lat="47.38333" lon="5.46218">
        <ele>215.2998</ele>
        <time>2026-05-15T14:24:16+02:00</time>
      </trkpt>
      <trkpt lat="47.3834" lon="5.46217">
        <ele>216</ele>
        <time>2026-05-15T14:24:17+02:00</time>
      </trkpt>
      <trkpt lat="47.38347" lon="5.46216">
        <ele>216.10059</ele>
        <time>2026-05-15T14:24:18+02:00</time>
      </trkpt>
      <trkpt lat="47.38354" lon="5.46215">
        <ele>216.2002</ele>
        <time>2026-05-15T14:24:19+02:00</time>
      </trkpt>
      <trkpt lat="47.38361" lon="5.46213">
        <ele>216.2002</ele>
        <time>2026-05-15T14:24:20+02:00</time>
      </trkpt>
      <trkpt lat="47.38369" lon="5.46213">
        <ele>216.2002</ele>
        <time>2026-05-15T14:24:21+02:00</time>
      </trkpt>
      <trkpt lat="47.38376" lon="5.46212">
        <ele>216.10059</ele>
        <time>2026-05-15T14:24:22+02:00</time>
      </trkpt>
      <trkpt lat="47.38383" lon="5.4621">
        <ele>215.90039</ele>
        <time>2026-05-15T14:24:23+02:00</time>
      </trkpt>
      <trkpt lat="47.3839" lon="5.46208">
        <ele>216.2998</ele>
        <time>2026-05-15T14:24:24+02:00</time>
      </trkpt>
      <trkpt lat="47.38397" lon="5.46206">
        <ele>216.2002</ele>
        <time>2026-05-15T14:24:25+02:00</time>
      </trkpt>
      <trkpt lat="47.38405" lon="5.46205">
        <ele>216.2002</ele>
        <time>2026-05-15T14:24:26+02:00</time>
      </trkpt>
      <trkpt lat="47.38412" lon="5.46203">
        <ele>216.2998</ele>
        <time>2026-05-15T14:24:27+02:00</time>
      </trkpt>
      <trkpt lat="47.38419" lon="5.462">
        <ele>216.7998</ele>
        <time>2026-05-15T14:24:28+02:00</time>
      </trkpt>
      <trkpt lat="47.38426" lon="5.46198">
        <ele>216.90039</ele>
        <time>2026-05-15T14:24:29+02:00</time>
      </trkpt>
      <trkpt lat="47.38434" lon="5.46195">
        <ele>217.10059</ele>
        <time>2026-05-15T14:24:30+02:00</time>
      </trkpt>
      <trkpt lat="47.3844" lon="5.46192">
        <ele>217.60059</ele>
        <time>2026-05-15T14:24:31+02:00</time>
      </trkpt>
      <trkpt lat="47.38447" lon="5.46189">
        <ele>218</ele>
        <time>2026-05-15T14:24:32+02:00</time>
      </trkpt>
      <trkpt lat="47.38454" lon="5.46186">
        <ele>218.10059</ele>
        <time>2026-05-15T14:24:33+02:00</time>
      </trkpt>
      <trkpt lat="47.38461" lon="5.46184">
        <ele>218.2002</ele>
        <time>2026-05-15T14:24:34+02:00</time>
      </trkpt>
      <trkpt lat="47.38468" lon="5.46181">
        <ele>218.5</ele>
        <time>2026-05-15T14:24:35+02:00</time>
      </trkpt>
      <trkpt lat="47.38474" lon="5.46179">
        <ele>218.5</ele>
        <time>2026-05-15T14:24:36+02:00</time>
      </trkpt>
      <trkpt lat="47.38481" lon="5.46176">
        <ele>218.5</ele>
        <time>2026-05-15T14:24:37+02:00</time>
      </trkpt>
      <trkpt lat="47.38487" lon="5.46173">
        <ele>218.5</ele>
        <time>2026-05-15T14:24:38+02:00</time>
      </trkpt>
      <trkpt lat="47.38493" lon="5.46171">
        <ele>218.40039</ele>
        <time>2026-05-15T14:24:39+02:00</time>
      </trkpt>
      <trkpt lat="47.385" lon="5.46168">
        <ele>218.40039</ele>
        <time>2026-05-15T14:24:40+02:00</time>
      </trkpt>
      <trkpt lat="47.38506" lon="5.46165">
        <ele>218.2998</ele>
        <time>2026-05-15T14:24:41+02:00</time>
      </trkpt>
      <trkpt lat="47.38513" lon="5.46163">
        <ele>218.2002</ele>
        <time>2026-05-15T14:24:42+02:00</time>
      </trkpt>
      <trkpt lat="47.38519" lon="5.4616">
        <ele>218.2002</ele>
        <time>2026-05-15T14:24:43+02:00</time>
      </trkpt>
      <trkpt lat="47.38526" lon="5.46158">
        <ele>218.10059</ele>
        <time>2026-05-15T14:24:44+02:00</time>
      </trkpt>
      <trkpt lat="47.38534" lon="5.46156">
        <ele>218</ele>
        <time>2026-05-15T14:24:45+02:00</time>
      </trkpt>
      <trkpt lat="47.3854" lon="5.46153">
        <ele>217.90039</ele>
        <time>2026-05-15T14:24:46+02:00</time>
      </trkpt>
      <trkpt lat="47.38547" lon="5.4615">
        <ele>217.7998</ele>
        <time>2026-05-15T14:24:47+02:00</time>
      </trkpt>
      <trkpt lat="47.38555" lon="5.46148">
        <ele>217.7002</ele>
        <time>2026-05-15T14:24:48+02:00</time>
      </trkpt>
      <trkpt lat="47.38561" lon="5.46145">
        <ele>217.60059</ele>
        <time>2026-05-15T14:24:49+02:00</time>
      </trkpt>
      <trkpt lat="47.38568" lon="5.46142">
        <ele>217.5</ele>
        <time>2026-05-15T14:24:50+02:00</time>
      </trkpt>
      <trkpt lat="47.38575" lon="5.4614">
        <ele>217.10059</ele>
        <time>2026-05-15T14:24:51+02:00</time>
      </trkpt>
      <trkpt lat="47.38582" lon="5.46137">
        <ele>217</ele>
        <time>2026-05-15T14:24:52+02:00</time>
      </trkpt>
      <trkpt lat="47.38589" lon="5.46135">
        <ele>216.7998</ele>
        <time>2026-05-15T14:24:53+02:00</time>
      </trkpt>
      <trkpt lat="47.38596" lon="5.46132">
        <ele>216.5</ele>
        <time>2026-05-15T14:24:54+02:00</time>
      </trkpt>
      <trkpt lat="47.38603" lon="5.4613">
        <ele>216.40039</ele>
        <time>2026-05-15T14:24:55+02:00</time>
      </trkpt>
      <trkpt lat="47.3861" lon="5.46127">
        <ele>216</ele>
        <time>2026-05-15T14:24:56+02:00</time>
      </trkpt>
      <trkpt lat="47.38617" lon="5.46124">
        <ele>215.90039</ele>
        <time>2026-05-15T14:24:57+02:00</time>
      </trkpt>
      <trkpt lat="47.38624" lon="5.46122">
        <ele>215.5</ele>
        <time>2026-05-15T14:24:58+02:00</time>
      </trkpt>
      <trkpt lat="47.3863" lon="5.46119">
        <ele>215.2998</ele>
        <time>2026-05-15T14:24:59+02:00</time>
      </trkpt>
      <trkpt lat="47.38638" lon="5.46117">
        <ele>215.10059</ele>
        <time>2026-05-15T14:25:00+02:00</time>
      </trkpt>
      <trkpt lat="47.38645" lon="5.46115">
        <ele>214.7998</ele>
        <time>2026-05-15T14:25:01+02:00</time>
      </trkpt>
      <trkpt lat="47.38652" lon="5.46112">
        <ele>214.2002</ele>
        <time>2026-05-15T14:25:02+02:00</time>
      </trkpt>
      <trkpt lat="47.38659" lon="5.46109">
        <ele>214</ele>
        <time>2026-05-15T14:25:03+02:00</time>
      </trkpt>
      <trkpt lat="47.38666" lon="5.46107">
        <ele>213.7998</ele>
        <time>2026-05-15T14:25:04+02:00</time>
      </trkpt>
      <trkpt lat="47.38673" lon="5.46104">
        <ele>213</ele>
        <time>2026-05-15T14:25:05+02:00</time>
      </trkpt>
      <trkpt lat="47.3868" lon="5.46102">
        <ele>212.7002</ele>
        <time>2026-05-15T14:25:06+02:00</time>
      </trkpt>
      <trkpt lat="47.38687" lon="5.46099">
        <ele>212.5</ele>
        <time>2026-05-15T14:25:07+02:00</time>
      </trkpt>
      <trkpt lat="47.38694" lon="5.46096">
        <ele>212</ele>
        <time>2026-05-15T14:25:08+02:00</time>
      </trkpt>
      <trkpt lat="47.38701" lon="5.46094">
        <ele>211.7998</ele>
        <time>2026-05-15T14:25:09+02:00</time>
      </trkpt>
      <trkpt lat="47.38708" lon="5.46091">
        <ele>211.60059</ele>
        <time>2026-05-15T14:25:10+02:00</time>
      </trkpt>
      <trkpt lat="47.38715" lon="5.46089">
        <ele>211.2002</ele>
        <time>2026-05-15T14:25:11+02:00</time>
      </trkpt>
      <trkpt lat="47.38722" lon="5.46087">
        <ele>211.2002</ele>
        <time>2026-05-15T14:25:12+02:00</time>
      </trkpt>
      <trkpt lat="47.3873" lon="5.46086">
        <ele>211.2002</ele>
        <time>2026-05-15T14:25:13+02:00</time>
      </trkpt>
      <trkpt lat="47.38737" lon="5.46087">
        <ele>211.2998</ele>
        <time>2026-05-15T14:25:14+02:00</time>
      </trkpt>
      <trkpt lat="47.38744" lon="5.4609">
        <ele>211.40039</ele>
        <time>2026-05-15T14:25:15+02:00</time>
      </trkpt>
      <trkpt lat="47.38751" lon="5.46094">
        <ele>211.40039</ele>
        <time>2026-05-15T14:25:16+02:00</time>
      </trkpt>
      <trkpt lat="47.38758" lon="5.461">
        <ele>211.2998</ele>
        <time>2026-05-15T14:25:17+02:00</time>
      </trkpt>
      <trkpt lat="47.38764" lon="5.46105">
        <ele>211.2002</ele>
        <time>2026-05-15T14:25:18+02:00</time>
      </trkpt>
      <trkpt lat="47.38771" lon="5.46111">
        <ele>211</ele>
        <time>2026-05-15T14:25:19+02:00</time>
      </trkpt>
      <trkpt lat="47.38777" lon="5.46116">
        <ele>210.7002</ele>
        <time>2026-05-15T14:25:20+02:00</time>
      </trkpt>
      <trkpt lat="47.38783" lon="5.46122">
        <ele>210.60059</ele>
        <time>2026-05-15T14:25:21+02:00</time>
      </trkpt>
      <trkpt lat="47.38789" lon="5.46127">
        <ele>210.2002</ele>
        <time>2026-05-15T14:25:22+02:00</time>
      </trkpt>
      <trkpt lat="47.38796" lon="5.46132">
        <ele>209.7998</ele>
        <time>2026-05-15T14:25:23+02:00</time>
      </trkpt>
      <trkpt lat="47.38802" lon="5.46137">
        <ele>209.10059</ele>
        <time>2026-05-15T14:25:24+02:00</time>
      </trkpt>
      <trkpt lat="47.38807" lon="5.46143">
        <ele>208.60059</ele>
        <time>2026-05-15T14:25:25+02:00</time>
      </trkpt>
      <trkpt lat="47.38814" lon="5.46148">
        <ele>208.5</ele>
        <time>2026-05-15T14:25:26+02:00</time>
      </trkpt>
      <trkpt lat="47.3882" lon="5.46152">
        <ele>208.2998</ele>
        <time>2026-05-15T14:25:27+02:00</time>
      </trkpt>
      <trkpt lat="47.38826" lon="5.46157">
        <ele>208.2998</ele>
        <time>2026-05-15T14:25:28+02:00</time>
      </trkpt>
      <trkpt lat="47.38831" lon="5.46162">
        <ele>208.2002</ele>
        <time>2026-05-15T14:25:29+02:00</time>
      </trkpt>
      <trkpt lat="47.38838" lon="5.46167">
        <ele>208.2002</ele>
        <time>2026-05-15T14:25:30+02:00</time>
      </trkpt>
      <trkpt lat="47.38844" lon="5.46172">
        <ele>208.40039</ele>
        <time>2026-05-15T14:25:31+02:00</time>
      </trkpt>
      <trkpt lat="47.3885" lon="5.46177">
        <ele>208.7002</ele>
        <time>2026-05-15T14:25:32+02:00</time>
      </trkpt>
      <trkpt lat="47.38856" lon="5.46181">
        <ele>209</ele>
        <time>2026-05-15T14:25:33+02:00</time>
      </trkpt>
      <trkpt lat="47.38862" lon="5.46185">
        <ele>209.7002</ele>
        <time>2026-05-15T14:25:34+02:00</time>
      </trkpt>
      <trkpt lat="47.38868" lon="5.46189">
        <ele>210.10059</ele>
        <time>2026-05-15T14:25:35+02:00</time>
      </trkpt>
      <trkpt lat="47.38874" lon="5.46193">
        <ele>210.90039</ele>
        <time>2026-05-15T14:25:36+02:00</time>
      </trkpt>
      <trkpt lat="47.3888" lon="5.46197">
        <ele>211.2998</ele>
        <time>2026-05-15T14:25:37+02:00</time>
      </trkpt>
      <trkpt lat="47.38887" lon="5.46201">
        <ele>212</ele>
        <time>2026-05-15T14:25:38+02:00</time>
      </trkpt>
      <trkpt lat="47.38893" lon="5.46205">
        <ele>212.2998</ele>
        <time>2026-05-15T14:25:39+02:00</time>
      </trkpt>
      <trkpt lat="47.38899" lon="5.46209">
        <ele>212.60059</ele>
        <time>2026-05-15T14:25:40+02:00</time>
      </trkpt>
      <trkpt lat="47.38905" lon="5.46214">
        <ele>213</ele>
        <time>2026-05-15T14:25:41+02:00</time>
      </trkpt>
      <trkpt lat="47.38912" lon="5.46218">
        <ele>212.90039</ele>
        <time>2026-05-15T14:25:42+02:00</time>
      </trkpt>
      <trkpt lat="47.38917" lon="5.46223">
        <ele>212.7998</ele>
        <time>2026-05-15T14:25:43+02:00</time>
      </trkpt>
      <trkpt lat="47.38923" lon="5.46228">
        <ele>212.60059</ele>
        <time>2026-05-15T14:25:44+02:00</time>
      </trkpt>
      <trkpt lat="47.38929" lon="5.46234">
        <ele>212.40039</ele>
        <time>2026-05-15T14:25:45+02:00</time>
      </trkpt>
      <trkpt lat="47.38934" lon="5.46239">
        <ele>212.5</ele>
        <time>2026-05-15T14:25:46+02:00</time>
      </trkpt>
      <trkpt lat="47.3894" lon="5.46245">
        <ele>212.2998</ele>
        <time>2026-05-15T14:25:47+02:00</time>
      </trkpt>
      <trkpt lat="47.38945" lon="5.46251">
        <ele>212.10059</ele>
        <time>2026-05-15T14:25:48+02:00</time>
      </trkpt>
      <trkpt lat="47.3895" lon="5.46257">
        <ele>211.7998</ele>
        <time>2026-05-15T14:25:49+02:00</time>
      </trkpt>
      <trkpt lat="47.38956" lon="5.46263">
        <ele>211.60059</ele>
        <time>2026-05-15T14:25:50+02:00</time>
      </trkpt>
      <trkpt lat="47.38961" lon="5.46268">
        <ele>211.2998</ele>
        <time>2026-05-15T14:25:51+02:00</time>
      </trkpt>
      <trkpt lat="47.38967" lon="5.46275">
        <ele>211.2002</ele>
        <time>2026-05-15T14:25:52+02:00</time>
      </trkpt>
      <trkpt lat="47.38972" lon="5.46281">
        <ele>211.10059</ele>
        <time>2026-05-15T14:25:53+02:00</time>
      </trkpt>
      <trkpt lat="47.38978" lon="5.46287">
        <ele>211</ele>
        <time>2026-05-15T14:25:54+02:00</time>
      </trkpt>
      <trkpt lat="47.38983" lon="5.46293">
        <ele>210.60059</ele>
        <time>2026-05-15T14:25:55+02:00</time>
      </trkpt>
      <trkpt lat="47.38988" lon="5.46298">
        <ele>210.40039</ele>
        <time>2026-05-15T14:25:56+02:00</time>
      </trkpt>
      <trkpt lat="47.38994" lon="5.46304">
        <ele>210.2998</ele>
        <time>2026-05-15T14:25:57+02:00</time>
      </trkpt>
      <trkpt lat="47.38999" lon="5.4631">
        <ele>210</ele>
        <time>2026-05-15T14:25:58+02:00</time>
      </trkpt>
      <trkpt lat="47.39005" lon="5.46316">
        <ele>210.10059</ele>
        <time>2026-05-15T14:25:59+02:00</time>
      </trkpt>
      <trkpt lat="47.39011" lon="5.46321">
        <ele>210.10059</ele>
        <time>2026-05-15T14:26:00+02:00</time>
      </trkpt>
      <trkpt lat="47.39016" lon="5.46326">
        <ele>210</ele>
        <time>2026-05-15T14:26:01+02:00</time>
      </trkpt>
      <trkpt lat="47.39022" lon="5.46331">
        <ele>210</ele>
        <time>2026-05-15T14:26:02+02:00</time>
      </trkpt>
      <trkpt lat="47.39028" lon="5.46336">
        <ele>210</ele>
        <time>2026-05-15T14:26:03+02:00</time>
      </trkpt>
      <trkpt lat="47.39034" lon="5.46341">
        <ele>210.10059</ele>
        <time>2026-05-15T14:26:04+02:00</time>
      </trkpt>
      <trkpt lat="47.3904" lon="5.46346">
        <ele>210.2002</ele>
        <time>2026-05-15T14:26:05+02:00</time>
      </trkpt>
      <trkpt lat="47.39046" lon="5.46351">
        <ele>210.2002</ele>
        <time>2026-05-15T14:26:06+02:00</time>
      </trkpt>
      <trkpt lat="47.39052" lon="5.46356">
        <ele>209.90039</ele>
        <time>2026-05-15T14:26:07+02:00</time>
      </trkpt>
      <trkpt lat="47.39058" lon="5.46361">
        <ele>209.7002</ele>
        <time>2026-05-15T14:26:08+02:00</time>
      </trkpt>
      <trkpt lat="47.39064" lon="5.46365">
        <ele>209.2998</ele>
        <time>2026-05-15T14:26:09+02:00</time>
      </trkpt>
      <trkpt lat="47.3907" lon="5.46369">
        <ele>209.2002</ele>
        <time>2026-05-15T14:26:10+02:00</time>
      </trkpt>
      <trkpt lat="47.39076" lon="5.46373">
        <ele>208.90039</ele>
        <time>2026-05-15T14:26:11+02:00</time>
      </trkpt>
      <trkpt lat="47.39082" lon="5.46377">
        <ele>208.90039</ele>
        <time>2026-05-15T14:26:12+02:00</time>
      </trkpt>
      <trkpt lat="47.39087" lon="5.46381">
        <ele>208.7998</ele>
        <time>2026-05-15T14:26:13+02:00</time>
      </trkpt>
      <trkpt lat="47.39093" lon="5.46386">
        <ele>208.7002</ele>
        <time>2026-05-15T14:26:14+02:00</time>
      </trkpt>
      <trkpt lat="47.39099" lon="5.4639">
        <ele>208.60059</ele>
        <time>2026-05-15T14:26:15+02:00</time>
      </trkpt>
      <trkpt lat="47.39104" lon="5.46395">
        <ele>208.7998</ele>
        <time>2026-05-15T14:26:16+02:00</time>
      </trkpt>
      <trkpt lat="47.3911" lon="5.464">
        <ele>208.90039</ele>
        <time>2026-05-15T14:26:17+02:00</time>
      </trkpt>
      <trkpt lat="47.39114" lon="5.46406">
        <ele>208.90039</ele>
        <time>2026-05-15T14:26:18+02:00</time>
      </trkpt>
      <trkpt lat="47.39119" lon="5.46412">
        <ele>209</ele>
        <time>2026-05-15T14:26:19+02:00</time>
      </trkpt>
      <trkpt lat="47.39123" lon="5.46419">
        <ele>209.2002</ele>
        <time>2026-05-15T14:26:20+02:00</time>
      </trkpt>
      <trkpt lat="47.39127" lon="5.46426">
        <ele>209.2998</ele>
        <time>2026-05-15T14:26:21+02:00</time>
      </trkpt>
      <trkpt lat="47.39131" lon="5.46433">
        <ele>209</ele>
        <time>2026-05-15T14:26:22+02:00</time>
      </trkpt>
      <trkpt lat="47.39135" lon="5.46441">
        <ele>209.2998</ele>
        <time>2026-05-15T14:26:23+02:00</time>
      </trkpt>
      <trkpt lat="47.39139" lon="5.46449">
        <ele>209.2998</ele>
        <time>2026-05-15T14:26:24+02:00</time>
      </trkpt>
      <trkpt lat="47.39144" lon="5.46457">
        <ele>209.2998</ele>
        <time>2026-05-15T14:26:25+02:00</time>
      </trkpt>
      <trkpt lat="47.39148" lon="5.46464">
        <ele>208.90039</ele>
        <time>2026-05-15T14:26:26+02:00</time>
      </trkpt>
      <trkpt lat="47.39152" lon="5.46472">
        <ele>208.7998</ele>
        <time>2026-05-15T14:26:27+02:00</time>
      </trkpt>
      <trkpt lat="47.39157" lon="5.46479">
        <ele>208.60059</ele>
        <time>2026-05-15T14:26:28+02:00</time>
      </trkpt>
      <trkpt lat="47.39163" lon="5.46487">
        <ele>208.5</ele>
        <time>2026-05-15T14:26:29+02:00</time>
      </trkpt>
      <trkpt lat="47.39168" lon="5.46493">
        <ele>208.2998</ele>
        <time>2026-05-15T14:26:30+02:00</time>
      </trkpt>
      <trkpt lat="47.39173" lon="5.465">
        <ele>208.7002</ele>
        <time>2026-05-15T14:26:31+02:00</time>
      </trkpt>
      <trkpt lat="47.39179" lon="5.46506">
        <ele>208.5</ele>
        <time>2026-05-15T14:26:32+02:00</time>
      </trkpt>
      <trkpt lat="47.39185" lon="5.46512">
        <ele>208.2998</ele>
        <time>2026-05-15T14:26:33+02:00</time>
      </trkpt>
      <trkpt lat="47.39191" lon="5.46518">
        <ele>208.60059</ele>
        <time>2026-05-15T14:26:34+02:00</time>
      </trkpt>
      <trkpt lat="47.39197" lon="5.46524">
        <ele>208.2998</ele>
        <time>2026-05-15T14:26:35+02:00</time>
      </trkpt>
      <trkpt lat="47.39203" lon="5.4653">
        <ele>208</ele>
        <time>2026-05-15T14:26:36+02:00</time>
      </trkpt>
      <trkpt lat="47.39209" lon="5.46537">
        <ele>207.60059</ele>
        <time>2026-05-15T14:26:37+02:00</time>
      </trkpt>
      <trkpt lat="47.39215" lon="5.46544">
        <ele>207.90039</ele>
        <time>2026-05-15T14:26:38+02:00</time>
      </trkpt>
      <trkpt lat="47.39221" lon="5.46551">
        <ele>207.60059</ele>
        <time>2026-05-15T14:26:39+02:00</time>
      </trkpt>
      <trkpt lat="47.39226" lon="5.46558">
        <ele>207.40039</ele>
        <time>2026-05-15T14:26:40+02:00</time>
      </trkpt>
      <trkpt lat="47.39232" lon="5.46565">
        <ele>207.2002</ele>
        <time>2026-05-15T14:26:41+02:00</time>
      </trkpt>
      <trkpt lat="47.39238" lon="5.46573">
        <ele>207</ele>
        <time>2026-05-15T14:26:42+02:00</time>
      </trkpt>
      <trkpt lat="47.39243" lon="5.4658">
        <ele>206.7998</ele>
        <time>2026-05-15T14:26:43+02:00</time>
      </trkpt>
      <trkpt lat="47.39248" lon="5.46587">
        <ele>206.2998</ele>
        <time>2026-05-15T14:26:44+02:00</time>
      </trkpt>
      <trkpt lat="47.39254" lon="5.46595">
        <ele>206.7002</ele>
        <time>2026-05-15T14:26:45+02:00</time>
      </trkpt>
      <trkpt lat="47.39259" lon="5.46602">
        <ele>206.2998</ele>
        <time>2026-05-15T14:26:46+02:00</time>
      </trkpt>
      <trkpt lat="47.39265" lon="5.46609">
        <ele>206.10059</ele>
        <time>2026-05-15T14:26:47+02:00</time>
      </trkpt>
      <trkpt lat="47.39271" lon="5.46616">
        <ele>206</ele>
        <time>2026-05-15T14:26:48+02:00</time>
      </trkpt>
      <trkpt lat="47.39276" lon="5.46623">
        <ele>206</ele>
        <time>2026-05-15T14:26:49+02:00</time>
      </trkpt>
      <trkpt lat="47.39281" lon="5.46629">
        <ele>206.2002</ele>
        <time>2026-05-15T14:26:50+02:00</time>
      </trkpt>
      <trkpt lat="47.39287" lon="5.46636">
        <ele>206.2998</ele>
        <time>2026-05-15T14:26:51+02:00</time>
      </trkpt>
      <trkpt lat="47.39292" lon="5.46642">
        <ele>206.2998</ele>
        <time>2026-05-15T14:26:52+02:00</time>
      </trkpt>
      <trkpt lat="47.39296" lon="5.46648">
        <ele>206.2998</ele>
        <time>2026-05-15T14:26:53+02:00</time>
      </trkpt>
      <trkpt lat="47.39302" lon="5.46654">
        <ele>206.7002</ele>
        <time>2026-05-15T14:26:54+02:00</time>
      </trkpt>
      <trkpt lat="47.39307" lon="5.4666">
        <ele>206.90039</ele>
        <time>2026-05-15T14:26:55+02:00</time>
      </trkpt>
      <trkpt lat="47.39312" lon="5.46666">
        <ele>206.7002</ele>
        <time>2026-05-15T14:26:56+02:00</time>
      </trkpt>
      <trkpt lat="47.39316" lon="5.46671">
        <ele>207.10059</ele>
        <time>2026-05-15T14:26:57+02:00</time>
      </trkpt>
      <trkpt lat="47.39321" lon="5.46676">
        <ele>207.2998</ele>
        <time>2026-05-15T14:26:58+02:00</time>
      </trkpt>
      <trkpt lat="47.39325" lon="5.46682">
        <ele>207.5</ele>
        <time>2026-05-15T14:26:59+02:00</time>
      </trkpt>
      <trkpt lat="47.3933" lon="5.46687">
        <ele>207.90039</ele>
        <time>2026-05-15T14:27:00+02:00</time>
      </trkpt>
      <trkpt lat="47.39335" lon="5.46692">
        <ele>207.7002</ele>
        <time>2026-05-15T14:27:01+02:00</time>
      </trkpt>
      <trkpt lat="47.3934" lon="5.46698">
        <ele>208.10059</ele>
        <time>2026-05-15T14:27:02+02:00</time>
      </trkpt>
      <trkpt lat="47.39344" lon="5.46703">
        <ele>208.2998</ele>
        <time>2026-05-15T14:27:03+02:00</time>
      </trkpt>
      <trkpt lat="47.39349" lon="5.46709">
        <ele>208.5</ele>
        <time>2026-05-15T14:27:04+02:00</time>
      </trkpt>
      <trkpt lat="47.39354" lon="5.46714">
        <ele>208.7998</ele>
        <time>2026-05-15T14:27:05+02:00</time>
      </trkpt>
      <trkpt lat="47.39359" lon="5.4672">
        <ele>208.90039</ele>
        <time>2026-05-15T14:27:06+02:00</time>
      </trkpt>
      <trkpt lat="47.39364" lon="5.46726">
        <ele>208.60059</ele>
        <time>2026-05-15T14:27:07+02:00</time>
      </trkpt>
      <trkpt lat="47.39369" lon="5.46732">
        <ele>208.90039</ele>
        <time>2026-05-15T14:27:08+02:00</time>
      </trkpt>
      <trkpt lat="47.39374" lon="5.46737">
        <ele>208.7998</ele>
        <time>2026-05-15T14:27:09+02:00</time>
      </trkpt>
      <trkpt lat="47.39379" lon="5.46743">
        <ele>208.7998</ele>
        <time>2026-05-15T14:27:10+02:00</time>
      </trkpt>
      <trkpt lat="47.39384" lon="5.46749">
        <ele>209</ele>
        <time>2026-05-15T14:27:11+02:00</time>
      </trkpt>
      <trkpt lat="47.3939" lon="5.46756">
        <ele>208.7002</ele>
        <time>2026-05-15T14:27:12+02:00</time>
      </trkpt>
      <trkpt lat="47.39395" lon="5.46762">
        <ele>208.40039</ele>
        <time>2026-05-15T14:27:13+02:00</time>
      </trkpt>
      <trkpt lat="47.394" lon="5.46769">
        <ele>207.90039</ele>
        <time>2026-05-15T14:27:14+02:00</time>
      </trkpt>
      <trkpt lat="47.39406" lon="5.46775">
        <ele>207.90039</ele>
        <time>2026-05-15T14:27:15+02:00</time>
      </trkpt>
      <trkpt lat="47.39412" lon="5.46782">
        <ele>207.2998</ele>
        <time>2026-05-15T14:27:16+02:00</time>
      </trkpt>
      <trkpt lat="47.39418" lon="5.4679">
        <ele>206.5</ele>
        <time>2026-05-15T14:27:17+02:00</time>
      </trkpt>
      <trkpt lat="47.39424" lon="5.46797">
        <ele>205.7998</ele>
        <time>2026-05-15T14:27:18+02:00</time>
      </trkpt>
      <trkpt lat="47.39431" lon="5.46805">
        <ele>204.90039</ele>
        <time>2026-05-15T14:27:19+02:00</time>
      </trkpt>
      <trkpt lat="47.39438" lon="5.46813">
        <ele>204.10059</ele>
        <time>2026-05-15T14:27:20+02:00</time>
      </trkpt>
      <trkpt lat="47.39444" lon="5.46821">
        <ele>203.40039</ele>
        <time>2026-05-15T14:27:21+02:00</time>
      </trkpt>
      <trkpt lat="47.39451" lon="5.46829">
        <ele>202.7002</ele>
        <time>2026-05-15T14:27:22+02:00</time>
      </trkpt>
      <trkpt lat="47.39457" lon="5.46836">
        <ele>201.90039</ele>
        <time>2026-05-15T14:27:23+02:00</time>
      </trkpt>
      <trkpt lat="47.39464" lon="5.46844">
        <ele>201.2998</ele>
        <time>2026-05-15T14:27:24+02:00</time>
      </trkpt>
      <trkpt lat="47.3947" lon="5.46852">
        <ele>200.60059</ele>
        <time>2026-05-15T14:27:25+02:00</time>
      </trkpt>
      <trkpt lat="47.39477" lon="5.46859">
        <ele>200.10059</ele>
        <time>2026-05-15T14:27:26+02:00</time>
      </trkpt>
      <trkpt lat="47.39483" lon="5.46866">
        <ele>199.7998</ele>
        <time>2026-05-15T14:27:27+02:00</time>
      </trkpt>
      <trkpt lat="47.39489" lon="5.46873">
        <ele>199.60059</ele>
        <time>2026-05-15T14:27:28+02:00</time>
      </trkpt>
      <trkpt lat="47.39494" lon="5.4688">
        <ele>199.60059</ele>
        <time>2026-05-15T14:27:29+02:00</time>
      </trkpt>
      <trkpt lat="47.39501" lon="5.46886">
        <ele>199.7002</ele>
        <time>2026-05-15T14:27:30+02:00</time>
      </trkpt>
      <trkpt lat="47.39506" lon="5.46893">
        <ele>199.7998</ele>
        <time>2026-05-15T14:27:31+02:00</time>
      </trkpt>
      <trkpt lat="47.39512" lon="5.46899">
        <ele>200</ele>
        <time>2026-05-15T14:27:32+02:00</time>
      </trkpt>
      <trkpt lat="47.39518" lon="5.46905">
        <ele>200.10059</ele>
        <time>2026-05-15T14:27:33+02:00</time>
      </trkpt>
      <trkpt lat="47.39524" lon="5.46911">
        <ele>200.2002</ele>
        <time>2026-05-15T14:27:34+02:00</time>
      </trkpt>
      <trkpt lat="47.3953" lon="5.46916">
        <ele>200.2998</ele>
        <time>2026-05-15T14:27:35+02:00</time>
      </trkpt>
      <trkpt lat="47.39536" lon="5.46921">
        <ele>200.40039</ele>
        <time>2026-05-15T14:27:36+02:00</time>
      </trkpt>
      <trkpt lat="47.39542" lon="5.46926">
        <ele>200.40039</ele>
        <time>2026-05-15T14:27:37+02:00</time>
      </trkpt>
      <trkpt lat="47.39547" lon="5.4693">
        <ele>200.5</ele>
        <time>2026-05-15T14:27:38+02:00</time>
      </trkpt>
      <trkpt lat="47.39553" lon="5.46935">
        <ele>200.60059</ele>
        <time>2026-05-15T14:27:39+02:00</time>
      </trkpt>
      <trkpt lat="47.39559" lon="5.46939">
        <ele>200.7998</ele>
        <time>2026-05-15T14:27:40+02:00</time>
      </trkpt>
      <trkpt lat="47.39564" lon="5.46943">
        <ele>201</ele>
        <time>2026-05-15T14:27:41+02:00</time>
      </trkpt>
      <trkpt lat="47.3957" lon="5.46947">
        <ele>201.2002</ele>
        <time>2026-05-15T14:27:42+02:00</time>
      </trkpt>
      <trkpt lat="47.39575" lon="5.46951">
        <ele>201.60059</ele>
        <time>2026-05-15T14:27:43+02:00</time>
      </trkpt>
      <trkpt lat="47.39581" lon="5.46956">
        <ele>201.90039</ele>
        <time>2026-05-15T14:27:44+02:00</time>
      </trkpt>
      <trkpt lat="47.39586" lon="5.4696">
        <ele>202.2998</ele>
        <time>2026-05-15T14:27:45+02:00</time>
      </trkpt>
      <trkpt lat="47.39591" lon="5.46963">
        <ele>202.2998</ele>
        <time>2026-05-15T14:27:46+02:00</time>
      </trkpt>
      <trkpt lat="47.39596" lon="5.46967">
        <ele>202.7998</ele>
        <time>2026-05-15T14:27:47+02:00</time>
      </trkpt>
      <trkpt lat="47.39601" lon="5.46971">
        <ele>203</ele>
        <time>2026-05-15T14:27:48+02:00</time>
      </trkpt>
      <trkpt lat="47.39605" lon="5.46974">
        <ele>203.40039</ele>
        <time>2026-05-15T14:27:49+02:00</time>
      </trkpt>
      <trkpt lat="47.3961" lon="5.46978">
        <ele>203.7002</ele>
        <time>2026-05-15T14:27:50+02:00</time>
      </trkpt>
      <trkpt lat="47.39615" lon="5.46982">
        <ele>204.10059</ele>
        <time>2026-05-15T14:27:51+02:00</time>
      </trkpt>
      <trkpt lat="47.39619" lon="5.46986">
        <ele>204.10059</ele>
        <time>2026-05-15T14:27:52+02:00</time>
      </trkpt>
      <trkpt lat="47.39624" lon="5.4699">
        <ele>204.2998</ele>
        <time>2026-05-15T14:27:53+02:00</time>
      </trkpt>
      <trkpt lat="47.39629" lon="5.46993">
        <ele>204.7002</ele>
        <time>2026-05-15T14:27:54+02:00</time>
      </trkpt>
      <trkpt lat="47.39634" lon="5.46996">
        <ele>204.90039</ele>
        <time>2026-05-15T14:27:55+02:00</time>
      </trkpt>
      <trkpt lat="47.39638" lon="5.47">
        <ele>205.10059</ele>
        <time>2026-05-15T14:27:56+02:00</time>
      </trkpt>
      <trkpt lat="47.39642" lon="5.47003">
        <ele>205.10059</ele>
        <time>2026-05-15T14:27:57+02:00</time>
      </trkpt>
      <trkpt lat="47.39646" lon="5.47006">
        <ele>205.2002</ele>
        <time>2026-05-15T14:27:58+02:00</time>
      </trkpt>
      <trkpt lat="47.3965" lon="5.47008">
        <ele>205.2998</ele>
        <time>2026-05-15T14:27:59+02:00</time>
      </trkpt>
      <trkpt lat="47.39654" lon="5.47012">
        <ele>205.2998</ele>
        <time>2026-05-15T14:28:00+02:00</time>
      </trkpt>
      <trkpt lat="47.39658" lon="5.47015">
        <ele>205.2998</ele>
        <time>2026-05-15T14:28:01+02:00</time>
      </trkpt>
      <trkpt lat="47.39662" lon="5.47018">
        <ele>205.2002</ele>
        <time>2026-05-15T14:28:02+02:00</time>
      </trkpt>
      <trkpt lat="47.39666" lon="5.47021">
        <ele>205.2002</ele>
        <time>2026-05-15T14:28:03+02:00</time>
      </trkpt>
      <trkpt lat="47.3967" lon="5.47023">
        <ele>205.2002</ele>
        <time>2026-05-15T14:28:04+02:00</time>
      </trkpt>
      <trkpt lat="47.39674" lon="5.47026">
        <ele>205</ele>
        <time>2026-05-15T14:28:05+02:00</time>
      </trkpt>
      <trkpt lat="47.39678" lon="5.47029">
        <ele>205</ele>
        <time>2026-05-15T14:28:06+02:00</time>
      </trkpt>
      <trkpt lat="47.39682" lon="5.47032">
        <ele>204.90039</ele>
        <time>2026-05-15T14:28:07+02:00</time>
      </trkpt>
      <trkpt lat="47.39685" lon="5.47035">
        <ele>204.7002</ele>
        <time>2026-05-15T14:28:08+02:00</time>
      </trkpt>
      <trkpt lat="47.39689" lon="5.47038">
        <ele>204.7002</ele>
        <time>2026-05-15T14:28:09+02:00</time>
      </trkpt>
      <trkpt lat="47.39692" lon="5.47041">
        <ele>204.5</ele>
        <time>2026-05-15T14:28:10+02:00</time>
      </trkpt>
      <trkpt lat="47.39695" lon="5.47043">
        <ele>204.40039</ele>
        <time>2026-05-15T14:28:11+02:00</time>
      </trkpt>
      <trkpt lat="47.39697" lon="5.47046">
        <ele>204.2998</ele>
        <time>2026-05-15T14:28:12+02:00</time>
      </trkpt>
      <trkpt lat="47.39699" lon="5.47049">
        <ele>204.2998</ele>
        <time>2026-05-15T14:28:13+02:00</time>
      </trkpt>
      <trkpt lat="47.39701" lon="5.47052">
        <ele>204.2002</ele>
        <time>2026-05-15T14:28:14+02:00</time>
      </trkpt>
      <trkpt lat="47.39703" lon="5.47054">
        <ele>204.10059</ele>
        <time>2026-05-15T14:28:15+02:00</time>
      </trkpt>
      <trkpt lat="47.39704" lon="5.47056">
        <ele>204.10059</ele>
        <time>2026-05-15T14:28:16+02:00</time>
      </trkpt>
      <trkpt lat="47.39705" lon="5.47059">
        <ele>204.10059</ele>
        <time>2026-05-15T14:28:17+02:00</time>
      </trkpt>
      <trkpt lat="47.39705" lon="5.47062">
        <ele>204</ele>
        <time>2026-05-15T14:28:18+02:00</time>
      </trkpt>
      <trkpt lat="47.39706" lon="5.47065">
        <ele>204</ele>
        <time>2026-05-15T14:28:19+02:00</time>
      </trkpt>
      <trkpt lat="47.39707" lon="5.47069">
        <ele>203.90039</ele>
        <time>2026-05-15T14:28:20+02:00</time>
      </trkpt>
      <trkpt lat="47.39706" lon="5.47072">
        <ele>204</ele>
        <time>2026-05-15T14:28:21+02:00</time>
      </trkpt>
      <trkpt lat="47.39707" lon="5.47076">
        <ele>203.90039</ele>
        <time>2026-05-15T14:28:22+02:00</time>
      </trkpt>
      <trkpt lat="47.39707" lon="5.47079">
        <ele>203.90039</ele>
        <time>2026-05-15T14:28:23+02:00</time>
      </trkpt>
      <trkpt lat="47.39707" lon="5.47083">
        <ele>203.90039</ele>
        <time>2026-05-15T14:28:24+02:00</time>
      </trkpt>
      <trkpt lat="47.39708" lon="5.47087">
        <ele>203.90039</ele>
        <time>2026-05-15T14:28:25+02:00</time>
      </trkpt>
      <trkpt lat="47.39708" lon="5.47092">
        <ele>203.90039</ele>
        <time>2026-05-15T14:28:26+02:00</time>
      </trkpt>
      <trkpt lat="47.39708" lon="5.47097">
        <ele>203.90039</ele>
        <time>2026-05-15T14:28:27+02:00</time>
      </trkpt>
      <trkpt lat="47.39708" lon="5.47102">
        <ele>203.90039</ele>
        <time>2026-05-15T14:28:28+02:00</time>
      </trkpt>
      <trkpt lat="47.39708" lon="5.47107">
        <ele>203.90039</ele>
        <time>2026-05-15T14:28:29+02:00</time>
      </trkpt>
      <trkpt lat="47.39709" lon="5.47112">
        <ele>204</ele>
        <time>2026-05-15T14:28:30+02:00</time>
      </trkpt>
      <trkpt lat="47.3971" lon="5.47116">
        <ele>204</ele>
        <time>2026-05-15T14:28:31+02:00</time>
      </trkpt>
      <trkpt lat="47.39711" lon="5.4713">
        <ele>204.10059</ele>
        <time>2026-05-15T14:28:32+02:00</time>
      </trkpt>
      <trkpt lat="47.39711" lon="5.47134">
        <ele>204.10059</ele>
        <time>2026-05-15T14:28:33+02:00</time>
      </trkpt>
      <trkpt lat="47.39711" lon="5.47137">
        <ele>204.2002</ele>
        <time>2026-05-15T14:28:34+02:00</time>
      </trkpt>
      <trkpt lat="47.39711" lon="5.4714">
        <ele>204.2002</ele>
        <time>2026-05-15T14:28:35+02:00</time>
      </trkpt>
      <trkpt lat="47.39711" lon="5.47142">
        <ele>204.2002</ele>
        <time>2026-05-15T14:28:36+02:00</time>
      </trkpt>
      <trkpt lat="47.39711" lon="5.47144">
        <ele>204.2002</ele>
        <time>2026-05-15T14:28:37+02:00</time>
      </trkpt>
      <trkpt lat="47.39711" lon="5.47144">
        <ele>204.2002</ele>
        <time>2026-05-15T14:28:38+02:00</time>
      </trkpt>
      <trkpt lat="47.39711" lon="5.47144">
        <ele>204.2002</ele>
        <time>2026-05-15T14:28:39+02:00</time>
      </trkpt>
      <trkpt lat="47.39711" lon="5.47144">
        <ele>204.2002</ele>
        <time>2026-05-15T14:28:40+02:00</time>
      </trkpt>
      <trkpt lat="47.39711" lon="5.47144">
        <ele>204.2002</ele>
        <time>2026-05-15T14:34:08+02:00</time>
      </trkpt>
      <trkpt lat="47.39711" lon="5.47144">
        <ele>204.2002</ele>
        <time>2026-05-15T14:34:09+02:00</time>
      </trkpt>
      <trkpt lat="47.39711" lon="5.47144">
        <ele>204.2002</ele>
        <time>2026-05-15T14:34:10+02:00</time>
      </trkpt>
      <trkpt lat="47.39711" lon="5.47144">
        <ele>204.2002</ele>
        <time>2026-05-15T14:34:11+02:00</time>
      </trkpt>
      <trkpt lat="47.39711" lon="5.47144">
        <ele>204.2002</ele>
        <time>2026-05-15T14:34:12+02:00</time>
      </trkpt>
      <trkpt lat="47.39711" lon="5.47144">
        <ele>204.2002</ele>
        <time>2026-05-15T14:34:13+02:00</time>
      </trkpt>
      <trkpt lat="47.39711" lon="5.47144">
        <ele>204.2002</ele>
        <time>2026-05-15T14:34:14+02:00</time>
      </trkpt>
      <trkpt lat="47.39711" lon="5.47144">
        <ele>204.2002</ele>
        <time>2026-05-15T14:34:15+02:00</time>
      </trkpt>
      <trkpt lat="47.39711" lon="5.47144">
        <ele>204.2002</ele>
        <time>2026-05-15T14:34:16+02:00</time>
      </trkpt>
      <trkpt lat="47.39711" lon="5.47144">
        <ele>204.2002</ele>
        <time>2026-05-15T14:34:17+02:00</time>
      </trkpt>
      <trkpt lat="47.39711" lon="5.47144">
        <ele>204.2002</ele>
        <time>2026-05-15T14:34:18+02:00</time>
      </trkpt>
      <trkpt lat="47.39713" lon="5.47158">
        <ele>204.40039</ele>
        <time>2026-05-15T14:34:19+02:00</time>
      </trkpt>
      <trkpt lat="47.39714" lon="5.47161">
        <ele>204.2998</ele>
        <time>2026-05-15T14:34:20+02:00</time>
      </trkpt>
      <trkpt lat="47.39715" lon="5.47165">
        <ele>204.40039</ele>
        <time>2026-05-15T14:34:21+02:00</time>
      </trkpt>
      <trkpt lat="47.39715" lon="5.47169">
        <ele>204.40039</ele>
        <time>2026-05-15T14:34:22+02:00</time>
      </trkpt>
      <trkpt lat="47.39715" lon="5.47173">
        <ele>204.60059</ele>
        <time>2026-05-15T14:34:23+02:00</time>
      </trkpt>
      <trkpt lat="47.39715" lon="5.47178">
        <ele>204.60059</ele>
        <time>2026-05-15T14:34:24+02:00</time>
      </trkpt>
      <trkpt lat="47.39715" lon="5.47183">
        <ele>204.7998</ele>
        <time>2026-05-15T14:34:25+02:00</time>
      </trkpt>
      <trkpt lat="47.39716" lon="5.47188">
        <ele>205</ele>
        <time>2026-05-15T14:34:26+02:00</time>
      </trkpt>
      <trkpt lat="47.39716" lon="5.47194">
        <ele>205</ele>
        <time>2026-05-15T14:34:27+02:00</time>
      </trkpt>
      <trkpt lat="47.39716" lon="5.472">
        <ele>205.2002</ele>
        <time>2026-05-15T14:34:28+02:00</time>
      </trkpt>
      <trkpt lat="47.39717" lon="5.47205">
        <ele>205.40039</ele>
        <time>2026-05-15T14:34:29+02:00</time>
      </trkpt>
      <trkpt lat="47.39718" lon="5.47211">
        <ele>205.40039</ele>
        <time>2026-05-15T14:34:30+02:00</time>
      </trkpt>
      <trkpt lat="47.39718" lon="5.47217">
        <ele>205.5</ele>
        <time>2026-05-15T14:34:31+02:00</time>
      </trkpt>
      <trkpt lat="47.39718" lon="5.47223">
        <ele>205.7002</ele>
        <time>2026-05-15T14:34:32+02:00</time>
      </trkpt>
      <trkpt lat="47.39718" lon="5.47229">
        <ele>205.7002</ele>
        <time>2026-05-15T14:34:33+02:00</time>
      </trkpt>
      <trkpt lat="47.39719" lon="5.47235">
        <ele>205.7002</ele>
        <time>2026-05-15T14:34:34+02:00</time>
      </trkpt>
      <trkpt lat="47.39719" lon="5.47241">
        <ele>205.7002</ele>
        <time>2026-05-15T14:34:35+02:00</time>
      </trkpt>
      <trkpt lat="47.3972" lon="5.47247">
        <ele>205.7002</ele>
        <time>2026-05-15T14:34:36+02:00</time>
      </trkpt>
      <trkpt lat="47.3972" lon="5.47254">
        <ele>205.7998</ele>
        <time>2026-05-15T14:34:37+02:00</time>
      </trkpt>
      <trkpt lat="47.39721" lon="5.4726">
        <ele>205.7002</ele>
        <time>2026-05-15T14:34:38+02:00</time>
      </trkpt>
      <trkpt lat="47.39721" lon="5.47267">
        <ele>205.60059</ele>
        <time>2026-05-15T14:34:39+02:00</time>
      </trkpt>
      <trkpt lat="47.39721" lon="5.47273">
        <ele>205.60059</ele>
        <time>2026-05-15T14:34:40+02:00</time>
      </trkpt>
      <trkpt lat="47.39721" lon="5.4728">
        <ele>205.40039</ele>
        <time>2026-05-15T14:34:41+02:00</time>
      </trkpt>
      <trkpt lat="47.39722" lon="5.47287">
        <ele>205.2998</ele>
        <time>2026-05-15T14:34:42+02:00</time>
      </trkpt>
      <trkpt lat="47.39723" lon="5.47294">
        <ele>205.10059</ele>
        <time>2026-05-15T14:34:43+02:00</time>
      </trkpt>
      <trkpt lat="47.39723" lon="5.47301">
        <ele>204.90039</ele>
        <time>2026-05-15T14:34:44+02:00</time>
      </trkpt>
      <trkpt lat="47.39724" lon="5.47308">
        <ele>204.7998</ele>
        <time>2026-05-15T14:34:45+02:00</time>
      </trkpt>
      <trkpt lat="47.39724" lon="5.47316">
        <ele>204.7998</ele>
        <time>2026-05-15T14:34:46+02:00</time>
      </trkpt>
      <trkpt lat="47.39724" lon="5.47323">
        <ele>204.60059</ele>
        <time>2026-05-15T14:34:47+02:00</time>
      </trkpt>
      <trkpt lat="47.39725" lon="5.47331">
        <ele>204.2998</ele>
        <time>2026-05-15T14:34:48+02:00</time>
      </trkpt>
      <trkpt lat="47.39725" lon="5.47339">
        <ele>204.2002</ele>
        <time>2026-05-15T14:34:49+02:00</time>
      </trkpt>
      <trkpt lat="47.39726" lon="5.47347">
        <ele>204</ele>
        <time>2026-05-15T14:34:50+02:00</time>
      </trkpt>
      <trkpt lat="47.39726" lon="5.47355">
        <ele>203.90039</ele>
        <time>2026-05-15T14:34:51+02:00</time>
      </trkpt>
      <trkpt lat="47.39726" lon="5.47363">
        <ele>203.7002</ele>
        <time>2026-05-15T14:34:52+02:00</time>
      </trkpt>
      <trkpt lat="47.39727" lon="5.47372">
        <ele>203.60059</ele>
        <time>2026-05-15T14:34:53+02:00</time>
      </trkpt>
      <trkpt lat="47.39727" lon="5.47381">
        <ele>203.5</ele>
        <time>2026-05-15T14:34:54+02:00</time>
      </trkpt>
      <trkpt lat="47.39728" lon="5.47389">
        <ele>203.40039</ele>
        <time>2026-05-15T14:34:55+02:00</time>
      </trkpt>
      <trkpt lat="47.39728" lon="5.47398">
        <ele>203.2002</ele>
        <time>2026-05-15T14:34:56+02:00</time>
      </trkpt>
      <trkpt lat="47.39729" lon="5.47407">
        <ele>203.10059</ele>
        <time>2026-05-15T14:34:57+02:00</time>
      </trkpt>
      <trkpt lat="47.39729" lon="5.47415">
        <ele>203</ele>
        <time>2026-05-15T14:34:58+02:00</time>
      </trkpt>
      <trkpt lat="47.39729" lon="5.47424">
        <ele>202.90039</ele>
        <time>2026-05-15T14:34:59+02:00</time>
      </trkpt>
      <trkpt lat="47.39729" lon="5.47433">
        <ele>202.7002</ele>
        <time>2026-05-15T14:35:00+02:00</time>
      </trkpt>
      <trkpt lat="47.3973" lon="5.47441">
        <ele>202.60059</ele>
        <time>2026-05-15T14:35:01+02:00</time>
      </trkpt>
      <trkpt lat="47.39731" lon="5.4745">
        <ele>202.60059</ele>
        <time>2026-05-15T14:35:02+02:00</time>
      </trkpt>
      <trkpt lat="47.39731" lon="5.47459">
        <ele>202.40039</ele>
        <time>2026-05-15T14:35:03+02:00</time>
      </trkpt>
      <trkpt lat="47.39732" lon="5.47468">
        <ele>202.2998</ele>
        <time>2026-05-15T14:35:04+02:00</time>
      </trkpt>
      <trkpt lat="47.39732" lon="5.47477">
        <ele>202.2002</ele>
        <time>2026-05-15T14:35:05+02:00</time>
      </trkpt>
      <trkpt lat="47.39733" lon="5.47486">
        <ele>202</ele>
        <time>2026-05-15T14:35:06+02:00</time>
      </trkpt>
      <trkpt lat="47.39734" lon="5.47496">
        <ele>201.90039</ele>
        <time>2026-05-15T14:35:07+02:00</time>
      </trkpt>
      <trkpt lat="47.39735" lon="5.47505">
        <ele>201.7998</ele>
        <time>2026-05-15T14:35:08+02:00</time>
      </trkpt>
      <trkpt lat="47.39736" lon="5.47515">
        <ele>201.7002</ele>
        <time>2026-05-15T14:35:09+02:00</time>
      </trkpt>
      <trkpt lat="47.39737" lon="5.47524">
        <ele>201.60059</ele>
        <time>2026-05-15T14:35:10+02:00</time>
      </trkpt>
      <trkpt lat="47.39737" lon="5.47534">
        <ele>201.5</ele>
        <time>2026-05-15T14:35:11+02:00</time>
      </trkpt>
      <trkpt lat="47.39739" lon="5.47544">
        <ele>201.2998</ele>
        <time>2026-05-15T14:35:12+02:00</time>
      </trkpt>
      <trkpt lat="47.39739" lon="5.47553">
        <ele>201.2002</ele>
        <time>2026-05-15T14:35:13+02:00</time>
      </trkpt>
      <trkpt lat="47.3974" lon="5.47563">
        <ele>201</ele>
        <time>2026-05-15T14:35:14+02:00</time>
      </trkpt>
      <trkpt lat="47.39741" lon="5.47573">
        <ele>200.7998</ele>
        <time>2026-05-15T14:35:15+02:00</time>
      </trkpt>
      <trkpt lat="47.39742" lon="5.47582">
        <ele>200.60059</ele>
        <time>2026-05-15T14:35:16+02:00</time>
      </trkpt>
      <trkpt lat="47.39743" lon="5.47592">
        <ele>200.2998</ele>
        <time>2026-05-15T14:35:17+02:00</time>
      </trkpt>
      <trkpt lat="47.39744" lon="5.47602">
        <ele>200</ele>
        <time>2026-05-15T14:35:18+02:00</time>
      </trkpt>
      <trkpt lat="47.39745" lon="5.47612">
        <ele>199.7002</ele>
        <time>2026-05-15T14:35:19+02:00</time>
      </trkpt>
      <trkpt lat="47.39746" lon="5.47622">
        <ele>199.5</ele>
        <time>2026-05-15T14:35:20+02:00</time>
      </trkpt>
      <trkpt lat="47.39747" lon="5.47633">
        <ele>199.2002</ele>
        <time>2026-05-15T14:35:21+02:00</time>
      </trkpt>
      <trkpt lat="47.39748" lon="5.47644">
        <ele>199</ele>
        <time>2026-05-15T14:35:22+02:00</time>
      </trkpt>
      <trkpt lat="47.39749" lon="5.47654">
        <ele>198.7998</ele>
        <time>2026-05-15T14:35:23+02:00</time>
      </trkpt>
      <trkpt lat="47.39749" lon="5.47664">
        <ele>198.60059</ele>
        <time>2026-05-15T14:35:24+02:00</time>
      </trkpt>
      <trkpt lat="47.39749" lon="5.47673">
        <ele>198.2998</ele>
        <time>2026-05-15T14:35:25+02:00</time>
      </trkpt>
      <trkpt lat="47.39749" lon="5.47682">
        <ele>198.10059</ele>
        <time>2026-05-15T14:35:26+02:00</time>
      </trkpt>
      <trkpt lat="47.39748" lon="5.47692">
        <ele>197.7998</ele>
        <time>2026-05-15T14:35:27+02:00</time>
      </trkpt>
      <trkpt lat="47.39747" lon="5.47701">
        <ele>197.40039</ele>
        <time>2026-05-15T14:35:28+02:00</time>
      </trkpt>
      <trkpt lat="47.39746" lon="5.47711">
        <ele>197.2002</ele>
        <time>2026-05-15T14:35:29+02:00</time>
      </trkpt>
      <trkpt lat="47.39745" lon="5.4772">
        <ele>196.7998</ele>
        <time>2026-05-15T14:35:30+02:00</time>
      </trkpt>
      <trkpt lat="47.39743" lon="5.47731">
        <ele>196.5</ele>
        <time>2026-05-15T14:35:31+02:00</time>
      </trkpt>
      <trkpt lat="47.39742" lon="5.47741">
        <ele>196</ele>
        <time>2026-05-15T14:35:32+02:00</time>
      </trkpt>
      <trkpt lat="47.39739" lon="5.4775">
        <ele>195.7998</ele>
        <time>2026-05-15T14:35:33+02:00</time>
      </trkpt>
      <trkpt lat="47.39737" lon="5.4776">
        <ele>195.5</ele>
        <time>2026-05-15T14:35:34+02:00</time>
      </trkpt>
      <trkpt lat="47.39734" lon="5.4777">
        <ele>195.10059</ele>
        <time>2026-05-15T14:35:35+02:00</time>
      </trkpt>
      <trkpt lat="47.39732" lon="5.4778">
        <ele>194.90039</ele>
        <time>2026-05-15T14:35:36+02:00</time>
      </trkpt>
      <trkpt lat="47.39729" lon="5.47791">
        <ele>194.40039</ele>
        <time>2026-05-15T14:35:37+02:00</time>
      </trkpt>
      <trkpt lat="47.39727" lon="5.47801">
        <ele>194.2998</ele>
        <time>2026-05-15T14:35:38+02:00</time>
      </trkpt>
      <trkpt lat="47.39724" lon="5.47811">
        <ele>194</ele>
        <time>2026-05-15T14:35:39+02:00</time>
      </trkpt>
      <trkpt lat="47.39722" lon="5.47821">
        <ele>194</ele>
        <time>2026-05-15T14:35:40+02:00</time>
      </trkpt>
      <trkpt lat="47.3972" lon="5.4783">
        <ele>194</ele>
        <time>2026-05-15T14:35:41+02:00</time>
      </trkpt>
      <trkpt lat="47.39718" lon="5.4784">
        <ele>194.2002</ele>
        <time>2026-05-15T14:35:42+02:00</time>
      </trkpt>
      <trkpt lat="47.39716" lon="5.4785">
        <ele>194.7002</ele>
        <time>2026-05-15T14:35:43+02:00</time>
      </trkpt>
      <trkpt lat="47.39716" lon="5.4786">
        <ele>194.90039</ele>
        <time>2026-05-15T14:35:44+02:00</time>
      </trkpt>
      <trkpt lat="47.39717" lon="5.4787">
        <ele>195.2002</ele>
        <time>2026-05-15T14:35:45+02:00</time>
      </trkpt>
      <trkpt lat="47.39718" lon="5.47879">
        <ele>195.5</ele>
        <time>2026-05-15T14:35:46+02:00</time>
      </trkpt>
      <trkpt lat="47.3972" lon="5.47888">
        <ele>195.90039</ele>
        <time>2026-05-15T14:35:47+02:00</time>
      </trkpt>
      <trkpt lat="47.3972" lon="5.47896">
        <ele>196.2998</ele>
        <time>2026-05-15T14:35:48+02:00</time>
      </trkpt>
      <trkpt lat="47.39719" lon="5.47904">
        <ele>196.60059</ele>
        <time>2026-05-15T14:35:49+02:00</time>
      </trkpt>
      <trkpt lat="47.39717" lon="5.47911">
        <ele>196.7998</ele>
        <time>2026-05-15T14:35:50+02:00</time>
      </trkpt>
      <trkpt lat="47.39714" lon="5.47917">
        <ele>196.7998</ele>
        <time>2026-05-15T14:35:51+02:00</time>
      </trkpt>
      <trkpt lat="47.39712" lon="5.47922">
        <ele>197</ele>
        <time>2026-05-15T14:35:52+02:00</time>
      </trkpt>
      <trkpt lat="47.39709" lon="5.47928">
        <ele>197.2998</ele>
        <time>2026-05-15T14:35:53+02:00</time>
      </trkpt>
      <trkpt lat="47.39707" lon="5.47933">
        <ele>197.2998</ele>
        <time>2026-05-15T14:35:54+02:00</time>
      </trkpt>
      <trkpt lat="47.39704" lon="5.47939">
        <ele>197.5</ele>
        <time>2026-05-15T14:35:55+02:00</time>
      </trkpt>
      <trkpt lat="47.39702" lon="5.47945">
        <ele>197.90039</ele>
        <time>2026-05-15T14:35:56+02:00</time>
      </trkpt>
      <trkpt lat="47.397" lon="5.47952">
        <ele>198.2002</ele>
        <time>2026-05-15T14:35:57+02:00</time>
      </trkpt>
      <trkpt lat="47.39697" lon="5.47959">
        <ele>198.2002</ele>
        <time>2026-05-15T14:35:58+02:00</time>
      </trkpt>
      <trkpt lat="47.39695" lon="5.47966">
        <ele>198.40039</ele>
        <time>2026-05-15T14:35:59+02:00</time>
      </trkpt>
      <trkpt lat="47.39693" lon="5.47972">
        <ele>198.7002</ele>
        <time>2026-05-15T14:36:00+02:00</time>
      </trkpt>
      <trkpt lat="47.3969" lon="5.47979">
        <ele>199.10059</ele>
        <time>2026-05-15T14:36:01+02:00</time>
      </trkpt>
      <trkpt lat="47.39688" lon="5.47985">
        <ele>199</ele>
        <time>2026-05-15T14:36:02+02:00</time>
      </trkpt>
      <trkpt lat="47.39685" lon="5.47991">
        <ele>199.2998</ele>
        <time>2026-05-15T14:36:03+02:00</time>
      </trkpt>
      <trkpt lat="47.39683" lon="5.47998">
        <ele>199.5</ele>
        <time>2026-05-15T14:36:04+02:00</time>
      </trkpt>
      <trkpt lat="47.3968" lon="5.48004">
        <ele>199.90039</ele>
        <time>2026-05-15T14:36:05+02:00</time>
      </trkpt>
      <trkpt lat="47.39678" lon="5.48011">
        <ele>199.7002</ele>
        <time>2026-05-15T14:36:06+02:00</time>
      </trkpt>
      <trkpt lat="47.39675" lon="5.48018">
        <ele>200</ele>
        <time>2026-05-15T14:36:07+02:00</time>
      </trkpt>
      <trkpt lat="47.39673" lon="5.48025">
        <ele>200.2998</ele>
        <time>2026-05-15T14:36:08+02:00</time>
      </trkpt>
      <trkpt lat="47.39671" lon="5.48032">
        <ele>200.40039</ele>
        <time>2026-05-15T14:36:09+02:00</time>
      </trkpt>
      <trkpt lat="47.3967" lon="5.48039">
        <ele>200.60059</ele>
        <time>2026-05-15T14:36:10+02:00</time>
      </trkpt>
      <trkpt lat="47.39668" lon="5.48047">
        <ele>200.7002</ele>
        <time>2026-05-15T14:36:11+02:00</time>
      </trkpt>
      <trkpt lat="47.39667" lon="5.48054">
        <ele>200.7002</ele>
        <time>2026-05-15T14:36:12+02:00</time>
      </trkpt>
      <trkpt lat="47.39666" lon="5.48061">
        <ele>200.7002</ele>
        <time>2026-05-15T14:36:13+02:00</time>
      </trkpt>
      <trkpt lat="47.39665" lon="5.48067">
        <ele>200.7998</ele>
        <time>2026-05-15T14:36:14+02:00</time>
      </trkpt>
      <trkpt lat="47.39664" lon="5.48074">
        <ele>201</ele>
        <time>2026-05-15T14:36:15+02:00</time>
      </trkpt>
      <trkpt lat="47.39663" lon="5.48081">
        <ele>201.10059</ele>
        <time>2026-05-15T14:36:16+02:00</time>
      </trkpt>
      <trkpt lat="47.39663" lon="5.48088">
        <ele>201.10059</ele>
        <time>2026-05-15T14:36:17+02:00</time>
      </trkpt>
      <trkpt lat="47.39662" lon="5.48095">
        <ele>201.2002</ele>
        <time>2026-05-15T14:36:18+02:00</time>
      </trkpt>
      <trkpt lat="47.39661" lon="5.48101">
        <ele>201.2998</ele>
        <time>2026-05-15T14:36:19+02:00</time>
      </trkpt>
      <trkpt lat="47.3966" lon="5.48108">
        <ele>201.2002</ele>
        <time>2026-05-15T14:36:20+02:00</time>
      </trkpt>
      <trkpt lat="47.3966" lon="5.48115">
        <ele>201.2998</ele>
        <time>2026-05-15T14:36:21+02:00</time>
      </trkpt>
      <trkpt lat="47.39659" lon="5.48122">
        <ele>201.2998</ele>
        <time>2026-05-15T14:36:22+02:00</time>
      </trkpt>
      <trkpt lat="47.39659" lon="5.48129">
        <ele>201.40039</ele>
        <time>2026-05-15T14:36:23+02:00</time>
      </trkpt>
      <trkpt lat="47.39658" lon="5.48135">
        <ele>201.5</ele>
        <time>2026-05-15T14:36:24+02:00</time>
      </trkpt>
      <trkpt lat="47.39658" lon="5.48142">
        <ele>201.60059</ele>
        <time>2026-05-15T14:36:25+02:00</time>
      </trkpt>
      <trkpt lat="47.39657" lon="5.48148">
        <ele>201.60059</ele>
        <time>2026-05-15T14:36:26+02:00</time>
      </trkpt>
      <trkpt lat="47.39656" lon="5.48155">
        <ele>201.7998</ele>
        <time>2026-05-15T14:36:27+02:00</time>
      </trkpt>
      <trkpt lat="47.39655" lon="5.48162">
        <ele>202</ele>
        <time>2026-05-15T14:36:28+02:00</time>
      </trkpt>
      <trkpt lat="47.39655" lon="5.48168">
        <ele>202.2998</ele>
        <time>2026-05-15T14:36:29+02:00</time>
      </trkpt>
      <trkpt lat="47.39654" lon="5.48175">
        <ele>202.7002</ele>
        <time>2026-05-15T14:36:30+02:00</time>
      </trkpt>
      <trkpt lat="47.39653" lon="5.48181">
        <ele>202.7002</ele>
        <time>2026-05-15T14:36:31+02:00</time>
      </trkpt>
      <trkpt lat="47.39652" lon="5.48188">
        <ele>203</ele>
        <time>2026-05-15T14:36:32+02:00</time>
      </trkpt>
      <trkpt lat="47.39651" lon="5.48194">
        <ele>203.2998</ele>
        <time>2026-05-15T14:36:33+02:00</time>
      </trkpt>
      <trkpt lat="47.3965" lon="5.482">
        <ele>203.2998</ele>
        <time>2026-05-15T14:36:34+02:00</time>
      </trkpt>
      <trkpt lat="47.3965" lon="5.48206">
        <ele>203.7002</ele>
        <time>2026-05-15T14:36:35+02:00</time>
      </trkpt>
      <trkpt lat="47.39649" lon="5.48213">
        <ele>204.10059</ele>
        <time>2026-05-15T14:36:36+02:00</time>
      </trkpt>
      <trkpt lat="47.39649" lon="5.4822">
        <ele>204.40039</ele>
        <time>2026-05-15T14:36:37+02:00</time>
      </trkpt>
      <trkpt lat="47.39649" lon="5.48226">
        <ele>204.40039</ele>
        <time>2026-05-15T14:36:38+02:00</time>
      </trkpt>
      <trkpt lat="47.39649" lon="5.48233">
        <ele>204.7998</ele>
        <time>2026-05-15T14:36:39+02:00</time>
      </trkpt>
      <trkpt lat="47.39649" lon="5.4824">
        <ele>205.10059</ele>
        <time>2026-05-15T14:36:40+02:00</time>
      </trkpt>
      <trkpt lat="47.3965" lon="5.48247">
        <ele>205.2998</ele>
        <time>2026-05-15T14:36:41+02:00</time>
      </trkpt>
      <trkpt lat="47.3965" lon="5.48253">
        <ele>205.5</ele>
        <time>2026-05-15T14:36:42+02:00</time>
      </trkpt>
      <trkpt lat="47.39651" lon="5.4826">
        <ele>205.5</ele>
        <time>2026-05-15T14:36:43+02:00</time>
      </trkpt>
      <trkpt lat="47.39652" lon="5.48266">
        <ele>205.7998</ele>
        <time>2026-05-15T14:36:44+02:00</time>
      </trkpt>
      <trkpt lat="47.39653" lon="5.48272">
        <ele>206</ele>
        <time>2026-05-15T14:36:45+02:00</time>
      </trkpt>
      <trkpt lat="47.39654" lon="5.48278">
        <ele>206.2002</ele>
        <time>2026-05-15T14:36:46+02:00</time>
      </trkpt>
      <trkpt lat="47.39655" lon="5.48285">
        <ele>206.10059</ele>
        <time>2026-05-15T14:36:47+02:00</time>
      </trkpt>
      <trkpt lat="47.39656" lon="5.48291">
        <ele>206.2002</ele>
        <time>2026-05-15T14:36:48+02:00</time>
      </trkpt>
      <trkpt lat="47.39657" lon="5.48298">
        <ele>206.40039</ele>
        <time>2026-05-15T14:36:49+02:00</time>
      </trkpt>
      <trkpt lat="47.39658" lon="5.48304">
        <ele>206.5</ele>
        <time>2026-05-15T14:36:50+02:00</time>
      </trkpt>
      <trkpt lat="47.3966" lon="5.4831">
        <ele>206.5</ele>
        <time>2026-05-15T14:36:51+02:00</time>
      </trkpt>
      <trkpt lat="47.39661" lon="5.48315">
        <ele>206.2998</ele>
        <time>2026-05-15T14:36:52+02:00</time>
      </trkpt>
      <trkpt lat="47.39662" lon="5.48321">
        <ele>206.2998</ele>
        <time>2026-05-15T14:36:53+02:00</time>
      </trkpt>
      <trkpt lat="47.39663" lon="5.48327">
        <ele>206.2998</ele>
        <time>2026-05-15T14:36:54+02:00</time>
      </trkpt>
      <trkpt lat="47.39664" lon="5.48332">
        <ele>206.2998</ele>
        <time>2026-05-15T14:36:55+02:00</time>
      </trkpt>
      <trkpt lat="47.39665" lon="5.48338">
        <ele>206.2998</ele>
        <time>2026-05-15T14:36:56+02:00</time>
      </trkpt>
      <trkpt lat="47.39666" lon="5.48344">
        <ele>206.2998</ele>
        <time>2026-05-15T14:36:57+02:00</time>
      </trkpt>
      <trkpt lat="47.39668" lon="5.4835">
        <ele>206</ele>
        <time>2026-05-15T14:36:58+02:00</time>
      </trkpt>
      <trkpt lat="47.39669" lon="5.48356">
        <ele>205.90039</ele>
        <time>2026-05-15T14:36:59+02:00</time>
      </trkpt>
      <trkpt lat="47.3967" lon="5.48363">
        <ele>205.90039</ele>
        <time>2026-05-15T14:37:00+02:00</time>
      </trkpt>
      <trkpt lat="47.39671" lon="5.48369">
        <ele>205.7998</ele>
        <time>2026-05-15T14:37:01+02:00</time>
      </trkpt>
      <trkpt lat="47.39673" lon="5.48376">
        <ele>205.5</ele>
        <time>2026-05-15T14:37:02+02:00</time>
      </trkpt>
      <trkpt lat="47.39674" lon="5.48382">
        <ele>205.40039</ele>
        <time>2026-05-15T14:37:03+02:00</time>
      </trkpt>
      <trkpt lat="47.39675" lon="5.48389">
        <ele>205.40039</ele>
        <time>2026-05-15T14:37:04+02:00</time>
      </trkpt>
      <trkpt lat="47.39675" lon="5.48395">
        <ele>205.2998</ele>
        <time>2026-05-15T14:37:05+02:00</time>
      </trkpt>
      <trkpt lat="47.39676" lon="5.48402">
        <ele>205.2002</ele>
        <time>2026-05-15T14:37:06+02:00</time>
      </trkpt>
      <trkpt lat="47.39677" lon="5.48409">
        <ele>205.10059</ele>
        <time>2026-05-15T14:37:07+02:00</time>
      </trkpt>
      <trkpt lat="47.39678" lon="5.48415">
        <ele>205.10059</ele>
        <time>2026-05-15T14:37:08+02:00</time>
      </trkpt>
      <trkpt lat="47.39678" lon="5.48422">
        <ele>205</ele>
        <time>2026-05-15T14:37:09+02:00</time>
      </trkpt>
      <trkpt lat="47.39679" lon="5.48429">
        <ele>204.7998</ele>
        <time>2026-05-15T14:37:10+02:00</time>
      </trkpt>
      <trkpt lat="47.39679" lon="5.48436">
        <ele>204.7998</ele>
        <time>2026-05-15T14:37:11+02:00</time>
      </trkpt>
      <trkpt lat="47.3968" lon="5.48443">
        <ele>204.7998</ele>
        <time>2026-05-15T14:37:12+02:00</time>
      </trkpt>
      <trkpt lat="47.3968" lon="5.4845">
        <ele>204.7998</ele>
        <time>2026-05-15T14:37:13+02:00</time>
      </trkpt>
      <trkpt lat="47.39681" lon="5.48457">
        <ele>204.7998</ele>
        <time>2026-05-15T14:37:14+02:00</time>
      </trkpt>
      <trkpt lat="47.39681" lon="5.48464">
        <ele>204.7998</ele>
        <time>2026-05-15T14:37:15+02:00</time>
      </trkpt>
      <trkpt lat="47.39682" lon="5.48471">
        <ele>204.7998</ele>
        <time>2026-05-15T14:37:16+02:00</time>
      </trkpt>
      <trkpt lat="47.39682" lon="5.48478">
        <ele>204.7998</ele>
        <time>2026-05-15T14:37:17+02:00</time>
      </trkpt>
      <trkpt lat="47.39682" lon="5.48486">
        <ele>204.7998</ele>
        <time>2026-05-15T14:37:18+02:00</time>
      </trkpt>
      <trkpt lat="47.39683" lon="5.48493">
        <ele>204.7998</ele>
        <time>2026-05-15T14:37:19+02:00</time>
      </trkpt>
      <trkpt lat="47.39683" lon="5.48501">
        <ele>204.7998</ele>
        <time>2026-05-15T14:37:20+02:00</time>
      </trkpt>
      <trkpt lat="47.39683" lon="5.48508">
        <ele>204.7998</ele>
        <time>2026-05-15T14:37:21+02:00</time>
      </trkpt>
      <trkpt lat="47.39684" lon="5.48515">
        <ele>204.60059</ele>
        <time>2026-05-15T14:37:22+02:00</time>
      </trkpt>
      <trkpt lat="47.39684" lon="5.48522">
        <ele>204.60059</ele>
        <time>2026-05-15T14:37:23+02:00</time>
      </trkpt>
      <trkpt lat="47.39685" lon="5.48529">
        <ele>204.60059</ele>
        <time>2026-05-15T14:37:24+02:00</time>
      </trkpt>
      <trkpt lat="47.39686" lon="5.48535">
        <ele>204.60059</ele>
        <time>2026-05-15T14:37:25+02:00</time>
      </trkpt>
      <trkpt lat="47.39686" lon="5.48542">
        <ele>204.60059</ele>
        <time>2026-05-15T14:37:26+02:00</time>
      </trkpt>
      <trkpt lat="47.39686" lon="5.48548">
        <ele>204.60059</ele>
        <time>2026-05-15T14:37:27+02:00</time>
      </trkpt>
      <trkpt lat="47.39687" lon="5.48554">
        <ele>204.60059</ele>
        <time>2026-05-15T14:37:28+02:00</time>
      </trkpt>
      <trkpt lat="47.39687" lon="5.4856">
        <ele>204.60059</ele>
        <time>2026-05-15T14:37:29+02:00</time>
      </trkpt>
      <trkpt lat="47.39687" lon="5.48567">
        <ele>204.60059</ele>
        <time>2026-05-15T14:37:30+02:00</time>
      </trkpt>
      <trkpt lat="47.39688" lon="5.48573">
        <ele>204.60059</ele>
        <time>2026-05-15T14:37:31+02:00</time>
      </trkpt>
      <trkpt lat="47.39688" lon="5.4858">
        <ele>204.60059</ele>
        <time>2026-05-15T14:37:32+02:00</time>
      </trkpt>
      <trkpt lat="47.39689" lon="5.48586">
        <ele>204.60059</ele>
        <time>2026-05-15T14:37:33+02:00</time>
      </trkpt>
      <trkpt lat="47.39689" lon="5.48593">
        <ele>204.60059</ele>
        <time>2026-05-15T14:37:34+02:00</time>
      </trkpt>
      <trkpt lat="47.3969" lon="5.48601">
        <ele>204.60059</ele>
        <time>2026-05-15T14:37:35+02:00</time>
      </trkpt>
      <trkpt lat="47.39691" lon="5.48608">
        <ele>204.60059</ele>
        <time>2026-05-15T14:37:36+02:00</time>
      </trkpt>
      <trkpt lat="47.39691" lon="5.48615">
        <ele>204.60059</ele>
        <time>2026-05-15T14:37:37+02:00</time>
      </trkpt>
      <trkpt lat="47.39692" lon="5.48622">
        <ele>204.60059</ele>
        <time>2026-05-15T14:37:38+02:00</time>
      </trkpt>
      <trkpt lat="47.39692" lon="5.48629">
        <ele>204.60059</ele>
        <time>2026-05-15T14:37:39+02:00</time>
      </trkpt>
      <trkpt lat="47.39693" lon="5.48636">
        <ele>204.60059</ele>
        <time>2026-05-15T14:37:40+02:00</time>
      </trkpt>
      <trkpt lat="47.39694" lon="5.48643">
        <ele>204.60059</ele>
        <time>2026-05-15T14:37:41+02:00</time>
      </trkpt>
      <trkpt lat="47.39694" lon="5.4865">
        <ele>204.60059</ele>
        <time>2026-05-15T14:37:42+02:00</time>
      </trkpt>
      <trkpt lat="47.39695" lon="5.48657">
        <ele>204.60059</ele>
        <time>2026-05-15T14:37:43+02:00</time>
      </trkpt>
      <trkpt lat="47.39695" lon="5.48664">
        <ele>204.60059</ele>
        <time>2026-05-15T14:37:44+02:00</time>
      </trkpt>
      <trkpt lat="47.39696" lon="5.48671">
        <ele>204.7002</ele>
        <time>2026-05-15T14:37:45+02:00</time>
      </trkpt>
      <trkpt lat="47.39696" lon="5.48678">
        <ele>204.7002</ele>
        <time>2026-05-15T14:37:46+02:00</time>
      </trkpt>
      <trkpt lat="47.39696" lon="5.48686">
        <ele>204.7002</ele>
        <time>2026-05-15T14:37:47+02:00</time>
      </trkpt>
      <trkpt lat="47.39697" lon="5.48693">
        <ele>204.7002</ele>
        <time>2026-05-15T14:37:48+02:00</time>
      </trkpt>
      <trkpt lat="47.39697" lon="5.487">
        <ele>204.7002</ele>
        <time>2026-05-15T14:37:49+02:00</time>
      </trkpt>
      <trkpt lat="47.39698" lon="5.48708">
        <ele>204.7002</ele>
        <time>2026-05-15T14:37:50+02:00</time>
      </trkpt>
      <trkpt lat="47.39699" lon="5.48715">
        <ele>204.7002</ele>
        <time>2026-05-15T14:37:51+02:00</time>
      </trkpt>
      <trkpt lat="47.39699" lon="5.48722">
        <ele>204.7002</ele>
        <time>2026-05-15T14:37:52+02:00</time>
      </trkpt>
      <trkpt lat="47.397" lon="5.48729">
        <ele>204.7002</ele>
        <time>2026-05-15T14:37:53+02:00</time>
      </trkpt>
      <trkpt lat="47.397" lon="5.48736">
        <ele>204.60059</ele>
        <time>2026-05-15T14:37:54+02:00</time>
      </trkpt>
      <trkpt lat="47.39701" lon="5.48743">
        <ele>204.60059</ele>
        <time>2026-05-15T14:37:55+02:00</time>
      </trkpt>
      <trkpt lat="47.39702" lon="5.4875">
        <ele>204.60059</ele>
        <time>2026-05-15T14:37:56+02:00</time>
      </trkpt>
      <trkpt lat="47.39702" lon="5.48756">
        <ele>204.60059</ele>
        <time>2026-05-15T14:37:57+02:00</time>
      </trkpt>
      <trkpt lat="47.39702" lon="5.48763">
        <ele>204.5</ele>
        <time>2026-05-15T14:37:58+02:00</time>
      </trkpt>
      <trkpt lat="47.39703" lon="5.4877">
        <ele>204.40039</ele>
        <time>2026-05-15T14:37:59+02:00</time>
      </trkpt>
      <trkpt lat="47.39703" lon="5.48777">
        <ele>204.2998</ele>
        <time>2026-05-15T14:38:00+02:00</time>
      </trkpt>
      <trkpt lat="47.39704" lon="5.48785">
        <ele>204.2002</ele>
        <time>2026-05-15T14:38:01+02:00</time>
      </trkpt>
      <trkpt lat="47.39704" lon="5.48792">
        <ele>204.2002</ele>
        <time>2026-05-15T14:38:02+02:00</time>
      </trkpt>
      <trkpt lat="47.39705" lon="5.48799">
        <ele>204.2002</ele>
        <time>2026-05-15T14:38:03+02:00</time>
      </trkpt>
      <trkpt lat="47.39705" lon="5.48806">
        <ele>204.10059</ele>
        <time>2026-05-15T14:38:04+02:00</time>
      </trkpt>
      <trkpt lat="47.39706" lon="5.48813">
        <ele>204</ele>
        <time>2026-05-15T14:38:05+02:00</time>
      </trkpt>
      <trkpt lat="47.39707" lon="5.4882">
        <ele>203.90039</ele>
        <time>2026-05-15T14:38:06+02:00</time>
      </trkpt>
      <trkpt lat="47.39707" lon="5.48827">
        <ele>203.90039</ele>
        <time>2026-05-15T14:38:07+02:00</time>
      </trkpt>
      <trkpt lat="47.39707" lon="5.48834">
        <ele>203.7998</ele>
        <time>2026-05-15T14:38:08+02:00</time>
      </trkpt>
      <trkpt lat="47.39708" lon="5.48841">
        <ele>203.7998</ele>
        <time>2026-05-15T14:38:09+02:00</time>
      </trkpt>
      <trkpt lat="47.39708" lon="5.48847">
        <ele>203.7998</ele>
        <time>2026-05-15T14:38:10+02:00</time>
      </trkpt>
      <trkpt lat="47.39709" lon="5.48854">
        <ele>203.90039</ele>
        <time>2026-05-15T14:38:11+02:00</time>
      </trkpt>
      <trkpt lat="47.39709" lon="5.48861">
        <ele>203.90039</ele>
        <time>2026-05-15T14:38:12+02:00</time>
      </trkpt>
      <trkpt lat="47.3971" lon="5.48867">
        <ele>203.90039</ele>
        <time>2026-05-15T14:38:13+02:00</time>
      </trkpt>
      <trkpt lat="47.3971" lon="5.48874">
        <ele>204</ele>
        <time>2026-05-15T14:38:14+02:00</time>
      </trkpt>
      <trkpt lat="47.39711" lon="5.48881">
        <ele>204.10059</ele>
        <time>2026-05-15T14:38:15+02:00</time>
      </trkpt>
      <trkpt lat="47.39711" lon="5.48887">
        <ele>204.10059</ele>
        <time>2026-05-15T14:38:16+02:00</time>
      </trkpt>
      <trkpt lat="47.39712" lon="5.48894">
        <ele>204.10059</ele>
        <time>2026-05-15T14:38:17+02:00</time>
      </trkpt>
      <trkpt lat="47.39712" lon="5.48901">
        <ele>204.2002</ele>
        <time>2026-05-15T14:38:18+02:00</time>
      </trkpt>
      <trkpt lat="47.39712" lon="5.48909">
        <ele>204.2002</ele>
        <time>2026-05-15T14:38:19+02:00</time>
      </trkpt>
      <trkpt lat="47.39712" lon="5.48916">
        <ele>204.2002</ele>
        <time>2026-05-15T14:38:20+02:00</time>
      </trkpt>
      <trkpt lat="47.39713" lon="5.48923">
        <ele>204.2998</ele>
        <time>2026-05-15T14:38:21+02:00</time>
      </trkpt>
      <trkpt lat="47.39713" lon="5.4893">
        <ele>204.2998</ele>
        <time>2026-05-15T14:38:22+02:00</time>
      </trkpt>
      <trkpt lat="47.39713" lon="5.48938">
        <ele>204.2998</ele>
        <time>2026-05-15T14:38:23+02:00</time>
      </trkpt>
      <trkpt lat="47.39713" lon="5.48945">
        <ele>204.2998</ele>
        <time>2026-05-15T14:38:24+02:00</time>
      </trkpt>
      <trkpt lat="47.39713" lon="5.48953">
        <ele>204.2998</ele>
        <time>2026-05-15T14:38:25+02:00</time>
      </trkpt>
      <trkpt lat="47.39714" lon="5.4896">
        <ele>204.40039</ele>
        <time>2026-05-15T14:38:26+02:00</time>
      </trkpt>
      <trkpt lat="47.39714" lon="5.48968">
        <ele>204.40039</ele>
        <time>2026-05-15T14:38:27+02:00</time>
      </trkpt>
      <trkpt lat="47.39714" lon="5.48976">
        <ele>204.40039</ele>
        <time>2026-05-15T14:38:28+02:00</time>
      </trkpt>
      <trkpt lat="47.39713" lon="5.48984">
        <ele>204.2998</ele>
        <time>2026-05-15T14:38:29+02:00</time>
      </trkpt>
      <trkpt lat="47.39713" lon="5.48992">
        <ele>204.10059</ele>
        <time>2026-05-15T14:38:30+02:00</time>
      </trkpt>
      <trkpt lat="47.39713" lon="5.49">
        <ele>203.90039</ele>
        <time>2026-05-15T14:38:31+02:00</time>
      </trkpt>
      <trkpt lat="47.39713" lon="5.49008">
        <ele>203.7002</ele>
        <time>2026-05-15T14:38:32+02:00</time>
      </trkpt>
      <trkpt lat="47.39712" lon="5.49016">
        <ele>203.7002</ele>
        <time>2026-05-15T14:38:33+02:00</time>
      </trkpt>
      <trkpt lat="47.39712" lon="5.49024">
        <ele>203.5</ele>
        <time>2026-05-15T14:38:34+02:00</time>
      </trkpt>
      <trkpt lat="47.39712" lon="5.49033">
        <ele>203.2002</ele>
        <time>2026-05-15T14:38:35+02:00</time>
      </trkpt>
      <trkpt lat="47.39712" lon="5.49041">
        <ele>203</ele>
        <time>2026-05-15T14:38:36+02:00</time>
      </trkpt>
      <trkpt lat="47.39711" lon="5.4905">
        <ele>202.7998</ele>
        <time>2026-05-15T14:38:37+02:00</time>
      </trkpt>
      <trkpt lat="47.39711" lon="5.49058">
        <ele>202.5</ele>
        <time>2026-05-15T14:38:38+02:00</time>
      </trkpt>
      <trkpt lat="47.39711" lon="5.49067">
        <ele>202.2998</ele>
        <time>2026-05-15T14:38:39+02:00</time>
      </trkpt>
      <trkpt lat="47.39711" lon="5.49075">
        <ele>202.10059</ele>
        <time>2026-05-15T14:38:40+02:00</time>
      </trkpt>
      <trkpt lat="47.39711" lon="5.49084">
        <ele>202</ele>
        <time>2026-05-15T14:38:41+02:00</time>
      </trkpt>
      <trkpt lat="47.39712" lon="5.49093">
        <ele>201.90039</ele>
        <time>2026-05-15T14:38:42+02:00</time>
      </trkpt>
      <trkpt lat="47.39712" lon="5.49102">
        <ele>201.7002</ele>
        <time>2026-05-15T14:38:43+02:00</time>
      </trkpt>
      <trkpt lat="47.39713" lon="5.4911">
        <ele>201.7002</ele>
        <time>2026-05-15T14:38:44+02:00</time>
      </trkpt>
      <trkpt lat="47.39713" lon="5.49119">
        <ele>201.60059</ele>
        <time>2026-05-15T14:38:45+02:00</time>
      </trkpt>
      <trkpt lat="47.39714" lon="5.49128">
        <ele>201.60059</ele>
        <time>2026-05-15T14:38:46+02:00</time>
      </trkpt>
      <trkpt lat="47.39715" lon="5.49137">
        <ele>201.60059</ele>
        <time>2026-05-15T14:38:47+02:00</time>
      </trkpt>
      <trkpt lat="47.39716" lon="5.49146">
        <ele>201.60059</ele>
        <time>2026-05-15T14:38:48+02:00</time>
      </trkpt>
      <trkpt lat="47.39716" lon="5.49155">
        <ele>201.5</ele>
        <time>2026-05-15T14:38:49+02:00</time>
      </trkpt>
      <trkpt lat="47.39717" lon="5.49164">
        <ele>201.40039</ele>
        <time>2026-05-15T14:38:50+02:00</time>
      </trkpt>
      <trkpt lat="47.39718" lon="5.49173">
        <ele>201.2998</ele>
        <time>2026-05-15T14:38:51+02:00</time>
      </trkpt>
      <trkpt lat="47.39719" lon="5.49182">
        <ele>201.40039</ele>
        <time>2026-05-15T14:38:52+02:00</time>
      </trkpt>
      <trkpt lat="47.39719" lon="5.49191">
        <ele>201.2998</ele>
        <time>2026-05-15T14:38:53+02:00</time>
      </trkpt>
      <trkpt lat="47.3972" lon="5.492">
        <ele>201.2002</ele>
        <time>2026-05-15T14:38:54+02:00</time>
      </trkpt>
      <trkpt lat="47.3972" lon="5.49209">
        <ele>201.10059</ele>
        <time>2026-05-15T14:38:55+02:00</time>
      </trkpt>
      <trkpt lat="47.3972" lon="5.49218">
        <ele>200.90039</ele>
        <time>2026-05-15T14:38:56+02:00</time>
      </trkpt>
      <trkpt lat="47.3972" lon="5.49227">
        <ele>200.7998</ele>
        <time>2026-05-15T14:38:57+02:00</time>
      </trkpt>
      <trkpt lat="47.39721" lon="5.49236">
        <ele>200.60059</ele>
        <time>2026-05-15T14:38:58+02:00</time>
      </trkpt>
      <trkpt lat="47.39721" lon="5.49244">
        <ele>200.5</ele>
        <time>2026-05-15T14:38:59+02:00</time>
      </trkpt>
      <trkpt lat="47.39721" lon="5.49253">
        <ele>200.2002</ele>
        <time>2026-05-15T14:39:00+02:00</time>
      </trkpt>
      <trkpt lat="47.39721" lon="5.49262">
        <ele>200</ele>
        <time>2026-05-15T14:39:01+02:00</time>
      </trkpt>
      <trkpt lat="47.3972" lon="5.4927">
        <ele>199.7002</ele>
        <time>2026-05-15T14:39:02+02:00</time>
      </trkpt>
      <trkpt lat="47.3972" lon="5.49279">
        <ele>199.5</ele>
        <time>2026-05-15T14:39:03+02:00</time>
      </trkpt>
      <trkpt lat="47.3972" lon="5.49287">
        <ele>199.2002</ele>
        <time>2026-05-15T14:39:04+02:00</time>
      </trkpt>
      <trkpt lat="47.3972" lon="5.49296">
        <ele>198.90039</ele>
        <time>2026-05-15T14:39:05+02:00</time>
      </trkpt>
      <trkpt lat="47.3972" lon="5.49304">
        <ele>198.60059</ele>
        <time>2026-05-15T14:39:06+02:00</time>
      </trkpt>
      <trkpt lat="47.39719" lon="5.49313">
        <ele>198.2998</ele>
        <time>2026-05-15T14:39:07+02:00</time>
      </trkpt>
      <trkpt lat="47.39719" lon="5.49321">
        <ele>198.10059</ele>
        <time>2026-05-15T14:39:08+02:00</time>
      </trkpt>
      <trkpt lat="47.39718" lon="5.4933">
        <ele>197.7002</ele>
        <time>2026-05-15T14:39:09+02:00</time>
      </trkpt>
      <trkpt lat="47.39718" lon="5.49339">
        <ele>197.5</ele>
        <time>2026-05-15T14:39:10+02:00</time>
      </trkpt>
      <trkpt lat="47.39718" lon="5.49348">
        <ele>197.2998</ele>
        <time>2026-05-15T14:39:11+02:00</time>
      </trkpt>
      <trkpt lat="47.39717" lon="5.49357">
        <ele>197.10059</ele>
        <time>2026-05-15T14:39:12+02:00</time>
      </trkpt>
      <trkpt lat="47.39717" lon="5.49366">
        <ele>197</ele>
        <time>2026-05-15T14:39:13+02:00</time>
      </trkpt>
      <trkpt lat="47.39716" lon="5.49375">
        <ele>196.90039</ele>
        <time>2026-05-15T14:39:14+02:00</time>
      </trkpt>
      <trkpt lat="47.39716" lon="5.49383">
        <ele>196.7002</ele>
        <time>2026-05-15T14:39:15+02:00</time>
      </trkpt>
      <trkpt lat="47.39716" lon="5.49392">
        <ele>196.60059</ele>
        <time>2026-05-15T14:39:16+02:00</time>
      </trkpt>
      <trkpt lat="47.39715" lon="5.49401">
        <ele>196.5</ele>
        <time>2026-05-15T14:39:17+02:00</time>
      </trkpt>
      <trkpt lat="47.39715" lon="5.4941">
        <ele>196.2998</ele>
        <time>2026-05-15T14:39:18+02:00</time>
      </trkpt>
      <trkpt lat="47.39715" lon="5.49419">
        <ele>196.2002</ele>
        <time>2026-05-15T14:39:19+02:00</time>
      </trkpt>
      <trkpt lat="47.39715" lon="5.49428">
        <ele>195.7998</ele>
        <time>2026-05-15T14:39:20+02:00</time>
      </trkpt>
      <trkpt lat="47.39714" lon="5.49438">
        <ele>195.7002</ele>
        <time>2026-05-15T14:39:21+02:00</time>
      </trkpt>
      <trkpt lat="47.39714" lon="5.49448">
        <ele>195.5</ele>
        <time>2026-05-15T14:39:22+02:00</time>
      </trkpt>
      <trkpt lat="47.39713" lon="5.49458">
        <ele>195.40039</ele>
        <time>2026-05-15T14:39:23+02:00</time>
      </trkpt>
      <trkpt lat="47.39713" lon="5.49469">
        <ele>195.2002</ele>
        <time>2026-05-15T14:39:24+02:00</time>
      </trkpt>
      <trkpt lat="47.39714" lon="5.49479">
        <ele>195</ele>
        <time>2026-05-15T14:39:25+02:00</time>
      </trkpt>
      <trkpt lat="47.39713" lon="5.4949">
        <ele>194.7998</ele>
        <time>2026-05-15T14:39:26+02:00</time>
      </trkpt>
      <trkpt lat="47.39714" lon="5.49501">
        <ele>194.60059</ele>
        <time>2026-05-15T14:39:27+02:00</time>
      </trkpt>
      <trkpt lat="47.39714" lon="5.49512">
        <ele>194.5</ele>
        <time>2026-05-15T14:39:28+02:00</time>
      </trkpt>
      <trkpt lat="47.39714" lon="5.49523">
        <ele>194.2002</ele>
        <time>2026-05-15T14:39:29+02:00</time>
      </trkpt>
      <trkpt lat="47.39715" lon="5.49534">
        <ele>194.10059</ele>
        <time>2026-05-15T14:39:30+02:00</time>
      </trkpt>
      <trkpt lat="47.39715" lon="5.49545">
        <ele>194</ele>
        <time>2026-05-15T14:39:31+02:00</time>
      </trkpt>
      <trkpt lat="47.39716" lon="5.49556">
        <ele>193.90039</ele>
        <time>2026-05-15T14:39:32+02:00</time>
      </trkpt>
      <trkpt lat="47.39716" lon="5.49566">
        <ele>193.7998</ele>
        <time>2026-05-15T14:39:33+02:00</time>
      </trkpt>
      <trkpt lat="47.39716" lon="5.49576">
        <ele>193.7998</ele>
        <time>2026-05-15T14:39:34+02:00</time>
      </trkpt>
      <trkpt lat="47.39717" lon="5.49586">
        <ele>193.5</ele>
        <time>2026-05-15T14:39:35+02:00</time>
      </trkpt>
      <trkpt lat="47.39717" lon="5.49595">
        <ele>192.7002</ele>
        <time>2026-05-15T14:39:36+02:00</time>
      </trkpt>
      <trkpt lat="47.39717" lon="5.49604">
        <ele>191.60059</ele>
        <time>2026-05-15T14:39:37+02:00</time>
      </trkpt>
      <trkpt lat="47.39717" lon="5.49613">
        <ele>190.40039</ele>
        <time>2026-05-15T14:39:38+02:00</time>
      </trkpt>
      <trkpt lat="47.39716" lon="5.49622">
        <ele>189.2998</ele>
        <time>2026-05-15T14:39:39+02:00</time>
      </trkpt>
      <trkpt lat="47.39716" lon="5.49632">
        <ele>188.2002</ele>
        <time>2026-05-15T14:39:40+02:00</time>
      </trkpt>
      <trkpt lat="47.39715" lon="5.4964">
        <ele>187.10059</ele>
        <time>2026-05-15T14:39:41+02:00</time>
      </trkpt>
      <trkpt lat="47.39714" lon="5.49648">
        <ele>186.10059</ele>
        <time>2026-05-15T14:39:42+02:00</time>
      </trkpt>
      <trkpt lat="47.39713" lon="5.49654">
        <ele>184.7002</ele>
        <time>2026-05-15T14:39:43+02:00</time>
      </trkpt>
      <trkpt lat="47.39711" lon="5.49661">
        <ele>184.40039</ele>
        <time>2026-05-15T14:39:44+02:00</time>
      </trkpt>
      <trkpt lat="47.3971" lon="5.49667">
        <ele>184.40039</ele>
        <time>2026-05-15T14:39:45+02:00</time>
      </trkpt>
      <trkpt lat="47.39709" lon="5.49672">
        <ele>184.2998</ele>
        <time>2026-05-15T14:39:46+02:00</time>
      </trkpt>
      <trkpt lat="47.39708" lon="5.49677">
        <ele>184.40039</ele>
        <time>2026-05-15T14:39:47+02:00</time>
      </trkpt>
      <trkpt lat="47.39708" lon="5.4968">
        <ele>184.40039</ele>
        <time>2026-05-15T14:39:48+02:00</time>
      </trkpt>
      <trkpt lat="47.39709" lon="5.49683">
        <ele>184.40039</ele>
        <time>2026-05-15T14:39:49+02:00</time>
      </trkpt>
      <trkpt lat="47.3971" lon="5.49686">
        <ele>184.40039</ele>
        <time>2026-05-15T14:39:50+02:00</time>
      </trkpt>
      <trkpt lat="47.39711" lon="5.49687">
        <ele>184.40039</ele>
        <time>2026-05-15T14:39:51+02:00</time>
      </trkpt>
      <trkpt lat="47.39711" lon="5.49689">
        <ele>184.40039</ele>
        <time>2026-05-15T14:39:52+02:00</time>
      </trkpt>
      <trkpt lat="47.39711" lon="5.49689">
        <ele>184.40039</ele>
        <time>2026-05-15T14:39:53+02:00</time>
      </trkpt>
      <trkpt lat="47.39711" lon="5.49689">
        <ele>184.40039</ele>
        <time>2026-05-15T14:39:54+02:00</time>
      </trkpt>
      <trkpt lat="47.39711" lon="5.49689">
        <ele>184.40039</ele>
        <time>2026-05-15T14:39:55+02:00</time>
      </trkpt>
      <trkpt lat="47.39697" lon="5.49685">
        <ele>184.2998</ele>
        <time>2026-05-15T14:40:14+02:00</time>
      </trkpt>
      <trkpt lat="47.39695" lon="5.49683">
        <ele>184.2998</ele>
        <time>2026-05-15T14:40:15+02:00</time>
      </trkpt>
      <trkpt lat="47.39693" lon="5.49682">
        <ele>184.2998</ele>
        <time>2026-05-15T14:40:16+02:00</time>
      </trkpt>
      <trkpt lat="47.39691" lon="5.49681">
        <ele>184.2998</ele>
        <time>2026-05-15T14:40:17+02:00</time>
      </trkpt>
      <trkpt lat="47.39688" lon="5.4968">
        <ele>184.2998</ele>
        <time>2026-05-15T14:40:18+02:00</time>
      </trkpt>
      <trkpt lat="47.39686" lon="5.4968">
        <ele>184.2998</ele>
        <time>2026-05-15T14:40:19+02:00</time>
      </trkpt>
      <trkpt lat="47.39684" lon="5.49679">
        <ele>184.2998</ele>
        <time>2026-05-15T14:40:20+02:00</time>
      </trkpt>
      <trkpt lat="47.39683" lon="5.49678">
        <ele>184.2998</ele>
        <time>2026-05-15T14:40:21+02:00</time>
      </trkpt>
      <trkpt lat="47.3968" lon="5.49678">
        <ele>184.2998</ele>
        <time>2026-05-15T14:40:22+02:00</time>
      </trkpt>
      <trkpt lat="47.39678" lon="5.49678">
        <ele>184.2998</ele>
        <time>2026-05-15T14:40:23+02:00</time>
      </trkpt>
      <trkpt lat="47.39676" lon="5.49677">
        <ele>184.2998</ele>
        <time>2026-05-15T14:40:24+02:00</time>
      </trkpt>
      <trkpt lat="47.39674" lon="5.49677">
        <ele>184.2998</ele>
        <time>2026-05-15T14:40:25+02:00</time>
      </trkpt>
      <trkpt lat="47.39671" lon="5.49676">
        <ele>184.2002</ele>
        <time>2026-05-15T14:40:26+02:00</time>
      </trkpt>
      <trkpt lat="47.39669" lon="5.49675">
        <ele>184.2002</ele>
        <time>2026-05-15T14:40:27+02:00</time>
      </trkpt>
      <trkpt lat="47.39666" lon="5.49675">
        <ele>184.2002</ele>
        <time>2026-05-15T14:40:28+02:00</time>
      </trkpt>
      <trkpt lat="47.39664" lon="5.49674">
        <ele>184.2002</ele>
        <time>2026-05-15T14:40:29+02:00</time>
      </trkpt>
      <trkpt lat="47.39662" lon="5.49675">
        <ele>184.2002</ele>
        <time>2026-05-15T14:40:30+02:00</time>
      </trkpt>
      <trkpt lat="47.3966" lon="5.49675">
        <ele>184.2002</ele>
        <time>2026-05-15T14:40:31+02:00</time>
      </trkpt>
      <trkpt lat="47.39658" lon="5.49675">
        <ele>184.2002</ele>
        <time>2026-05-15T14:40:32+02:00</time>
      </trkpt>
      <trkpt lat="47.39657" lon="5.49675">
        <ele>184.2002</ele>
        <time>2026-05-15T14:40:33+02:00</time>
      </trkpt>
      <trkpt lat="47.39655" lon="5.49675">
        <ele>184.2002</ele>
        <time>2026-05-15T14:40:34+02:00</time>
      </trkpt>
      <trkpt lat="47.39654" lon="5.49675">
        <ele>184.2002</ele>
        <time>2026-05-15T14:40:35+02:00</time>
      </trkpt>
      <trkpt lat="47.39652" lon="5.49676">
        <ele>184.2002</ele>
        <time>2026-05-15T14:40:36+02:00</time>
      </trkpt>
      <trkpt lat="47.3965" lon="5.49676">
        <ele>184.2002</ele>
        <time>2026-05-15T14:40:37+02:00</time>
      </trkpt>
      <trkpt lat="47.39649" lon="5.49676">
        <ele>184.2002</ele>
        <time>2026-05-15T14:40:38+02:00</time>
      </trkpt>
      <trkpt lat="47.39647" lon="5.49676">
        <ele>184.2002</ele>
        <time>2026-05-15T14:40:39+02:00</time>
      </trkpt>
      <trkpt lat="47.39646" lon="5.49675">
        <ele>184.2002</ele>
        <time>2026-05-15T14:40:40+02:00</time>
      </trkpt>
      <trkpt lat="47.39645" lon="5.49674">
        <ele>184.2002</ele>
        <time>2026-05-15T14:40:41+02:00</time>
      </trkpt>
      <trkpt lat="47.39644" lon="5.49674">
        <ele>184.2002</ele>
        <time>2026-05-15T14:40:42+02:00</time>
      </trkpt>
      <trkpt lat="47.39644" lon="5.49674">
        <ele>184.2002</ele>
        <time>2026-05-15T14:40:43+02:00</time>
      </trkpt>
      <trkpt lat="47.39644" lon="5.49674">
        <ele>184.2002</ele>
        <time>2026-05-15T14:40:44+02:00</time>
      </trkpt>
      <trkpt lat="47.39634" lon="5.49672">
        <ele>184.2002</ele>
        <time>2026-05-15T15:05:24+02:00</time>
      </trkpt>
      <trkpt lat="47.39635" lon="5.49673">
        <ele>184.2002</ele>
        <time>2026-05-15T15:05:25+02:00</time>
      </trkpt>
      <trkpt lat="47.39636" lon="5.49673">
        <ele>184.2002</ele>
        <time>2026-05-15T15:05:26+02:00</time>
      </trkpt>
      <trkpt lat="47.39638" lon="5.49673">
        <ele>184.2002</ele>
        <time>2026-05-15T15:05:27+02:00</time>
      </trkpt>
      <trkpt lat="47.39639" lon="5.49673">
        <ele>184.2002</ele>
        <time>2026-05-15T15:05:28+02:00</time>
      </trkpt>
      <trkpt lat="47.39644" lon="5.49676">
        <ele>184.2002</ele>
        <time>2026-05-15T15:05:31+02:00</time>
      </trkpt>
      <trkpt lat="47.39646" lon="5.49676">
        <ele>184.2002</ele>
        <time>2026-05-15T15:05:32+02:00</time>
      </trkpt>
      <trkpt lat="47.39646" lon="5.49677">
        <ele>184.2998</ele>
        <time>2026-05-15T15:05:33+02:00</time>
      </trkpt>
      <trkpt lat="47.39647" lon="5.49677">
        <ele>184.2998</ele>
        <time>2026-05-15T15:05:34+02:00</time>
      </trkpt>
      <trkpt lat="47.39647" lon="5.49677">
        <ele>184.2998</ele>
        <time>2026-05-15T15:05:35+02:00</time>
      </trkpt>
      <trkpt lat="47.39647" lon="5.49677">
        <ele>184.2998</ele>
        <time>2026-05-15T15:05:36+02:00</time>
      </trkpt>
      <trkpt lat="47.3966" lon="5.49679">
        <ele>184.2998</ele>
        <time>2026-05-15T15:06:05+02:00</time>
      </trkpt>
      <trkpt lat="47.39663" lon="5.49679">
        <ele>184.2998</ele>
        <time>2026-05-15T15:06:06+02:00</time>
      </trkpt>
      <trkpt lat="47.39666" lon="5.49679">
        <ele>184.2998</ele>
        <time>2026-05-15T15:06:07+02:00</time>
      </trkpt>
      <trkpt lat="47.39669" lon="5.4968">
        <ele>184.2998</ele>
        <time>2026-05-15T15:06:08+02:00</time>
      </trkpt>
      <trkpt lat="47.39672" lon="5.4968">
        <ele>184.2998</ele>
        <time>2026-05-15T15:06:09+02:00</time>
      </trkpt>
      <trkpt lat="47.39675" lon="5.49682">
        <ele>184.2998</ele>
        <time>2026-05-15T15:06:10+02:00</time>
      </trkpt>
      <trkpt lat="47.39678" lon="5.49683">
        <ele>184.2998</ele>
        <time>2026-05-15T15:06:11+02:00</time>
      </trkpt>
      <trkpt lat="47.39682" lon="5.49684">
        <ele>184.2998</ele>
        <time>2026-05-15T15:06:12+02:00</time>
      </trkpt>
      <trkpt lat="47.39685" lon="5.49685">
        <ele>184.2998</ele>
        <time>2026-05-15T15:06:13+02:00</time>
      </trkpt>
      <trkpt lat="47.39689" lon="5.49687">
        <ele>184.40039</ele>
        <time>2026-05-15T15:06:14+02:00</time>
      </trkpt>
      <trkpt lat="47.39692" lon="5.49687">
        <ele>184.40039</ele>
        <time>2026-05-15T15:06:15+02:00</time>
      </trkpt>
      <trkpt lat="47.39695" lon="5.49689">
        <ele>184.40039</ele>
        <time>2026-05-15T15:06:16+02:00</time>
      </trkpt>
      <trkpt lat="47.39699" lon="5.4969">
        <ele>184.40039</ele>
        <time>2026-05-15T15:06:17+02:00</time>
      </trkpt>
      <trkpt lat="47.39702" lon="5.49691">
        <ele>184.40039</ele>
        <time>2026-05-15T15:06:18+02:00</time>
      </trkpt>
      <trkpt lat="47.39705" lon="5.49692">
        <ele>184.40039</ele>
        <time>2026-05-15T15:06:19+02:00</time>
      </trkpt>
      <trkpt lat="47.39708" lon="5.49694">
        <ele>184.40039</ele>
        <time>2026-05-15T15:06:20+02:00</time>
      </trkpt>
      <trkpt lat="47.39711" lon="5.49695">
        <ele>184.40039</ele>
        <time>2026-05-15T15:06:21+02:00</time>
      </trkpt>
      <trkpt lat="47.39713" lon="5.49696">
        <ele>184.40039</ele>
        <time>2026-05-15T15:06:22+02:00</time>
      </trkpt>
      <trkpt lat="47.39717" lon="5.49698">
        <ele>184.2998</ele>
        <time>2026-05-15T15:06:23+02:00</time>
      </trkpt>
      <trkpt lat="47.3972" lon="5.49699">
        <ele>184.2998</ele>
        <time>2026-05-15T15:06:24+02:00</time>
      </trkpt>
      <trkpt lat="47.39723" lon="5.49701">
        <ele>184.2998</ele>
        <time>2026-05-15T15:06:25+02:00</time>
      </trkpt>
      <trkpt lat="47.39727" lon="5.49703">
        <ele>184.2998</ele>
        <time>2026-05-15T15:06:26+02:00</time>
      </trkpt>
      <trkpt lat="47.3973" lon="5.49704">
        <ele>184.2998</ele>
        <time>2026-05-15T15:06:27+02:00</time>
      </trkpt>
      <trkpt lat="47.39734" lon="5.49706">
        <ele>184.2998</ele>
        <time>2026-05-15T15:06:28+02:00</time>
      </trkpt>
      <trkpt lat="47.39738" lon="5.49708">
        <ele>184.2998</ele>
        <time>2026-05-15T15:06:29+02:00</time>
      </trkpt>
      <trkpt lat="47.39742" lon="5.4971">
        <ele>184.2998</ele>
        <time>2026-05-15T15:06:30+02:00</time>
      </trkpt>
      <trkpt lat="47.39745" lon="5.49712">
        <ele>184.40039</ele>
        <time>2026-05-15T15:06:31+02:00</time>
      </trkpt>
      <trkpt lat="47.39749" lon="5.49713">
        <ele>184.40039</ele>
        <time>2026-05-15T15:06:32+02:00</time>
      </trkpt>
      <trkpt lat="47.39753" lon="5.49715">
        <ele>184.40039</ele>
        <time>2026-05-15T15:06:33+02:00</time>
      </trkpt>
      <trkpt lat="47.39757" lon="5.49716">
        <ele>184.40039</ele>
        <time>2026-05-15T15:06:34+02:00</time>
      </trkpt>
      <trkpt lat="47.39761" lon="5.49718">
        <ele>184.40039</ele>
        <time>2026-05-15T15:06:35+02:00</time>
      </trkpt>
      <trkpt lat="47.39765" lon="5.4972">
        <ele>184.40039</ele>
        <time>2026-05-15T15:06:36+02:00</time>
      </trkpt>
      <trkpt lat="47.39769" lon="5.49722">
        <ele>184.40039</ele>
        <time>2026-05-15T15:06:37+02:00</time>
      </trkpt>
      <trkpt lat="47.39773" lon="5.49724">
        <ele>184.40039</ele>
        <time>2026-05-15T15:06:38+02:00</time>
      </trkpt>
      <trkpt lat="47.39778" lon="5.49726">
        <ele>184.40039</ele>
        <time>2026-05-15T15:06:39+02:00</time>
      </trkpt>
      <trkpt lat="47.39782" lon="5.49727">
        <ele>184.40039</ele>
        <time>2026-05-15T15:06:40+02:00</time>
      </trkpt>
      <trkpt lat="47.39786" lon="5.49729">
        <ele>184.40039</ele>
        <time>2026-05-15T15:06:41+02:00</time>
      </trkpt>
      <trkpt lat="47.3979" lon="5.49732">
        <ele>184.40039</ele>
        <time>2026-05-15T15:06:42+02:00</time>
      </trkpt>
      <trkpt lat="47.39794" lon="5.49734">
        <ele>184.40039</ele>
        <time>2026-05-15T15:06:43+02:00</time>
      </trkpt>
      <trkpt lat="47.39798" lon="5.49736">
        <ele>184.40039</ele>
        <time>2026-05-15T15:06:44+02:00</time>
      </trkpt>
      <trkpt lat="47.39802" lon="5.49738">
        <ele>184.40039</ele>
        <time>2026-05-15T15:06:45+02:00</time>
      </trkpt>
      <trkpt lat="47.39806" lon="5.4974">
        <ele>184.40039</ele>
        <time>2026-05-15T15:06:46+02:00</time>
      </trkpt>
      <trkpt lat="47.39811" lon="5.49742">
        <ele>184.40039</ele>
        <time>2026-05-15T15:06:47+02:00</time>
      </trkpt>
      <trkpt lat="47.39816" lon="5.49744">
        <ele>184.40039</ele>
        <time>2026-05-15T15:06:48+02:00</time>
      </trkpt>
      <trkpt lat="47.3982" lon="5.49746">
        <ele>184.40039</ele>
        <time>2026-05-15T15:06:49+02:00</time>
      </trkpt>
      <trkpt lat="47.39825" lon="5.49748">
        <ele>184.40039</ele>
        <time>2026-05-15T15:06:50+02:00</time>
      </trkpt>
      <trkpt lat="47.3983" lon="5.4975">
        <ele>184.40039</ele>
        <time>2026-05-15T15:06:51+02:00</time>
      </trkpt>
      <trkpt lat="47.39834" lon="5.49752">
        <ele>184.40039</ele>
        <time>2026-05-15T15:06:52+02:00</time>
      </trkpt>
      <trkpt lat="47.39839" lon="5.49755">
        <ele>184.40039</ele>
        <time>2026-05-15T15:06:53+02:00</time>
      </trkpt>
      <trkpt lat="47.39844" lon="5.49757">
        <ele>184.40039</ele>
        <time>2026-05-15T15:06:54+02:00</time>
      </trkpt>
      <trkpt lat="47.39849" lon="5.4976">
        <ele>184.40039</ele>
        <time>2026-05-15T15:06:55+02:00</time>
      </trkpt>
      <trkpt lat="47.39854" lon="5.49763">
        <ele>184.40039</ele>
        <time>2026-05-15T15:06:56+02:00</time>
      </trkpt>
      <trkpt lat="47.39859" lon="5.49766">
        <ele>184.40039</ele>
        <time>2026-05-15T15:06:57+02:00</time>
      </trkpt>
      <trkpt lat="47.39864" lon="5.49768">
        <ele>184.40039</ele>
        <time>2026-05-15T15:06:58+02:00</time>
      </trkpt>
      <trkpt lat="47.39869" lon="5.4977">
        <ele>184.40039</ele>
        <time>2026-05-15T15:06:59+02:00</time>
      </trkpt>
      <trkpt lat="47.39874" lon="5.49773">
        <ele>184.40039</ele>
        <time>2026-05-15T15:07:00+02:00</time>
      </trkpt>
      <trkpt lat="47.3988" lon="5.49775">
        <ele>184.40039</ele>
        <time>2026-05-15T15:07:01+02:00</time>
      </trkpt>
      <trkpt lat="47.39884" lon="5.49777">
        <ele>184.40039</ele>
        <time>2026-05-15T15:07:02+02:00</time>
      </trkpt>
      <trkpt lat="47.3989" lon="5.4978">
        <ele>184.40039</ele>
        <time>2026-05-15T15:07:03+02:00</time>
      </trkpt>
      <trkpt lat="47.39895" lon="5.49783">
        <ele>184.40039</ele>
        <time>2026-05-15T15:07:04+02:00</time>
      </trkpt>
      <trkpt lat="47.399" lon="5.49785">
        <ele>184.40039</ele>
        <time>2026-05-15T15:07:05+02:00</time>
      </trkpt>
      <trkpt lat="47.39905" lon="5.49787">
        <ele>184.40039</ele>
        <time>2026-05-15T15:07:06+02:00</time>
      </trkpt>
      <trkpt lat="47.39911" lon="5.49789">
        <ele>184.40039</ele>
        <time>2026-05-15T15:07:07+02:00</time>
      </trkpt>
      <trkpt lat="47.39916" lon="5.49792">
        <ele>184.40039</ele>
        <time>2026-05-15T15:07:08+02:00</time>
      </trkpt>
      <trkpt lat="47.39921" lon="5.49794">
        <ele>184.40039</ele>
        <time>2026-05-15T15:07:09+02:00</time>
      </trkpt>
      <trkpt lat="47.39926" lon="5.49797">
        <ele>184.40039</ele>
        <time>2026-05-15T15:07:10+02:00</time>
      </trkpt>
      <trkpt lat="47.39931" lon="5.498">
        <ele>184.40039</ele>
        <time>2026-05-15T15:07:11+02:00</time>
      </trkpt>
      <trkpt lat="47.39937" lon="5.49802">
        <ele>184.40039</ele>
        <time>2026-05-15T15:07:12+02:00</time>
      </trkpt>
      <trkpt lat="47.39942" lon="5.49804">
        <ele>184.40039</ele>
        <time>2026-05-15T15:07:13+02:00</time>
      </trkpt>
      <trkpt lat="47.39947" lon="5.49806">
        <ele>184.40039</ele>
        <time>2026-05-15T15:07:14+02:00</time>
      </trkpt>
      <trkpt lat="47.39953" lon="5.49808">
        <ele>184.40039</ele>
        <time>2026-05-15T15:07:15+02:00</time>
      </trkpt>
      <trkpt lat="47.39958" lon="5.4981">
        <ele>184.40039</ele>
        <time>2026-05-15T15:07:16+02:00</time>
      </trkpt>
      <trkpt lat="47.39963" lon="5.49812">
        <ele>184.40039</ele>
        <time>2026-05-15T15:07:17+02:00</time>
      </trkpt>
      <trkpt lat="47.39968" lon="5.49814">
        <ele>184.40039</ele>
        <time>2026-05-15T15:07:18+02:00</time>
      </trkpt>
      <trkpt lat="47.39974" lon="5.49817">
        <ele>184.40039</ele>
        <time>2026-05-15T15:07:19+02:00</time>
      </trkpt>
      <trkpt lat="47.39979" lon="5.49819">
        <ele>184.40039</ele>
        <time>2026-05-15T15:07:20+02:00</time>
      </trkpt>
      <trkpt lat="47.39985" lon="5.49821">
        <ele>184.40039</ele>
        <time>2026-05-15T15:07:21+02:00</time>
      </trkpt>
      <trkpt lat="47.3999" lon="5.49823">
        <ele>184.40039</ele>
        <time>2026-05-15T15:07:22+02:00</time>
      </trkpt>
      <trkpt lat="47.39995" lon="5.49825">
        <ele>184.40039</ele>
        <time>2026-05-15T15:07:23+02:00</time>
      </trkpt>
      <trkpt lat="47.40001" lon="5.49827">
        <ele>184.40039</ele>
        <time>2026-05-15T15:07:24+02:00</time>
      </trkpt>
      <trkpt lat="47.40006" lon="5.49828">
        <ele>184.40039</ele>
        <time>2026-05-15T15:07:25+02:00</time>
      </trkpt>
      <trkpt lat="47.40011" lon="5.4983">
        <ele>184.40039</ele>
        <time>2026-05-15T15:07:26+02:00</time>
      </trkpt>
      <trkpt lat="47.40016" lon="5.49832">
        <ele>184.40039</ele>
        <time>2026-05-15T15:07:27+02:00</time>
      </trkpt>
      <trkpt lat="47.40022" lon="5.49833">
        <ele>184.40039</ele>
        <time>2026-05-15T15:07:28+02:00</time>
      </trkpt>
      <trkpt lat="47.40027" lon="5.49835">
        <ele>184.40039</ele>
        <time>2026-05-15T15:07:29+02:00</time>
      </trkpt>
      <trkpt lat="47.40033" lon="5.49836">
        <ele>184.40039</ele>
        <time>2026-05-15T15:07:30+02:00</time>
      </trkpt>
      <trkpt lat="47.40038" lon="5.49837">
        <ele>184.40039</ele>
        <time>2026-05-15T15:07:31+02:00</time>
      </trkpt>
      <trkpt lat="47.40043" lon="5.49839">
        <ele>184.40039</ele>
        <time>2026-05-15T15:07:32+02:00</time>
      </trkpt>
      <trkpt lat="47.40049" lon="5.49841">
        <ele>184.40039</ele>
        <time>2026-05-15T15:07:33+02:00</time>
      </trkpt>
      <trkpt lat="47.40054" lon="5.49843">
        <ele>184.40039</ele>
        <time>2026-05-15T15:07:34+02:00</time>
      </trkpt>
      <trkpt lat="47.4006" lon="5.49845">
        <ele>184.40039</ele>
        <time>2026-05-15T15:07:35+02:00</time>
      </trkpt>
      <trkpt lat="47.40066" lon="5.49847">
        <ele>184.2998</ele>
        <time>2026-05-15T15:07:36+02:00</time>
      </trkpt>
      <trkpt lat="47.40071" lon="5.49849">
        <ele>184.40039</ele>
        <time>2026-05-15T15:07:37+02:00</time>
      </trkpt>
      <trkpt lat="47.40077" lon="5.49851">
        <ele>184.40039</ele>
        <time>2026-05-15T15:07:38+02:00</time>
      </trkpt>
      <trkpt lat="47.40083" lon="5.49853">
        <ele>184.40039</ele>
        <time>2026-05-15T15:07:39+02:00</time>
      </trkpt>
      <trkpt lat="47.40088" lon="5.49855">
        <ele>184.40039</ele>
        <time>2026-05-15T15:07:40+02:00</time>
      </trkpt>
      <trkpt lat="47.40094" lon="5.49858">
        <ele>184.40039</ele>
        <time>2026-05-15T15:07:41+02:00</time>
      </trkpt>
      <trkpt lat="47.40099" lon="5.49861">
        <ele>184.40039</ele>
        <time>2026-05-15T15:07:42+02:00</time>
      </trkpt>
      <trkpt lat="47.40105" lon="5.49863">
        <ele>184.40039</ele>
        <time>2026-05-15T15:07:43+02:00</time>
      </trkpt>
      <trkpt lat="47.40111" lon="5.49865">
        <ele>184.40039</ele>
        <time>2026-05-15T15:07:44+02:00</time>
      </trkpt>
      <trkpt lat="47.40116" lon="5.49867">
        <ele>184.40039</ele>
        <time>2026-05-15T15:07:45+02:00</time>
      </trkpt>
      <trkpt lat="47.40121" lon="5.49869">
        <ele>184.40039</ele>
        <time>2026-05-15T15:07:46+02:00</time>
      </trkpt>
      <trkpt lat="47.40127" lon="5.49871">
        <ele>184.40039</ele>
        <time>2026-05-15T15:07:47+02:00</time>
      </trkpt>
      <trkpt lat="47.40132" lon="5.49872">
        <ele>184.40039</ele>
        <time>2026-05-15T15:07:48+02:00</time>
      </trkpt>
      <trkpt lat="47.40136" lon="5.49874">
        <ele>184.40039</ele>
        <time>2026-05-15T15:07:49+02:00</time>
      </trkpt>
      <trkpt lat="47.40141" lon="5.49875">
        <ele>184.40039</ele>
        <time>2026-05-15T15:07:50+02:00</time>
      </trkpt>
      <trkpt lat="47.40146" lon="5.49877">
        <ele>184.40039</ele>
        <time>2026-05-15T15:07:51+02:00</time>
      </trkpt>
      <trkpt lat="47.40151" lon="5.49878">
        <ele>184.40039</ele>
        <time>2026-05-15T15:07:52+02:00</time>
      </trkpt>
      <trkpt lat="47.40156" lon="5.49879">
        <ele>184.40039</ele>
        <time>2026-05-15T15:07:53+02:00</time>
      </trkpt>
      <trkpt lat="47.40161" lon="5.4988">
        <ele>184.40039</ele>
        <time>2026-05-15T15:07:54+02:00</time>
      </trkpt>
      <trkpt lat="47.40165" lon="5.49882">
        <ele>184.40039</ele>
        <time>2026-05-15T15:07:55+02:00</time>
      </trkpt>
      <trkpt lat="47.4017" lon="5.49883">
        <ele>184.40039</ele>
        <time>2026-05-15T15:07:56+02:00</time>
      </trkpt>
      <trkpt lat="47.40175" lon="5.49885">
        <ele>184.40039</ele>
        <time>2026-05-15T15:07:57+02:00</time>
      </trkpt>
      <trkpt lat="47.4018" lon="5.49887">
        <ele>184.40039</ele>
        <time>2026-05-15T15:07:58+02:00</time>
      </trkpt>
      <trkpt lat="47.40184" lon="5.49888">
        <ele>184.40039</ele>
        <time>2026-05-15T15:07:59+02:00</time>
      </trkpt>
      <trkpt lat="47.40189" lon="5.49889">
        <ele>184.40039</ele>
        <time>2026-05-15T15:08:00+02:00</time>
      </trkpt>
      <trkpt lat="47.40193" lon="5.4989">
        <ele>184.40039</ele>
        <time>2026-05-15T15:08:01+02:00</time>
      </trkpt>
      <trkpt lat="47.40198" lon="5.49891">
        <ele>184.40039</ele>
        <time>2026-05-15T15:08:02+02:00</time>
      </trkpt>
      <trkpt lat="47.40203" lon="5.49893">
        <ele>184.40039</ele>
        <time>2026-05-15T15:08:03+02:00</time>
      </trkpt>
      <trkpt lat="47.40208" lon="5.49894">
        <ele>184.40039</ele>
        <time>2026-05-15T15:08:04+02:00</time>
      </trkpt>
      <trkpt lat="47.40212" lon="5.49896">
        <ele>184.40039</ele>
        <time>2026-05-15T15:08:05+02:00</time>
      </trkpt>
      <trkpt lat="47.40217" lon="5.49897">
        <ele>184.40039</ele>
        <time>2026-05-15T15:08:06+02:00</time>
      </trkpt>
      <trkpt lat="47.40222" lon="5.49898">
        <ele>184.40039</ele>
        <time>2026-05-15T15:08:07+02:00</time>
      </trkpt>
      <trkpt lat="47.40228" lon="5.499">
        <ele>184.40039</ele>
        <time>2026-05-15T15:08:08+02:00</time>
      </trkpt>
      <trkpt lat="47.40233" lon="5.49901">
        <ele>184.40039</ele>
        <time>2026-05-15T15:08:09+02:00</time>
      </trkpt>
      <trkpt lat="47.40238" lon="5.49902">
        <ele>184.40039</ele>
        <time>2026-05-15T15:08:10+02:00</time>
      </trkpt>
      <trkpt lat="47.40243" lon="5.49904">
        <ele>184.40039</ele>
        <time>2026-05-15T15:08:11+02:00</time>
      </trkpt>
      <trkpt lat="47.40248" lon="5.49905">
        <ele>184.40039</ele>
        <time>2026-05-15T15:08:12+02:00</time>
      </trkpt>
      <trkpt lat="47.40253" lon="5.49907">
        <ele>184.40039</ele>
        <time>2026-05-15T15:08:13+02:00</time>
      </trkpt>
      <trkpt lat="47.40258" lon="5.49908">
        <ele>184.40039</ele>
        <time>2026-05-15T15:08:14+02:00</time>
      </trkpt>
      <trkpt lat="47.40263" lon="5.4991">
        <ele>184.40039</ele>
        <time>2026-05-15T15:08:15+02:00</time>
      </trkpt>
      <trkpt lat="47.40268" lon="5.49911">
        <ele>184.40039</ele>
        <time>2026-05-15T15:08:16+02:00</time>
      </trkpt>
      <trkpt lat="47.40273" lon="5.49912">
        <ele>184.40039</ele>
        <time>2026-05-15T15:08:17+02:00</time>
      </trkpt>
      <trkpt lat="47.40277" lon="5.49913">
        <ele>184.40039</ele>
        <time>2026-05-15T15:08:18+02:00</time>
      </trkpt>
      <trkpt lat="47.40282" lon="5.49914">
        <ele>184.40039</ele>
        <time>2026-05-15T15:08:19+02:00</time>
      </trkpt>
      <trkpt lat="47.40287" lon="5.49915">
        <ele>184.40039</ele>
        <time>2026-05-15T15:08:20+02:00</time>
      </trkpt>
      <trkpt lat="47.40291" lon="5.49917">
        <ele>184.40039</ele>
        <time>2026-05-15T15:08:21+02:00</time>
      </trkpt>
      <trkpt lat="47.40296" lon="5.49918">
        <ele>184.40039</ele>
        <time>2026-05-15T15:08:22+02:00</time>
      </trkpt>
      <trkpt lat="47.40301" lon="5.4992">
        <ele>184.40039</ele>
        <time>2026-05-15T15:08:23+02:00</time>
      </trkpt>
      <trkpt lat="47.40305" lon="5.49921">
        <ele>184.40039</ele>
        <time>2026-05-15T15:08:24+02:00</time>
      </trkpt>
      <trkpt lat="47.40309" lon="5.49923">
        <ele>184.40039</ele>
        <time>2026-05-15T15:08:25+02:00</time>
      </trkpt>
      <trkpt lat="47.40313" lon="5.49925">
        <ele>184.2998</ele>
        <time>2026-05-15T15:08:26+02:00</time>
      </trkpt>
      <trkpt lat="47.40317" lon="5.49927">
        <ele>184.40039</ele>
        <time>2026-05-15T15:08:27+02:00</time>
      </trkpt>
      <trkpt lat="47.4032" lon="5.4993">
        <ele>184.40039</ele>
        <time>2026-05-15T15:08:28+02:00</time>
      </trkpt>
      <trkpt lat="47.40324" lon="5.49932">
        <ele>184.40039</ele>
        <time>2026-05-15T15:08:29+02:00</time>
      </trkpt>
      <trkpt lat="47.40328" lon="5.49936">
        <ele>184.40039</ele>
        <time>2026-05-15T15:08:30+02:00</time>
      </trkpt>
      <trkpt lat="47.40332" lon="5.49939">
        <ele>184.40039</ele>
        <time>2026-05-15T15:08:31+02:00</time>
      </trkpt>
      <trkpt lat="47.40336" lon="5.49942">
        <ele>184.40039</ele>
        <time>2026-05-15T15:08:32+02:00</time>
      </trkpt>
      <trkpt lat="47.4034" lon="5.49946">
        <ele>184.40039</ele>
        <time>2026-05-15T15:08:33+02:00</time>
      </trkpt>
      <trkpt lat="47.40344" lon="5.49949">
        <ele>184.40039</ele>
        <time>2026-05-15T15:08:34+02:00</time>
      </trkpt>
      <trkpt lat="47.40347" lon="5.49953">
        <ele>184.40039</ele>
        <time>2026-05-15T15:08:35+02:00</time>
      </trkpt>
      <trkpt lat="47.4035" lon="5.49956">
        <ele>184.40039</ele>
        <time>2026-05-15T15:08:36+02:00</time>
      </trkpt>
      <trkpt lat="47.40354" lon="5.4996">
        <ele>184.40039</ele>
        <time>2026-05-15T15:08:37+02:00</time>
      </trkpt>
      <trkpt lat="47.40357" lon="5.49964">
        <ele>184.40039</ele>
        <time>2026-05-15T15:08:38+02:00</time>
      </trkpt>
      <trkpt lat="47.4036" lon="5.49968">
        <ele>184.40039</ele>
        <time>2026-05-15T15:08:39+02:00</time>
      </trkpt>
      <trkpt lat="47.40362" lon="5.49973">
        <ele>184.40039</ele>
        <time>2026-05-15T15:08:40+02:00</time>
      </trkpt>
      <trkpt lat="47.40365" lon="5.49977">
        <ele>184.40039</ele>
        <time>2026-05-15T15:08:41+02:00</time>
      </trkpt>
      <trkpt lat="47.40368" lon="5.49982">
        <ele>184.40039</ele>
        <time>2026-05-15T15:08:42+02:00</time>
      </trkpt>
      <trkpt lat="47.40371" lon="5.49987">
        <ele>184.40039</ele>
        <time>2026-05-15T15:08:43+02:00</time>
      </trkpt>
      <trkpt lat="47.40374" lon="5.49992">
        <ele>184.40039</ele>
        <time>2026-05-15T15:08:44+02:00</time>
      </trkpt>
      <trkpt lat="47.40376" lon="5.49997">
        <ele>184.40039</ele>
        <time>2026-05-15T15:08:45+02:00</time>
      </trkpt>
      <trkpt lat="47.40379" lon="5.50003">
        <ele>184.40039</ele>
        <time>2026-05-15T15:08:46+02:00</time>
      </trkpt>
      <trkpt lat="47.40382" lon="5.50008">
        <ele>184.40039</ele>
        <time>2026-05-15T15:08:47+02:00</time>
      </trkpt>
      <trkpt lat="47.40384" lon="5.50013">
        <ele>184.40039</ele>
        <time>2026-05-15T15:08:48+02:00</time>
      </trkpt>
      <trkpt lat="47.40387" lon="5.50019">
        <ele>184.40039</ele>
        <time>2026-05-15T15:08:49+02:00</time>
      </trkpt>
      <trkpt lat="47.4039" lon="5.50024">
        <ele>184.40039</ele>
        <time>2026-05-15T15:08:50+02:00</time>
      </trkpt>
      <trkpt lat="47.40392" lon="5.50029">
        <ele>184.40039</ele>
        <time>2026-05-15T15:08:51+02:00</time>
      </trkpt>
      <trkpt lat="47.40394" lon="5.50034">
        <ele>184.40039</ele>
        <time>2026-05-15T15:08:52+02:00</time>
      </trkpt>
      <trkpt lat="47.40397" lon="5.5004">
        <ele>184.40039</ele>
        <time>2026-05-15T15:08:53+02:00</time>
      </trkpt>
      <trkpt lat="47.40399" lon="5.50046">
        <ele>184.40039</ele>
        <time>2026-05-15T15:08:54+02:00</time>
      </trkpt>
      <trkpt lat="47.40401" lon="5.50052">
        <ele>184.40039</ele>
        <time>2026-05-15T15:08:55+02:00</time>
      </trkpt>
      <trkpt lat="47.40403" lon="5.50058">
        <ele>184.40039</ele>
        <time>2026-05-15T15:08:56+02:00</time>
      </trkpt>
      <trkpt lat="47.40404" lon="5.50065">
        <ele>184.40039</ele>
        <time>2026-05-15T15:08:57+02:00</time>
      </trkpt>
      <trkpt lat="47.40406" lon="5.50072">
        <ele>184.40039</ele>
        <time>2026-05-15T15:08:58+02:00</time>
      </trkpt>
      <trkpt lat="47.40408" lon="5.50079">
        <ele>184.40039</ele>
        <time>2026-05-15T15:08:59+02:00</time>
      </trkpt>
      <trkpt lat="47.40409" lon="5.50086">
        <ele>184.40039</ele>
        <time>2026-05-15T15:09:00+02:00</time>
      </trkpt>
      <trkpt lat="47.40411" lon="5.50093">
        <ele>184.40039</ele>
        <time>2026-05-15T15:09:01+02:00</time>
      </trkpt>
      <trkpt lat="47.40412" lon="5.501">
        <ele>184.40039</ele>
        <time>2026-05-15T15:09:02+02:00</time>
      </trkpt>
      <trkpt lat="47.40414" lon="5.50107">
        <ele>184.40039</ele>
        <time>2026-05-15T15:09:03+02:00</time>
      </trkpt>
      <trkpt lat="47.40415" lon="5.50115">
        <ele>184.40039</ele>
        <time>2026-05-15T15:09:04+02:00</time>
      </trkpt>
      <trkpt lat="47.40416" lon="5.50122">
        <ele>184.40039</ele>
        <time>2026-05-15T15:09:05+02:00</time>
      </trkpt>
      <trkpt lat="47.40417" lon="5.50129">
        <ele>184.40039</ele>
        <time>2026-05-15T15:09:06+02:00</time>
      </trkpt>
      <trkpt lat="47.40418" lon="5.50137">
        <ele>184.40039</ele>
        <time>2026-05-15T15:09:07+02:00</time>
      </trkpt>
      <trkpt lat="47.40418" lon="5.50144">
        <ele>184.40039</ele>
        <time>2026-05-15T15:09:08+02:00</time>
      </trkpt>
      <trkpt lat="47.40419" lon="5.50151">
        <ele>184.40039</ele>
        <time>2026-05-15T15:09:09+02:00</time>
      </trkpt>
      <trkpt lat="47.40419" lon="5.50159">
        <ele>184.40039</ele>
        <time>2026-05-15T15:09:10+02:00</time>
      </trkpt>
      <trkpt lat="47.4042" lon="5.50167">
        <ele>184.40039</ele>
        <time>2026-05-15T15:09:11+02:00</time>
      </trkpt>
      <trkpt lat="47.4042" lon="5.50174">
        <ele>184.40039</ele>
        <time>2026-05-15T15:09:12+02:00</time>
      </trkpt>
      <trkpt lat="47.4042" lon="5.50182">
        <ele>184.40039</ele>
        <time>2026-05-15T15:09:13+02:00</time>
      </trkpt>
      <trkpt lat="47.4042" lon="5.50189">
        <ele>184.40039</ele>
        <time>2026-05-15T15:09:14+02:00</time>
      </trkpt>
      <trkpt lat="47.4042" lon="5.50197">
        <ele>184.40039</ele>
        <time>2026-05-15T15:09:15+02:00</time>
      </trkpt>
      <trkpt lat="47.4042" lon="5.50205">
        <ele>184.40039</ele>
        <time>2026-05-15T15:09:16+02:00</time>
      </trkpt>
      <trkpt lat="47.40419" lon="5.50212">
        <ele>184.40039</ele>
        <time>2026-05-15T15:09:17+02:00</time>
      </trkpt>
      <trkpt lat="47.40419" lon="5.5022">
        <ele>184.40039</ele>
        <time>2026-05-15T15:09:18+02:00</time>
      </trkpt>
      <trkpt lat="47.40419" lon="5.50227">
        <ele>184.40039</ele>
        <time>2026-05-15T15:09:19+02:00</time>
      </trkpt>
      <trkpt lat="47.40419" lon="5.50235">
        <ele>184.40039</ele>
        <time>2026-05-15T15:09:20+02:00</time>
      </trkpt>
      <trkpt lat="47.40418" lon="5.50243">
        <ele>184.40039</ele>
        <time>2026-05-15T15:09:21+02:00</time>
      </trkpt>
      <trkpt lat="47.40418" lon="5.50251">
        <ele>184.40039</ele>
        <time>2026-05-15T15:09:22+02:00</time>
      </trkpt>
      <trkpt lat="47.40417" lon="5.50258">
        <ele>184.40039</ele>
        <time>2026-05-15T15:09:23+02:00</time>
      </trkpt>
      <trkpt lat="47.40417" lon="5.50266">
        <ele>184.40039</ele>
        <time>2026-05-15T15:09:24+02:00</time>
      </trkpt>
      <trkpt lat="47.40416" lon="5.50274">
        <ele>184.40039</ele>
        <time>2026-05-15T15:09:25+02:00</time>
      </trkpt>
      <trkpt lat="47.40415" lon="5.50282">
        <ele>184.40039</ele>
        <time>2026-05-15T15:09:26+02:00</time>
      </trkpt>
      <trkpt lat="47.40415" lon="5.5029">
        <ele>184.40039</ele>
        <time>2026-05-15T15:09:27+02:00</time>
      </trkpt>
      <trkpt lat="47.40414" lon="5.50298">
        <ele>184.40039</ele>
        <time>2026-05-15T15:09:28+02:00</time>
      </trkpt>
      <trkpt lat="47.40413" lon="5.50305">
        <ele>184.40039</ele>
        <time>2026-05-15T15:09:29+02:00</time>
      </trkpt>
      <trkpt lat="47.40412" lon="5.50313">
        <ele>184.40039</ele>
        <time>2026-05-15T15:09:30+02:00</time>
      </trkpt>
      <trkpt lat="47.40411" lon="5.50321">
        <ele>184.40039</ele>
        <time>2026-05-15T15:09:31+02:00</time>
      </trkpt>
      <trkpt lat="47.4041" lon="5.50328">
        <ele>184.40039</ele>
        <time>2026-05-15T15:09:32+02:00</time>
      </trkpt>
      <trkpt lat="47.40408" lon="5.50336">
        <ele>184.40039</ele>
        <time>2026-05-15T15:09:33+02:00</time>
      </trkpt>
      <trkpt lat="47.40407" lon="5.50343">
        <ele>184.40039</ele>
        <time>2026-05-15T15:09:34+02:00</time>
      </trkpt>
      <trkpt lat="47.40406" lon="5.50351">
        <ele>184.40039</ele>
        <time>2026-05-15T15:09:35+02:00</time>
      </trkpt>
      <trkpt lat="47.40405" lon="5.50359">
        <ele>184.40039</ele>
        <time>2026-05-15T15:09:36+02:00</time>
      </trkpt>
      <trkpt lat="47.40404" lon="5.50366">
        <ele>184.40039</ele>
        <time>2026-05-15T15:09:37+02:00</time>
      </trkpt>
      <trkpt lat="47.40402" lon="5.50374">
        <ele>184.40039</ele>
        <time>2026-05-15T15:09:38+02:00</time>
      </trkpt>
      <trkpt lat="47.40401" lon="5.50382">
        <ele>184.40039</ele>
        <time>2026-05-15T15:09:39+02:00</time>
      </trkpt>
      <trkpt lat="47.404" lon="5.50389">
        <ele>184.40039</ele>
        <time>2026-05-15T15:09:40+02:00</time>
      </trkpt>
      <trkpt lat="47.40399" lon="5.50397">
        <ele>184.40039</ele>
        <time>2026-05-15T15:09:41+02:00</time>
      </trkpt>
      <trkpt lat="47.40397" lon="5.50405">
        <ele>184.40039</ele>
        <time>2026-05-15T15:09:42+02:00</time>
      </trkpt>
      <trkpt lat="47.40396" lon="5.50413">
        <ele>184.40039</ele>
        <time>2026-05-15T15:09:43+02:00</time>
      </trkpt>
      <trkpt lat="47.40395" lon="5.5042">
        <ele>184.40039</ele>
        <time>2026-05-15T15:09:44+02:00</time>
      </trkpt>
      <trkpt lat="47.40394" lon="5.50428">
        <ele>184.40039</ele>
        <time>2026-05-15T15:09:45+02:00</time>
      </trkpt>
      <trkpt lat="47.40393" lon="5.50436">
        <ele>184.40039</ele>
        <time>2026-05-15T15:09:46+02:00</time>
      </trkpt>
      <trkpt lat="47.40392" lon="5.50444">
        <ele>184.40039</ele>
        <time>2026-05-15T15:09:47+02:00</time>
      </trkpt>
      <trkpt lat="47.40391" lon="5.50453">
        <ele>184.40039</ele>
        <time>2026-05-15T15:09:48+02:00</time>
      </trkpt>
      <trkpt lat="47.40391" lon="5.50461">
        <ele>184.40039</ele>
        <time>2026-05-15T15:09:49+02:00</time>
      </trkpt>
      <trkpt lat="47.4039" lon="5.50469">
        <ele>184.40039</ele>
        <time>2026-05-15T15:09:50+02:00</time>
      </trkpt>
      <trkpt lat="47.4039" lon="5.50476">
        <ele>184.40039</ele>
        <time>2026-05-15T15:09:51+02:00</time>
      </trkpt>
      <trkpt lat="47.4039" lon="5.50484">
        <ele>184.40039</ele>
        <time>2026-05-15T15:09:52+02:00</time>
      </trkpt>
      <trkpt lat="47.40389" lon="5.50492">
        <ele>184.40039</ele>
        <time>2026-05-15T15:09:53+02:00</time>
      </trkpt>
      <trkpt lat="47.40389" lon="5.50499">
        <ele>184.40039</ele>
        <time>2026-05-15T15:09:54+02:00</time>
      </trkpt>
      <trkpt lat="47.40389" lon="5.50506">
        <ele>184.40039</ele>
        <time>2026-05-15T15:09:55+02:00</time>
      </trkpt>
      <trkpt lat="47.40389" lon="5.50514">
        <ele>184.40039</ele>
        <time>2026-05-15T15:09:56+02:00</time>
      </trkpt>
      <trkpt lat="47.4039" lon="5.50521">
        <ele>184.40039</ele>
        <time>2026-05-15T15:09:57+02:00</time>
      </trkpt>
      <trkpt lat="47.40391" lon="5.50528">
        <ele>184.40039</ele>
        <time>2026-05-15T15:09:58+02:00</time>
      </trkpt>
      <trkpt lat="47.40391" lon="5.50536">
        <ele>184.40039</ele>
        <time>2026-05-15T15:09:59+02:00</time>
      </trkpt>
      <trkpt lat="47.40392" lon="5.50543">
        <ele>184.40039</ele>
        <time>2026-05-15T15:10:00+02:00</time>
      </trkpt>
      <trkpt lat="47.40393" lon="5.5055">
        <ele>184.40039</ele>
        <time>2026-05-15T15:10:01+02:00</time>
      </trkpt>
      <trkpt lat="47.40394" lon="5.50558">
        <ele>184.40039</ele>
        <time>2026-05-15T15:10:02+02:00</time>
      </trkpt>
      <trkpt lat="47.40394" lon="5.50565">
        <ele>184.40039</ele>
        <time>2026-05-15T15:10:03+02:00</time>
      </trkpt>
      <trkpt lat="47.40395" lon="5.50572">
        <ele>184.40039</ele>
        <time>2026-05-15T15:10:04+02:00</time>
      </trkpt>
      <trkpt lat="47.40396" lon="5.5058">
        <ele>184.40039</ele>
        <time>2026-05-15T15:10:05+02:00</time>
      </trkpt>
      <trkpt lat="47.40397" lon="5.50587">
        <ele>184.40039</ele>
        <time>2026-05-15T15:10:06+02:00</time>
      </trkpt>
      <trkpt lat="47.40397" lon="5.50593">
        <ele>184.40039</ele>
        <time>2026-05-15T15:10:07+02:00</time>
      </trkpt>
      <trkpt lat="47.40399" lon="5.506">
        <ele>184.2998</ele>
        <time>2026-05-15T15:10:08+02:00</time>
      </trkpt>
      <trkpt lat="47.40399" lon="5.50606">
        <ele>184.2998</ele>
        <time>2026-05-15T15:10:09+02:00</time>
      </trkpt>
      <trkpt lat="47.404" lon="5.50612">
        <ele>184.2998</ele>
        <time>2026-05-15T15:10:10+02:00</time>
      </trkpt>
      <trkpt lat="47.404" lon="5.50618">
        <ele>184.2998</ele>
        <time>2026-05-15T15:10:11+02:00</time>
      </trkpt>
      <trkpt lat="47.40401" lon="5.50623">
        <ele>184.2002</ele>
        <time>2026-05-15T15:10:12+02:00</time>
      </trkpt>
      <trkpt lat="47.40402" lon="5.50628">
        <ele>184.2002</ele>
        <time>2026-05-15T15:10:13+02:00</time>
      </trkpt>
      <trkpt lat="47.40402" lon="5.50633">
        <ele>184.2998</ele>
        <time>2026-05-15T15:10:14+02:00</time>
      </trkpt>
      <trkpt lat="47.40403" lon="5.50638">
        <ele>184.2998</ele>
        <time>2026-05-15T15:10:15+02:00</time>
      </trkpt>
      <trkpt lat="47.40403" lon="5.50644">
        <ele>184.2998</ele>
        <time>2026-05-15T15:10:16+02:00</time>
      </trkpt>
      <trkpt lat="47.40404" lon="5.50649">
        <ele>184.2998</ele>
        <time>2026-05-15T15:10:17+02:00</time>
      </trkpt>
      <trkpt lat="47.40404" lon="5.50654">
        <ele>184.2998</ele>
        <time>2026-05-15T15:10:18+02:00</time>
      </trkpt>
      <trkpt lat="47.40405" lon="5.50659">
        <ele>184.2998</ele>
        <time>2026-05-15T15:10:19+02:00</time>
      </trkpt>
      <trkpt lat="47.40405" lon="5.50664">
        <ele>184.2998</ele>
        <time>2026-05-15T15:10:20+02:00</time>
      </trkpt>
      <trkpt lat="47.40405" lon="5.50668">
        <ele>184.2998</ele>
        <time>2026-05-15T15:10:21+02:00</time>
      </trkpt>
      <trkpt lat="47.40405" lon="5.50672">
        <ele>184.2998</ele>
        <time>2026-05-15T15:10:22+02:00</time>
      </trkpt>
      <trkpt lat="47.40405" lon="5.50675">
        <ele>184.2002</ele>
        <time>2026-05-15T15:10:23+02:00</time>
      </trkpt>
      <trkpt lat="47.40405" lon="5.50678">
        <ele>184.2002</ele>
        <time>2026-05-15T15:10:24+02:00</time>
      </trkpt>
      <trkpt lat="47.40405" lon="5.50681">
        <ele>184.2002</ele>
        <time>2026-05-15T15:10:25+02:00</time>
      </trkpt>
      <trkpt lat="47.40405" lon="5.50685">
        <ele>184.2002</ele>
        <time>2026-05-15T15:10:26+02:00</time>
      </trkpt>
      <trkpt lat="47.40405" lon="5.50689">
        <ele>184.2002</ele>
        <time>2026-05-15T15:10:27+02:00</time>
      </trkpt>
      <trkpt lat="47.40405" lon="5.50694">
        <ele>184.2998</ele>
        <time>2026-05-15T15:10:28+02:00</time>
      </trkpt>
      <trkpt lat="47.40405" lon="5.507">
        <ele>184.40039</ele>
        <time>2026-05-15T15:10:29+02:00</time>
      </trkpt>
      <trkpt lat="47.40405" lon="5.50706">
        <ele>184.40039</ele>
        <time>2026-05-15T15:10:30+02:00</time>
      </trkpt>
      <trkpt lat="47.40405" lon="5.50714">
        <ele>184.5</ele>
        <time>2026-05-15T15:10:31+02:00</time>
      </trkpt>
      <trkpt lat="47.40405" lon="5.50722">
        <ele>184.60059</ele>
        <time>2026-05-15T15:10:32+02:00</time>
      </trkpt>
      <trkpt lat="47.40405" lon="5.5073">
        <ele>184.60059</ele>
        <time>2026-05-15T15:10:33+02:00</time>
      </trkpt>
      <trkpt lat="47.40405" lon="5.50739">
        <ele>184.60059</ele>
        <time>2026-05-15T15:10:34+02:00</time>
      </trkpt>
      <trkpt lat="47.40405" lon="5.50749">
        <ele>184.60059</ele>
        <time>2026-05-15T15:10:35+02:00</time>
      </trkpt>
      <trkpt lat="47.40405" lon="5.50758">
        <ele>184.5</ele>
        <time>2026-05-15T15:10:36+02:00</time>
      </trkpt>
      <trkpt lat="47.40406" lon="5.50767">
        <ele>184.2998</ele>
        <time>2026-05-15T15:10:37+02:00</time>
      </trkpt>
      <trkpt lat="47.40407" lon="5.50777">
        <ele>184.2998</ele>
        <time>2026-05-15T15:10:38+02:00</time>
      </trkpt>
      <trkpt lat="47.40408" lon="5.50786">
        <ele>184.2998</ele>
        <time>2026-05-15T15:10:39+02:00</time>
      </trkpt>
      <trkpt lat="47.4041" lon="5.50795">
        <ele>184.2998</ele>
        <time>2026-05-15T15:10:40+02:00</time>
      </trkpt>
      <trkpt lat="47.4041" lon="5.50803">
        <ele>184.2998</ele>
        <time>2026-05-15T15:10:41+02:00</time>
      </trkpt>
      <trkpt lat="47.4041" lon="5.50812">
        <ele>184.2998</ele>
        <time>2026-05-15T15:10:42+02:00</time>
      </trkpt>
      <trkpt lat="47.40411" lon="5.5082">
        <ele>184.2002</ele>
        <time>2026-05-15T15:10:43+02:00</time>
      </trkpt>
      <trkpt lat="47.40411" lon="5.50828">
        <ele>184.2002</ele>
        <time>2026-05-15T15:10:44+02:00</time>
      </trkpt>
      <trkpt lat="47.40412" lon="5.50836">
        <ele>184.2998</ele>
        <time>2026-05-15T15:10:45+02:00</time>
      </trkpt>
      <trkpt lat="47.40412" lon="5.50844">
        <ele>184.2998</ele>
        <time>2026-05-15T15:10:46+02:00</time>
      </trkpt>
      <trkpt lat="47.40413" lon="5.50852">
        <ele>184.2998</ele>
        <time>2026-05-15T15:10:47+02:00</time>
      </trkpt>
      <trkpt lat="47.40413" lon="5.5086">
        <ele>184.2998</ele>
        <time>2026-05-15T15:10:48+02:00</time>
      </trkpt>
      <trkpt lat="47.40414" lon="5.50868">
        <ele>184.2998</ele>
        <time>2026-05-15T15:10:49+02:00</time>
      </trkpt>
      <trkpt lat="47.40415" lon="5.50876">
        <ele>184.2998</ele>
        <time>2026-05-15T15:10:50+02:00</time>
      </trkpt>
      <trkpt lat="47.40415" lon="5.50885">
        <ele>184.2998</ele>
        <time>2026-05-15T15:10:51+02:00</time>
      </trkpt>
      <trkpt lat="47.40416" lon="5.50893">
        <ele>184.2002</ele>
        <time>2026-05-15T15:10:52+02:00</time>
      </trkpt>
      <trkpt lat="47.40416" lon="5.50901">
        <ele>184.2998</ele>
        <time>2026-05-15T15:10:53+02:00</time>
      </trkpt>
      <trkpt lat="47.40417" lon="5.5091">
        <ele>184.2998</ele>
        <time>2026-05-15T15:10:54+02:00</time>
      </trkpt>
      <trkpt lat="47.40418" lon="5.50918">
        <ele>184.2998</ele>
        <time>2026-05-15T15:10:55+02:00</time>
      </trkpt>
      <trkpt lat="47.40418" lon="5.50926">
        <ele>184.2998</ele>
        <time>2026-05-15T15:10:56+02:00</time>
      </trkpt>
      <trkpt lat="47.40419" lon="5.50934">
        <ele>184.2998</ele>
        <time>2026-05-15T15:10:57+02:00</time>
      </trkpt>
      <trkpt lat="47.4042" lon="5.50943">
        <ele>184.2998</ele>
        <time>2026-05-15T15:10:58+02:00</time>
      </trkpt>
      <trkpt lat="47.4042" lon="5.50951">
        <ele>184.2998</ele>
        <time>2026-05-15T15:10:59+02:00</time>
      </trkpt>
      <trkpt lat="47.40421" lon="5.50959">
        <ele>184.2998</ele>
        <time>2026-05-15T15:11:00+02:00</time>
      </trkpt>
      <trkpt lat="47.40422" lon="5.50968">
        <ele>184.2998</ele>
        <time>2026-05-15T15:11:01+02:00</time>
      </trkpt>
      <trkpt lat="47.40422" lon="5.50976">
        <ele>184.2002</ele>
        <time>2026-05-15T15:11:02+02:00</time>
      </trkpt>
      <trkpt lat="47.40423" lon="5.50984">
        <ele>184.2002</ele>
        <time>2026-05-15T15:11:03+02:00</time>
      </trkpt>
      <trkpt lat="47.40424" lon="5.50992">
        <ele>184.2002</ele>
        <time>2026-05-15T15:11:04+02:00</time>
      </trkpt>
      <trkpt lat="47.40424" lon="5.51001">
        <ele>184.2002</ele>
        <time>2026-05-15T15:11:05+02:00</time>
      </trkpt>
      <trkpt lat="47.40425" lon="5.51009">
        <ele>184.2002</ele>
        <time>2026-05-15T15:11:06+02:00</time>
      </trkpt>
      <trkpt lat="47.40426" lon="5.51017">
        <ele>184.2002</ele>
        <time>2026-05-15T15:11:07+02:00</time>
      </trkpt>
      <trkpt lat="47.40427" lon="5.51025">
        <ele>184.2002</ele>
        <time>2026-05-15T15:11:08+02:00</time>
      </trkpt>
      <trkpt lat="47.40427" lon="5.51034">
        <ele>184.2002</ele>
        <time>2026-05-15T15:11:09+02:00</time>
      </trkpt>
      <trkpt lat="47.40428" lon="5.51042">
        <ele>184.2002</ele>
        <time>2026-05-15T15:11:10+02:00</time>
      </trkpt>
      <trkpt lat="47.40428" lon="5.5105">
        <ele>184.2002</ele>
        <time>2026-05-15T15:11:11+02:00</time>
      </trkpt>
      <trkpt lat="47.40429" lon="5.51059">
        <ele>184.2998</ele>
        <time>2026-05-15T15:11:12+02:00</time>
      </trkpt>
      <trkpt lat="47.40429" lon="5.51067">
        <ele>184.2998</ele>
        <time>2026-05-15T15:11:13+02:00</time>
      </trkpt>
      <trkpt lat="47.4043" lon="5.51075">
        <ele>184.40039</ele>
        <time>2026-05-15T15:11:14+02:00</time>
      </trkpt>
      <trkpt lat="47.40431" lon="5.51083">
        <ele>184.5</ele>
        <time>2026-05-15T15:11:15+02:00</time>
      </trkpt>
      <trkpt lat="47.40432" lon="5.51091">
        <ele>184.5</ele>
        <time>2026-05-15T15:11:16+02:00</time>
      </trkpt>
      <trkpt lat="47.40432" lon="5.51099">
        <ele>184.5</ele>
        <time>2026-05-15T15:11:17+02:00</time>
      </trkpt>
      <trkpt lat="47.40432" lon="5.51108">
        <ele>184.5</ele>
        <time>2026-05-15T15:11:18+02:00</time>
      </trkpt>
      <trkpt lat="47.40433" lon="5.51116">
        <ele>184.5</ele>
        <time>2026-05-15T15:11:19+02:00</time>
      </trkpt>
      <trkpt lat="47.40434" lon="5.51124">
        <ele>184.40039</ele>
        <time>2026-05-15T15:11:20+02:00</time>
      </trkpt>
      <trkpt lat="47.40435" lon="5.51133">
        <ele>184.40039</ele>
        <time>2026-05-15T15:11:21+02:00</time>
      </trkpt>
      <trkpt lat="47.40435" lon="5.51141">
        <ele>184.40039</ele>
        <time>2026-05-15T15:11:22+02:00</time>
      </trkpt>
      <trkpt lat="47.40436" lon="5.51149">
        <ele>184.40039</ele>
        <time>2026-05-15T15:11:23+02:00</time>
      </trkpt>
      <trkpt lat="47.40436" lon="5.51157">
        <ele>184.40039</ele>
        <time>2026-05-15T15:11:24+02:00</time>
      </trkpt>
      <trkpt lat="47.40437" lon="5.51166">
        <ele>184.40039</ele>
        <time>2026-05-15T15:11:25+02:00</time>
      </trkpt>
      <trkpt lat="47.40437" lon="5.51174">
        <ele>184.40039</ele>
        <time>2026-05-15T15:11:26+02:00</time>
      </trkpt>
      <trkpt lat="47.40439" lon="5.51182">
        <ele>184.40039</ele>
        <time>2026-05-15T15:11:27+02:00</time>
      </trkpt>
      <trkpt lat="47.4044" lon="5.5119">
        <ele>184.40039</ele>
        <time>2026-05-15T15:11:28+02:00</time>
      </trkpt>
      <trkpt lat="47.40441" lon="5.51198">
        <ele>184.40039</ele>
        <time>2026-05-15T15:11:29+02:00</time>
      </trkpt>
      <trkpt lat="47.40441" lon="5.51207">
        <ele>184.40039</ele>
        <time>2026-05-15T15:11:30+02:00</time>
      </trkpt>
      <trkpt lat="47.40442" lon="5.51215">
        <ele>184.40039</ele>
        <time>2026-05-15T15:11:31+02:00</time>
      </trkpt>
      <trkpt lat="47.40442" lon="5.51224">
        <ele>184.40039</ele>
        <time>2026-05-15T15:11:32+02:00</time>
      </trkpt>
      <trkpt lat="47.40443" lon="5.51232">
        <ele>184.40039</ele>
        <time>2026-05-15T15:11:33+02:00</time>
      </trkpt>
      <trkpt lat="47.40444" lon="5.5124">
        <ele>184.40039</ele>
        <time>2026-05-15T15:11:34+02:00</time>
      </trkpt>
      <trkpt lat="47.40445" lon="5.51248">
        <ele>184.5</ele>
        <time>2026-05-15T15:11:35+02:00</time>
      </trkpt>
      <trkpt lat="47.40445" lon="5.51256">
        <ele>184.5</ele>
        <time>2026-05-15T15:11:36+02:00</time>
      </trkpt>
      <trkpt lat="47.40446" lon="5.51264">
        <ele>184.5</ele>
        <time>2026-05-15T15:11:37+02:00</time>
      </trkpt>
      <trkpt lat="47.40447" lon="5.51272">
        <ele>184.5</ele>
        <time>2026-05-15T15:11:38+02:00</time>
      </trkpt>
      <trkpt lat="47.40447" lon="5.5128">
        <ele>184.40039</ele>
        <time>2026-05-15T15:11:39+02:00</time>
      </trkpt>
      <trkpt lat="47.40448" lon="5.51288">
        <ele>184.40039</ele>
        <time>2026-05-15T15:11:40+02:00</time>
      </trkpt>
      <trkpt lat="47.40448" lon="5.51297">
        <ele>184.40039</ele>
        <time>2026-05-15T15:11:41+02:00</time>
      </trkpt>
      <trkpt lat="47.40449" lon="5.51305">
        <ele>184.40039</ele>
        <time>2026-05-15T15:11:42+02:00</time>
      </trkpt>
      <trkpt lat="47.40449" lon="5.51313">
        <ele>184.40039</ele>
        <time>2026-05-15T15:11:43+02:00</time>
      </trkpt>
      <trkpt lat="47.4045" lon="5.51321">
        <ele>184.40039</ele>
        <time>2026-05-15T15:11:44+02:00</time>
      </trkpt>
      <trkpt lat="47.4045" lon="5.51328">
        <ele>184.40039</ele>
        <time>2026-05-15T15:11:45+02:00</time>
      </trkpt>
      <trkpt lat="47.40451" lon="5.51337">
        <ele>184.2998</ele>
        <time>2026-05-15T15:11:46+02:00</time>
      </trkpt>
      <trkpt lat="47.40452" lon="5.51345">
        <ele>184.2998</ele>
        <time>2026-05-15T15:11:47+02:00</time>
      </trkpt>
      <trkpt lat="47.40453" lon="5.51353">
        <ele>184.2998</ele>
        <time>2026-05-15T15:11:48+02:00</time>
      </trkpt>
      <trkpt lat="47.40453" lon="5.51361">
        <ele>184.2998</ele>
        <time>2026-05-15T15:11:49+02:00</time>
      </trkpt>
      <trkpt lat="47.40454" lon="5.51369">
        <ele>184.2998</ele>
        <time>2026-05-15T15:11:50+02:00</time>
      </trkpt>
      <trkpt lat="47.40455" lon="5.51378">
        <ele>184.40039</ele>
        <time>2026-05-15T15:11:51+02:00</time>
      </trkpt>
      <trkpt lat="47.40455" lon="5.51386">
        <ele>184.40039</ele>
        <time>2026-05-15T15:11:52+02:00</time>
      </trkpt>
      <trkpt lat="47.40456" lon="5.51394">
        <ele>184.40039</ele>
        <time>2026-05-15T15:11:53+02:00</time>
      </trkpt>
      <trkpt lat="47.40456" lon="5.51402">
        <ele>184.40039</ele>
        <time>2026-05-15T15:11:54+02:00</time>
      </trkpt>
      <trkpt lat="47.40457" lon="5.5141">
        <ele>184.2998</ele>
        <time>2026-05-15T15:11:55+02:00</time>
      </trkpt>
      <trkpt lat="47.40457" lon="5.51418">
        <ele>184.2998</ele>
        <time>2026-05-15T15:11:56+02:00</time>
      </trkpt>
      <trkpt lat="47.40458" lon="5.51426">
        <ele>184.2998</ele>
        <time>2026-05-15T15:11:57+02:00</time>
      </trkpt>
      <trkpt lat="47.40458" lon="5.51434">
        <ele>184.2998</ele>
        <time>2026-05-15T15:11:58+02:00</time>
      </trkpt>
      <trkpt lat="47.40459" lon="5.51442">
        <ele>184.2998</ele>
        <time>2026-05-15T15:11:59+02:00</time>
      </trkpt>
      <trkpt lat="47.40459" lon="5.5145">
        <ele>184.2998</ele>
        <time>2026-05-15T15:12:00+02:00</time>
      </trkpt>
      <trkpt lat="47.4046" lon="5.51458">
        <ele>184.2998</ele>
        <time>2026-05-15T15:12:01+02:00</time>
      </trkpt>
      <trkpt lat="47.40461" lon="5.51466">
        <ele>184.2998</ele>
        <time>2026-05-15T15:12:02+02:00</time>
      </trkpt>
      <trkpt lat="47.40461" lon="5.51474">
        <ele>184.2998</ele>
        <time>2026-05-15T15:12:03+02:00</time>
      </trkpt>
      <trkpt lat="47.40462" lon="5.51481">
        <ele>184.2998</ele>
        <time>2026-05-15T15:12:04+02:00</time>
      </trkpt>
      <trkpt lat="47.40463" lon="5.51489">
        <ele>184.2998</ele>
        <time>2026-05-15T15:12:05+02:00</time>
      </trkpt>
      <trkpt lat="47.40463" lon="5.51497">
        <ele>184.2998</ele>
        <time>2026-05-15T15:12:06+02:00</time>
      </trkpt>
      <trkpt lat="47.40464" lon="5.51504">
        <ele>184.2998</ele>
        <time>2026-05-15T15:12:07+02:00</time>
      </trkpt>
      <trkpt lat="47.40465" lon="5.51512">
        <ele>184.2998</ele>
        <time>2026-05-15T15:12:08+02:00</time>
      </trkpt>
      <trkpt lat="47.40465" lon="5.5152">
        <ele>184.2998</ele>
        <time>2026-05-15T15:12:09+02:00</time>
      </trkpt>
      <trkpt lat="47.40466" lon="5.51528">
        <ele>184.2998</ele>
        <time>2026-05-15T15:12:10+02:00</time>
      </trkpt>
      <trkpt lat="47.40467" lon="5.51535">
        <ele>184.2998</ele>
        <time>2026-05-15T15:12:11+02:00</time>
      </trkpt>
      <trkpt lat="47.40467" lon="5.51543">
        <ele>184.2998</ele>
        <time>2026-05-15T15:12:12+02:00</time>
      </trkpt>
      <trkpt lat="47.40468" lon="5.51551">
        <ele>184.2998</ele>
        <time>2026-05-15T15:12:13+02:00</time>
      </trkpt>
      <trkpt lat="47.40469" lon="5.51558">
        <ele>184.2998</ele>
        <time>2026-05-15T15:12:14+02:00</time>
      </trkpt>
      <trkpt lat="47.40469" lon="5.51566">
        <ele>184.2998</ele>
        <time>2026-05-15T15:12:15+02:00</time>
      </trkpt>
      <trkpt lat="47.4047" lon="5.51574">
        <ele>184.2998</ele>
        <time>2026-05-15T15:12:16+02:00</time>
      </trkpt>
      <trkpt lat="47.40471" lon="5.51581">
        <ele>184.2998</ele>
        <time>2026-05-15T15:12:17+02:00</time>
      </trkpt>
      <trkpt lat="47.40471" lon="5.51589">
        <ele>184.2998</ele>
        <time>2026-05-15T15:12:18+02:00</time>
      </trkpt>
      <trkpt lat="47.40472" lon="5.51597">
        <ele>184.2998</ele>
        <time>2026-05-15T15:12:19+02:00</time>
      </trkpt>
      <trkpt lat="47.40473" lon="5.51605">
        <ele>184.2998</ele>
        <time>2026-05-15T15:12:20+02:00</time>
      </trkpt>
      <trkpt lat="47.40474" lon="5.51613">
        <ele>184.2998</ele>
        <time>2026-05-15T15:12:21+02:00</time>
      </trkpt>
      <trkpt lat="47.40474" lon="5.51621">
        <ele>184.2998</ele>
        <time>2026-05-15T15:12:22+02:00</time>
      </trkpt>
      <trkpt lat="47.40475" lon="5.51628">
        <ele>184.2998</ele>
        <time>2026-05-15T15:12:23+02:00</time>
      </trkpt>
      <trkpt lat="47.40476" lon="5.51636">
        <ele>184.2998</ele>
        <time>2026-05-15T15:12:24+02:00</time>
      </trkpt>
      <trkpt lat="47.40476" lon="5.51643">
        <ele>184.2998</ele>
        <time>2026-05-15T15:12:25+02:00</time>
      </trkpt>
      <trkpt lat="47.40477" lon="5.51651">
        <ele>184.2998</ele>
        <time>2026-05-15T15:12:26+02:00</time>
      </trkpt>
      <trkpt lat="47.40477" lon="5.51659">
        <ele>184.2998</ele>
        <time>2026-05-15T15:12:27+02:00</time>
      </trkpt>
      <trkpt lat="47.40478" lon="5.51666">
        <ele>184.40039</ele>
        <time>2026-05-15T15:12:28+02:00</time>
      </trkpt>
      <trkpt lat="47.40479" lon="5.51674">
        <ele>184.40039</ele>
        <time>2026-05-15T15:12:29+02:00</time>
      </trkpt>
      <trkpt lat="47.40479" lon="5.51681">
        <ele>184.5</ele>
        <time>2026-05-15T15:12:30+02:00</time>
      </trkpt>
      <trkpt lat="47.4048" lon="5.51689">
        <ele>184.40039</ele>
        <time>2026-05-15T15:12:31+02:00</time>
      </trkpt>
      <trkpt lat="47.4048" lon="5.51697">
        <ele>184.40039</ele>
        <time>2026-05-15T15:12:32+02:00</time>
      </trkpt>
      <trkpt lat="47.40481" lon="5.51704">
        <ele>184.40039</ele>
        <time>2026-05-15T15:12:33+02:00</time>
      </trkpt>
      <trkpt lat="47.40481" lon="5.51712">
        <ele>184.40039</ele>
        <time>2026-05-15T15:12:34+02:00</time>
      </trkpt>
      <trkpt lat="47.40482" lon="5.5172">
        <ele>184.5</ele>
        <time>2026-05-15T15:12:35+02:00</time>
      </trkpt>
      <trkpt lat="47.40482" lon="5.51728">
        <ele>184.5</ele>
        <time>2026-05-15T15:12:36+02:00</time>
      </trkpt>
      <trkpt lat="47.40482" lon="5.51735">
        <ele>184.5</ele>
        <time>2026-05-15T15:12:37+02:00</time>
      </trkpt>
      <trkpt lat="47.40483" lon="5.51743">
        <ele>184.5</ele>
        <time>2026-05-15T15:12:38+02:00</time>
      </trkpt>
      <trkpt lat="47.40484" lon="5.5175">
        <ele>184.5</ele>
        <time>2026-05-15T15:12:39+02:00</time>
      </trkpt>
      <trkpt lat="47.40485" lon="5.51758">
        <ele>184.5</ele>
        <time>2026-05-15T15:12:40+02:00</time>
      </trkpt>
      <trkpt lat="47.40486" lon="5.51766">
        <ele>184.40039</ele>
        <time>2026-05-15T15:12:41+02:00</time>
      </trkpt>
      <trkpt lat="47.40486" lon="5.51774">
        <ele>184.40039</ele>
        <time>2026-05-15T15:12:42+02:00</time>
      </trkpt>
      <trkpt lat="47.40487" lon="5.51782">
        <ele>184.40039</ele>
        <time>2026-05-15T15:12:43+02:00</time>
      </trkpt>
      <trkpt lat="47.40487" lon="5.5179">
        <ele>184.40039</ele>
        <time>2026-05-15T15:12:44+02:00</time>
      </trkpt>
      <trkpt lat="47.40488" lon="5.51797">
        <ele>184.40039</ele>
        <time>2026-05-15T15:12:45+02:00</time>
      </trkpt>
      <trkpt lat="47.40489" lon="5.51804">
        <ele>184.40039</ele>
        <time>2026-05-15T15:12:46+02:00</time>
      </trkpt>
      <trkpt lat="47.40489" lon="5.51812">
        <ele>184.40039</ele>
        <time>2026-05-15T15:12:47+02:00</time>
      </trkpt>
      <trkpt lat="47.40489" lon="5.5182">
        <ele>184.5</ele>
        <time>2026-05-15T15:12:48+02:00</time>
      </trkpt>
      <trkpt lat="47.4049" lon="5.51828">
        <ele>184.5</ele>
        <time>2026-05-15T15:12:49+02:00</time>
      </trkpt>
      <trkpt lat="47.4049" lon="5.51836">
        <ele>184.5</ele>
        <time>2026-05-15T15:12:50+02:00</time>
      </trkpt>
      <trkpt lat="47.40491" lon="5.51844">
        <ele>184.5</ele>
        <time>2026-05-15T15:12:51+02:00</time>
      </trkpt>
      <trkpt lat="47.40492" lon="5.51852">
        <ele>184.2998</ele>
        <time>2026-05-15T15:12:52+02:00</time>
      </trkpt>
      <trkpt lat="47.40492" lon="5.5186">
        <ele>184.2998</ele>
        <time>2026-05-15T15:12:53+02:00</time>
      </trkpt>
      <trkpt lat="47.40493" lon="5.51867">
        <ele>184.40039</ele>
        <time>2026-05-15T15:12:54+02:00</time>
      </trkpt>
      <trkpt lat="47.40494" lon="5.51875">
        <ele>184.40039</ele>
        <time>2026-05-15T15:12:55+02:00</time>
      </trkpt>
      <trkpt lat="47.40495" lon="5.51883">
        <ele>184.40039</ele>
        <time>2026-05-15T15:12:56+02:00</time>
      </trkpt>
      <trkpt lat="47.40495" lon="5.51891">
        <ele>184.40039</ele>
        <time>2026-05-15T15:12:57+02:00</time>
      </trkpt>
      <trkpt lat="47.40496" lon="5.51899">
        <ele>184.40039</ele>
        <time>2026-05-15T15:12:58+02:00</time>
      </trkpt>
      <trkpt lat="47.40496" lon="5.51907">
        <ele>184.40039</ele>
        <time>2026-05-15T15:12:59+02:00</time>
      </trkpt>
      <trkpt lat="47.40497" lon="5.51915">
        <ele>184.40039</ele>
        <time>2026-05-15T15:13:00+02:00</time>
      </trkpt>
      <trkpt lat="47.40497" lon="5.51923">
        <ele>184.40039</ele>
        <time>2026-05-15T15:13:01+02:00</time>
      </trkpt>
      <trkpt lat="47.40498" lon="5.51931">
        <ele>184.2998</ele>
        <time>2026-05-15T15:13:02+02:00</time>
      </trkpt>
      <trkpt lat="47.40498" lon="5.51939">
        <ele>184.2998</ele>
        <time>2026-05-15T15:13:03+02:00</time>
      </trkpt>
      <trkpt lat="47.40499" lon="5.51946">
        <ele>184.2998</ele>
        <time>2026-05-15T15:13:04+02:00</time>
      </trkpt>
      <trkpt lat="47.40499" lon="5.51954">
        <ele>184.2998</ele>
        <time>2026-05-15T15:13:05+02:00</time>
      </trkpt>
      <trkpt lat="47.405" lon="5.51962">
        <ele>184.2998</ele>
        <time>2026-05-15T15:13:06+02:00</time>
      </trkpt>
      <trkpt lat="47.405" lon="5.51969">
        <ele>184.2998</ele>
        <time>2026-05-15T15:13:07+02:00</time>
      </trkpt>
      <trkpt lat="47.40501" lon="5.51977">
        <ele>184.2998</ele>
        <time>2026-05-15T15:13:08+02:00</time>
      </trkpt>
      <trkpt lat="47.40502" lon="5.51985">
        <ele>184.2998</ele>
        <time>2026-05-15T15:13:09+02:00</time>
      </trkpt>
      <trkpt lat="47.40502" lon="5.51993">
        <ele>184.40039</ele>
        <time>2026-05-15T15:13:10+02:00</time>
      </trkpt>
      <trkpt lat="47.40503" lon="5.52001">
        <ele>184.40039</ele>
        <time>2026-05-15T15:13:11+02:00</time>
      </trkpt>
      <trkpt lat="47.40503" lon="5.52009">
        <ele>184.40039</ele>
        <time>2026-05-15T15:13:12+02:00</time>
      </trkpt>
      <trkpt lat="47.40504" lon="5.52017">
        <ele>184.2998</ele>
        <time>2026-05-15T15:13:13+02:00</time>
      </trkpt>
      <trkpt lat="47.40505" lon="5.52025">
        <ele>184.2998</ele>
        <time>2026-05-15T15:13:14+02:00</time>
      </trkpt>
      <trkpt lat="47.40506" lon="5.52033">
        <ele>184.2998</ele>
        <time>2026-05-15T15:13:15+02:00</time>
      </trkpt>
      <trkpt lat="47.40506" lon="5.52041">
        <ele>184.2998</ele>
        <time>2026-05-15T15:13:16+02:00</time>
      </trkpt>
      <trkpt lat="47.40507" lon="5.52049">
        <ele>184.2998</ele>
        <time>2026-05-15T15:13:17+02:00</time>
      </trkpt>
      <trkpt lat="47.40508" lon="5.52057">
        <ele>184.2998</ele>
        <time>2026-05-15T15:13:18+02:00</time>
      </trkpt>
      <trkpt lat="47.40508" lon="5.52065">
        <ele>184.2998</ele>
        <time>2026-05-15T15:13:19+02:00</time>
      </trkpt>
      <trkpt lat="47.40509" lon="5.52073">
        <ele>184.2002</ele>
        <time>2026-05-15T15:13:20+02:00</time>
      </trkpt>
      <trkpt lat="47.4051" lon="5.52081">
        <ele>184.2002</ele>
        <time>2026-05-15T15:13:21+02:00</time>
      </trkpt>
      <trkpt lat="47.40511" lon="5.5209">
        <ele>184.2002</ele>
        <time>2026-05-15T15:13:22+02:00</time>
      </trkpt>
      <trkpt lat="47.40513" lon="5.52113">
        <ele>184.2002</ele>
        <time>2026-05-15T15:13:23+02:00</time>
      </trkpt>
      <trkpt lat="47.40514" lon="5.52121">
        <ele>184.2002</ele>
        <time>2026-05-15T15:13:24+02:00</time>
      </trkpt>
      <trkpt lat="47.40515" lon="5.52129">
        <ele>184.2002</ele>
        <time>2026-05-15T15:13:25+02:00</time>
      </trkpt>
      <trkpt lat="47.40515" lon="5.52137">
        <ele>184.2002</ele>
        <time>2026-05-15T15:13:26+02:00</time>
      </trkpt>
      <trkpt lat="47.40516" lon="5.52145">
        <ele>184.2002</ele>
        <time>2026-05-15T15:13:27+02:00</time>
      </trkpt>
      <trkpt lat="47.40516" lon="5.52153">
        <ele>184.2002</ele>
        <time>2026-05-15T15:13:28+02:00</time>
      </trkpt>
      <trkpt lat="47.40517" lon="5.52161">
        <ele>184.2002</ele>
        <time>2026-05-15T15:13:29+02:00</time>
      </trkpt>
      <trkpt lat="47.40518" lon="5.52169">
        <ele>184.2002</ele>
        <time>2026-05-15T15:13:30+02:00</time>
      </trkpt>
      <trkpt lat="47.40519" lon="5.52177">
        <ele>184.2002</ele>
        <time>2026-05-15T15:13:31+02:00</time>
      </trkpt>
      <trkpt lat="47.40519" lon="5.52185">
        <ele>184.2002</ele>
        <time>2026-05-15T15:13:32+02:00</time>
      </trkpt>
      <trkpt lat="47.4052" lon="5.52193">
        <ele>184.2002</ele>
        <time>2026-05-15T15:13:33+02:00</time>
      </trkpt>
      <trkpt lat="47.4052" lon="5.52201">
        <ele>184.2002</ele>
        <time>2026-05-15T15:13:34+02:00</time>
      </trkpt>
      <trkpt lat="47.40521" lon="5.52209">
        <ele>184.2998</ele>
        <time>2026-05-15T15:13:35+02:00</time>
      </trkpt>
      <trkpt lat="47.40522" lon="5.52217">
        <ele>184.2998</ele>
        <time>2026-05-15T15:13:36+02:00</time>
      </trkpt>
      <trkpt lat="47.40522" lon="5.52225">
        <ele>184.2998</ele>
        <time>2026-05-15T15:13:37+02:00</time>
      </trkpt>
      <trkpt lat="47.40523" lon="5.52233">
        <ele>184.40039</ele>
        <time>2026-05-15T15:13:38+02:00</time>
      </trkpt>
      <trkpt lat="47.40523" lon="5.52241">
        <ele>184.40039</ele>
        <time>2026-05-15T15:13:39+02:00</time>
      </trkpt>
      <trkpt lat="47.40524" lon="5.52249">
        <ele>184.40039</ele>
        <time>2026-05-15T15:13:40+02:00</time>
      </trkpt>
      <trkpt lat="47.40524" lon="5.52257">
        <ele>184.5</ele>
        <time>2026-05-15T15:13:41+02:00</time>
      </trkpt>
      <trkpt lat="47.40525" lon="5.52265">
        <ele>184.5</ele>
        <time>2026-05-15T15:13:42+02:00</time>
      </trkpt>
      <trkpt lat="47.40526" lon="5.52273">
        <ele>184.5</ele>
        <time>2026-05-15T15:13:43+02:00</time>
      </trkpt>
      <trkpt lat="47.40526" lon="5.5228">
        <ele>184.5</ele>
        <time>2026-05-15T15:13:44+02:00</time>
      </trkpt>
      <trkpt lat="47.40527" lon="5.52288">
        <ele>184.40039</ele>
        <time>2026-05-15T15:13:45+02:00</time>
      </trkpt>
      <trkpt lat="47.40528" lon="5.52296">
        <ele>184.40039</ele>
        <time>2026-05-15T15:13:46+02:00</time>
      </trkpt>
      <trkpt lat="47.40529" lon="5.52304">
        <ele>184.40039</ele>
        <time>2026-05-15T15:13:47+02:00</time>
      </trkpt>
      <trkpt lat="47.40529" lon="5.52312">
        <ele>184.40039</ele>
        <time>2026-05-15T15:13:48+02:00</time>
      </trkpt>
      <trkpt lat="47.4053" lon="5.5232">
        <ele>184.40039</ele>
        <time>2026-05-15T15:13:49+02:00</time>
      </trkpt>
      <trkpt lat="47.40531" lon="5.52328">
        <ele>184.40039</ele>
        <time>2026-05-15T15:13:50+02:00</time>
      </trkpt>
      <trkpt lat="47.40531" lon="5.52336">
        <ele>184.40039</ele>
        <time>2026-05-15T15:13:51+02:00</time>
      </trkpt>
      <trkpt lat="47.40532" lon="5.52344">
        <ele>184.40039</ele>
        <time>2026-05-15T15:13:52+02:00</time>
      </trkpt>
      <trkpt lat="47.40532" lon="5.52351">
        <ele>184.40039</ele>
        <time>2026-05-15T15:13:53+02:00</time>
      </trkpt>
      <trkpt lat="47.40533" lon="5.52359">
        <ele>184.40039</ele>
        <time>2026-05-15T15:13:54+02:00</time>
      </trkpt>
      <trkpt lat="47.40534" lon="5.52367">
        <ele>184.40039</ele>
        <time>2026-05-15T15:13:55+02:00</time>
      </trkpt>
      <trkpt lat="47.40534" lon="5.52375">
        <ele>184.40039</ele>
        <time>2026-05-15T15:13:56+02:00</time>
      </trkpt>
      <trkpt lat="47.40535" lon="5.52383">
        <ele>184.40039</ele>
        <time>2026-05-15T15:13:57+02:00</time>
      </trkpt>
      <trkpt lat="47.40535" lon="5.52391">
        <ele>184.40039</ele>
        <time>2026-05-15T15:13:58+02:00</time>
      </trkpt>
      <trkpt lat="47.40536" lon="5.52399">
        <ele>184.40039</ele>
        <time>2026-05-15T15:13:59+02:00</time>
      </trkpt>
      <trkpt lat="47.40537" lon="5.52408">
        <ele>184.40039</ele>
        <time>2026-05-15T15:14:00+02:00</time>
      </trkpt>
      <trkpt lat="47.40537" lon="5.52416">
        <ele>184.5</ele>
        <time>2026-05-15T15:14:01+02:00</time>
      </trkpt>
      <trkpt lat="47.40538" lon="5.52424">
        <ele>184.40039</ele>
        <time>2026-05-15T15:14:02+02:00</time>
      </trkpt>
      <trkpt lat="47.40539" lon="5.52432">
        <ele>184.40039</ele>
        <time>2026-05-15T15:14:03+02:00</time>
      </trkpt>
      <trkpt lat="47.4054" lon="5.5244">
        <ele>184.40039</ele>
        <time>2026-05-15T15:14:04+02:00</time>
      </trkpt>
      <trkpt lat="47.4054" lon="5.52448">
        <ele>184.40039</ele>
        <time>2026-05-15T15:14:05+02:00</time>
      </trkpt>
      <trkpt lat="47.4054" lon="5.52456">
        <ele>184.40039</ele>
        <time>2026-05-15T15:14:06+02:00</time>
      </trkpt>
      <trkpt lat="47.40541" lon="5.52464">
        <ele>184.40039</ele>
        <time>2026-05-15T15:14:07+02:00</time>
      </trkpt>
      <trkpt lat="47.40542" lon="5.52472">
        <ele>184.40039</ele>
        <time>2026-05-15T15:14:08+02:00</time>
      </trkpt>
      <trkpt lat="47.40543" lon="5.5248">
        <ele>184.40039</ele>
        <time>2026-05-15T15:14:09+02:00</time>
      </trkpt>
      <trkpt lat="47.40543" lon="5.52487">
        <ele>184.40039</ele>
        <time>2026-05-15T15:14:10+02:00</time>
      </trkpt>
      <trkpt lat="47.40544" lon="5.52495">
        <ele>184.2998</ele>
        <time>2026-05-15T15:14:11+02:00</time>
      </trkpt>
      <trkpt lat="47.40545" lon="5.52503">
        <ele>184.2998</ele>
        <time>2026-05-15T15:14:12+02:00</time>
      </trkpt>
      <trkpt lat="47.40545" lon="5.5251">
        <ele>184.2998</ele>
        <time>2026-05-15T15:14:13+02:00</time>
      </trkpt>
      <trkpt lat="47.40546" lon="5.52518">
        <ele>184.2998</ele>
        <time>2026-05-15T15:14:14+02:00</time>
      </trkpt>
      <trkpt lat="47.40546" lon="5.52526">
        <ele>184.2998</ele>
        <time>2026-05-15T15:14:15+02:00</time>
      </trkpt>
      <trkpt lat="47.40547" lon="5.52533">
        <ele>184.2998</ele>
        <time>2026-05-15T15:14:16+02:00</time>
      </trkpt>
      <trkpt lat="47.40548" lon="5.52541">
        <ele>184.5</ele>
        <time>2026-05-15T15:14:17+02:00</time>
      </trkpt>
      <trkpt lat="47.40548" lon="5.52549">
        <ele>184.7998</ele>
        <time>2026-05-15T15:14:18+02:00</time>
      </trkpt>
      <trkpt lat="47.40549" lon="5.52557">
        <ele>185.10059</ele>
        <time>2026-05-15T15:14:19+02:00</time>
      </trkpt>
      <trkpt lat="47.40549" lon="5.52565">
        <ele>185.2002</ele>
        <time>2026-05-15T15:14:20+02:00</time>
      </trkpt>
      <trkpt lat="47.4055" lon="5.52573">
        <ele>185.2998</ele>
        <time>2026-05-15T15:14:21+02:00</time>
      </trkpt>
      <trkpt lat="47.4055" lon="5.5258">
        <ele>185.2002</ele>
        <time>2026-05-15T15:14:22+02:00</time>
      </trkpt>
      <trkpt lat="47.40551" lon="5.52588">
        <ele>185.2002</ele>
        <time>2026-05-15T15:14:23+02:00</time>
      </trkpt>
      <trkpt lat="47.40551" lon="5.52596">
        <ele>185.2002</ele>
        <time>2026-05-15T15:14:24+02:00</time>
      </trkpt>
      <trkpt lat="47.40552" lon="5.52603">
        <ele>185.2002</ele>
        <time>2026-05-15T15:14:25+02:00</time>
      </trkpt>
      <trkpt lat="47.40552" lon="5.52611">
        <ele>185.2002</ele>
        <time>2026-05-15T15:14:26+02:00</time>
      </trkpt>
      <trkpt lat="47.40553" lon="5.52618">
        <ele>185.2002</ele>
        <time>2026-05-15T15:14:27+02:00</time>
      </trkpt>
      <trkpt lat="47.40553" lon="5.52626">
        <ele>185.2002</ele>
        <time>2026-05-15T15:14:28+02:00</time>
      </trkpt>
      <trkpt lat="47.40554" lon="5.52634">
        <ele>185.2002</ele>
        <time>2026-05-15T15:14:29+02:00</time>
      </trkpt>
      <trkpt lat="47.40555" lon="5.52642">
        <ele>185.2002</ele>
        <time>2026-05-15T15:14:30+02:00</time>
      </trkpt>
      <trkpt lat="47.40555" lon="5.5265">
        <ele>185.2002</ele>
        <time>2026-05-15T15:14:31+02:00</time>
      </trkpt>
      <trkpt lat="47.40556" lon="5.52657">
        <ele>185.2002</ele>
        <time>2026-05-15T15:14:32+02:00</time>
      </trkpt>
      <trkpt lat="47.40556" lon="5.52665">
        <ele>185.2002</ele>
        <time>2026-05-15T15:14:33+02:00</time>
      </trkpt>
      <trkpt lat="47.40556" lon="5.52673">
        <ele>185.2002</ele>
        <time>2026-05-15T15:14:34+02:00</time>
      </trkpt>
      <trkpt lat="47.40557" lon="5.5268">
        <ele>185.2002</ele>
        <time>2026-05-15T15:14:35+02:00</time>
      </trkpt>
      <trkpt lat="47.40558" lon="5.52688">
        <ele>185.2002</ele>
        <time>2026-05-15T15:14:36+02:00</time>
      </trkpt>
      <trkpt lat="47.40558" lon="5.52696">
        <ele>185.2002</ele>
        <time>2026-05-15T15:14:37+02:00</time>
      </trkpt>
      <trkpt lat="47.40559" lon="5.52704">
        <ele>185.2002</ele>
        <time>2026-05-15T15:14:38+02:00</time>
      </trkpt>
      <trkpt lat="47.4056" lon="5.52712">
        <ele>185.2002</ele>
        <time>2026-05-15T15:14:39+02:00</time>
      </trkpt>
      <trkpt lat="47.4056" lon="5.5272">
        <ele>185.2002</ele>
        <time>2026-05-15T15:14:40+02:00</time>
      </trkpt>
      <trkpt lat="47.40561" lon="5.52728">
        <ele>185.2002</ele>
        <time>2026-05-15T15:14:41+02:00</time>
      </trkpt>
      <trkpt lat="47.40561" lon="5.52735">
        <ele>185.2002</ele>
        <time>2026-05-15T15:14:42+02:00</time>
      </trkpt>
      <trkpt lat="47.40562" lon="5.52743">
        <ele>185.10059</ele>
        <time>2026-05-15T15:14:43+02:00</time>
      </trkpt>
      <trkpt lat="47.40562" lon="5.52751">
        <ele>185.10059</ele>
        <time>2026-05-15T15:14:44+02:00</time>
      </trkpt>
      <trkpt lat="47.40563" lon="5.52759">
        <ele>185.10059</ele>
        <time>2026-05-15T15:14:45+02:00</time>
      </trkpt>
      <trkpt lat="47.40563" lon="5.52767">
        <ele>185.10059</ele>
        <time>2026-05-15T15:14:46+02:00</time>
      </trkpt>
      <trkpt lat="47.40564" lon="5.52775">
        <ele>185.10059</ele>
        <time>2026-05-15T15:14:47+02:00</time>
      </trkpt>
      <trkpt lat="47.40565" lon="5.52782">
        <ele>185.10059</ele>
        <time>2026-05-15T15:14:48+02:00</time>
      </trkpt>
      <trkpt lat="47.40565" lon="5.5279">
        <ele>185.10059</ele>
        <time>2026-05-15T15:14:49+02:00</time>
      </trkpt>
      <trkpt lat="47.40566" lon="5.52798">
        <ele>185.10059</ele>
        <time>2026-05-15T15:14:50+02:00</time>
      </trkpt>
      <trkpt lat="47.40567" lon="5.52806">
        <ele>185.2002</ele>
        <time>2026-05-15T15:14:51+02:00</time>
      </trkpt>
      <trkpt lat="47.40567" lon="5.52813">
        <ele>185.2002</ele>
        <time>2026-05-15T15:14:52+02:00</time>
      </trkpt>
      <trkpt lat="47.40568" lon="5.52821">
        <ele>185.2002</ele>
        <time>2026-05-15T15:14:53+02:00</time>
      </trkpt>
      <trkpt lat="47.40568" lon="5.52829">
        <ele>185.10059</ele>
        <time>2026-05-15T15:14:54+02:00</time>
      </trkpt>
      <trkpt lat="47.40569" lon="5.52837">
        <ele>185.10059</ele>
        <time>2026-05-15T15:14:55+02:00</time>
      </trkpt>
      <trkpt lat="47.4057" lon="5.52845">
        <ele>185.10059</ele>
        <time>2026-05-15T15:14:56+02:00</time>
      </trkpt>
      <trkpt lat="47.40571" lon="5.52853">
        <ele>185.10059</ele>
        <time>2026-05-15T15:14:57+02:00</time>
      </trkpt>
      <trkpt lat="47.40571" lon="5.52861">
        <ele>185.10059</ele>
        <time>2026-05-15T15:14:58+02:00</time>
      </trkpt>
      <trkpt lat="47.40572" lon="5.52869">
        <ele>185.10059</ele>
        <time>2026-05-15T15:14:59+02:00</time>
      </trkpt>
      <trkpt lat="47.40573" lon="5.52877">
        <ele>185.2002</ele>
        <time>2026-05-15T15:15:00+02:00</time>
      </trkpt>
      <trkpt lat="47.40574" lon="5.52885">
        <ele>185.2002</ele>
        <time>2026-05-15T15:15:01+02:00</time>
      </trkpt>
      <trkpt lat="47.40575" lon="5.52893">
        <ele>185.2998</ele>
        <time>2026-05-15T15:15:02+02:00</time>
      </trkpt>
      <trkpt lat="47.40576" lon="5.52901">
        <ele>185.2998</ele>
        <time>2026-05-15T15:15:03+02:00</time>
      </trkpt>
      <trkpt lat="47.40577" lon="5.52909">
        <ele>185.2998</ele>
        <time>2026-05-15T15:15:04+02:00</time>
      </trkpt>
      <trkpt lat="47.40577" lon="5.52917">
        <ele>185.2998</ele>
        <time>2026-05-15T15:15:05+02:00</time>
      </trkpt>
      <trkpt lat="47.40578" lon="5.52925">
        <ele>185.2998</ele>
        <time>2026-05-15T15:15:06+02:00</time>
      </trkpt>
      <trkpt lat="47.40578" lon="5.52933">
        <ele>185.2998</ele>
        <time>2026-05-15T15:15:07+02:00</time>
      </trkpt>
      <trkpt lat="47.40579" lon="5.52941">
        <ele>185.2998</ele>
        <time>2026-05-15T15:15:08+02:00</time>
      </trkpt>
      <trkpt lat="47.40579" lon="5.52949">
        <ele>185.2998</ele>
        <time>2026-05-15T15:15:09+02:00</time>
      </trkpt>
      <trkpt lat="47.4058" lon="5.52957">
        <ele>185.2998</ele>
        <time>2026-05-15T15:15:10+02:00</time>
      </trkpt>
      <trkpt lat="47.4058" lon="5.52965">
        <ele>185.2998</ele>
        <time>2026-05-15T15:15:11+02:00</time>
      </trkpt>
      <trkpt lat="47.40581" lon="5.52974">
        <ele>185.2998</ele>
        <time>2026-05-15T15:15:12+02:00</time>
      </trkpt>
      <trkpt lat="47.40582" lon="5.52982">
        <ele>185.2998</ele>
        <time>2026-05-15T15:15:13+02:00</time>
      </trkpt>
      <trkpt lat="47.40582" lon="5.5299">
        <ele>185.2998</ele>
        <time>2026-05-15T15:15:14+02:00</time>
      </trkpt>
      <trkpt lat="47.40583" lon="5.52998">
        <ele>185.2998</ele>
        <time>2026-05-15T15:15:15+02:00</time>
      </trkpt>
      <trkpt lat="47.40584" lon="5.53005">
        <ele>185.2998</ele>
        <time>2026-05-15T15:15:16+02:00</time>
      </trkpt>
      <trkpt lat="47.40584" lon="5.53013">
        <ele>185.2998</ele>
        <time>2026-05-15T15:15:17+02:00</time>
      </trkpt>
      <trkpt lat="47.40585" lon="5.53022">
        <ele>185.2998</ele>
        <time>2026-05-15T15:15:18+02:00</time>
      </trkpt>
      <trkpt lat="47.40586" lon="5.5303">
        <ele>185.2998</ele>
        <time>2026-05-15T15:15:19+02:00</time>
      </trkpt>
      <trkpt lat="47.40587" lon="5.53037">
        <ele>185.2998</ele>
        <time>2026-05-15T15:15:20+02:00</time>
      </trkpt>
      <trkpt lat="47.40587" lon="5.53045">
        <ele>185.2998</ele>
        <time>2026-05-15T15:15:21+02:00</time>
      </trkpt>
      <trkpt lat="47.40588" lon="5.53053">
        <ele>185.2998</ele>
        <time>2026-05-15T15:15:22+02:00</time>
      </trkpt>
      <trkpt lat="47.40589" lon="5.5306">
        <ele>185.2998</ele>
        <time>2026-05-15T15:15:23+02:00</time>
      </trkpt>
      <trkpt lat="47.40589" lon="5.53068">
        <ele>185.2998</ele>
        <time>2026-05-15T15:15:24+02:00</time>
      </trkpt>
      <trkpt lat="47.4059" lon="5.53076">
        <ele>185.2998</ele>
        <time>2026-05-15T15:15:25+02:00</time>
      </trkpt>
      <trkpt lat="47.40591" lon="5.53084">
        <ele>185.2002</ele>
        <time>2026-05-15T15:15:26+02:00</time>
      </trkpt>
      <trkpt lat="47.40591" lon="5.53093">
        <ele>185.2998</ele>
        <time>2026-05-15T15:15:27+02:00</time>
      </trkpt>
      <trkpt lat="47.40592" lon="5.53101">
        <ele>185.2998</ele>
        <time>2026-05-15T15:15:28+02:00</time>
      </trkpt>
      <trkpt lat="47.40592" lon="5.53109">
        <ele>185.2998</ele>
        <time>2026-05-15T15:15:29+02:00</time>
      </trkpt>
      <trkpt lat="47.40593" lon="5.53118">
        <ele>185.2998</ele>
        <time>2026-05-15T15:15:30+02:00</time>
      </trkpt>
      <trkpt lat="47.40593" lon="5.53126">
        <ele>185.2998</ele>
        <time>2026-05-15T15:15:31+02:00</time>
      </trkpt>
      <trkpt lat="47.40594" lon="5.53134">
        <ele>185.2998</ele>
        <time>2026-05-15T15:15:32+02:00</time>
      </trkpt>
      <trkpt lat="47.40595" lon="5.53142">
        <ele>185.2998</ele>
        <time>2026-05-15T15:15:33+02:00</time>
      </trkpt>
      <trkpt lat="47.40596" lon="5.5315">
        <ele>185.2002</ele>
        <time>2026-05-15T15:15:34+02:00</time>
      </trkpt>
      <trkpt lat="47.40596" lon="5.53158">
        <ele>185.2002</ele>
        <time>2026-05-15T15:15:35+02:00</time>
      </trkpt>
      <trkpt lat="47.40597" lon="5.53166">
        <ele>185.2002</ele>
        <time>2026-05-15T15:15:36+02:00</time>
      </trkpt>
      <trkpt lat="47.40598" lon="5.53174">
        <ele>185.2002</ele>
        <time>2026-05-15T15:15:37+02:00</time>
      </trkpt>
      <trkpt lat="47.40598" lon="5.53181">
        <ele>185.2002</ele>
        <time>2026-05-15T15:15:38+02:00</time>
      </trkpt>
      <trkpt lat="47.40599" lon="5.53189">
        <ele>185.2002</ele>
        <time>2026-05-15T15:15:39+02:00</time>
      </trkpt>
      <trkpt lat="47.406" lon="5.53197">
        <ele>185.2002</ele>
        <time>2026-05-15T15:15:40+02:00</time>
      </trkpt>
      <trkpt lat="47.406" lon="5.53205">
        <ele>185.2002</ele>
        <time>2026-05-15T15:15:41+02:00</time>
      </trkpt>
      <trkpt lat="47.406" lon="5.53213">
        <ele>185.2002</ele>
        <time>2026-05-15T15:15:42+02:00</time>
      </trkpt>
      <trkpt lat="47.40601" lon="5.5322">
        <ele>185.2002</ele>
        <time>2026-05-15T15:15:43+02:00</time>
      </trkpt>
      <trkpt lat="47.40602" lon="5.53228">
        <ele>185.2002</ele>
        <time>2026-05-15T15:15:44+02:00</time>
      </trkpt>
      <trkpt lat="47.40602" lon="5.53237">
        <ele>185.2002</ele>
        <time>2026-05-15T15:15:45+02:00</time>
      </trkpt>
      <trkpt lat="47.40603" lon="5.53245">
        <ele>185.2002</ele>
        <time>2026-05-15T15:15:46+02:00</time>
      </trkpt>
      <trkpt lat="47.40604" lon="5.53253">
        <ele>185.2002</ele>
        <time>2026-05-15T15:15:47+02:00</time>
      </trkpt>
      <trkpt lat="47.40605" lon="5.53261">
        <ele>185.2002</ele>
        <time>2026-05-15T15:15:48+02:00</time>
      </trkpt>
      <trkpt lat="47.40605" lon="5.5327">
        <ele>185.2002</ele>
        <time>2026-05-15T15:15:49+02:00</time>
      </trkpt>
      <trkpt lat="47.40606" lon="5.53278">
        <ele>185.2002</ele>
        <time>2026-05-15T15:15:50+02:00</time>
      </trkpt>
      <trkpt lat="47.40607" lon="5.53286">
        <ele>185.2002</ele>
        <time>2026-05-15T15:15:51+02:00</time>
      </trkpt>
      <trkpt lat="47.40607" lon="5.53294">
        <ele>185.2002</ele>
        <time>2026-05-15T15:15:52+02:00</time>
      </trkpt>
      <trkpt lat="47.40608" lon="5.53302">
        <ele>185.2002</ele>
        <time>2026-05-15T15:15:53+02:00</time>
      </trkpt>
      <trkpt lat="47.40608" lon="5.5331">
        <ele>185.2002</ele>
        <time>2026-05-15T15:15:54+02:00</time>
      </trkpt>
      <trkpt lat="47.40609" lon="5.53318">
        <ele>185.2998</ele>
        <time>2026-05-15T15:15:55+02:00</time>
      </trkpt>
      <trkpt lat="47.4061" lon="5.53327">
        <ele>185.2998</ele>
        <time>2026-05-15T15:15:56+02:00</time>
      </trkpt>
      <trkpt lat="47.4061" lon="5.53335">
        <ele>185.2998</ele>
        <time>2026-05-15T15:15:57+02:00</time>
      </trkpt>
      <trkpt lat="47.40611" lon="5.53343">
        <ele>185.2998</ele>
        <time>2026-05-15T15:15:58+02:00</time>
      </trkpt>
      <trkpt lat="47.40611" lon="5.5335">
        <ele>185.2998</ele>
        <time>2026-05-15T15:15:59+02:00</time>
      </trkpt>
      <trkpt lat="47.40612" lon="5.53358">
        <ele>185.2998</ele>
        <time>2026-05-15T15:16:00+02:00</time>
      </trkpt>
      <trkpt lat="47.40613" lon="5.53366">
        <ele>185.2998</ele>
        <time>2026-05-15T15:16:01+02:00</time>
      </trkpt>
      <trkpt lat="47.40613" lon="5.53374">
        <ele>185.2998</ele>
        <time>2026-05-15T15:16:02+02:00</time>
      </trkpt>
      <trkpt lat="47.40614" lon="5.53381">
        <ele>185.2998</ele>
        <time>2026-05-15T15:16:03+02:00</time>
      </trkpt>
      <trkpt lat="47.40614" lon="5.53389">
        <ele>185.2998</ele>
        <time>2026-05-15T15:16:04+02:00</time>
      </trkpt>
      <trkpt lat="47.40615" lon="5.53397">
        <ele>185.2998</ele>
        <time>2026-05-15T15:16:05+02:00</time>
      </trkpt>
      <trkpt lat="47.40616" lon="5.53405">
        <ele>185.2998</ele>
        <time>2026-05-15T15:16:06+02:00</time>
      </trkpt>
      <trkpt lat="47.40616" lon="5.53413">
        <ele>185.2998</ele>
        <time>2026-05-15T15:16:07+02:00</time>
      </trkpt>
      <trkpt lat="47.40617" lon="5.53421">
        <ele>185.2998</ele>
        <time>2026-05-15T15:16:08+02:00</time>
      </trkpt>
      <trkpt lat="47.40618" lon="5.53429">
        <ele>185.2998</ele>
        <time>2026-05-15T15:16:09+02:00</time>
      </trkpt>
      <trkpt lat="47.40618" lon="5.53437">
        <ele>185.2998</ele>
        <time>2026-05-15T15:16:10+02:00</time>
      </trkpt>
      <trkpt lat="47.40619" lon="5.53445">
        <ele>185.2998</ele>
        <time>2026-05-15T15:16:11+02:00</time>
      </trkpt>
      <trkpt lat="47.4062" lon="5.53453">
        <ele>185.2998</ele>
        <time>2026-05-15T15:16:12+02:00</time>
      </trkpt>
      <trkpt lat="47.40621" lon="5.53461">
        <ele>185.2998</ele>
        <time>2026-05-15T15:16:13+02:00</time>
      </trkpt>
      <trkpt lat="47.40621" lon="5.53469">
        <ele>185.2998</ele>
        <time>2026-05-15T15:16:14+02:00</time>
      </trkpt>
      <trkpt lat="47.40622" lon="5.53478">
        <ele>185.2998</ele>
        <time>2026-05-15T15:16:15+02:00</time>
      </trkpt>
      <trkpt lat="47.40623" lon="5.53486">
        <ele>185.2998</ele>
        <time>2026-05-15T15:16:16+02:00</time>
      </trkpt>
      <trkpt lat="47.40624" lon="5.53494">
        <ele>185.2998</ele>
        <time>2026-05-15T15:16:17+02:00</time>
      </trkpt>
      <trkpt lat="47.40625" lon="5.53503">
        <ele>185.2998</ele>
        <time>2026-05-15T15:16:18+02:00</time>
      </trkpt>
      <trkpt lat="47.40626" lon="5.5351">
        <ele>185.40039</ele>
        <time>2026-05-15T15:16:19+02:00</time>
      </trkpt>
      <trkpt lat="47.40627" lon="5.53518">
        <ele>185.40039</ele>
        <time>2026-05-15T15:16:20+02:00</time>
      </trkpt>
      <trkpt lat="47.40629" lon="5.53525">
        <ele>185.40039</ele>
        <time>2026-05-15T15:16:21+02:00</time>
      </trkpt>
      <trkpt lat="47.4063" lon="5.53532">
        <ele>185.40039</ele>
        <time>2026-05-15T15:16:22+02:00</time>
      </trkpt>
      <trkpt lat="47.40632" lon="5.53539">
        <ele>185.5</ele>
        <time>2026-05-15T15:16:23+02:00</time>
      </trkpt>
      <trkpt lat="47.40633" lon="5.53546">
        <ele>185.5</ele>
        <time>2026-05-15T15:16:24+02:00</time>
      </trkpt>
      <trkpt lat="47.40634" lon="5.53552">
        <ele>185.5</ele>
        <time>2026-05-15T15:16:25+02:00</time>
      </trkpt>
      <trkpt lat="47.40635" lon="5.53559">
        <ele>185.5</ele>
        <time>2026-05-15T15:16:26+02:00</time>
      </trkpt>
      <trkpt lat="47.40636" lon="5.53565">
        <ele>185.5</ele>
        <time>2026-05-15T15:16:27+02:00</time>
      </trkpt>
      <trkpt lat="47.40637" lon="5.53571">
        <ele>185.7002</ele>
        <time>2026-05-15T15:16:28+02:00</time>
      </trkpt>
      <trkpt lat="47.40638" lon="5.53577">
        <ele>185.7002</ele>
        <time>2026-05-15T15:16:29+02:00</time>
      </trkpt>
      <trkpt lat="47.40639" lon="5.53583">
        <ele>185.7002</ele>
        <time>2026-05-15T15:16:30+02:00</time>
      </trkpt>
      <trkpt lat="47.4064" lon="5.53589">
        <ele>185.7002</ele>
        <time>2026-05-15T15:16:31+02:00</time>
      </trkpt>
      <trkpt lat="47.40641" lon="5.53595">
        <ele>185.7002</ele>
        <time>2026-05-15T15:16:32+02:00</time>
      </trkpt>
      <trkpt lat="47.40642" lon="5.53601">
        <ele>185.7002</ele>
        <time>2026-05-15T15:16:33+02:00</time>
      </trkpt>
      <trkpt lat="47.40644" lon="5.53607">
        <ele>186</ele>
        <time>2026-05-15T15:16:34+02:00</time>
      </trkpt>
      <trkpt lat="47.40645" lon="5.53613">
        <ele>186</ele>
        <time>2026-05-15T15:16:35+02:00</time>
      </trkpt>
      <trkpt lat="47.40646" lon="5.53618">
        <ele>185.90039</ele>
        <time>2026-05-15T15:16:36+02:00</time>
      </trkpt>
      <trkpt lat="47.40646" lon="5.53623">
        <ele>185.90039</ele>
        <time>2026-05-15T15:16:37+02:00</time>
      </trkpt>
      <trkpt lat="47.40646" lon="5.53627">
        <ele>185.60059</ele>
        <time>2026-05-15T15:16:38+02:00</time>
      </trkpt>
      <trkpt lat="47.40645" lon="5.53631">
        <ele>185.60059</ele>
        <time>2026-05-15T15:16:39+02:00</time>
      </trkpt>
      <trkpt lat="47.40642" lon="5.53633">
        <ele>185.5</ele>
        <time>2026-05-15T15:16:40+02:00</time>
      </trkpt>
      <trkpt lat="47.40638" lon="5.53634">
        <ele>185.40039</ele>
        <time>2026-05-15T15:16:41+02:00</time>
      </trkpt>
      <trkpt lat="47.40635" lon="5.53635">
        <ele>185.40039</ele>
        <time>2026-05-15T15:16:42+02:00</time>
      </trkpt>
      <trkpt lat="47.40631" lon="5.53637">
        <ele>185.40039</ele>
        <time>2026-05-15T15:16:43+02:00</time>
      </trkpt>
      <trkpt lat="47.40627" lon="5.53638">
        <ele>185.5</ele>
        <time>2026-05-15T15:16:44+02:00</time>
      </trkpt>
      <trkpt lat="47.40623" lon="5.53638">
        <ele>185.60059</ele>
        <time>2026-05-15T15:16:45+02:00</time>
      </trkpt>
      <trkpt lat="47.40619" lon="5.53639">
        <ele>186</ele>
        <time>2026-05-15T15:16:46+02:00</time>
      </trkpt>
      <trkpt lat="47.40614" lon="5.5364">
        <ele>186</ele>
        <time>2026-05-15T15:16:47+02:00</time>
      </trkpt>
      <trkpt lat="47.4061" lon="5.53641">
        <ele>186.5</ele>
        <time>2026-05-15T15:16:48+02:00</time>
      </trkpt>
      <trkpt lat="47.40606" lon="5.53641">
        <ele>187.2002</ele>
        <time>2026-05-15T15:16:49+02:00</time>
      </trkpt>
      <trkpt lat="47.40602" lon="5.53642">
        <ele>187.2002</ele>
        <time>2026-05-15T15:16:50+02:00</time>
      </trkpt>
      <trkpt lat="47.40598" lon="5.53642">
        <ele>188</ele>
        <time>2026-05-15T15:16:51+02:00</time>
      </trkpt>
      <trkpt lat="47.40595" lon="5.53644">
        <ele>189.40039</ele>
        <time>2026-05-15T15:16:52+02:00</time>
      </trkpt>
      <trkpt lat="47.40593" lon="5.53647">
        <ele>189.40039</ele>
        <time>2026-05-15T15:16:53+02:00</time>
      </trkpt>
      <trkpt lat="47.40592" lon="5.5365">
        <ele>189.40039</ele>
        <time>2026-05-15T15:16:54+02:00</time>
      </trkpt>
      <trkpt lat="47.40592" lon="5.53655">
        <ele>189.7002</ele>
        <time>2026-05-15T15:16:55+02:00</time>
      </trkpt>
      <trkpt lat="47.40593" lon="5.53661">
        <ele>189.7002</ele>
        <time>2026-05-15T15:16:56+02:00</time>
      </trkpt>
      <trkpt lat="47.40593" lon="5.53667">
        <ele>189.7002</ele>
        <time>2026-05-15T15:16:57+02:00</time>
      </trkpt>
      <trkpt lat="47.40593" lon="5.53674">
        <ele>189.40039</ele>
        <time>2026-05-15T15:16:58+02:00</time>
      </trkpt>
      <trkpt lat="47.40594" lon="5.53681">
        <ele>189</ele>
        <time>2026-05-15T15:16:59+02:00</time>
      </trkpt>
      <trkpt lat="47.40594" lon="5.53688">
        <ele>188.7002</ele>
        <time>2026-05-15T15:17:00+02:00</time>
      </trkpt>
      <trkpt lat="47.40594" lon="5.53696">
        <ele>188.5</ele>
        <time>2026-05-15T15:17:01+02:00</time>
      </trkpt>
      <trkpt lat="47.40595" lon="5.53704">
        <ele>188.2998</ele>
        <time>2026-05-15T15:17:02+02:00</time>
      </trkpt>
      <trkpt lat="47.40597" lon="5.53712">
        <ele>187.7002</ele>
        <time>2026-05-15T15:17:03+02:00</time>
      </trkpt>
      <trkpt lat="47.40597" lon="5.53719">
        <ele>187.7002</ele>
        <time>2026-05-15T15:17:04+02:00</time>
      </trkpt>
      <trkpt lat="47.40599" lon="5.53726">
        <ele>187.7002</ele>
        <time>2026-05-15T15:17:05+02:00</time>
      </trkpt>
      <trkpt lat="47.406" lon="5.53734">
        <ele>188.10059</ele>
        <time>2026-05-15T15:17:06+02:00</time>
      </trkpt>
      <trkpt lat="47.40601" lon="5.53741">
        <ele>188.7002</ele>
        <time>2026-05-15T15:17:07+02:00</time>
      </trkpt>
      <trkpt lat="47.40603" lon="5.53748">
        <ele>188.5</ele>
        <time>2026-05-15T15:17:08+02:00</time>
      </trkpt>
      <trkpt lat="47.40605" lon="5.53755">
        <ele>188.7998</ele>
        <time>2026-05-15T15:17:09+02:00</time>
      </trkpt>
      <trkpt lat="47.40607" lon="5.53763">
        <ele>188.90039</ele>
        <time>2026-05-15T15:17:10+02:00</time>
      </trkpt>
      <trkpt lat="47.40609" lon="5.5377">
        <ele>188.2002</ele>
        <time>2026-05-15T15:17:11+02:00</time>
      </trkpt>
      <trkpt lat="47.40611" lon="5.53778">
        <ele>188.5</ele>
        <time>2026-05-15T15:17:12+02:00</time>
      </trkpt>
      <trkpt lat="47.40613" lon="5.53786">
        <ele>188.7002</ele>
        <time>2026-05-15T15:17:13+02:00</time>
      </trkpt>
      <trkpt lat="47.40614" lon="5.53794">
        <ele>188.2998</ele>
        <time>2026-05-15T15:17:14+02:00</time>
      </trkpt>
      <trkpt lat="47.40617" lon="5.53801">
        <ele>188.10059</ele>
        <time>2026-05-15T15:17:15+02:00</time>
      </trkpt>
      <trkpt lat="47.40619" lon="5.53809">
        <ele>187.7998</ele>
        <time>2026-05-15T15:17:16+02:00</time>
      </trkpt>
      <trkpt lat="47.40621" lon="5.53816">
        <ele>187.5</ele>
        <time>2026-05-15T15:17:17+02:00</time>
      </trkpt>
      <trkpt lat="47.40623" lon="5.53824">
        <ele>187.90039</ele>
        <time>2026-05-15T15:17:18+02:00</time>
      </trkpt>
      <trkpt lat="47.40626" lon="5.53831">
        <ele>187.5</ele>
        <time>2026-05-15T15:17:19+02:00</time>
      </trkpt>
      <trkpt lat="47.40628" lon="5.53838">
        <ele>188</ele>
        <time>2026-05-15T15:17:20+02:00</time>
      </trkpt>
      <trkpt lat="47.4063" lon="5.53845">
        <ele>188.7002</ele>
        <time>2026-05-15T15:17:21+02:00</time>
      </trkpt>
      <trkpt lat="47.40632" lon="5.53853">
        <ele>188.2002</ele>
        <time>2026-05-15T15:17:22+02:00</time>
      </trkpt>
      <trkpt lat="47.40635" lon="5.5386">
        <ele>188.5</ele>
        <time>2026-05-15T15:17:23+02:00</time>
      </trkpt>
      <trkpt lat="47.40637" lon="5.53868">
        <ele>187.90039</ele>
        <time>2026-05-15T15:17:24+02:00</time>
      </trkpt>
      <trkpt lat="47.40639" lon="5.53875">
        <ele>188.2002</ele>
        <time>2026-05-15T15:17:25+02:00</time>
      </trkpt>
      <trkpt lat="47.40642" lon="5.53882">
        <ele>188.2002</ele>
        <time>2026-05-15T15:17:26+02:00</time>
      </trkpt>
      <trkpt lat="47.40644" lon="5.53889">
        <ele>187.90039</ele>
        <time>2026-05-15T15:17:27+02:00</time>
      </trkpt>
      <trkpt lat="47.40646" lon="5.53896">
        <ele>188.2998</ele>
        <time>2026-05-15T15:17:28+02:00</time>
      </trkpt>
      <trkpt lat="47.40648" lon="5.53903">
        <ele>188.60059</ele>
        <time>2026-05-15T15:17:29+02:00</time>
      </trkpt>
      <trkpt lat="47.40651" lon="5.5391">
        <ele>188.5</ele>
        <time>2026-05-15T15:17:30+02:00</time>
      </trkpt>
      <trkpt lat="47.40654" lon="5.53918">
        <ele>189</ele>
        <time>2026-05-15T15:17:31+02:00</time>
      </trkpt>
      <trkpt lat="47.40656" lon="5.53924">
        <ele>188.40039</ele>
        <time>2026-05-15T15:17:32+02:00</time>
      </trkpt>
      <trkpt lat="47.40659" lon="5.53931">
        <ele>189</ele>
        <time>2026-05-15T15:17:33+02:00</time>
      </trkpt>
      <trkpt lat="47.40662" lon="5.53938">
        <ele>188.7002</ele>
        <time>2026-05-15T15:17:34+02:00</time>
      </trkpt>
      <trkpt lat="47.40664" lon="5.53945">
        <ele>189.2002</ele>
        <time>2026-05-15T15:17:35+02:00</time>
      </trkpt>
      <trkpt lat="47.40667" lon="5.53951">
        <ele>188.40039</ele>
        <time>2026-05-15T15:17:36+02:00</time>
      </trkpt>
      <trkpt lat="47.4067" lon="5.53957">
        <ele>189.10059</ele>
        <time>2026-05-15T15:17:37+02:00</time>
      </trkpt>
      <trkpt lat="47.40673" lon="5.53963">
        <ele>189.40039</ele>
        <time>2026-05-15T15:17:38+02:00</time>
      </trkpt>
      <trkpt lat="47.40676" lon="5.53969">
        <ele>190.2998</ele>
        <time>2026-05-15T15:17:39+02:00</time>
      </trkpt>
      <trkpt lat="47.40679" lon="5.53975">
        <ele>189.40039</ele>
        <time>2026-05-15T15:17:40+02:00</time>
      </trkpt>
      <trkpt lat="47.40682" lon="5.53981">
        <ele>190</ele>
        <time>2026-05-15T15:17:41+02:00</time>
      </trkpt>
      <trkpt lat="47.40685" lon="5.53986">
        <ele>189.5</ele>
        <time>2026-05-15T15:17:42+02:00</time>
      </trkpt>
      <trkpt lat="47.40688" lon="5.53992">
        <ele>189.5</ele>
        <time>2026-05-15T15:17:43+02:00</time>
      </trkpt>
      <trkpt lat="47.40692" lon="5.53998">
        <ele>189.10059</ele>
        <time>2026-05-15T15:17:44+02:00</time>
      </trkpt>
      <trkpt lat="47.40695" lon="5.54004">
        <ele>189.10059</ele>
        <time>2026-05-15T15:17:45+02:00</time>
      </trkpt>
      <trkpt lat="47.40699" lon="5.54009">
        <ele>189.10059</ele>
        <time>2026-05-15T15:17:46+02:00</time>
      </trkpt>
      <trkpt lat="47.40702" lon="5.54015">
        <ele>189.2002</ele>
        <time>2026-05-15T15:17:47+02:00</time>
      </trkpt>
      <trkpt lat="47.40705" lon="5.54021">
        <ele>190.10059</ele>
        <time>2026-05-15T15:17:48+02:00</time>
      </trkpt>
      <trkpt lat="47.40708" lon="5.54026">
        <ele>189.40039</ele>
        <time>2026-05-15T15:17:49+02:00</time>
      </trkpt>
      <trkpt lat="47.40712" lon="5.54032">
        <ele>190.2998</ele>
        <time>2026-05-15T15:17:50+02:00</time>
      </trkpt>
      <trkpt lat="47.40716" lon="5.54037">
        <ele>189.40039</ele>
        <time>2026-05-15T15:17:51+02:00</time>
      </trkpt>
      <trkpt lat="47.40719" lon="5.54042">
        <ele>189.5</ele>
        <time>2026-05-15T15:17:52+02:00</time>
      </trkpt>
      <trkpt lat="47.40722" lon="5.54048">
        <ele>190.5</ele>
        <time>2026-05-15T15:17:53+02:00</time>
      </trkpt>
      <trkpt lat="47.40726" lon="5.54053">
        <ele>189.90039</ele>
        <time>2026-05-15T15:17:54+02:00</time>
      </trkpt>
      <trkpt lat="47.40729" lon="5.54058">
        <ele>191</ele>
        <time>2026-05-15T15:17:55+02:00</time>
      </trkpt>
      <trkpt lat="47.40733" lon="5.54063">
        <ele>191.2002</ele>
        <time>2026-05-15T15:17:56+02:00</time>
      </trkpt>
      <trkpt lat="47.40737" lon="5.54069">
        <ele>190.2998</ele>
        <time>2026-05-15T15:17:57+02:00</time>
      </trkpt>
      <trkpt lat="47.4074" lon="5.54074">
        <ele>191.2002</ele>
        <time>2026-05-15T15:17:58+02:00</time>
      </trkpt>
      <trkpt lat="47.40744" lon="5.54079">
        <ele>190.60059</ele>
        <time>2026-05-15T15:17:59+02:00</time>
      </trkpt>
      <trkpt lat="47.40748" lon="5.54085">
        <ele>191.60059</ele>
        <time>2026-05-15T15:18:00+02:00</time>
      </trkpt>
      <trkpt lat="47.40751" lon="5.5409">
        <ele>193.10059</ele>
        <time>2026-05-15T15:18:01+02:00</time>
      </trkpt>
      <trkpt lat="47.40755" lon="5.54095">
        <ele>193</ele>
        <time>2026-05-15T15:18:02+02:00</time>
      </trkpt>
      <trkpt lat="47.40759" lon="5.54099">
        <ele>194.10059</ele>
        <time>2026-05-15T15:18:03+02:00</time>
      </trkpt>
      <trkpt lat="47.40762" lon="5.54104">
        <ele>194.10059</ele>
        <time>2026-05-15T15:18:04+02:00</time>
      </trkpt>
      <trkpt lat="47.40766" lon="5.54109">
        <ele>194.2998</ele>
        <time>2026-05-15T15:18:05+02:00</time>
      </trkpt>
      <trkpt lat="47.4077" lon="5.54113">
        <ele>194.2998</ele>
        <time>2026-05-15T15:18:06+02:00</time>
      </trkpt>
      <trkpt lat="47.40775" lon="5.54118">
        <ele>194.2002</ele>
        <time>2026-05-15T15:18:07+02:00</time>
      </trkpt>
      <trkpt lat="47.40779" lon="5.54122">
        <ele>193.60059</ele>
        <time>2026-05-15T15:18:08+02:00</time>
      </trkpt>
      <trkpt lat="47.40783" lon="5.54127">
        <ele>194.40039</ele>
        <time>2026-05-15T15:18:09+02:00</time>
      </trkpt>
      <trkpt lat="47.40788" lon="5.54132">
        <ele>194.90039</ele>
        <time>2026-05-15T15:18:10+02:00</time>
      </trkpt>
      <trkpt lat="47.40792" lon="5.54136">
        <ele>194.90039</ele>
        <time>2026-05-15T15:18:11+02:00</time>
      </trkpt>
      <trkpt lat="47.40797" lon="5.54141">
        <ele>194.7002</ele>
        <time>2026-05-15T15:18:12+02:00</time>
      </trkpt>
      <trkpt lat="47.40801" lon="5.54145">
        <ele>193.60059</ele>
        <time>2026-05-15T15:18:13+02:00</time>
      </trkpt>
      <trkpt lat="47.40806" lon="5.54149">
        <ele>194.2002</ele>
        <time>2026-05-15T15:18:14+02:00</time>
      </trkpt>
      <trkpt lat="47.40809" lon="5.54154">
        <ele>194.2002</ele>
        <time>2026-05-15T15:18:15+02:00</time>
      </trkpt>
      <trkpt lat="47.40814" lon="5.54157">
        <ele>193.5</ele>
        <time>2026-05-15T15:18:16+02:00</time>
      </trkpt>
      <trkpt lat="47.40818" lon="5.54161">
        <ele>194.10059</ele>
        <time>2026-05-15T15:18:17+02:00</time>
      </trkpt>
      <trkpt lat="47.40822" lon="5.54165">
        <ele>194.10059</ele>
        <time>2026-05-15T15:18:18+02:00</time>
      </trkpt>
      <trkpt lat="47.40826" lon="5.54168">
        <ele>193.7002</ele>
        <time>2026-05-15T15:18:19+02:00</time>
      </trkpt>
      <trkpt lat="47.4083" lon="5.54172">
        <ele>192.2998</ele>
        <time>2026-05-15T15:18:20+02:00</time>
      </trkpt>
      <trkpt lat="47.40835" lon="5.54176">
        <ele>192.7998</ele>
        <time>2026-05-15T15:18:21+02:00</time>
      </trkpt>
      <trkpt lat="47.4084" lon="5.5418">
        <ele>191.7998</ele>
        <time>2026-05-15T15:18:22+02:00</time>
      </trkpt>
      <trkpt lat="47.40844" lon="5.54183">
        <ele>193.2998</ele>
        <time>2026-05-15T15:18:23+02:00</time>
      </trkpt>
      <trkpt lat="47.40849" lon="5.54187">
        <ele>192</ele>
        <time>2026-05-15T15:18:24+02:00</time>
      </trkpt>
      <trkpt lat="47.40855" lon="5.54191">
        <ele>190.7002</ele>
        <time>2026-05-15T15:18:25+02:00</time>
      </trkpt>
      <trkpt lat="47.4086" lon="5.54194">
        <ele>190.60059</ele>
        <time>2026-05-15T15:18:26+02:00</time>
      </trkpt>
      <trkpt lat="47.40865" lon="5.54197">
        <ele>190</ele>
        <time>2026-05-15T15:18:27+02:00</time>
      </trkpt>
      <trkpt lat="47.4087" lon="5.54201">
        <ele>190.60059</ele>
        <time>2026-05-15T15:18:28+02:00</time>
      </trkpt>
      <trkpt lat="47.40875" lon="5.54204">
        <ele>190.2002</ele>
        <time>2026-05-15T15:18:29+02:00</time>
      </trkpt>
      <trkpt lat="47.4088" lon="5.54207">
        <ele>190.2002</ele>
        <time>2026-05-15T15:18:30+02:00</time>
      </trkpt>
      <trkpt lat="47.40885" lon="5.54211">
        <ele>191.10059</ele>
        <time>2026-05-15T15:18:31+02:00</time>
      </trkpt>
      <trkpt lat="47.40889" lon="5.54214">
        <ele>190.40039</ele>
        <time>2026-05-15T15:18:32+02:00</time>
      </trkpt>
      <trkpt lat="47.40894" lon="5.54217">
        <ele>189.5</ele>
        <time>2026-05-15T15:18:33+02:00</time>
      </trkpt>
      <trkpt lat="47.40899" lon="5.54221">
        <ele>189.2998</ele>
        <time>2026-05-15T15:18:34+02:00</time>
      </trkpt>
      <trkpt lat="47.40904" lon="5.54224">
        <ele>188.7002</ele>
        <time>2026-05-15T15:18:35+02:00</time>
      </trkpt>
      <trkpt lat="47.40909" lon="5.54227">
        <ele>189.2998</ele>
        <time>2026-05-15T15:18:36+02:00</time>
      </trkpt>
      <trkpt lat="47.40913" lon="5.5423">
        <ele>189.10059</ele>
        <time>2026-05-15T15:18:37+02:00</time>
      </trkpt>
      <trkpt lat="47.40918" lon="5.54233">
        <ele>188.90039</ele>
        <time>2026-05-15T15:18:38+02:00</time>
      </trkpt>
      <trkpt lat="47.40922" lon="5.54236">
        <ele>190</ele>
        <time>2026-05-15T15:18:39+02:00</time>
      </trkpt>
      <trkpt lat="47.40927" lon="5.54239">
        <ele>189.7998</ele>
        <time>2026-05-15T15:18:40+02:00</time>
      </trkpt>
      <trkpt lat="47.40931" lon="5.54242">
        <ele>189.7998</ele>
        <time>2026-05-15T15:18:41+02:00</time>
      </trkpt>
      <trkpt lat="47.40936" lon="5.54245">
        <ele>190.40039</ele>
        <time>2026-05-15T15:18:42+02:00</time>
      </trkpt>
      <trkpt lat="47.40941" lon="5.54249">
        <ele>189.5</ele>
        <time>2026-05-15T15:18:43+02:00</time>
      </trkpt>
      <trkpt lat="47.40945" lon="5.54252">
        <ele>189.10059</ele>
        <time>2026-05-15T15:18:44+02:00</time>
      </trkpt>
      <trkpt lat="47.4095" lon="5.54255">
        <ele>189.10059</ele>
        <time>2026-05-15T15:18:45+02:00</time>
      </trkpt>
      <trkpt lat="47.40954" lon="5.54258">
        <ele>188.60059</ele>
        <time>2026-05-15T15:18:46+02:00</time>
      </trkpt>
      <trkpt lat="47.40959" lon="5.54261">
        <ele>188.90039</ele>
        <time>2026-05-15T15:18:47+02:00</time>
      </trkpt>
      <trkpt lat="47.40963" lon="5.54263">
        <ele>188.7998</ele>
        <time>2026-05-15T15:18:48+02:00</time>
      </trkpt>
      <trkpt lat="47.40967" lon="5.54266">
        <ele>188.7998</ele>
        <time>2026-05-15T15:18:49+02:00</time>
      </trkpt>
      <trkpt lat="47.4097" lon="5.54268">
        <ele>188.7002</ele>
        <time>2026-05-15T15:18:50+02:00</time>
      </trkpt>
      <trkpt lat="47.40974" lon="5.5427">
        <ele>189.40039</ele>
        <time>2026-05-15T15:18:51+02:00</time>
      </trkpt>
      <trkpt lat="47.40977" lon="5.54273">
        <ele>189.40039</ele>
        <time>2026-05-15T15:18:52+02:00</time>
      </trkpt>
      <trkpt lat="47.40981" lon="5.54275">
        <ele>189</ele>
        <time>2026-05-15T15:18:53+02:00</time>
      </trkpt>
      <trkpt lat="47.40984" lon="5.54278">
        <ele>189.60059</ele>
        <time>2026-05-15T15:18:54+02:00</time>
      </trkpt>
      <trkpt lat="47.40988" lon="5.54281">
        <ele>188.90039</ele>
        <time>2026-05-15T15:18:55+02:00</time>
      </trkpt>
      <trkpt lat="47.40992" lon="5.54283">
        <ele>188.2998</ele>
        <time>2026-05-15T15:18:56+02:00</time>
      </trkpt>
      <trkpt lat="47.40996" lon="5.54286">
        <ele>188.2998</ele>
        <time>2026-05-15T15:18:57+02:00</time>
      </trkpt>
      <trkpt lat="47.41" lon="5.54289">
        <ele>188.2998</ele>
        <time>2026-05-15T15:18:58+02:00</time>
      </trkpt>
      <trkpt lat="47.41004" lon="5.54291">
        <ele>188.2002</ele>
        <time>2026-05-15T15:18:59+02:00</time>
      </trkpt>
      <trkpt lat="47.41008" lon="5.54294">
        <ele>188.2002</ele>
        <time>2026-05-15T15:19:00+02:00</time>
      </trkpt>
      <trkpt lat="47.41012" lon="5.54297">
        <ele>188.7998</ele>
        <time>2026-05-15T15:19:01+02:00</time>
      </trkpt>
      <trkpt lat="47.41015" lon="5.543">
        <ele>188.90039</ele>
        <time>2026-05-15T15:19:02+02:00</time>
      </trkpt>
      <trkpt lat="47.41019" lon="5.54303">
        <ele>188.90039</ele>
        <time>2026-05-15T15:19:03+02:00</time>
      </trkpt>
      <trkpt lat="47.41022" lon="5.54305">
        <ele>189.40039</ele>
        <time>2026-05-15T15:19:04+02:00</time>
      </trkpt>
      <trkpt lat="47.41026" lon="5.54308">
        <ele>189</ele>
        <time>2026-05-15T15:19:05+02:00</time>
      </trkpt>
      <trkpt lat="47.41029" lon="5.54311">
        <ele>189</ele>
        <time>2026-05-15T15:19:06+02:00</time>
      </trkpt>
      <trkpt lat="47.41033" lon="5.54314">
        <ele>188.7002</ele>
        <time>2026-05-15T15:19:07+02:00</time>
      </trkpt>
      <trkpt lat="47.41037" lon="5.54317">
        <ele>188.7002</ele>
        <time>2026-05-15T15:19:08+02:00</time>
      </trkpt>
      <trkpt lat="47.41041" lon="5.5432">
        <ele>188.2002</ele>
        <time>2026-05-15T15:19:09+02:00</time>
      </trkpt>
      <trkpt lat="47.41044" lon="5.54322">
        <ele>188.2998</ele>
        <time>2026-05-15T15:19:10+02:00</time>
      </trkpt>
      <trkpt lat="47.41049" lon="5.54325">
        <ele>188.2998</ele>
        <time>2026-05-15T15:19:11+02:00</time>
      </trkpt>
      <trkpt lat="47.41053" lon="5.54328">
        <ele>188.2002</ele>
        <time>2026-05-15T15:19:12+02:00</time>
      </trkpt>
      <trkpt lat="47.41057" lon="5.54331">
        <ele>188.7002</ele>
        <time>2026-05-15T15:19:13+02:00</time>
      </trkpt>
      <trkpt lat="47.41062" lon="5.54334">
        <ele>188.7002</ele>
        <time>2026-05-15T15:19:14+02:00</time>
      </trkpt>
      <trkpt lat="47.41066" lon="5.54337">
        <ele>188.7002</ele>
        <time>2026-05-15T15:19:15+02:00</time>
      </trkpt>
      <trkpt lat="47.4107" lon="5.5434">
        <ele>189</ele>
        <time>2026-05-15T15:19:16+02:00</time>
      </trkpt>
      <trkpt lat="47.41075" lon="5.54344">
        <ele>188.7998</ele>
        <time>2026-05-15T15:19:17+02:00</time>
      </trkpt>
      <trkpt lat="47.41079" lon="5.54347">
        <ele>188.7002</ele>
        <time>2026-05-15T15:19:18+02:00</time>
      </trkpt>
      <trkpt lat="47.41083" lon="5.5435">
        <ele>188.7002</ele>
        <time>2026-05-15T15:19:19+02:00</time>
      </trkpt>
      <trkpt lat="47.41087" lon="5.54353">
        <ele>188.40039</ele>
        <time>2026-05-15T15:19:20+02:00</time>
      </trkpt>
      <trkpt lat="47.41091" lon="5.54356">
        <ele>188.7998</ele>
        <time>2026-05-15T15:19:21+02:00</time>
      </trkpt>
      <trkpt lat="47.41095" lon="5.54359">
        <ele>188.7998</ele>
        <time>2026-05-15T15:19:22+02:00</time>
      </trkpt>
      <trkpt lat="47.41099" lon="5.54362">
        <ele>188.90039</ele>
        <time>2026-05-15T15:19:23+02:00</time>
      </trkpt>
      <trkpt lat="47.41103" lon="5.54365">
        <ele>189.60059</ele>
        <time>2026-05-15T15:19:24+02:00</time>
      </trkpt>
      <trkpt lat="47.41108" lon="5.54368">
        <ele>189.7998</ele>
        <time>2026-05-15T15:19:25+02:00</time>
      </trkpt>
      <trkpt lat="47.41112" lon="5.54371">
        <ele>189.7998</ele>
        <time>2026-05-15T15:19:26+02:00</time>
      </trkpt>
      <trkpt lat="47.41116" lon="5.54374">
        <ele>190.60059</ele>
        <time>2026-05-15T15:19:27+02:00</time>
      </trkpt>
      <trkpt lat="47.4112" lon="5.54377">
        <ele>190.90039</ele>
        <time>2026-05-15T15:19:28+02:00</time>
      </trkpt>
      <trkpt lat="47.41124" lon="5.5438">
        <ele>190.90039</ele>
        <time>2026-05-15T15:19:29+02:00</time>
      </trkpt>
      <trkpt lat="47.41129" lon="5.54383">
        <ele>191.60059</ele>
        <time>2026-05-15T15:19:30+02:00</time>
      </trkpt>
      <trkpt lat="47.41134" lon="5.54386">
        <ele>191.7998</ele>
        <time>2026-05-15T15:19:31+02:00</time>
      </trkpt>
      <trkpt lat="47.41139" lon="5.54388">
        <ele>192.10059</ele>
        <time>2026-05-15T15:19:32+02:00</time>
      </trkpt>
      <trkpt lat="47.41143" lon="5.54391">
        <ele>192.5</ele>
        <time>2026-05-15T15:19:33+02:00</time>
      </trkpt>
      <trkpt lat="47.41148" lon="5.54394">
        <ele>192.7002</ele>
        <time>2026-05-15T15:19:34+02:00</time>
      </trkpt>
      <trkpt lat="47.41152" lon="5.54397">
        <ele>192.7002</ele>
        <time>2026-05-15T15:19:35+02:00</time>
      </trkpt>
      <trkpt lat="47.41157" lon="5.544">
        <ele>192.2998</ele>
        <time>2026-05-15T15:19:36+02:00</time>
      </trkpt>
      <trkpt lat="47.41161" lon="5.54403">
        <ele>192</ele>
        <time>2026-05-15T15:19:37+02:00</time>
      </trkpt>
      <trkpt lat="47.41165" lon="5.54407">
        <ele>191</ele>
        <time>2026-05-15T15:19:38+02:00</time>
      </trkpt>
      <trkpt lat="47.41168" lon="5.54411">
        <ele>190.10059</ele>
        <time>2026-05-15T15:19:39+02:00</time>
      </trkpt>
      <trkpt lat="47.41171" lon="5.54416">
        <ele>188.7998</ele>
        <time>2026-05-15T15:19:40+02:00</time>
      </trkpt>
      <trkpt lat="47.41173" lon="5.5442">
        <ele>188</ele>
        <time>2026-05-15T15:19:41+02:00</time>
      </trkpt>
      <trkpt lat="47.41175" lon="5.54425">
        <ele>187</ele>
        <time>2026-05-15T15:19:42+02:00</time>
      </trkpt>
      <trkpt lat="47.41176" lon="5.5443">
        <ele>187</ele>
        <time>2026-05-15T15:19:43+02:00</time>
      </trkpt>
      <trkpt lat="47.41176" lon="5.54434">
        <ele>186.2002</ele>
        <time>2026-05-15T15:19:44+02:00</time>
      </trkpt>
      <trkpt lat="47.41174" lon="5.54438">
        <ele>186.2002</ele>
        <time>2026-05-15T15:19:45+02:00</time>
      </trkpt>
      <trkpt lat="47.41171" lon="5.54441">
        <ele>185.60059</ele>
        <time>2026-05-15T15:19:46+02:00</time>
      </trkpt>
      <trkpt lat="47.41169" lon="5.54444">
        <ele>185.60059</ele>
        <time>2026-05-15T15:19:47+02:00</time>
      </trkpt>
      <trkpt lat="47.41166" lon="5.54446">
        <ele>185.60059</ele>
        <time>2026-05-15T15:19:48+02:00</time>
      </trkpt>
      <trkpt lat="47.41164" lon="5.54448">
        <ele>185.7998</ele>
        <time>2026-05-15T15:19:49+02:00</time>
      </trkpt>
      <trkpt lat="47.41163" lon="5.5445">
        <ele>185</ele>
        <time>2026-05-15T15:19:50+02:00</time>
      </trkpt>
      <trkpt lat="47.41161" lon="5.54453">
        <ele>185</ele>
        <time>2026-05-15T15:19:51+02:00</time>
      </trkpt>
      <trkpt lat="47.41161" lon="5.54455">
        <ele>185</ele>
        <time>2026-05-15T15:19:52+02:00</time>
      </trkpt>
      <trkpt lat="47.41162" lon="5.54458">
        <ele>184.5</ele>
        <time>2026-05-15T15:19:53+02:00</time>
      </trkpt>
      <trkpt lat="47.41163" lon="5.5446">
        <ele>184.5</ele>
        <time>2026-05-15T15:19:54+02:00</time>
      </trkpt>
      <trkpt lat="47.41164" lon="5.54462">
        <ele>184.5</ele>
        <time>2026-05-15T15:19:55+02:00</time>
      </trkpt>
      <trkpt lat="47.41166" lon="5.54464">
        <ele>184.5</ele>
        <time>2026-05-15T15:19:56+02:00</time>
      </trkpt>
      <trkpt lat="47.41167" lon="5.54467">
        <ele>184.2998</ele>
        <time>2026-05-15T15:19:57+02:00</time>
      </trkpt>
      <trkpt lat="47.41169" lon="5.54471">
        <ele>184.2998</ele>
        <time>2026-05-15T15:19:58+02:00</time>
      </trkpt>
      <trkpt lat="47.41171" lon="5.54475">
        <ele>184.2002</ele>
        <time>2026-05-15T15:19:59+02:00</time>
      </trkpt>
      <trkpt lat="47.41173" lon="5.54479">
        <ele>184.2998</ele>
        <time>2026-05-15T15:20:00+02:00</time>
      </trkpt>
      <trkpt lat="47.41175" lon="5.54483">
        <ele>184.2998</ele>
        <time>2026-05-15T15:20:01+02:00</time>
      </trkpt>
      <trkpt lat="47.41177" lon="5.54487">
        <ele>184.2998</ele>
        <time>2026-05-15T15:20:02+02:00</time>
      </trkpt>
      <trkpt lat="47.41179" lon="5.5449">
        <ele>184.2998</ele>
        <time>2026-05-15T15:20:03+02:00</time>
      </trkpt>
      <trkpt lat="47.41181" lon="5.54494">
        <ele>184.40039</ele>
        <time>2026-05-15T15:20:04+02:00</time>
      </trkpt>
      <trkpt lat="47.41182" lon="5.54497">
        <ele>184.40039</ele>
        <time>2026-05-15T15:20:05+02:00</time>
      </trkpt>
      <trkpt lat="47.41184" lon="5.545">
        <ele>184.40039</ele>
        <time>2026-05-15T15:20:06+02:00</time>
      </trkpt>
      <trkpt lat="47.41186" lon="5.54503">
        <ele>184.40039</ele>
        <time>2026-05-15T15:20:07+02:00</time>
      </trkpt>
      <trkpt lat="47.41187" lon="5.54506">
        <ele>184.40039</ele>
        <time>2026-05-15T15:20:08+02:00</time>
      </trkpt>
      <trkpt lat="47.41189" lon="5.54509">
        <ele>184.40039</ele>
        <time>2026-05-15T15:20:09+02:00</time>
      </trkpt>
      <trkpt lat="47.4119" lon="5.54512">
        <ele>184.40039</ele>
        <time>2026-05-15T15:20:10+02:00</time>
      </trkpt>
      <trkpt lat="47.41192" lon="5.54516">
        <ele>184.40039</ele>
        <time>2026-05-15T15:20:11+02:00</time>
      </trkpt>
      <trkpt lat="47.41194" lon="5.54519">
        <ele>184.40039</ele>
        <time>2026-05-15T15:20:12+02:00</time>
      </trkpt>
      <trkpt lat="47.41195" lon="5.54523">
        <ele>184.40039</ele>
        <time>2026-05-15T15:20:13+02:00</time>
      </trkpt>
      <trkpt lat="47.41197" lon="5.54526">
        <ele>184.40039</ele>
        <time>2026-05-15T15:20:14+02:00</time>
      </trkpt>
      <trkpt lat="47.41199" lon="5.54529">
        <ele>184.40039</ele>
        <time>2026-05-15T15:20:15+02:00</time>
      </trkpt>
      <trkpt lat="47.412" lon="5.54532">
        <ele>184.40039</ele>
        <time>2026-05-15T15:20:16+02:00</time>
      </trkpt>
      <trkpt lat="47.41202" lon="5.54534">
        <ele>184.40039</ele>
        <time>2026-05-15T15:20:17+02:00</time>
      </trkpt>
      <trkpt lat="47.41203" lon="5.54537">
        <ele>184.40039</ele>
        <time>2026-05-15T15:20:18+02:00</time>
      </trkpt>
      <trkpt lat="47.41204" lon="5.54539">
        <ele>184.40039</ele>
        <time>2026-05-15T15:20:19+02:00</time>
      </trkpt>
      <trkpt lat="47.41204" lon="5.5454">
        <ele>184.40039</ele>
        <time>2026-05-15T15:20:20+02:00</time>
      </trkpt>
      <trkpt lat="47.41205" lon="5.5454">
        <ele>184.40039</ele>
        <time>2026-05-15T15:20:21+02:00</time>
      </trkpt>
      <trkpt lat="47.41205" lon="5.5454">
        <ele>184.40039</ele>
        <time>2026-05-15T15:20:22+02:00</time>
      </trkpt>
      <trkpt lat="47.41205" lon="5.5454">
        <ele>184.40039</ele>
        <time>2026-05-15T15:20:23+02:00</time>
      </trkpt>
      <trkpt lat="47.41205" lon="5.5454">
        <ele>184.40039</ele>
        <time>2026-05-15T15:20:24+02:00</time>
      </trkpt>
      <trkpt lat="47.41213" lon="5.54555">
        <ele>184.40039</ele>
        <time>2026-05-15T15:20:50+02:00</time>
      </trkpt>
      <trkpt lat="47.41215" lon="5.54558">
        <ele>184.40039</ele>
        <time>2026-05-15T15:20:51+02:00</time>
      </trkpt>
      <trkpt lat="47.41216" lon="5.54562">
        <ele>184.40039</ele>
        <time>2026-05-15T15:20:52+02:00</time>
      </trkpt>
      <trkpt lat="47.41219" lon="5.54566">
        <ele>184.40039</ele>
        <time>2026-05-15T15:20:53+02:00</time>
      </trkpt>
      <trkpt lat="47.41221" lon="5.5457">
        <ele>184.40039</ele>
        <time>2026-05-15T15:20:54+02:00</time>
      </trkpt>
      <trkpt lat="47.41223" lon="5.54574">
        <ele>184.40039</ele>
        <time>2026-05-15T15:20:55+02:00</time>
      </trkpt>
      <trkpt lat="47.41225" lon="5.54578">
        <ele>184.2998</ele>
        <time>2026-05-15T15:20:56+02:00</time>
      </trkpt>
      <trkpt lat="47.41227" lon="5.54581">
        <ele>184.2998</ele>
        <time>2026-05-15T15:20:57+02:00</time>
      </trkpt>
      <trkpt lat="47.41229" lon="5.54585">
        <ele>184.2998</ele>
        <time>2026-05-15T15:20:58+02:00</time>
      </trkpt>
      <trkpt lat="47.4123" lon="5.54588">
        <ele>184.2998</ele>
        <time>2026-05-15T15:20:59+02:00</time>
      </trkpt>
      <trkpt lat="47.41232" lon="5.5459">
        <ele>184.2998</ele>
        <time>2026-05-15T15:21:00+02:00</time>
      </trkpt>
      <trkpt lat="47.41234" lon="5.54592">
        <ele>184.2998</ele>
        <time>2026-05-15T15:21:01+02:00</time>
      </trkpt>
      <trkpt lat="47.41236" lon="5.54593">
        <ele>184.5</ele>
        <time>2026-05-15T15:21:02+02:00</time>
      </trkpt>
      <trkpt lat="47.41238" lon="5.54594">
        <ele>184.5</ele>
        <time>2026-05-15T15:21:03+02:00</time>
      </trkpt>
      <trkpt lat="47.4124" lon="5.54594">
        <ele>184.5</ele>
        <time>2026-05-15T15:21:04+02:00</time>
      </trkpt>
      <trkpt lat="47.41243" lon="5.54595">
        <ele>185.7002</ele>
        <time>2026-05-15T15:21:05+02:00</time>
      </trkpt>
      <trkpt lat="47.41245" lon="5.54595">
        <ele>185.7002</ele>
        <time>2026-05-15T15:21:06+02:00</time>
      </trkpt>
      <trkpt lat="47.41247" lon="5.54593">
        <ele>185.90039</ele>
        <time>2026-05-15T15:21:07+02:00</time>
      </trkpt>
      <trkpt lat="47.41248" lon="5.54592">
        <ele>185.90039</ele>
        <time>2026-05-15T15:21:08+02:00</time>
      </trkpt>
      <trkpt lat="47.41249" lon="5.5459">
        <ele>185.90039</ele>
        <time>2026-05-15T15:21:09+02:00</time>
      </trkpt>
      <trkpt lat="47.4125" lon="5.54589">
        <ele>185.90039</ele>
        <time>2026-05-15T15:21:10+02:00</time>
      </trkpt>
      <trkpt lat="47.4125" lon="5.54589">
        <ele>185.90039</ele>
        <time>2026-05-15T15:21:11+02:00</time>
      </trkpt>
      <trkpt lat="47.41251" lon="5.54588">
        <ele>185.90039</ele>
        <time>2026-05-15T15:21:12+02:00</time>
      </trkpt>
      <trkpt lat="47.41251" lon="5.54588">
        <ele>185.90039</ele>
        <time>2026-05-15T15:21:13+02:00</time>
      </trkpt>
      <trkpt lat="47.41251" lon="5.54588">
        <ele>185.90039</ele>
        <time>2026-05-15T15:21:14+02:00</time>
      </trkpt>
      <trkpt lat="47.41261" lon="5.5458">
        <ele>186.7998</ele>
        <time>2026-05-15T15:21:36+02:00</time>
      </trkpt>
      <trkpt lat="47.41263" lon="5.54578">
        <ele>186.7998</ele>
        <time>2026-05-15T15:21:37+02:00</time>
      </trkpt>
      <trkpt lat="47.41264" lon="5.54576">
        <ele>186.7998</ele>
        <time>2026-05-15T15:21:38+02:00</time>
      </trkpt>
      <trkpt lat="47.41266" lon="5.54574">
        <ele>186.7998</ele>
        <time>2026-05-15T15:21:39+02:00</time>
      </trkpt>
      <trkpt lat="47.41267" lon="5.54572">
        <ele>186.7998</ele>
        <time>2026-05-15T15:21:40+02:00</time>
      </trkpt>
      <trkpt lat="47.41269" lon="5.54571">
        <ele>186.7998</ele>
        <time>2026-05-15T15:21:41+02:00</time>
      </trkpt>
      <trkpt lat="47.4127" lon="5.5457">
        <ele>187.60059</ele>
        <time>2026-05-15T15:21:42+02:00</time>
      </trkpt>
      <trkpt lat="47.41271" lon="5.54569">
        <ele>186.90039</ele>
        <time>2026-05-15T15:21:43+02:00</time>
      </trkpt>
      <trkpt lat="47.41272" lon="5.54567">
        <ele>186.90039</ele>
        <time>2026-05-15T15:21:44+02:00</time>
      </trkpt>
      <trkpt lat="47.41273" lon="5.54566">
        <ele>186.90039</ele>
        <time>2026-05-15T15:21:45+02:00</time>
      </trkpt>
      <trkpt lat="47.41274" lon="5.54566">
        <ele>186.90039</ele>
        <time>2026-05-15T15:21:46+02:00</time>
      </trkpt>
      <trkpt lat="47.41275" lon="5.54565">
        <ele>186.90039</ele>
        <time>2026-05-15T15:21:47+02:00</time>
      </trkpt>
      <trkpt lat="47.41276" lon="5.54563">
        <ele>187.7002</ele>
        <time>2026-05-15T15:21:48+02:00</time>
      </trkpt>
      <trkpt lat="47.41277" lon="5.54561">
        <ele>187.7002</ele>
        <time>2026-05-15T15:21:49+02:00</time>
      </trkpt>
      <trkpt lat="47.4128" lon="5.54561">
        <ele>187.7002</ele>
        <time>2026-05-15T15:21:51+02:00</time>
      </trkpt>
      <trkpt lat="47.4128" lon="5.54562">
        <ele>187.7002</ele>
        <time>2026-05-15T15:21:52+02:00</time>
      </trkpt>
      <trkpt lat="47.41281" lon="5.54563">
        <ele>187.7002</ele>
        <time>2026-05-15T15:21:53+02:00</time>
      </trkpt>
      <trkpt lat="47.41287" lon="5.54536">
        <ele>186.10059</ele>
        <time>2026-05-15T15:22:44+02:00</time>
      </trkpt>
      <trkpt lat="47.41289" lon="5.54531">
        <ele>186.40039</ele>
        <time>2026-05-15T15:22:45+02:00</time>
      </trkpt>
      <trkpt lat="47.41292" lon="5.54525">
        <ele>185.5</ele>
        <time>2026-05-15T15:22:46+02:00</time>
      </trkpt>
      <trkpt lat="47.41293" lon="5.54519">
        <ele>185.5</ele>
        <time>2026-05-15T15:22:47+02:00</time>
      </trkpt>
      <trkpt lat="47.41296" lon="5.54513">
        <ele>185.7998</ele>
        <time>2026-05-15T15:22:48+02:00</time>
      </trkpt>
      <trkpt lat="47.41298" lon="5.54507">
        <ele>185.10059</ele>
        <time>2026-05-15T15:22:49+02:00</time>
      </trkpt>
      <trkpt lat="47.413" lon="5.54501">
        <ele>185.7002</ele>
        <time>2026-05-15T15:22:50+02:00</time>
      </trkpt>
      <trkpt lat="47.41303" lon="5.54495">
        <ele>185</ele>
        <time>2026-05-15T15:22:51+02:00</time>
      </trkpt>
      <trkpt lat="47.41306" lon="5.54489">
        <ele>185</ele>
        <time>2026-05-15T15:22:52+02:00</time>
      </trkpt>
      <trkpt lat="47.41308" lon="5.54483">
        <ele>184.7998</ele>
        <time>2026-05-15T15:22:53+02:00</time>
      </trkpt>
      <trkpt lat="47.41311" lon="5.54476">
        <ele>185.40039</ele>
        <time>2026-05-15T15:22:54+02:00</time>
      </trkpt>
      <trkpt lat="47.41313" lon="5.5447">
        <ele>184.90039</ele>
        <time>2026-05-15T15:22:55+02:00</time>
      </trkpt>
      <trkpt lat="47.41316" lon="5.54463">
        <ele>184.40039</ele>
        <time>2026-05-15T15:22:56+02:00</time>
      </trkpt>
      <trkpt lat="47.41318" lon="5.54455">
        <ele>184.40039</ele>
        <time>2026-05-15T15:22:57+02:00</time>
      </trkpt>
      <trkpt lat="47.41321" lon="5.54447">
        <ele>184.40039</ele>
        <time>2026-05-15T15:22:58+02:00</time>
      </trkpt>
      <trkpt lat="47.41322" lon="5.54439">
        <ele>184.40039</ele>
        <time>2026-05-15T15:22:59+02:00</time>
      </trkpt>
      <trkpt lat="47.41325" lon="5.54431">
        <ele>184.40039</ele>
        <time>2026-05-15T15:23:00+02:00</time>
      </trkpt>
      <trkpt lat="47.41327" lon="5.54423">
        <ele>184.2998</ele>
        <time>2026-05-15T15:23:01+02:00</time>
      </trkpt>
      <trkpt lat="47.41329" lon="5.54415">
        <ele>184.2002</ele>
        <time>2026-05-15T15:23:02+02:00</time>
      </trkpt>
      <trkpt lat="47.41331" lon="5.54407">
        <ele>184.2002</ele>
        <time>2026-05-15T15:23:03+02:00</time>
      </trkpt>
      <trkpt lat="47.41333" lon="5.54399">
        <ele>184.2998</ele>
        <time>2026-05-15T15:23:04+02:00</time>
      </trkpt>
      <trkpt lat="47.41335" lon="5.54391">
        <ele>184.2998</ele>
        <time>2026-05-15T15:23:05+02:00</time>
      </trkpt>
      <trkpt lat="47.41337" lon="5.54383">
        <ele>184.2998</ele>
        <time>2026-05-15T15:23:06+02:00</time>
      </trkpt>
      <trkpt lat="47.41339" lon="5.54374">
        <ele>184.40039</ele>
        <time>2026-05-15T15:23:07+02:00</time>
      </trkpt>
      <trkpt lat="47.41342" lon="5.54366">
        <ele>184.40039</ele>
        <time>2026-05-15T15:23:08+02:00</time>
      </trkpt>
      <trkpt lat="47.41343" lon="5.54358">
        <ele>184.40039</ele>
        <time>2026-05-15T15:23:09+02:00</time>
      </trkpt>
      <trkpt lat="47.41345" lon="5.54349">
        <ele>184.40039</ele>
        <time>2026-05-15T15:23:10+02:00</time>
      </trkpt>
      <trkpt lat="47.41347" lon="5.5434">
        <ele>184.2998</ele>
        <time>2026-05-15T15:23:11+02:00</time>
      </trkpt>
      <trkpt lat="47.41349" lon="5.54332">
        <ele>184.2998</ele>
        <time>2026-05-15T15:23:12+02:00</time>
      </trkpt>
      <trkpt lat="47.41351" lon="5.54323">
        <ele>184.2998</ele>
        <time>2026-05-15T15:23:13+02:00</time>
      </trkpt>
      <trkpt lat="47.41353" lon="5.54314">
        <ele>184.2998</ele>
        <time>2026-05-15T15:23:14+02:00</time>
      </trkpt>
      <trkpt lat="47.41354" lon="5.54305">
        <ele>184.2998</ele>
        <time>2026-05-15T15:23:15+02:00</time>
      </trkpt>
      <trkpt lat="47.41355" lon="5.54296">
        <ele>184.40039</ele>
        <time>2026-05-15T15:23:16+02:00</time>
      </trkpt>
      <trkpt lat="47.41357" lon="5.54287">
        <ele>184.40039</ele>
        <time>2026-05-15T15:23:17+02:00</time>
      </trkpt>
      <trkpt lat="47.41358" lon="5.54278">
        <ele>184.40039</ele>
        <time>2026-05-15T15:23:18+02:00</time>
      </trkpt>
      <trkpt lat="47.41359" lon="5.54269">
        <ele>184.2998</ele>
        <time>2026-05-15T15:23:19+02:00</time>
      </trkpt>
      <trkpt lat="47.4136" lon="5.5426">
        <ele>184.2002</ele>
        <time>2026-05-15T15:23:20+02:00</time>
      </trkpt>
      <trkpt lat="47.41362" lon="5.5425">
        <ele>184.40039</ele>
        <time>2026-05-15T15:23:21+02:00</time>
      </trkpt>
      <trkpt lat="47.41363" lon="5.54241">
        <ele>184.5</ele>
        <time>2026-05-15T15:23:22+02:00</time>
      </trkpt>
      <trkpt lat="47.41365" lon="5.54232">
        <ele>185</ele>
        <time>2026-05-15T15:23:23+02:00</time>
      </trkpt>
      <trkpt lat="47.41367" lon="5.54223">
        <ele>185.2998</ele>
        <time>2026-05-15T15:23:24+02:00</time>
      </trkpt>
      <trkpt lat="47.41369" lon="5.54214">
        <ele>184.7002</ele>
        <time>2026-05-15T15:23:25+02:00</time>
      </trkpt>
      <trkpt lat="47.41371" lon="5.54205">
        <ele>184.7002</ele>
        <time>2026-05-15T15:23:26+02:00</time>
      </trkpt>
      <trkpt lat="47.41372" lon="5.54196">
        <ele>184.60059</ele>
        <time>2026-05-15T15:23:27+02:00</time>
      </trkpt>
      <trkpt lat="47.41375" lon="5.54187">
        <ele>184.2998</ele>
        <time>2026-05-15T15:23:28+02:00</time>
      </trkpt>
      <trkpt lat="47.41377" lon="5.54178">
        <ele>184.5</ele>
        <time>2026-05-15T15:23:29+02:00</time>
      </trkpt>
      <trkpt lat="47.4138" lon="5.54169">
        <ele>185</ele>
        <time>2026-05-15T15:23:30+02:00</time>
      </trkpt>
      <trkpt lat="47.41383" lon="5.5416">
        <ele>185.10059</ele>
        <time>2026-05-15T15:23:31+02:00</time>
      </trkpt>
      <trkpt lat="47.41385" lon="5.54151">
        <ele>185.60059</ele>
        <time>2026-05-15T15:23:32+02:00</time>
      </trkpt>
      <trkpt lat="47.41388" lon="5.54142">
        <ele>185.10059</ele>
        <time>2026-05-15T15:23:33+02:00</time>
      </trkpt>
      <trkpt lat="47.41392" lon="5.54133">
        <ele>185.2002</ele>
        <time>2026-05-15T15:23:34+02:00</time>
      </trkpt>
      <trkpt lat="47.41395" lon="5.54125">
        <ele>185.7002</ele>
        <time>2026-05-15T15:23:35+02:00</time>
      </trkpt>
      <trkpt lat="47.41398" lon="5.54116">
        <ele>186.2002</ele>
        <time>2026-05-15T15:23:36+02:00</time>
      </trkpt>
      <trkpt lat="47.41401" lon="5.54106">
        <ele>186.2998</ele>
        <time>2026-05-15T15:23:37+02:00</time>
      </trkpt>
      <trkpt lat="47.41405" lon="5.54097">
        <ele>186.2998</ele>
        <time>2026-05-15T15:23:38+02:00</time>
      </trkpt>
      <trkpt lat="47.41408" lon="5.54087">
        <ele>186.2998</ele>
        <time>2026-05-15T15:23:39+02:00</time>
      </trkpt>
      <trkpt lat="47.41412" lon="5.54078">
        <ele>186.2998</ele>
        <time>2026-05-15T15:23:40+02:00</time>
      </trkpt>
      <trkpt lat="47.41415" lon="5.54068">
        <ele>186.2998</ele>
        <time>2026-05-15T15:23:41+02:00</time>
      </trkpt>
      <trkpt lat="47.41419" lon="5.54059">
        <ele>186.2998</ele>
        <time>2026-05-15T15:23:42+02:00</time>
      </trkpt>
      <trkpt lat="47.41423" lon="5.54049">
        <ele>186.2998</ele>
        <time>2026-05-15T15:23:43+02:00</time>
      </trkpt>
      <trkpt lat="47.41427" lon="5.5404">
        <ele>186.2002</ele>
        <time>2026-05-15T15:23:44+02:00</time>
      </trkpt>
      <trkpt lat="47.41431" lon="5.54031">
        <ele>186.2998</ele>
        <time>2026-05-15T15:23:45+02:00</time>
      </trkpt>
      <trkpt lat="47.41435" lon="5.54022">
        <ele>186.2998</ele>
        <time>2026-05-15T15:23:46+02:00</time>
      </trkpt>
      <trkpt lat="47.41438" lon="5.54013">
        <ele>186.2998</ele>
        <time>2026-05-15T15:23:47+02:00</time>
      </trkpt>
      <trkpt lat="47.41442" lon="5.54003">
        <ele>186.2998</ele>
        <time>2026-05-15T15:23:48+02:00</time>
      </trkpt>
      <trkpt lat="47.41445" lon="5.53993">
        <ele>186.2002</ele>
        <time>2026-05-15T15:23:49+02:00</time>
      </trkpt>
      <trkpt lat="47.41449" lon="5.53984">
        <ele>186.2002</ele>
        <time>2026-05-15T15:23:50+02:00</time>
      </trkpt>
      <trkpt lat="47.41453" lon="5.53974">
        <ele>186.2002</ele>
        <time>2026-05-15T15:23:51+02:00</time>
      </trkpt>
      <trkpt lat="47.41457" lon="5.53964">
        <ele>186.2998</ele>
        <time>2026-05-15T15:23:52+02:00</time>
      </trkpt>
      <trkpt lat="47.41461" lon="5.53955">
        <ele>186.2998</ele>
        <time>2026-05-15T15:23:53+02:00</time>
      </trkpt>
      <trkpt lat="47.41464" lon="5.53945">
        <ele>186.5</ele>
        <time>2026-05-15T15:23:54+02:00</time>
      </trkpt>
      <trkpt lat="47.41467" lon="5.53935">
        <ele>186.40039</ele>
        <time>2026-05-15T15:23:55+02:00</time>
      </trkpt>
      <trkpt lat="47.41471" lon="5.53926">
        <ele>186.5</ele>
        <time>2026-05-15T15:23:56+02:00</time>
      </trkpt>
      <trkpt lat="47.41475" lon="5.53917">
        <ele>186.5</ele>
        <time>2026-05-15T15:23:57+02:00</time>
      </trkpt>
      <trkpt lat="47.41478" lon="5.53908">
        <ele>186.2998</ele>
        <time>2026-05-15T15:23:58+02:00</time>
      </trkpt>
      <trkpt lat="47.41482" lon="5.53899">
        <ele>186.40039</ele>
        <time>2026-05-15T15:23:59+02:00</time>
      </trkpt>
      <trkpt lat="47.41486" lon="5.53889">
        <ele>186.2998</ele>
        <time>2026-05-15T15:24:00+02:00</time>
      </trkpt>
      <trkpt lat="47.4149" lon="5.5388">
        <ele>186.10059</ele>
        <time>2026-05-15T15:24:01+02:00</time>
      </trkpt>
      <trkpt lat="47.41493" lon="5.53871">
        <ele>186.10059</ele>
        <time>2026-05-15T15:24:02+02:00</time>
      </trkpt>
      <trkpt lat="47.41496" lon="5.53863">
        <ele>186.10059</ele>
        <time>2026-05-15T15:24:03+02:00</time>
      </trkpt>
      <trkpt lat="47.415" lon="5.53854">
        <ele>186.2998</ele>
        <time>2026-05-15T15:24:04+02:00</time>
      </trkpt>
      <trkpt lat="47.41503" lon="5.53845">
        <ele>186.7002</ele>
        <time>2026-05-15T15:24:05+02:00</time>
      </trkpt>
      <trkpt lat="47.41506" lon="5.53837">
        <ele>186.60059</ele>
        <time>2026-05-15T15:24:06+02:00</time>
      </trkpt>
      <trkpt lat="47.4151" lon="5.53829">
        <ele>186.7998</ele>
        <time>2026-05-15T15:24:07+02:00</time>
      </trkpt>
      <trkpt lat="47.41514" lon="5.53822">
        <ele>186.7002</ele>
        <time>2026-05-15T15:24:08+02:00</time>
      </trkpt>
      <trkpt lat="47.41517" lon="5.53814">
        <ele>186.7002</ele>
        <time>2026-05-15T15:24:09+02:00</time>
      </trkpt>
      <trkpt lat="47.41521" lon="5.53807">
        <ele>186.7002</ele>
        <time>2026-05-15T15:24:10+02:00</time>
      </trkpt>
      <trkpt lat="47.41525" lon="5.53801">
        <ele>186.5</ele>
        <time>2026-05-15T15:24:11+02:00</time>
      </trkpt>
      <trkpt lat="47.41528" lon="5.53794">
        <ele>186.7002</ele>
        <time>2026-05-15T15:24:12+02:00</time>
      </trkpt>
      <trkpt lat="47.41532" lon="5.53787">
        <ele>186.60059</ele>
        <time>2026-05-15T15:24:13+02:00</time>
      </trkpt>
      <trkpt lat="47.41535" lon="5.53781">
        <ele>186.60059</ele>
        <time>2026-05-15T15:24:14+02:00</time>
      </trkpt>
      <trkpt lat="47.41539" lon="5.53774">
        <ele>186.5</ele>
        <time>2026-05-15T15:24:15+02:00</time>
      </trkpt>
      <trkpt lat="47.41543" lon="5.53768">
        <ele>186.60059</ele>
        <time>2026-05-15T15:24:16+02:00</time>
      </trkpt>
      <trkpt lat="47.41547" lon="5.53762">
        <ele>186.5</ele>
        <time>2026-05-15T15:24:17+02:00</time>
      </trkpt>
      <trkpt lat="47.41551" lon="5.53756">
        <ele>186.90039</ele>
        <time>2026-05-15T15:24:18+02:00</time>
      </trkpt>
      <trkpt lat="47.41555" lon="5.5375">
        <ele>186.7998</ele>
        <time>2026-05-15T15:24:19+02:00</time>
      </trkpt>
      <trkpt lat="47.4156" lon="5.53744">
        <ele>186.40039</ele>
        <time>2026-05-15T15:24:20+02:00</time>
      </trkpt>
      <trkpt lat="47.41564" lon="5.53738">
        <ele>186.60059</ele>
        <time>2026-05-15T15:24:21+02:00</time>
      </trkpt>
      <trkpt lat="47.41569" lon="5.53733">
        <ele>186.7998</ele>
        <time>2026-05-15T15:24:22+02:00</time>
      </trkpt>
      <trkpt lat="47.41573" lon="5.53727">
        <ele>187</ele>
        <time>2026-05-15T15:24:23+02:00</time>
      </trkpt>
      <trkpt lat="47.41578" lon="5.53722">
        <ele>187.40039</ele>
        <time>2026-05-15T15:24:24+02:00</time>
      </trkpt>
      <trkpt lat="47.41583" lon="5.53717">
        <ele>186.90039</ele>
        <time>2026-05-15T15:24:25+02:00</time>
      </trkpt>
      <trkpt lat="47.41588" lon="5.53712">
        <ele>187.2002</ele>
        <time>2026-05-15T15:24:26+02:00</time>
      </trkpt>
      <trkpt lat="47.41593" lon="5.53707">
        <ele>187.10059</ele>
        <time>2026-05-15T15:24:27+02:00</time>
      </trkpt>
      <trkpt lat="47.41598" lon="5.53703">
        <ele>187.5</ele>
        <time>2026-05-15T15:24:28+02:00</time>
      </trkpt>
      <trkpt lat="47.41603" lon="5.53698">
        <ele>187.5</ele>
        <time>2026-05-15T15:24:29+02:00</time>
      </trkpt>
      <trkpt lat="47.41608" lon="5.53694">
        <ele>187.7002</ele>
        <time>2026-05-15T15:24:30+02:00</time>
      </trkpt>
      <trkpt lat="47.41614" lon="5.5369">
        <ele>187.40039</ele>
        <time>2026-05-15T15:24:31+02:00</time>
      </trkpt>
      <trkpt lat="47.41619" lon="5.53687">
        <ele>187.5</ele>
        <time>2026-05-15T15:24:32+02:00</time>
      </trkpt>
      <trkpt lat="47.41624" lon="5.53683">
        <ele>187.10059</ele>
        <time>2026-05-15T15:24:33+02:00</time>
      </trkpt>
      <trkpt lat="47.41629" lon="5.53679">
        <ele>187.10059</ele>
        <time>2026-05-15T15:24:34+02:00</time>
      </trkpt>
      <trkpt lat="47.41634" lon="5.53676">
        <ele>186.7998</ele>
        <time>2026-05-15T15:24:35+02:00</time>
      </trkpt>
      <trkpt lat="47.41639" lon="5.53672">
        <ele>187.10059</ele>
        <time>2026-05-15T15:24:36+02:00</time>
      </trkpt>
      <trkpt lat="47.41644" lon="5.53668">
        <ele>187</ele>
        <time>2026-05-15T15:24:37+02:00</time>
      </trkpt>
      <trkpt lat="47.41649" lon="5.53665">
        <ele>187.2002</ele>
        <time>2026-05-15T15:24:38+02:00</time>
      </trkpt>
      <trkpt lat="47.41654" lon="5.53662">
        <ele>187.2998</ele>
        <time>2026-05-15T15:24:39+02:00</time>
      </trkpt>
      <trkpt lat="47.41659" lon="5.53658">
        <ele>187</ele>
        <time>2026-05-15T15:24:40+02:00</time>
      </trkpt>
      <trkpt lat="47.41664" lon="5.53655">
        <ele>187</ele>
        <time>2026-05-15T15:24:41+02:00</time>
      </trkpt>
      <trkpt lat="47.41669" lon="5.53652">
        <ele>187.10059</ele>
        <time>2026-05-15T15:24:42+02:00</time>
      </trkpt>
      <trkpt lat="47.41673" lon="5.53648">
        <ele>186.90039</ele>
        <time>2026-05-15T15:24:43+02:00</time>
      </trkpt>
      <trkpt lat="47.41678" lon="5.53645">
        <ele>187.10059</ele>
        <time>2026-05-15T15:24:44+02:00</time>
      </trkpt>
      <trkpt lat="47.41683" lon="5.53642">
        <ele>187</ele>
        <time>2026-05-15T15:24:45+02:00</time>
      </trkpt>
      <trkpt lat="47.41688" lon="5.53638">
        <ele>187.2002</ele>
        <time>2026-05-15T15:24:46+02:00</time>
      </trkpt>
      <trkpt lat="47.41693" lon="5.53635">
        <ele>187.2002</ele>
        <time>2026-05-15T15:24:47+02:00</time>
      </trkpt>
      <trkpt lat="47.41698" lon="5.53631">
        <ele>187.10059</ele>
        <time>2026-05-15T15:24:48+02:00</time>
      </trkpt>
      <trkpt lat="47.41703" lon="5.53628">
        <ele>187.2998</ele>
        <time>2026-05-15T15:24:49+02:00</time>
      </trkpt>
      <trkpt lat="47.41708" lon="5.53624">
        <ele>187.10059</ele>
        <time>2026-05-15T15:24:50+02:00</time>
      </trkpt>
      <trkpt lat="47.41713" lon="5.53621">
        <ele>187.2002</ele>
        <time>2026-05-15T15:24:51+02:00</time>
      </trkpt>
      <trkpt lat="47.41718" lon="5.53617">
        <ele>187.2998</ele>
        <time>2026-05-15T15:24:52+02:00</time>
      </trkpt>
      <trkpt lat="47.41723" lon="5.53613">
        <ele>187.2002</ele>
        <time>2026-05-15T15:24:53+02:00</time>
      </trkpt>
      <trkpt lat="47.41727" lon="5.5361">
        <ele>187.2002</ele>
        <time>2026-05-15T15:24:54+02:00</time>
      </trkpt>
      <trkpt lat="47.41732" lon="5.53606">
        <ele>187.10059</ele>
        <time>2026-05-15T15:24:55+02:00</time>
      </trkpt>
      <trkpt lat="47.41737" lon="5.53603">
        <ele>187.2998</ele>
        <time>2026-05-15T15:24:56+02:00</time>
      </trkpt>
      <trkpt lat="47.41742" lon="5.53599">
        <ele>187.10059</ele>
        <time>2026-05-15T15:24:57+02:00</time>
      </trkpt>
      <trkpt lat="47.41747" lon="5.53595">
        <ele>187.2002</ele>
        <time>2026-05-15T15:24:58+02:00</time>
      </trkpt>
      <trkpt lat="47.41752" lon="5.53592">
        <ele>187.2998</ele>
        <time>2026-05-15T15:24:59+02:00</time>
      </trkpt>
      <trkpt lat="47.41758" lon="5.53588">
        <ele>186.90039</ele>
        <time>2026-05-15T15:25:00+02:00</time>
      </trkpt>
      <trkpt lat="47.41763" lon="5.53584">
        <ele>186.90039</ele>
        <time>2026-05-15T15:25:01+02:00</time>
      </trkpt>
      <trkpt lat="47.41768" lon="5.5358">
        <ele>186.7998</ele>
        <time>2026-05-15T15:25:02+02:00</time>
      </trkpt>
      <trkpt lat="47.41773" lon="5.53576">
        <ele>186.7998</ele>
        <time>2026-05-15T15:25:03+02:00</time>
      </trkpt>
      <trkpt lat="47.41779" lon="5.53573">
        <ele>186.60059</ele>
        <time>2026-05-15T15:25:04+02:00</time>
      </trkpt>
      <trkpt lat="47.41784" lon="5.53569">
        <ele>186.60059</ele>
        <time>2026-05-15T15:25:05+02:00</time>
      </trkpt>
      <trkpt lat="47.41789" lon="5.53566">
        <ele>186.60059</ele>
        <time>2026-05-15T15:25:06+02:00</time>
      </trkpt>
      <trkpt lat="47.41794" lon="5.53562">
        <ele>186.60059</ele>
        <time>2026-05-15T15:25:07+02:00</time>
      </trkpt>
      <trkpt lat="47.41799" lon="5.53558">
        <ele>186.60059</ele>
        <time>2026-05-15T15:25:08+02:00</time>
      </trkpt>
      <trkpt lat="47.41804" lon="5.53554">
        <ele>186.60059</ele>
        <time>2026-05-15T15:25:09+02:00</time>
      </trkpt>
      <trkpt lat="47.41809" lon="5.5355">
        <ele>186.60059</ele>
        <time>2026-05-15T15:25:10+02:00</time>
      </trkpt>
      <trkpt lat="47.41815" lon="5.53546">
        <ele>186.5</ele>
        <time>2026-05-15T15:25:11+02:00</time>
      </trkpt>
      <trkpt lat="47.41819" lon="5.53542">
        <ele>186.5</ele>
        <time>2026-05-15T15:25:12+02:00</time>
      </trkpt>
      <trkpt lat="47.41824" lon="5.53538">
        <ele>186.5</ele>
        <time>2026-05-15T15:25:13+02:00</time>
      </trkpt>
      <trkpt lat="47.41829" lon="5.53534">
        <ele>186.5</ele>
        <time>2026-05-15T15:25:14+02:00</time>
      </trkpt>
      <trkpt lat="47.41835" lon="5.53531">
        <ele>186.5</ele>
        <time>2026-05-15T15:25:15+02:00</time>
      </trkpt>
      <trkpt lat="47.4184" lon="5.53527">
        <ele>186.5</ele>
        <time>2026-05-15T15:25:16+02:00</time>
      </trkpt>
      <trkpt lat="47.41845" lon="5.53524">
        <ele>186.60059</ele>
        <time>2026-05-15T15:25:17+02:00</time>
      </trkpt>
      <trkpt lat="47.4185" lon="5.5352">
        <ele>186.5</ele>
        <time>2026-05-15T15:25:18+02:00</time>
      </trkpt>
      <trkpt lat="47.41856" lon="5.53516">
        <ele>186.60059</ele>
        <time>2026-05-15T15:25:19+02:00</time>
      </trkpt>
      <trkpt lat="47.41861" lon="5.53512">
        <ele>186.5</ele>
        <time>2026-05-15T15:25:20+02:00</time>
      </trkpt>
      <trkpt lat="47.41866" lon="5.53508">
        <ele>186.60059</ele>
        <time>2026-05-15T15:25:21+02:00</time>
      </trkpt>
      <trkpt lat="47.41871" lon="5.53504">
        <ele>186.5</ele>
        <time>2026-05-15T15:25:22+02:00</time>
      </trkpt>
      <trkpt lat="47.41877" lon="5.535">
        <ele>186.60059</ele>
        <time>2026-05-15T15:25:23+02:00</time>
      </trkpt>
      <trkpt lat="47.41882" lon="5.53496">
        <ele>186.60059</ele>
        <time>2026-05-15T15:25:24+02:00</time>
      </trkpt>
      <trkpt lat="47.41887" lon="5.53491">
        <ele>186.60059</ele>
        <time>2026-05-15T15:25:25+02:00</time>
      </trkpt>
      <trkpt lat="47.41893" lon="5.53486">
        <ele>186.60059</ele>
        <time>2026-05-15T15:25:26+02:00</time>
      </trkpt>
      <trkpt lat="47.41898" lon="5.53481">
        <ele>186.7002</ele>
        <time>2026-05-15T15:25:27+02:00</time>
      </trkpt>
      <trkpt lat="47.41903" lon="5.53476">
        <ele>186.60059</ele>
        <time>2026-05-15T15:25:28+02:00</time>
      </trkpt>
      <trkpt lat="47.41908" lon="5.53471">
        <ele>186.60059</ele>
        <time>2026-05-15T15:25:29+02:00</time>
      </trkpt>
      <trkpt lat="47.41913" lon="5.53465">
        <ele>186.60059</ele>
        <time>2026-05-15T15:25:30+02:00</time>
      </trkpt>
      <trkpt lat="47.41918" lon="5.53459">
        <ele>186.5</ele>
        <time>2026-05-15T15:25:31+02:00</time>
      </trkpt>
      <trkpt lat="47.41922" lon="5.53453">
        <ele>186.5</ele>
        <time>2026-05-15T15:25:32+02:00</time>
      </trkpt>
      <trkpt lat="47.41927" lon="5.53447">
        <ele>186.60059</ele>
        <time>2026-05-15T15:25:33+02:00</time>
      </trkpt>
      <trkpt lat="47.41931" lon="5.5344">
        <ele>186.5</ele>
        <time>2026-05-15T15:25:34+02:00</time>
      </trkpt>
      <trkpt lat="47.41936" lon="5.53434">
        <ele>186.5</ele>
        <time>2026-05-15T15:25:35+02:00</time>
      </trkpt>
      <trkpt lat="47.4194" lon="5.53428">
        <ele>186.60059</ele>
        <time>2026-05-15T15:25:36+02:00</time>
      </trkpt>
      <trkpt lat="47.41944" lon="5.53422">
        <ele>186.5</ele>
        <time>2026-05-15T15:25:37+02:00</time>
      </trkpt>
      <trkpt lat="47.41949" lon="5.53415">
        <ele>186.40039</ele>
        <time>2026-05-15T15:25:38+02:00</time>
      </trkpt>
      <trkpt lat="47.41953" lon="5.53409">
        <ele>186.40039</ele>
        <time>2026-05-15T15:25:39+02:00</time>
      </trkpt>
      <trkpt lat="47.41957" lon="5.53403">
        <ele>186.5</ele>
        <time>2026-05-15T15:25:40+02:00</time>
      </trkpt>
      <trkpt lat="47.41961" lon="5.53397">
        <ele>186.60059</ele>
        <time>2026-05-15T15:25:41+02:00</time>
      </trkpt>
      <trkpt lat="47.41965" lon="5.53391">
        <ele>186.5</ele>
        <time>2026-05-15T15:25:42+02:00</time>
      </trkpt>
      <trkpt lat="47.4197" lon="5.53387">
        <ele>186.60059</ele>
        <time>2026-05-15T15:25:43+02:00</time>
      </trkpt>
      <trkpt lat="47.41973" lon="5.53383">
        <ele>186.60059</ele>
        <time>2026-05-15T15:25:44+02:00</time>
      </trkpt>
      <trkpt lat="47.41977" lon="5.53379">
        <ele>186.60059</ele>
        <time>2026-05-15T15:25:45+02:00</time>
      </trkpt>
      <trkpt lat="47.41981" lon="5.53377">
        <ele>186.7998</ele>
        <time>2026-05-15T15:25:46+02:00</time>
      </trkpt>
      <trkpt lat="47.41985" lon="5.53375">
        <ele>186.90039</ele>
        <time>2026-05-15T15:25:47+02:00</time>
      </trkpt>
      <trkpt lat="47.4199" lon="5.53373">
        <ele>186.90039</ele>
        <time>2026-05-15T15:25:48+02:00</time>
      </trkpt>
      <trkpt lat="47.41994" lon="5.53372">
        <ele>187.10059</ele>
        <time>2026-05-15T15:25:49+02:00</time>
      </trkpt>
      <trkpt lat="47.41999" lon="5.53369">
        <ele>187.40039</ele>
        <time>2026-05-15T15:25:50+02:00</time>
      </trkpt>
      <trkpt lat="47.42003" lon="5.53367">
        <ele>187.2998</ele>
        <time>2026-05-15T15:25:51+02:00</time>
      </trkpt>
      <trkpt lat="47.42008" lon="5.53365">
        <ele>187.40039</ele>
        <time>2026-05-15T15:25:52+02:00</time>
      </trkpt>
      <trkpt lat="47.42012" lon="5.53363">
        <ele>187.40039</ele>
        <time>2026-05-15T15:25:53+02:00</time>
      </trkpt>
      <trkpt lat="47.42017" lon="5.53362">
        <ele>187.60059</ele>
        <time>2026-05-15T15:25:54+02:00</time>
      </trkpt>
      <trkpt lat="47.42022" lon="5.53361">
        <ele>187.7002</ele>
        <time>2026-05-15T15:25:55+02:00</time>
      </trkpt>
      <trkpt lat="47.42027" lon="5.5336">
        <ele>187.90039</ele>
        <time>2026-05-15T15:25:56+02:00</time>
      </trkpt>
      <trkpt lat="47.42032" lon="5.53359">
        <ele>187.40039</ele>
        <time>2026-05-15T15:25:57+02:00</time>
      </trkpt>
      <trkpt lat="47.42038" lon="5.53358">
        <ele>187.60059</ele>
        <time>2026-05-15T15:25:58+02:00</time>
      </trkpt>
      <trkpt lat="47.42043" lon="5.53357">
        <ele>187.7002</ele>
        <time>2026-05-15T15:25:59+02:00</time>
      </trkpt>
      <trkpt lat="47.42048" lon="5.53356">
        <ele>187.7002</ele>
        <time>2026-05-15T15:26:00+02:00</time>
      </trkpt>
      <trkpt lat="47.42054" lon="5.53355">
        <ele>188.10059</ele>
        <time>2026-05-15T15:26:01+02:00</time>
      </trkpt>
      <trkpt lat="47.42059" lon="5.53354">
        <ele>188.10059</ele>
        <time>2026-05-15T15:26:02+02:00</time>
      </trkpt>
      <trkpt lat="47.42065" lon="5.53353">
        <ele>188.2998</ele>
        <time>2026-05-15T15:26:03+02:00</time>
      </trkpt>
      <trkpt lat="47.42071" lon="5.53351">
        <ele>188.60059</ele>
        <time>2026-05-15T15:26:04+02:00</time>
      </trkpt>
      <trkpt lat="47.42076" lon="5.5335">
        <ele>188.10059</ele>
        <time>2026-05-15T15:26:05+02:00</time>
      </trkpt>
      <trkpt lat="47.4208" lon="5.53348">
        <ele>188.7002</ele>
        <time>2026-05-15T15:26:06+02:00</time>
      </trkpt>
      <trkpt lat="47.42086" lon="5.53346">
        <ele>189.2998</ele>
        <time>2026-05-15T15:26:07+02:00</time>
      </trkpt>
      <trkpt lat="47.42091" lon="5.53344">
        <ele>190.2002</ele>
        <time>2026-05-15T15:26:08+02:00</time>
      </trkpt>
      <trkpt lat="47.42096" lon="5.53342">
        <ele>191.40039</ele>
        <time>2026-05-15T15:26:09+02:00</time>
      </trkpt>
      <trkpt lat="47.42102" lon="5.53341">
        <ele>190.7002</ele>
        <time>2026-05-15T15:26:10+02:00</time>
      </trkpt>
      <trkpt lat="47.42107" lon="5.53339">
        <ele>191.2998</ele>
        <time>2026-05-15T15:26:11+02:00</time>
      </trkpt>
      <trkpt lat="47.42112" lon="5.53337">
        <ele>191.60059</ele>
        <time>2026-05-15T15:26:12+02:00</time>
      </trkpt>
      <trkpt lat="47.42117" lon="5.53335">
        <ele>191.60059</ele>
        <time>2026-05-15T15:26:13+02:00</time>
      </trkpt>
      <trkpt lat="47.42123" lon="5.53334">
        <ele>191.90039</ele>
        <time>2026-05-15T15:26:14+02:00</time>
      </trkpt>
      <trkpt lat="47.42128" lon="5.53332">
        <ele>190.10059</ele>
        <time>2026-05-15T15:26:15+02:00</time>
      </trkpt>
      <trkpt lat="47.42133" lon="5.5333">
        <ele>190.40039</ele>
        <time>2026-05-15T15:26:16+02:00</time>
      </trkpt>
      <trkpt lat="47.42138" lon="5.53328">
        <ele>190.60059</ele>
        <time>2026-05-15T15:26:17+02:00</time>
      </trkpt>
      <trkpt lat="47.42144" lon="5.53326">
        <ele>190.7002</ele>
        <time>2026-05-15T15:26:18+02:00</time>
      </trkpt>
      <trkpt lat="47.42149" lon="5.53324">
        <ele>189.40039</ele>
        <time>2026-05-15T15:26:19+02:00</time>
      </trkpt>
      <trkpt lat="47.42154" lon="5.53321">
        <ele>189.7002</ele>
        <time>2026-05-15T15:26:20+02:00</time>
      </trkpt>
      <trkpt lat="47.4216" lon="5.53319">
        <ele>189.90039</ele>
        <time>2026-05-15T15:26:21+02:00</time>
      </trkpt>
      <trkpt lat="47.42166" lon="5.53317">
        <ele>190.2002</ele>
        <time>2026-05-15T15:26:22+02:00</time>
      </trkpt>
      <trkpt lat="47.42171" lon="5.53315">
        <ele>189.2002</ele>
        <time>2026-05-15T15:26:23+02:00</time>
      </trkpt>
      <trkpt lat="47.42177" lon="5.53313">
        <ele>189.60059</ele>
        <time>2026-05-15T15:26:24+02:00</time>
      </trkpt>
      <trkpt lat="47.42182" lon="5.53311">
        <ele>190</ele>
        <time>2026-05-15T15:26:25+02:00</time>
      </trkpt>
      <trkpt lat="47.42188" lon="5.53309">
        <ele>190.40039</ele>
        <time>2026-05-15T15:26:26+02:00</time>
      </trkpt>
      <trkpt lat="47.42193" lon="5.53307">
        <ele>189.2998</ele>
        <time>2026-05-15T15:26:27+02:00</time>
      </trkpt>
      <trkpt lat="47.42199" lon="5.53304">
        <ele>189.7002</ele>
        <time>2026-05-15T15:26:28+02:00</time>
      </trkpt>
      <trkpt lat="47.42204" lon="5.53302">
        <ele>190</ele>
        <time>2026-05-15T15:26:29+02:00</time>
      </trkpt>
      <trkpt lat="47.4221" lon="5.533">
        <ele>190.10059</ele>
        <time>2026-05-15T15:26:30+02:00</time>
      </trkpt>
      <trkpt lat="47.42215" lon="5.53298">
        <ele>189.5</ele>
        <time>2026-05-15T15:26:31+02:00</time>
      </trkpt>
      <trkpt lat="47.42222" lon="5.53295">
        <ele>189.90039</ele>
        <time>2026-05-15T15:26:32+02:00</time>
      </trkpt>
      <trkpt lat="47.42227" lon="5.53293">
        <ele>190.5</ele>
        <time>2026-05-15T15:26:33+02:00</time>
      </trkpt>
      <trkpt lat="47.42233" lon="5.53291">
        <ele>191.40039</ele>
        <time>2026-05-15T15:26:34+02:00</time>
      </trkpt>
      <trkpt lat="47.42239" lon="5.53289">
        <ele>190.10059</ele>
        <time>2026-05-15T15:26:35+02:00</time>
      </trkpt>
      <trkpt lat="47.42244" lon="5.53287">
        <ele>190.5</ele>
        <time>2026-05-15T15:26:36+02:00</time>
      </trkpt>
      <trkpt lat="47.42249" lon="5.53285">
        <ele>190.7998</ele>
        <time>2026-05-15T15:26:37+02:00</time>
      </trkpt>
      <trkpt lat="47.42255" lon="5.53283">
        <ele>191.10059</ele>
        <time>2026-05-15T15:26:38+02:00</time>
      </trkpt>
      <trkpt lat="47.4226" lon="5.53281">
        <ele>189.5</ele>
        <time>2026-05-15T15:26:39+02:00</time>
      </trkpt>
      <trkpt lat="47.42265" lon="5.53279">
        <ele>189.7002</ele>
        <time>2026-05-15T15:26:40+02:00</time>
      </trkpt>
      <trkpt lat="47.42271" lon="5.53276">
        <ele>189.7998</ele>
        <time>2026-05-15T15:26:41+02:00</time>
      </trkpt>
      <trkpt lat="47.42277" lon="5.53274">
        <ele>189.7998</ele>
        <time>2026-05-15T15:26:42+02:00</time>
      </trkpt>
      <trkpt lat="47.42282" lon="5.53272">
        <ele>188.7002</ele>
        <time>2026-05-15T15:26:43+02:00</time>
      </trkpt>
      <trkpt lat="47.42288" lon="5.5327">
        <ele>188.7998</ele>
        <time>2026-05-15T15:26:44+02:00</time>
      </trkpt>
      <trkpt lat="47.42294" lon="5.53269">
        <ele>188.7998</ele>
        <time>2026-05-15T15:26:45+02:00</time>
      </trkpt>
      <trkpt lat="47.42299" lon="5.53267">
        <ele>188.90039</ele>
        <time>2026-05-15T15:26:46+02:00</time>
      </trkpt>
      <trkpt lat="47.42305" lon="5.53266">
        <ele>189</ele>
        <time>2026-05-15T15:26:47+02:00</time>
      </trkpt>
      <trkpt lat="47.42311" lon="5.53264">
        <ele>188</ele>
        <time>2026-05-15T15:26:48+02:00</time>
      </trkpt>
      <trkpt lat="47.42317" lon="5.53263">
        <ele>188</ele>
        <time>2026-05-15T15:26:49+02:00</time>
      </trkpt>
      <trkpt lat="47.42322" lon="5.53262">
        <ele>188.10059</ele>
        <time>2026-05-15T15:26:50+02:00</time>
      </trkpt>
      <trkpt lat="47.42328" lon="5.53261">
        <ele>188.10059</ele>
        <time>2026-05-15T15:26:51+02:00</time>
      </trkpt>
      <trkpt lat="47.42334" lon="5.5326">
        <ele>188.2002</ele>
        <time>2026-05-15T15:26:52+02:00</time>
      </trkpt>
      <trkpt lat="47.42341" lon="5.53259">
        <ele>188.2002</ele>
        <time>2026-05-15T15:26:53+02:00</time>
      </trkpt>
      <trkpt lat="47.42347" lon="5.53259">
        <ele>188.2998</ele>
        <time>2026-05-15T15:26:54+02:00</time>
      </trkpt>
      <trkpt lat="47.42353" lon="5.53259">
        <ele>188.2998</ele>
        <time>2026-05-15T15:26:55+02:00</time>
      </trkpt>
      <trkpt lat="47.42359" lon="5.5326">
        <ele>188.2998</ele>
        <time>2026-05-15T15:26:56+02:00</time>
      </trkpt>
      <trkpt lat="47.42365" lon="5.53261">
        <ele>188.40039</ele>
        <time>2026-05-15T15:26:57+02:00</time>
      </trkpt>
      <trkpt lat="47.42371" lon="5.53263">
        <ele>188.40039</ele>
        <time>2026-05-15T15:26:58+02:00</time>
      </trkpt>
      <trkpt lat="47.42377" lon="5.53265">
        <ele>189.5</ele>
        <time>2026-05-15T15:26:59+02:00</time>
      </trkpt>
      <trkpt lat="47.42383" lon="5.53267">
        <ele>189.5</ele>
        <time>2026-05-15T15:27:00+02:00</time>
      </trkpt>
      <trkpt lat="47.42389" lon="5.5327">
        <ele>189.60059</ele>
        <time>2026-05-15T15:27:01+02:00</time>
      </trkpt>
      <trkpt lat="47.42394" lon="5.53273">
        <ele>189.60059</ele>
        <time>2026-05-15T15:27:02+02:00</time>
      </trkpt>
      <trkpt lat="47.424" lon="5.53275">
        <ele>191.5</ele>
        <time>2026-05-15T15:27:03+02:00</time>
      </trkpt>
      <trkpt lat="47.42405" lon="5.53278">
        <ele>191.5</ele>
        <time>2026-05-15T15:27:04+02:00</time>
      </trkpt>
      <trkpt lat="47.42411" lon="5.53281">
        <ele>191.60059</ele>
        <time>2026-05-15T15:27:05+02:00</time>
      </trkpt>
      <trkpt lat="47.42417" lon="5.53284">
        <ele>193.7002</ele>
        <time>2026-05-15T15:27:06+02:00</time>
      </trkpt>
      <trkpt lat="47.42423" lon="5.53288">
        <ele>193.60059</ele>
        <time>2026-05-15T15:27:07+02:00</time>
      </trkpt>
      <trkpt lat="47.42428" lon="5.53291">
        <ele>194.90039</ele>
        <time>2026-05-15T15:27:08+02:00</time>
      </trkpt>
      <trkpt lat="47.42434" lon="5.53295">
        <ele>194.60059</ele>
        <time>2026-05-15T15:27:09+02:00</time>
      </trkpt>
      <trkpt lat="47.42439" lon="5.53299">
        <ele>194.90039</ele>
        <time>2026-05-15T15:27:10+02:00</time>
      </trkpt>
      <trkpt lat="47.42445" lon="5.53304">
        <ele>194.2998</ele>
        <time>2026-05-15T15:27:11+02:00</time>
      </trkpt>
      <trkpt lat="47.4245" lon="5.53309">
        <ele>194.40039</ele>
        <time>2026-05-15T15:27:12+02:00</time>
      </trkpt>
      <trkpt lat="47.42455" lon="5.53314">
        <ele>193.7998</ele>
        <time>2026-05-15T15:27:13+02:00</time>
      </trkpt>
      <trkpt lat="47.42459" lon="5.53319">
        <ele>194.7998</ele>
        <time>2026-05-15T15:27:14+02:00</time>
      </trkpt>
      <trkpt lat="47.42464" lon="5.53324">
        <ele>194.60059</ele>
        <time>2026-05-15T15:27:15+02:00</time>
      </trkpt>
      <trkpt lat="47.42469" lon="5.53329">
        <ele>194.7998</ele>
        <time>2026-05-15T15:27:16+02:00</time>
      </trkpt>
      <trkpt lat="47.42473" lon="5.53334">
        <ele>194.2998</ele>
        <time>2026-05-15T15:27:17+02:00</time>
      </trkpt>
      <trkpt lat="47.42478" lon="5.53339">
        <ele>193.2998</ele>
        <time>2026-05-15T15:27:18+02:00</time>
      </trkpt>
      <trkpt lat="47.42483" lon="5.53345">
        <ele>194.2998</ele>
        <time>2026-05-15T15:27:19+02:00</time>
      </trkpt>
      <trkpt lat="47.42487" lon="5.53351">
        <ele>194.7002</ele>
        <time>2026-05-15T15:27:20+02:00</time>
      </trkpt>
      <trkpt lat="47.42492" lon="5.53356">
        <ele>194.2002</ele>
        <time>2026-05-15T15:27:21+02:00</time>
      </trkpt>
      <trkpt lat="47.42497" lon="5.53362">
        <ele>193.60059</ele>
        <time>2026-05-15T15:27:22+02:00</time>
      </trkpt>
      <trkpt lat="47.42501" lon="5.53367">
        <ele>191.90039</ele>
        <time>2026-05-15T15:27:23+02:00</time>
      </trkpt>
      <trkpt lat="47.42506" lon="5.53373">
        <ele>191.7998</ele>
        <time>2026-05-15T15:27:24+02:00</time>
      </trkpt>
      <trkpt lat="47.42511" lon="5.53378">
        <ele>189.60059</ele>
        <time>2026-05-15T15:27:25+02:00</time>
      </trkpt>
      <trkpt lat="47.42515" lon="5.53384">
        <ele>188.2002</ele>
        <time>2026-05-15T15:27:26+02:00</time>
      </trkpt>
      <trkpt lat="47.42519" lon="5.53389">
        <ele>188.10059</ele>
        <time>2026-05-15T15:27:27+02:00</time>
      </trkpt>
      <trkpt lat="47.42523" lon="5.53395">
        <ele>189</ele>
        <time>2026-05-15T15:27:28+02:00</time>
      </trkpt>
      <trkpt lat="47.42527" lon="5.53401">
        <ele>188.7998</ele>
        <time>2026-05-15T15:27:29+02:00</time>
      </trkpt>
      <trkpt lat="47.42531" lon="5.53407">
        <ele>189.2002</ele>
        <time>2026-05-15T15:27:30+02:00</time>
      </trkpt>
      <trkpt lat="47.42534" lon="5.53413">
        <ele>189.90039</ele>
        <time>2026-05-15T15:27:31+02:00</time>
      </trkpt>
      <trkpt lat="47.42537" lon="5.53421">
        <ele>188.90039</ele>
        <time>2026-05-15T15:27:32+02:00</time>
      </trkpt>
      <trkpt lat="47.4254" lon="5.53428">
        <ele>188.90039</ele>
        <time>2026-05-15T15:27:33+02:00</time>
      </trkpt>
      <trkpt lat="47.42542" lon="5.53435">
        <ele>188.2002</ele>
        <time>2026-05-15T15:27:34+02:00</time>
      </trkpt>
      <trkpt lat="47.42545" lon="5.53443">
        <ele>188.10059</ele>
        <time>2026-05-15T15:27:35+02:00</time>
      </trkpt>
      <trkpt lat="47.42547" lon="5.53451">
        <ele>188</ele>
        <time>2026-05-15T15:27:36+02:00</time>
      </trkpt>
      <trkpt lat="47.42549" lon="5.53458">
        <ele>187.60059</ele>
        <time>2026-05-15T15:27:37+02:00</time>
      </trkpt>
      <trkpt lat="47.42551" lon="5.53466">
        <ele>187.7002</ele>
        <time>2026-05-15T15:27:38+02:00</time>
      </trkpt>
      <trkpt lat="47.42553" lon="5.53474">
        <ele>187.7002</ele>
        <time>2026-05-15T15:27:39+02:00</time>
      </trkpt>
      <trkpt lat="47.42555" lon="5.53482">
        <ele>187.60059</ele>
        <time>2026-05-15T15:27:40+02:00</time>
      </trkpt>
      <trkpt lat="47.42556" lon="5.5349">
        <ele>187.90039</ele>
        <time>2026-05-15T15:27:41+02:00</time>
      </trkpt>
      <trkpt lat="47.42557" lon="5.53498">
        <ele>188.40039</ele>
        <time>2026-05-15T15:27:42+02:00</time>
      </trkpt>
      <trkpt lat="47.42558" lon="5.53507">
        <ele>189.10059</ele>
        <time>2026-05-15T15:27:43+02:00</time>
      </trkpt>
      <trkpt lat="47.4256" lon="5.53515">
        <ele>188.5</ele>
        <time>2026-05-15T15:27:44+02:00</time>
      </trkpt>
      <trkpt lat="47.42561" lon="5.53524">
        <ele>188.7002</ele>
        <time>2026-05-15T15:27:45+02:00</time>
      </trkpt>
      <trkpt lat="47.42561" lon="5.53533">
        <ele>188.90039</ele>
        <time>2026-05-15T15:27:46+02:00</time>
      </trkpt>
      <trkpt lat="47.42562" lon="5.53541">
        <ele>189</ele>
        <time>2026-05-15T15:27:47+02:00</time>
      </trkpt>
      <trkpt lat="47.42562" lon="5.5355">
        <ele>189.2002</ele>
        <time>2026-05-15T15:27:48+02:00</time>
      </trkpt>
      <trkpt lat="47.42563" lon="5.53559">
        <ele>189.2998</ele>
        <time>2026-05-15T15:27:49+02:00</time>
      </trkpt>
      <trkpt lat="47.42563" lon="5.53568">
        <ele>189.2998</ele>
        <time>2026-05-15T15:27:50+02:00</time>
      </trkpt>
      <trkpt lat="47.42563" lon="5.53577">
        <ele>189.40039</ele>
        <time>2026-05-15T15:27:51+02:00</time>
      </trkpt>
      <trkpt lat="47.42564" lon="5.53586">
        <ele>189.40039</ele>
        <time>2026-05-15T15:27:52+02:00</time>
      </trkpt>
      <trkpt lat="47.42564" lon="5.53595">
        <ele>189.5</ele>
        <time>2026-05-15T15:27:53+02:00</time>
      </trkpt>
      <trkpt lat="47.42564" lon="5.53604">
        <ele>189.60059</ele>
        <time>2026-05-15T15:27:54+02:00</time>
      </trkpt>
      <trkpt lat="47.42565" lon="5.53614">
        <ele>188.60059</ele>
        <time>2026-05-15T15:27:55+02:00</time>
      </trkpt>
      <trkpt lat="47.42565" lon="5.53623">
        <ele>188.7002</ele>
        <time>2026-05-15T15:27:56+02:00</time>
      </trkpt>
      <trkpt lat="47.42565" lon="5.53632">
        <ele>188.7998</ele>
        <time>2026-05-15T15:27:57+02:00</time>
      </trkpt>
      <trkpt lat="47.42566" lon="5.53641">
        <ele>188.7998</ele>
        <time>2026-05-15T15:27:58+02:00</time>
      </trkpt>
      <trkpt lat="47.42566" lon="5.53651">
        <ele>188.90039</ele>
        <time>2026-05-15T15:27:59+02:00</time>
      </trkpt>
      <trkpt lat="47.42566" lon="5.5366">
        <ele>189</ele>
        <time>2026-05-15T15:28:00+02:00</time>
      </trkpt>
      <trkpt lat="47.42566" lon="5.5367">
        <ele>189</ele>
        <time>2026-05-15T15:28:01+02:00</time>
      </trkpt>
      <trkpt lat="47.42567" lon="5.53679">
        <ele>189.10059</ele>
        <time>2026-05-15T15:28:02+02:00</time>
      </trkpt>
      <trkpt lat="47.42568" lon="5.53689">
        <ele>189.10059</ele>
        <time>2026-05-15T15:28:03+02:00</time>
      </trkpt>
      <trkpt lat="47.42568" lon="5.53698">
        <ele>189.10059</ele>
        <time>2026-05-15T15:28:04+02:00</time>
      </trkpt>
      <trkpt lat="47.42569" lon="5.53707">
        <ele>189.10059</ele>
        <time>2026-05-15T15:28:05+02:00</time>
      </trkpt>
      <trkpt lat="47.42569" lon="5.53716">
        <ele>189.10059</ele>
        <time>2026-05-15T15:28:06+02:00</time>
      </trkpt>
      <trkpt lat="47.42571" lon="5.53726">
        <ele>188.2002</ele>
        <time>2026-05-15T15:28:07+02:00</time>
      </trkpt>
      <trkpt lat="47.42571" lon="5.53735">
        <ele>188.2002</ele>
        <time>2026-05-15T15:28:08+02:00</time>
      </trkpt>
      <trkpt lat="47.42572" lon="5.53744">
        <ele>188.2998</ele>
        <time>2026-05-15T15:28:09+02:00</time>
      </trkpt>
      <trkpt lat="47.42573" lon="5.53753">
        <ele>188.2998</ele>
        <time>2026-05-15T15:28:10+02:00</time>
      </trkpt>
      <trkpt lat="47.42574" lon="5.53762">
        <ele>188.2998</ele>
        <time>2026-05-15T15:28:11+02:00</time>
      </trkpt>
      <trkpt lat="47.42574" lon="5.53771">
        <ele>188.40039</ele>
        <time>2026-05-15T15:28:12+02:00</time>
      </trkpt>
      <trkpt lat="47.42575" lon="5.5378">
        <ele>188.40039</ele>
        <time>2026-05-15T15:28:13+02:00</time>
      </trkpt>
      <trkpt lat="47.42575" lon="5.53789">
        <ele>188.5</ele>
        <time>2026-05-15T15:28:14+02:00</time>
      </trkpt>
      <trkpt lat="47.42575" lon="5.53799">
        <ele>188.60059</ele>
        <time>2026-05-15T15:28:15+02:00</time>
      </trkpt>
      <trkpt lat="47.42576" lon="5.53808">
        <ele>188.7002</ele>
        <time>2026-05-15T15:28:16+02:00</time>
      </trkpt>
      <trkpt lat="47.42575" lon="5.53817">
        <ele>188.7998</ele>
        <time>2026-05-15T15:28:17+02:00</time>
      </trkpt>
      <trkpt lat="47.42575" lon="5.53826">
        <ele>188.7998</ele>
        <time>2026-05-15T15:28:18+02:00</time>
      </trkpt>
      <trkpt lat="47.42575" lon="5.53835">
        <ele>188.90039</ele>
        <time>2026-05-15T15:28:19+02:00</time>
      </trkpt>
      <trkpt lat="47.42574" lon="5.53844">
        <ele>188.90039</ele>
        <time>2026-05-15T15:28:20+02:00</time>
      </trkpt>
      <trkpt lat="47.42574" lon="5.53853">
        <ele>188.90039</ele>
        <time>2026-05-15T15:28:21+02:00</time>
      </trkpt>
      <trkpt lat="47.42574" lon="5.53862">
        <ele>188.5</ele>
        <time>2026-05-15T15:28:22+02:00</time>
      </trkpt>
      <trkpt lat="47.42573" lon="5.53871">
        <ele>188.10059</ele>
        <time>2026-05-15T15:28:23+02:00</time>
      </trkpt>
      <trkpt lat="47.42573" lon="5.5388">
        <ele>187.7002</ele>
        <time>2026-05-15T15:28:24+02:00</time>
      </trkpt>
      <trkpt lat="47.42574" lon="5.53889">
        <ele>187.60059</ele>
        <time>2026-05-15T15:28:25+02:00</time>
      </trkpt>
      <trkpt lat="47.42574" lon="5.53898">
        <ele>187.60059</ele>
        <time>2026-05-15T15:28:26+02:00</time>
      </trkpt>
      <trkpt lat="47.42574" lon="5.53906">
        <ele>187.7002</ele>
        <time>2026-05-15T15:28:27+02:00</time>
      </trkpt>
      <trkpt lat="47.42575" lon="5.53916">
        <ele>187.90039</ele>
        <time>2026-05-15T15:28:28+02:00</time>
      </trkpt>
      <trkpt lat="47.42576" lon="5.53925">
        <ele>188.10059</ele>
        <time>2026-05-15T15:28:29+02:00</time>
      </trkpt>
      <trkpt lat="47.42578" lon="5.53934">
        <ele>187.10059</ele>
        <time>2026-05-15T15:28:30+02:00</time>
      </trkpt>
      <trkpt lat="47.42579" lon="5.53942">
        <ele>187.40039</ele>
        <time>2026-05-15T15:28:31+02:00</time>
      </trkpt>
      <trkpt lat="47.42581" lon="5.53951">
        <ele>187.7002</ele>
        <time>2026-05-15T15:28:32+02:00</time>
      </trkpt>
      <trkpt lat="47.42583" lon="5.5396">
        <ele>189.2002</ele>
        <time>2026-05-15T15:28:33+02:00</time>
      </trkpt>
      <trkpt lat="47.42585" lon="5.53969">
        <ele>190.40039</ele>
        <time>2026-05-15T15:28:34+02:00</time>
      </trkpt>
      <trkpt lat="47.42587" lon="5.53978">
        <ele>191</ele>
        <time>2026-05-15T15:28:35+02:00</time>
      </trkpt>
      <trkpt lat="47.42589" lon="5.53986">
        <ele>190.5</ele>
        <time>2026-05-15T15:28:36+02:00</time>
      </trkpt>
      <trkpt lat="47.42591" lon="5.53995">
        <ele>190.5</ele>
        <time>2026-05-15T15:28:37+02:00</time>
      </trkpt>
      <trkpt lat="47.42593" lon="5.54004">
        <ele>190.5</ele>
        <time>2026-05-15T15:28:38+02:00</time>
      </trkpt>
      <trkpt lat="47.42595" lon="5.54013">
        <ele>189.60059</ele>
        <time>2026-05-15T15:28:39+02:00</time>
      </trkpt>
      <trkpt lat="47.42598" lon="5.54021">
        <ele>189.40039</ele>
        <time>2026-05-15T15:28:40+02:00</time>
      </trkpt>
      <trkpt lat="47.426" lon="5.5403">
        <ele>187.90039</ele>
        <time>2026-05-15T15:28:41+02:00</time>
      </trkpt>
      <trkpt lat="47.42602" lon="5.54039">
        <ele>187.7002</ele>
        <time>2026-05-15T15:28:42+02:00</time>
      </trkpt>
      <trkpt lat="47.42605" lon="5.54047">
        <ele>187.90039</ele>
        <time>2026-05-15T15:28:43+02:00</time>
      </trkpt>
      <trkpt lat="47.42608" lon="5.54056">
        <ele>188</ele>
        <time>2026-05-15T15:28:44+02:00</time>
      </trkpt>
      <trkpt lat="47.4261" lon="5.54064">
        <ele>189.40039</ele>
        <time>2026-05-15T15:28:45+02:00</time>
      </trkpt>
      <trkpt lat="47.42613" lon="5.54073">
        <ele>189.7002</ele>
        <time>2026-05-15T15:28:46+02:00</time>
      </trkpt>
      <trkpt lat="47.42616" lon="5.54082">
        <ele>190.2002</ele>
        <time>2026-05-15T15:28:47+02:00</time>
      </trkpt>
      <trkpt lat="47.42618" lon="5.5409">
        <ele>189.7002</ele>
        <time>2026-05-15T15:28:48+02:00</time>
      </trkpt>
      <trkpt lat="47.42621" lon="5.54099">
        <ele>189.90039</ele>
        <time>2026-05-15T15:28:49+02:00</time>
      </trkpt>
      <trkpt lat="47.42624" lon="5.54107">
        <ele>189.7002</ele>
        <time>2026-05-15T15:28:50+02:00</time>
      </trkpt>
      <trkpt lat="47.42627" lon="5.54116">
        <ele>190.2002</ele>
        <time>2026-05-15T15:28:51+02:00</time>
      </trkpt>
      <trkpt lat="47.42631" lon="5.54124">
        <ele>190.40039</ele>
        <time>2026-05-15T15:28:52+02:00</time>
      </trkpt>
      <trkpt lat="47.42634" lon="5.54133">
        <ele>191</ele>
        <time>2026-05-15T15:28:53+02:00</time>
      </trkpt>
      <trkpt lat="47.42637" lon="5.54141">
        <ele>191.10059</ele>
        <time>2026-05-15T15:28:54+02:00</time>
      </trkpt>
      <trkpt lat="47.4264" lon="5.54149">
        <ele>191.40039</ele>
        <time>2026-05-15T15:28:55+02:00</time>
      </trkpt>
      <trkpt lat="47.42644" lon="5.54157">
        <ele>190.60059</ele>
        <time>2026-05-15T15:28:56+02:00</time>
      </trkpt>
      <trkpt lat="47.42656" lon="5.5418">
        <ele>189.2002</ele>
        <time>2026-05-15T15:28:57+02:00</time>
      </trkpt>
      <trkpt lat="47.4266" lon="5.54188">
        <ele>189.90039</ele>
        <time>2026-05-15T15:28:58+02:00</time>
      </trkpt>
      <trkpt lat="47.42665" lon="5.54195">
        <ele>190.90039</ele>
        <time>2026-05-15T15:28:59+02:00</time>
      </trkpt>
      <trkpt lat="47.4267" lon="5.54201">
        <ele>191.2002</ele>
        <time>2026-05-15T15:29:00+02:00</time>
      </trkpt>
      <trkpt lat="47.42675" lon="5.54207">
        <ele>191.2002</ele>
        <time>2026-05-15T15:29:01+02:00</time>
      </trkpt>
      <trkpt lat="47.4268" lon="5.54213">
        <ele>190.90039</ele>
        <time>2026-05-15T15:29:02+02:00</time>
      </trkpt>
      <trkpt lat="47.42686" lon="5.54219">
        <ele>191.2998</ele>
        <time>2026-05-15T15:29:03+02:00</time>
      </trkpt>
      <trkpt lat="47.42691" lon="5.54224">
        <ele>190.7002</ele>
        <time>2026-05-15T15:29:04+02:00</time>
      </trkpt>
      <trkpt lat="47.42696" lon="5.5423">
        <ele>191.10059</ele>
        <time>2026-05-15T15:29:05+02:00</time>
      </trkpt>
      <trkpt lat="47.42701" lon="5.54236">
        <ele>191.10059</ele>
        <time>2026-05-15T15:29:06+02:00</time>
      </trkpt>
      <trkpt lat="47.42707" lon="5.54241">
        <ele>190.40039</ele>
        <time>2026-05-15T15:29:07+02:00</time>
      </trkpt>
      <trkpt lat="47.42712" lon="5.54247">
        <ele>190.7002</ele>
        <time>2026-05-15T15:29:08+02:00</time>
      </trkpt>
      <trkpt lat="47.42717" lon="5.54252">
        <ele>191</ele>
        <time>2026-05-15T15:29:09+02:00</time>
      </trkpt>
      <trkpt lat="47.42723" lon="5.54258">
        <ele>190.60059</ele>
        <time>2026-05-15T15:29:10+02:00</time>
      </trkpt>
      <trkpt lat="47.42729" lon="5.54263">
        <ele>190.7998</ele>
        <time>2026-05-15T15:29:11+02:00</time>
      </trkpt>
      <trkpt lat="47.42734" lon="5.54268">
        <ele>190.2998</ele>
        <time>2026-05-15T15:29:12+02:00</time>
      </trkpt>
      <trkpt lat="47.42739" lon="5.54274">
        <ele>190.60059</ele>
        <time>2026-05-15T15:29:13+02:00</time>
      </trkpt>
      <trkpt lat="47.42745" lon="5.54279">
        <ele>191.40039</ele>
        <time>2026-05-15T15:29:14+02:00</time>
      </trkpt>
      <trkpt lat="47.4275" lon="5.54284">
        <ele>191</ele>
        <time>2026-05-15T15:29:15+02:00</time>
      </trkpt>
      <trkpt lat="47.42755" lon="5.54289">
        <ele>191.5</ele>
        <time>2026-05-15T15:29:16+02:00</time>
      </trkpt>
      <trkpt lat="47.4276" lon="5.54295">
        <ele>191.7002</ele>
        <time>2026-05-15T15:29:17+02:00</time>
      </trkpt>
      <trkpt lat="47.42764" lon="5.54301">
        <ele>191.10059</ele>
        <time>2026-05-15T15:29:18+02:00</time>
      </trkpt>
      <trkpt lat="47.42769" lon="5.54306">
        <ele>190.90039</ele>
        <time>2026-05-15T15:29:19+02:00</time>
      </trkpt>
      <trkpt lat="47.42774" lon="5.54313">
        <ele>191.40039</ele>
        <time>2026-05-15T15:29:20+02:00</time>
      </trkpt>
      <trkpt lat="47.42779" lon="5.54319">
        <ele>190.7002</ele>
        <time>2026-05-15T15:29:21+02:00</time>
      </trkpt>
      <trkpt lat="47.42783" lon="5.54326">
        <ele>190.5</ele>
        <time>2026-05-15T15:29:22+02:00</time>
      </trkpt>
      <trkpt lat="47.42787" lon="5.54332">
        <ele>190.40039</ele>
        <time>2026-05-15T15:29:23+02:00</time>
      </trkpt>
      <trkpt lat="47.42791" lon="5.54339">
        <ele>191.2002</ele>
        <time>2026-05-15T15:29:24+02:00</time>
      </trkpt>
      <trkpt lat="47.42795" lon="5.54346">
        <ele>190.7002</ele>
        <time>2026-05-15T15:29:25+02:00</time>
      </trkpt>
      <trkpt lat="47.42799" lon="5.54353">
        <ele>191.10059</ele>
        <time>2026-05-15T15:29:26+02:00</time>
      </trkpt>
      <trkpt lat="47.42803" lon="5.54361">
        <ele>191.7002</ele>
        <time>2026-05-15T15:29:27+02:00</time>
      </trkpt>
      <trkpt lat="47.42807" lon="5.54368">
        <ele>191.40039</ele>
        <time>2026-05-15T15:29:28+02:00</time>
      </trkpt>
      <trkpt lat="47.42811" lon="5.54375">
        <ele>190.5</ele>
        <time>2026-05-15T15:29:29+02:00</time>
      </trkpt>
      <trkpt lat="47.42814" lon="5.54383">
        <ele>190.5</ele>
        <time>2026-05-15T15:29:30+02:00</time>
      </trkpt>
      <trkpt lat="47.42818" lon="5.54391">
        <ele>189.10059</ele>
        <time>2026-05-15T15:29:31+02:00</time>
      </trkpt>
      <trkpt lat="47.42822" lon="5.54399">
        <ele>188.7998</ele>
        <time>2026-05-15T15:29:32+02:00</time>
      </trkpt>
      <trkpt lat="47.42825" lon="5.54407">
        <ele>190.2002</ele>
        <time>2026-05-15T15:29:33+02:00</time>
      </trkpt>
      <trkpt lat="47.42829" lon="5.54415">
        <ele>190.7998</ele>
        <time>2026-05-15T15:29:34+02:00</time>
      </trkpt>
      <trkpt lat="47.42832" lon="5.54423">
        <ele>190.10059</ele>
        <time>2026-05-15T15:29:35+02:00</time>
      </trkpt>
      <trkpt lat="47.42835" lon="5.54432">
        <ele>190.7998</ele>
        <time>2026-05-15T15:29:36+02:00</time>
      </trkpt>
      <trkpt lat="47.42838" lon="5.5444">
        <ele>189.7002</ele>
        <time>2026-05-15T15:29:37+02:00</time>
      </trkpt>
      <trkpt lat="47.42841" lon="5.54448">
        <ele>189.7998</ele>
        <time>2026-05-15T15:29:38+02:00</time>
      </trkpt>
      <trkpt lat="47.42843" lon="5.54457">
        <ele>189.90039</ele>
        <time>2026-05-15T15:29:39+02:00</time>
      </trkpt>
      <trkpt lat="47.42846" lon="5.54465">
        <ele>188.90039</ele>
        <time>2026-05-15T15:29:40+02:00</time>
      </trkpt>
      <trkpt lat="47.42849" lon="5.54474">
        <ele>188.5</ele>
        <time>2026-05-15T15:29:41+02:00</time>
      </trkpt>
      <trkpt lat="47.42851" lon="5.54483">
        <ele>187</ele>
        <time>2026-05-15T15:29:42+02:00</time>
      </trkpt>
      <trkpt lat="47.42853" lon="5.54491">
        <ele>186.7002</ele>
        <time>2026-05-15T15:29:43+02:00</time>
      </trkpt>
      <trkpt lat="47.42855" lon="5.545">
        <ele>187.40039</ele>
        <time>2026-05-15T15:29:44+02:00</time>
      </trkpt>
      <trkpt lat="47.42857" lon="5.54509">
        <ele>188.2998</ele>
        <time>2026-05-15T15:29:45+02:00</time>
      </trkpt>
      <trkpt lat="47.42858" lon="5.54519">
        <ele>190.2998</ele>
        <time>2026-05-15T15:29:46+02:00</time>
      </trkpt>
      <trkpt lat="47.42859" lon="5.54528">
        <ele>190.60059</ele>
        <time>2026-05-15T15:29:47+02:00</time>
      </trkpt>
      <trkpt lat="47.4286" lon="5.54536">
        <ele>190.60059</ele>
        <time>2026-05-15T15:29:48+02:00</time>
      </trkpt>
      <trkpt lat="47.42861" lon="5.54545">
        <ele>189.7002</ele>
        <time>2026-05-15T15:29:49+02:00</time>
      </trkpt>
      <trkpt lat="47.42862" lon="5.54555">
        <ele>189.7998</ele>
        <time>2026-05-15T15:29:50+02:00</time>
      </trkpt>
      <trkpt lat="47.42862" lon="5.54564">
        <ele>189.90039</ele>
        <time>2026-05-15T15:29:51+02:00</time>
      </trkpt>
      <trkpt lat="47.42862" lon="5.54573">
        <ele>190</ele>
        <time>2026-05-15T15:29:52+02:00</time>
      </trkpt>
      <trkpt lat="47.42863" lon="5.54582">
        <ele>190.2002</ele>
        <time>2026-05-15T15:29:53+02:00</time>
      </trkpt>
      <trkpt lat="47.42864" lon="5.54591">
        <ele>190.2998</ele>
        <time>2026-05-15T15:29:54+02:00</time>
      </trkpt>
      <trkpt lat="47.42864" lon="5.546">
        <ele>190.40039</ele>
        <time>2026-05-15T15:29:55+02:00</time>
      </trkpt>
      <trkpt lat="47.42864" lon="5.54609">
        <ele>190.5</ele>
        <time>2026-05-15T15:29:56+02:00</time>
      </trkpt>
      <trkpt lat="47.42865" lon="5.54618">
        <ele>190.60059</ele>
        <time>2026-05-15T15:29:57+02:00</time>
      </trkpt>
      <trkpt lat="47.42865" lon="5.54627">
        <ele>190.40039</ele>
        <time>2026-05-15T15:29:58+02:00</time>
      </trkpt>
      <trkpt lat="47.42865" lon="5.54635">
        <ele>189.2998</ele>
        <time>2026-05-15T15:29:59+02:00</time>
      </trkpt>
      <trkpt lat="47.42865" lon="5.54644">
        <ele>188.10059</ele>
        <time>2026-05-15T15:30:00+02:00</time>
      </trkpt>
      <trkpt lat="47.42864" lon="5.54653">
        <ele>187.2998</ele>
        <time>2026-05-15T15:30:01+02:00</time>
      </trkpt>
      <trkpt lat="47.42864" lon="5.54662">
        <ele>187.10059</ele>
        <time>2026-05-15T15:30:02+02:00</time>
      </trkpt>
      <trkpt lat="47.42862" lon="5.54671">
        <ele>187.5</ele>
        <time>2026-05-15T15:30:03+02:00</time>
      </trkpt>
      <trkpt lat="47.42861" lon="5.5468">
        <ele>187.7002</ele>
        <time>2026-05-15T15:30:04+02:00</time>
      </trkpt>
      <trkpt lat="47.4286" lon="5.54689">
        <ele>188.5</ele>
        <time>2026-05-15T15:30:05+02:00</time>
      </trkpt>
      <trkpt lat="47.42859" lon="5.54698">
        <ele>188.2998</ele>
        <time>2026-05-15T15:30:06+02:00</time>
      </trkpt>
      <trkpt lat="47.42857" lon="5.54708">
        <ele>188.2002</ele>
        <time>2026-05-15T15:30:07+02:00</time>
      </trkpt>
      <trkpt lat="47.42856" lon="5.54717">
        <ele>188.10059</ele>
        <time>2026-05-15T15:30:08+02:00</time>
      </trkpt>
      <trkpt lat="47.42855" lon="5.54726">
        <ele>188.40039</ele>
        <time>2026-05-15T15:30:09+02:00</time>
      </trkpt>
      <trkpt lat="47.42854" lon="5.54735">
        <ele>188.2998</ele>
        <time>2026-05-15T15:30:10+02:00</time>
      </trkpt>
      <trkpt lat="47.42853" lon="5.54745">
        <ele>188.2002</ele>
        <time>2026-05-15T15:30:11+02:00</time>
      </trkpt>
      <trkpt lat="47.42853" lon="5.54754">
        <ele>188.10059</ele>
        <time>2026-05-15T15:30:12+02:00</time>
      </trkpt>
      <trkpt lat="47.42852" lon="5.54763">
        <ele>188</ele>
        <time>2026-05-15T15:30:13+02:00</time>
      </trkpt>
      <trkpt lat="47.42851" lon="5.54772">
        <ele>187.90039</ele>
        <time>2026-05-15T15:30:14+02:00</time>
      </trkpt>
      <trkpt lat="47.42851" lon="5.54781">
        <ele>187.7998</ele>
        <time>2026-05-15T15:30:15+02:00</time>
      </trkpt>
      <trkpt lat="47.4285" lon="5.5479">
        <ele>187.7998</ele>
        <time>2026-05-15T15:30:16+02:00</time>
      </trkpt>
      <trkpt lat="47.4285" lon="5.54799">
        <ele>187.7002</ele>
        <time>2026-05-15T15:30:17+02:00</time>
      </trkpt>
      <trkpt lat="47.42849" lon="5.54809">
        <ele>188</ele>
        <time>2026-05-15T15:30:18+02:00</time>
      </trkpt>
      <trkpt lat="47.42849" lon="5.54818">
        <ele>188</ele>
        <time>2026-05-15T15:30:19+02:00</time>
      </trkpt>
      <trkpt lat="47.42848" lon="5.54827">
        <ele>187.90039</ele>
        <time>2026-05-15T15:30:20+02:00</time>
      </trkpt>
      <trkpt lat="47.42847" lon="5.54836">
        <ele>187.7998</ele>
        <time>2026-05-15T15:30:21+02:00</time>
      </trkpt>
      <trkpt lat="47.42846" lon="5.54846">
        <ele>187.7998</ele>
        <time>2026-05-15T15:30:22+02:00</time>
      </trkpt>
      <trkpt lat="47.42846" lon="5.54855">
        <ele>187.7998</ele>
        <time>2026-05-15T15:30:23+02:00</time>
      </trkpt>
      <trkpt lat="47.42846" lon="5.54864">
        <ele>187.7002</ele>
        <time>2026-05-15T15:30:24+02:00</time>
      </trkpt>
      <trkpt lat="47.42846" lon="5.54874">
        <ele>187.7002</ele>
        <time>2026-05-15T15:30:25+02:00</time>
      </trkpt>
      <trkpt lat="47.42845" lon="5.54883">
        <ele>187.7002</ele>
        <time>2026-05-15T15:30:26+02:00</time>
      </trkpt>
      <trkpt lat="47.42846" lon="5.54892">
        <ele>187.7002</ele>
        <time>2026-05-15T15:30:27+02:00</time>
      </trkpt>
      <trkpt lat="47.42846" lon="5.54902">
        <ele>187.7002</ele>
        <time>2026-05-15T15:30:28+02:00</time>
      </trkpt>
      <trkpt lat="47.42846" lon="5.54911">
        <ele>187.7002</ele>
        <time>2026-05-15T15:30:29+02:00</time>
      </trkpt>
      <trkpt lat="47.42847" lon="5.54921">
        <ele>187.7002</ele>
        <time>2026-05-15T15:30:30+02:00</time>
      </trkpt>
      <trkpt lat="47.42847" lon="5.5493">
        <ele>187.7998</ele>
        <time>2026-05-15T15:30:31+02:00</time>
      </trkpt>
      <trkpt lat="47.42848" lon="5.5494">
        <ele>187.7998</ele>
        <time>2026-05-15T15:30:32+02:00</time>
      </trkpt>
      <trkpt lat="47.42848" lon="5.54949">
        <ele>187.90039</ele>
        <time>2026-05-15T15:30:33+02:00</time>
      </trkpt>
      <trkpt lat="47.42849" lon="5.54958">
        <ele>187.90039</ele>
        <time>2026-05-15T15:30:34+02:00</time>
      </trkpt>
      <trkpt lat="47.42849" lon="5.54968">
        <ele>188</ele>
        <time>2026-05-15T15:30:35+02:00</time>
      </trkpt>
      <trkpt lat="47.42849" lon="5.54977">
        <ele>188</ele>
        <time>2026-05-15T15:30:36+02:00</time>
      </trkpt>
      <trkpt lat="47.4285" lon="5.54986">
        <ele>187</ele>
        <time>2026-05-15T15:30:37+02:00</time>
      </trkpt>
      <trkpt lat="47.42851" lon="5.54996">
        <ele>186.90039</ele>
        <time>2026-05-15T15:30:38+02:00</time>
      </trkpt>
      <trkpt lat="47.42852" lon="5.55005">
        <ele>186.90039</ele>
        <time>2026-05-15T15:30:39+02:00</time>
      </trkpt>
      <trkpt lat="47.42853" lon="5.55014">
        <ele>186.90039</ele>
        <time>2026-05-15T15:30:40+02:00</time>
      </trkpt>
      <trkpt lat="47.42853" lon="5.55024">
        <ele>186.90039</ele>
        <time>2026-05-15T15:30:41+02:00</time>
      </trkpt>
      <trkpt lat="47.42855" lon="5.55034">
        <ele>186.90039</ele>
        <time>2026-05-15T15:30:42+02:00</time>
      </trkpt>
      <trkpt lat="47.42856" lon="5.55043">
        <ele>186.60059</ele>
        <time>2026-05-15T15:30:43+02:00</time>
      </trkpt>
      <trkpt lat="47.42857" lon="5.55053">
        <ele>186.60059</ele>
        <time>2026-05-15T15:30:44+02:00</time>
      </trkpt>
      <trkpt lat="47.42858" lon="5.55063">
        <ele>186.7002</ele>
        <time>2026-05-15T15:30:45+02:00</time>
      </trkpt>
      <trkpt lat="47.42859" lon="5.55073">
        <ele>186.90039</ele>
        <time>2026-05-15T15:30:46+02:00</time>
      </trkpt>
      <trkpt lat="47.4286" lon="5.55082">
        <ele>187.10059</ele>
        <time>2026-05-15T15:30:47+02:00</time>
      </trkpt>
      <trkpt lat="47.42862" lon="5.55092">
        <ele>187.7002</ele>
        <time>2026-05-15T15:30:48+02:00</time>
      </trkpt>
      <trkpt lat="47.42864" lon="5.55101">
        <ele>189</ele>
        <time>2026-05-15T15:30:49+02:00</time>
      </trkpt>
      <trkpt lat="47.42866" lon="5.5511">
        <ele>192.2002</ele>
        <time>2026-05-15T15:30:50+02:00</time>
      </trkpt>
      <trkpt lat="47.42867" lon="5.5512">
        <ele>191.40039</ele>
        <time>2026-05-15T15:30:51+02:00</time>
      </trkpt>
      <trkpt lat="47.42869" lon="5.55129">
        <ele>191.7002</ele>
        <time>2026-05-15T15:30:52+02:00</time>
      </trkpt>
      <trkpt lat="47.42872" lon="5.55138">
        <ele>191.7998</ele>
        <time>2026-05-15T15:30:53+02:00</time>
      </trkpt>
      <trkpt lat="47.42875" lon="5.55146">
        <ele>190.7002</ele>
        <time>2026-05-15T15:30:54+02:00</time>
      </trkpt>
      <trkpt lat="47.42878" lon="5.55155">
        <ele>191.2002</ele>
        <time>2026-05-15T15:30:55+02:00</time>
      </trkpt>
      <trkpt lat="47.42881" lon="5.55163">
        <ele>191.10059</ele>
        <time>2026-05-15T15:30:56+02:00</time>
      </trkpt>
      <trkpt lat="47.42885" lon="5.55172">
        <ele>191</ele>
        <time>2026-05-15T15:30:57+02:00</time>
      </trkpt>
      <trkpt lat="47.42888" lon="5.5518">
        <ele>191.5</ele>
        <time>2026-05-15T15:30:58+02:00</time>
      </trkpt>
      <trkpt lat="47.42891" lon="5.55189">
        <ele>190.90039</ele>
        <time>2026-05-15T15:30:59+02:00</time>
      </trkpt>
      <trkpt lat="47.42895" lon="5.55197">
        <ele>191.2002</ele>
        <time>2026-05-15T15:31:00+02:00</time>
      </trkpt>
      <trkpt lat="47.42899" lon="5.55205">
        <ele>191</ele>
        <time>2026-05-15T15:31:01+02:00</time>
      </trkpt>
      <trkpt lat="47.42903" lon="5.55213">
        <ele>190.90039</ele>
        <time>2026-05-15T15:31:02+02:00</time>
      </trkpt>
      <trkpt lat="47.42907" lon="5.55221">
        <ele>190.90039</ele>
        <time>2026-05-15T15:31:03+02:00</time>
      </trkpt>
      <trkpt lat="47.42911" lon="5.55228">
        <ele>190.7002</ele>
        <time>2026-05-15T15:31:04+02:00</time>
      </trkpt>
      <trkpt lat="47.42915" lon="5.55236">
        <ele>190.7998</ele>
        <time>2026-05-15T15:31:05+02:00</time>
      </trkpt>
      <trkpt lat="47.42919" lon="5.55243">
        <ele>191.10059</ele>
        <time>2026-05-15T15:31:06+02:00</time>
      </trkpt>
      <trkpt lat="47.42923" lon="5.5525">
        <ele>191.5</ele>
        <time>2026-05-15T15:31:07+02:00</time>
      </trkpt>
      <trkpt lat="47.42928" lon="5.55258">
        <ele>191.60059</ele>
        <time>2026-05-15T15:31:08+02:00</time>
      </trkpt>
      <trkpt lat="47.42932" lon="5.55265">
        <ele>191.5</ele>
        <time>2026-05-15T15:31:09+02:00</time>
      </trkpt>
      <trkpt lat="47.42937" lon="5.55272">
        <ele>190.7002</ele>
        <time>2026-05-15T15:31:10+02:00</time>
      </trkpt>
      <trkpt lat="47.42941" lon="5.55279">
        <ele>191</ele>
        <time>2026-05-15T15:31:11+02:00</time>
      </trkpt>
      <trkpt lat="47.42946" lon="5.55287">
        <ele>190.90039</ele>
        <time>2026-05-15T15:31:12+02:00</time>
      </trkpt>
      <trkpt lat="47.4295" lon="5.55294">
        <ele>191.5</ele>
        <time>2026-05-15T15:31:13+02:00</time>
      </trkpt>
      <trkpt lat="47.42955" lon="5.55301">
        <ele>192.40039</ele>
        <time>2026-05-15T15:31:14+02:00</time>
      </trkpt>
      <trkpt lat="47.4296" lon="5.55308">
        <ele>192.60059</ele>
        <time>2026-05-15T15:31:15+02:00</time>
      </trkpt>
      <trkpt lat="47.42965" lon="5.55314">
        <ele>192.60059</ele>
        <time>2026-05-15T15:31:16+02:00</time>
      </trkpt>
      <trkpt lat="47.4297" lon="5.5532">
        <ele>192.7002</ele>
        <time>2026-05-15T15:31:17+02:00</time>
      </trkpt>
      <trkpt lat="47.42975" lon="5.55326">
        <ele>192.90039</ele>
        <time>2026-05-15T15:31:18+02:00</time>
      </trkpt>
      <trkpt lat="47.4298" lon="5.55332">
        <ele>192.5</ele>
        <time>2026-05-15T15:31:19+02:00</time>
      </trkpt>
      <trkpt lat="47.42986" lon="5.55338">
        <ele>192.90039</ele>
        <time>2026-05-15T15:31:20+02:00</time>
      </trkpt>
      <trkpt lat="47.42991" lon="5.55343">
        <ele>193</ele>
        <time>2026-05-15T15:31:21+02:00</time>
      </trkpt>
      <trkpt lat="47.42996" lon="5.55348">
        <ele>192.5</ele>
        <time>2026-05-15T15:31:22+02:00</time>
      </trkpt>
      <trkpt lat="47.43" lon="5.55353">
        <ele>192.7998</ele>
        <time>2026-05-15T15:31:23+02:00</time>
      </trkpt>
      <trkpt lat="47.43005" lon="5.55357">
        <ele>192.2002</ele>
        <time>2026-05-15T15:31:24+02:00</time>
      </trkpt>
      <trkpt lat="47.4301" lon="5.55362">
        <ele>192.10059</ele>
        <time>2026-05-15T15:31:25+02:00</time>
      </trkpt>
      <trkpt lat="47.43014" lon="5.55366">
        <ele>191.7002</ele>
        <time>2026-05-15T15:31:26+02:00</time>
      </trkpt>
      <trkpt lat="47.43017" lon="5.5537">
        <ele>192</ele>
        <time>2026-05-15T15:31:27+02:00</time>
      </trkpt>
      <trkpt lat="47.4302" lon="5.55373">
        <ele>191.7002</ele>
        <time>2026-05-15T15:31:28+02:00</time>
      </trkpt>
      <trkpt lat="47.43023" lon="5.55377">
        <ele>191.90039</ele>
        <time>2026-05-15T15:31:29+02:00</time>
      </trkpt>
      <trkpt lat="47.43026" lon="5.55381">
        <ele>191.40039</ele>
        <time>2026-05-15T15:31:30+02:00</time>
      </trkpt>
      <trkpt lat="47.4303" lon="5.55385">
        <ele>190.90039</ele>
        <time>2026-05-15T15:31:31+02:00</time>
      </trkpt>
      <trkpt lat="47.43033" lon="5.55388">
        <ele>190.90039</ele>
        <time>2026-05-15T15:31:32+02:00</time>
      </trkpt>
      <trkpt lat="47.43035" lon="5.55392">
        <ele>190.90039</ele>
        <time>2026-05-15T15:31:33+02:00</time>
      </trkpt>
      <trkpt lat="47.43038" lon="5.55396">
        <ele>190.10059</ele>
        <time>2026-05-15T15:31:34+02:00</time>
      </trkpt>
      <trkpt lat="47.43041" lon="5.554">
        <ele>190.10059</ele>
        <time>2026-05-15T15:31:35+02:00</time>
      </trkpt>
      <trkpt lat="47.43044" lon="5.55404">
        <ele>189.7002</ele>
        <time>2026-05-15T15:31:36+02:00</time>
      </trkpt>
      <trkpt lat="47.43047" lon="5.55407">
        <ele>189.2998</ele>
        <time>2026-05-15T15:31:37+02:00</time>
      </trkpt>
      <trkpt lat="47.43052" lon="5.55408">
        <ele>189.2998</ele>
        <time>2026-05-15T15:31:38+02:00</time>
      </trkpt>
      <trkpt lat="47.43055" lon="5.55409">
        <ele>189.2002</ele>
        <time>2026-05-15T15:31:39+02:00</time>
      </trkpt>
      <trkpt lat="47.43059" lon="5.55409">
        <ele>189.10059</ele>
        <time>2026-05-15T15:31:40+02:00</time>
      </trkpt>
      <trkpt lat="47.43063" lon="5.5541">
        <ele>189.10059</ele>
        <time>2026-05-15T15:31:41+02:00</time>
      </trkpt>
      <trkpt lat="47.43068" lon="5.5541">
        <ele>189.10059</ele>
        <time>2026-05-15T15:31:42+02:00</time>
      </trkpt>
      <trkpt lat="47.43071" lon="5.5541">
        <ele>188.90039</ele>
        <time>2026-05-15T15:31:43+02:00</time>
      </trkpt>
      <trkpt lat="47.43074" lon="5.55412">
        <ele>189.5</ele>
        <time>2026-05-15T15:31:44+02:00</time>
      </trkpt>
      <trkpt lat="47.43077" lon="5.55415">
        <ele>189.2998</ele>
        <time>2026-05-15T15:31:45+02:00</time>
      </trkpt>
      <trkpt lat="47.43081" lon="5.55417">
        <ele>189.2998</ele>
        <time>2026-05-15T15:31:46+02:00</time>
      </trkpt>
      <trkpt lat="47.43086" lon="5.55418">
        <ele>189</ele>
        <time>2026-05-15T15:31:47+02:00</time>
      </trkpt>
      <trkpt lat="47.4309" lon="5.55418">
        <ele>188.7002</ele>
        <time>2026-05-15T15:31:48+02:00</time>
      </trkpt>
      <trkpt lat="47.43094" lon="5.55419">
        <ele>188.90039</ele>
        <time>2026-05-15T15:31:49+02:00</time>
      </trkpt>
      <trkpt lat="47.43099" lon="5.5542">
        <ele>188.90039</ele>
        <time>2026-05-15T15:31:50+02:00</time>
      </trkpt>
      <trkpt lat="47.43103" lon="5.55421">
        <ele>188.60059</ele>
        <time>2026-05-15T15:31:51+02:00</time>
      </trkpt>
      <trkpt lat="47.43108" lon="5.55423">
        <ele>188.40039</ele>
        <time>2026-05-15T15:31:52+02:00</time>
      </trkpt>
      <trkpt lat="47.43112" lon="5.55425">
        <ele>188.10059</ele>
        <time>2026-05-15T15:31:53+02:00</time>
      </trkpt>
      <trkpt lat="47.43117" lon="5.55427">
        <ele>188</ele>
        <time>2026-05-15T15:31:54+02:00</time>
      </trkpt>
      <trkpt lat="47.43122" lon="5.55429">
        <ele>188.2998</ele>
        <time>2026-05-15T15:31:55+02:00</time>
      </trkpt>
      <trkpt lat="47.43127" lon="5.55431">
        <ele>188.2002</ele>
        <time>2026-05-15T15:31:56+02:00</time>
      </trkpt>
      <trkpt lat="47.43132" lon="5.55432">
        <ele>188.10059</ele>
        <time>2026-05-15T15:31:57+02:00</time>
      </trkpt>
      <trkpt lat="47.43137" lon="5.55434">
        <ele>188</ele>
        <time>2026-05-15T15:31:58+02:00</time>
      </trkpt>
      <trkpt lat="47.43142" lon="5.55435">
        <ele>187.90039</ele>
        <time>2026-05-15T15:31:59+02:00</time>
      </trkpt>
      <trkpt lat="47.43148" lon="5.55436">
        <ele>187.90039</ele>
        <time>2026-05-15T15:32:00+02:00</time>
      </trkpt>
      <trkpt lat="47.43154" lon="5.55436">
        <ele>187.7998</ele>
        <time>2026-05-15T15:32:01+02:00</time>
      </trkpt>
      <trkpt lat="47.43159" lon="5.55437">
        <ele>188.2002</ele>
        <time>2026-05-15T15:32:02+02:00</time>
      </trkpt>
      <trkpt lat="47.43164" lon="5.55437">
        <ele>188.10059</ele>
        <time>2026-05-15T15:32:03+02:00</time>
      </trkpt>
      <trkpt lat="47.4317" lon="5.55436">
        <ele>187.60059</ele>
        <time>2026-05-15T15:32:04+02:00</time>
      </trkpt>
      <trkpt lat="47.43175" lon="5.55436">
        <ele>187.5</ele>
        <time>2026-05-15T15:32:05+02:00</time>
      </trkpt>
      <trkpt lat="47.43181" lon="5.55435">
        <ele>187.5</ele>
        <time>2026-05-15T15:32:06+02:00</time>
      </trkpt>
      <trkpt lat="47.43186" lon="5.55434">
        <ele>187.40039</ele>
        <time>2026-05-15T15:32:07+02:00</time>
      </trkpt>
      <trkpt lat="47.43192" lon="5.55433">
        <ele>187.40039</ele>
        <time>2026-05-15T15:32:08+02:00</time>
      </trkpt>
      <trkpt lat="47.43197" lon="5.55432">
        <ele>187.2998</ele>
        <time>2026-05-15T15:32:09+02:00</time>
      </trkpt>
      <trkpt lat="47.43202" lon="5.5543">
        <ele>187.2998</ele>
        <time>2026-05-15T15:32:10+02:00</time>
      </trkpt>
      <trkpt lat="47.43207" lon="5.55428">
        <ele>187.2998</ele>
        <time>2026-05-15T15:32:11+02:00</time>
      </trkpt>
      <trkpt lat="47.43211" lon="5.55426">
        <ele>186.90039</ele>
        <time>2026-05-15T15:32:12+02:00</time>
      </trkpt>
      <trkpt lat="47.43216" lon="5.55424">
        <ele>186.90039</ele>
        <time>2026-05-15T15:32:13+02:00</time>
      </trkpt>
      <trkpt lat="47.43221" lon="5.55421">
        <ele>186.90039</ele>
        <time>2026-05-15T15:32:14+02:00</time>
      </trkpt>
      <trkpt lat="47.43226" lon="5.55418">
        <ele>186.90039</ele>
        <time>2026-05-15T15:32:15+02:00</time>
      </trkpt>
      <trkpt lat="47.4323" lon="5.55414">
        <ele>187</ele>
        <time>2026-05-15T15:32:16+02:00</time>
      </trkpt>
      <trkpt lat="47.43234" lon="5.55411">
        <ele>187.2002</ele>
        <time>2026-05-15T15:32:17+02:00</time>
      </trkpt>
      <trkpt lat="47.43239" lon="5.55408">
        <ele>187.2002</ele>
        <time>2026-05-15T15:32:18+02:00</time>
      </trkpt>
      <trkpt lat="47.43243" lon="5.55404">
        <ele>187.2002</ele>
        <time>2026-05-15T15:32:19+02:00</time>
      </trkpt>
      <trkpt lat="47.43248" lon="5.55402">
        <ele>187.40039</ele>
        <time>2026-05-15T15:32:20+02:00</time>
      </trkpt>
      <trkpt lat="47.43253" lon="5.55399">
        <ele>187.2002</ele>
        <time>2026-05-15T15:32:21+02:00</time>
      </trkpt>
      <trkpt lat="47.43258" lon="5.55395">
        <ele>187.2998</ele>
        <time>2026-05-15T15:32:22+02:00</time>
      </trkpt>
      <trkpt lat="47.43264" lon="5.55391">
        <ele>187.10059</ele>
        <time>2026-05-15T15:32:23+02:00</time>
      </trkpt>
      <trkpt lat="47.43269" lon="5.55388">
        <ele>187.10059</ele>
        <time>2026-05-15T15:32:24+02:00</time>
      </trkpt>
      <trkpt lat="47.43274" lon="5.55384">
        <ele>187</ele>
        <time>2026-05-15T15:32:25+02:00</time>
      </trkpt>
      <trkpt lat="47.4328" lon="5.5538">
        <ele>187.10059</ele>
        <time>2026-05-15T15:32:26+02:00</time>
      </trkpt>
      <trkpt lat="47.43285" lon="5.55376">
        <ele>187</ele>
        <time>2026-05-15T15:32:27+02:00</time>
      </trkpt>
      <trkpt lat="47.4329" lon="5.55372">
        <ele>187</ele>
        <time>2026-05-15T15:32:28+02:00</time>
      </trkpt>
      <trkpt lat="47.43295" lon="5.55368">
        <ele>187.10059</ele>
        <time>2026-05-15T15:32:29+02:00</time>
      </trkpt>
      <trkpt lat="47.433" lon="5.55364">
        <ele>187.10059</ele>
        <time>2026-05-15T15:32:30+02:00</time>
      </trkpt>
      <trkpt lat="47.43305" lon="5.55361">
        <ele>187.2998</ele>
        <time>2026-05-15T15:32:31+02:00</time>
      </trkpt>
      <trkpt lat="47.4331" lon="5.55357">
        <ele>187.2998</ele>
        <time>2026-05-15T15:32:32+02:00</time>
      </trkpt>
      <trkpt lat="47.43314" lon="5.55353">
        <ele>187.40039</ele>
        <time>2026-05-15T15:32:33+02:00</time>
      </trkpt>
      <trkpt lat="47.43319" lon="5.5535">
        <ele>187.10059</ele>
        <time>2026-05-15T15:32:34+02:00</time>
      </trkpt>
      <trkpt lat="47.43324" lon="5.55346">
        <ele>187.2002</ele>
        <time>2026-05-15T15:32:35+02:00</time>
      </trkpt>
      <trkpt lat="47.43329" lon="5.55342">
        <ele>187.2998</ele>
        <time>2026-05-15T15:32:36+02:00</time>
      </trkpt>
      <trkpt lat="47.43334" lon="5.55338">
        <ele>187.2002</ele>
        <time>2026-05-15T15:32:37+02:00</time>
      </trkpt>
      <trkpt lat="47.43339" lon="5.55334">
        <ele>187.40039</ele>
        <time>2026-05-15T15:32:38+02:00</time>
      </trkpt>
      <trkpt lat="47.43344" lon="5.5533">
        <ele>187.5</ele>
        <time>2026-05-15T15:32:39+02:00</time>
      </trkpt>
      <trkpt lat="47.43348" lon="5.55326">
        <ele>187.5</ele>
        <time>2026-05-15T15:32:40+02:00</time>
      </trkpt>
      <trkpt lat="47.43353" lon="5.55322">
        <ele>187.40039</ele>
        <time>2026-05-15T15:32:41+02:00</time>
      </trkpt>
      <trkpt lat="47.43359" lon="5.55318">
        <ele>187.60059</ele>
        <time>2026-05-15T15:32:42+02:00</time>
      </trkpt>
      <trkpt lat="47.43364" lon="5.55315">
        <ele>187.2998</ele>
        <time>2026-05-15T15:32:43+02:00</time>
      </trkpt>
      <trkpt lat="47.43369" lon="5.55311">
        <ele>187.40039</ele>
        <time>2026-05-15T15:32:44+02:00</time>
      </trkpt>
      <trkpt lat="47.43374" lon="5.55308">
        <ele>187.5</ele>
        <time>2026-05-15T15:32:45+02:00</time>
      </trkpt>
      <trkpt lat="47.43379" lon="5.55304">
        <ele>187.2002</ele>
        <time>2026-05-15T15:32:46+02:00</time>
      </trkpt>
      <trkpt lat="47.43385" lon="5.55301">
        <ele>187.2998</ele>
        <time>2026-05-15T15:32:47+02:00</time>
      </trkpt>
      <trkpt lat="47.4339" lon="5.55297">
        <ele>187.10059</ele>
        <time>2026-05-15T15:32:48+02:00</time>
      </trkpt>
      <trkpt lat="47.43395" lon="5.55294">
        <ele>187.10059</ele>
        <time>2026-05-15T15:32:49+02:00</time>
      </trkpt>
      <trkpt lat="47.434" lon="5.55291">
        <ele>187.2002</ele>
        <time>2026-05-15T15:32:50+02:00</time>
      </trkpt>
      <trkpt lat="47.43405" lon="5.55288">
        <ele>187.2002</ele>
        <time>2026-05-15T15:32:51+02:00</time>
      </trkpt>
      <trkpt lat="47.4341" lon="5.55284">
        <ele>187.2998</ele>
        <time>2026-05-15T15:32:52+02:00</time>
      </trkpt>
      <trkpt lat="47.43416" lon="5.55281">
        <ele>187.2002</ele>
        <time>2026-05-15T15:32:53+02:00</time>
      </trkpt>
      <trkpt lat="47.43421" lon="5.55278">
        <ele>187.2998</ele>
        <time>2026-05-15T15:32:54+02:00</time>
      </trkpt>
      <trkpt lat="47.43426" lon="5.55275">
        <ele>187.2998</ele>
        <time>2026-05-15T15:32:55+02:00</time>
      </trkpt>
      <trkpt lat="47.43431" lon="5.55272">
        <ele>187</ele>
        <time>2026-05-15T15:32:56+02:00</time>
      </trkpt>
      <trkpt lat="47.43436" lon="5.5527">
        <ele>187</ele>
        <time>2026-05-15T15:32:57+02:00</time>
      </trkpt>
      <trkpt lat="47.43441" lon="5.55267">
        <ele>187</ele>
        <time>2026-05-15T15:32:58+02:00</time>
      </trkpt>
      <trkpt lat="47.43446" lon="5.55264">
        <ele>186.7998</ele>
        <time>2026-05-15T15:32:59+02:00</time>
      </trkpt>
      <trkpt lat="47.43451" lon="5.55262">
        <ele>186.90039</ele>
        <time>2026-05-15T15:33:00+02:00</time>
      </trkpt>
      <trkpt lat="47.43456" lon="5.5526">
        <ele>186.90039</ele>
        <time>2026-05-15T15:33:01+02:00</time>
      </trkpt>
      <trkpt lat="47.43461" lon="5.55258">
        <ele>186.90039</ele>
        <time>2026-05-15T15:33:02+02:00</time>
      </trkpt>
      <trkpt lat="47.43466" lon="5.55256">
        <ele>186.90039</ele>
        <time>2026-05-15T15:33:03+02:00</time>
      </trkpt>
      <trkpt lat="47.43471" lon="5.55255">
        <ele>186.7998</ele>
        <time>2026-05-15T15:33:04+02:00</time>
      </trkpt>
      <trkpt lat="47.43476" lon="5.55253">
        <ele>186.7998</ele>
        <time>2026-05-15T15:33:05+02:00</time>
      </trkpt>
      <trkpt lat="47.43482" lon="5.55252">
        <ele>186.90039</ele>
        <time>2026-05-15T15:33:06+02:00</time>
      </trkpt>
      <trkpt lat="47.43487" lon="5.55251">
        <ele>186.90039</ele>
        <time>2026-05-15T15:33:07+02:00</time>
      </trkpt>
      <trkpt lat="47.43492" lon="5.55249">
        <ele>187</ele>
        <time>2026-05-15T15:33:08+02:00</time>
      </trkpt>
      <trkpt lat="47.43498" lon="5.55247">
        <ele>186.90039</ele>
        <time>2026-05-15T15:33:09+02:00</time>
      </trkpt>
      <trkpt lat="47.43504" lon="5.55245">
        <ele>187</ele>
        <time>2026-05-15T15:33:10+02:00</time>
      </trkpt>
      <trkpt lat="47.4351" lon="5.55243">
        <ele>187.10059</ele>
        <time>2026-05-15T15:33:11+02:00</time>
      </trkpt>
      <trkpt lat="47.43516" lon="5.55241">
        <ele>187.10059</ele>
        <time>2026-05-15T15:33:12+02:00</time>
      </trkpt>
      <trkpt lat="47.43522" lon="5.5524">
        <ele>187.2002</ele>
        <time>2026-05-15T15:33:13+02:00</time>
      </trkpt>
      <trkpt lat="47.43528" lon="5.55238">
        <ele>186.90039</ele>
        <time>2026-05-15T15:33:14+02:00</time>
      </trkpt>
      <trkpt lat="47.43534" lon="5.55237">
        <ele>186.90039</ele>
        <time>2026-05-15T15:33:15+02:00</time>
      </trkpt>
      <trkpt lat="47.4354" lon="5.55235">
        <ele>187</ele>
        <time>2026-05-15T15:33:16+02:00</time>
      </trkpt>
      <trkpt lat="47.43546" lon="5.55234">
        <ele>187</ele>
        <time>2026-05-15T15:33:17+02:00</time>
      </trkpt>
      <trkpt lat="47.43552" lon="5.55233">
        <ele>187</ele>
        <time>2026-05-15T15:33:18+02:00</time>
      </trkpt>
      <trkpt lat="47.43558" lon="5.55232">
        <ele>187</ele>
        <time>2026-05-15T15:33:19+02:00</time>
      </trkpt>
      <trkpt lat="47.43564" lon="5.5523">
        <ele>186.7998</ele>
        <time>2026-05-15T15:33:20+02:00</time>
      </trkpt>
      <trkpt lat="47.4357" lon="5.55229">
        <ele>186.7998</ele>
        <time>2026-05-15T15:33:21+02:00</time>
      </trkpt>
      <trkpt lat="47.43576" lon="5.55229">
        <ele>186.7998</ele>
        <time>2026-05-15T15:33:22+02:00</time>
      </trkpt>
      <trkpt lat="47.43582" lon="5.55228">
        <ele>186.90039</ele>
        <time>2026-05-15T15:33:23+02:00</time>
      </trkpt>
      <trkpt lat="47.43588" lon="5.55227">
        <ele>186.90039</ele>
        <time>2026-05-15T15:33:24+02:00</time>
      </trkpt>
      <trkpt lat="47.43594" lon="5.55227">
        <ele>187</ele>
        <time>2026-05-15T15:33:25+02:00</time>
      </trkpt>
      <trkpt lat="47.436" lon="5.55226">
        <ele>187</ele>
        <time>2026-05-15T15:33:26+02:00</time>
      </trkpt>
      <trkpt lat="47.43606" lon="5.55226">
        <ele>187.10059</ele>
        <time>2026-05-15T15:33:27+02:00</time>
      </trkpt>
      <trkpt lat="47.43612" lon="5.55226">
        <ele>187.2002</ele>
        <time>2026-05-15T15:33:28+02:00</time>
      </trkpt>
      <trkpt lat="47.43618" lon="5.55226">
        <ele>187.2002</ele>
        <time>2026-05-15T15:33:29+02:00</time>
      </trkpt>
      <trkpt lat="47.43624" lon="5.55226">
        <ele>187.2998</ele>
        <time>2026-05-15T15:33:30+02:00</time>
      </trkpt>
      <trkpt lat="47.4363" lon="5.55226">
        <ele>187.40039</ele>
        <time>2026-05-15T15:33:31+02:00</time>
      </trkpt>
      <trkpt lat="47.43636" lon="5.55226">
        <ele>187.5</ele>
        <time>2026-05-15T15:33:32+02:00</time>
      </trkpt>
      <trkpt lat="47.43642" lon="5.55226">
        <ele>187.5</ele>
        <time>2026-05-15T15:33:33+02:00</time>
      </trkpt>
      <trkpt lat="47.43648" lon="5.55227">
        <ele>187.60059</ele>
        <time>2026-05-15T15:33:34+02:00</time>
      </trkpt>
      <trkpt lat="47.43654" lon="5.55227">
        <ele>187.7002</ele>
        <time>2026-05-15T15:33:35+02:00</time>
      </trkpt>
      <trkpt lat="47.4366" lon="5.55229">
        <ele>187.7002</ele>
        <time>2026-05-15T15:33:36+02:00</time>
      </trkpt>
      <trkpt lat="47.43666" lon="5.5523">
        <ele>187.7998</ele>
        <time>2026-05-15T15:33:37+02:00</time>
      </trkpt>
      <trkpt lat="47.43672" lon="5.55232">
        <ele>188.5</ele>
        <time>2026-05-15T15:33:38+02:00</time>
      </trkpt>
      <trkpt lat="47.43678" lon="5.55235">
        <ele>188.5</ele>
        <time>2026-05-15T15:33:39+02:00</time>
      </trkpt>
      <trkpt lat="47.43684" lon="5.55237">
        <ele>188.5</ele>
        <time>2026-05-15T15:33:40+02:00</time>
      </trkpt>
      <trkpt lat="47.4369" lon="5.55239">
        <ele>188.90039</ele>
        <time>2026-05-15T15:33:41+02:00</time>
      </trkpt>
      <trkpt lat="47.43696" lon="5.55242">
        <ele>188.90039</ele>
        <time>2026-05-15T15:33:42+02:00</time>
      </trkpt>
      <trkpt lat="47.43701" lon="5.55244">
        <ele>188.7998</ele>
        <time>2026-05-15T15:33:43+02:00</time>
      </trkpt>
      <trkpt lat="47.43707" lon="5.55246">
        <ele>188.7998</ele>
        <time>2026-05-15T15:33:44+02:00</time>
      </trkpt>
      <trkpt lat="47.43713" lon="5.55248">
        <ele>188.7002</ele>
        <time>2026-05-15T15:33:45+02:00</time>
      </trkpt>
      <trkpt lat="47.43718" lon="5.55251">
        <ele>188.60059</ele>
        <time>2026-05-15T15:33:46+02:00</time>
      </trkpt>
      <trkpt lat="47.43725" lon="5.55253">
        <ele>188.40039</ele>
        <time>2026-05-15T15:33:47+02:00</time>
      </trkpt>
      <trkpt lat="47.4373" lon="5.55255">
        <ele>188.10059</ele>
        <time>2026-05-15T15:33:48+02:00</time>
      </trkpt>
      <trkpt lat="47.43736" lon="5.55257">
        <ele>187.90039</ele>
        <time>2026-05-15T15:33:49+02:00</time>
      </trkpt>
      <trkpt lat="47.43742" lon="5.55259">
        <ele>187.7998</ele>
        <time>2026-05-15T15:33:50+02:00</time>
      </trkpt>
      <trkpt lat="47.43748" lon="5.55261">
        <ele>187.7002</ele>
        <time>2026-05-15T15:33:51+02:00</time>
      </trkpt>
      <trkpt lat="47.43754" lon="5.55264">
        <ele>187.7002</ele>
        <time>2026-05-15T15:33:52+02:00</time>
      </trkpt>
      <trkpt lat="47.43759" lon="5.55266">
        <ele>187.90039</ele>
        <time>2026-05-15T15:33:53+02:00</time>
      </trkpt>
      <trkpt lat="47.43765" lon="5.55268">
        <ele>188</ele>
        <time>2026-05-15T15:33:54+02:00</time>
      </trkpt>
      <trkpt lat="47.43771" lon="5.5527">
        <ele>188</ele>
        <time>2026-05-15T15:33:55+02:00</time>
      </trkpt>
      <trkpt lat="47.43777" lon="5.55272">
        <ele>188</ele>
        <time>2026-05-15T15:33:56+02:00</time>
      </trkpt>
      <trkpt lat="47.43783" lon="5.55274">
        <ele>188.10059</ele>
        <time>2026-05-15T15:33:57+02:00</time>
      </trkpt>
      <trkpt lat="47.43789" lon="5.55276">
        <ele>188.10059</ele>
        <time>2026-05-15T15:33:58+02:00</time>
      </trkpt>
      <trkpt lat="47.43795" lon="5.55278">
        <ele>188</ele>
        <time>2026-05-15T15:33:59+02:00</time>
      </trkpt>
      <trkpt lat="47.43801" lon="5.55279">
        <ele>187.7998</ele>
        <time>2026-05-15T15:34:00+02:00</time>
      </trkpt>
      <trkpt lat="47.43807" lon="5.55281">
        <ele>187.60059</ele>
        <time>2026-05-15T15:34:01+02:00</time>
      </trkpt>
      <trkpt lat="47.43813" lon="5.55282">
        <ele>187.7998</ele>
        <time>2026-05-15T15:34:02+02:00</time>
      </trkpt>
      <trkpt lat="47.43819" lon="5.55283">
        <ele>187.7998</ele>
        <time>2026-05-15T15:34:03+02:00</time>
      </trkpt>
      <trkpt lat="47.43825" lon="5.55285">
        <ele>187.90039</ele>
        <time>2026-05-15T15:34:04+02:00</time>
      </trkpt>
      <trkpt lat="47.43831" lon="5.55286">
        <ele>187.90039</ele>
        <time>2026-05-15T15:34:05+02:00</time>
      </trkpt>
      <trkpt lat="47.43837" lon="5.55287">
        <ele>188</ele>
        <time>2026-05-15T15:34:06+02:00</time>
      </trkpt>
      <trkpt lat="47.43844" lon="5.55287">
        <ele>188</ele>
        <time>2026-05-15T15:34:07+02:00</time>
      </trkpt>
      <trkpt lat="47.4385" lon="5.55287">
        <ele>188.10059</ele>
        <time>2026-05-15T15:34:08+02:00</time>
      </trkpt>
      <trkpt lat="47.43857" lon="5.55288">
        <ele>188.2002</ele>
        <time>2026-05-15T15:34:09+02:00</time>
      </trkpt>
      <trkpt lat="47.43863" lon="5.55289">
        <ele>188.2002</ele>
        <time>2026-05-15T15:34:10+02:00</time>
      </trkpt>
      <trkpt lat="47.43869" lon="5.5529">
        <ele>188.2998</ele>
        <time>2026-05-15T15:34:11+02:00</time>
      </trkpt>
      <trkpt lat="47.43875" lon="5.5529">
        <ele>188.40039</ele>
        <time>2026-05-15T15:34:12+02:00</time>
      </trkpt>
      <trkpt lat="47.43882" lon="5.55291">
        <ele>188.7998</ele>
        <time>2026-05-15T15:34:13+02:00</time>
      </trkpt>
      <trkpt lat="47.43888" lon="5.55292">
        <ele>188.7998</ele>
        <time>2026-05-15T15:34:14+02:00</time>
      </trkpt>
      <trkpt lat="47.43894" lon="5.55292">
        <ele>188.7998</ele>
        <time>2026-05-15T15:34:15+02:00</time>
      </trkpt>
      <trkpt lat="47.439" lon="5.55292">
        <ele>188.90039</ele>
        <time>2026-05-15T15:34:16+02:00</time>
      </trkpt>
      <trkpt lat="47.43907" lon="5.55291">
        <ele>188.7998</ele>
        <time>2026-05-15T15:34:17+02:00</time>
      </trkpt>
      <trkpt lat="47.43913" lon="5.55291">
        <ele>188.7998</ele>
        <time>2026-05-15T15:34:18+02:00</time>
      </trkpt>
      <trkpt lat="47.4392" lon="5.5529">
        <ele>188.5</ele>
        <time>2026-05-15T15:34:19+02:00</time>
      </trkpt>
      <trkpt lat="47.43927" lon="5.55288">
        <ele>188.40039</ele>
        <time>2026-05-15T15:34:20+02:00</time>
      </trkpt>
      <trkpt lat="47.43934" lon="5.55287">
        <ele>188.40039</ele>
        <time>2026-05-15T15:34:21+02:00</time>
      </trkpt>
      <trkpt lat="47.4394" lon="5.55285">
        <ele>188.2998</ele>
        <time>2026-05-15T15:34:22+02:00</time>
      </trkpt>
      <trkpt lat="47.43946" lon="5.55283">
        <ele>188.40039</ele>
        <time>2026-05-15T15:34:23+02:00</time>
      </trkpt>
      <trkpt lat="47.43952" lon="5.55281">
        <ele>188.10059</ele>
        <time>2026-05-15T15:34:24+02:00</time>
      </trkpt>
      <trkpt lat="47.43958" lon="5.55279">
        <ele>188.2998</ele>
        <time>2026-05-15T15:34:25+02:00</time>
      </trkpt>
      <trkpt lat="47.43964" lon="5.55277">
        <ele>188.60059</ele>
        <time>2026-05-15T15:34:26+02:00</time>
      </trkpt>
      <trkpt lat="47.4397" lon="5.55275">
        <ele>188.90039</ele>
        <time>2026-05-15T15:34:27+02:00</time>
      </trkpt>
      <trkpt lat="47.43976" lon="5.55274">
        <ele>188.90039</ele>
        <time>2026-05-15T15:34:28+02:00</time>
      </trkpt>
      <trkpt lat="47.43982" lon="5.55272">
        <ele>188.2002</ele>
        <time>2026-05-15T15:34:29+02:00</time>
      </trkpt>
      <trkpt lat="47.43988" lon="5.55271">
        <ele>188.2002</ele>
        <time>2026-05-15T15:34:30+02:00</time>
      </trkpt>
      <trkpt lat="47.43994" lon="5.5527">
        <ele>188.2002</ele>
        <time>2026-05-15T15:34:31+02:00</time>
      </trkpt>
      <trkpt lat="47.44" lon="5.55269">
        <ele>188.10059</ele>
        <time>2026-05-15T15:34:32+02:00</time>
      </trkpt>
      <trkpt lat="47.44007" lon="5.55268">
        <ele>188.10059</ele>
        <time>2026-05-15T15:34:33+02:00</time>
      </trkpt>
      <trkpt lat="47.44013" lon="5.55267">
        <ele>188.10059</ele>
        <time>2026-05-15T15:34:34+02:00</time>
      </trkpt>
      <trkpt lat="47.44019" lon="5.55267">
        <ele>188</ele>
        <time>2026-05-15T15:34:35+02:00</time>
      </trkpt>
      <trkpt lat="47.44026" lon="5.55266">
        <ele>187.90039</ele>
        <time>2026-05-15T15:34:36+02:00</time>
      </trkpt>
      <trkpt lat="47.44032" lon="5.55266">
        <ele>187.90039</ele>
        <time>2026-05-15T15:34:37+02:00</time>
      </trkpt>
      <trkpt lat="47.44038" lon="5.55266">
        <ele>187.7998</ele>
        <time>2026-05-15T15:34:38+02:00</time>
      </trkpt>
      <trkpt lat="47.44045" lon="5.55266">
        <ele>187.7002</ele>
        <time>2026-05-15T15:34:39+02:00</time>
      </trkpt>
      <trkpt lat="47.44051" lon="5.55266">
        <ele>187.60059</ele>
        <time>2026-05-15T15:34:40+02:00</time>
      </trkpt>
      <trkpt lat="47.44057" lon="5.55266">
        <ele>187.5</ele>
        <time>2026-05-15T15:34:41+02:00</time>
      </trkpt>
      <trkpt lat="47.44064" lon="5.55267">
        <ele>187.40039</ele>
        <time>2026-05-15T15:34:42+02:00</time>
      </trkpt>
      <trkpt lat="47.4407" lon="5.55268">
        <ele>187.40039</ele>
        <time>2026-05-15T15:34:43+02:00</time>
      </trkpt>
      <trkpt lat="47.44077" lon="5.55268">
        <ele>187.40039</ele>
        <time>2026-05-15T15:34:44+02:00</time>
      </trkpt>
      <trkpt lat="47.44083" lon="5.55269">
        <ele>187.40039</ele>
        <time>2026-05-15T15:34:45+02:00</time>
      </trkpt>
      <trkpt lat="47.44089" lon="5.5527">
        <ele>187.40039</ele>
        <time>2026-05-15T15:34:46+02:00</time>
      </trkpt>
      <trkpt lat="47.44096" lon="5.55271">
        <ele>187.40039</ele>
        <time>2026-05-15T15:34:47+02:00</time>
      </trkpt>
      <trkpt lat="47.44102" lon="5.55272">
        <ele>187.40039</ele>
        <time>2026-05-15T15:34:48+02:00</time>
      </trkpt>
      <trkpt lat="47.44108" lon="5.55274">
        <ele>187.60059</ele>
        <time>2026-05-15T15:34:49+02:00</time>
      </trkpt>
      <trkpt lat="47.44115" lon="5.55275">
        <ele>187.7002</ele>
        <time>2026-05-15T15:34:50+02:00</time>
      </trkpt>
      <trkpt lat="47.44121" lon="5.55277">
        <ele>187.7002</ele>
        <time>2026-05-15T15:34:51+02:00</time>
      </trkpt>
      <trkpt lat="47.44127" lon="5.55278">
        <ele>187.60059</ele>
        <time>2026-05-15T15:34:52+02:00</time>
      </trkpt>
      <trkpt lat="47.44134" lon="5.5528">
        <ele>187.5</ele>
        <time>2026-05-15T15:34:53+02:00</time>
      </trkpt>
      <trkpt lat="47.4414" lon="5.55282">
        <ele>187.40039</ele>
        <time>2026-05-15T15:34:54+02:00</time>
      </trkpt>
      <trkpt lat="47.44146" lon="5.55284">
        <ele>187.2998</ele>
        <time>2026-05-15T15:34:55+02:00</time>
      </trkpt>
      <trkpt lat="47.44152" lon="5.55285">
        <ele>187.40039</ele>
        <time>2026-05-15T15:34:56+02:00</time>
      </trkpt>
      <trkpt lat="47.44158" lon="5.55288">
        <ele>187.40039</ele>
        <time>2026-05-15T15:34:57+02:00</time>
      </trkpt>
      <trkpt lat="47.44164" lon="5.5529">
        <ele>187.40039</ele>
        <time>2026-05-15T15:34:58+02:00</time>
      </trkpt>
      <trkpt lat="47.4417" lon="5.55292">
        <ele>187.7998</ele>
        <time>2026-05-15T15:34:59+02:00</time>
      </trkpt>
      <trkpt lat="47.44176" lon="5.55294">
        <ele>187.90039</ele>
        <time>2026-05-15T15:35:00+02:00</time>
      </trkpt>
      <trkpt lat="47.44182" lon="5.55296">
        <ele>188</ele>
        <time>2026-05-15T15:35:01+02:00</time>
      </trkpt>
      <trkpt lat="47.44188" lon="5.55299">
        <ele>188.2998</ele>
        <time>2026-05-15T15:35:02+02:00</time>
      </trkpt>
      <trkpt lat="47.44194" lon="5.55301">
        <ele>188.40039</ele>
        <time>2026-05-15T15:35:03+02:00</time>
      </trkpt>
      <trkpt lat="47.442" lon="5.55303">
        <ele>188.5</ele>
        <time>2026-05-15T15:35:04+02:00</time>
      </trkpt>
      <trkpt lat="47.44206" lon="5.55306">
        <ele>188.60059</ele>
        <time>2026-05-15T15:35:05+02:00</time>
      </trkpt>
      <trkpt lat="47.44212" lon="5.55308">
        <ele>188.7002</ele>
        <time>2026-05-15T15:35:06+02:00</time>
      </trkpt>
      <trkpt lat="47.44219" lon="5.55311">
        <ele>188.7998</ele>
        <time>2026-05-15T15:35:07+02:00</time>
      </trkpt>
      <trkpt lat="47.44224" lon="5.55313">
        <ele>188.7998</ele>
        <time>2026-05-15T15:35:08+02:00</time>
      </trkpt>
      <trkpt lat="47.4423" lon="5.55316">
        <ele>188.90039</ele>
        <time>2026-05-15T15:35:09+02:00</time>
      </trkpt>
      <trkpt lat="47.44236" lon="5.55319">
        <ele>189</ele>
        <time>2026-05-15T15:35:10+02:00</time>
      </trkpt>
      <trkpt lat="47.44242" lon="5.55322">
        <ele>189.2002</ele>
        <time>2026-05-15T15:35:11+02:00</time>
      </trkpt>
      <trkpt lat="47.44249" lon="5.55325">
        <ele>190.10059</ele>
        <time>2026-05-15T15:35:12+02:00</time>
      </trkpt>
      <trkpt lat="47.44255" lon="5.55328">
        <ele>190.2002</ele>
        <time>2026-05-15T15:35:13+02:00</time>
      </trkpt>
      <trkpt lat="47.44261" lon="5.55332">
        <ele>190.10059</ele>
        <time>2026-05-15T15:35:14+02:00</time>
      </trkpt>
      <trkpt lat="47.44267" lon="5.55335">
        <ele>190</ele>
        <time>2026-05-15T15:35:15+02:00</time>
      </trkpt>
      <trkpt lat="47.44273" lon="5.5534">
        <ele>189.7002</ele>
        <time>2026-05-15T15:35:16+02:00</time>
      </trkpt>
      <trkpt lat="47.44279" lon="5.55343">
        <ele>189.7002</ele>
        <time>2026-05-15T15:35:17+02:00</time>
      </trkpt>
      <trkpt lat="47.44285" lon="5.55347">
        <ele>189.60059</ele>
        <time>2026-05-15T15:35:18+02:00</time>
      </trkpt>
      <trkpt lat="47.44291" lon="5.55351">
        <ele>189.7998</ele>
        <time>2026-05-15T15:35:19+02:00</time>
      </trkpt>
      <trkpt lat="47.44297" lon="5.55354">
        <ele>189.7998</ele>
        <time>2026-05-15T15:35:20+02:00</time>
      </trkpt>
      <trkpt lat="47.44303" lon="5.55358">
        <ele>189.7998</ele>
        <time>2026-05-15T15:35:21+02:00</time>
      </trkpt>
      <trkpt lat="47.44309" lon="5.55362">
        <ele>190</ele>
        <time>2026-05-15T15:35:22+02:00</time>
      </trkpt>
      <trkpt lat="47.44315" lon="5.55365">
        <ele>190.10059</ele>
        <time>2026-05-15T15:35:23+02:00</time>
      </trkpt>
      <trkpt lat="47.44321" lon="5.55369">
        <ele>190.10059</ele>
        <time>2026-05-15T15:35:24+02:00</time>
      </trkpt>
      <trkpt lat="47.44327" lon="5.55373">
        <ele>190.10059</ele>
        <time>2026-05-15T15:35:25+02:00</time>
      </trkpt>
      <trkpt lat="47.44333" lon="5.55377">
        <ele>189.7998</ele>
        <time>2026-05-15T15:35:26+02:00</time>
      </trkpt>
      <trkpt lat="47.44339" lon="5.55382">
        <ele>189.7998</ele>
        <time>2026-05-15T15:35:27+02:00</time>
      </trkpt>
      <trkpt lat="47.44345" lon="5.55386">
        <ele>189.90039</ele>
        <time>2026-05-15T15:35:28+02:00</time>
      </trkpt>
      <trkpt lat="47.44351" lon="5.55391">
        <ele>190</ele>
        <time>2026-05-15T15:35:29+02:00</time>
      </trkpt>
      <trkpt lat="47.44356" lon="5.55396">
        <ele>190</ele>
        <time>2026-05-15T15:35:30+02:00</time>
      </trkpt>
      <trkpt lat="47.44362" lon="5.55402">
        <ele>189.7998</ele>
        <time>2026-05-15T15:35:31+02:00</time>
      </trkpt>
      <trkpt lat="47.44367" lon="5.55407">
        <ele>189.7002</ele>
        <time>2026-05-15T15:35:32+02:00</time>
      </trkpt>
      <trkpt lat="47.44373" lon="5.55413">
        <ele>189.90039</ele>
        <time>2026-05-15T15:35:33+02:00</time>
      </trkpt>
      <trkpt lat="47.44378" lon="5.55418">
        <ele>189.7998</ele>
        <time>2026-05-15T15:35:34+02:00</time>
      </trkpt>
      <trkpt lat="47.44384" lon="5.55424">
        <ele>189.7998</ele>
        <time>2026-05-15T15:35:35+02:00</time>
      </trkpt>
      <trkpt lat="47.44389" lon="5.55429">
        <ele>189.5</ele>
        <time>2026-05-15T15:35:36+02:00</time>
      </trkpt>
      <trkpt lat="47.44395" lon="5.55435">
        <ele>189.2002</ele>
        <time>2026-05-15T15:35:37+02:00</time>
      </trkpt>
      <trkpt lat="47.44401" lon="5.55441">
        <ele>189.7002</ele>
        <time>2026-05-15T15:35:38+02:00</time>
      </trkpt>
      <trkpt lat="47.44406" lon="5.55447">
        <ele>189.90039</ele>
        <time>2026-05-15T15:35:39+02:00</time>
      </trkpt>
      <trkpt lat="47.44412" lon="5.55453">
        <ele>189.60059</ele>
        <time>2026-05-15T15:35:40+02:00</time>
      </trkpt>
      <trkpt lat="47.44417" lon="5.55458">
        <ele>189.60059</ele>
        <time>2026-05-15T15:35:41+02:00</time>
      </trkpt>
      <trkpt lat="47.44423" lon="5.55465">
        <ele>189.7998</ele>
        <time>2026-05-15T15:35:42+02:00</time>
      </trkpt>
      <trkpt lat="47.44428" lon="5.55471">
        <ele>190.10059</ele>
        <time>2026-05-15T15:35:43+02:00</time>
      </trkpt>
      <trkpt lat="47.44434" lon="5.55477">
        <ele>190.10059</ele>
        <time>2026-05-15T15:35:44+02:00</time>
      </trkpt>
      <trkpt lat="47.44439" lon="5.55483">
        <ele>190.2002</ele>
        <time>2026-05-15T15:35:45+02:00</time>
      </trkpt>
      <trkpt lat="47.44445" lon="5.55488">
        <ele>190.2998</ele>
        <time>2026-05-15T15:35:46+02:00</time>
      </trkpt>
      <trkpt lat="47.44451" lon="5.55494">
        <ele>190.10059</ele>
        <time>2026-05-15T15:35:47+02:00</time>
      </trkpt>
      <trkpt lat="47.44456" lon="5.555">
        <ele>190.2002</ele>
        <time>2026-05-15T15:35:48+02:00</time>
      </trkpt>
      <trkpt lat="47.44461" lon="5.55505">
        <ele>190.40039</ele>
        <time>2026-05-15T15:35:49+02:00</time>
      </trkpt>
      <trkpt lat="47.44466" lon="5.55511">
        <ele>190.2998</ele>
        <time>2026-05-15T15:35:50+02:00</time>
      </trkpt>
      <trkpt lat="47.44471" lon="5.55517">
        <ele>190.5</ele>
        <time>2026-05-15T15:35:51+02:00</time>
      </trkpt>
      <trkpt lat="47.44476" lon="5.55524">
        <ele>190.40039</ele>
        <time>2026-05-15T15:35:52+02:00</time>
      </trkpt>
      <trkpt lat="47.44481" lon="5.55531">
        <ele>190.40039</ele>
        <time>2026-05-15T15:35:53+02:00</time>
      </trkpt>
      <trkpt lat="47.44485" lon="5.55538">
        <ele>190.40039</ele>
        <time>2026-05-15T15:35:54+02:00</time>
      </trkpt>
      <trkpt lat="47.4449" lon="5.55546">
        <ele>190.5</ele>
        <time>2026-05-15T15:35:55+02:00</time>
      </trkpt>
      <trkpt lat="47.44494" lon="5.55554">
        <ele>190.7002</ele>
        <time>2026-05-15T15:35:56+02:00</time>
      </trkpt>
      <trkpt lat="47.44498" lon="5.55562">
        <ele>191.10059</ele>
        <time>2026-05-15T15:35:57+02:00</time>
      </trkpt>
      <trkpt lat="47.44501" lon="5.5557">
        <ele>191</ele>
        <time>2026-05-15T15:35:58+02:00</time>
      </trkpt>
      <trkpt lat="47.44505" lon="5.55579">
        <ele>190</ele>
        <time>2026-05-15T15:35:59+02:00</time>
      </trkpt>
      <trkpt lat="47.44508" lon="5.55587">
        <ele>190.40039</ele>
        <time>2026-05-15T15:36:00+02:00</time>
      </trkpt>
      <trkpt lat="47.44512" lon="5.55596">
        <ele>190.40039</ele>
        <time>2026-05-15T15:36:01+02:00</time>
      </trkpt>
      <trkpt lat="47.44515" lon="5.55604">
        <ele>191.10059</ele>
        <time>2026-05-15T15:36:02+02:00</time>
      </trkpt>
      <trkpt lat="47.44519" lon="5.55613">
        <ele>191.2002</ele>
        <time>2026-05-15T15:36:03+02:00</time>
      </trkpt>
      <trkpt lat="47.44522" lon="5.55622">
        <ele>190.7998</ele>
        <time>2026-05-15T15:36:04+02:00</time>
      </trkpt>
      <trkpt lat="47.44526" lon="5.55631">
        <ele>190.40039</ele>
        <time>2026-05-15T15:36:05+02:00</time>
      </trkpt>
      <trkpt lat="47.44529" lon="5.5564">
        <ele>189.2998</ele>
        <time>2026-05-15T15:36:06+02:00</time>
      </trkpt>
      <trkpt lat="47.44533" lon="5.55648">
        <ele>188.2002</ele>
        <time>2026-05-15T15:36:07+02:00</time>
      </trkpt>
      <trkpt lat="47.44536" lon="5.55657">
        <ele>188.2002</ele>
        <time>2026-05-15T15:36:08+02:00</time>
      </trkpt>
      <trkpt lat="47.4454" lon="5.55666">
        <ele>187.2998</ele>
        <time>2026-05-15T15:36:09+02:00</time>
      </trkpt>
      <trkpt lat="47.44544" lon="5.55675">
        <ele>187.5</ele>
        <time>2026-05-15T15:36:10+02:00</time>
      </trkpt>
      <trkpt lat="47.44547" lon="5.55683">
        <ele>187.5</ele>
        <time>2026-05-15T15:36:11+02:00</time>
      </trkpt>
      <trkpt lat="47.4455" lon="5.55692">
        <ele>188.2002</ele>
        <time>2026-05-15T15:36:12+02:00</time>
      </trkpt>
      <trkpt lat="47.44554" lon="5.557">
        <ele>188.40039</ele>
        <time>2026-05-15T15:36:13+02:00</time>
      </trkpt>
      <trkpt lat="47.44557" lon="5.55709">
        <ele>188</ele>
        <time>2026-05-15T15:36:14+02:00</time>
      </trkpt>
      <trkpt lat="47.4456" lon="5.55717">
        <ele>187.90039</ele>
        <time>2026-05-15T15:36:15+02:00</time>
      </trkpt>
      <trkpt lat="47.44564" lon="5.55725">
        <ele>187.40039</ele>
        <time>2026-05-15T15:36:16+02:00</time>
      </trkpt>
      <trkpt lat="47.44567" lon="5.55734">
        <ele>187.40039</ele>
        <time>2026-05-15T15:36:17+02:00</time>
      </trkpt>
      <trkpt lat="47.4457" lon="5.55743">
        <ele>187.2998</ele>
        <time>2026-05-15T15:36:18+02:00</time>
      </trkpt>
      <trkpt lat="47.44574" lon="5.55752">
        <ele>187.2998</ele>
        <time>2026-05-15T15:36:19+02:00</time>
      </trkpt>
      <trkpt lat="47.44577" lon="5.55761">
        <ele>187.40039</ele>
        <time>2026-05-15T15:36:20+02:00</time>
      </trkpt>
      <trkpt lat="47.44581" lon="5.55769">
        <ele>187.2998</ele>
        <time>2026-05-15T15:36:21+02:00</time>
      </trkpt>
      <trkpt lat="47.44584" lon="5.55778">
        <ele>187.2998</ele>
        <time>2026-05-15T15:36:22+02:00</time>
      </trkpt>
      <trkpt lat="47.44587" lon="5.55787">
        <ele>187</ele>
        <time>2026-05-15T15:36:23+02:00</time>
      </trkpt>
      <trkpt lat="47.44591" lon="5.55796">
        <ele>186.7998</ele>
        <time>2026-05-15T15:36:24+02:00</time>
      </trkpt>
      <trkpt lat="47.44595" lon="5.55805">
        <ele>186.7998</ele>
        <time>2026-05-15T15:36:25+02:00</time>
      </trkpt>
      <trkpt lat="47.44598" lon="5.55814">
        <ele>187.2002</ele>
        <time>2026-05-15T15:36:26+02:00</time>
      </trkpt>
      <trkpt lat="47.44602" lon="5.55822">
        <ele>187.2002</ele>
        <time>2026-05-15T15:36:27+02:00</time>
      </trkpt>
      <trkpt lat="47.44607" lon="5.55831">
        <ele>187.40039</ele>
        <time>2026-05-15T15:36:28+02:00</time>
      </trkpt>
      <trkpt lat="47.44611" lon="5.55838">
        <ele>187.2002</ele>
        <time>2026-05-15T15:36:29+02:00</time>
      </trkpt>
      <trkpt lat="47.44615" lon="5.55846">
        <ele>187.10059</ele>
        <time>2026-05-15T15:36:30+02:00</time>
      </trkpt>
      <trkpt lat="47.4462" lon="5.55854">
        <ele>187</ele>
        <time>2026-05-15T15:36:31+02:00</time>
      </trkpt>
      <trkpt lat="47.44624" lon="5.55862">
        <ele>187</ele>
        <time>2026-05-15T15:36:32+02:00</time>
      </trkpt>
      <trkpt lat="47.44628" lon="5.55869">
        <ele>187.10059</ele>
        <time>2026-05-15T15:36:33+02:00</time>
      </trkpt>
      <trkpt lat="47.44633" lon="5.55877">
        <ele>187.2002</ele>
        <time>2026-05-15T15:36:34+02:00</time>
      </trkpt>
      <trkpt lat="47.44637" lon="5.55885">
        <ele>187.40039</ele>
        <time>2026-05-15T15:36:35+02:00</time>
      </trkpt>
      <trkpt lat="47.44642" lon="5.55892">
        <ele>187.40039</ele>
        <time>2026-05-15T15:36:36+02:00</time>
      </trkpt>
      <trkpt lat="47.44647" lon="5.559">
        <ele>187.40039</ele>
        <time>2026-05-15T15:36:37+02:00</time>
      </trkpt>
      <trkpt lat="47.44651" lon="5.55907">
        <ele>187.2998</ele>
        <time>2026-05-15T15:36:38+02:00</time>
      </trkpt>
      <trkpt lat="47.44656" lon="5.55915">
        <ele>187.40039</ele>
        <time>2026-05-15T15:36:39+02:00</time>
      </trkpt>
      <trkpt lat="47.4466" lon="5.55923">
        <ele>187.5</ele>
        <time>2026-05-15T15:36:40+02:00</time>
      </trkpt>
      <trkpt lat="47.44665" lon="5.5593">
        <ele>187.60059</ele>
        <time>2026-05-15T15:36:41+02:00</time>
      </trkpt>
      <trkpt lat="47.4467" lon="5.55938">
        <ele>187.5</ele>
        <time>2026-05-15T15:36:42+02:00</time>
      </trkpt>
      <trkpt lat="47.44675" lon="5.55945">
        <ele>187.5</ele>
        <time>2026-05-15T15:36:43+02:00</time>
      </trkpt>
      <trkpt lat="47.4468" lon="5.55952">
        <ele>187.5</ele>
        <time>2026-05-15T15:36:44+02:00</time>
      </trkpt>
      <trkpt lat="47.44684" lon="5.5596">
        <ele>187.5</ele>
        <time>2026-05-15T15:36:45+02:00</time>
      </trkpt>
      <trkpt lat="47.44688" lon="5.55968">
        <ele>187.60059</ele>
        <time>2026-05-15T15:36:46+02:00</time>
      </trkpt>
      <trkpt lat="47.44693" lon="5.55976">
        <ele>187.60059</ele>
        <time>2026-05-15T15:36:47+02:00</time>
      </trkpt>
      <trkpt lat="47.44697" lon="5.55983">
        <ele>187.5</ele>
        <time>2026-05-15T15:36:48+02:00</time>
      </trkpt>
      <trkpt lat="47.44702" lon="5.5599">
        <ele>187.5</ele>
        <time>2026-05-15T15:36:49+02:00</time>
      </trkpt>
      <trkpt lat="47.44707" lon="5.55997">
        <ele>187.5</ele>
        <time>2026-05-15T15:36:50+02:00</time>
      </trkpt>
      <trkpt lat="47.44712" lon="5.56004">
        <ele>187.40039</ele>
        <time>2026-05-15T15:36:51+02:00</time>
      </trkpt>
      <trkpt lat="47.44716" lon="5.56011">
        <ele>187.5</ele>
        <time>2026-05-15T15:36:52+02:00</time>
      </trkpt>
      <trkpt lat="47.44721" lon="5.56019">
        <ele>187.60059</ele>
        <time>2026-05-15T15:36:53+02:00</time>
      </trkpt>
      <trkpt lat="47.44726" lon="5.56026">
        <ele>188</ele>
        <time>2026-05-15T15:36:54+02:00</time>
      </trkpt>
      <trkpt lat="47.44731" lon="5.56033">
        <ele>188.40039</ele>
        <time>2026-05-15T15:36:55+02:00</time>
      </trkpt>
      <trkpt lat="47.44735" lon="5.56041">
        <ele>188.40039</ele>
        <time>2026-05-15T15:36:56+02:00</time>
      </trkpt>
      <trkpt lat="47.4474" lon="5.56048">
        <ele>188.60059</ele>
        <time>2026-05-15T15:36:57+02:00</time>
      </trkpt>
      <trkpt lat="47.44745" lon="5.56055">
        <ele>188.5</ele>
        <time>2026-05-15T15:36:58+02:00</time>
      </trkpt>
      <trkpt lat="47.4475" lon="5.56062">
        <ele>188.2002</ele>
        <time>2026-05-15T15:36:59+02:00</time>
      </trkpt>
      <trkpt lat="47.44755" lon="5.56069">
        <ele>188.5</ele>
        <time>2026-05-15T15:37:00+02:00</time>
      </trkpt>
      <trkpt lat="47.4476" lon="5.56076">
        <ele>189.2998</ele>
        <time>2026-05-15T15:37:01+02:00</time>
      </trkpt>
      <trkpt lat="47.44764" lon="5.56083">
        <ele>189.60059</ele>
        <time>2026-05-15T15:37:02+02:00</time>
      </trkpt>
      <trkpt lat="47.44769" lon="5.56089">
        <ele>189.7002</ele>
        <time>2026-05-15T15:37:03+02:00</time>
      </trkpt>
      <trkpt lat="47.44774" lon="5.56097">
        <ele>189.2002</ele>
        <time>2026-05-15T15:37:04+02:00</time>
      </trkpt>
      <trkpt lat="47.44779" lon="5.56104">
        <ele>188.40039</ele>
        <time>2026-05-15T15:37:05+02:00</time>
      </trkpt>
      <trkpt lat="47.44784" lon="5.56111">
        <ele>187.60059</ele>
        <time>2026-05-15T15:37:06+02:00</time>
      </trkpt>
      <trkpt lat="47.44788" lon="5.56118">
        <ele>187.7002</ele>
        <time>2026-05-15T15:37:07+02:00</time>
      </trkpt>
      <trkpt lat="47.44793" lon="5.56125">
        <ele>187.60059</ele>
        <time>2026-05-15T15:37:08+02:00</time>
      </trkpt>
      <trkpt lat="47.44797" lon="5.56132">
        <ele>187.60059</ele>
        <time>2026-05-15T15:37:09+02:00</time>
      </trkpt>
      <trkpt lat="47.44802" lon="5.5614">
        <ele>187.60059</ele>
        <time>2026-05-15T15:37:10+02:00</time>
      </trkpt>
      <trkpt lat="47.44805" lon="5.56148">
        <ele>187.60059</ele>
        <time>2026-05-15T15:37:11+02:00</time>
      </trkpt>
      <trkpt lat="47.44808" lon="5.56157">
        <ele>187.5</ele>
        <time>2026-05-15T15:37:12+02:00</time>
      </trkpt>
      <trkpt lat="47.44811" lon="5.56165">
        <ele>187.60059</ele>
        <time>2026-05-15T15:37:13+02:00</time>
      </trkpt>
      <trkpt lat="47.44813" lon="5.56174">
        <ele>187.2998</ele>
        <time>2026-05-15T15:37:14+02:00</time>
      </trkpt>
      <trkpt lat="47.44814" lon="5.56183">
        <ele>187.5</ele>
        <time>2026-05-15T15:37:15+02:00</time>
      </trkpt>
      <trkpt lat="47.44816" lon="5.56192">
        <ele>187.5</ele>
        <time>2026-05-15T15:37:16+02:00</time>
      </trkpt>
      <trkpt lat="47.44817" lon="5.56202">
        <ele>187.5</ele>
        <time>2026-05-15T15:37:17+02:00</time>
      </trkpt>
      <trkpt lat="47.44817" lon="5.56212">
        <ele>187.5</ele>
        <time>2026-05-15T15:37:18+02:00</time>
      </trkpt>
      <trkpt lat="47.44816" lon="5.56222">
        <ele>187.40039</ele>
        <time>2026-05-15T15:37:19+02:00</time>
      </trkpt>
      <trkpt lat="47.44815" lon="5.56232">
        <ele>187.2998</ele>
        <time>2026-05-15T15:37:20+02:00</time>
      </trkpt>
      <trkpt lat="47.44813" lon="5.56242">
        <ele>187.2002</ele>
        <time>2026-05-15T15:37:21+02:00</time>
      </trkpt>
      <trkpt lat="47.4481" lon="5.56251">
        <ele>187.2998</ele>
        <time>2026-05-15T15:37:22+02:00</time>
      </trkpt>
      <trkpt lat="47.44807" lon="5.5626">
        <ele>187.10059</ele>
        <time>2026-05-15T15:37:23+02:00</time>
      </trkpt>
      <trkpt lat="47.44803" lon="5.56269">
        <ele>187</ele>
        <time>2026-05-15T15:37:24+02:00</time>
      </trkpt>
      <trkpt lat="47.448" lon="5.56278">
        <ele>186.90039</ele>
        <time>2026-05-15T15:37:25+02:00</time>
      </trkpt>
      <trkpt lat="47.44797" lon="5.56286">
        <ele>186.7998</ele>
        <time>2026-05-15T15:37:26+02:00</time>
      </trkpt>
      <trkpt lat="47.44793" lon="5.56293">
        <ele>187</ele>
        <time>2026-05-15T15:37:27+02:00</time>
      </trkpt>
      <trkpt lat="47.44788" lon="5.563">
        <ele>186.90039</ele>
        <time>2026-05-15T15:37:28+02:00</time>
      </trkpt>
      <trkpt lat="47.44784" lon="5.56307">
        <ele>186.7998</ele>
        <time>2026-05-15T15:37:29+02:00</time>
      </trkpt>
      <trkpt lat="47.44779" lon="5.56313">
        <ele>186.90039</ele>
        <time>2026-05-15T15:37:30+02:00</time>
      </trkpt>
      <trkpt lat="47.44773" lon="5.56318">
        <ele>187</ele>
        <time>2026-05-15T15:37:31+02:00</time>
      </trkpt>
      <trkpt lat="47.44768" lon="5.56323">
        <ele>186.90039</ele>
        <time>2026-05-15T15:37:32+02:00</time>
      </trkpt>
      <trkpt lat="47.44762" lon="5.56329">
        <ele>186.90039</ele>
        <time>2026-05-15T15:37:33+02:00</time>
      </trkpt>
      <trkpt lat="47.44756" lon="5.56334">
        <ele>187</ele>
        <time>2026-05-15T15:37:34+02:00</time>
      </trkpt>
      <trkpt lat="47.4475" lon="5.56339">
        <ele>187</ele>
        <time>2026-05-15T15:37:35+02:00</time>
      </trkpt>
      <trkpt lat="47.44745" lon="5.56345">
        <ele>187.10059</ele>
        <time>2026-05-15T15:37:36+02:00</time>
      </trkpt>
      <trkpt lat="47.44739" lon="5.56351">
        <ele>187</ele>
        <time>2026-05-15T15:37:37+02:00</time>
      </trkpt>
      <trkpt lat="47.44734" lon="5.56358">
        <ele>187</ele>
        <time>2026-05-15T15:37:38+02:00</time>
      </trkpt>
      <trkpt lat="47.44729" lon="5.56365">
        <ele>187.10059</ele>
        <time>2026-05-15T15:37:39+02:00</time>
      </trkpt>
      <trkpt lat="47.44724" lon="5.56372">
        <ele>187.2002</ele>
        <time>2026-05-15T15:37:40+02:00</time>
      </trkpt>
      <trkpt lat="47.44719" lon="5.5638">
        <ele>187.2002</ele>
        <time>2026-05-15T15:37:41+02:00</time>
      </trkpt>
      <trkpt lat="47.44715" lon="5.56388">
        <ele>187.40039</ele>
        <time>2026-05-15T15:37:42+02:00</time>
      </trkpt>
      <trkpt lat="47.44711" lon="5.56396">
        <ele>187.40039</ele>
        <time>2026-05-15T15:37:43+02:00</time>
      </trkpt>
      <trkpt lat="47.44708" lon="5.56406">
        <ele>187.2998</ele>
        <time>2026-05-15T15:37:44+02:00</time>
      </trkpt>
      <trkpt lat="47.44705" lon="5.56416">
        <ele>187.2002</ele>
        <time>2026-05-15T15:37:45+02:00</time>
      </trkpt>
      <trkpt lat="47.44703" lon="5.56426">
        <ele>187.2002</ele>
        <time>2026-05-15T15:37:46+02:00</time>
      </trkpt>
      <trkpt lat="47.44701" lon="5.56436">
        <ele>187.40039</ele>
        <time>2026-05-15T15:37:47+02:00</time>
      </trkpt>
      <trkpt lat="47.44699" lon="5.56446">
        <ele>187.40039</ele>
        <time>2026-05-15T15:37:48+02:00</time>
      </trkpt>
      <trkpt lat="47.44698" lon="5.56456">
        <ele>187.40039</ele>
        <time>2026-05-15T15:37:49+02:00</time>
      </trkpt>
      <trkpt lat="47.44697" lon="5.56466">
        <ele>187.40039</ele>
        <time>2026-05-15T15:37:50+02:00</time>
      </trkpt>
      <trkpt lat="47.44697" lon="5.56476">
        <ele>187.5</ele>
        <time>2026-05-15T15:37:51+02:00</time>
      </trkpt>
      <trkpt lat="47.44697" lon="5.56486">
        <ele>187.5</ele>
        <time>2026-05-15T15:37:52+02:00</time>
      </trkpt>
      <trkpt lat="47.44697" lon="5.56496">
        <ele>187.5</ele>
        <time>2026-05-15T15:37:53+02:00</time>
      </trkpt>
      <trkpt lat="47.44698" lon="5.56506">
        <ele>187.5</ele>
        <time>2026-05-15T15:37:54+02:00</time>
      </trkpt>
      <trkpt lat="47.44699" lon="5.56517">
        <ele>187.60059</ele>
        <time>2026-05-15T15:37:55+02:00</time>
      </trkpt>
      <trkpt lat="47.447" lon="5.56527">
        <ele>187.2998</ele>
        <time>2026-05-15T15:37:56+02:00</time>
      </trkpt>
      <trkpt lat="47.447" lon="5.56537">
        <ele>186.90039</ele>
        <time>2026-05-15T15:37:57+02:00</time>
      </trkpt>
      <trkpt lat="47.447" lon="5.56546">
        <ele>186.5</ele>
        <time>2026-05-15T15:37:58+02:00</time>
      </trkpt>
      <trkpt lat="47.44701" lon="5.56555">
        <ele>186.40039</ele>
        <time>2026-05-15T15:37:59+02:00</time>
      </trkpt>
      <trkpt lat="47.44701" lon="5.56564">
        <ele>186.7002</ele>
        <time>2026-05-15T15:38:00+02:00</time>
      </trkpt>
      <trkpt lat="47.44702" lon="5.56573">
        <ele>187.10059</ele>
        <time>2026-05-15T15:38:01+02:00</time>
      </trkpt>
      <trkpt lat="47.44702" lon="5.56582">
        <ele>187.40039</ele>
        <time>2026-05-15T15:38:02+02:00</time>
      </trkpt>
      <trkpt lat="47.44702" lon="5.56591">
        <ele>187.5</ele>
        <time>2026-05-15T15:38:03+02:00</time>
      </trkpt>
      <trkpt lat="47.44702" lon="5.566">
        <ele>187.60059</ele>
        <time>2026-05-15T15:38:04+02:00</time>
      </trkpt>
      <trkpt lat="47.44703" lon="5.56609">
        <ele>187.60059</ele>
        <time>2026-05-15T15:38:05+02:00</time>
      </trkpt>
      <trkpt lat="47.44703" lon="5.56618">
        <ele>187.7002</ele>
        <time>2026-05-15T15:38:06+02:00</time>
      </trkpt>
      <trkpt lat="47.44703" lon="5.56627">
        <ele>187.7002</ele>
        <time>2026-05-15T15:38:07+02:00</time>
      </trkpt>
      <trkpt lat="47.44703" lon="5.56636">
        <ele>187.7998</ele>
        <time>2026-05-15T15:38:08+02:00</time>
      </trkpt>
      <trkpt lat="47.44703" lon="5.56644">
        <ele>187.7998</ele>
        <time>2026-05-15T15:38:09+02:00</time>
      </trkpt>
      <trkpt lat="47.44704" lon="5.56652">
        <ele>187.90039</ele>
        <time>2026-05-15T15:38:10+02:00</time>
      </trkpt>
      <trkpt lat="47.44705" lon="5.5666">
        <ele>188</ele>
        <time>2026-05-15T15:38:11+02:00</time>
      </trkpt>
      <trkpt lat="47.44706" lon="5.56668">
        <ele>188</ele>
        <time>2026-05-15T15:38:12+02:00</time>
      </trkpt>
      <trkpt lat="47.44706" lon="5.56676">
        <ele>188.10059</ele>
        <time>2026-05-15T15:38:13+02:00</time>
      </trkpt>
      <trkpt lat="47.44706" lon="5.56684">
        <ele>188.2002</ele>
        <time>2026-05-15T15:38:14+02:00</time>
      </trkpt>
      <trkpt lat="47.44706" lon="5.56693">
        <ele>188.2002</ele>
        <time>2026-05-15T15:38:15+02:00</time>
      </trkpt>
      <trkpt lat="47.44707" lon="5.56702">
        <ele>188.2998</ele>
        <time>2026-05-15T15:38:16+02:00</time>
      </trkpt>
      <trkpt lat="47.44708" lon="5.5671">
        <ele>187.90039</ele>
        <time>2026-05-15T15:38:17+02:00</time>
      </trkpt>
      <trkpt lat="47.44709" lon="5.56718">
        <ele>188</ele>
        <time>2026-05-15T15:38:18+02:00</time>
      </trkpt>
      <trkpt lat="47.4471" lon="5.56726">
        <ele>188</ele>
        <time>2026-05-15T15:38:19+02:00</time>
      </trkpt>
      <trkpt lat="47.44711" lon="5.56733">
        <ele>188</ele>
        <time>2026-05-15T15:38:20+02:00</time>
      </trkpt>
      <trkpt lat="47.44711" lon="5.56741">
        <ele>188</ele>
        <time>2026-05-15T15:38:21+02:00</time>
      </trkpt>
      <trkpt lat="47.44712" lon="5.56748">
        <ele>188</ele>
        <time>2026-05-15T15:38:22+02:00</time>
      </trkpt>
      <trkpt lat="47.44713" lon="5.56754">
        <ele>188</ele>
        <time>2026-05-15T15:38:23+02:00</time>
      </trkpt>
      <trkpt lat="47.44713" lon="5.56759">
        <ele>188</ele>
        <time>2026-05-15T15:38:24+02:00</time>
      </trkpt>
      <trkpt lat="47.44713" lon="5.56764">
        <ele>188</ele>
        <time>2026-05-15T15:38:25+02:00</time>
      </trkpt>
      <trkpt lat="47.44713" lon="5.56769">
        <ele>188</ele>
        <time>2026-05-15T15:38:26+02:00</time>
      </trkpt>
      <trkpt lat="47.44713" lon="5.56773">
        <ele>188</ele>
        <time>2026-05-15T15:38:27+02:00</time>
      </trkpt>
      <trkpt lat="47.44714" lon="5.56777">
        <ele>187.60059</ele>
        <time>2026-05-15T15:38:28+02:00</time>
      </trkpt>
      <trkpt lat="47.44715" lon="5.56781">
        <ele>187.60059</ele>
        <time>2026-05-15T15:38:29+02:00</time>
      </trkpt>
      <trkpt lat="47.44716" lon="5.56785">
        <ele>187.5</ele>
        <time>2026-05-15T15:38:30+02:00</time>
      </trkpt>
      <trkpt lat="47.44715" lon="5.56789">
        <ele>187.5</ele>
        <time>2026-05-15T15:38:31+02:00</time>
      </trkpt>
      <trkpt lat="47.44715" lon="5.56793">
        <ele>187.5</ele>
        <time>2026-05-15T15:38:32+02:00</time>
      </trkpt>
      <trkpt lat="47.44714" lon="5.56797">
        <ele>187.5</ele>
        <time>2026-05-15T15:38:33+02:00</time>
      </trkpt>
      <trkpt lat="47.44714" lon="5.568">
        <ele>187.5</ele>
        <time>2026-05-15T15:38:34+02:00</time>
      </trkpt>
      <trkpt lat="47.44715" lon="5.56805">
        <ele>187.40039</ele>
        <time>2026-05-15T15:38:35+02:00</time>
      </trkpt>
      <trkpt lat="47.44716" lon="5.56809">
        <ele>187.40039</ele>
        <time>2026-05-15T15:38:36+02:00</time>
      </trkpt>
      <trkpt lat="47.44716" lon="5.56814">
        <ele>187.40039</ele>
        <time>2026-05-15T15:38:37+02:00</time>
      </trkpt>
      <trkpt lat="47.44716" lon="5.56819">
        <ele>187.40039</ele>
        <time>2026-05-15T15:38:38+02:00</time>
      </trkpt>
      <trkpt lat="47.44715" lon="5.56826">
        <ele>187.40039</ele>
        <time>2026-05-15T15:38:39+02:00</time>
      </trkpt>
      <trkpt lat="47.44715" lon="5.56832">
        <ele>187.2998</ele>
        <time>2026-05-15T15:38:40+02:00</time>
      </trkpt>
      <trkpt lat="47.44714" lon="5.56839">
        <ele>187.2998</ele>
        <time>2026-05-15T15:38:41+02:00</time>
      </trkpt>
      <trkpt lat="47.44714" lon="5.56847">
        <ele>187.2002</ele>
        <time>2026-05-15T15:38:42+02:00</time>
      </trkpt>
      <trkpt lat="47.44714" lon="5.56854">
        <ele>187.2002</ele>
        <time>2026-05-15T15:38:43+02:00</time>
      </trkpt>
      <trkpt lat="47.44714" lon="5.56862">
        <ele>187.2002</ele>
        <time>2026-05-15T15:38:44+02:00</time>
      </trkpt>
      <trkpt lat="47.44715" lon="5.5687">
        <ele>187.2002</ele>
        <time>2026-05-15T15:38:45+02:00</time>
      </trkpt>
      <trkpt lat="47.44716" lon="5.56878">
        <ele>187.2002</ele>
        <time>2026-05-15T15:38:46+02:00</time>
      </trkpt>
      <trkpt lat="47.44716" lon="5.56886">
        <ele>187.10059</ele>
        <time>2026-05-15T15:38:47+02:00</time>
      </trkpt>
      <trkpt lat="47.44716" lon="5.56894">
        <ele>187.2998</ele>
        <time>2026-05-15T15:38:48+02:00</time>
      </trkpt>
      <trkpt lat="47.44717" lon="5.56902">
        <ele>187.7998</ele>
        <time>2026-05-15T15:38:49+02:00</time>
      </trkpt>
      <trkpt lat="47.44718" lon="5.5691">
        <ele>188.40039</ele>
        <time>2026-05-15T15:38:50+02:00</time>
      </trkpt>
      <trkpt lat="47.44718" lon="5.56918">
        <ele>188.7998</ele>
        <time>2026-05-15T15:38:51+02:00</time>
      </trkpt>
      <trkpt lat="47.44719" lon="5.56926">
        <ele>188.2002</ele>
        <time>2026-05-15T15:38:52+02:00</time>
      </trkpt>
      <trkpt lat="47.44719" lon="5.56934">
        <ele>188</ele>
        <time>2026-05-15T15:38:53+02:00</time>
      </trkpt>
      <trkpt lat="47.44719" lon="5.56942">
        <ele>187.7998</ele>
        <time>2026-05-15T15:38:54+02:00</time>
      </trkpt>
      <trkpt lat="47.4472" lon="5.5695">
        <ele>187.60059</ele>
        <time>2026-05-15T15:38:55+02:00</time>
      </trkpt>
      <trkpt lat="47.4472" lon="5.56958">
        <ele>187.60059</ele>
        <time>2026-05-15T15:38:56+02:00</time>
      </trkpt>
      <trkpt lat="47.44721" lon="5.56965">
        <ele>187.5</ele>
        <time>2026-05-15T15:38:57+02:00</time>
      </trkpt>
      <trkpt lat="47.44722" lon="5.56973">
        <ele>187.5</ele>
        <time>2026-05-15T15:38:58+02:00</time>
      </trkpt>
      <trkpt lat="47.44723" lon="5.56981">
        <ele>187.5</ele>
        <time>2026-05-15T15:38:59+02:00</time>
      </trkpt>
      <trkpt lat="47.44725" lon="5.56989">
        <ele>187.2002</ele>
        <time>2026-05-15T15:39:00+02:00</time>
      </trkpt>
      <trkpt lat="47.44727" lon="5.56997">
        <ele>187.2002</ele>
        <time>2026-05-15T15:39:01+02:00</time>
      </trkpt>
      <trkpt lat="47.44728" lon="5.57005">
        <ele>187.10059</ele>
        <time>2026-05-15T15:39:02+02:00</time>
      </trkpt>
      <trkpt lat="47.44729" lon="5.57013">
        <ele>187.10059</ele>
        <time>2026-05-15T15:39:03+02:00</time>
      </trkpt>
      <trkpt lat="47.44731" lon="5.57022">
        <ele>186.7998</ele>
        <time>2026-05-15T15:39:04+02:00</time>
      </trkpt>
      <trkpt lat="47.44731" lon="5.5703">
        <ele>186.7998</ele>
        <time>2026-05-15T15:39:05+02:00</time>
      </trkpt>
      <trkpt lat="47.44732" lon="5.57039">
        <ele>186.7998</ele>
        <time>2026-05-15T15:39:06+02:00</time>
      </trkpt>
      <trkpt lat="47.44734" lon="5.57048">
        <ele>186.7998</ele>
        <time>2026-05-15T15:39:07+02:00</time>
      </trkpt>
      <trkpt lat="47.44735" lon="5.57057">
        <ele>186.7998</ele>
        <time>2026-05-15T15:39:08+02:00</time>
      </trkpt>
      <trkpt lat="47.44735" lon="5.57066">
        <ele>186.7998</ele>
        <time>2026-05-15T15:39:09+02:00</time>
      </trkpt>
      <trkpt lat="47.44737" lon="5.57076">
        <ele>186.60059</ele>
        <time>2026-05-15T15:39:10+02:00</time>
      </trkpt>
      <trkpt lat="47.44738" lon="5.57086">
        <ele>186.60059</ele>
        <time>2026-05-15T15:39:11+02:00</time>
      </trkpt>
      <trkpt lat="47.44739" lon="5.57095">
        <ele>186.60059</ele>
        <time>2026-05-15T15:39:12+02:00</time>
      </trkpt>
      <trkpt lat="47.4474" lon="5.57105">
        <ele>186.7002</ele>
        <time>2026-05-15T15:39:13+02:00</time>
      </trkpt>
      <trkpt lat="47.44741" lon="5.57114">
        <ele>186.7002</ele>
        <time>2026-05-15T15:39:14+02:00</time>
      </trkpt>
      <trkpt lat="47.44742" lon="5.57124">
        <ele>186.90039</ele>
        <time>2026-05-15T15:39:15+02:00</time>
      </trkpt>
      <trkpt lat="47.44743" lon="5.57133">
        <ele>187</ele>
        <time>2026-05-15T15:39:16+02:00</time>
      </trkpt>
      <trkpt lat="47.44744" lon="5.57143">
        <ele>187.2998</ele>
        <time>2026-05-15T15:39:17+02:00</time>
      </trkpt>
      <trkpt lat="47.44745" lon="5.57152">
        <ele>187.5</ele>
        <time>2026-05-15T15:39:18+02:00</time>
      </trkpt>
      <trkpt lat="47.44746" lon="5.57162">
        <ele>187.5</ele>
        <time>2026-05-15T15:39:19+02:00</time>
      </trkpt>
      <trkpt lat="47.44747" lon="5.57172">
        <ele>187.5</ele>
        <time>2026-05-15T15:39:20+02:00</time>
      </trkpt>
      <trkpt lat="47.44748" lon="5.57182">
        <ele>187.40039</ele>
        <time>2026-05-15T15:39:21+02:00</time>
      </trkpt>
      <trkpt lat="47.4475" lon="5.57192">
        <ele>187.60059</ele>
        <time>2026-05-15T15:39:22+02:00</time>
      </trkpt>
      <trkpt lat="47.44751" lon="5.57202">
        <ele>187.7998</ele>
        <time>2026-05-15T15:39:23+02:00</time>
      </trkpt>
      <trkpt lat="47.44752" lon="5.57212">
        <ele>188</ele>
        <time>2026-05-15T15:39:24+02:00</time>
      </trkpt>
      <trkpt lat="47.44753" lon="5.57221">
        <ele>188.2002</ele>
        <time>2026-05-15T15:39:25+02:00</time>
      </trkpt>
      <trkpt lat="47.44755" lon="5.5723">
        <ele>187.90039</ele>
        <time>2026-05-15T15:39:26+02:00</time>
      </trkpt>
      <trkpt lat="47.44756" lon="5.57239">
        <ele>188</ele>
        <time>2026-05-15T15:39:27+02:00</time>
      </trkpt>
      <trkpt lat="47.44758" lon="5.57247">
        <ele>188</ele>
        <time>2026-05-15T15:39:28+02:00</time>
      </trkpt>
      <trkpt lat="47.44759" lon="5.57256">
        <ele>188.2002</ele>
        <time>2026-05-15T15:39:29+02:00</time>
      </trkpt>
      <trkpt lat="47.44761" lon="5.57265">
        <ele>187.40039</ele>
        <time>2026-05-15T15:39:30+02:00</time>
      </trkpt>
      <trkpt lat="47.44762" lon="5.57273">
        <ele>187.40039</ele>
        <time>2026-05-15T15:39:31+02:00</time>
      </trkpt>
      <trkpt lat="47.44764" lon="5.57282">
        <ele>187.5</ele>
        <time>2026-05-15T15:39:32+02:00</time>
      </trkpt>
      <trkpt lat="47.44766" lon="5.57291">
        <ele>186.90039</ele>
        <time>2026-05-15T15:39:33+02:00</time>
      </trkpt>
      <trkpt lat="47.44768" lon="5.573">
        <ele>187.10059</ele>
        <time>2026-05-15T15:39:34+02:00</time>
      </trkpt>
      <trkpt lat="47.44769" lon="5.57309">
        <ele>187.2998</ele>
        <time>2026-05-15T15:39:35+02:00</time>
      </trkpt>
      <trkpt lat="47.44771" lon="5.57318">
        <ele>187.7998</ele>
        <time>2026-05-15T15:39:36+02:00</time>
      </trkpt>
      <trkpt lat="47.44773" lon="5.57326">
        <ele>188.2002</ele>
        <time>2026-05-15T15:39:37+02:00</time>
      </trkpt>
      <trkpt lat="47.44775" lon="5.57335">
        <ele>188.90039</ele>
        <time>2026-05-15T15:39:38+02:00</time>
      </trkpt>
      <trkpt lat="47.44776" lon="5.57344">
        <ele>189.2002</ele>
        <time>2026-05-15T15:39:39+02:00</time>
      </trkpt>
      <trkpt lat="47.44779" lon="5.57352">
        <ele>189</ele>
        <time>2026-05-15T15:39:40+02:00</time>
      </trkpt>
      <trkpt lat="47.4478" lon="5.57361">
        <ele>189.10059</ele>
        <time>2026-05-15T15:39:41+02:00</time>
      </trkpt>
      <trkpt lat="47.44783" lon="5.57369">
        <ele>188.60059</ele>
        <time>2026-05-15T15:39:42+02:00</time>
      </trkpt>
      <trkpt lat="47.44785" lon="5.57377">
        <ele>188.60059</ele>
        <time>2026-05-15T15:39:43+02:00</time>
      </trkpt>
      <trkpt lat="47.44787" lon="5.57385">
        <ele>188.60059</ele>
        <time>2026-05-15T15:39:44+02:00</time>
      </trkpt>
      <trkpt lat="47.44789" lon="5.57393">
        <ele>187.7998</ele>
        <time>2026-05-15T15:39:45+02:00</time>
      </trkpt>
      <trkpt lat="47.44792" lon="5.57401">
        <ele>187.60059</ele>
        <time>2026-05-15T15:39:46+02:00</time>
      </trkpt>
      <trkpt lat="47.44794" lon="5.57408">
        <ele>187.5</ele>
        <time>2026-05-15T15:39:47+02:00</time>
      </trkpt>
      <trkpt lat="47.44797" lon="5.57416">
        <ele>186.60059</ele>
        <time>2026-05-15T15:39:48+02:00</time>
      </trkpt>
      <trkpt lat="47.448" lon="5.57424">
        <ele>186.40039</ele>
        <time>2026-05-15T15:39:49+02:00</time>
      </trkpt>
      <trkpt lat="47.44802" lon="5.57431">
        <ele>186.40039</ele>
        <time>2026-05-15T15:39:50+02:00</time>
      </trkpt>
      <trkpt lat="47.44804" lon="5.57439">
        <ele>186.5</ele>
        <time>2026-05-15T15:39:51+02:00</time>
      </trkpt>
      <trkpt lat="47.44806" lon="5.57447">
        <ele>187.10059</ele>
        <time>2026-05-15T15:39:52+02:00</time>
      </trkpt>
      <trkpt lat="47.44807" lon="5.57454">
        <ele>187.90039</ele>
        <time>2026-05-15T15:39:53+02:00</time>
      </trkpt>
      <trkpt lat="47.44808" lon="5.57462">
        <ele>188.90039</ele>
        <time>2026-05-15T15:39:54+02:00</time>
      </trkpt>
      <trkpt lat="47.4481" lon="5.57469">
        <ele>188.90039</ele>
        <time>2026-05-15T15:39:55+02:00</time>
      </trkpt>
      <trkpt lat="47.44811" lon="5.57476">
        <ele>189.40039</ele>
        <time>2026-05-15T15:39:56+02:00</time>
      </trkpt>
      <trkpt lat="47.44813" lon="5.57483">
        <ele>188.5</ele>
        <time>2026-05-15T15:39:57+02:00</time>
      </trkpt>
      <trkpt lat="47.44815" lon="5.5749">
        <ele>188.2998</ele>
        <time>2026-05-15T15:39:58+02:00</time>
      </trkpt>
      <trkpt lat="47.44817" lon="5.57498">
        <ele>188.10059</ele>
        <time>2026-05-15T15:39:59+02:00</time>
      </trkpt>
      <trkpt lat="47.44819" lon="5.57505">
        <ele>187.2002</ele>
        <time>2026-05-15T15:40:00+02:00</time>
      </trkpt>
      <trkpt lat="47.44821" lon="5.57513">
        <ele>187.2002</ele>
        <time>2026-05-15T15:40:01+02:00</time>
      </trkpt>
      <trkpt lat="47.44823" lon="5.5752">
        <ele>187.60059</ele>
        <time>2026-05-15T15:40:02+02:00</time>
      </trkpt>
      <trkpt lat="47.44825" lon="5.57528">
        <ele>187.7002</ele>
        <time>2026-05-15T15:40:03+02:00</time>
      </trkpt>
      <trkpt lat="47.44827" lon="5.57535">
        <ele>188.2998</ele>
        <time>2026-05-15T15:40:04+02:00</time>
      </trkpt>
      <trkpt lat="47.44829" lon="5.57543">
        <ele>188.5</ele>
        <time>2026-05-15T15:40:05+02:00</time>
      </trkpt>
      <trkpt lat="47.44832" lon="5.5755">
        <ele>189</ele>
        <time>2026-05-15T15:40:06+02:00</time>
      </trkpt>
      <trkpt lat="47.44834" lon="5.57557">
        <ele>189.60059</ele>
        <time>2026-05-15T15:40:07+02:00</time>
      </trkpt>
      <trkpt lat="47.44836" lon="5.57564">
        <ele>188.90039</ele>
        <time>2026-05-15T15:40:08+02:00</time>
      </trkpt>
      <trkpt lat="47.44838" lon="5.57572">
        <ele>189.2998</ele>
        <time>2026-05-15T15:40:09+02:00</time>
      </trkpt>
      <trkpt lat="47.4484" lon="5.57578">
        <ele>189.40039</ele>
        <time>2026-05-15T15:40:10+02:00</time>
      </trkpt>
      <trkpt lat="47.44842" lon="5.57585">
        <ele>188.2998</ele>
        <time>2026-05-15T15:40:11+02:00</time>
      </trkpt>
      <trkpt lat="47.44844" lon="5.57592">
        <ele>188.2002</ele>
        <time>2026-05-15T15:40:12+02:00</time>
      </trkpt>
      <trkpt lat="47.44846" lon="5.57599">
        <ele>188.2002</ele>
        <time>2026-05-15T15:40:13+02:00</time>
      </trkpt>
      <trkpt lat="47.44848" lon="5.57606">
        <ele>187.10059</ele>
        <time>2026-05-15T15:40:14+02:00</time>
      </trkpt>
      <trkpt lat="47.4485" lon="5.57613">
        <ele>187</ele>
        <time>2026-05-15T15:40:15+02:00</time>
      </trkpt>
      <trkpt lat="47.44853" lon="5.5762">
        <ele>186.7002</ele>
        <time>2026-05-15T15:40:16+02:00</time>
      </trkpt>
      <trkpt lat="47.44855" lon="5.57627">
        <ele>186.7002</ele>
        <time>2026-05-15T15:40:17+02:00</time>
      </trkpt>
      <trkpt lat="47.44857" lon="5.57634">
        <ele>186.7998</ele>
        <time>2026-05-15T15:40:18+02:00</time>
      </trkpt>
      <trkpt lat="47.44859" lon="5.57641">
        <ele>186.90039</ele>
        <time>2026-05-15T15:40:19+02:00</time>
      </trkpt>
      <trkpt lat="47.44861" lon="5.57648">
        <ele>187.7998</ele>
        <time>2026-05-15T15:40:20+02:00</time>
      </trkpt>
      <trkpt lat="47.44863" lon="5.57655">
        <ele>189</ele>
        <time>2026-05-15T15:40:21+02:00</time>
      </trkpt>
      <trkpt lat="47.44865" lon="5.57662">
        <ele>189.2002</ele>
        <time>2026-05-15T15:40:22+02:00</time>
      </trkpt>
      <trkpt lat="47.44867" lon="5.57669">
        <ele>189.5</ele>
        <time>2026-05-15T15:40:23+02:00</time>
      </trkpt>
      <trkpt lat="47.44869" lon="5.57676">
        <ele>189.5</ele>
        <time>2026-05-15T15:40:24+02:00</time>
      </trkpt>
      <trkpt lat="47.44871" lon="5.57682">
        <ele>188</ele>
        <time>2026-05-15T15:40:25+02:00</time>
      </trkpt>
      <trkpt lat="47.44873" lon="5.57689">
        <ele>187.7998</ele>
        <time>2026-05-15T15:40:26+02:00</time>
      </trkpt>
      <trkpt lat="47.44875" lon="5.57696">
        <ele>187.7998</ele>
        <time>2026-05-15T15:40:27+02:00</time>
      </trkpt>
      <trkpt lat="47.44877" lon="5.57703">
        <ele>187.40039</ele>
        <time>2026-05-15T15:40:28+02:00</time>
      </trkpt>
      <trkpt lat="47.44879" lon="5.5771">
        <ele>187.40039</ele>
        <time>2026-05-15T15:40:29+02:00</time>
      </trkpt>
      <trkpt lat="47.44881" lon="5.57716">
        <ele>187.90039</ele>
        <time>2026-05-15T15:40:30+02:00</time>
      </trkpt>
      <trkpt lat="47.44883" lon="5.57723">
        <ele>188.2002</ele>
        <time>2026-05-15T15:40:31+02:00</time>
      </trkpt>
      <trkpt lat="47.44885" lon="5.5773">
        <ele>188.7002</ele>
        <time>2026-05-15T15:40:32+02:00</time>
      </trkpt>
      <trkpt lat="47.44887" lon="5.57736">
        <ele>188.2002</ele>
        <time>2026-05-15T15:40:33+02:00</time>
      </trkpt>
      <trkpt lat="47.44888" lon="5.57742">
        <ele>188.60059</ele>
        <time>2026-05-15T15:40:34+02:00</time>
      </trkpt>
      <trkpt lat="47.4489" lon="5.57748">
        <ele>189.10059</ele>
        <time>2026-05-15T15:40:35+02:00</time>
      </trkpt>
      <trkpt lat="47.44891" lon="5.57754">
        <ele>189.60059</ele>
        <time>2026-05-15T15:40:36+02:00</time>
      </trkpt>
      <trkpt lat="47.44892" lon="5.57759">
        <ele>189.60059</ele>
        <time>2026-05-15T15:40:37+02:00</time>
      </trkpt>
      <trkpt lat="47.44893" lon="5.57765">
        <ele>189</ele>
        <time>2026-05-15T15:40:38+02:00</time>
      </trkpt>
      <trkpt lat="47.44895" lon="5.57771">
        <ele>189.2002</ele>
        <time>2026-05-15T15:40:39+02:00</time>
      </trkpt>
      <trkpt lat="47.44897" lon="5.57777">
        <ele>189.2002</ele>
        <time>2026-05-15T15:40:40+02:00</time>
      </trkpt>
      <trkpt lat="47.44898" lon="5.57783">
        <ele>189.40039</ele>
        <time>2026-05-15T15:40:41+02:00</time>
      </trkpt>
      <trkpt lat="47.44899" lon="5.57789">
        <ele>188.60059</ele>
        <time>2026-05-15T15:40:42+02:00</time>
      </trkpt>
      <trkpt lat="47.44901" lon="5.57794">
        <ele>188.60059</ele>
        <time>2026-05-15T15:40:43+02:00</time>
      </trkpt>
      <trkpt lat="47.44902" lon="5.578">
        <ele>188.7002</ele>
        <time>2026-05-15T15:40:44+02:00</time>
      </trkpt>
      <trkpt lat="47.44903" lon="5.57806">
        <ele>188.5</ele>
        <time>2026-05-15T15:40:45+02:00</time>
      </trkpt>
      <trkpt lat="47.44905" lon="5.57811">
        <ele>187.90039</ele>
        <time>2026-05-15T15:40:46+02:00</time>
      </trkpt>
      <trkpt lat="47.44906" lon="5.57817">
        <ele>187.60059</ele>
        <time>2026-05-15T15:40:47+02:00</time>
      </trkpt>
      <trkpt lat="47.44908" lon="5.57823">
        <ele>187.40039</ele>
        <time>2026-05-15T15:40:48+02:00</time>
      </trkpt>
      <trkpt lat="47.44909" lon="5.57829">
        <ele>187.40039</ele>
        <time>2026-05-15T15:40:49+02:00</time>
      </trkpt>
      <trkpt lat="47.44911" lon="5.57836">
        <ele>187.2002</ele>
        <time>2026-05-15T15:40:50+02:00</time>
      </trkpt>
      <trkpt lat="47.44912" lon="5.57842">
        <ele>187.2002</ele>
        <time>2026-05-15T15:40:51+02:00</time>
      </trkpt>
      <trkpt lat="47.44914" lon="5.57847">
        <ele>187.2002</ele>
        <time>2026-05-15T15:40:52+02:00</time>
      </trkpt>
      <trkpt lat="47.44916" lon="5.57853">
        <ele>187.40039</ele>
        <time>2026-05-15T15:40:53+02:00</time>
      </trkpt>
      <trkpt lat="47.44917" lon="5.57859">
        <ele>187.60059</ele>
        <time>2026-05-15T15:40:54+02:00</time>
      </trkpt>
      <trkpt lat="47.44919" lon="5.57865">
        <ele>187.60059</ele>
        <time>2026-05-15T15:40:55+02:00</time>
      </trkpt>
      <trkpt lat="47.4492" lon="5.57871">
        <ele>188</ele>
        <time>2026-05-15T15:40:56+02:00</time>
      </trkpt>
      <trkpt lat="47.44922" lon="5.57877">
        <ele>188.60059</ele>
        <time>2026-05-15T15:40:57+02:00</time>
      </trkpt>
      <trkpt lat="47.44923" lon="5.57883">
        <ele>188.5</ele>
        <time>2026-05-15T15:40:58+02:00</time>
      </trkpt>
      <trkpt lat="47.44925" lon="5.57889">
        <ele>188.5</ele>
        <time>2026-05-15T15:40:59+02:00</time>
      </trkpt>
      <trkpt lat="47.44926" lon="5.57896">
        <ele>188.90039</ele>
        <time>2026-05-15T15:41:00+02:00</time>
      </trkpt>
      <trkpt lat="47.44928" lon="5.57902">
        <ele>188.2998</ele>
        <time>2026-05-15T15:41:01+02:00</time>
      </trkpt>
      <trkpt lat="47.44929" lon="5.57909">
        <ele>188.7998</ele>
        <time>2026-05-15T15:41:02+02:00</time>
      </trkpt>
      <trkpt lat="47.44931" lon="5.57915">
        <ele>188.7998</ele>
        <time>2026-05-15T15:41:03+02:00</time>
      </trkpt>
      <trkpt lat="47.44933" lon="5.57922">
        <ele>189.2998</ele>
        <time>2026-05-15T15:41:04+02:00</time>
      </trkpt>
      <trkpt lat="47.44935" lon="5.57929">
        <ele>189.2998</ele>
        <time>2026-05-15T15:41:05+02:00</time>
      </trkpt>
      <trkpt lat="47.44937" lon="5.57936">
        <ele>189.7002</ele>
        <time>2026-05-15T15:41:06+02:00</time>
      </trkpt>
      <trkpt lat="47.44939" lon="5.57943">
        <ele>190.10059</ele>
        <time>2026-05-15T15:41:07+02:00</time>
      </trkpt>
      <trkpt lat="47.44941" lon="5.57951">
        <ele>189.7998</ele>
        <time>2026-05-15T15:41:08+02:00</time>
      </trkpt>
      <trkpt lat="47.44943" lon="5.57958">
        <ele>189.7998</ele>
        <time>2026-05-15T15:41:09+02:00</time>
      </trkpt>
      <trkpt lat="47.44945" lon="5.57964">
        <ele>189.10059</ele>
        <time>2026-05-15T15:41:10+02:00</time>
      </trkpt>
      <trkpt lat="47.44946" lon="5.57971">
        <ele>189.10059</ele>
        <time>2026-05-15T15:41:11+02:00</time>
      </trkpt>
      <trkpt lat="47.44948" lon="5.57977">
        <ele>189.10059</ele>
        <time>2026-05-15T15:41:12+02:00</time>
      </trkpt>
      <trkpt lat="47.4495" lon="5.57983">
        <ele>189.10059</ele>
        <time>2026-05-15T15:41:13+02:00</time>
      </trkpt>
      <trkpt lat="47.44952" lon="5.57989">
        <ele>188</ele>
        <time>2026-05-15T15:41:14+02:00</time>
      </trkpt>
      <trkpt lat="47.44953" lon="5.57994">
        <ele>188</ele>
        <time>2026-05-15T15:41:15+02:00</time>
      </trkpt>
      <trkpt lat="47.44953" lon="5.58">
        <ele>188</ele>
        <time>2026-05-15T15:41:16+02:00</time>
      </trkpt>
      <trkpt lat="47.44953" lon="5.58005">
        <ele>188</ele>
        <time>2026-05-15T15:41:17+02:00</time>
      </trkpt>
      <trkpt lat="47.44953" lon="5.58011">
        <ele>188</ele>
        <time>2026-05-15T15:41:18+02:00</time>
      </trkpt>
      <trkpt lat="47.44953" lon="5.58016">
        <ele>188</ele>
        <time>2026-05-15T15:41:19+02:00</time>
      </trkpt>
      <trkpt lat="47.44953" lon="5.58022">
        <ele>188.10059</ele>
        <time>2026-05-15T15:41:20+02:00</time>
      </trkpt>
      <trkpt lat="47.44951" lon="5.58026">
        <ele>189.2002</ele>
        <time>2026-05-15T15:41:21+02:00</time>
      </trkpt>
      <trkpt lat="47.44949" lon="5.5803">
        <ele>189.5</ele>
        <time>2026-05-15T15:41:22+02:00</time>
      </trkpt>
      <trkpt lat="47.44948" lon="5.58033">
        <ele>189.5</ele>
        <time>2026-05-15T15:41:23+02:00</time>
      </trkpt>
      <trkpt lat="47.44946" lon="5.58034">
        <ele>189.5</ele>
        <time>2026-05-15T15:41:24+02:00</time>
      </trkpt>
      <trkpt lat="47.44944" lon="5.58035">
        <ele>190.5</ele>
        <time>2026-05-15T15:41:25+02:00</time>
      </trkpt>
      <trkpt lat="47.44941" lon="5.58035">
        <ele>190.5</ele>
        <time>2026-05-15T15:41:26+02:00</time>
      </trkpt>
      <trkpt lat="47.44939" lon="5.58034">
        <ele>191</ele>
        <time>2026-05-15T15:41:27+02:00</time>
      </trkpt>
      <trkpt lat="47.44937" lon="5.58033">
        <ele>191</ele>
        <time>2026-05-15T15:41:28+02:00</time>
      </trkpt>
      <trkpt lat="47.44937" lon="5.58033">
        <ele>191</ele>
        <time>2026-05-15T15:41:29+02:00</time>
      </trkpt>
      <trkpt lat="47.44937" lon="5.58033">
        <ele>191</ele>
        <time>2026-05-15T15:41:30+02:00</time>
      </trkpt>
      <trkpt lat="47.44937" lon="5.58033">
        <ele>191</ele>
        <time>2026-05-15T15:41:31+02:00</time>
      </trkpt>
      <trkpt lat="47.44937" lon="5.58033">
        <ele>191</ele>
        <time>2026-05-15T15:41:32+02:00</time>
      </trkpt>
      <trkpt lat="47.44937" lon="5.58033">
        <ele>191</ele>
        <time>2026-05-15T15:41:33+02:00</time>
      </trkpt>
      <trkpt lat="47.44923" lon="5.58032">
        <ele>191.40039</ele>
        <time>2026-05-15T15:42:24+02:00</time>
      </trkpt>
      <trkpt lat="47.44923" lon="5.58033">
        <ele>191.40039</ele>
        <time>2026-05-15T15:42:25+02:00</time>
      </trkpt>
      <trkpt lat="47.44923" lon="5.58033">
        <ele>191.40039</ele>
        <time>2026-05-15T15:42:26+02:00</time>
      </trkpt>
      <trkpt lat="47.44923" lon="5.58033">
        <ele>191.40039</ele>
        <time>2026-05-15T15:42:27+02:00</time>
      </trkpt>
      <trkpt lat="47.44923" lon="5.58033">
        <ele>191.40039</ele>
        <time>2026-05-15T15:42:28+02:00</time>
      </trkpt>
      <trkpt lat="47.4493" lon="5.58041">
        <ele>191.2998</ele>
        <time>2026-05-15T15:42:39+02:00</time>
      </trkpt>
      <trkpt lat="47.44933" lon="5.58042">
        <ele>191.2998</ele>
        <time>2026-05-15T15:42:40+02:00</time>
      </trkpt>
      <trkpt lat="47.44935" lon="5.58043">
        <ele>191.10059</ele>
        <time>2026-05-15T15:42:41+02:00</time>
      </trkpt>
      <trkpt lat="47.44938" lon="5.58044">
        <ele>191.10059</ele>
        <time>2026-05-15T15:42:42+02:00</time>
      </trkpt>
      <trkpt lat="47.44942" lon="5.58045">
        <ele>190.7002</ele>
        <time>2026-05-15T15:42:43+02:00</time>
      </trkpt>
      <trkpt lat="47.44945" lon="5.58046">
        <ele>190.90039</ele>
        <time>2026-05-15T15:42:44+02:00</time>
      </trkpt>
      <trkpt lat="47.44949" lon="5.58048">
        <ele>190.90039</ele>
        <time>2026-05-15T15:42:45+02:00</time>
      </trkpt>
      <trkpt lat="47.44953" lon="5.5805">
        <ele>190.7002</ele>
        <time>2026-05-15T15:42:46+02:00</time>
      </trkpt>
      <trkpt lat="47.44956" lon="5.58054">
        <ele>191.2002</ele>
        <time>2026-05-15T15:42:47+02:00</time>
      </trkpt>
      <trkpt lat="47.4496" lon="5.58058">
        <ele>191</ele>
        <time>2026-05-15T15:42:48+02:00</time>
      </trkpt>
      <trkpt lat="47.44963" lon="5.58063">
        <ele>190.7002</ele>
        <time>2026-05-15T15:42:49+02:00</time>
      </trkpt>
      <trkpt lat="47.44966" lon="5.58068">
        <ele>190.7002</ele>
        <time>2026-05-15T15:42:50+02:00</time>
      </trkpt>
      <trkpt lat="47.44969" lon="5.58075">
        <ele>189.90039</ele>
        <time>2026-05-15T15:42:51+02:00</time>
      </trkpt>
      <trkpt lat="47.4497" lon="5.58082">
        <ele>189.90039</ele>
        <time>2026-05-15T15:42:52+02:00</time>
      </trkpt>
      <trkpt lat="47.44972" lon="5.58089">
        <ele>190</ele>
        <time>2026-05-15T15:42:53+02:00</time>
      </trkpt>
      <trkpt lat="47.44974" lon="5.58097">
        <ele>189</ele>
        <time>2026-05-15T15:42:54+02:00</time>
      </trkpt>
      <trkpt lat="47.44975" lon="5.58104">
        <ele>189</ele>
        <time>2026-05-15T15:42:55+02:00</time>
      </trkpt>
      <trkpt lat="47.44976" lon="5.58112">
        <ele>188.90039</ele>
        <time>2026-05-15T15:42:56+02:00</time>
      </trkpt>
      <trkpt lat="47.44977" lon="5.5812">
        <ele>188.7998</ele>
        <time>2026-05-15T15:42:57+02:00</time>
      </trkpt>
      <trkpt lat="47.44978" lon="5.58127">
        <ele>188.7998</ele>
        <time>2026-05-15T15:42:58+02:00</time>
      </trkpt>
      <trkpt lat="47.44979" lon="5.58135">
        <ele>188.7002</ele>
        <time>2026-05-15T15:42:59+02:00</time>
      </trkpt>
      <trkpt lat="47.4498" lon="5.58143">
        <ele>188.7002</ele>
        <time>2026-05-15T15:43:00+02:00</time>
      </trkpt>
      <trkpt lat="47.44981" lon="5.58151">
        <ele>187.7998</ele>
        <time>2026-05-15T15:43:01+02:00</time>
      </trkpt>
      <trkpt lat="47.44982" lon="5.5816">
        <ele>187.7002</ele>
        <time>2026-05-15T15:43:02+02:00</time>
      </trkpt>
      <trkpt lat="47.44982" lon="5.58169">
        <ele>187.7002</ele>
        <time>2026-05-15T15:43:03+02:00</time>
      </trkpt>
      <trkpt lat="47.44983" lon="5.58178">
        <ele>187.7002</ele>
        <time>2026-05-15T15:43:04+02:00</time>
      </trkpt>
      <trkpt lat="47.44983" lon="5.58187">
        <ele>187.7002</ele>
        <time>2026-05-15T15:43:05+02:00</time>
      </trkpt>
      <trkpt lat="47.44985" lon="5.58195">
        <ele>188.10059</ele>
        <time>2026-05-15T15:43:06+02:00</time>
      </trkpt>
      <trkpt lat="47.44985" lon="5.58204">
        <ele>189.10059</ele>
        <time>2026-05-15T15:43:07+02:00</time>
      </trkpt>
      <trkpt lat="47.44986" lon="5.58213">
        <ele>189.7998</ele>
        <time>2026-05-15T15:43:08+02:00</time>
      </trkpt>
      <trkpt lat="47.44987" lon="5.58223">
        <ele>190.5</ele>
        <time>2026-05-15T15:43:09+02:00</time>
      </trkpt>
      <trkpt lat="47.44988" lon="5.58231">
        <ele>190.7002</ele>
        <time>2026-05-15T15:43:10+02:00</time>
      </trkpt>
      <trkpt lat="47.44988" lon="5.5824">
        <ele>190.7998</ele>
        <time>2026-05-15T15:43:11+02:00</time>
      </trkpt>
      <trkpt lat="47.44989" lon="5.58249">
        <ele>190.7002</ele>
        <time>2026-05-15T15:43:12+02:00</time>
      </trkpt>
      <trkpt lat="47.4499" lon="5.58258">
        <ele>190.5</ele>
        <time>2026-05-15T15:43:13+02:00</time>
      </trkpt>
      <trkpt lat="47.44991" lon="5.58267">
        <ele>190.5</ele>
        <time>2026-05-15T15:43:14+02:00</time>
      </trkpt>
      <trkpt lat="47.44991" lon="5.58276">
        <ele>190.40039</ele>
        <time>2026-05-15T15:43:15+02:00</time>
      </trkpt>
      <trkpt lat="47.44993" lon="5.58285">
        <ele>190</ele>
        <time>2026-05-15T15:43:16+02:00</time>
      </trkpt>
      <trkpt lat="47.44993" lon="5.58294">
        <ele>190</ele>
        <time>2026-05-15T15:43:17+02:00</time>
      </trkpt>
      <trkpt lat="47.44994" lon="5.58303">
        <ele>189.90039</ele>
        <time>2026-05-15T15:43:18+02:00</time>
      </trkpt>
      <trkpt lat="47.44995" lon="5.58313">
        <ele>189.7998</ele>
        <time>2026-05-15T15:43:19+02:00</time>
      </trkpt>
      <trkpt lat="47.44996" lon="5.58322">
        <ele>189.7998</ele>
        <time>2026-05-15T15:43:20+02:00</time>
      </trkpt>
      <trkpt lat="47.44996" lon="5.58332">
        <ele>189.7998</ele>
        <time>2026-05-15T15:43:21+02:00</time>
      </trkpt>
      <trkpt lat="47.44996" lon="5.58342">
        <ele>189.7998</ele>
        <time>2026-05-15T15:43:22+02:00</time>
      </trkpt>
      <trkpt lat="47.44996" lon="5.58352">
        <ele>189.7998</ele>
        <time>2026-05-15T15:43:23+02:00</time>
      </trkpt>
      <trkpt lat="47.44995" lon="5.58361">
        <ele>189.5</ele>
        <time>2026-05-15T15:43:24+02:00</time>
      </trkpt>
      <trkpt lat="47.44994" lon="5.58371">
        <ele>188.5</ele>
        <time>2026-05-15T15:43:25+02:00</time>
      </trkpt>
      <trkpt lat="47.44993" lon="5.5838">
        <ele>187.40039</ele>
        <time>2026-05-15T15:43:26+02:00</time>
      </trkpt>
      <trkpt lat="47.44991" lon="5.58389">
        <ele>187.10059</ele>
        <time>2026-05-15T15:43:27+02:00</time>
      </trkpt>
      <trkpt lat="47.4499" lon="5.58399">
        <ele>187.2998</ele>
        <time>2026-05-15T15:43:28+02:00</time>
      </trkpt>
      <trkpt lat="47.44989" lon="5.58408">
        <ele>187.7002</ele>
        <time>2026-05-15T15:43:29+02:00</time>
      </trkpt>
      <trkpt lat="47.44988" lon="5.58417">
        <ele>187.90039</ele>
        <time>2026-05-15T15:43:30+02:00</time>
      </trkpt>
      <trkpt lat="47.44986" lon="5.58426">
        <ele>187.90039</ele>
        <time>2026-05-15T15:43:31+02:00</time>
      </trkpt>
      <trkpt lat="47.44986" lon="5.58436">
        <ele>187.90039</ele>
        <time>2026-05-15T15:43:32+02:00</time>
      </trkpt>
      <trkpt lat="47.44984" lon="5.58446">
        <ele>188.2002</ele>
        <time>2026-05-15T15:43:33+02:00</time>
      </trkpt>
      <trkpt lat="47.44983" lon="5.58455">
        <ele>188.10059</ele>
        <time>2026-05-15T15:43:34+02:00</time>
      </trkpt>
      <trkpt lat="47.44981" lon="5.58464">
        <ele>188</ele>
        <time>2026-05-15T15:43:35+02:00</time>
      </trkpt>
      <trkpt lat="47.44979" lon="5.58474">
        <ele>188.2998</ele>
        <time>2026-05-15T15:43:36+02:00</time>
      </trkpt>
      <trkpt lat="47.44977" lon="5.58483">
        <ele>188.2002</ele>
        <time>2026-05-15T15:43:37+02:00</time>
      </trkpt>
      <trkpt lat="47.44974" lon="5.58492">
        <ele>188</ele>
        <time>2026-05-15T15:43:38+02:00</time>
      </trkpt>
      <trkpt lat="47.44972" lon="5.58501">
        <ele>188.40039</ele>
        <time>2026-05-15T15:43:39+02:00</time>
      </trkpt>
      <trkpt lat="47.4497" lon="5.58511">
        <ele>188.2998</ele>
        <time>2026-05-15T15:43:40+02:00</time>
      </trkpt>
      <trkpt lat="47.44967" lon="5.5852">
        <ele>189</ele>
        <time>2026-05-15T15:43:41+02:00</time>
      </trkpt>
      <trkpt lat="47.44965" lon="5.58529">
        <ele>188.60059</ele>
        <time>2026-05-15T15:43:42+02:00</time>
      </trkpt>
      <trkpt lat="47.44963" lon="5.58538">
        <ele>188.10059</ele>
        <time>2026-05-15T15:43:43+02:00</time>
      </trkpt>
      <trkpt lat="47.44961" lon="5.58547">
        <ele>187.90039</ele>
        <time>2026-05-15T15:43:44+02:00</time>
      </trkpt>
      <trkpt lat="47.44959" lon="5.58557">
        <ele>187.5</ele>
        <time>2026-05-15T15:43:45+02:00</time>
      </trkpt>
      <trkpt lat="47.44956" lon="5.58566">
        <ele>187.90039</ele>
        <time>2026-05-15T15:43:46+02:00</time>
      </trkpt>
      <trkpt lat="47.44954" lon="5.58575">
        <ele>188.10059</ele>
        <time>2026-05-15T15:43:47+02:00</time>
      </trkpt>
      <trkpt lat="47.44951" lon="5.58584">
        <ele>189.2002</ele>
        <time>2026-05-15T15:43:48+02:00</time>
      </trkpt>
      <trkpt lat="47.44948" lon="5.58593">
        <ele>189.2002</ele>
        <time>2026-05-15T15:43:49+02:00</time>
      </trkpt>
      <trkpt lat="47.44946" lon="5.58602">
        <ele>189.2002</ele>
        <time>2026-05-15T15:43:50+02:00</time>
      </trkpt>
      <trkpt lat="47.44943" lon="5.5861">
        <ele>189.7002</ele>
        <time>2026-05-15T15:43:51+02:00</time>
      </trkpt>
      <trkpt lat="47.4494" lon="5.58618">
        <ele>189.60059</ele>
        <time>2026-05-15T15:43:52+02:00</time>
      </trkpt>
      <trkpt lat="47.44938" lon="5.58627">
        <ele>189.7998</ele>
        <time>2026-05-15T15:43:53+02:00</time>
      </trkpt>
      <trkpt lat="47.4493" lon="5.58652">
        <ele>189.40039</ele>
        <time>2026-05-15T15:43:54+02:00</time>
      </trkpt>
      <trkpt lat="47.44927" lon="5.5866">
        <ele>189.2998</ele>
        <time>2026-05-15T15:43:55+02:00</time>
      </trkpt>
      <trkpt lat="47.44925" lon="5.58669">
        <ele>189.10059</ele>
        <time>2026-05-15T15:43:56+02:00</time>
      </trkpt>
      <trkpt lat="47.44922" lon="5.58678">
        <ele>189</ele>
        <time>2026-05-15T15:43:57+02:00</time>
      </trkpt>
      <trkpt lat="47.44919" lon="5.58686">
        <ele>188.90039</ele>
        <time>2026-05-15T15:43:58+02:00</time>
      </trkpt>
      <trkpt lat="47.44916" lon="5.58695">
        <ele>188.7002</ele>
        <time>2026-05-15T15:43:59+02:00</time>
      </trkpt>
      <trkpt lat="47.44913" lon="5.58703">
        <ele>188.7998</ele>
        <time>2026-05-15T15:44:00+02:00</time>
      </trkpt>
      <trkpt lat="47.4491" lon="5.58712">
        <ele>188.7002</ele>
        <time>2026-05-15T15:44:01+02:00</time>
      </trkpt>
      <trkpt lat="47.44908" lon="5.5872">
        <ele>188.60059</ele>
        <time>2026-05-15T15:44:02+02:00</time>
      </trkpt>
      <trkpt lat="47.44905" lon="5.58728">
        <ele>188.5</ele>
        <time>2026-05-15T15:44:03+02:00</time>
      </trkpt>
      <trkpt lat="47.44902" lon="5.58737">
        <ele>188.60059</ele>
        <time>2026-05-15T15:44:04+02:00</time>
      </trkpt>
      <trkpt lat="47.44899" lon="5.58745">
        <ele>188.7002</ele>
        <time>2026-05-15T15:44:05+02:00</time>
      </trkpt>
      <trkpt lat="47.44897" lon="5.58753">
        <ele>188.90039</ele>
        <time>2026-05-15T15:44:06+02:00</time>
      </trkpt>
      <trkpt lat="47.44895" lon="5.58761">
        <ele>188.90039</ele>
        <time>2026-05-15T15:44:07+02:00</time>
      </trkpt>
      <trkpt lat="47.44892" lon="5.58768">
        <ele>189</ele>
        <time>2026-05-15T15:44:08+02:00</time>
      </trkpt>
      <trkpt lat="47.4489" lon="5.58775">
        <ele>188.7998</ele>
        <time>2026-05-15T15:44:09+02:00</time>
      </trkpt>
      <trkpt lat="47.44888" lon="5.58782">
        <ele>188.7998</ele>
        <time>2026-05-15T15:44:10+02:00</time>
      </trkpt>
      <trkpt lat="47.44885" lon="5.58789">
        <ele>189.2002</ele>
        <time>2026-05-15T15:44:11+02:00</time>
      </trkpt>
      <trkpt lat="47.44883" lon="5.58796">
        <ele>189.40039</ele>
        <time>2026-05-15T15:44:12+02:00</time>
      </trkpt>
      <trkpt lat="47.4488" lon="5.58803">
        <ele>190</ele>
        <time>2026-05-15T15:44:13+02:00</time>
      </trkpt>
      <trkpt lat="47.44878" lon="5.5881">
        <ele>190.2002</ele>
        <time>2026-05-15T15:44:14+02:00</time>
      </trkpt>
      <trkpt lat="47.44874" lon="5.58816">
        <ele>190.40039</ele>
        <time>2026-05-15T15:44:15+02:00</time>
      </trkpt>
      <trkpt lat="47.44871" lon="5.58821">
        <ele>190.5</ele>
        <time>2026-05-15T15:44:16+02:00</time>
      </trkpt>
      <trkpt lat="47.44867" lon="5.58826">
        <ele>190.60059</ele>
        <time>2026-05-15T15:44:17+02:00</time>
      </trkpt>
      <trkpt lat="47.44862" lon="5.58831">
        <ele>190.7002</ele>
        <time>2026-05-15T15:44:18+02:00</time>
      </trkpt>
      <trkpt lat="47.44857" lon="5.58835">
        <ele>190.7002</ele>
        <time>2026-05-15T15:44:19+02:00</time>
      </trkpt>
      <trkpt lat="47.44851" lon="5.5884">
        <ele>190.90039</ele>
        <time>2026-05-15T15:44:20+02:00</time>
      </trkpt>
      <trkpt lat="47.44847" lon="5.58844">
        <ele>191</ele>
        <time>2026-05-15T15:44:21+02:00</time>
      </trkpt>
      <trkpt lat="47.44843" lon="5.5885">
        <ele>191.2002</ele>
        <time>2026-05-15T15:44:22+02:00</time>
      </trkpt>
      <trkpt lat="47.4484" lon="5.58856">
        <ele>191.5</ele>
        <time>2026-05-15T15:44:23+02:00</time>
      </trkpt>
      <trkpt lat="47.44839" lon="5.58863">
        <ele>191.60059</ele>
        <time>2026-05-15T15:44:24+02:00</time>
      </trkpt>
      <trkpt lat="47.4484" lon="5.5887">
        <ele>191.7002</ele>
        <time>2026-05-15T15:44:25+02:00</time>
      </trkpt>
      <trkpt lat="47.44843" lon="5.58877">
        <ele>191.5</ele>
        <time>2026-05-15T15:44:26+02:00</time>
      </trkpt>
      <trkpt lat="47.44846" lon="5.58883">
        <ele>191.60059</ele>
        <time>2026-05-15T15:44:27+02:00</time>
      </trkpt>
      <trkpt lat="47.44849" lon="5.5889">
        <ele>191.5</ele>
        <time>2026-05-15T15:44:28+02:00</time>
      </trkpt>
      <trkpt lat="47.44852" lon="5.58898">
        <ele>191.5</ele>
        <time>2026-05-15T15:44:29+02:00</time>
      </trkpt>
      <trkpt lat="47.44854" lon="5.58905">
        <ele>191.40039</ele>
        <time>2026-05-15T15:44:30+02:00</time>
      </trkpt>
      <trkpt lat="47.44857" lon="5.58913">
        <ele>191.40039</ele>
        <time>2026-05-15T15:44:31+02:00</time>
      </trkpt>
      <trkpt lat="47.44859" lon="5.5892">
        <ele>191.2998</ele>
        <time>2026-05-15T15:44:32+02:00</time>
      </trkpt>
      <trkpt lat="47.4486" lon="5.58929">
        <ele>191.2998</ele>
        <time>2026-05-15T15:44:33+02:00</time>
      </trkpt>
      <trkpt lat="47.44861" lon="5.58937">
        <ele>191.40039</ele>
        <time>2026-05-15T15:44:34+02:00</time>
      </trkpt>
      <trkpt lat="47.44862" lon="5.58945">
        <ele>191.40039</ele>
        <time>2026-05-15T15:44:35+02:00</time>
      </trkpt>
      <trkpt lat="47.44862" lon="5.58954">
        <ele>191.5</ele>
        <time>2026-05-15T15:44:36+02:00</time>
      </trkpt>
      <trkpt lat="47.44862" lon="5.58963">
        <ele>191.5</ele>
        <time>2026-05-15T15:44:37+02:00</time>
      </trkpt>
      <trkpt lat="47.44861" lon="5.58972">
        <ele>191.60059</ele>
        <time>2026-05-15T15:44:38+02:00</time>
      </trkpt>
      <trkpt lat="47.44861" lon="5.58981">
        <ele>191.7002</ele>
        <time>2026-05-15T15:44:39+02:00</time>
      </trkpt>
      <trkpt lat="47.44861" lon="5.5899">
        <ele>191.7998</ele>
        <time>2026-05-15T15:44:40+02:00</time>
      </trkpt>
      <trkpt lat="47.44861" lon="5.58999">
        <ele>191.90039</ele>
        <time>2026-05-15T15:44:41+02:00</time>
      </trkpt>
      <trkpt lat="47.44861" lon="5.59007">
        <ele>192.10059</ele>
        <time>2026-05-15T15:44:42+02:00</time>
      </trkpt>
      <trkpt lat="47.44862" lon="5.59017">
        <ele>192.2002</ele>
        <time>2026-05-15T15:44:43+02:00</time>
      </trkpt>
      <trkpt lat="47.44862" lon="5.59025">
        <ele>192.40039</ele>
        <time>2026-05-15T15:44:44+02:00</time>
      </trkpt>
      <trkpt lat="47.44862" lon="5.59034">
        <ele>192.5</ele>
        <time>2026-05-15T15:44:45+02:00</time>
      </trkpt>
      <trkpt lat="47.44863" lon="5.59043">
        <ele>192.5</ele>
        <time>2026-05-15T15:44:46+02:00</time>
      </trkpt>
      <trkpt lat="47.44864" lon="5.59051">
        <ele>192.2002</ele>
        <time>2026-05-15T15:44:47+02:00</time>
      </trkpt>
      <trkpt lat="47.44865" lon="5.59059">
        <ele>192.2002</ele>
        <time>2026-05-15T15:44:48+02:00</time>
      </trkpt>
      <trkpt lat="47.44866" lon="5.59068">
        <ele>192.10059</ele>
        <time>2026-05-15T15:44:49+02:00</time>
      </trkpt>
      <trkpt lat="47.44866" lon="5.59076">
        <ele>192.10059</ele>
        <time>2026-05-15T15:44:50+02:00</time>
      </trkpt>
      <trkpt lat="47.44866" lon="5.59084">
        <ele>192</ele>
        <time>2026-05-15T15:44:51+02:00</time>
      </trkpt>
      <trkpt lat="47.44866" lon="5.59092">
        <ele>192</ele>
        <time>2026-05-15T15:44:52+02:00</time>
      </trkpt>
      <trkpt lat="47.44865" lon="5.591">
        <ele>192</ele>
        <time>2026-05-15T15:44:53+02:00</time>
      </trkpt>
      <trkpt lat="47.44864" lon="5.59108">
        <ele>192.2002</ele>
        <time>2026-05-15T15:44:54+02:00</time>
      </trkpt>
      <trkpt lat="47.44864" lon="5.59116">
        <ele>192.2998</ele>
        <time>2026-05-15T15:44:55+02:00</time>
      </trkpt>
      <trkpt lat="47.44862" lon="5.59123">
        <ele>192.90039</ele>
        <time>2026-05-15T15:44:56+02:00</time>
      </trkpt>
      <trkpt lat="47.44862" lon="5.5913">
        <ele>193</ele>
        <time>2026-05-15T15:44:57+02:00</time>
      </trkpt>
      <trkpt lat="47.44861" lon="5.59136">
        <ele>193</ele>
        <time>2026-05-15T15:44:58+02:00</time>
      </trkpt>
      <trkpt lat="47.4486" lon="5.59141">
        <ele>193</ele>
        <time>2026-05-15T15:44:59+02:00</time>
      </trkpt>
      <trkpt lat="47.44859" lon="5.59145">
        <ele>193.10059</ele>
        <time>2026-05-15T15:45:00+02:00</time>
      </trkpt>
      <trkpt lat="47.44859" lon="5.59147">
        <ele>193.10059</ele>
        <time>2026-05-15T15:45:01+02:00</time>
      </trkpt>
      <trkpt lat="47.44859" lon="5.59147">
        <ele>193.10059</ele>
        <time>2026-05-15T15:45:02+02:00</time>
      </trkpt>
      <trkpt lat="47.44859" lon="5.59148">
        <ele>193.10059</ele>
        <time>2026-05-15T15:45:03+02:00</time>
      </trkpt>
      <trkpt lat="47.44859" lon="5.59148">
        <ele>193.10059</ele>
        <time>2026-05-15T15:45:04+02:00</time>
      </trkpt>
      <trkpt lat="47.44859" lon="5.59148">
        <ele>193.10059</ele>
        <time>2026-05-15T15:45:05+02:00</time>
      </trkpt>
      <trkpt lat="47.44855" lon="5.59175">
        <ele>193.7002</ele>
        <time>2026-05-15T15:45:15+02:00</time>
      </trkpt>
      <trkpt lat="47.44856" lon="5.5918">
        <ele>193.7998</ele>
        <time>2026-05-15T15:45:16+02:00</time>
      </trkpt>
      <trkpt lat="47.44858" lon="5.59185">
        <ele>193.40039</ele>
        <time>2026-05-15T15:45:17+02:00</time>
      </trkpt>
      <trkpt lat="47.44859" lon="5.59191">
        <ele>193.60059</ele>
        <time>2026-05-15T15:45:18+02:00</time>
      </trkpt>
      <trkpt lat="47.44859" lon="5.59197">
        <ele>193.7002</ele>
        <time>2026-05-15T15:45:19+02:00</time>
      </trkpt>
      <trkpt lat="47.44858" lon="5.59204">
        <ele>193.7002</ele>
        <time>2026-05-15T15:45:20+02:00</time>
      </trkpt>
      <trkpt lat="47.44857" lon="5.59212">
        <ele>194.10059</ele>
        <time>2026-05-15T15:45:21+02:00</time>
      </trkpt>
      <trkpt lat="47.44855" lon="5.59219">
        <ele>194.2002</ele>
        <time>2026-05-15T15:45:22+02:00</time>
      </trkpt>
      <trkpt lat="47.44854" lon="5.59227">
        <ele>194.2002</ele>
        <time>2026-05-15T15:45:23+02:00</time>
      </trkpt>
      <trkpt lat="47.44853" lon="5.59235">
        <ele>194.10059</ele>
        <time>2026-05-15T15:45:24+02:00</time>
      </trkpt>
      <trkpt lat="47.44852" lon="5.59243">
        <ele>194.2002</ele>
        <time>2026-05-15T15:45:25+02:00</time>
      </trkpt>
      <trkpt lat="47.44851" lon="5.59251">
        <ele>193.90039</ele>
        <time>2026-05-15T15:45:26+02:00</time>
      </trkpt>
      <trkpt lat="47.4485" lon="5.5926">
        <ele>193.7002</ele>
        <time>2026-05-15T15:45:27+02:00</time>
      </trkpt>
      <trkpt lat="47.44848" lon="5.59268">
        <ele>193.60059</ele>
        <time>2026-05-15T15:45:28+02:00</time>
      </trkpt>
      <trkpt lat="47.44847" lon="5.59277">
        <ele>193.40039</ele>
        <time>2026-05-15T15:45:29+02:00</time>
      </trkpt>
      <trkpt lat="47.44845" lon="5.59286">
        <ele>193.60059</ele>
        <time>2026-05-15T15:45:30+02:00</time>
      </trkpt>
      <trkpt lat="47.44844" lon="5.59295">
        <ele>193.40039</ele>
        <time>2026-05-15T15:45:31+02:00</time>
      </trkpt>
      <trkpt lat="47.44842" lon="5.59304">
        <ele>193.2998</ele>
        <time>2026-05-15T15:45:32+02:00</time>
      </trkpt>
      <trkpt lat="47.44841" lon="5.59313">
        <ele>193.2002</ele>
        <time>2026-05-15T15:45:33+02:00</time>
      </trkpt>
      <trkpt lat="47.44839" lon="5.59322">
        <ele>193.2998</ele>
        <time>2026-05-15T15:45:34+02:00</time>
      </trkpt>
      <trkpt lat="47.44838" lon="5.59331">
        <ele>193.2002</ele>
        <time>2026-05-15T15:45:35+02:00</time>
      </trkpt>
      <trkpt lat="47.44836" lon="5.59341">
        <ele>193</ele>
        <time>2026-05-15T15:45:36+02:00</time>
      </trkpt>
      <trkpt lat="47.44836" lon="5.5935">
        <ele>192.7002</ele>
        <time>2026-05-15T15:45:37+02:00</time>
      </trkpt>
      <trkpt lat="47.44835" lon="5.59359">
        <ele>192.5</ele>
        <time>2026-05-15T15:45:38+02:00</time>
      </trkpt>
      <trkpt lat="47.44833" lon="5.59368">
        <ele>192.60059</ele>
        <time>2026-05-15T15:45:39+02:00</time>
      </trkpt>
      <trkpt lat="47.44832" lon="5.59377">
        <ele>192.40039</ele>
        <time>2026-05-15T15:45:40+02:00</time>
      </trkpt>
      <trkpt lat="47.4483" lon="5.59386">
        <ele>192.2998</ele>
        <time>2026-05-15T15:45:41+02:00</time>
      </trkpt>
      <trkpt lat="47.44829" lon="5.59395">
        <ele>192.10059</ele>
        <time>2026-05-15T15:45:42+02:00</time>
      </trkpt>
      <trkpt lat="47.44828" lon="5.59404">
        <ele>192.2998</ele>
        <time>2026-05-15T15:45:43+02:00</time>
      </trkpt>
      <trkpt lat="47.44827" lon="5.59413">
        <ele>192.10059</ele>
        <time>2026-05-15T15:45:44+02:00</time>
      </trkpt>
      <trkpt lat="47.44825" lon="5.59422">
        <ele>192</ele>
        <time>2026-05-15T15:45:45+02:00</time>
      </trkpt>
      <trkpt lat="47.44824" lon="5.59429">
        <ele>191.90039</ele>
        <time>2026-05-15T15:45:46+02:00</time>
      </trkpt>
      <trkpt lat="47.44824" lon="5.59438">
        <ele>191.7998</ele>
        <time>2026-05-15T15:45:47+02:00</time>
      </trkpt>
      <trkpt lat="47.44823" lon="5.59445">
        <ele>191.90039</ele>
        <time>2026-05-15T15:45:48+02:00</time>
      </trkpt>
      <trkpt lat="47.44822" lon="5.59453">
        <ele>191.90039</ele>
        <time>2026-05-15T15:45:49+02:00</time>
      </trkpt>
      <trkpt lat="47.44822" lon="5.59461">
        <ele>191.7998</ele>
        <time>2026-05-15T15:45:50+02:00</time>
      </trkpt>
      <trkpt lat="47.44821" lon="5.59468">
        <ele>191.60059</ele>
        <time>2026-05-15T15:45:51+02:00</time>
      </trkpt>
      <trkpt lat="47.4482" lon="5.59475">
        <ele>191.5</ele>
        <time>2026-05-15T15:45:52+02:00</time>
      </trkpt>
      <trkpt lat="47.44818" lon="5.59481">
        <ele>191.5</ele>
        <time>2026-05-15T15:45:53+02:00</time>
      </trkpt>
      <trkpt lat="47.44815" lon="5.59487">
        <ele>191.60059</ele>
        <time>2026-05-15T15:45:54+02:00</time>
      </trkpt>
      <trkpt lat="47.44813" lon="5.59492">
        <ele>191.5</ele>
        <time>2026-05-15T15:45:55+02:00</time>
      </trkpt>
      <trkpt lat="47.4481" lon="5.59496">
        <ele>191.60059</ele>
        <time>2026-05-15T15:45:56+02:00</time>
      </trkpt>
      <trkpt lat="47.44809" lon="5.595">
        <ele>191.60059</ele>
        <time>2026-05-15T15:45:57+02:00</time>
      </trkpt>
      <trkpt lat="47.44807" lon="5.59505">
        <ele>191.5</ele>
        <time>2026-05-15T15:45:58+02:00</time>
      </trkpt>
      <trkpt lat="47.44806" lon="5.5951">
        <ele>191.5</ele>
        <time>2026-05-15T15:45:59+02:00</time>
      </trkpt>
      <trkpt lat="47.44807" lon="5.59515">
        <ele>191.5</ele>
        <time>2026-05-15T15:46:00+02:00</time>
      </trkpt>
      <trkpt lat="47.44808" lon="5.5952">
        <ele>191.5</ele>
        <time>2026-05-15T15:46:01+02:00</time>
      </trkpt>
      <trkpt lat="47.44811" lon="5.59524">
        <ele>191.40039</ele>
        <time>2026-05-15T15:46:02+02:00</time>
      </trkpt>
      <trkpt lat="47.44813" lon="5.59527">
        <ele>191.2002</ele>
        <time>2026-05-15T15:46:03+02:00</time>
      </trkpt>
      <trkpt lat="47.44817" lon="5.5953">
        <ele>191.2002</ele>
        <time>2026-05-15T15:46:04+02:00</time>
      </trkpt>
      <trkpt lat="47.44821" lon="5.59533">
        <ele>191</ele>
        <time>2026-05-15T15:46:05+02:00</time>
      </trkpt>
      <trkpt lat="47.44824" lon="5.59537">
        <ele>190.90039</ele>
        <time>2026-05-15T15:46:06+02:00</time>
      </trkpt>
      <trkpt lat="47.44827" lon="5.59541">
        <ele>190.90039</ele>
        <time>2026-05-15T15:46:07+02:00</time>
      </trkpt>
      <trkpt lat="47.44829" lon="5.59547">
        <ele>190.7998</ele>
        <time>2026-05-15T15:46:08+02:00</time>
      </trkpt>
      <trkpt lat="47.44831" lon="5.59553">
        <ele>190.7002</ele>
        <time>2026-05-15T15:46:09+02:00</time>
      </trkpt>
      <trkpt lat="47.44834" lon="5.59559">
        <ele>190.60059</ele>
        <time>2026-05-15T15:46:10+02:00</time>
      </trkpt>
      <trkpt lat="47.44836" lon="5.59564">
        <ele>190.5</ele>
        <time>2026-05-15T15:46:11+02:00</time>
      </trkpt>
      <trkpt lat="47.44839" lon="5.59569">
        <ele>190.5</ele>
        <time>2026-05-15T15:46:12+02:00</time>
      </trkpt>
      <trkpt lat="47.44842" lon="5.59574">
        <ele>190.5</ele>
        <time>2026-05-15T15:46:13+02:00</time>
      </trkpt>
      <trkpt lat="47.44844" lon="5.5958">
        <ele>190.5</ele>
        <time>2026-05-15T15:46:14+02:00</time>
      </trkpt>
      <trkpt lat="47.44847" lon="5.59585">
        <ele>190.5</ele>
        <time>2026-05-15T15:46:15+02:00</time>
      </trkpt>
      <trkpt lat="47.4485" lon="5.5959">
        <ele>190.5</ele>
        <time>2026-05-15T15:46:16+02:00</time>
      </trkpt>
      <trkpt lat="47.44853" lon="5.59596">
        <ele>190.5</ele>
        <time>2026-05-15T15:46:17+02:00</time>
      </trkpt>
      <trkpt lat="47.44855" lon="5.59601">
        <ele>190.5</ele>
        <time>2026-05-15T15:46:18+02:00</time>
      </trkpt>
      <trkpt lat="47.44858" lon="5.59606">
        <ele>190.5</ele>
        <time>2026-05-15T15:46:19+02:00</time>
      </trkpt>
      <trkpt lat="47.44862" lon="5.59611">
        <ele>190.5</ele>
        <time>2026-05-15T15:46:20+02:00</time>
      </trkpt>
      <trkpt lat="47.44865" lon="5.59616">
        <ele>190.40039</ele>
        <time>2026-05-15T15:46:21+02:00</time>
      </trkpt>
      <trkpt lat="47.44868" lon="5.59621">
        <ele>190.5</ele>
        <time>2026-05-15T15:46:22+02:00</time>
      </trkpt>
      <trkpt lat="47.44871" lon="5.59627">
        <ele>190.5</ele>
        <time>2026-05-15T15:46:23+02:00</time>
      </trkpt>
      <trkpt lat="47.44875" lon="5.59631">
        <ele>190.5</ele>
        <time>2026-05-15T15:46:24+02:00</time>
      </trkpt>
      <trkpt lat="47.44879" lon="5.59636">
        <ele>190.5</ele>
        <time>2026-05-15T15:46:25+02:00</time>
      </trkpt>
      <trkpt lat="47.44882" lon="5.59641">
        <ele>190.5</ele>
        <time>2026-05-15T15:46:26+02:00</time>
      </trkpt>
      <trkpt lat="47.44886" lon="5.59646">
        <ele>190.5</ele>
        <time>2026-05-15T15:46:27+02:00</time>
      </trkpt>
      <trkpt lat="47.4489" lon="5.59651">
        <ele>190.5</ele>
        <time>2026-05-15T15:46:28+02:00</time>
      </trkpt>
      <trkpt lat="47.44893" lon="5.59656">
        <ele>190.40039</ele>
        <time>2026-05-15T15:46:29+02:00</time>
      </trkpt>
      <trkpt lat="47.44897" lon="5.59661">
        <ele>190.40039</ele>
        <time>2026-05-15T15:46:30+02:00</time>
      </trkpt>
      <trkpt lat="47.44901" lon="5.59665">
        <ele>190.40039</ele>
        <time>2026-05-15T15:46:31+02:00</time>
      </trkpt>
      <trkpt lat="47.44906" lon="5.59669">
        <ele>190.40039</ele>
        <time>2026-05-15T15:46:32+02:00</time>
      </trkpt>
      <trkpt lat="47.4491" lon="5.59673">
        <ele>190.40039</ele>
        <time>2026-05-15T15:46:33+02:00</time>
      </trkpt>
      <trkpt lat="47.44915" lon="5.59675">
        <ele>190.40039</ele>
        <time>2026-05-15T15:46:34+02:00</time>
      </trkpt>
      <trkpt lat="47.4492" lon="5.59678">
        <ele>190.40039</ele>
        <time>2026-05-15T15:46:35+02:00</time>
      </trkpt>
      <trkpt lat="47.44925" lon="5.59679">
        <ele>190.40039</ele>
        <time>2026-05-15T15:46:36+02:00</time>
      </trkpt>
      <trkpt lat="47.4493" lon="5.5968">
        <ele>190.5</ele>
        <time>2026-05-15T15:46:37+02:00</time>
      </trkpt>
      <trkpt lat="47.44936" lon="5.5968">
        <ele>190.5</ele>
        <time>2026-05-15T15:46:38+02:00</time>
      </trkpt>
      <trkpt lat="47.44941" lon="5.5968">
        <ele>190.60059</ele>
        <time>2026-05-15T15:46:39+02:00</time>
      </trkpt>
      <trkpt lat="47.44947" lon="5.59681">
        <ele>190.60059</ele>
        <time>2026-05-15T15:46:40+02:00</time>
      </trkpt>
      <trkpt lat="47.44953" lon="5.59681">
        <ele>190.7002</ele>
        <time>2026-05-15T15:46:41+02:00</time>
      </trkpt>
      <trkpt lat="47.44958" lon="5.59681">
        <ele>190.7998</ele>
        <time>2026-05-15T15:46:42+02:00</time>
      </trkpt>
      <trkpt lat="47.44964" lon="5.59681">
        <ele>190.90039</ele>
        <time>2026-05-15T15:46:43+02:00</time>
      </trkpt>
      <trkpt lat="47.4497" lon="5.59682">
        <ele>190.90039</ele>
        <time>2026-05-15T15:46:44+02:00</time>
      </trkpt>
      <trkpt lat="47.44976" lon="5.59683">
        <ele>191</ele>
        <time>2026-05-15T15:46:45+02:00</time>
      </trkpt>
      <trkpt lat="47.44982" lon="5.59686">
        <ele>191.10059</ele>
        <time>2026-05-15T15:46:46+02:00</time>
      </trkpt>
      <trkpt lat="47.44987" lon="5.59689">
        <ele>191.2998</ele>
        <time>2026-05-15T15:46:47+02:00</time>
      </trkpt>
      <trkpt lat="47.44993" lon="5.59693">
        <ele>191.40039</ele>
        <time>2026-05-15T15:46:48+02:00</time>
      </trkpt>
      <trkpt lat="47.44998" lon="5.59697">
        <ele>191.5</ele>
        <time>2026-05-15T15:46:49+02:00</time>
      </trkpt>
      <trkpt lat="47.45004" lon="5.59701">
        <ele>191.60059</ele>
        <time>2026-05-15T15:46:50+02:00</time>
      </trkpt>
      <trkpt lat="47.45009" lon="5.59705">
        <ele>191.60059</ele>
        <time>2026-05-15T15:46:51+02:00</time>
      </trkpt>
      <trkpt lat="47.45015" lon="5.5971">
        <ele>191.90039</ele>
        <time>2026-05-15T15:46:52+02:00</time>
      </trkpt>
      <trkpt lat="47.4502" lon="5.59714">
        <ele>191.7998</ele>
        <time>2026-05-15T15:46:53+02:00</time>
      </trkpt>
      <trkpt lat="47.45026" lon="5.59719">
        <ele>192</ele>
        <time>2026-05-15T15:46:54+02:00</time>
      </trkpt>
      <trkpt lat="47.45031" lon="5.59724">
        <ele>192.10059</ele>
        <time>2026-05-15T15:46:55+02:00</time>
      </trkpt>
      <trkpt lat="47.45036" lon="5.59729">
        <ele>192.40039</ele>
        <time>2026-05-15T15:46:56+02:00</time>
      </trkpt>
      <trkpt lat="47.45041" lon="5.59735">
        <ele>192.60059</ele>
        <time>2026-05-15T15:46:57+02:00</time>
      </trkpt>
      <trkpt lat="47.45046" lon="5.59741">
        <ele>192.7998</ele>
        <time>2026-05-15T15:46:58+02:00</time>
      </trkpt>
      <trkpt lat="47.4505" lon="5.59746">
        <ele>193.10059</ele>
        <time>2026-05-15T15:46:59+02:00</time>
      </trkpt>
      <trkpt lat="47.45054" lon="5.59752">
        <ele>193.10059</ele>
        <time>2026-05-15T15:47:00+02:00</time>
      </trkpt>
      <trkpt lat="47.45059" lon="5.59757">
        <ele>193.5</ele>
        <time>2026-05-15T15:47:01+02:00</time>
      </trkpt>
      <trkpt lat="47.45064" lon="5.59763">
        <ele>193.90039</ele>
        <time>2026-05-15T15:47:02+02:00</time>
      </trkpt>
      <trkpt lat="47.45068" lon="5.59768">
        <ele>194.10059</ele>
        <time>2026-05-15T15:47:03+02:00</time>
      </trkpt>
      <trkpt lat="47.45072" lon="5.59773">
        <ele>194.2002</ele>
        <time>2026-05-15T15:47:04+02:00</time>
      </trkpt>
      <trkpt lat="47.45077" lon="5.59778">
        <ele>194.40039</ele>
        <time>2026-05-15T15:47:05+02:00</time>
      </trkpt>
      <trkpt lat="47.45081" lon="5.59783">
        <ele>194.7998</ele>
        <time>2026-05-15T15:47:06+02:00</time>
      </trkpt>
      <trkpt lat="47.45085" lon="5.59788">
        <ele>195.10059</ele>
        <time>2026-05-15T15:47:07+02:00</time>
      </trkpt>
      <trkpt lat="47.45089" lon="5.59794">
        <ele>195.10059</ele>
        <time>2026-05-15T15:47:08+02:00</time>
      </trkpt>
      <trkpt lat="47.45093" lon="5.59799">
        <ele>195.10059</ele>
        <time>2026-05-15T15:47:09+02:00</time>
      </trkpt>
      <trkpt lat="47.45098" lon="5.59803">
        <ele>194.7998</ele>
        <time>2026-05-15T15:47:10+02:00</time>
      </trkpt>
      <trkpt lat="47.45102" lon="5.59808">
        <ele>194.10059</ele>
        <time>2026-05-15T15:47:11+02:00</time>
      </trkpt>
      <trkpt lat="47.45107" lon="5.59812">
        <ele>194.10059</ele>
        <time>2026-05-15T15:47:12+02:00</time>
      </trkpt>
      <trkpt lat="47.45111" lon="5.59816">
        <ele>193.5</ele>
        <time>2026-05-15T15:47:13+02:00</time>
      </trkpt>
      <trkpt lat="47.45115" lon="5.59821">
        <ele>192.90039</ele>
        <time>2026-05-15T15:47:14+02:00</time>
      </trkpt>
      <trkpt lat="47.4512" lon="5.59826">
        <ele>193.10059</ele>
        <time>2026-05-15T15:47:15+02:00</time>
      </trkpt>
      <trkpt lat="47.45124" lon="5.59831">
        <ele>193.60059</ele>
        <time>2026-05-15T15:47:16+02:00</time>
      </trkpt>
      <trkpt lat="47.45128" lon="5.59836">
        <ele>193.2002</ele>
        <time>2026-05-15T15:47:17+02:00</time>
      </trkpt>
      <trkpt lat="47.45133" lon="5.59841">
        <ele>192.7002</ele>
        <time>2026-05-15T15:47:18+02:00</time>
      </trkpt>
      <trkpt lat="47.45137" lon="5.59846">
        <ele>192.10059</ele>
        <time>2026-05-15T15:47:19+02:00</time>
      </trkpt>
      <trkpt lat="47.45141" lon="5.59851">
        <ele>192.2998</ele>
        <time>2026-05-15T15:47:20+02:00</time>
      </trkpt>
      <trkpt lat="47.45146" lon="5.59856">
        <ele>191.90039</ele>
        <time>2026-05-15T15:47:21+02:00</time>
      </trkpt>
      <trkpt lat="47.4515" lon="5.59861">
        <ele>191.90039</ele>
        <time>2026-05-15T15:47:22+02:00</time>
      </trkpt>
      <trkpt lat="47.45154" lon="5.59866">
        <ele>191.7998</ele>
        <time>2026-05-15T15:47:23+02:00</time>
      </trkpt>
      <trkpt lat="47.45158" lon="5.5987">
        <ele>191.7998</ele>
        <time>2026-05-15T15:47:24+02:00</time>
      </trkpt>
      <trkpt lat="47.45162" lon="5.59875">
        <ele>191.5</ele>
        <time>2026-05-15T15:47:25+02:00</time>
      </trkpt>
      <trkpt lat="47.45165" lon="5.5988">
        <ele>191.5</ele>
        <time>2026-05-15T15:47:26+02:00</time>
      </trkpt>
      <trkpt lat="47.45167" lon="5.59886">
        <ele>191</ele>
        <time>2026-05-15T15:47:27+02:00</time>
      </trkpt>
      <trkpt lat="47.4517" lon="5.59891">
        <ele>190.7998</ele>
        <time>2026-05-15T15:47:28+02:00</time>
      </trkpt>
      <trkpt lat="47.45172" lon="5.59896">
        <ele>190.5</ele>
        <time>2026-05-15T15:47:29+02:00</time>
      </trkpt>
      <trkpt lat="47.45173" lon="5.59901">
        <ele>190.5</ele>
        <time>2026-05-15T15:47:30+02:00</time>
      </trkpt>
      <trkpt lat="47.45175" lon="5.59907">
        <ele>190.5</ele>
        <time>2026-05-15T15:47:31+02:00</time>
      </trkpt>
      <trkpt lat="47.45176" lon="5.59913">
        <ele>190.60059</ele>
        <time>2026-05-15T15:47:32+02:00</time>
      </trkpt>
      <trkpt lat="47.45178" lon="5.59919">
        <ele>190.60059</ele>
        <time>2026-05-15T15:47:33+02:00</time>
      </trkpt>
      <trkpt lat="47.4518" lon="5.59924">
        <ele>190.60059</ele>
        <time>2026-05-15T15:47:34+02:00</time>
      </trkpt>
      <trkpt lat="47.45182" lon="5.5993">
        <ele>190.7002</ele>
        <time>2026-05-15T15:47:35+02:00</time>
      </trkpt>
      <trkpt lat="47.45183" lon="5.59935">
        <ele>190.60059</ele>
        <time>2026-05-15T15:47:36+02:00</time>
      </trkpt>
      <trkpt lat="47.45184" lon="5.59941">
        <ele>190.60059</ele>
        <time>2026-05-15T15:47:37+02:00</time>
      </trkpt>
      <trkpt lat="47.45186" lon="5.59947">
        <ele>190.5</ele>
        <time>2026-05-15T15:47:38+02:00</time>
      </trkpt>
      <trkpt lat="47.45188" lon="5.59952">
        <ele>190.2998</ele>
        <time>2026-05-15T15:47:39+02:00</time>
      </trkpt>
      <trkpt lat="47.45189" lon="5.59957">
        <ele>190.2002</ele>
        <time>2026-05-15T15:47:40+02:00</time>
      </trkpt>
      <trkpt lat="47.45191" lon="5.59962">
        <ele>190</ele>
        <time>2026-05-15T15:47:41+02:00</time>
      </trkpt>
      <trkpt lat="47.45192" lon="5.59966">
        <ele>190</ele>
        <time>2026-05-15T15:47:42+02:00</time>
      </trkpt>
      <trkpt lat="47.45193" lon="5.5997">
        <ele>189.90039</ele>
        <time>2026-05-15T15:47:43+02:00</time>
      </trkpt>
      <trkpt lat="47.45195" lon="5.59975">
        <ele>189.7998</ele>
        <time>2026-05-15T15:47:44+02:00</time>
      </trkpt>
      <trkpt lat="47.45197" lon="5.5998">
        <ele>189.60059</ele>
        <time>2026-05-15T15:47:45+02:00</time>
      </trkpt>
      <trkpt lat="47.45198" lon="5.59985">
        <ele>189.60059</ele>
        <time>2026-05-15T15:47:46+02:00</time>
      </trkpt>
      <trkpt lat="47.452" lon="5.5999">
        <ele>189.5</ele>
        <time>2026-05-15T15:47:47+02:00</time>
      </trkpt>
      <trkpt lat="47.45201" lon="5.59995">
        <ele>189.2998</ele>
        <time>2026-05-15T15:47:48+02:00</time>
      </trkpt>
      <trkpt lat="47.45202" lon="5.60001">
        <ele>189.2998</ele>
        <time>2026-05-15T15:47:49+02:00</time>
      </trkpt>
      <trkpt lat="47.45203" lon="5.60006">
        <ele>189.40039</ele>
        <time>2026-05-15T15:47:50+02:00</time>
      </trkpt>
      <trkpt lat="47.45205" lon="5.60011">
        <ele>189.60059</ele>
        <time>2026-05-15T15:47:51+02:00</time>
      </trkpt>
      <trkpt lat="47.45206" lon="5.60017">
        <ele>189.60059</ele>
        <time>2026-05-15T15:47:52+02:00</time>
      </trkpt>
      <trkpt lat="47.45207" lon="5.60022">
        <ele>189.7002</ele>
        <time>2026-05-15T15:47:53+02:00</time>
      </trkpt>
      <trkpt lat="47.45208" lon="5.60028">
        <ele>189.7002</ele>
        <time>2026-05-15T15:47:54+02:00</time>
      </trkpt>
      <trkpt lat="47.4521" lon="5.60034">
        <ele>189.90039</ele>
        <time>2026-05-15T15:47:55+02:00</time>
      </trkpt>
      <trkpt lat="47.45212" lon="5.6004">
        <ele>190.10059</ele>
        <time>2026-05-15T15:47:56+02:00</time>
      </trkpt>
      <trkpt lat="47.45213" lon="5.60046">
        <ele>190.40039</ele>
        <time>2026-05-15T15:47:57+02:00</time>
      </trkpt>
      <trkpt lat="47.45215" lon="5.60052">
        <ele>190.40039</ele>
        <time>2026-05-15T15:47:58+02:00</time>
      </trkpt>
      <trkpt lat="47.45217" lon="5.60058">
        <ele>190.7002</ele>
        <time>2026-05-15T15:47:59+02:00</time>
      </trkpt>
      <trkpt lat="47.4522" lon="5.60064">
        <ele>190.90039</ele>
        <time>2026-05-15T15:48:00+02:00</time>
      </trkpt>
      <trkpt lat="47.45221" lon="5.6007">
        <ele>190.90039</ele>
        <time>2026-05-15T15:48:01+02:00</time>
      </trkpt>
      <trkpt lat="47.45223" lon="5.60076">
        <ele>191</ele>
        <time>2026-05-15T15:48:02+02:00</time>
      </trkpt>
      <trkpt lat="47.45225" lon="5.60082">
        <ele>191.10059</ele>
        <time>2026-05-15T15:48:03+02:00</time>
      </trkpt>
      <trkpt lat="47.45227" lon="5.60088">
        <ele>191.10059</ele>
        <time>2026-05-15T15:48:04+02:00</time>
      </trkpt>
      <trkpt lat="47.45228" lon="5.60095">
        <ele>191.2002</ele>
        <time>2026-05-15T15:48:05+02:00</time>
      </trkpt>
      <trkpt lat="47.4523" lon="5.60101">
        <ele>191.2002</ele>
        <time>2026-05-15T15:48:06+02:00</time>
      </trkpt>
      <trkpt lat="47.45232" lon="5.60106">
        <ele>191.2998</ele>
        <time>2026-05-15T15:48:07+02:00</time>
      </trkpt>
      <trkpt lat="47.45233" lon="5.60112">
        <ele>191.2998</ele>
        <time>2026-05-15T15:48:08+02:00</time>
      </trkpt>
      <trkpt lat="47.45235" lon="5.60117">
        <ele>191.2998</ele>
        <time>2026-05-15T15:48:09+02:00</time>
      </trkpt>
      <trkpt lat="47.45236" lon="5.60123">
        <ele>191.2998</ele>
        <time>2026-05-15T15:48:10+02:00</time>
      </trkpt>
      <trkpt lat="47.45237" lon="5.60128">
        <ele>191.2998</ele>
        <time>2026-05-15T15:48:11+02:00</time>
      </trkpt>
      <trkpt lat="47.45239" lon="5.60132">
        <ele>191.2998</ele>
        <time>2026-05-15T15:48:12+02:00</time>
      </trkpt>
      <trkpt lat="47.45241" lon="5.60137">
        <ele>191.2998</ele>
        <time>2026-05-15T15:48:13+02:00</time>
      </trkpt>
      <trkpt lat="47.45242" lon="5.60142">
        <ele>191.2998</ele>
        <time>2026-05-15T15:48:14+02:00</time>
      </trkpt>
      <trkpt lat="47.45244" lon="5.60147">
        <ele>191.2998</ele>
        <time>2026-05-15T15:48:15+02:00</time>
      </trkpt>
      <trkpt lat="47.45245" lon="5.60151">
        <ele>191.2998</ele>
        <time>2026-05-15T15:48:16+02:00</time>
      </trkpt>
      <trkpt lat="47.45245" lon="5.60156">
        <ele>191.2998</ele>
        <time>2026-05-15T15:48:17+02:00</time>
      </trkpt>
      <trkpt lat="47.45244" lon="5.6016">
        <ele>191.2002</ele>
        <time>2026-05-15T15:48:18+02:00</time>
      </trkpt>
      <trkpt lat="47.45242" lon="5.60164">
        <ele>191.2002</ele>
        <time>2026-05-15T15:48:19+02:00</time>
      </trkpt>
      <trkpt lat="47.4524" lon="5.60165">
        <ele>191.2002</ele>
        <time>2026-05-15T15:48:20+02:00</time>
      </trkpt>
      <trkpt lat="47.45237" lon="5.60165">
        <ele>191.2002</ele>
        <time>2026-05-15T15:48:21+02:00</time>
      </trkpt>
      <trkpt lat="47.45235" lon="5.60164">
        <ele>191.2998</ele>
        <time>2026-05-15T15:48:22+02:00</time>
      </trkpt>
      <trkpt lat="47.45233" lon="5.60165">
        <ele>191.2998</ele>
        <time>2026-05-15T15:48:23+02:00</time>
      </trkpt>
      <trkpt lat="47.4523" lon="5.60166">
        <ele>191.10059</ele>
        <time>2026-05-15T15:48:24+02:00</time>
      </trkpt>
      <trkpt lat="47.45228" lon="5.60168">
        <ele>191.2002</ele>
        <time>2026-05-15T15:48:25+02:00</time>
      </trkpt>
      <trkpt lat="47.45225" lon="5.6017">
        <ele>191.2002</ele>
        <time>2026-05-15T15:48:26+02:00</time>
      </trkpt>
      <trkpt lat="47.45223" lon="5.60173">
        <ele>191.2002</ele>
        <time>2026-05-15T15:48:27+02:00</time>
      </trkpt>
      <trkpt lat="47.4522" lon="5.60177">
        <ele>191.10059</ele>
        <time>2026-05-15T15:48:28+02:00</time>
      </trkpt>
      <trkpt lat="47.45218" lon="5.60181">
        <ele>191.2002</ele>
        <time>2026-05-15T15:48:29+02:00</time>
      </trkpt>
      <trkpt lat="47.45216" lon="5.60184">
        <ele>191</ele>
        <time>2026-05-15T15:48:30+02:00</time>
      </trkpt>
      <trkpt lat="47.45213" lon="5.60188">
        <ele>191</ele>
        <time>2026-05-15T15:48:31+02:00</time>
      </trkpt>
      <trkpt lat="47.45212" lon="5.60192">
        <ele>190.7998</ele>
        <time>2026-05-15T15:48:32+02:00</time>
      </trkpt>
      <trkpt lat="47.4521" lon="5.60196">
        <ele>190.90039</ele>
        <time>2026-05-15T15:48:33+02:00</time>
      </trkpt>
      <trkpt lat="47.45208" lon="5.60199">
        <ele>190.90039</ele>
        <time>2026-05-15T15:48:34+02:00</time>
      </trkpt>
      <trkpt lat="47.45207" lon="5.60203">
        <ele>190.7002</ele>
        <time>2026-05-15T15:48:35+02:00</time>
      </trkpt>
      <trkpt lat="47.45206" lon="5.60207">
        <ele>190.7998</ele>
        <time>2026-05-15T15:48:36+02:00</time>
      </trkpt>
      <trkpt lat="47.45205" lon="5.6021">
        <ele>190.60059</ele>
        <time>2026-05-15T15:48:37+02:00</time>
      </trkpt>
      <trkpt lat="47.45204" lon="5.60213">
        <ele>190.60059</ele>
        <time>2026-05-15T15:48:38+02:00</time>
      </trkpt>
      <trkpt lat="47.45204" lon="5.60216">
        <ele>190.60059</ele>
        <time>2026-05-15T15:48:39+02:00</time>
      </trkpt>
      <trkpt lat="47.45204" lon="5.60217">
        <ele>190.40039</ele>
        <time>2026-05-15T15:48:40+02:00</time>
      </trkpt>
      <trkpt lat="47.45204" lon="5.60218">
        <ele>190.40039</ele>
        <time>2026-05-15T15:48:41+02:00</time>
      </trkpt>
      <trkpt lat="47.45204" lon="5.60218">
        <ele>190.40039</ele>
        <time>2026-05-15T15:48:42+02:00</time>
      </trkpt>
      <trkpt lat="47.45204" lon="5.60218">
        <ele>190.40039</ele>
        <time>2026-05-15T15:48:43+02:00</time>
      </trkpt>
      <trkpt lat="47.45204" lon="5.60218">
        <ele>190.40039</ele>
        <time>2026-05-15T15:48:44+02:00</time>
      </trkpt>
    </trkseg>
  </trk>
</gpx>